<?xml version="1.0" encoding="UTF-8" standalone="no" ?>
<gpx xmlns="http://www.topografix.com/GPX/1/1" xmlns:xsi="http://www.w3.org/2001/XMLSchema-instance" xsi:schemaLocation="http://www.topografix.com/GPX/1/1 http://www.topografix.com/GPX/1/1/gpx.xsd" version="1.1" creator="VisuGPX - https://www.visugpx.com">
  <metadata>
    <name>LIZIO</name>
    <desc><![CDATA[Superbe rando à l 'abri su soleil dans une superbe vallée boisée]]></desc>
  </metadata>
  <trk>
    <name><![CDATA[LIZIO_1]]></name>
    <trkseg>
      <trkpt lat="47.87033" lon="-2.51818">
        <ele>115</ele>
        <time>2023-07-22T08:31:52.928Z</time>
      </trkpt>
      <trkpt lat="47.87034" lon="-2.51819">
        <ele>114</ele>
        <time>2023-07-22T08:31:53.928Z</time>
      </trkpt>
      <trkpt lat="47.87035" lon="-2.5182">
        <ele>113</ele>
        <time>2023-07-22T08:31:54.928Z</time>
      </trkpt>
      <trkpt lat="47.87036" lon="-2.5182">
        <ele>112</ele>
        <time>2023-07-22T08:31:55.928Z</time>
      </trkpt>
      <trkpt lat="47.87037" lon="-2.5182">
        <ele>111</ele>
        <time>2023-07-22T08:31:56.928Z</time>
      </trkpt>
      <trkpt lat="47.87038" lon="-2.5182">
        <ele>110</ele>
        <time>2023-07-22T08:31:57.928Z</time>
      </trkpt>
      <trkpt lat="47.87039" lon="-2.5182">
        <ele>109</ele>
        <time>2023-07-22T08:31:58.929Z</time>
      </trkpt>
      <trkpt lat="47.87041" lon="-2.5182">
        <ele>108</ele>
        <time>2023-07-22T08:31:59.928Z</time>
      </trkpt>
      <trkpt lat="47.87042" lon="-2.5182">
        <ele>108</ele>
        <time>2023-07-22T08:32:00.928Z</time>
      </trkpt>
      <trkpt lat="47.87043" lon="-2.5182">
        <ele>107</ele>
        <time>2023-07-22T08:32:01.928Z</time>
      </trkpt>
      <trkpt lat="47.87044" lon="-2.5182">
        <ele>107</ele>
        <time>2023-07-22T08:32:02.929Z</time>
      </trkpt>
      <trkpt lat="47.87045" lon="-2.5182">
        <ele>106</ele>
        <time>2023-07-22T08:32:03.928Z</time>
      </trkpt>
      <trkpt lat="47.87046" lon="-2.5182">
        <ele>105</ele>
        <time>2023-07-22T08:32:04.929Z</time>
      </trkpt>
      <trkpt lat="47.87047" lon="-2.5182">
        <ele>105</ele>
        <time>2023-07-22T08:32:05.928Z</time>
      </trkpt>
      <trkpt lat="47.87048" lon="-2.5182">
        <ele>104</ele>
        <time>2023-07-22T08:32:06.928Z</time>
      </trkpt>
      <trkpt lat="47.87049" lon="-2.51819">
        <ele>103</ele>
        <time>2023-07-22T08:32:07.928Z</time>
      </trkpt>
      <trkpt lat="47.8705" lon="-2.51819">
        <ele>103</ele>
        <time>2023-07-22T08:32:08.928Z</time>
      </trkpt>
      <trkpt lat="47.87052" lon="-2.51819">
        <ele>102</ele>
        <time>2023-07-22T08:32:09.929Z</time>
      </trkpt>
      <trkpt lat="47.87053" lon="-2.5182">
        <ele>101</ele>
        <time>2023-07-22T08:32:10.929Z</time>
      </trkpt>
      <trkpt lat="47.87054" lon="-2.5182">
        <ele>100</ele>
        <time>2023-07-22T08:32:11.929Z</time>
      </trkpt>
      <trkpt lat="47.87055" lon="-2.5182">
        <ele>99</ele>
        <time>2023-07-22T08:32:12.928Z</time>
      </trkpt>
      <trkpt lat="47.87056" lon="-2.51819">
        <ele>99</ele>
        <time>2023-07-22T08:32:13.928Z</time>
      </trkpt>
      <trkpt lat="47.87057" lon="-2.51819">
        <ele>98</ele>
        <time>2023-07-22T08:32:14.929Z</time>
      </trkpt>
      <trkpt lat="47.87057" lon="-2.51819">
        <ele>97</ele>
        <time>2023-07-22T08:32:15.929Z</time>
      </trkpt>
      <trkpt lat="47.87058" lon="-2.5182">
        <ele>97</ele>
        <time>2023-07-22T08:32:16.928Z</time>
      </trkpt>
      <trkpt lat="47.87059" lon="-2.51819">
        <ele>96</ele>
        <time>2023-07-22T08:32:17.928Z</time>
      </trkpt>
      <trkpt lat="47.87061" lon="-2.51818">
        <ele>96</ele>
        <time>2023-07-22T08:32:18.929Z</time>
      </trkpt>
      <trkpt lat="47.87062" lon="-2.51818">
        <ele>96</ele>
        <time>2023-07-22T08:32:19.929Z</time>
      </trkpt>
      <trkpt lat="47.87064" lon="-2.51818">
        <ele>96</ele>
        <time>2023-07-22T08:32:20.928Z</time>
      </trkpt>
      <trkpt lat="47.87065" lon="-2.51817">
        <ele>96</ele>
        <time>2023-07-22T08:32:21.929Z</time>
      </trkpt>
      <trkpt lat="47.87066" lon="-2.51817">
        <ele>97</ele>
        <time>2023-07-22T08:32:22.928Z</time>
      </trkpt>
      <trkpt lat="47.87067" lon="-2.51818">
        <ele>97</ele>
        <time>2023-07-22T08:32:23.928Z</time>
      </trkpt>
      <trkpt lat="47.87067" lon="-2.51818">
        <ele>97</ele>
        <time>2023-07-22T08:32:24.929Z</time>
      </trkpt>
      <trkpt lat="47.87067" lon="-2.51818">
        <ele>97</ele>
        <time>2023-07-22T08:32:25.928Z</time>
      </trkpt>
      <trkpt lat="47.87068" lon="-2.51818">
        <ele>95</ele>
        <time>2023-07-22T08:32:32.925Z</time>
      </trkpt>
      <trkpt lat="47.87068" lon="-2.51818">
        <ele>95</ele>
        <time>2023-07-22T08:32:33.925Z</time>
      </trkpt>
      <trkpt lat="47.87068" lon="-2.51818">
        <ele>95</ele>
        <time>2023-07-22T08:32:34.925Z</time>
      </trkpt>
      <trkpt lat="47.87068" lon="-2.51818">
        <ele>96</ele>
        <time>2023-07-22T08:32:35.926Z</time>
      </trkpt>
      <trkpt lat="47.87067" lon="-2.51818">
        <ele>96</ele>
        <time>2023-07-22T08:32:36.925Z</time>
      </trkpt>
      <trkpt lat="47.87067" lon="-2.51819">
        <ele>96</ele>
        <time>2023-07-22T08:32:37.926Z</time>
      </trkpt>
      <trkpt lat="47.87067" lon="-2.51819">
        <ele>97</ele>
        <time>2023-07-22T08:32:38.926Z</time>
      </trkpt>
      <trkpt lat="47.87066" lon="-2.51819">
        <ele>97</ele>
        <time>2023-07-22T08:32:39.925Z</time>
      </trkpt>
      <trkpt lat="47.87065" lon="-2.51819">
        <ele>97</ele>
        <time>2023-07-22T08:32:40.926Z</time>
      </trkpt>
      <trkpt lat="47.87064" lon="-2.51818">
        <ele>97</ele>
        <time>2023-07-22T08:32:41.926Z</time>
      </trkpt>
      <trkpt lat="47.87064" lon="-2.51818">
        <ele>97</ele>
        <time>2023-07-22T08:32:42.925Z</time>
      </trkpt>
      <trkpt lat="47.87064" lon="-2.51819">
        <ele>97</ele>
        <time>2023-07-22T08:32:43.925Z</time>
      </trkpt>
      <trkpt lat="47.87064" lon="-2.51819">
        <ele>97</ele>
        <time>2023-07-22T08:32:44.925Z</time>
      </trkpt>
      <trkpt lat="47.87064" lon="-2.51819">
        <ele>97</ele>
        <time>2023-07-22T08:32:45.925Z</time>
      </trkpt>
      <trkpt lat="47.87064" lon="-2.51819">
        <ele>97</ele>
        <time>2023-07-22T08:32:46.925Z</time>
      </trkpt>
      <trkpt lat="47.87064" lon="-2.51819">
        <ele>96</ele>
        <time>2023-07-22T08:32:47.925Z</time>
      </trkpt>
      <trkpt lat="47.87064" lon="-2.51818">
        <ele>96</ele>
        <time>2023-07-22T08:32:48.925Z</time>
      </trkpt>
      <trkpt lat="47.87064" lon="-2.51817">
        <ele>97</ele>
        <time>2023-07-22T08:32:49.925Z</time>
      </trkpt>
      <trkpt lat="47.87064" lon="-2.51816">
        <ele>97</ele>
        <time>2023-07-22T08:32:50.926Z</time>
      </trkpt>
      <trkpt lat="47.87063" lon="-2.51815">
        <ele>97</ele>
        <time>2023-07-22T08:32:51.925Z</time>
      </trkpt>
      <trkpt lat="47.87064" lon="-2.51815">
        <ele>98</ele>
        <time>2023-07-22T08:32:52.925Z</time>
      </trkpt>
      <trkpt lat="47.87065" lon="-2.51816">
        <ele>98</ele>
        <time>2023-07-22T08:32:53.925Z</time>
      </trkpt>
      <trkpt lat="47.87067" lon="-2.51817">
        <ele>98</ele>
        <time>2023-07-22T08:32:54.926Z</time>
      </trkpt>
      <trkpt lat="47.87069" lon="-2.51817">
        <ele>98</ele>
        <time>2023-07-22T08:32:55.925Z</time>
      </trkpt>
      <trkpt lat="47.87071" lon="-2.51817">
        <ele>99</ele>
        <time>2023-07-22T08:32:56.925Z</time>
      </trkpt>
      <trkpt lat="47.87072" lon="-2.51818">
        <ele>99</ele>
        <time>2023-07-22T08:32:57.925Z</time>
      </trkpt>
      <trkpt lat="47.87074" lon="-2.51819">
        <ele>99</ele>
        <time>2023-07-22T08:32:58.925Z</time>
      </trkpt>
      <trkpt lat="47.87075" lon="-2.5182">
        <ele>100</ele>
        <time>2023-07-22T08:32:59.925Z</time>
      </trkpt>
      <trkpt lat="47.87076" lon="-2.51821">
        <ele>101</ele>
        <time>2023-07-22T08:33:00.925Z</time>
      </trkpt>
      <trkpt lat="47.87077" lon="-2.51822">
        <ele>101</ele>
        <time>2023-07-22T08:33:01.925Z</time>
      </trkpt>
      <trkpt lat="47.87076" lon="-2.51823">
        <ele>101</ele>
        <time>2023-07-22T08:33:02.926Z</time>
      </trkpt>
      <trkpt lat="47.87076" lon="-2.51824">
        <ele>101</ele>
        <time>2023-07-22T08:33:03.925Z</time>
      </trkpt>
      <trkpt lat="47.87076" lon="-2.51825">
        <ele>101</ele>
        <time>2023-07-22T08:33:04.925Z</time>
      </trkpt>
      <trkpt lat="47.87076" lon="-2.51827">
        <ele>101</ele>
        <time>2023-07-22T08:33:05.926Z</time>
      </trkpt>
      <trkpt lat="47.87077" lon="-2.51828">
        <ele>102</ele>
        <time>2023-07-22T08:33:06.926Z</time>
      </trkpt>
      <trkpt lat="47.87077" lon="-2.51829">
        <ele>102</ele>
        <time>2023-07-22T08:33:07.926Z</time>
      </trkpt>
      <trkpt lat="47.87078" lon="-2.5183">
        <ele>101</ele>
        <time>2023-07-22T08:33:08.926Z</time>
      </trkpt>
      <trkpt lat="47.87078" lon="-2.51831">
        <ele>101</ele>
        <time>2023-07-22T08:33:09.926Z</time>
      </trkpt>
      <trkpt lat="47.87079" lon="-2.51831">
        <ele>100</ele>
        <time>2023-07-22T08:33:10.925Z</time>
      </trkpt>
      <trkpt lat="47.87079" lon="-2.51832">
        <ele>99</ele>
        <time>2023-07-22T08:33:11.926Z</time>
      </trkpt>
      <trkpt lat="47.8708" lon="-2.51833">
        <ele>99</ele>
        <time>2023-07-22T08:33:12.925Z</time>
      </trkpt>
      <trkpt lat="47.8708" lon="-2.51834">
        <ele>99</ele>
        <time>2023-07-22T08:33:13.926Z</time>
      </trkpt>
      <trkpt lat="47.8708" lon="-2.51835">
        <ele>98</ele>
        <time>2023-07-22T08:33:14.926Z</time>
      </trkpt>
      <trkpt lat="47.8708" lon="-2.51836">
        <ele>98</ele>
        <time>2023-07-22T08:33:15.926Z</time>
      </trkpt>
      <trkpt lat="47.8708" lon="-2.51838">
        <ele>98</ele>
        <time>2023-07-22T08:33:16.926Z</time>
      </trkpt>
      <trkpt lat="47.87081" lon="-2.5184">
        <ele>98</ele>
        <time>2023-07-22T08:33:17.926Z</time>
      </trkpt>
      <trkpt lat="47.87081" lon="-2.51839">
        <ele>97</ele>
        <time>2023-07-22T08:33:18.925Z</time>
      </trkpt>
      <trkpt lat="47.8708" lon="-2.51838">
        <ele>97</ele>
        <time>2023-07-22T08:33:19.926Z</time>
      </trkpt>
      <trkpt lat="47.87081" lon="-2.51839">
        <ele>97</ele>
        <time>2023-07-22T08:33:20.925Z</time>
      </trkpt>
      <trkpt lat="47.87081" lon="-2.51839">
        <ele>97</ele>
        <time>2023-07-22T08:33:21.925Z</time>
      </trkpt>
      <trkpt lat="47.87081" lon="-2.51839">
        <ele>96</ele>
        <time>2023-07-22T08:33:22.925Z</time>
      </trkpt>
      <trkpt lat="47.87082" lon="-2.51839">
        <ele>95</ele>
        <time>2023-07-22T08:33:23.925Z</time>
      </trkpt>
      <trkpt lat="47.87083" lon="-2.5184">
        <ele>95</ele>
        <time>2023-07-22T08:33:24.926Z</time>
      </trkpt>
      <trkpt lat="47.87084" lon="-2.51841">
        <ele>94</ele>
        <time>2023-07-22T08:33:25.925Z</time>
      </trkpt>
      <trkpt lat="47.87086" lon="-2.51842">
        <ele>94</ele>
        <time>2023-07-22T08:33:26.926Z</time>
      </trkpt>
      <trkpt lat="47.87087" lon="-2.51841">
        <ele>94</ele>
        <time>2023-07-22T08:33:27.926Z</time>
      </trkpt>
      <trkpt lat="47.87088" lon="-2.51839">
        <ele>93</ele>
        <time>2023-07-22T08:33:28.925Z</time>
      </trkpt>
      <trkpt lat="47.87088" lon="-2.51836">
        <ele>93</ele>
        <time>2023-07-22T08:33:29.925Z</time>
      </trkpt>
      <trkpt lat="47.87089" lon="-2.51835">
        <ele>93</ele>
        <time>2023-07-22T08:33:30.925Z</time>
      </trkpt>
      <trkpt lat="47.8709" lon="-2.51834">
        <ele>93</ele>
        <time>2023-07-22T08:33:31.925Z</time>
      </trkpt>
      <trkpt lat="47.87092" lon="-2.51833">
        <ele>93</ele>
        <time>2023-07-22T08:33:32.925Z</time>
      </trkpt>
      <trkpt lat="47.87093" lon="-2.51832">
        <ele>92</ele>
        <time>2023-07-22T08:33:33.925Z</time>
      </trkpt>
      <trkpt lat="47.87094" lon="-2.51831">
        <ele>92</ele>
        <time>2023-07-22T08:33:34.926Z</time>
      </trkpt>
      <trkpt lat="47.87095" lon="-2.51831">
        <ele>92</ele>
        <time>2023-07-22T08:33:35.926Z</time>
      </trkpt>
      <trkpt lat="47.87096" lon="-2.5183">
        <ele>91</ele>
        <time>2023-07-22T08:33:36.925Z</time>
      </trkpt>
      <trkpt lat="47.87097" lon="-2.5183">
        <ele>91</ele>
        <time>2023-07-22T08:33:37.926Z</time>
      </trkpt>
      <trkpt lat="47.87097" lon="-2.5183">
        <ele>91</ele>
        <time>2023-07-22T08:33:38.925Z</time>
      </trkpt>
      <trkpt lat="47.87098" lon="-2.51831">
        <ele>91</ele>
        <time>2023-07-22T08:33:39.926Z</time>
      </trkpt>
      <trkpt lat="47.87098" lon="-2.51832">
        <ele>92</ele>
        <time>2023-07-22T08:33:40.926Z</time>
      </trkpt>
      <trkpt lat="47.87098" lon="-2.51833">
        <ele>92</ele>
        <time>2023-07-22T08:33:41.925Z</time>
      </trkpt>
      <trkpt lat="47.87099" lon="-2.51833">
        <ele>92</ele>
        <time>2023-07-22T08:33:42.925Z</time>
      </trkpt>
      <trkpt lat="47.87098" lon="-2.51833">
        <ele>93</ele>
        <time>2023-07-22T08:33:43.925Z</time>
      </trkpt>
      <trkpt lat="47.87098" lon="-2.51833">
        <ele>93</ele>
        <time>2023-07-22T08:33:44.925Z</time>
      </trkpt>
      <trkpt lat="47.871" lon="-2.51837">
        <ele>96</ele>
        <time>2023-07-22T08:33:54.106Z</time>
      </trkpt>
      <trkpt lat="47.871" lon="-2.51836">
        <ele>96</ele>
        <time>2023-07-22T08:33:55.105Z</time>
      </trkpt>
      <trkpt lat="47.87101" lon="-2.51835">
        <ele>96</ele>
        <time>2023-07-22T08:33:56.105Z</time>
      </trkpt>
      <trkpt lat="47.87101" lon="-2.51834">
        <ele>96</ele>
        <time>2023-07-22T08:33:57.106Z</time>
      </trkpt>
      <trkpt lat="47.87101" lon="-2.51834">
        <ele>96</ele>
        <time>2023-07-22T08:34:04.382Z</time>
      </trkpt>
      <trkpt lat="47.87101" lon="-2.51834">
        <ele>97</ele>
        <time>2023-07-22T08:34:05.382Z</time>
      </trkpt>
      <trkpt lat="47.87102" lon="-2.51835">
        <ele>97</ele>
        <time>2023-07-22T08:34:06.383Z</time>
      </trkpt>
      <trkpt lat="47.87102" lon="-2.51835">
        <ele>98</ele>
        <time>2023-07-22T08:34:07.383Z</time>
      </trkpt>
      <trkpt lat="47.87102" lon="-2.51836">
        <ele>98</ele>
        <time>2023-07-22T08:34:08.383Z</time>
      </trkpt>
      <trkpt lat="47.87102" lon="-2.51838">
        <ele>98</ele>
        <time>2023-07-22T08:34:09.383Z</time>
      </trkpt>
      <trkpt lat="47.87102" lon="-2.51839">
        <ele>98</ele>
        <time>2023-07-22T08:34:10.382Z</time>
      </trkpt>
      <trkpt lat="47.87103" lon="-2.51841">
        <ele>98</ele>
        <time>2023-07-22T08:34:11.382Z</time>
      </trkpt>
      <trkpt lat="47.87103" lon="-2.51842">
        <ele>98</ele>
        <time>2023-07-22T08:34:12.382Z</time>
      </trkpt>
      <trkpt lat="47.87103" lon="-2.51845">
        <ele>98</ele>
        <time>2023-07-22T08:34:13.382Z</time>
      </trkpt>
      <trkpt lat="47.87104" lon="-2.51845">
        <ele>98</ele>
        <time>2023-07-22T08:34:14.382Z</time>
      </trkpt>
      <trkpt lat="47.87104" lon="-2.51847">
        <ele>99</ele>
        <time>2023-07-22T08:34:15.382Z</time>
      </trkpt>
      <trkpt lat="47.87105" lon="-2.51849">
        <ele>99</ele>
        <time>2023-07-22T08:34:16.382Z</time>
      </trkpt>
      <trkpt lat="47.87106" lon="-2.51851">
        <ele>99</ele>
        <time>2023-07-22T08:34:17.382Z</time>
      </trkpt>
      <trkpt lat="47.87107" lon="-2.51852">
        <ele>100</ele>
        <time>2023-07-22T08:34:18.383Z</time>
      </trkpt>
      <trkpt lat="47.87107" lon="-2.51853">
        <ele>100</ele>
        <time>2023-07-22T08:34:19.383Z</time>
      </trkpt>
      <trkpt lat="47.87108" lon="-2.51854">
        <ele>100</ele>
        <time>2023-07-22T08:34:20.382Z</time>
      </trkpt>
      <trkpt lat="47.87109" lon="-2.51854">
        <ele>100</ele>
        <time>2023-07-22T08:34:21.382Z</time>
      </trkpt>
      <trkpt lat="47.87109" lon="-2.51855">
        <ele>100</ele>
        <time>2023-07-22T08:34:22.382Z</time>
      </trkpt>
      <trkpt lat="47.87109" lon="-2.51855">
        <ele>101</ele>
        <time>2023-07-22T08:34:23.382Z</time>
      </trkpt>
      <trkpt lat="47.8711" lon="-2.51856">
        <ele>101</ele>
        <time>2023-07-22T08:34:24.383Z</time>
      </trkpt>
      <trkpt lat="47.8711" lon="-2.51856">
        <ele>101</ele>
        <time>2023-07-22T08:34:25.382Z</time>
      </trkpt>
      <trkpt lat="47.87112" lon="-2.51857">
        <ele>101</ele>
        <time>2023-07-22T08:34:26.382Z</time>
      </trkpt>
      <trkpt lat="47.87114" lon="-2.51856">
        <ele>101</ele>
        <time>2023-07-22T08:34:27.382Z</time>
      </trkpt>
      <trkpt lat="47.87116" lon="-2.51855">
        <ele>101</ele>
        <time>2023-07-22T08:34:28.382Z</time>
      </trkpt>
      <trkpt lat="47.87116" lon="-2.51855">
        <ele>101</ele>
        <time>2023-07-22T08:34:29.382Z</time>
      </trkpt>
      <trkpt lat="47.87116" lon="-2.51855">
        <ele>101</ele>
        <time>2023-07-22T08:34:30.382Z</time>
      </trkpt>
      <trkpt lat="47.87117" lon="-2.51856">
        <ele>102</ele>
        <time>2023-07-22T08:34:31.383Z</time>
      </trkpt>
      <trkpt lat="47.87117" lon="-2.51856">
        <ele>102</ele>
        <time>2023-07-22T08:34:32.383Z</time>
      </trkpt>
      <trkpt lat="47.87118" lon="-2.51858">
        <ele>101</ele>
        <time>2023-07-22T08:34:33.382Z</time>
      </trkpt>
      <trkpt lat="47.87119" lon="-2.51859">
        <ele>101</ele>
        <time>2023-07-22T08:34:34.383Z</time>
      </trkpt>
      <trkpt lat="47.87119" lon="-2.51859">
        <ele>100</ele>
        <time>2023-07-22T08:34:35.383Z</time>
      </trkpt>
      <trkpt lat="47.8712" lon="-2.51859">
        <ele>100</ele>
        <time>2023-07-22T08:34:36.383Z</time>
      </trkpt>
      <trkpt lat="47.87121" lon="-2.51859">
        <ele>99</ele>
        <time>2023-07-22T08:34:37.383Z</time>
      </trkpt>
      <trkpt lat="47.87122" lon="-2.51858">
        <ele>98</ele>
        <time>2023-07-22T08:34:38.383Z</time>
      </trkpt>
      <trkpt lat="47.87123" lon="-2.51859">
        <ele>98</ele>
        <time>2023-07-22T08:34:39.382Z</time>
      </trkpt>
      <trkpt lat="47.87124" lon="-2.51859">
        <ele>97</ele>
        <time>2023-07-22T08:34:40.383Z</time>
      </trkpt>
      <trkpt lat="47.87124" lon="-2.5186">
        <ele>97</ele>
        <time>2023-07-22T08:34:41.383Z</time>
      </trkpt>
      <trkpt lat="47.87124" lon="-2.51862">
        <ele>96</ele>
        <time>2023-07-22T08:34:42.383Z</time>
      </trkpt>
      <trkpt lat="47.87124" lon="-2.51863">
        <ele>96</ele>
        <time>2023-07-22T08:34:43.382Z</time>
      </trkpt>
      <trkpt lat="47.87125" lon="-2.51865">
        <ele>95</ele>
        <time>2023-07-22T08:34:44.382Z</time>
      </trkpt>
      <trkpt lat="47.87125" lon="-2.51867">
        <ele>95</ele>
        <time>2023-07-22T08:34:45.382Z</time>
      </trkpt>
      <trkpt lat="47.87126" lon="-2.51868">
        <ele>95</ele>
        <time>2023-07-22T08:34:46.382Z</time>
      </trkpt>
      <trkpt lat="47.87126" lon="-2.51869">
        <ele>94</ele>
        <time>2023-07-22T08:34:47.382Z</time>
      </trkpt>
      <trkpt lat="47.87126" lon="-2.5187">
        <ele>94</ele>
        <time>2023-07-22T08:34:48.382Z</time>
      </trkpt>
      <trkpt lat="47.87127" lon="-2.51871">
        <ele>95</ele>
        <time>2023-07-22T08:34:49.382Z</time>
      </trkpt>
      <trkpt lat="47.87128" lon="-2.51872">
        <ele>95</ele>
        <time>2023-07-22T08:34:50.382Z</time>
      </trkpt>
      <trkpt lat="47.87128" lon="-2.51873">
        <ele>95</ele>
        <time>2023-07-22T08:34:51.382Z</time>
      </trkpt>
      <trkpt lat="47.87128" lon="-2.51874">
        <ele>95</ele>
        <time>2023-07-22T08:34:52.382Z</time>
      </trkpt>
      <trkpt lat="47.87128" lon="-2.51876">
        <ele>96</ele>
        <time>2023-07-22T08:34:53.383Z</time>
      </trkpt>
      <trkpt lat="47.87129" lon="-2.51878">
        <ele>96</ele>
        <time>2023-07-22T08:34:54.383Z</time>
      </trkpt>
      <trkpt lat="47.8713" lon="-2.5188">
        <ele>96</ele>
        <time>2023-07-22T08:34:55.383Z</time>
      </trkpt>
      <trkpt lat="47.87131" lon="-2.51881">
        <ele>96</ele>
        <time>2023-07-22T08:34:56.382Z</time>
      </trkpt>
      <trkpt lat="47.87131" lon="-2.51882">
        <ele>96</ele>
        <time>2023-07-22T08:34:57.383Z</time>
      </trkpt>
      <trkpt lat="47.87132" lon="-2.51885">
        <ele>96</ele>
        <time>2023-07-22T08:34:58.382Z</time>
      </trkpt>
      <trkpt lat="47.87132" lon="-2.51887">
        <ele>96</ele>
        <time>2023-07-22T08:34:59.382Z</time>
      </trkpt>
      <trkpt lat="47.87132" lon="-2.51889">
        <ele>96</ele>
        <time>2023-07-22T08:35:00.382Z</time>
      </trkpt>
      <trkpt lat="47.87133" lon="-2.5189">
        <ele>96</ele>
        <time>2023-07-22T08:35:01.382Z</time>
      </trkpt>
      <trkpt lat="47.87133" lon="-2.51892">
        <ele>96</ele>
        <time>2023-07-22T08:35:02.382Z</time>
      </trkpt>
      <trkpt lat="47.87133" lon="-2.51893">
        <ele>96</ele>
        <time>2023-07-22T08:35:03.382Z</time>
      </trkpt>
      <trkpt lat="47.87134" lon="-2.51895">
        <ele>96</ele>
        <time>2023-07-22T08:35:04.382Z</time>
      </trkpt>
      <trkpt lat="47.87134" lon="-2.51896">
        <ele>96</ele>
        <time>2023-07-22T08:35:05.382Z</time>
      </trkpt>
      <trkpt lat="47.87134" lon="-2.51898">
        <ele>96</ele>
        <time>2023-07-22T08:35:06.383Z</time>
      </trkpt>
      <trkpt lat="47.87134" lon="-2.519">
        <ele>97</ele>
        <time>2023-07-22T08:35:07.383Z</time>
      </trkpt>
      <trkpt lat="47.87135" lon="-2.51902">
        <ele>97</ele>
        <time>2023-07-22T08:35:08.383Z</time>
      </trkpt>
      <trkpt lat="47.87135" lon="-2.51904">
        <ele>97</ele>
        <time>2023-07-22T08:35:09.383Z</time>
      </trkpt>
      <trkpt lat="47.87135" lon="-2.51906">
        <ele>98</ele>
        <time>2023-07-22T08:35:10.382Z</time>
      </trkpt>
      <trkpt lat="47.87136" lon="-2.51908">
        <ele>98</ele>
        <time>2023-07-22T08:35:11.383Z</time>
      </trkpt>
      <trkpt lat="47.87136" lon="-2.51909">
        <ele>98</ele>
        <time>2023-07-22T08:35:12.383Z</time>
      </trkpt>
      <trkpt lat="47.87136" lon="-2.5191">
        <ele>99</ele>
        <time>2023-07-22T08:35:13.382Z</time>
      </trkpt>
      <trkpt lat="47.87136" lon="-2.5191">
        <ele>99</ele>
        <time>2023-07-22T08:35:14.382Z</time>
      </trkpt>
      <trkpt lat="47.87136" lon="-2.51911">
        <ele>100</ele>
        <time>2023-07-22T08:35:15.383Z</time>
      </trkpt>
      <trkpt lat="47.87136" lon="-2.51912">
        <ele>100</ele>
        <time>2023-07-22T08:35:16.383Z</time>
      </trkpt>
      <trkpt lat="47.87137" lon="-2.51913">
        <ele>100</ele>
        <time>2023-07-22T08:35:17.383Z</time>
      </trkpt>
      <trkpt lat="47.87137" lon="-2.51914">
        <ele>101</ele>
        <time>2023-07-22T08:35:18.382Z</time>
      </trkpt>
      <trkpt lat="47.87137" lon="-2.51915">
        <ele>101</ele>
        <time>2023-07-22T08:35:19.382Z</time>
      </trkpt>
      <trkpt lat="47.87137" lon="-2.51917">
        <ele>101</ele>
        <time>2023-07-22T08:35:20.382Z</time>
      </trkpt>
      <trkpt lat="47.87138" lon="-2.51919">
        <ele>102</ele>
        <time>2023-07-22T08:35:21.382Z</time>
      </trkpt>
      <trkpt lat="47.87138" lon="-2.51922">
        <ele>102</ele>
        <time>2023-07-22T08:35:22.382Z</time>
      </trkpt>
      <trkpt lat="47.87138" lon="-2.51924">
        <ele>103</ele>
        <time>2023-07-22T08:35:23.383Z</time>
      </trkpt>
      <trkpt lat="47.87138" lon="-2.51926">
        <ele>103</ele>
        <time>2023-07-22T08:35:24.383Z</time>
      </trkpt>
      <trkpt lat="47.87138" lon="-2.51927">
        <ele>103</ele>
        <time>2023-07-22T08:35:25.382Z</time>
      </trkpt>
      <trkpt lat="47.87138" lon="-2.51929">
        <ele>103</ele>
        <time>2023-07-22T08:35:26.383Z</time>
      </trkpt>
      <trkpt lat="47.87138" lon="-2.51931">
        <ele>103</ele>
        <time>2023-07-22T08:35:27.383Z</time>
      </trkpt>
      <trkpt lat="47.87138" lon="-2.51933">
        <ele>104</ele>
        <time>2023-07-22T08:35:28.383Z</time>
      </trkpt>
      <trkpt lat="47.87139" lon="-2.51934">
        <ele>104</ele>
        <time>2023-07-22T08:35:29.383Z</time>
      </trkpt>
      <trkpt lat="47.87139" lon="-2.51935">
        <ele>104</ele>
        <time>2023-07-22T08:35:30.383Z</time>
      </trkpt>
      <trkpt lat="47.87139" lon="-2.51936">
        <ele>104</ele>
        <time>2023-07-22T08:35:31.383Z</time>
      </trkpt>
      <trkpt lat="47.87139" lon="-2.51938">
        <ele>105</ele>
        <time>2023-07-22T08:35:32.382Z</time>
      </trkpt>
      <trkpt lat="47.87139" lon="-2.51939">
        <ele>105</ele>
        <time>2023-07-22T08:35:33.383Z</time>
      </trkpt>
      <trkpt lat="47.87139" lon="-2.51941">
        <ele>105</ele>
        <time>2023-07-22T08:35:34.382Z</time>
      </trkpt>
      <trkpt lat="47.87139" lon="-2.51942">
        <ele>105</ele>
        <time>2023-07-22T08:35:35.383Z</time>
      </trkpt>
      <trkpt lat="47.87138" lon="-2.51943">
        <ele>104</ele>
        <time>2023-07-22T08:35:36.382Z</time>
      </trkpt>
      <trkpt lat="47.87138" lon="-2.51945">
        <ele>104</ele>
        <time>2023-07-22T08:35:37.383Z</time>
      </trkpt>
      <trkpt lat="47.87138" lon="-2.51947">
        <ele>104</ele>
        <time>2023-07-22T08:35:38.383Z</time>
      </trkpt>
      <trkpt lat="47.87138" lon="-2.51949">
        <ele>103</ele>
        <time>2023-07-22T08:35:39.382Z</time>
      </trkpt>
      <trkpt lat="47.87138" lon="-2.51951">
        <ele>103</ele>
        <time>2023-07-22T08:35:40.383Z</time>
      </trkpt>
      <trkpt lat="47.87138" lon="-2.51953">
        <ele>103</ele>
        <time>2023-07-22T08:35:41.382Z</time>
      </trkpt>
      <trkpt lat="47.87138" lon="-2.51954">
        <ele>103</ele>
        <time>2023-07-22T08:35:42.383Z</time>
      </trkpt>
      <trkpt lat="47.87138" lon="-2.51955">
        <ele>103</ele>
        <time>2023-07-22T08:35:43.382Z</time>
      </trkpt>
      <trkpt lat="47.87138" lon="-2.51957">
        <ele>103</ele>
        <time>2023-07-22T08:35:44.383Z</time>
      </trkpt>
      <trkpt lat="47.87139" lon="-2.51959">
        <ele>103</ele>
        <time>2023-07-22T08:35:45.382Z</time>
      </trkpt>
      <trkpt lat="47.87139" lon="-2.5196">
        <ele>103</ele>
        <time>2023-07-22T08:35:46.383Z</time>
      </trkpt>
      <trkpt lat="47.87139" lon="-2.51962">
        <ele>103</ele>
        <time>2023-07-22T08:35:47.382Z</time>
      </trkpt>
      <trkpt lat="47.87139" lon="-2.51963">
        <ele>103</ele>
        <time>2023-07-22T08:35:48.383Z</time>
      </trkpt>
      <trkpt lat="47.8714" lon="-2.51965">
        <ele>103</ele>
        <time>2023-07-22T08:35:49.383Z</time>
      </trkpt>
      <trkpt lat="47.8714" lon="-2.51967">
        <ele>103</ele>
        <time>2023-07-22T08:35:50.382Z</time>
      </trkpt>
      <trkpt lat="47.8714" lon="-2.51969">
        <ele>103</ele>
        <time>2023-07-22T08:35:51.382Z</time>
      </trkpt>
      <trkpt lat="47.87139" lon="-2.5197">
        <ele>103</ele>
        <time>2023-07-22T08:35:52.383Z</time>
      </trkpt>
      <trkpt lat="47.87139" lon="-2.51972">
        <ele>103</ele>
        <time>2023-07-22T08:35:53.382Z</time>
      </trkpt>
      <trkpt lat="47.87139" lon="-2.51974">
        <ele>103</ele>
        <time>2023-07-22T08:35:54.383Z</time>
      </trkpt>
      <trkpt lat="47.87139" lon="-2.51976">
        <ele>103</ele>
        <time>2023-07-22T08:35:55.383Z</time>
      </trkpt>
      <trkpt lat="47.87139" lon="-2.51977">
        <ele>103</ele>
        <time>2023-07-22T08:35:56.382Z</time>
      </trkpt>
      <trkpt lat="47.87139" lon="-2.51979">
        <ele>103</ele>
        <time>2023-07-22T08:35:57.383Z</time>
      </trkpt>
      <trkpt lat="47.8714" lon="-2.51981">
        <ele>103</ele>
        <time>2023-07-22T08:35:58.382Z</time>
      </trkpt>
      <trkpt lat="47.8714" lon="-2.51983">
        <ele>104</ele>
        <time>2023-07-22T08:35:59.382Z</time>
      </trkpt>
      <trkpt lat="47.8714" lon="-2.51985">
        <ele>104</ele>
        <time>2023-07-22T08:36:00.382Z</time>
      </trkpt>
      <trkpt lat="47.8714" lon="-2.51986">
        <ele>104</ele>
        <time>2023-07-22T08:36:01.383Z</time>
      </trkpt>
      <trkpt lat="47.8714" lon="-2.51988">
        <ele>104</ele>
        <time>2023-07-22T08:36:02.382Z</time>
      </trkpt>
      <trkpt lat="47.8714" lon="-2.5199">
        <ele>104</ele>
        <time>2023-07-22T08:36:03.382Z</time>
      </trkpt>
      <trkpt lat="47.87139" lon="-2.51994">
        <ele>104</ele>
        <time>2023-07-22T08:36:04.383Z</time>
      </trkpt>
      <trkpt lat="47.87138" lon="-2.51997">
        <ele>104</ele>
        <time>2023-07-22T08:36:05.383Z</time>
      </trkpt>
      <trkpt lat="47.87137" lon="-2.52">
        <ele>104</ele>
        <time>2023-07-22T08:36:06.382Z</time>
      </trkpt>
      <trkpt lat="47.87137" lon="-2.52002">
        <ele>104</ele>
        <time>2023-07-22T08:36:07.383Z</time>
      </trkpt>
      <trkpt lat="47.87137" lon="-2.52004">
        <ele>104</ele>
        <time>2023-07-22T08:36:08.383Z</time>
      </trkpt>
      <trkpt lat="47.87137" lon="-2.52006">
        <ele>104</ele>
        <time>2023-07-22T08:36:09.383Z</time>
      </trkpt>
      <trkpt lat="47.87138" lon="-2.52008">
        <ele>104</ele>
        <time>2023-07-22T08:36:10.383Z</time>
      </trkpt>
      <trkpt lat="47.87138" lon="-2.5201">
        <ele>105</ele>
        <time>2023-07-22T08:36:11.383Z</time>
      </trkpt>
      <trkpt lat="47.87138" lon="-2.52012">
        <ele>105</ele>
        <time>2023-07-22T08:36:12.383Z</time>
      </trkpt>
      <trkpt lat="47.87138" lon="-2.52013">
        <ele>105</ele>
        <time>2023-07-22T08:36:13.383Z</time>
      </trkpt>
      <trkpt lat="47.87138" lon="-2.52015">
        <ele>105</ele>
        <time>2023-07-22T08:36:14.382Z</time>
      </trkpt>
      <trkpt lat="47.87138" lon="-2.52017">
        <ele>106</ele>
        <time>2023-07-22T08:36:15.382Z</time>
      </trkpt>
      <trkpt lat="47.87138" lon="-2.52019">
        <ele>106</ele>
        <time>2023-07-22T08:36:16.383Z</time>
      </trkpt>
      <trkpt lat="47.87139" lon="-2.52021">
        <ele>107</ele>
        <time>2023-07-22T08:36:17.382Z</time>
      </trkpt>
      <trkpt lat="47.87139" lon="-2.52023">
        <ele>107</ele>
        <time>2023-07-22T08:36:18.383Z</time>
      </trkpt>
      <trkpt lat="47.87138" lon="-2.52024">
        <ele>107</ele>
        <time>2023-07-22T08:36:19.382Z</time>
      </trkpt>
      <trkpt lat="47.87138" lon="-2.52025">
        <ele>108</ele>
        <time>2023-07-22T08:36:20.383Z</time>
      </trkpt>
      <trkpt lat="47.87138" lon="-2.52027">
        <ele>108</ele>
        <time>2023-07-22T08:36:21.382Z</time>
      </trkpt>
      <trkpt lat="47.87138" lon="-2.52028">
        <ele>109</ele>
        <time>2023-07-22T08:36:22.383Z</time>
      </trkpt>
      <trkpt lat="47.87138" lon="-2.52029">
        <ele>109</ele>
        <time>2023-07-22T08:36:23.382Z</time>
      </trkpt>
      <trkpt lat="47.87138" lon="-2.5203">
        <ele>110</ele>
        <time>2023-07-22T08:36:24.383Z</time>
      </trkpt>
      <trkpt lat="47.87138" lon="-2.52032">
        <ele>110</ele>
        <time>2023-07-22T08:36:25.382Z</time>
      </trkpt>
      <trkpt lat="47.87138" lon="-2.52033">
        <ele>111</ele>
        <time>2023-07-22T08:36:26.383Z</time>
      </trkpt>
      <trkpt lat="47.87138" lon="-2.52035">
        <ele>111</ele>
        <time>2023-07-22T08:36:27.382Z</time>
      </trkpt>
      <trkpt lat="47.87139" lon="-2.52036">
        <ele>111</ele>
        <time>2023-07-22T08:36:28.383Z</time>
      </trkpt>
      <trkpt lat="47.87139" lon="-2.52037">
        <ele>111</ele>
        <time>2023-07-22T08:36:29.382Z</time>
      </trkpt>
      <trkpt lat="47.87139" lon="-2.52038">
        <ele>110</ele>
        <time>2023-07-22T08:36:30.383Z</time>
      </trkpt>
      <trkpt lat="47.87139" lon="-2.52039">
        <ele>110</ele>
        <time>2023-07-22T08:36:31.383Z</time>
      </trkpt>
      <trkpt lat="47.87139" lon="-2.5204">
        <ele>109</ele>
        <time>2023-07-22T08:36:32.383Z</time>
      </trkpt>
      <trkpt lat="47.8714" lon="-2.52042">
        <ele>108</ele>
        <time>2023-07-22T08:36:33.383Z</time>
      </trkpt>
      <trkpt lat="47.8714" lon="-2.52043">
        <ele>108</ele>
        <time>2023-07-22T08:36:34.382Z</time>
      </trkpt>
      <trkpt lat="47.8714" lon="-2.52044">
        <ele>108</ele>
        <time>2023-07-22T08:36:35.383Z</time>
      </trkpt>
      <trkpt lat="47.87141" lon="-2.52045">
        <ele>107</ele>
        <time>2023-07-22T08:36:36.382Z</time>
      </trkpt>
      <trkpt lat="47.87141" lon="-2.52046">
        <ele>107</ele>
        <time>2023-07-22T08:36:37.382Z</time>
      </trkpt>
      <trkpt lat="47.87141" lon="-2.52047">
        <ele>107</ele>
        <time>2023-07-22T08:36:38.383Z</time>
      </trkpt>
      <trkpt lat="47.87141" lon="-2.52048">
        <ele>107</ele>
        <time>2023-07-22T08:36:39.382Z</time>
      </trkpt>
      <trkpt lat="47.8714" lon="-2.52049">
        <ele>107</ele>
        <time>2023-07-22T08:36:40.382Z</time>
      </trkpt>
      <trkpt lat="47.8714" lon="-2.52049">
        <ele>107</ele>
        <time>2023-07-22T08:36:41.383Z</time>
      </trkpt>
      <trkpt lat="47.8714" lon="-2.5205">
        <ele>106</ele>
        <time>2023-07-22T08:36:42.382Z</time>
      </trkpt>
      <trkpt lat="47.87139" lon="-2.52057">
        <ele>106</ele>
        <time>2023-07-22T08:36:49.585Z</time>
      </trkpt>
      <trkpt lat="47.87139" lon="-2.52058">
        <ele>106</ele>
        <time>2023-07-22T08:36:50.586Z</time>
      </trkpt>
      <trkpt lat="47.87139" lon="-2.5206">
        <ele>106</ele>
        <time>2023-07-22T08:36:51.585Z</time>
      </trkpt>
      <trkpt lat="47.87139" lon="-2.52061">
        <ele>107</ele>
        <time>2023-07-22T08:36:52.586Z</time>
      </trkpt>
      <trkpt lat="47.87138" lon="-2.52063">
        <ele>107</ele>
        <time>2023-07-22T08:36:53.586Z</time>
      </trkpt>
      <trkpt lat="47.87138" lon="-2.52064">
        <ele>107</ele>
        <time>2023-07-22T08:36:54.585Z</time>
      </trkpt>
      <trkpt lat="47.87138" lon="-2.52066">
        <ele>107</ele>
        <time>2023-07-22T08:36:55.585Z</time>
      </trkpt>
      <trkpt lat="47.87137" lon="-2.52068">
        <ele>107</ele>
        <time>2023-07-22T08:36:56.585Z</time>
      </trkpt>
      <trkpt lat="47.87137" lon="-2.5207">
        <ele>107</ele>
        <time>2023-07-22T08:36:57.585Z</time>
      </trkpt>
      <trkpt lat="47.87137" lon="-2.52071">
        <ele>107</ele>
        <time>2023-07-22T08:36:58.586Z</time>
      </trkpt>
      <trkpt lat="47.87137" lon="-2.52072">
        <ele>107</ele>
        <time>2023-07-22T08:36:59.585Z</time>
      </trkpt>
      <trkpt lat="47.87137" lon="-2.52074">
        <ele>107</ele>
        <time>2023-07-22T08:37:00.586Z</time>
      </trkpt>
      <trkpt lat="47.87136" lon="-2.52076">
        <ele>106</ele>
        <time>2023-07-22T08:37:01.586Z</time>
      </trkpt>
      <trkpt lat="47.87136" lon="-2.52077">
        <ele>106</ele>
        <time>2023-07-22T08:37:02.586Z</time>
      </trkpt>
      <trkpt lat="47.87136" lon="-2.52079">
        <ele>106</ele>
        <time>2023-07-22T08:37:03.585Z</time>
      </trkpt>
      <trkpt lat="47.87135" lon="-2.5208">
        <ele>106</ele>
        <time>2023-07-22T08:37:04.585Z</time>
      </trkpt>
      <trkpt lat="47.87135" lon="-2.52082">
        <ele>106</ele>
        <time>2023-07-22T08:37:05.585Z</time>
      </trkpt>
      <trkpt lat="47.87135" lon="-2.52083">
        <ele>106</ele>
        <time>2023-07-22T08:37:06.585Z</time>
      </trkpt>
      <trkpt lat="47.87135" lon="-2.52085">
        <ele>106</ele>
        <time>2023-07-22T08:37:07.586Z</time>
      </trkpt>
      <trkpt lat="47.87135" lon="-2.52087">
        <ele>106</ele>
        <time>2023-07-22T08:37:08.585Z</time>
      </trkpt>
      <trkpt lat="47.87136" lon="-2.52089">
        <ele>106</ele>
        <time>2023-07-22T08:37:09.586Z</time>
      </trkpt>
      <trkpt lat="47.87136" lon="-2.52091">
        <ele>106</ele>
        <time>2023-07-22T08:37:10.585Z</time>
      </trkpt>
      <trkpt lat="47.87136" lon="-2.52093">
        <ele>106</ele>
        <time>2023-07-22T08:37:11.585Z</time>
      </trkpt>
      <trkpt lat="47.87137" lon="-2.52095">
        <ele>106</ele>
        <time>2023-07-22T08:37:12.586Z</time>
      </trkpt>
      <trkpt lat="47.87137" lon="-2.52096">
        <ele>106</ele>
        <time>2023-07-22T08:37:13.585Z</time>
      </trkpt>
      <trkpt lat="47.87138" lon="-2.52097">
        <ele>106</ele>
        <time>2023-07-22T08:37:14.585Z</time>
      </trkpt>
      <trkpt lat="47.87139" lon="-2.52098">
        <ele>107</ele>
        <time>2023-07-22T08:37:15.585Z</time>
      </trkpt>
      <trkpt lat="47.8714" lon="-2.52099">
        <ele>107</ele>
        <time>2023-07-22T08:37:16.585Z</time>
      </trkpt>
      <trkpt lat="47.8714" lon="-2.52101">
        <ele>107</ele>
        <time>2023-07-22T08:37:17.586Z</time>
      </trkpt>
      <trkpt lat="47.87141" lon="-2.52102">
        <ele>108</ele>
        <time>2023-07-22T08:37:18.585Z</time>
      </trkpt>
      <trkpt lat="47.87141" lon="-2.52104">
        <ele>108</ele>
        <time>2023-07-22T08:37:19.585Z</time>
      </trkpt>
      <trkpt lat="47.87141" lon="-2.52105">
        <ele>109</ele>
        <time>2023-07-22T08:37:20.585Z</time>
      </trkpt>
      <trkpt lat="47.8714" lon="-2.52107">
        <ele>109</ele>
        <time>2023-07-22T08:37:21.585Z</time>
      </trkpt>
      <trkpt lat="47.87141" lon="-2.5211">
        <ele>109</ele>
        <time>2023-07-22T08:37:22.585Z</time>
      </trkpt>
      <trkpt lat="47.87141" lon="-2.52112">
        <ele>110</ele>
        <time>2023-07-22T08:37:23.586Z</time>
      </trkpt>
      <trkpt lat="47.87142" lon="-2.52114">
        <ele>110</ele>
        <time>2023-07-22T08:37:24.585Z</time>
      </trkpt>
      <trkpt lat="47.87143" lon="-2.52116">
        <ele>111</ele>
        <time>2023-07-22T08:37:25.585Z</time>
      </trkpt>
      <trkpt lat="47.87143" lon="-2.52117">
        <ele>111</ele>
        <time>2023-07-22T08:37:26.585Z</time>
      </trkpt>
      <trkpt lat="47.87144" lon="-2.52119">
        <ele>111</ele>
        <time>2023-07-22T08:37:27.585Z</time>
      </trkpt>
      <trkpt lat="47.87145" lon="-2.52121">
        <ele>112</ele>
        <time>2023-07-22T08:37:28.585Z</time>
      </trkpt>
      <trkpt lat="47.87146" lon="-2.52122">
        <ele>112</ele>
        <time>2023-07-22T08:37:29.585Z</time>
      </trkpt>
      <trkpt lat="47.87147" lon="-2.52124">
        <ele>112</ele>
        <time>2023-07-22T08:37:30.585Z</time>
      </trkpt>
      <trkpt lat="47.87148" lon="-2.52125">
        <ele>112</ele>
        <time>2023-07-22T08:37:31.585Z</time>
      </trkpt>
      <trkpt lat="47.87149" lon="-2.52126">
        <ele>113</ele>
        <time>2023-07-22T08:37:32.586Z</time>
      </trkpt>
      <trkpt lat="47.87149" lon="-2.52127">
        <ele>113</ele>
        <time>2023-07-22T08:37:33.585Z</time>
      </trkpt>
      <trkpt lat="47.87151" lon="-2.52128">
        <ele>113</ele>
        <time>2023-07-22T08:37:34.586Z</time>
      </trkpt>
      <trkpt lat="47.87152" lon="-2.5213">
        <ele>114</ele>
        <time>2023-07-22T08:37:35.586Z</time>
      </trkpt>
      <trkpt lat="47.87153" lon="-2.52132">
        <ele>114</ele>
        <time>2023-07-22T08:37:36.585Z</time>
      </trkpt>
      <trkpt lat="47.87154" lon="-2.52133">
        <ele>114</ele>
        <time>2023-07-22T08:37:37.585Z</time>
      </trkpt>
      <trkpt lat="47.87154" lon="-2.52133">
        <ele>114</ele>
        <time>2023-07-22T08:37:38.585Z</time>
      </trkpt>
      <trkpt lat="47.87154" lon="-2.52133">
        <ele>114</ele>
        <time>2023-07-22T08:37:39.585Z</time>
      </trkpt>
      <trkpt lat="47.87155" lon="-2.52133">
        <ele>114</ele>
        <time>2023-07-22T08:37:40.585Z</time>
      </trkpt>
      <trkpt lat="47.87155" lon="-2.52133">
        <ele>114</ele>
        <time>2023-07-22T08:37:41.585Z</time>
      </trkpt>
      <trkpt lat="47.87157" lon="-2.52135">
        <ele>113</ele>
        <time>2023-07-22T08:37:47.871Z</time>
      </trkpt>
      <trkpt lat="47.87157" lon="-2.52136">
        <ele>114</ele>
        <time>2023-07-22T08:37:48.870Z</time>
      </trkpt>
      <trkpt lat="47.87159" lon="-2.52137">
        <ele>114</ele>
        <time>2023-07-22T08:37:49.870Z</time>
      </trkpt>
      <trkpt lat="47.8716" lon="-2.52139">
        <ele>113</ele>
        <time>2023-07-22T08:37:50.871Z</time>
      </trkpt>
      <trkpt lat="47.8716" lon="-2.5214">
        <ele>113</ele>
        <time>2023-07-22T08:37:51.870Z</time>
      </trkpt>
      <trkpt lat="47.87161" lon="-2.52141">
        <ele>113</ele>
        <time>2023-07-22T08:37:52.870Z</time>
      </trkpt>
      <trkpt lat="47.87162" lon="-2.52142">
        <ele>113</ele>
        <time>2023-07-22T08:37:53.870Z</time>
      </trkpt>
      <trkpt lat="47.87162" lon="-2.52143">
        <ele>113</ele>
        <time>2023-07-22T08:37:54.871Z</time>
      </trkpt>
      <trkpt lat="47.87163" lon="-2.52145">
        <ele>113</ele>
        <time>2023-07-22T08:37:55.871Z</time>
      </trkpt>
      <trkpt lat="47.87164" lon="-2.52145">
        <ele>113</ele>
        <time>2023-07-22T08:37:56.870Z</time>
      </trkpt>
      <trkpt lat="47.87165" lon="-2.52147">
        <ele>113</ele>
        <time>2023-07-22T08:37:57.871Z</time>
      </trkpt>
      <trkpt lat="47.87166" lon="-2.52147">
        <ele>113</ele>
        <time>2023-07-22T08:37:58.870Z</time>
      </trkpt>
      <trkpt lat="47.87167" lon="-2.52148">
        <ele>113</ele>
        <time>2023-07-22T08:37:59.871Z</time>
      </trkpt>
      <trkpt lat="47.87168" lon="-2.52149">
        <ele>112</ele>
        <time>2023-07-22T08:38:00.870Z</time>
      </trkpt>
      <trkpt lat="47.87169" lon="-2.52149">
        <ele>112</ele>
        <time>2023-07-22T08:38:01.870Z</time>
      </trkpt>
      <trkpt lat="47.8717" lon="-2.5215">
        <ele>111</ele>
        <time>2023-07-22T08:38:02.871Z</time>
      </trkpt>
      <trkpt lat="47.87171" lon="-2.52151">
        <ele>111</ele>
        <time>2023-07-22T08:38:03.870Z</time>
      </trkpt>
      <trkpt lat="47.87173" lon="-2.52151">
        <ele>110</ele>
        <time>2023-07-22T08:38:04.870Z</time>
      </trkpt>
      <trkpt lat="47.87174" lon="-2.52151">
        <ele>110</ele>
        <time>2023-07-22T08:38:05.871Z</time>
      </trkpt>
      <trkpt lat="47.87176" lon="-2.52152">
        <ele>109</ele>
        <time>2023-07-22T08:38:06.870Z</time>
      </trkpt>
      <trkpt lat="47.87178" lon="-2.52153">
        <ele>109</ele>
        <time>2023-07-22T08:38:07.871Z</time>
      </trkpt>
      <trkpt lat="47.87179" lon="-2.52154">
        <ele>109</ele>
        <time>2023-07-22T08:38:08.871Z</time>
      </trkpt>
      <trkpt lat="47.8718" lon="-2.52154">
        <ele>109</ele>
        <time>2023-07-22T08:38:09.870Z</time>
      </trkpt>
      <trkpt lat="47.87182" lon="-2.52155">
        <ele>109</ele>
        <time>2023-07-22T08:38:10.871Z</time>
      </trkpt>
      <trkpt lat="47.87183" lon="-2.52156">
        <ele>109</ele>
        <time>2023-07-22T08:38:11.870Z</time>
      </trkpt>
      <trkpt lat="47.87185" lon="-2.52156">
        <ele>109</ele>
        <time>2023-07-22T08:38:12.870Z</time>
      </trkpt>
      <trkpt lat="47.87186" lon="-2.52157">
        <ele>109</ele>
        <time>2023-07-22T08:38:13.871Z</time>
      </trkpt>
      <trkpt lat="47.87188" lon="-2.52158">
        <ele>109</ele>
        <time>2023-07-22T08:38:14.871Z</time>
      </trkpt>
      <trkpt lat="47.87189" lon="-2.52159">
        <ele>108</ele>
        <time>2023-07-22T08:38:15.871Z</time>
      </trkpt>
      <trkpt lat="47.87191" lon="-2.52159">
        <ele>108</ele>
        <time>2023-07-22T08:38:16.871Z</time>
      </trkpt>
      <trkpt lat="47.87193" lon="-2.52159">
        <ele>108</ele>
        <time>2023-07-22T08:38:17.870Z</time>
      </trkpt>
      <trkpt lat="47.87194" lon="-2.52159">
        <ele>107</ele>
        <time>2023-07-22T08:38:18.871Z</time>
      </trkpt>
      <trkpt lat="47.87195" lon="-2.52159">
        <ele>107</ele>
        <time>2023-07-22T08:38:19.871Z</time>
      </trkpt>
      <trkpt lat="47.87196" lon="-2.52158">
        <ele>106</ele>
        <time>2023-07-22T08:38:20.870Z</time>
      </trkpt>
      <trkpt lat="47.87197" lon="-2.52158">
        <ele>106</ele>
        <time>2023-07-22T08:38:21.871Z</time>
      </trkpt>
      <trkpt lat="47.87199" lon="-2.52158">
        <ele>106</ele>
        <time>2023-07-22T08:38:22.870Z</time>
      </trkpt>
      <trkpt lat="47.872" lon="-2.52159">
        <ele>105</ele>
        <time>2023-07-22T08:38:23.870Z</time>
      </trkpt>
      <trkpt lat="47.87202" lon="-2.52158">
        <ele>105</ele>
        <time>2023-07-22T08:38:24.871Z</time>
      </trkpt>
      <trkpt lat="47.87204" lon="-2.52159">
        <ele>105</ele>
        <time>2023-07-22T08:38:25.870Z</time>
      </trkpt>
      <trkpt lat="47.87205" lon="-2.5216">
        <ele>105</ele>
        <time>2023-07-22T08:38:26.870Z</time>
      </trkpt>
      <trkpt lat="47.87206" lon="-2.52159">
        <ele>105</ele>
        <time>2023-07-22T08:38:27.870Z</time>
      </trkpt>
      <trkpt lat="47.87206" lon="-2.52159">
        <ele>106</ele>
        <time>2023-07-22T08:38:28.871Z</time>
      </trkpt>
      <trkpt lat="47.87207" lon="-2.5216">
        <ele>106</ele>
        <time>2023-07-22T08:38:29.870Z</time>
      </trkpt>
      <trkpt lat="47.87209" lon="-2.5216">
        <ele>106</ele>
        <time>2023-07-22T08:38:30.871Z</time>
      </trkpt>
      <trkpt lat="47.8721" lon="-2.52161">
        <ele>106</ele>
        <time>2023-07-22T08:38:31.871Z</time>
      </trkpt>
      <trkpt lat="47.87211" lon="-2.5216">
        <ele>106</ele>
        <time>2023-07-22T08:38:32.870Z</time>
      </trkpt>
      <trkpt lat="47.87213" lon="-2.52159">
        <ele>107</ele>
        <time>2023-07-22T08:38:33.871Z</time>
      </trkpt>
      <trkpt lat="47.87214" lon="-2.52159">
        <ele>107</ele>
        <time>2023-07-22T08:38:34.870Z</time>
      </trkpt>
      <trkpt lat="47.87216" lon="-2.5216">
        <ele>107</ele>
        <time>2023-07-22T08:38:35.870Z</time>
      </trkpt>
      <trkpt lat="47.87217" lon="-2.52159">
        <ele>107</ele>
        <time>2023-07-22T08:38:36.871Z</time>
      </trkpt>
      <trkpt lat="47.87219" lon="-2.52159">
        <ele>107</ele>
        <time>2023-07-22T08:38:37.870Z</time>
      </trkpt>
      <trkpt lat="47.87221" lon="-2.52159">
        <ele>107</ele>
        <time>2023-07-22T08:38:38.871Z</time>
      </trkpt>
      <trkpt lat="47.87222" lon="-2.52159">
        <ele>107</ele>
        <time>2023-07-22T08:38:39.870Z</time>
      </trkpt>
      <trkpt lat="47.87223" lon="-2.5216">
        <ele>107</ele>
        <time>2023-07-22T08:38:40.870Z</time>
      </trkpt>
      <trkpt lat="47.87224" lon="-2.5216">
        <ele>107</ele>
        <time>2023-07-22T08:38:41.870Z</time>
      </trkpt>
      <trkpt lat="47.87225" lon="-2.5216">
        <ele>107</ele>
        <time>2023-07-22T08:38:42.871Z</time>
      </trkpt>
      <trkpt lat="47.87226" lon="-2.52161">
        <ele>108</ele>
        <time>2023-07-22T08:38:43.870Z</time>
      </trkpt>
      <trkpt lat="47.87227" lon="-2.52162">
        <ele>108</ele>
        <time>2023-07-22T08:38:44.870Z</time>
      </trkpt>
      <trkpt lat="47.87229" lon="-2.52162">
        <ele>108</ele>
        <time>2023-07-22T08:38:45.871Z</time>
      </trkpt>
      <trkpt lat="47.8723" lon="-2.52162">
        <ele>108</ele>
        <time>2023-07-22T08:38:46.870Z</time>
      </trkpt>
      <trkpt lat="47.87231" lon="-2.52163">
        <ele>108</ele>
        <time>2023-07-22T08:38:47.871Z</time>
      </trkpt>
      <trkpt lat="47.87232" lon="-2.52163">
        <ele>108</ele>
        <time>2023-07-22T08:38:48.871Z</time>
      </trkpt>
      <trkpt lat="47.87235" lon="-2.52163">
        <ele>108</ele>
        <time>2023-07-22T08:38:49.871Z</time>
      </trkpt>
      <trkpt lat="47.87236" lon="-2.52163">
        <ele>108</ele>
        <time>2023-07-22T08:38:50.870Z</time>
      </trkpt>
      <trkpt lat="47.87238" lon="-2.52162">
        <ele>108</ele>
        <time>2023-07-22T08:38:51.870Z</time>
      </trkpt>
      <trkpt lat="47.87239" lon="-2.52163">
        <ele>108</ele>
        <time>2023-07-22T08:38:52.870Z</time>
      </trkpt>
      <trkpt lat="47.8724" lon="-2.52163">
        <ele>108</ele>
        <time>2023-07-22T08:38:53.871Z</time>
      </trkpt>
      <trkpt lat="47.87242" lon="-2.52162">
        <ele>108</ele>
        <time>2023-07-22T08:38:54.870Z</time>
      </trkpt>
      <trkpt lat="47.87243" lon="-2.52162">
        <ele>107</ele>
        <time>2023-07-22T08:38:55.870Z</time>
      </trkpt>
      <trkpt lat="47.87244" lon="-2.52162">
        <ele>107</ele>
        <time>2023-07-22T08:38:56.870Z</time>
      </trkpt>
      <trkpt lat="47.87245" lon="-2.52161">
        <ele>106</ele>
        <time>2023-07-22T08:38:57.871Z</time>
      </trkpt>
      <trkpt lat="47.87245" lon="-2.52161">
        <ele>106</ele>
        <time>2023-07-22T08:38:58.871Z</time>
      </trkpt>
      <trkpt lat="47.87245" lon="-2.5216">
        <ele>105</ele>
        <time>2023-07-22T08:38:59.871Z</time>
      </trkpt>
      <trkpt lat="47.87246" lon="-2.5216">
        <ele>104</ele>
        <time>2023-07-22T08:39:00.871Z</time>
      </trkpt>
      <trkpt lat="47.87248" lon="-2.5216">
        <ele>104</ele>
        <time>2023-07-22T08:39:01.870Z</time>
      </trkpt>
      <trkpt lat="47.87249" lon="-2.5216">
        <ele>103</ele>
        <time>2023-07-22T08:39:02.870Z</time>
      </trkpt>
      <trkpt lat="47.87251" lon="-2.5216">
        <ele>103</ele>
        <time>2023-07-22T08:39:03.870Z</time>
      </trkpt>
      <trkpt lat="47.87253" lon="-2.52161">
        <ele>103</ele>
        <time>2023-07-22T08:39:04.870Z</time>
      </trkpt>
      <trkpt lat="47.87255" lon="-2.52161">
        <ele>102</ele>
        <time>2023-07-22T08:39:05.871Z</time>
      </trkpt>
      <trkpt lat="47.87257" lon="-2.52158">
        <ele>102</ele>
        <time>2023-07-22T08:39:06.870Z</time>
      </trkpt>
      <trkpt lat="47.87259" lon="-2.52157">
        <ele>101</ele>
        <time>2023-07-22T08:39:07.871Z</time>
      </trkpt>
      <trkpt lat="47.87262" lon="-2.52156">
        <ele>101</ele>
        <time>2023-07-22T08:39:08.870Z</time>
      </trkpt>
      <trkpt lat="47.87263" lon="-2.52154">
        <ele>100</ele>
        <time>2023-07-22T08:39:09.871Z</time>
      </trkpt>
      <trkpt lat="47.87265" lon="-2.52154">
        <ele>100</ele>
        <time>2023-07-22T08:39:10.870Z</time>
      </trkpt>
      <trkpt lat="47.87266" lon="-2.52153">
        <ele>99</ele>
        <time>2023-07-22T08:39:11.870Z</time>
      </trkpt>
      <trkpt lat="47.87267" lon="-2.52151">
        <ele>98</ele>
        <time>2023-07-22T08:39:12.871Z</time>
      </trkpt>
      <trkpt lat="47.87268" lon="-2.52149">
        <ele>98</ele>
        <time>2023-07-22T08:39:13.871Z</time>
      </trkpt>
      <trkpt lat="47.8727" lon="-2.52147">
        <ele>97</ele>
        <time>2023-07-22T08:39:14.870Z</time>
      </trkpt>
      <trkpt lat="47.87271" lon="-2.52146">
        <ele>97</ele>
        <time>2023-07-22T08:39:15.871Z</time>
      </trkpt>
      <trkpt lat="47.87272" lon="-2.52145">
        <ele>96</ele>
        <time>2023-07-22T08:39:16.870Z</time>
      </trkpt>
      <trkpt lat="47.87272" lon="-2.52143">
        <ele>96</ele>
        <time>2023-07-22T08:39:17.871Z</time>
      </trkpt>
      <trkpt lat="47.87272" lon="-2.52141">
        <ele>96</ele>
        <time>2023-07-22T08:39:18.871Z</time>
      </trkpt>
      <trkpt lat="47.87273" lon="-2.5214">
        <ele>96</ele>
        <time>2023-07-22T08:39:19.871Z</time>
      </trkpt>
      <trkpt lat="47.87274" lon="-2.52139">
        <ele>96</ele>
        <time>2023-07-22T08:39:20.870Z</time>
      </trkpt>
      <trkpt lat="47.87275" lon="-2.52137">
        <ele>96</ele>
        <time>2023-07-22T08:39:21.871Z</time>
      </trkpt>
      <trkpt lat="47.87275" lon="-2.52136">
        <ele>96</ele>
        <time>2023-07-22T08:39:22.871Z</time>
      </trkpt>
      <trkpt lat="47.87276" lon="-2.52134">
        <ele>96</ele>
        <time>2023-07-22T08:39:23.870Z</time>
      </trkpt>
      <trkpt lat="47.87277" lon="-2.52132">
        <ele>97</ele>
        <time>2023-07-22T08:39:24.870Z</time>
      </trkpt>
      <trkpt lat="47.87279" lon="-2.52129">
        <ele>98</ele>
        <time>2023-07-22T08:39:25.871Z</time>
      </trkpt>
      <trkpt lat="47.87281" lon="-2.52127">
        <ele>99</ele>
        <time>2023-07-22T08:39:26.870Z</time>
      </trkpt>
      <trkpt lat="47.87283" lon="-2.52124">
        <ele>99</ele>
        <time>2023-07-22T08:39:27.871Z</time>
      </trkpt>
      <trkpt lat="47.87284" lon="-2.52122">
        <ele>100</ele>
        <time>2023-07-22T08:39:28.870Z</time>
      </trkpt>
      <trkpt lat="47.87285" lon="-2.52118">
        <ele>101</ele>
        <time>2023-07-22T08:39:29.870Z</time>
      </trkpt>
      <trkpt lat="47.87287" lon="-2.52115">
        <ele>101</ele>
        <time>2023-07-22T08:39:30.870Z</time>
      </trkpt>
      <trkpt lat="47.87288" lon="-2.52112">
        <ele>102</ele>
        <time>2023-07-22T08:39:31.870Z</time>
      </trkpt>
      <trkpt lat="47.87289" lon="-2.52109">
        <ele>103</ele>
        <time>2023-07-22T08:39:32.871Z</time>
      </trkpt>
      <trkpt lat="47.87289" lon="-2.52108">
        <ele>104</ele>
        <time>2023-07-22T08:39:33.870Z</time>
      </trkpt>
      <trkpt lat="47.87288" lon="-2.52106">
        <ele>104</ele>
        <time>2023-07-22T08:39:34.870Z</time>
      </trkpt>
      <trkpt lat="47.87286" lon="-2.52102">
        <ele>105</ele>
        <time>2023-07-22T08:39:35.870Z</time>
      </trkpt>
      <trkpt lat="47.87287" lon="-2.52101">
        <ele>105</ele>
        <time>2023-07-22T08:39:36.871Z</time>
      </trkpt>
      <trkpt lat="47.87288" lon="-2.52098">
        <ele>105</ele>
        <time>2023-07-22T08:39:37.870Z</time>
      </trkpt>
      <trkpt lat="47.87289" lon="-2.52094">
        <ele>106</ele>
        <time>2023-07-22T08:39:38.870Z</time>
      </trkpt>
      <trkpt lat="47.87289" lon="-2.52091">
        <ele>106</ele>
        <time>2023-07-22T08:39:39.870Z</time>
      </trkpt>
      <trkpt lat="47.8729" lon="-2.52088">
        <ele>106</ele>
        <time>2023-07-22T08:39:40.870Z</time>
      </trkpt>
      <trkpt lat="47.87292" lon="-2.52086">
        <ele>106</ele>
        <time>2023-07-22T08:39:41.870Z</time>
      </trkpt>
      <trkpt lat="47.87294" lon="-2.52083">
        <ele>106</ele>
        <time>2023-07-22T08:39:42.871Z</time>
      </trkpt>
      <trkpt lat="47.87298" lon="-2.5208">
        <ele>107</ele>
        <time>2023-07-22T08:39:43.871Z</time>
      </trkpt>
      <trkpt lat="47.873" lon="-2.52078">
        <ele>107</ele>
        <time>2023-07-22T08:39:44.870Z</time>
      </trkpt>
      <trkpt lat="47.87301" lon="-2.52078">
        <ele>107</ele>
        <time>2023-07-22T08:39:45.871Z</time>
      </trkpt>
      <trkpt lat="47.87301" lon="-2.52076">
        <ele>107</ele>
        <time>2023-07-22T08:39:46.871Z</time>
      </trkpt>
      <trkpt lat="47.87299" lon="-2.52075">
        <ele>107</ele>
        <time>2023-07-22T08:39:47.870Z</time>
      </trkpt>
      <trkpt lat="47.87298" lon="-2.52075">
        <ele>107</ele>
        <time>2023-07-22T08:39:48.870Z</time>
      </trkpt>
      <trkpt lat="47.87298" lon="-2.52075">
        <ele>108</ele>
        <time>2023-07-22T08:39:49.871Z</time>
      </trkpt>
      <trkpt lat="47.87298" lon="-2.52073">
        <ele>108</ele>
        <time>2023-07-22T08:39:50.871Z</time>
      </trkpt>
      <trkpt lat="47.87299" lon="-2.52073">
        <ele>108</ele>
        <time>2023-07-22T08:39:51.870Z</time>
      </trkpt>
      <trkpt lat="47.87299" lon="-2.52072">
        <ele>109</ele>
        <time>2023-07-22T08:39:52.871Z</time>
      </trkpt>
      <trkpt lat="47.87299" lon="-2.52071">
        <ele>110</ele>
        <time>2023-07-22T08:39:53.870Z</time>
      </trkpt>
      <trkpt lat="47.87299" lon="-2.5207">
        <ele>110</ele>
        <time>2023-07-22T08:39:54.871Z</time>
      </trkpt>
      <trkpt lat="47.87299" lon="-2.52068">
        <ele>111</ele>
        <time>2023-07-22T08:39:55.870Z</time>
      </trkpt>
      <trkpt lat="47.87299" lon="-2.52067">
        <ele>112</ele>
        <time>2023-07-22T08:39:56.870Z</time>
      </trkpt>
      <trkpt lat="47.87299" lon="-2.52066">
        <ele>112</ele>
        <time>2023-07-22T08:39:57.870Z</time>
      </trkpt>
      <trkpt lat="47.87299" lon="-2.52066">
        <ele>112</ele>
        <time>2023-07-22T08:39:58.870Z</time>
      </trkpt>
      <trkpt lat="47.873" lon="-2.52065">
        <ele>113</ele>
        <time>2023-07-22T08:39:59.871Z</time>
      </trkpt>
      <trkpt lat="47.873" lon="-2.52064">
        <ele>113</ele>
        <time>2023-07-22T08:40:00.870Z</time>
      </trkpt>
      <trkpt lat="47.873" lon="-2.52063">
        <ele>113</ele>
        <time>2023-07-22T08:40:01.871Z</time>
      </trkpt>
      <trkpt lat="47.873" lon="-2.52062">
        <ele>114</ele>
        <time>2023-07-22T08:40:02.871Z</time>
      </trkpt>
      <trkpt lat="47.87301" lon="-2.52061">
        <ele>114</ele>
        <time>2023-07-22T08:40:03.870Z</time>
      </trkpt>
      <trkpt lat="47.87302" lon="-2.5206">
        <ele>115</ele>
        <time>2023-07-22T08:40:04.871Z</time>
      </trkpt>
      <trkpt lat="47.87302" lon="-2.52059">
        <ele>115</ele>
        <time>2023-07-22T08:40:05.870Z</time>
      </trkpt>
      <trkpt lat="47.87302" lon="-2.52058">
        <ele>115</ele>
        <time>2023-07-22T08:40:06.870Z</time>
      </trkpt>
      <trkpt lat="47.87303" lon="-2.52057">
        <ele>115</ele>
        <time>2023-07-22T08:40:07.871Z</time>
      </trkpt>
      <trkpt lat="47.87303" lon="-2.52056">
        <ele>115</ele>
        <time>2023-07-22T08:40:08.870Z</time>
      </trkpt>
      <trkpt lat="47.87303" lon="-2.52055">
        <ele>115</ele>
        <time>2023-07-22T08:40:09.871Z</time>
      </trkpt>
      <trkpt lat="47.87304" lon="-2.52054">
        <ele>115</ele>
        <time>2023-07-22T08:40:10.870Z</time>
      </trkpt>
      <trkpt lat="47.87304" lon="-2.52053">
        <ele>114</ele>
        <time>2023-07-22T08:40:11.871Z</time>
      </trkpt>
      <trkpt lat="47.87305" lon="-2.52052">
        <ele>114</ele>
        <time>2023-07-22T08:40:12.871Z</time>
      </trkpt>
      <trkpt lat="47.87305" lon="-2.5205">
        <ele>114</ele>
        <time>2023-07-22T08:40:13.870Z</time>
      </trkpt>
      <trkpt lat="47.87305" lon="-2.52049">
        <ele>114</ele>
        <time>2023-07-22T08:40:14.871Z</time>
      </trkpt>
      <trkpt lat="47.87305" lon="-2.52048">
        <ele>114</ele>
        <time>2023-07-22T08:40:15.870Z</time>
      </trkpt>
      <trkpt lat="47.87305" lon="-2.52048">
        <ele>114</ele>
        <time>2023-07-22T08:40:16.871Z</time>
      </trkpt>
      <trkpt lat="47.87306" lon="-2.52048">
        <ele>114</ele>
        <time>2023-07-22T08:40:17.870Z</time>
      </trkpt>
      <trkpt lat="47.87306" lon="-2.52047">
        <ele>114</ele>
        <time>2023-07-22T08:40:18.870Z</time>
      </trkpt>
      <trkpt lat="47.87307" lon="-2.52047">
        <ele>113</ele>
        <time>2023-07-22T08:40:19.870Z</time>
      </trkpt>
      <trkpt lat="47.87308" lon="-2.52046">
        <ele>113</ele>
        <time>2023-07-22T08:40:20.870Z</time>
      </trkpt>
      <trkpt lat="47.87308" lon="-2.52045">
        <ele>113</ele>
        <time>2023-07-22T08:40:21.870Z</time>
      </trkpt>
      <trkpt lat="47.87309" lon="-2.52044">
        <ele>113</ele>
        <time>2023-07-22T08:40:22.870Z</time>
      </trkpt>
      <trkpt lat="47.87309" lon="-2.52043">
        <ele>112</ele>
        <time>2023-07-22T08:40:23.870Z</time>
      </trkpt>
      <trkpt lat="47.8731" lon="-2.52043">
        <ele>112</ele>
        <time>2023-07-22T08:40:24.871Z</time>
      </trkpt>
      <trkpt lat="47.87309" lon="-2.52042">
        <ele>112</ele>
        <time>2023-07-22T08:40:25.871Z</time>
      </trkpt>
      <trkpt lat="47.8731" lon="-2.52041">
        <ele>112</ele>
        <time>2023-07-22T08:40:26.871Z</time>
      </trkpt>
      <trkpt lat="47.8731" lon="-2.5204">
        <ele>111</ele>
        <time>2023-07-22T08:40:27.871Z</time>
      </trkpt>
      <trkpt lat="47.87311" lon="-2.52038">
        <ele>111</ele>
        <time>2023-07-22T08:40:28.870Z</time>
      </trkpt>
      <trkpt lat="47.87311" lon="-2.52037">
        <ele>111</ele>
        <time>2023-07-22T08:40:29.871Z</time>
      </trkpt>
      <trkpt lat="47.87311" lon="-2.52035">
        <ele>112</ele>
        <time>2023-07-22T08:40:30.870Z</time>
      </trkpt>
      <trkpt lat="47.87311" lon="-2.52034">
        <ele>112</ele>
        <time>2023-07-22T08:40:31.870Z</time>
      </trkpt>
      <trkpt lat="47.87312" lon="-2.52033">
        <ele>112</ele>
        <time>2023-07-22T08:40:32.871Z</time>
      </trkpt>
      <trkpt lat="47.87313" lon="-2.52032">
        <ele>112</ele>
        <time>2023-07-22T08:40:33.871Z</time>
      </trkpt>
      <trkpt lat="47.87313" lon="-2.52031">
        <ele>113</ele>
        <time>2023-07-22T08:40:34.870Z</time>
      </trkpt>
      <trkpt lat="47.87313" lon="-2.5203">
        <ele>113</ele>
        <time>2023-07-22T08:40:35.871Z</time>
      </trkpt>
      <trkpt lat="47.87314" lon="-2.52029">
        <ele>114</ele>
        <time>2023-07-22T08:40:36.870Z</time>
      </trkpt>
      <trkpt lat="47.87314" lon="-2.52028">
        <ele>114</ele>
        <time>2023-07-22T08:40:37.870Z</time>
      </trkpt>
      <trkpt lat="47.87315" lon="-2.52027">
        <ele>115</ele>
        <time>2023-07-22T08:40:38.871Z</time>
      </trkpt>
      <trkpt lat="47.87315" lon="-2.52026">
        <ele>116</ele>
        <time>2023-07-22T08:40:39.870Z</time>
      </trkpt>
      <trkpt lat="47.87315" lon="-2.52025">
        <ele>116</ele>
        <time>2023-07-22T08:40:40.871Z</time>
      </trkpt>
      <trkpt lat="47.87316" lon="-2.52025">
        <ele>116</ele>
        <time>2023-07-22T08:40:41.870Z</time>
      </trkpt>
      <trkpt lat="47.87316" lon="-2.52025">
        <ele>117</ele>
        <time>2023-07-22T08:40:42.871Z</time>
      </trkpt>
      <trkpt lat="47.87317" lon="-2.52024">
        <ele>117</ele>
        <time>2023-07-22T08:40:43.870Z</time>
      </trkpt>
      <trkpt lat="47.87318" lon="-2.52024">
        <ele>117</ele>
        <time>2023-07-22T08:40:44.870Z</time>
      </trkpt>
      <trkpt lat="47.87319" lon="-2.52024">
        <ele>117</ele>
        <time>2023-07-22T08:40:45.871Z</time>
      </trkpt>
      <trkpt lat="47.8732" lon="-2.52025">
        <ele>116</ele>
        <time>2023-07-22T08:40:46.870Z</time>
      </trkpt>
      <trkpt lat="47.87321" lon="-2.52025">
        <ele>116</ele>
        <time>2023-07-22T08:40:47.871Z</time>
      </trkpt>
      <trkpt lat="47.87321" lon="-2.52025">
        <ele>116</ele>
        <time>2023-07-22T08:40:48.871Z</time>
      </trkpt>
      <trkpt lat="47.87322" lon="-2.52025">
        <ele>115</ele>
        <time>2023-07-22T08:40:49.870Z</time>
      </trkpt>
      <trkpt lat="47.87323" lon="-2.52024">
        <ele>115</ele>
        <time>2023-07-22T08:40:50.871Z</time>
      </trkpt>
      <trkpt lat="47.87324" lon="-2.52024">
        <ele>115</ele>
        <time>2023-07-22T08:40:51.870Z</time>
      </trkpt>
      <trkpt lat="47.87325" lon="-2.52024">
        <ele>115</ele>
        <time>2023-07-22T08:40:52.871Z</time>
      </trkpt>
      <trkpt lat="47.87325" lon="-2.52023">
        <ele>114</ele>
        <time>2023-07-22T08:40:53.870Z</time>
      </trkpt>
      <trkpt lat="47.87326" lon="-2.52023">
        <ele>114</ele>
        <time>2023-07-22T08:40:54.870Z</time>
      </trkpt>
      <trkpt lat="47.87327" lon="-2.52022">
        <ele>114</ele>
        <time>2023-07-22T08:40:55.870Z</time>
      </trkpt>
      <trkpt lat="47.87329" lon="-2.52021">
        <ele>113</ele>
        <time>2023-07-22T08:40:56.870Z</time>
      </trkpt>
      <trkpt lat="47.8733" lon="-2.52021">
        <ele>113</ele>
        <time>2023-07-22T08:40:57.871Z</time>
      </trkpt>
      <trkpt lat="47.8733" lon="-2.52021">
        <ele>113</ele>
        <time>2023-07-22T08:40:58.870Z</time>
      </trkpt>
      <trkpt lat="47.87335" lon="-2.52018">
        <ele>111</ele>
        <time>2023-07-22T08:41:06.120Z</time>
      </trkpt>
      <trkpt lat="47.87336" lon="-2.52017">
        <ele>111</ele>
        <time>2023-07-22T08:41:07.120Z</time>
      </trkpt>
      <trkpt lat="47.87337" lon="-2.52017">
        <ele>111</ele>
        <time>2023-07-22T08:41:08.120Z</time>
      </trkpt>
      <trkpt lat="47.87338" lon="-2.52017">
        <ele>111</ele>
        <time>2023-07-22T08:41:09.120Z</time>
      </trkpt>
      <trkpt lat="47.87339" lon="-2.52016">
        <ele>111</ele>
        <time>2023-07-22T08:41:10.120Z</time>
      </trkpt>
      <trkpt lat="47.8734" lon="-2.52015">
        <ele>110</ele>
        <time>2023-07-22T08:41:11.120Z</time>
      </trkpt>
      <trkpt lat="47.87341" lon="-2.52014">
        <ele>110</ele>
        <time>2023-07-22T08:41:12.120Z</time>
      </trkpt>
      <trkpt lat="47.87341" lon="-2.52013">
        <ele>109</ele>
        <time>2023-07-22T08:41:13.120Z</time>
      </trkpt>
      <trkpt lat="47.87341" lon="-2.52012">
        <ele>109</ele>
        <time>2023-07-22T08:41:14.120Z</time>
      </trkpt>
      <trkpt lat="47.87343" lon="-2.5201">
        <ele>109</ele>
        <time>2023-07-22T08:41:15.121Z</time>
      </trkpt>
      <trkpt lat="47.87343" lon="-2.5201">
        <ele>109</ele>
        <time>2023-07-22T08:41:16.120Z</time>
      </trkpt>
      <trkpt lat="47.87344" lon="-2.5201">
        <ele>108</ele>
        <time>2023-07-22T08:41:17.120Z</time>
      </trkpt>
      <trkpt lat="47.87344" lon="-2.5201">
        <ele>108</ele>
        <time>2023-07-22T08:41:18.120Z</time>
      </trkpt>
      <trkpt lat="47.87344" lon="-2.5201">
        <ele>108</ele>
        <time>2023-07-22T08:41:19.120Z</time>
      </trkpt>
      <trkpt lat="47.87344" lon="-2.52009">
        <ele>108</ele>
        <time>2023-07-22T08:41:20.120Z</time>
      </trkpt>
      <trkpt lat="47.87344" lon="-2.52009">
        <ele>108</ele>
        <time>2023-07-22T08:41:21.120Z</time>
      </trkpt>
      <trkpt lat="47.87345" lon="-2.52008">
        <ele>108</ele>
        <time>2023-07-22T08:41:22.120Z</time>
      </trkpt>
      <trkpt lat="47.87346" lon="-2.52007">
        <ele>108</ele>
        <time>2023-07-22T08:41:23.120Z</time>
      </trkpt>
      <trkpt lat="47.87347" lon="-2.52006">
        <ele>108</ele>
        <time>2023-07-22T08:41:24.120Z</time>
      </trkpt>
      <trkpt lat="47.87349" lon="-2.52005">
        <ele>109</ele>
        <time>2023-07-22T08:41:25.120Z</time>
      </trkpt>
      <trkpt lat="47.8735" lon="-2.52004">
        <ele>109</ele>
        <time>2023-07-22T08:41:26.120Z</time>
      </trkpt>
      <trkpt lat="47.87351" lon="-2.52004">
        <ele>109</ele>
        <time>2023-07-22T08:41:27.121Z</time>
      </trkpt>
      <trkpt lat="47.87351" lon="-2.52003">
        <ele>110</ele>
        <time>2023-07-22T08:41:28.121Z</time>
      </trkpt>
      <trkpt lat="47.87353" lon="-2.52003">
        <ele>111</ele>
        <time>2023-07-22T08:41:29.121Z</time>
      </trkpt>
      <trkpt lat="47.87354" lon="-2.52003">
        <ele>111</ele>
        <time>2023-07-22T08:41:30.121Z</time>
      </trkpt>
      <trkpt lat="47.87354" lon="-2.52002">
        <ele>112</ele>
        <time>2023-07-22T08:41:31.121Z</time>
      </trkpt>
      <trkpt lat="47.87354" lon="-2.52001">
        <ele>112</ele>
        <time>2023-07-22T08:41:32.120Z</time>
      </trkpt>
      <trkpt lat="47.87355" lon="-2.52001">
        <ele>113</ele>
        <time>2023-07-22T08:41:33.120Z</time>
      </trkpt>
      <trkpt lat="47.87355" lon="-2.52">
        <ele>113</ele>
        <time>2023-07-22T08:41:34.120Z</time>
      </trkpt>
      <trkpt lat="47.87359" lon="-2.51998">
        <ele>117</ele>
        <time>2023-07-22T08:41:40.506Z</time>
      </trkpt>
      <trkpt lat="47.8736" lon="-2.51997">
        <ele>118</ele>
        <time>2023-07-22T08:41:41.506Z</time>
      </trkpt>
      <trkpt lat="47.87361" lon="-2.51997">
        <ele>118</ele>
        <time>2023-07-22T08:41:42.506Z</time>
      </trkpt>
      <trkpt lat="47.87362" lon="-2.51996">
        <ele>118</ele>
        <time>2023-07-22T08:41:43.506Z</time>
      </trkpt>
      <trkpt lat="47.87362" lon="-2.51996">
        <ele>118</ele>
        <time>2023-07-22T08:41:44.506Z</time>
      </trkpt>
      <trkpt lat="47.87363" lon="-2.51995">
        <ele>118</ele>
        <time>2023-07-22T08:41:45.506Z</time>
      </trkpt>
      <trkpt lat="47.87364" lon="-2.51994">
        <ele>118</ele>
        <time>2023-07-22T08:41:46.506Z</time>
      </trkpt>
      <trkpt lat="47.87366" lon="-2.51993">
        <ele>118</ele>
        <time>2023-07-22T08:41:47.506Z</time>
      </trkpt>
      <trkpt lat="47.87368" lon="-2.51993">
        <ele>118</ele>
        <time>2023-07-22T08:41:48.506Z</time>
      </trkpt>
      <trkpt lat="47.87369" lon="-2.51993">
        <ele>117</ele>
        <time>2023-07-22T08:41:49.506Z</time>
      </trkpt>
      <trkpt lat="47.8737" lon="-2.51993">
        <ele>117</ele>
        <time>2023-07-22T08:41:50.506Z</time>
      </trkpt>
      <trkpt lat="47.8737" lon="-2.51993">
        <ele>117</ele>
        <time>2023-07-22T08:41:51.506Z</time>
      </trkpt>
      <trkpt lat="47.87371" lon="-2.51993">
        <ele>117</ele>
        <time>2023-07-22T08:41:52.506Z</time>
      </trkpt>
      <trkpt lat="47.87377" lon="-2.51992">
        <ele>116</ele>
        <time>2023-07-22T08:42:01.761Z</time>
      </trkpt>
      <trkpt lat="47.87378" lon="-2.51992">
        <ele>116</ele>
        <time>2023-07-22T08:42:02.761Z</time>
      </trkpt>
      <trkpt lat="47.87379" lon="-2.51991">
        <ele>115</ele>
        <time>2023-07-22T08:42:03.761Z</time>
      </trkpt>
      <trkpt lat="47.8738" lon="-2.51991">
        <ele>115</ele>
        <time>2023-07-22T08:42:04.761Z</time>
      </trkpt>
      <trkpt lat="47.87381" lon="-2.51991">
        <ele>115</ele>
        <time>2023-07-22T08:42:05.760Z</time>
      </trkpt>
      <trkpt lat="47.87382" lon="-2.51991">
        <ele>114</ele>
        <time>2023-07-22T08:42:06.761Z</time>
      </trkpt>
      <trkpt lat="47.87383" lon="-2.51991">
        <ele>114</ele>
        <time>2023-07-22T08:42:07.760Z</time>
      </trkpt>
      <trkpt lat="47.87384" lon="-2.5199">
        <ele>114</ele>
        <time>2023-07-22T08:42:08.761Z</time>
      </trkpt>
      <trkpt lat="47.87386" lon="-2.5199">
        <ele>113</ele>
        <time>2023-07-22T08:42:09.761Z</time>
      </trkpt>
      <trkpt lat="47.87388" lon="-2.5199">
        <ele>113</ele>
        <time>2023-07-22T08:42:10.761Z</time>
      </trkpt>
      <trkpt lat="47.87388" lon="-2.51989">
        <ele>113</ele>
        <time>2023-07-22T08:42:11.761Z</time>
      </trkpt>
      <trkpt lat="47.87389" lon="-2.51989">
        <ele>113</ele>
        <time>2023-07-22T08:42:12.761Z</time>
      </trkpt>
      <trkpt lat="47.8739" lon="-2.51988">
        <ele>113</ele>
        <time>2023-07-22T08:42:13.761Z</time>
      </trkpt>
      <trkpt lat="47.8739" lon="-2.51988">
        <ele>113</ele>
        <time>2023-07-22T08:42:14.760Z</time>
      </trkpt>
      <trkpt lat="47.8739" lon="-2.51988">
        <ele>113</ele>
        <time>2023-07-22T08:42:15.761Z</time>
      </trkpt>
      <trkpt lat="47.87391" lon="-2.51987">
        <ele>112</ele>
        <time>2023-07-22T08:42:16.760Z</time>
      </trkpt>
      <trkpt lat="47.87391" lon="-2.51986">
        <ele>112</ele>
        <time>2023-07-22T08:42:17.760Z</time>
      </trkpt>
      <trkpt lat="47.87392" lon="-2.51986">
        <ele>112</ele>
        <time>2023-07-22T08:42:18.760Z</time>
      </trkpt>
      <trkpt lat="47.87393" lon="-2.51987">
        <ele>113</ele>
        <time>2023-07-22T08:42:19.760Z</time>
      </trkpt>
      <trkpt lat="47.87393" lon="-2.51987">
        <ele>113</ele>
        <time>2023-07-22T08:42:20.760Z</time>
      </trkpt>
      <trkpt lat="47.87393" lon="-2.51987">
        <ele>113</ele>
        <time>2023-07-22T08:42:21.761Z</time>
      </trkpt>
      <trkpt lat="47.87394" lon="-2.51987">
        <ele>113</ele>
        <time>2023-07-22T08:42:22.761Z</time>
      </trkpt>
      <trkpt lat="47.87395" lon="-2.51987">
        <ele>113</ele>
        <time>2023-07-22T08:42:23.761Z</time>
      </trkpt>
      <trkpt lat="47.87397" lon="-2.51987">
        <ele>113</ele>
        <time>2023-07-22T08:42:24.761Z</time>
      </trkpt>
      <trkpt lat="47.87398" lon="-2.51988">
        <ele>113</ele>
        <time>2023-07-22T08:42:25.761Z</time>
      </trkpt>
      <trkpt lat="47.874" lon="-2.51988">
        <ele>114</ele>
        <time>2023-07-22T08:42:26.760Z</time>
      </trkpt>
      <trkpt lat="47.87401" lon="-2.51988">
        <ele>114</ele>
        <time>2023-07-22T08:42:27.760Z</time>
      </trkpt>
      <trkpt lat="47.87402" lon="-2.51988">
        <ele>114</ele>
        <time>2023-07-22T08:42:28.760Z</time>
      </trkpt>
      <trkpt lat="47.87403" lon="-2.51988">
        <ele>114</ele>
        <time>2023-07-22T08:42:29.761Z</time>
      </trkpt>
      <trkpt lat="47.87403" lon="-2.51988">
        <ele>113</ele>
        <time>2023-07-22T08:42:30.760Z</time>
      </trkpt>
      <trkpt lat="47.87404" lon="-2.51989">
        <ele>113</ele>
        <time>2023-07-22T08:42:31.760Z</time>
      </trkpt>
      <trkpt lat="47.87406" lon="-2.5199">
        <ele>113</ele>
        <time>2023-07-22T08:42:32.760Z</time>
      </trkpt>
      <trkpt lat="47.87407" lon="-2.5199">
        <ele>113</ele>
        <time>2023-07-22T08:42:33.761Z</time>
      </trkpt>
      <trkpt lat="47.87408" lon="-2.51991">
        <ele>113</ele>
        <time>2023-07-22T08:42:34.761Z</time>
      </trkpt>
      <trkpt lat="47.87409" lon="-2.51991">
        <ele>113</ele>
        <time>2023-07-22T08:42:35.761Z</time>
      </trkpt>
      <trkpt lat="47.87411" lon="-2.51992">
        <ele>113</ele>
        <time>2023-07-22T08:42:36.761Z</time>
      </trkpt>
      <trkpt lat="47.87414" lon="-2.51994">
        <ele>114</ele>
        <time>2023-07-22T08:42:37.761Z</time>
      </trkpt>
      <trkpt lat="47.87416" lon="-2.51996">
        <ele>114</ele>
        <time>2023-07-22T08:42:38.761Z</time>
      </trkpt>
      <trkpt lat="47.87417" lon="-2.51996">
        <ele>114</ele>
        <time>2023-07-22T08:42:39.761Z</time>
      </trkpt>
      <trkpt lat="47.87417" lon="-2.51996">
        <ele>115</ele>
        <time>2023-07-22T08:42:40.761Z</time>
      </trkpt>
      <trkpt lat="47.87419" lon="-2.51997">
        <ele>115</ele>
        <time>2023-07-22T08:42:41.761Z</time>
      </trkpt>
      <trkpt lat="47.87422" lon="-2.51998">
        <ele>115</ele>
        <time>2023-07-22T08:42:42.760Z</time>
      </trkpt>
      <trkpt lat="47.87424" lon="-2.51999">
        <ele>115</ele>
        <time>2023-07-22T08:42:43.760Z</time>
      </trkpt>
      <trkpt lat="47.87425" lon="-2.51999">
        <ele>115</ele>
        <time>2023-07-22T08:42:44.760Z</time>
      </trkpt>
      <trkpt lat="47.87427" lon="-2.52001">
        <ele>115</ele>
        <time>2023-07-22T08:42:45.760Z</time>
      </trkpt>
      <trkpt lat="47.87427" lon="-2.52001">
        <ele>115</ele>
        <time>2023-07-22T08:42:46.760Z</time>
      </trkpt>
      <trkpt lat="47.87427" lon="-2.52001">
        <ele>116</ele>
        <time>2023-07-22T08:42:47.760Z</time>
      </trkpt>
      <trkpt lat="47.87428" lon="-2.52001">
        <ele>116</ele>
        <time>2023-07-22T08:42:48.760Z</time>
      </trkpt>
      <trkpt lat="47.87428" lon="-2.52001">
        <ele>117</ele>
        <time>2023-07-22T08:42:49.760Z</time>
      </trkpt>
      <trkpt lat="47.87428" lon="-2.52001">
        <ele>117</ele>
        <time>2023-07-22T08:42:50.760Z</time>
      </trkpt>
      <trkpt lat="47.87431" lon="-2.52002">
        <ele>118</ele>
        <time>2023-07-22T08:42:56.108Z</time>
      </trkpt>
      <trkpt lat="47.87433" lon="-2.52003">
        <ele>118</ele>
        <time>2023-07-22T08:42:57.108Z</time>
      </trkpt>
      <trkpt lat="47.87435" lon="-2.52004">
        <ele>118</ele>
        <time>2023-07-22T08:42:58.108Z</time>
      </trkpt>
      <trkpt lat="47.87436" lon="-2.52006">
        <ele>119</ele>
        <time>2023-07-22T08:42:59.109Z</time>
      </trkpt>
      <trkpt lat="47.87437" lon="-2.52006">
        <ele>119</ele>
        <time>2023-07-22T08:43:00.108Z</time>
      </trkpt>
      <trkpt lat="47.87438" lon="-2.52007">
        <ele>119</ele>
        <time>2023-07-22T08:43:01.109Z</time>
      </trkpt>
      <trkpt lat="47.87439" lon="-2.52008">
        <ele>119</ele>
        <time>2023-07-22T08:43:02.108Z</time>
      </trkpt>
      <trkpt lat="47.8744" lon="-2.52008">
        <ele>120</ele>
        <time>2023-07-22T08:43:03.109Z</time>
      </trkpt>
      <trkpt lat="47.87441" lon="-2.52009">
        <ele>120</ele>
        <time>2023-07-22T08:43:04.108Z</time>
      </trkpt>
      <trkpt lat="47.87441" lon="-2.5201">
        <ele>120</ele>
        <time>2023-07-22T08:43:05.109Z</time>
      </trkpt>
      <trkpt lat="47.87442" lon="-2.5201">
        <ele>120</ele>
        <time>2023-07-22T08:43:06.109Z</time>
      </trkpt>
      <trkpt lat="47.87443" lon="-2.52011">
        <ele>120</ele>
        <time>2023-07-22T08:43:07.108Z</time>
      </trkpt>
      <trkpt lat="47.87445" lon="-2.52011">
        <ele>119</ele>
        <time>2023-07-22T08:43:08.109Z</time>
      </trkpt>
      <trkpt lat="47.87446" lon="-2.52012">
        <ele>119</ele>
        <time>2023-07-22T08:43:09.108Z</time>
      </trkpt>
      <trkpt lat="47.87446" lon="-2.52011">
        <ele>119</ele>
        <time>2023-07-22T08:43:10.109Z</time>
      </trkpt>
      <trkpt lat="47.87448" lon="-2.52012">
        <ele>119</ele>
        <time>2023-07-22T08:43:11.108Z</time>
      </trkpt>
      <trkpt lat="47.8745" lon="-2.52013">
        <ele>119</ele>
        <time>2023-07-22T08:43:12.109Z</time>
      </trkpt>
      <trkpt lat="47.87452" lon="-2.52015">
        <ele>119</ele>
        <time>2023-07-22T08:43:13.108Z</time>
      </trkpt>
      <trkpt lat="47.87454" lon="-2.52016">
        <ele>118</ele>
        <time>2023-07-22T08:43:14.109Z</time>
      </trkpt>
      <trkpt lat="47.87456" lon="-2.52017">
        <ele>118</ele>
        <time>2023-07-22T08:43:15.109Z</time>
      </trkpt>
      <trkpt lat="47.87458" lon="-2.52018">
        <ele>118</ele>
        <time>2023-07-22T08:43:16.109Z</time>
      </trkpt>
      <trkpt lat="47.8746" lon="-2.52019">
        <ele>119</ele>
        <time>2023-07-22T08:43:17.109Z</time>
      </trkpt>
      <trkpt lat="47.87461" lon="-2.52019">
        <ele>119</ele>
        <time>2023-07-22T08:43:18.109Z</time>
      </trkpt>
      <trkpt lat="47.87462" lon="-2.52019">
        <ele>119</ele>
        <time>2023-07-22T08:43:19.108Z</time>
      </trkpt>
      <trkpt lat="47.87462" lon="-2.5202">
        <ele>119</ele>
        <time>2023-07-22T08:43:20.109Z</time>
      </trkpt>
      <trkpt lat="47.87463" lon="-2.5202">
        <ele>119</ele>
        <time>2023-07-22T08:43:21.108Z</time>
      </trkpt>
      <trkpt lat="47.87465" lon="-2.5202">
        <ele>119</ele>
        <time>2023-07-22T08:43:22.109Z</time>
      </trkpt>
      <trkpt lat="47.87467" lon="-2.52021">
        <ele>118</ele>
        <time>2023-07-22T08:43:23.109Z</time>
      </trkpt>
      <trkpt lat="47.87468" lon="-2.52021">
        <ele>118</ele>
        <time>2023-07-22T08:43:24.108Z</time>
      </trkpt>
      <trkpt lat="47.8747" lon="-2.52022">
        <ele>118</ele>
        <time>2023-07-22T08:43:25.109Z</time>
      </trkpt>
      <trkpt lat="47.87471" lon="-2.52023">
        <ele>118</ele>
        <time>2023-07-22T08:43:26.108Z</time>
      </trkpt>
      <trkpt lat="47.87472" lon="-2.52024">
        <ele>117</ele>
        <time>2023-07-22T08:43:27.109Z</time>
      </trkpt>
      <trkpt lat="47.87473" lon="-2.52024">
        <ele>117</ele>
        <time>2023-07-22T08:43:28.108Z</time>
      </trkpt>
      <trkpt lat="47.87475" lon="-2.52025">
        <ele>117</ele>
        <time>2023-07-22T08:43:29.109Z</time>
      </trkpt>
      <trkpt lat="47.87477" lon="-2.52024">
        <ele>118</ele>
        <time>2023-07-22T08:43:30.108Z</time>
      </trkpt>
      <trkpt lat="47.87478" lon="-2.52024">
        <ele>118</ele>
        <time>2023-07-22T08:43:31.108Z</time>
      </trkpt>
      <trkpt lat="47.87479" lon="-2.52024">
        <ele>118</ele>
        <time>2023-07-22T08:43:32.108Z</time>
      </trkpt>
      <trkpt lat="47.87479" lon="-2.52024">
        <ele>118</ele>
        <time>2023-07-22T08:43:33.109Z</time>
      </trkpt>
      <trkpt lat="47.87479" lon="-2.52024">
        <ele>119</ele>
        <time>2023-07-22T08:43:34.108Z</time>
      </trkpt>
      <trkpt lat="47.87483" lon="-2.52023">
        <ele>122</ele>
        <time>2023-07-22T08:43:40.436Z</time>
      </trkpt>
      <trkpt lat="47.87484" lon="-2.52022">
        <ele>123</ele>
        <time>2023-07-22T08:43:41.436Z</time>
      </trkpt>
      <trkpt lat="47.87486" lon="-2.52021">
        <ele>123</ele>
        <time>2023-07-22T08:43:42.436Z</time>
      </trkpt>
      <trkpt lat="47.87488" lon="-2.52021">
        <ele>123</ele>
        <time>2023-07-22T08:43:43.436Z</time>
      </trkpt>
      <trkpt lat="47.8749" lon="-2.52021">
        <ele>123</ele>
        <time>2023-07-22T08:43:44.437Z</time>
      </trkpt>
      <trkpt lat="47.87492" lon="-2.52022">
        <ele>123</ele>
        <time>2023-07-22T08:43:45.436Z</time>
      </trkpt>
      <trkpt lat="47.87494" lon="-2.52023">
        <ele>122</ele>
        <time>2023-07-22T08:43:46.436Z</time>
      </trkpt>
      <trkpt lat="47.87495" lon="-2.52024">
        <ele>122</ele>
        <time>2023-07-22T08:43:47.436Z</time>
      </trkpt>
      <trkpt lat="47.87496" lon="-2.52025">
        <ele>122</ele>
        <time>2023-07-22T08:43:48.436Z</time>
      </trkpt>
      <trkpt lat="47.87498" lon="-2.52025">
        <ele>121</ele>
        <time>2023-07-22T08:43:49.437Z</time>
      </trkpt>
      <trkpt lat="47.87499" lon="-2.52024">
        <ele>121</ele>
        <time>2023-07-22T08:43:50.436Z</time>
      </trkpt>
      <trkpt lat="47.87501" lon="-2.52024">
        <ele>121</ele>
        <time>2023-07-22T08:43:51.436Z</time>
      </trkpt>
      <trkpt lat="47.87502" lon="-2.52024">
        <ele>121</ele>
        <time>2023-07-22T08:43:52.436Z</time>
      </trkpt>
      <trkpt lat="47.87504" lon="-2.52024">
        <ele>121</ele>
        <time>2023-07-22T08:43:53.436Z</time>
      </trkpt>
      <trkpt lat="47.87505" lon="-2.52024">
        <ele>121</ele>
        <time>2023-07-22T08:43:54.436Z</time>
      </trkpt>
      <trkpt lat="47.87507" lon="-2.52024">
        <ele>121</ele>
        <time>2023-07-22T08:43:55.437Z</time>
      </trkpt>
      <trkpt lat="47.87509" lon="-2.52024">
        <ele>121</ele>
        <time>2023-07-22T08:43:56.436Z</time>
      </trkpt>
      <trkpt lat="47.87511" lon="-2.52025">
        <ele>121</ele>
        <time>2023-07-22T08:43:57.437Z</time>
      </trkpt>
      <trkpt lat="47.87513" lon="-2.52026">
        <ele>121</ele>
        <time>2023-07-22T08:43:58.436Z</time>
      </trkpt>
      <trkpt lat="47.87515" lon="-2.52026">
        <ele>121</ele>
        <time>2023-07-22T08:43:59.437Z</time>
      </trkpt>
      <trkpt lat="47.87515" lon="-2.52025">
        <ele>121</ele>
        <time>2023-07-22T08:44:00.436Z</time>
      </trkpt>
      <trkpt lat="47.87515" lon="-2.52024">
        <ele>121</ele>
        <time>2023-07-22T08:44:01.437Z</time>
      </trkpt>
      <trkpt lat="47.87516" lon="-2.52023">
        <ele>122</ele>
        <time>2023-07-22T08:44:02.436Z</time>
      </trkpt>
      <trkpt lat="47.87516" lon="-2.52023">
        <ele>122</ele>
        <time>2023-07-22T08:44:03.436Z</time>
      </trkpt>
      <trkpt lat="47.87517" lon="-2.52023">
        <ele>122</ele>
        <time>2023-07-22T08:44:04.436Z</time>
      </trkpt>
      <trkpt lat="47.87518" lon="-2.52023">
        <ele>122</ele>
        <time>2023-07-22T08:44:05.436Z</time>
      </trkpt>
      <trkpt lat="47.87518" lon="-2.52023">
        <ele>123</ele>
        <time>2023-07-22T08:44:06.436Z</time>
      </trkpt>
      <trkpt lat="47.87519" lon="-2.52023">
        <ele>123</ele>
        <time>2023-07-22T08:44:07.437Z</time>
      </trkpt>
      <trkpt lat="47.8752" lon="-2.52023">
        <ele>123</ele>
        <time>2023-07-22T08:44:08.436Z</time>
      </trkpt>
      <trkpt lat="47.87521" lon="-2.52023">
        <ele>123</ele>
        <time>2023-07-22T08:44:09.436Z</time>
      </trkpt>
      <trkpt lat="47.87521" lon="-2.52023">
        <ele>123</ele>
        <time>2023-07-22T08:44:10.437Z</time>
      </trkpt>
      <trkpt lat="47.87522" lon="-2.52023">
        <ele>123</ele>
        <time>2023-07-22T08:44:11.437Z</time>
      </trkpt>
      <trkpt lat="47.87522" lon="-2.52021">
        <ele>124</ele>
        <time>2023-07-22T08:44:12.437Z</time>
      </trkpt>
      <trkpt lat="47.87523" lon="-2.52021">
        <ele>124</ele>
        <time>2023-07-22T08:44:13.437Z</time>
      </trkpt>
      <trkpt lat="47.87524" lon="-2.52021">
        <ele>125</ele>
        <time>2023-07-22T08:44:14.437Z</time>
      </trkpt>
      <trkpt lat="47.87525" lon="-2.52021">
        <ele>125</ele>
        <time>2023-07-22T08:44:15.437Z</time>
      </trkpt>
      <trkpt lat="47.87526" lon="-2.52021">
        <ele>125</ele>
        <time>2023-07-22T08:44:16.437Z</time>
      </trkpt>
      <trkpt lat="47.87527" lon="-2.52021">
        <ele>126</ele>
        <time>2023-07-22T08:44:17.437Z</time>
      </trkpt>
      <trkpt lat="47.87529" lon="-2.5202">
        <ele>126</ele>
        <time>2023-07-22T08:44:18.436Z</time>
      </trkpt>
      <trkpt lat="47.8753" lon="-2.52019">
        <ele>126</ele>
        <time>2023-07-22T08:44:19.436Z</time>
      </trkpt>
      <trkpt lat="47.87531" lon="-2.52018">
        <ele>127</ele>
        <time>2023-07-22T08:44:20.436Z</time>
      </trkpt>
      <trkpt lat="47.87532" lon="-2.52018">
        <ele>127</ele>
        <time>2023-07-22T08:44:21.436Z</time>
      </trkpt>
      <trkpt lat="47.87534" lon="-2.52018">
        <ele>127</ele>
        <time>2023-07-22T08:44:22.436Z</time>
      </trkpt>
      <trkpt lat="47.87536" lon="-2.52018">
        <ele>127</ele>
        <time>2023-07-22T08:44:23.436Z</time>
      </trkpt>
      <trkpt lat="47.87537" lon="-2.52018">
        <ele>127</ele>
        <time>2023-07-22T08:44:24.436Z</time>
      </trkpt>
      <trkpt lat="47.87538" lon="-2.52017">
        <ele>126</ele>
        <time>2023-07-22T08:44:25.436Z</time>
      </trkpt>
      <trkpt lat="47.87539" lon="-2.52016">
        <ele>126</ele>
        <time>2023-07-22T08:44:26.437Z</time>
      </trkpt>
      <trkpt lat="47.8754" lon="-2.52015">
        <ele>125</ele>
        <time>2023-07-22T08:44:27.436Z</time>
      </trkpt>
      <trkpt lat="47.87541" lon="-2.52015">
        <ele>125</ele>
        <time>2023-07-22T08:44:28.436Z</time>
      </trkpt>
      <trkpt lat="47.87542" lon="-2.52015">
        <ele>124</ele>
        <time>2023-07-22T08:44:29.437Z</time>
      </trkpt>
      <trkpt lat="47.87543" lon="-2.52015">
        <ele>124</ele>
        <time>2023-07-22T08:44:30.436Z</time>
      </trkpt>
      <trkpt lat="47.87544" lon="-2.52015">
        <ele>124</ele>
        <time>2023-07-22T08:44:31.436Z</time>
      </trkpt>
      <trkpt lat="47.87545" lon="-2.52015">
        <ele>124</ele>
        <time>2023-07-22T08:44:32.436Z</time>
      </trkpt>
      <trkpt lat="47.87546" lon="-2.52015">
        <ele>123</ele>
        <time>2023-07-22T08:44:33.436Z</time>
      </trkpt>
      <trkpt lat="47.87547" lon="-2.52014">
        <ele>123</ele>
        <time>2023-07-22T08:44:34.437Z</time>
      </trkpt>
      <trkpt lat="47.87548" lon="-2.52014">
        <ele>123</ele>
        <time>2023-07-22T08:44:35.436Z</time>
      </trkpt>
      <trkpt lat="47.87549" lon="-2.52013">
        <ele>123</ele>
        <time>2023-07-22T08:44:36.436Z</time>
      </trkpt>
      <trkpt lat="47.8755" lon="-2.52012">
        <ele>123</ele>
        <time>2023-07-22T08:44:37.436Z</time>
      </trkpt>
      <trkpt lat="47.87551" lon="-2.52011">
        <ele>122</ele>
        <time>2023-07-22T08:44:38.436Z</time>
      </trkpt>
      <trkpt lat="47.87552" lon="-2.52011">
        <ele>121</ele>
        <time>2023-07-22T08:44:39.436Z</time>
      </trkpt>
      <trkpt lat="47.87554" lon="-2.5201">
        <ele>120</ele>
        <time>2023-07-22T08:44:40.436Z</time>
      </trkpt>
      <trkpt lat="47.87554" lon="-2.52009">
        <ele>119</ele>
        <time>2023-07-22T08:44:41.437Z</time>
      </trkpt>
      <trkpt lat="47.87555" lon="-2.52008">
        <ele>118</ele>
        <time>2023-07-22T08:44:42.436Z</time>
      </trkpt>
      <trkpt lat="47.87555" lon="-2.52007">
        <ele>117</ele>
        <time>2023-07-22T08:44:43.436Z</time>
      </trkpt>
      <trkpt lat="47.87557" lon="-2.52007">
        <ele>116</ele>
        <time>2023-07-22T08:44:44.436Z</time>
      </trkpt>
      <trkpt lat="47.87558" lon="-2.52006">
        <ele>116</ele>
        <time>2023-07-22T08:44:45.436Z</time>
      </trkpt>
      <trkpt lat="47.8756" lon="-2.52005">
        <ele>115</ele>
        <time>2023-07-22T08:44:46.436Z</time>
      </trkpt>
      <trkpt lat="47.87561" lon="-2.52002">
        <ele>115</ele>
        <time>2023-07-22T08:44:47.436Z</time>
      </trkpt>
      <trkpt lat="47.87562" lon="-2.52">
        <ele>114</ele>
        <time>2023-07-22T08:44:48.436Z</time>
      </trkpt>
      <trkpt lat="47.87564" lon="-2.51998">
        <ele>114</ele>
        <time>2023-07-22T08:44:49.436Z</time>
      </trkpt>
      <trkpt lat="47.87565" lon="-2.51997">
        <ele>114</ele>
        <time>2023-07-22T08:44:50.436Z</time>
      </trkpt>
      <trkpt lat="47.87566" lon="-2.51995">
        <ele>114</ele>
        <time>2023-07-22T08:44:51.436Z</time>
      </trkpt>
      <trkpt lat="47.87568" lon="-2.51995">
        <ele>114</ele>
        <time>2023-07-22T08:44:52.436Z</time>
      </trkpt>
      <trkpt lat="47.8757" lon="-2.51994">
        <ele>113</ele>
        <time>2023-07-22T08:44:53.436Z</time>
      </trkpt>
      <trkpt lat="47.87571" lon="-2.51993">
        <ele>113</ele>
        <time>2023-07-22T08:44:54.436Z</time>
      </trkpt>
      <trkpt lat="47.87571" lon="-2.51993">
        <ele>113</ele>
        <time>2023-07-22T08:44:55.436Z</time>
      </trkpt>
      <trkpt lat="47.87571" lon="-2.51992">
        <ele>113</ele>
        <time>2023-07-22T08:44:56.436Z</time>
      </trkpt>
      <trkpt lat="47.87572" lon="-2.51992">
        <ele>113</ele>
        <time>2023-07-22T08:44:57.436Z</time>
      </trkpt>
      <trkpt lat="47.87573" lon="-2.51991">
        <ele>113</ele>
        <time>2023-07-22T08:44:58.437Z</time>
      </trkpt>
      <trkpt lat="47.87574" lon="-2.5199">
        <ele>112</ele>
        <time>2023-07-22T08:44:59.436Z</time>
      </trkpt>
      <trkpt lat="47.87574" lon="-2.5199">
        <ele>112</ele>
        <time>2023-07-22T08:45:00.436Z</time>
      </trkpt>
      <trkpt lat="47.87575" lon="-2.5199">
        <ele>112</ele>
        <time>2023-07-22T08:45:01.436Z</time>
      </trkpt>
      <trkpt lat="47.87576" lon="-2.51989">
        <ele>112</ele>
        <time>2023-07-22T08:45:02.436Z</time>
      </trkpt>
      <trkpt lat="47.87576" lon="-2.51989">
        <ele>112</ele>
        <time>2023-07-22T08:45:03.436Z</time>
      </trkpt>
      <trkpt lat="47.87577" lon="-2.51989">
        <ele>112</ele>
        <time>2023-07-22T08:45:04.436Z</time>
      </trkpt>
      <trkpt lat="47.87578" lon="-2.51988">
        <ele>112</ele>
        <time>2023-07-22T08:45:05.436Z</time>
      </trkpt>
      <trkpt lat="47.87578" lon="-2.51987">
        <ele>111</ele>
        <time>2023-07-22T08:45:06.436Z</time>
      </trkpt>
      <trkpt lat="47.87579" lon="-2.51986">
        <ele>111</ele>
        <time>2023-07-22T08:45:07.436Z</time>
      </trkpt>
      <trkpt lat="47.8758" lon="-2.51985">
        <ele>111</ele>
        <time>2023-07-22T08:45:08.436Z</time>
      </trkpt>
      <trkpt lat="47.87581" lon="-2.51984">
        <ele>111</ele>
        <time>2023-07-22T08:45:09.437Z</time>
      </trkpt>
      <trkpt lat="47.87582" lon="-2.51982">
        <ele>112</ele>
        <time>2023-07-22T08:45:10.436Z</time>
      </trkpt>
      <trkpt lat="47.87583" lon="-2.5198">
        <ele>112</ele>
        <time>2023-07-22T08:45:11.436Z</time>
      </trkpt>
      <trkpt lat="47.87584" lon="-2.51979">
        <ele>112</ele>
        <time>2023-07-22T08:45:12.437Z</time>
      </trkpt>
      <trkpt lat="47.87585" lon="-2.51977">
        <ele>113</ele>
        <time>2023-07-22T08:45:13.436Z</time>
      </trkpt>
      <trkpt lat="47.87585" lon="-2.51977">
        <ele>114</ele>
        <time>2023-07-22T08:45:14.436Z</time>
      </trkpt>
      <trkpt lat="47.87586" lon="-2.51976">
        <ele>114</ele>
        <time>2023-07-22T08:45:15.436Z</time>
      </trkpt>
      <trkpt lat="47.87588" lon="-2.51974">
        <ele>115</ele>
        <time>2023-07-22T08:45:16.436Z</time>
      </trkpt>
      <trkpt lat="47.87588" lon="-2.51973">
        <ele>115</ele>
        <time>2023-07-22T08:45:17.437Z</time>
      </trkpt>
      <trkpt lat="47.87589" lon="-2.51971">
        <ele>116</ele>
        <time>2023-07-22T08:45:18.437Z</time>
      </trkpt>
      <trkpt lat="47.87591" lon="-2.5197">
        <ele>116</ele>
        <time>2023-07-22T08:45:19.437Z</time>
      </trkpt>
      <trkpt lat="47.87592" lon="-2.51968">
        <ele>117</ele>
        <time>2023-07-22T08:45:20.437Z</time>
      </trkpt>
      <trkpt lat="47.87594" lon="-2.51966">
        <ele>118</ele>
        <time>2023-07-22T08:45:21.436Z</time>
      </trkpt>
      <trkpt lat="47.87594" lon="-2.51965">
        <ele>118</ele>
        <time>2023-07-22T08:45:22.436Z</time>
      </trkpt>
      <trkpt lat="47.87595" lon="-2.51964">
        <ele>119</ele>
        <time>2023-07-22T08:45:23.437Z</time>
      </trkpt>
      <trkpt lat="47.87595" lon="-2.51963">
        <ele>119</ele>
        <time>2023-07-22T08:45:24.436Z</time>
      </trkpt>
      <trkpt lat="47.87596" lon="-2.51962">
        <ele>120</ele>
        <time>2023-07-22T08:45:25.436Z</time>
      </trkpt>
      <trkpt lat="47.87597" lon="-2.51961">
        <ele>120</ele>
        <time>2023-07-22T08:45:26.437Z</time>
      </trkpt>
      <trkpt lat="47.87598" lon="-2.5196">
        <ele>121</ele>
        <time>2023-07-22T08:45:27.436Z</time>
      </trkpt>
      <trkpt lat="47.87598" lon="-2.51958">
        <ele>121</ele>
        <time>2023-07-22T08:45:28.436Z</time>
      </trkpt>
      <trkpt lat="47.87599" lon="-2.51957">
        <ele>122</ele>
        <time>2023-07-22T08:45:29.437Z</time>
      </trkpt>
      <trkpt lat="47.87599" lon="-2.51955">
        <ele>122</ele>
        <time>2023-07-22T08:45:30.437Z</time>
      </trkpt>
      <trkpt lat="47.87599" lon="-2.51954">
        <ele>123</ele>
        <time>2023-07-22T08:45:31.437Z</time>
      </trkpt>
      <trkpt lat="47.876" lon="-2.51953">
        <ele>123</ele>
        <time>2023-07-22T08:45:32.436Z</time>
      </trkpt>
      <trkpt lat="47.87601" lon="-2.51951">
        <ele>123</ele>
        <time>2023-07-22T08:45:33.436Z</time>
      </trkpt>
      <trkpt lat="47.87601" lon="-2.5195">
        <ele>123</ele>
        <time>2023-07-22T08:45:34.436Z</time>
      </trkpt>
      <trkpt lat="47.87602" lon="-2.51948">
        <ele>124</ele>
        <time>2023-07-22T08:45:35.436Z</time>
      </trkpt>
      <trkpt lat="47.87603" lon="-2.51947">
        <ele>124</ele>
        <time>2023-07-22T08:45:36.436Z</time>
      </trkpt>
      <trkpt lat="47.87604" lon="-2.51946">
        <ele>124</ele>
        <time>2023-07-22T08:45:37.436Z</time>
      </trkpt>
      <trkpt lat="47.87605" lon="-2.51945">
        <ele>124</ele>
        <time>2023-07-22T08:45:38.436Z</time>
      </trkpt>
      <trkpt lat="47.87605" lon="-2.51943">
        <ele>124</ele>
        <time>2023-07-22T08:45:39.436Z</time>
      </trkpt>
      <trkpt lat="47.87605" lon="-2.51941">
        <ele>124</ele>
        <time>2023-07-22T08:45:40.436Z</time>
      </trkpt>
      <trkpt lat="47.87606" lon="-2.51939">
        <ele>124</ele>
        <time>2023-07-22T08:45:41.437Z</time>
      </trkpt>
      <trkpt lat="47.87607" lon="-2.51937">
        <ele>124</ele>
        <time>2023-07-22T08:45:42.437Z</time>
      </trkpt>
      <trkpt lat="47.87608" lon="-2.51936">
        <ele>123</ele>
        <time>2023-07-22T08:45:43.437Z</time>
      </trkpt>
      <trkpt lat="47.87609" lon="-2.51935">
        <ele>123</ele>
        <time>2023-07-22T08:45:44.436Z</time>
      </trkpt>
      <trkpt lat="47.8761" lon="-2.51934">
        <ele>123</ele>
        <time>2023-07-22T08:45:45.436Z</time>
      </trkpt>
      <trkpt lat="47.8761" lon="-2.51933">
        <ele>123</ele>
        <time>2023-07-22T08:45:46.436Z</time>
      </trkpt>
      <trkpt lat="47.87611" lon="-2.51931">
        <ele>123</ele>
        <time>2023-07-22T08:45:47.436Z</time>
      </trkpt>
      <trkpt lat="47.87611" lon="-2.51929">
        <ele>123</ele>
        <time>2023-07-22T08:45:48.436Z</time>
      </trkpt>
      <trkpt lat="47.87612" lon="-2.51927">
        <ele>123</ele>
        <time>2023-07-22T08:45:49.437Z</time>
      </trkpt>
      <trkpt lat="47.87613" lon="-2.51925">
        <ele>123</ele>
        <time>2023-07-22T08:45:50.436Z</time>
      </trkpt>
      <trkpt lat="47.87613" lon="-2.51923">
        <ele>123</ele>
        <time>2023-07-22T08:45:51.436Z</time>
      </trkpt>
      <trkpt lat="47.87614" lon="-2.51921">
        <ele>122</ele>
        <time>2023-07-22T08:45:52.436Z</time>
      </trkpt>
      <trkpt lat="47.87614" lon="-2.5192">
        <ele>122</ele>
        <time>2023-07-22T08:45:53.437Z</time>
      </trkpt>
      <trkpt lat="47.87615" lon="-2.51917">
        <ele>122</ele>
        <time>2023-07-22T08:45:54.436Z</time>
      </trkpt>
      <trkpt lat="47.87616" lon="-2.51915">
        <ele>122</ele>
        <time>2023-07-22T08:45:55.436Z</time>
      </trkpt>
      <trkpt lat="47.87618" lon="-2.51914">
        <ele>122</ele>
        <time>2023-07-22T08:45:56.436Z</time>
      </trkpt>
      <trkpt lat="47.87619" lon="-2.51911">
        <ele>122</ele>
        <time>2023-07-22T08:45:57.436Z</time>
      </trkpt>
      <trkpt lat="47.87619" lon="-2.51909">
        <ele>122</ele>
        <time>2023-07-22T08:45:58.436Z</time>
      </trkpt>
      <trkpt lat="47.87621" lon="-2.51906">
        <ele>122</ele>
        <time>2023-07-22T08:45:59.436Z</time>
      </trkpt>
      <trkpt lat="47.87624" lon="-2.51903">
        <ele>122</ele>
        <time>2023-07-22T08:46:00.437Z</time>
      </trkpt>
      <trkpt lat="47.87626" lon="-2.519">
        <ele>122</ele>
        <time>2023-07-22T08:46:01.437Z</time>
      </trkpt>
      <trkpt lat="47.87627" lon="-2.51899">
        <ele>123</ele>
        <time>2023-07-22T08:46:02.436Z</time>
      </trkpt>
      <trkpt lat="47.8763" lon="-2.51897">
        <ele>124</ele>
        <time>2023-07-22T08:46:03.436Z</time>
      </trkpt>
      <trkpt lat="47.87633" lon="-2.51895">
        <ele>124</ele>
        <time>2023-07-22T08:46:04.436Z</time>
      </trkpt>
      <trkpt lat="47.87634" lon="-2.51896">
        <ele>124</ele>
        <time>2023-07-22T08:46:05.436Z</time>
      </trkpt>
      <trkpt lat="47.87635" lon="-2.51895">
        <ele>125</ele>
        <time>2023-07-22T08:46:06.437Z</time>
      </trkpt>
      <trkpt lat="47.87633" lon="-2.51895">
        <ele>125</ele>
        <time>2023-07-22T08:46:07.437Z</time>
      </trkpt>
      <trkpt lat="47.87634" lon="-2.51894">
        <ele>126</ele>
        <time>2023-07-22T08:46:08.436Z</time>
      </trkpt>
      <trkpt lat="47.87636" lon="-2.51892">
        <ele>126</ele>
        <time>2023-07-22T08:46:09.436Z</time>
      </trkpt>
      <trkpt lat="47.87636" lon="-2.5189">
        <ele>126</ele>
        <time>2023-07-22T08:46:10.436Z</time>
      </trkpt>
      <trkpt lat="47.87636" lon="-2.51889">
        <ele>126</ele>
        <time>2023-07-22T08:46:11.437Z</time>
      </trkpt>
      <trkpt lat="47.87636" lon="-2.51887">
        <ele>126</ele>
        <time>2023-07-22T08:46:12.436Z</time>
      </trkpt>
      <trkpt lat="47.87635" lon="-2.51886">
        <ele>127</ele>
        <time>2023-07-22T08:46:13.436Z</time>
      </trkpt>
      <trkpt lat="47.87636" lon="-2.51885">
        <ele>127</ele>
        <time>2023-07-22T08:46:14.437Z</time>
      </trkpt>
      <trkpt lat="47.87636" lon="-2.51884">
        <ele>127</ele>
        <time>2023-07-22T08:46:15.436Z</time>
      </trkpt>
      <trkpt lat="47.87636" lon="-2.51883">
        <ele>127</ele>
        <time>2023-07-22T08:46:16.437Z</time>
      </trkpt>
      <trkpt lat="47.87636" lon="-2.51881">
        <ele>127</ele>
        <time>2023-07-22T08:46:17.436Z</time>
      </trkpt>
      <trkpt lat="47.87636" lon="-2.5188">
        <ele>127</ele>
        <time>2023-07-22T08:46:18.437Z</time>
      </trkpt>
      <trkpt lat="47.87637" lon="-2.5188">
        <ele>127</ele>
        <time>2023-07-22T08:46:19.436Z</time>
      </trkpt>
      <trkpt lat="47.87637" lon="-2.51878">
        <ele>127</ele>
        <time>2023-07-22T08:46:20.436Z</time>
      </trkpt>
      <trkpt lat="47.87638" lon="-2.51878">
        <ele>127</ele>
        <time>2023-07-22T08:46:21.437Z</time>
      </trkpt>
      <trkpt lat="47.87639" lon="-2.51877">
        <ele>127</ele>
        <time>2023-07-22T08:46:22.437Z</time>
      </trkpt>
      <trkpt lat="47.87639" lon="-2.51876">
        <ele>127</ele>
        <time>2023-07-22T08:46:23.436Z</time>
      </trkpt>
      <trkpt lat="47.87639" lon="-2.51874">
        <ele>127</ele>
        <time>2023-07-22T08:46:24.437Z</time>
      </trkpt>
      <trkpt lat="47.87639" lon="-2.51873">
        <ele>127</ele>
        <time>2023-07-22T08:46:25.436Z</time>
      </trkpt>
      <trkpt lat="47.8764" lon="-2.51872">
        <ele>127</ele>
        <time>2023-07-22T08:46:26.436Z</time>
      </trkpt>
      <trkpt lat="47.8764" lon="-2.51871">
        <ele>127</ele>
        <time>2023-07-22T08:46:27.436Z</time>
      </trkpt>
      <trkpt lat="47.8764" lon="-2.5187">
        <ele>127</ele>
        <time>2023-07-22T08:46:28.436Z</time>
      </trkpt>
      <trkpt lat="47.8764" lon="-2.51868">
        <ele>127</ele>
        <time>2023-07-22T08:46:29.437Z</time>
      </trkpt>
      <trkpt lat="47.87641" lon="-2.51866">
        <ele>127</ele>
        <time>2023-07-22T08:46:30.436Z</time>
      </trkpt>
      <trkpt lat="47.87642" lon="-2.51865">
        <ele>127</ele>
        <time>2023-07-22T08:46:31.437Z</time>
      </trkpt>
      <trkpt lat="47.87643" lon="-2.51864">
        <ele>126</ele>
        <time>2023-07-22T08:46:32.437Z</time>
      </trkpt>
      <trkpt lat="47.87643" lon="-2.51863">
        <ele>126</ele>
        <time>2023-07-22T08:46:33.437Z</time>
      </trkpt>
      <trkpt lat="47.87643" lon="-2.51862">
        <ele>126</ele>
        <time>2023-07-22T08:46:34.437Z</time>
      </trkpt>
      <trkpt lat="47.87643" lon="-2.51861">
        <ele>125</ele>
        <time>2023-07-22T08:46:35.436Z</time>
      </trkpt>
      <trkpt lat="47.87642" lon="-2.51859">
        <ele>125</ele>
        <time>2023-07-22T08:46:36.436Z</time>
      </trkpt>
      <trkpt lat="47.87642" lon="-2.51859">
        <ele>125</ele>
        <time>2023-07-22T08:46:37.436Z</time>
      </trkpt>
      <trkpt lat="47.87643" lon="-2.51857">
        <ele>124</ele>
        <time>2023-07-22T08:46:38.437Z</time>
      </trkpt>
      <trkpt lat="47.87643" lon="-2.51855">
        <ele>124</ele>
        <time>2023-07-22T08:46:39.436Z</time>
      </trkpt>
      <trkpt lat="47.87643" lon="-2.51854">
        <ele>124</ele>
        <time>2023-07-22T08:46:40.436Z</time>
      </trkpt>
      <trkpt lat="47.87643" lon="-2.51853">
        <ele>123</ele>
        <time>2023-07-22T08:46:41.436Z</time>
      </trkpt>
      <trkpt lat="47.87644" lon="-2.51852">
        <ele>123</ele>
        <time>2023-07-22T08:46:42.437Z</time>
      </trkpt>
      <trkpt lat="47.87644" lon="-2.5185">
        <ele>123</ele>
        <time>2023-07-22T08:46:43.437Z</time>
      </trkpt>
      <trkpt lat="47.87645" lon="-2.51848">
        <ele>123</ele>
        <time>2023-07-22T08:46:44.436Z</time>
      </trkpt>
      <trkpt lat="47.87645" lon="-2.51846">
        <ele>123</ele>
        <time>2023-07-22T08:46:45.436Z</time>
      </trkpt>
      <trkpt lat="47.87646" lon="-2.51845">
        <ele>123</ele>
        <time>2023-07-22T08:46:46.437Z</time>
      </trkpt>
      <trkpt lat="47.87646" lon="-2.51843">
        <ele>123</ele>
        <time>2023-07-22T08:46:47.437Z</time>
      </trkpt>
      <trkpt lat="47.87647" lon="-2.51841">
        <ele>123</ele>
        <time>2023-07-22T08:46:48.437Z</time>
      </trkpt>
      <trkpt lat="47.87648" lon="-2.5184">
        <ele>123</ele>
        <time>2023-07-22T08:46:49.437Z</time>
      </trkpt>
      <trkpt lat="47.87649" lon="-2.51838">
        <ele>123</ele>
        <time>2023-07-22T08:46:50.436Z</time>
      </trkpt>
      <trkpt lat="47.87649" lon="-2.51837">
        <ele>122</ele>
        <time>2023-07-22T08:46:51.437Z</time>
      </trkpt>
      <trkpt lat="47.8765" lon="-2.51836">
        <ele>122</ele>
        <time>2023-07-22T08:46:52.436Z</time>
      </trkpt>
      <trkpt lat="47.8765" lon="-2.51835">
        <ele>122</ele>
        <time>2023-07-22T08:46:53.436Z</time>
      </trkpt>
      <trkpt lat="47.87651" lon="-2.51834">
        <ele>122</ele>
        <time>2023-07-22T08:46:54.437Z</time>
      </trkpt>
      <trkpt lat="47.87651" lon="-2.51833">
        <ele>122</ele>
        <time>2023-07-22T08:46:55.437Z</time>
      </trkpt>
      <trkpt lat="47.87652" lon="-2.51832">
        <ele>122</ele>
        <time>2023-07-22T08:46:56.436Z</time>
      </trkpt>
      <trkpt lat="47.87653" lon="-2.51831">
        <ele>122</ele>
        <time>2023-07-22T08:46:57.436Z</time>
      </trkpt>
      <trkpt lat="47.87654" lon="-2.5183">
        <ele>121</ele>
        <time>2023-07-22T08:46:58.437Z</time>
      </trkpt>
      <trkpt lat="47.87655" lon="-2.5183">
        <ele>121</ele>
        <time>2023-07-22T08:46:59.437Z</time>
      </trkpt>
      <trkpt lat="47.87656" lon="-2.51829">
        <ele>121</ele>
        <time>2023-07-22T08:47:00.436Z</time>
      </trkpt>
      <trkpt lat="47.87658" lon="-2.51827">
        <ele>121</ele>
        <time>2023-07-22T08:47:01.437Z</time>
      </trkpt>
      <trkpt lat="47.87659" lon="-2.51826">
        <ele>120</ele>
        <time>2023-07-22T08:47:02.436Z</time>
      </trkpt>
      <trkpt lat="47.8766" lon="-2.51826">
        <ele>120</ele>
        <time>2023-07-22T08:47:03.436Z</time>
      </trkpt>
      <trkpt lat="47.87662" lon="-2.51823">
        <ele>120</ele>
        <time>2023-07-22T08:47:04.436Z</time>
      </trkpt>
      <trkpt lat="47.87664" lon="-2.51821">
        <ele>120</ele>
        <time>2023-07-22T08:47:05.437Z</time>
      </trkpt>
      <trkpt lat="47.87668" lon="-2.5182">
        <ele>120</ele>
        <time>2023-07-22T08:47:06.436Z</time>
      </trkpt>
      <trkpt lat="47.87668" lon="-2.51818">
        <ele>120</ele>
        <time>2023-07-22T08:47:07.436Z</time>
      </trkpt>
      <trkpt lat="47.87668" lon="-2.51815">
        <ele>120</ele>
        <time>2023-07-22T08:47:08.437Z</time>
      </trkpt>
      <trkpt lat="47.87669" lon="-2.51814">
        <ele>121</ele>
        <time>2023-07-22T08:47:09.437Z</time>
      </trkpt>
      <trkpt lat="47.8767" lon="-2.51813">
        <ele>121</ele>
        <time>2023-07-22T08:47:10.436Z</time>
      </trkpt>
      <trkpt lat="47.87671" lon="-2.51813">
        <ele>122</ele>
        <time>2023-07-22T08:47:11.437Z</time>
      </trkpt>
      <trkpt lat="47.87673" lon="-2.51813">
        <ele>122</ele>
        <time>2023-07-22T08:47:12.436Z</time>
      </trkpt>
      <trkpt lat="47.87675" lon="-2.51813">
        <ele>122</ele>
        <time>2023-07-22T08:47:13.436Z</time>
      </trkpt>
      <trkpt lat="47.87677" lon="-2.51813">
        <ele>122</ele>
        <time>2023-07-22T08:47:14.436Z</time>
      </trkpt>
      <trkpt lat="47.87678" lon="-2.51813">
        <ele>122</ele>
        <time>2023-07-22T08:47:15.437Z</time>
      </trkpt>
      <trkpt lat="47.87678" lon="-2.51812">
        <ele>122</ele>
        <time>2023-07-22T08:47:16.436Z</time>
      </trkpt>
      <trkpt lat="47.87679" lon="-2.51811">
        <ele>122</ele>
        <time>2023-07-22T08:47:17.436Z</time>
      </trkpt>
      <trkpt lat="47.87678" lon="-2.51811">
        <ele>123</ele>
        <time>2023-07-22T08:47:18.436Z</time>
      </trkpt>
      <trkpt lat="47.87679" lon="-2.51811">
        <ele>123</ele>
        <time>2023-07-22T08:47:19.436Z</time>
      </trkpt>
      <trkpt lat="47.87679" lon="-2.5181">
        <ele>123</ele>
        <time>2023-07-22T08:47:20.437Z</time>
      </trkpt>
      <trkpt lat="47.87678" lon="-2.51809">
        <ele>123</ele>
        <time>2023-07-22T08:47:21.436Z</time>
      </trkpt>
      <trkpt lat="47.87679" lon="-2.51808">
        <ele>122</ele>
        <time>2023-07-22T08:47:22.436Z</time>
      </trkpt>
      <trkpt lat="47.87679" lon="-2.51807">
        <ele>122</ele>
        <time>2023-07-22T08:47:23.436Z</time>
      </trkpt>
      <trkpt lat="47.87681" lon="-2.51807">
        <ele>121</ele>
        <time>2023-07-22T08:47:24.436Z</time>
      </trkpt>
      <trkpt lat="47.87681" lon="-2.51806">
        <ele>121</ele>
        <time>2023-07-22T08:47:25.437Z</time>
      </trkpt>
      <trkpt lat="47.8768" lon="-2.51805">
        <ele>121</ele>
        <time>2023-07-22T08:47:26.436Z</time>
      </trkpt>
      <trkpt lat="47.8768" lon="-2.51804">
        <ele>120</ele>
        <time>2023-07-22T08:47:27.437Z</time>
      </trkpt>
      <trkpt lat="47.87681" lon="-2.51804">
        <ele>120</ele>
        <time>2023-07-22T08:47:28.436Z</time>
      </trkpt>
      <trkpt lat="47.87682" lon="-2.51805">
        <ele>120</ele>
        <time>2023-07-22T08:47:29.436Z</time>
      </trkpt>
      <trkpt lat="47.87683" lon="-2.51805">
        <ele>119</ele>
        <time>2023-07-22T08:47:30.436Z</time>
      </trkpt>
      <trkpt lat="47.87684" lon="-2.51805">
        <ele>119</ele>
        <time>2023-07-22T08:47:31.436Z</time>
      </trkpt>
      <trkpt lat="47.87684" lon="-2.51804">
        <ele>118</ele>
        <time>2023-07-22T08:47:32.437Z</time>
      </trkpt>
      <trkpt lat="47.87685" lon="-2.51804">
        <ele>118</ele>
        <time>2023-07-22T08:47:33.436Z</time>
      </trkpt>
      <trkpt lat="47.87685" lon="-2.51804">
        <ele>117</ele>
        <time>2023-07-22T08:47:34.436Z</time>
      </trkpt>
      <trkpt lat="47.87686" lon="-2.51804">
        <ele>117</ele>
        <time>2023-07-22T08:47:35.436Z</time>
      </trkpt>
      <trkpt lat="47.87686" lon="-2.51804">
        <ele>117</ele>
        <time>2023-07-22T08:47:36.436Z</time>
      </trkpt>
      <trkpt lat="47.87687" lon="-2.51803">
        <ele>117</ele>
        <time>2023-07-22T08:47:37.436Z</time>
      </trkpt>
      <trkpt lat="47.87688" lon="-2.51803">
        <ele>116</ele>
        <time>2023-07-22T08:47:38.436Z</time>
      </trkpt>
      <trkpt lat="47.87688" lon="-2.51802">
        <ele>116</ele>
        <time>2023-07-22T08:47:39.436Z</time>
      </trkpt>
      <trkpt lat="47.87689" lon="-2.51802">
        <ele>115</ele>
        <time>2023-07-22T08:47:40.436Z</time>
      </trkpt>
      <trkpt lat="47.87689" lon="-2.51802">
        <ele>115</ele>
        <time>2023-07-22T08:47:41.436Z</time>
      </trkpt>
      <trkpt lat="47.8769" lon="-2.51801">
        <ele>115</ele>
        <time>2023-07-22T08:47:42.436Z</time>
      </trkpt>
      <trkpt lat="47.87691" lon="-2.51801">
        <ele>115</ele>
        <time>2023-07-22T08:47:43.436Z</time>
      </trkpt>
      <trkpt lat="47.87691" lon="-2.518">
        <ele>114</ele>
        <time>2023-07-22T08:47:44.436Z</time>
      </trkpt>
      <trkpt lat="47.87692" lon="-2.51799">
        <ele>114</ele>
        <time>2023-07-22T08:47:45.436Z</time>
      </trkpt>
      <trkpt lat="47.87693" lon="-2.51799">
        <ele>114</ele>
        <time>2023-07-22T08:47:46.436Z</time>
      </trkpt>
      <trkpt lat="47.87693" lon="-2.51799">
        <ele>113</ele>
        <time>2023-07-22T08:47:47.436Z</time>
      </trkpt>
      <trkpt lat="47.87694" lon="-2.51798">
        <ele>113</ele>
        <time>2023-07-22T08:47:48.436Z</time>
      </trkpt>
      <trkpt lat="47.87695" lon="-2.51798">
        <ele>113</ele>
        <time>2023-07-22T08:47:49.436Z</time>
      </trkpt>
      <trkpt lat="47.87696" lon="-2.51797">
        <ele>113</ele>
        <time>2023-07-22T08:47:50.437Z</time>
      </trkpt>
      <trkpt lat="47.87696" lon="-2.51797">
        <ele>113</ele>
        <time>2023-07-22T08:47:51.437Z</time>
      </trkpt>
      <trkpt lat="47.87697" lon="-2.51796">
        <ele>114</ele>
        <time>2023-07-22T08:47:52.436Z</time>
      </trkpt>
      <trkpt lat="47.87697" lon="-2.51796">
        <ele>114</ele>
        <time>2023-07-22T08:47:53.436Z</time>
      </trkpt>
      <trkpt lat="47.87697" lon="-2.51795">
        <ele>115</ele>
        <time>2023-07-22T08:47:54.436Z</time>
      </trkpt>
      <trkpt lat="47.87697" lon="-2.51794">
        <ele>115</ele>
        <time>2023-07-22T08:47:55.436Z</time>
      </trkpt>
      <trkpt lat="47.87696" lon="-2.51793">
        <ele>115</ele>
        <time>2023-07-22T08:47:56.437Z</time>
      </trkpt>
      <trkpt lat="47.87696" lon="-2.51792">
        <ele>116</ele>
        <time>2023-07-22T08:47:57.436Z</time>
      </trkpt>
      <trkpt lat="47.87695" lon="-2.51791">
        <ele>116</ele>
        <time>2023-07-22T08:47:58.436Z</time>
      </trkpt>
      <trkpt lat="47.87695" lon="-2.51791">
        <ele>117</ele>
        <time>2023-07-22T08:47:59.436Z</time>
      </trkpt>
      <trkpt lat="47.87695" lon="-2.5179">
        <ele>117</ele>
        <time>2023-07-22T08:48:00.436Z</time>
      </trkpt>
      <trkpt lat="47.87695" lon="-2.51789">
        <ele>118</ele>
        <time>2023-07-22T08:48:01.436Z</time>
      </trkpt>
      <trkpt lat="47.87696" lon="-2.51792">
        <ele>130</ele>
        <time>2023-07-22T08:48:47.796Z</time>
      </trkpt>
      <trkpt lat="47.87696" lon="-2.51793">
        <ele>130</ele>
        <time>2023-07-22T08:48:48.795Z</time>
      </trkpt>
      <trkpt lat="47.87697" lon="-2.51794">
        <ele>129</ele>
        <time>2023-07-22T08:48:49.795Z</time>
      </trkpt>
      <trkpt lat="47.87698" lon="-2.51795">
        <ele>128</ele>
        <time>2023-07-22T08:48:50.796Z</time>
      </trkpt>
      <trkpt lat="47.87699" lon="-2.51795">
        <ele>127</ele>
        <time>2023-07-22T08:48:51.795Z</time>
      </trkpt>
      <trkpt lat="47.87699" lon="-2.51796">
        <ele>126</ele>
        <time>2023-07-22T08:48:52.796Z</time>
      </trkpt>
      <trkpt lat="47.877" lon="-2.51796">
        <ele>125</ele>
        <time>2023-07-22T08:48:53.796Z</time>
      </trkpt>
      <trkpt lat="47.87701" lon="-2.51798">
        <ele>125</ele>
        <time>2023-07-22T08:48:54.795Z</time>
      </trkpt>
      <trkpt lat="47.87701" lon="-2.51799">
        <ele>124</ele>
        <time>2023-07-22T08:48:55.796Z</time>
      </trkpt>
      <trkpt lat="47.87702" lon="-2.51799">
        <ele>123</ele>
        <time>2023-07-22T08:48:56.795Z</time>
      </trkpt>
      <trkpt lat="47.87702" lon="-2.518">
        <ele>122</ele>
        <time>2023-07-22T08:48:57.795Z</time>
      </trkpt>
      <trkpt lat="47.87702" lon="-2.518">
        <ele>122</ele>
        <time>2023-07-22T08:48:58.795Z</time>
      </trkpt>
      <trkpt lat="47.87705" lon="-2.51806">
        <ele>116</ele>
        <time>2023-07-22T08:49:38.422Z</time>
      </trkpt>
      <trkpt lat="47.87706" lon="-2.51807">
        <ele>115</ele>
        <time>2023-07-22T08:49:39.423Z</time>
      </trkpt>
      <trkpt lat="47.87706" lon="-2.51807">
        <ele>115</ele>
        <time>2023-07-22T08:49:40.422Z</time>
      </trkpt>
      <trkpt lat="47.87706" lon="-2.51807">
        <ele>115</ele>
        <time>2023-07-22T08:49:41.423Z</time>
      </trkpt>
      <trkpt lat="47.87706" lon="-2.51808">
        <ele>116</ele>
        <time>2023-07-22T08:49:42.422Z</time>
      </trkpt>
      <trkpt lat="47.87706" lon="-2.5181">
        <ele>117</ele>
        <time>2023-07-22T08:49:48.755Z</time>
      </trkpt>
      <trkpt lat="47.87706" lon="-2.51811">
        <ele>117</ele>
        <time>2023-07-22T08:49:49.754Z</time>
      </trkpt>
      <trkpt lat="47.87705" lon="-2.51812">
        <ele>117</ele>
        <time>2023-07-22T08:49:50.755Z</time>
      </trkpt>
      <trkpt lat="47.87705" lon="-2.51812">
        <ele>117</ele>
        <time>2023-07-22T08:49:51.754Z</time>
      </trkpt>
      <trkpt lat="47.87705" lon="-2.51813">
        <ele>116</ele>
        <time>2023-07-22T08:49:52.754Z</time>
      </trkpt>
      <trkpt lat="47.87704" lon="-2.51813">
        <ele>116</ele>
        <time>2023-07-22T08:49:53.754Z</time>
      </trkpt>
      <trkpt lat="47.87704" lon="-2.51813">
        <ele>116</ele>
        <time>2023-07-22T08:49:54.755Z</time>
      </trkpt>
      <trkpt lat="47.87703" lon="-2.51814">
        <ele>116</ele>
        <time>2023-07-22T08:49:55.754Z</time>
      </trkpt>
      <trkpt lat="47.87703" lon="-2.51815">
        <ele>116</ele>
        <time>2023-07-22T08:49:56.755Z</time>
      </trkpt>
      <trkpt lat="47.87703" lon="-2.51817">
        <ele>116</ele>
        <time>2023-07-22T08:49:57.754Z</time>
      </trkpt>
      <trkpt lat="47.87702" lon="-2.51818">
        <ele>116</ele>
        <time>2023-07-22T08:49:58.754Z</time>
      </trkpt>
      <trkpt lat="47.87702" lon="-2.51818">
        <ele>116</ele>
        <time>2023-07-22T08:49:59.755Z</time>
      </trkpt>
      <trkpt lat="47.87702" lon="-2.5182">
        <ele>116</ele>
        <time>2023-07-22T08:50:00.754Z</time>
      </trkpt>
      <trkpt lat="47.87701" lon="-2.51821">
        <ele>116</ele>
        <time>2023-07-22T08:50:01.754Z</time>
      </trkpt>
      <trkpt lat="47.87701" lon="-2.51822">
        <ele>116</ele>
        <time>2023-07-22T08:50:02.754Z</time>
      </trkpt>
      <trkpt lat="47.877" lon="-2.51824">
        <ele>116</ele>
        <time>2023-07-22T08:50:03.755Z</time>
      </trkpt>
      <trkpt lat="47.877" lon="-2.51825">
        <ele>117</ele>
        <time>2023-07-22T08:50:04.754Z</time>
      </trkpt>
      <trkpt lat="47.877" lon="-2.51827">
        <ele>117</ele>
        <time>2023-07-22T08:50:05.755Z</time>
      </trkpt>
      <trkpt lat="47.87699" lon="-2.51828">
        <ele>117</ele>
        <time>2023-07-22T08:50:06.755Z</time>
      </trkpt>
      <trkpt lat="47.87699" lon="-2.5183">
        <ele>117</ele>
        <time>2023-07-22T08:50:07.755Z</time>
      </trkpt>
      <trkpt lat="47.87699" lon="-2.51831">
        <ele>117</ele>
        <time>2023-07-22T08:50:08.754Z</time>
      </trkpt>
      <trkpt lat="47.87699" lon="-2.51833">
        <ele>117</ele>
        <time>2023-07-22T08:50:09.755Z</time>
      </trkpt>
      <trkpt lat="47.87698" lon="-2.51834">
        <ele>117</ele>
        <time>2023-07-22T08:50:10.755Z</time>
      </trkpt>
      <trkpt lat="47.87698" lon="-2.51836">
        <ele>117</ele>
        <time>2023-07-22T08:50:11.755Z</time>
      </trkpt>
      <trkpt lat="47.87698" lon="-2.51837">
        <ele>117</ele>
        <time>2023-07-22T08:50:12.754Z</time>
      </trkpt>
      <trkpt lat="47.87698" lon="-2.51838">
        <ele>117</ele>
        <time>2023-07-22T08:50:13.754Z</time>
      </trkpt>
      <trkpt lat="47.87697" lon="-2.5184">
        <ele>117</ele>
        <time>2023-07-22T08:50:14.754Z</time>
      </trkpt>
      <trkpt lat="47.87697" lon="-2.51842">
        <ele>116</ele>
        <time>2023-07-22T08:50:15.755Z</time>
      </trkpt>
      <trkpt lat="47.87697" lon="-2.51843">
        <ele>116</ele>
        <time>2023-07-22T08:50:16.755Z</time>
      </trkpt>
      <trkpt lat="47.87696" lon="-2.51845">
        <ele>116</ele>
        <time>2023-07-22T08:50:17.754Z</time>
      </trkpt>
      <trkpt lat="47.87696" lon="-2.51846">
        <ele>116</ele>
        <time>2023-07-22T08:50:18.755Z</time>
      </trkpt>
      <trkpt lat="47.87696" lon="-2.51848">
        <ele>116</ele>
        <time>2023-07-22T08:50:19.754Z</time>
      </trkpt>
      <trkpt lat="47.87696" lon="-2.51849">
        <ele>116</ele>
        <time>2023-07-22T08:50:20.755Z</time>
      </trkpt>
      <trkpt lat="47.87696" lon="-2.51851">
        <ele>116</ele>
        <time>2023-07-22T08:50:21.754Z</time>
      </trkpt>
      <trkpt lat="47.87695" lon="-2.51853">
        <ele>116</ele>
        <time>2023-07-22T08:50:22.755Z</time>
      </trkpt>
      <trkpt lat="47.87695" lon="-2.51854">
        <ele>116</ele>
        <time>2023-07-22T08:50:23.754Z</time>
      </trkpt>
      <trkpt lat="47.87695" lon="-2.51856">
        <ele>116</ele>
        <time>2023-07-22T08:50:24.754Z</time>
      </trkpt>
      <trkpt lat="47.87694" lon="-2.51857">
        <ele>116</ele>
        <time>2023-07-22T08:50:25.754Z</time>
      </trkpt>
      <trkpt lat="47.87693" lon="-2.51859">
        <ele>116</ele>
        <time>2023-07-22T08:50:26.755Z</time>
      </trkpt>
      <trkpt lat="47.87693" lon="-2.51861">
        <ele>115</ele>
        <time>2023-07-22T08:50:27.754Z</time>
      </trkpt>
      <trkpt lat="47.87692" lon="-2.51862">
        <ele>115</ele>
        <time>2023-07-22T08:50:28.755Z</time>
      </trkpt>
      <trkpt lat="47.87691" lon="-2.51864">
        <ele>115</ele>
        <time>2023-07-22T08:50:29.754Z</time>
      </trkpt>
      <trkpt lat="47.87691" lon="-2.51865">
        <ele>114</ele>
        <time>2023-07-22T08:50:30.755Z</time>
      </trkpt>
      <trkpt lat="47.8769" lon="-2.51867">
        <ele>113</ele>
        <time>2023-07-22T08:50:31.755Z</time>
      </trkpt>
      <trkpt lat="47.8769" lon="-2.51868">
        <ele>113</ele>
        <time>2023-07-22T08:50:32.754Z</time>
      </trkpt>
      <trkpt lat="47.8769" lon="-2.5187">
        <ele>113</ele>
        <time>2023-07-22T08:50:33.754Z</time>
      </trkpt>
      <trkpt lat="47.8769" lon="-2.51871">
        <ele>113</ele>
        <time>2023-07-22T08:50:34.755Z</time>
      </trkpt>
      <trkpt lat="47.87689" lon="-2.51872">
        <ele>113</ele>
        <time>2023-07-22T08:50:35.754Z</time>
      </trkpt>
      <trkpt lat="47.87689" lon="-2.51874">
        <ele>113</ele>
        <time>2023-07-22T08:50:36.754Z</time>
      </trkpt>
      <trkpt lat="47.87688" lon="-2.51875">
        <ele>113</ele>
        <time>2023-07-22T08:50:37.755Z</time>
      </trkpt>
      <trkpt lat="47.87688" lon="-2.51877">
        <ele>112</ele>
        <time>2023-07-22T08:50:38.754Z</time>
      </trkpt>
      <trkpt lat="47.87687" lon="-2.51879">
        <ele>112</ele>
        <time>2023-07-22T08:50:39.754Z</time>
      </trkpt>
      <trkpt lat="47.87686" lon="-2.51881">
        <ele>111</ele>
        <time>2023-07-22T08:50:40.754Z</time>
      </trkpt>
      <trkpt lat="47.87686" lon="-2.51882">
        <ele>111</ele>
        <time>2023-07-22T08:50:41.754Z</time>
      </trkpt>
      <trkpt lat="47.87685" lon="-2.51884">
        <ele>111</ele>
        <time>2023-07-22T08:50:42.754Z</time>
      </trkpt>
      <trkpt lat="47.87684" lon="-2.51886">
        <ele>111</ele>
        <time>2023-07-22T08:50:43.755Z</time>
      </trkpt>
      <trkpt lat="47.87683" lon="-2.51887">
        <ele>111</ele>
        <time>2023-07-22T08:50:44.755Z</time>
      </trkpt>
      <trkpt lat="47.87683" lon="-2.51889">
        <ele>111</ele>
        <time>2023-07-22T08:50:45.754Z</time>
      </trkpt>
      <trkpt lat="47.87682" lon="-2.5189">
        <ele>111</ele>
        <time>2023-07-22T08:50:46.754Z</time>
      </trkpt>
      <trkpt lat="47.87682" lon="-2.51892">
        <ele>111</ele>
        <time>2023-07-22T08:50:47.754Z</time>
      </trkpt>
      <trkpt lat="47.87681" lon="-2.51893">
        <ele>112</ele>
        <time>2023-07-22T08:50:48.755Z</time>
      </trkpt>
      <trkpt lat="47.87681" lon="-2.51895">
        <ele>112</ele>
        <time>2023-07-22T08:50:49.754Z</time>
      </trkpt>
      <trkpt lat="47.8768" lon="-2.51896">
        <ele>113</ele>
        <time>2023-07-22T08:50:50.755Z</time>
      </trkpt>
      <trkpt lat="47.8768" lon="-2.51897">
        <ele>114</ele>
        <time>2023-07-22T08:50:51.755Z</time>
      </trkpt>
      <trkpt lat="47.8768" lon="-2.51899">
        <ele>114</ele>
        <time>2023-07-22T08:50:52.754Z</time>
      </trkpt>
      <trkpt lat="47.87679" lon="-2.519">
        <ele>114</ele>
        <time>2023-07-22T08:50:53.755Z</time>
      </trkpt>
      <trkpt lat="47.87678" lon="-2.51902">
        <ele>115</ele>
        <time>2023-07-22T08:50:54.754Z</time>
      </trkpt>
      <trkpt lat="47.87677" lon="-2.51903">
        <ele>115</ele>
        <time>2023-07-22T08:50:55.755Z</time>
      </trkpt>
      <trkpt lat="47.87676" lon="-2.51905">
        <ele>115</ele>
        <time>2023-07-22T08:50:56.754Z</time>
      </trkpt>
      <trkpt lat="47.87676" lon="-2.51907">
        <ele>115</ele>
        <time>2023-07-22T08:50:57.754Z</time>
      </trkpt>
      <trkpt lat="47.87675" lon="-2.51909">
        <ele>115</ele>
        <time>2023-07-22T08:50:58.754Z</time>
      </trkpt>
      <trkpt lat="47.87675" lon="-2.5191">
        <ele>115</ele>
        <time>2023-07-22T08:50:59.754Z</time>
      </trkpt>
      <trkpt lat="47.87674" lon="-2.51911">
        <ele>115</ele>
        <time>2023-07-22T08:51:00.754Z</time>
      </trkpt>
      <trkpt lat="47.87674" lon="-2.51912">
        <ele>115</ele>
        <time>2023-07-22T08:51:01.755Z</time>
      </trkpt>
      <trkpt lat="47.87673" lon="-2.51913">
        <ele>115</ele>
        <time>2023-07-22T08:51:02.754Z</time>
      </trkpt>
      <trkpt lat="47.87672" lon="-2.51914">
        <ele>116</ele>
        <time>2023-07-22T08:51:03.754Z</time>
      </trkpt>
      <trkpt lat="47.87671" lon="-2.51915">
        <ele>116</ele>
        <time>2023-07-22T08:51:04.754Z</time>
      </trkpt>
      <trkpt lat="47.87671" lon="-2.51916">
        <ele>116</ele>
        <time>2023-07-22T08:51:05.754Z</time>
      </trkpt>
      <trkpt lat="47.8767" lon="-2.51917">
        <ele>116</ele>
        <time>2023-07-22T08:51:06.755Z</time>
      </trkpt>
      <trkpt lat="47.87669" lon="-2.51918">
        <ele>116</ele>
        <time>2023-07-22T08:51:07.755Z</time>
      </trkpt>
      <trkpt lat="47.87668" lon="-2.5192">
        <ele>116</ele>
        <time>2023-07-22T08:51:08.755Z</time>
      </trkpt>
      <trkpt lat="47.87668" lon="-2.51921">
        <ele>116</ele>
        <time>2023-07-22T08:51:09.755Z</time>
      </trkpt>
      <trkpt lat="47.87667" lon="-2.51922">
        <ele>116</ele>
        <time>2023-07-22T08:51:10.754Z</time>
      </trkpt>
      <trkpt lat="47.87666" lon="-2.51923">
        <ele>116</ele>
        <time>2023-07-22T08:51:11.755Z</time>
      </trkpt>
      <trkpt lat="47.87666" lon="-2.51925">
        <ele>116</ele>
        <time>2023-07-22T08:51:12.754Z</time>
      </trkpt>
      <trkpt lat="47.87665" lon="-2.51926">
        <ele>116</ele>
        <time>2023-07-22T08:51:13.754Z</time>
      </trkpt>
      <trkpt lat="47.87664" lon="-2.51928">
        <ele>115</ele>
        <time>2023-07-22T08:51:14.754Z</time>
      </trkpt>
      <trkpt lat="47.87663" lon="-2.5193">
        <ele>115</ele>
        <time>2023-07-22T08:51:15.754Z</time>
      </trkpt>
      <trkpt lat="47.87662" lon="-2.51931">
        <ele>115</ele>
        <time>2023-07-22T08:51:16.754Z</time>
      </trkpt>
      <trkpt lat="47.87661" lon="-2.51933">
        <ele>115</ele>
        <time>2023-07-22T08:51:17.754Z</time>
      </trkpt>
      <trkpt lat="47.8766" lon="-2.51934">
        <ele>115</ele>
        <time>2023-07-22T08:51:18.754Z</time>
      </trkpt>
      <trkpt lat="47.8766" lon="-2.51936">
        <ele>115</ele>
        <time>2023-07-22T08:51:19.754Z</time>
      </trkpt>
      <trkpt lat="47.87659" lon="-2.51937">
        <ele>115</ele>
        <time>2023-07-22T08:51:20.754Z</time>
      </trkpt>
      <trkpt lat="47.87659" lon="-2.51939">
        <ele>115</ele>
        <time>2023-07-22T08:51:21.755Z</time>
      </trkpt>
      <trkpt lat="47.87659" lon="-2.5194">
        <ele>115</ele>
        <time>2023-07-22T08:51:22.755Z</time>
      </trkpt>
      <trkpt lat="47.87658" lon="-2.51942">
        <ele>115</ele>
        <time>2023-07-22T08:51:23.755Z</time>
      </trkpt>
      <trkpt lat="47.87657" lon="-2.51943">
        <ele>115</ele>
        <time>2023-07-22T08:51:24.754Z</time>
      </trkpt>
      <trkpt lat="47.87657" lon="-2.51945">
        <ele>115</ele>
        <time>2023-07-22T08:51:25.754Z</time>
      </trkpt>
      <trkpt lat="47.87657" lon="-2.51946">
        <ele>115</ele>
        <time>2023-07-22T08:51:26.755Z</time>
      </trkpt>
      <trkpt lat="47.87656" lon="-2.51948">
        <ele>115</ele>
        <time>2023-07-22T08:51:27.755Z</time>
      </trkpt>
      <trkpt lat="47.87655" lon="-2.5195">
        <ele>115</ele>
        <time>2023-07-22T08:51:28.754Z</time>
      </trkpt>
      <trkpt lat="47.87655" lon="-2.51951">
        <ele>115</ele>
        <time>2023-07-22T08:51:29.754Z</time>
      </trkpt>
      <trkpt lat="47.87655" lon="-2.51953">
        <ele>115</ele>
        <time>2023-07-22T08:51:30.754Z</time>
      </trkpt>
      <trkpt lat="47.87654" lon="-2.51955">
        <ele>115</ele>
        <time>2023-07-22T08:51:31.754Z</time>
      </trkpt>
      <trkpt lat="47.87654" lon="-2.51957">
        <ele>115</ele>
        <time>2023-07-22T08:51:32.755Z</time>
      </trkpt>
      <trkpt lat="47.87653" lon="-2.51958">
        <ele>116</ele>
        <time>2023-07-22T08:51:33.754Z</time>
      </trkpt>
      <trkpt lat="47.87653" lon="-2.5196">
        <ele>116</ele>
        <time>2023-07-22T08:51:34.754Z</time>
      </trkpt>
      <trkpt lat="47.87653" lon="-2.51961">
        <ele>116</ele>
        <time>2023-07-22T08:51:35.754Z</time>
      </trkpt>
      <trkpt lat="47.87653" lon="-2.51963">
        <ele>117</ele>
        <time>2023-07-22T08:51:36.754Z</time>
      </trkpt>
      <trkpt lat="47.87652" lon="-2.51965">
        <ele>117</ele>
        <time>2023-07-22T08:51:37.755Z</time>
      </trkpt>
      <trkpt lat="47.87652" lon="-2.51966">
        <ele>118</ele>
        <time>2023-07-22T08:51:38.754Z</time>
      </trkpt>
      <trkpt lat="47.87652" lon="-2.51968">
        <ele>118</ele>
        <time>2023-07-22T08:51:39.755Z</time>
      </trkpt>
      <trkpt lat="47.87651" lon="-2.5197">
        <ele>119</ele>
        <time>2023-07-22T08:51:40.754Z</time>
      </trkpt>
      <trkpt lat="47.87651" lon="-2.51971">
        <ele>120</ele>
        <time>2023-07-22T08:51:41.754Z</time>
      </trkpt>
      <trkpt lat="47.87651" lon="-2.51973">
        <ele>120</ele>
        <time>2023-07-22T08:51:42.755Z</time>
      </trkpt>
      <trkpt lat="47.87651" lon="-2.51974">
        <ele>121</ele>
        <time>2023-07-22T08:51:43.755Z</time>
      </trkpt>
      <trkpt lat="47.8765" lon="-2.51976">
        <ele>121</ele>
        <time>2023-07-22T08:51:44.755Z</time>
      </trkpt>
      <trkpt lat="47.8765" lon="-2.51978">
        <ele>122</ele>
        <time>2023-07-22T08:51:45.754Z</time>
      </trkpt>
      <trkpt lat="47.8765" lon="-2.5198">
        <ele>122</ele>
        <time>2023-07-22T08:51:46.755Z</time>
      </trkpt>
      <trkpt lat="47.8765" lon="-2.51981">
        <ele>123</ele>
        <time>2023-07-22T08:51:47.755Z</time>
      </trkpt>
      <trkpt lat="47.8765" lon="-2.51983">
        <ele>123</ele>
        <time>2023-07-22T08:51:48.755Z</time>
      </trkpt>
      <trkpt lat="47.8765" lon="-2.51984">
        <ele>123</ele>
        <time>2023-07-22T08:51:49.754Z</time>
      </trkpt>
      <trkpt lat="47.8765" lon="-2.51985">
        <ele>124</ele>
        <time>2023-07-22T08:51:50.755Z</time>
      </trkpt>
      <trkpt lat="47.8765" lon="-2.51987">
        <ele>124</ele>
        <time>2023-07-22T08:51:51.754Z</time>
      </trkpt>
      <trkpt lat="47.87649" lon="-2.51989">
        <ele>125</ele>
        <time>2023-07-22T08:51:52.755Z</time>
      </trkpt>
      <trkpt lat="47.87649" lon="-2.5199">
        <ele>125</ele>
        <time>2023-07-22T08:51:53.754Z</time>
      </trkpt>
      <trkpt lat="47.87648" lon="-2.51992">
        <ele>125</ele>
        <time>2023-07-22T08:51:54.754Z</time>
      </trkpt>
      <trkpt lat="47.87648" lon="-2.51994">
        <ele>125</ele>
        <time>2023-07-22T08:51:55.754Z</time>
      </trkpt>
      <trkpt lat="47.87648" lon="-2.51996">
        <ele>125</ele>
        <time>2023-07-22T08:51:56.754Z</time>
      </trkpt>
      <trkpt lat="47.87648" lon="-2.51997">
        <ele>125</ele>
        <time>2023-07-22T08:51:57.754Z</time>
      </trkpt>
      <trkpt lat="47.87648" lon="-2.51999">
        <ele>125</ele>
        <time>2023-07-22T08:51:58.754Z</time>
      </trkpt>
      <trkpt lat="47.87648" lon="-2.52001">
        <ele>124</ele>
        <time>2023-07-22T08:51:59.754Z</time>
      </trkpt>
      <trkpt lat="47.87649" lon="-2.52003">
        <ele>124</ele>
        <time>2023-07-22T08:52:00.754Z</time>
      </trkpt>
      <trkpt lat="47.87649" lon="-2.52005">
        <ele>124</ele>
        <time>2023-07-22T08:52:01.755Z</time>
      </trkpt>
      <trkpt lat="47.87649" lon="-2.52006">
        <ele>124</ele>
        <time>2023-07-22T08:52:02.754Z</time>
      </trkpt>
      <trkpt lat="47.87649" lon="-2.52008">
        <ele>125</ele>
        <time>2023-07-22T08:52:03.754Z</time>
      </trkpt>
      <trkpt lat="47.87649" lon="-2.5201">
        <ele>125</ele>
        <time>2023-07-22T08:52:04.754Z</time>
      </trkpt>
      <trkpt lat="47.87649" lon="-2.52011">
        <ele>125</ele>
        <time>2023-07-22T08:52:05.755Z</time>
      </trkpt>
      <trkpt lat="47.8765" lon="-2.52013">
        <ele>125</ele>
        <time>2023-07-22T08:52:06.755Z</time>
      </trkpt>
      <trkpt lat="47.8765" lon="-2.52014">
        <ele>125</ele>
        <time>2023-07-22T08:52:07.755Z</time>
      </trkpt>
      <trkpt lat="47.8765" lon="-2.52016">
        <ele>125</ele>
        <time>2023-07-22T08:52:08.755Z</time>
      </trkpt>
      <trkpt lat="47.8765" lon="-2.52018">
        <ele>125</ele>
        <time>2023-07-22T08:52:09.755Z</time>
      </trkpt>
      <trkpt lat="47.8765" lon="-2.52019">
        <ele>124</ele>
        <time>2023-07-22T08:52:10.754Z</time>
      </trkpt>
      <trkpt lat="47.8765" lon="-2.52021">
        <ele>124</ele>
        <time>2023-07-22T08:52:11.755Z</time>
      </trkpt>
      <trkpt lat="47.8765" lon="-2.52022">
        <ele>124</ele>
        <time>2023-07-22T08:52:12.754Z</time>
      </trkpt>
      <trkpt lat="47.8765" lon="-2.52024">
        <ele>124</ele>
        <time>2023-07-22T08:52:13.755Z</time>
      </trkpt>
      <trkpt lat="47.8765" lon="-2.52026">
        <ele>123</ele>
        <time>2023-07-22T08:52:14.754Z</time>
      </trkpt>
      <trkpt lat="47.8765" lon="-2.52027">
        <ele>123</ele>
        <time>2023-07-22T08:52:15.755Z</time>
      </trkpt>
      <trkpt lat="47.8765" lon="-2.52028">
        <ele>123</ele>
        <time>2023-07-22T08:52:16.754Z</time>
      </trkpt>
      <trkpt lat="47.8765" lon="-2.52029">
        <ele>124</ele>
        <time>2023-07-22T08:52:17.754Z</time>
      </trkpt>
      <trkpt lat="47.87649" lon="-2.52031">
        <ele>124</ele>
        <time>2023-07-22T08:52:18.754Z</time>
      </trkpt>
      <trkpt lat="47.87649" lon="-2.52033">
        <ele>124</ele>
        <time>2023-07-22T08:52:19.755Z</time>
      </trkpt>
      <trkpt lat="47.87649" lon="-2.52035">
        <ele>125</ele>
        <time>2023-07-22T08:52:20.755Z</time>
      </trkpt>
      <trkpt lat="47.87649" lon="-2.52036">
        <ele>125</ele>
        <time>2023-07-22T08:52:21.754Z</time>
      </trkpt>
      <trkpt lat="47.87648" lon="-2.52037">
        <ele>125</ele>
        <time>2023-07-22T08:52:22.754Z</time>
      </trkpt>
      <trkpt lat="47.87648" lon="-2.52039">
        <ele>125</ele>
        <time>2023-07-22T08:52:23.754Z</time>
      </trkpt>
      <trkpt lat="47.87648" lon="-2.5204">
        <ele>125</ele>
        <time>2023-07-22T08:52:24.754Z</time>
      </trkpt>
      <trkpt lat="47.87648" lon="-2.52041">
        <ele>125</ele>
        <time>2023-07-22T08:52:25.754Z</time>
      </trkpt>
      <trkpt lat="47.87649" lon="-2.52043">
        <ele>124</ele>
        <time>2023-07-22T08:52:26.755Z</time>
      </trkpt>
      <trkpt lat="47.87649" lon="-2.52044">
        <ele>124</ele>
        <time>2023-07-22T08:52:27.754Z</time>
      </trkpt>
      <trkpt lat="47.87649" lon="-2.52045">
        <ele>123</ele>
        <time>2023-07-22T08:52:28.754Z</time>
      </trkpt>
      <trkpt lat="47.87649" lon="-2.52047">
        <ele>123</ele>
        <time>2023-07-22T08:52:29.755Z</time>
      </trkpt>
      <trkpt lat="47.87649" lon="-2.52048">
        <ele>123</ele>
        <time>2023-07-22T08:52:30.755Z</time>
      </trkpt>
      <trkpt lat="47.87649" lon="-2.5205">
        <ele>123</ele>
        <time>2023-07-22T08:52:31.755Z</time>
      </trkpt>
      <trkpt lat="47.87649" lon="-2.52052">
        <ele>123</ele>
        <time>2023-07-22T08:52:32.755Z</time>
      </trkpt>
      <trkpt lat="47.87648" lon="-2.52053">
        <ele>123</ele>
        <time>2023-07-22T08:52:33.755Z</time>
      </trkpt>
      <trkpt lat="47.87648" lon="-2.52054">
        <ele>124</ele>
        <time>2023-07-22T08:52:34.754Z</time>
      </trkpt>
      <trkpt lat="47.87648" lon="-2.52056">
        <ele>124</ele>
        <time>2023-07-22T08:52:35.755Z</time>
      </trkpt>
      <trkpt lat="47.87648" lon="-2.52058">
        <ele>124</ele>
        <time>2023-07-22T08:52:36.754Z</time>
      </trkpt>
      <trkpt lat="47.87648" lon="-2.52059">
        <ele>124</ele>
        <time>2023-07-22T08:52:37.755Z</time>
      </trkpt>
      <trkpt lat="47.87648" lon="-2.5206">
        <ele>124</ele>
        <time>2023-07-22T08:52:38.754Z</time>
      </trkpt>
      <trkpt lat="47.87648" lon="-2.52062">
        <ele>124</ele>
        <time>2023-07-22T08:52:39.755Z</time>
      </trkpt>
      <trkpt lat="47.87648" lon="-2.52064">
        <ele>125</ele>
        <time>2023-07-22T08:52:40.754Z</time>
      </trkpt>
      <trkpt lat="47.87649" lon="-2.52065">
        <ele>125</ele>
        <time>2023-07-22T08:52:41.754Z</time>
      </trkpt>
      <trkpt lat="47.87649" lon="-2.52066">
        <ele>125</ele>
        <time>2023-07-22T08:52:42.755Z</time>
      </trkpt>
      <trkpt lat="47.87648" lon="-2.52067">
        <ele>125</ele>
        <time>2023-07-22T08:52:43.755Z</time>
      </trkpt>
      <trkpt lat="47.87648" lon="-2.52068">
        <ele>126</ele>
        <time>2023-07-22T08:52:44.754Z</time>
      </trkpt>
      <trkpt lat="47.87648" lon="-2.52069">
        <ele>126</ele>
        <time>2023-07-22T08:52:45.754Z</time>
      </trkpt>
      <trkpt lat="47.87648" lon="-2.52069">
        <ele>126</ele>
        <time>2023-07-22T08:52:46.754Z</time>
      </trkpt>
      <trkpt lat="47.87648" lon="-2.5207">
        <ele>126</ele>
        <time>2023-07-22T08:52:47.754Z</time>
      </trkpt>
      <trkpt lat="47.87648" lon="-2.5207">
        <ele>126</ele>
        <time>2023-07-22T08:52:48.755Z</time>
      </trkpt>
      <trkpt lat="47.87648" lon="-2.5207">
        <ele>126</ele>
        <time>2023-07-22T08:52:49.754Z</time>
      </trkpt>
      <trkpt lat="47.87649" lon="-2.5207">
        <ele>126</ele>
        <time>2023-07-22T08:52:50.754Z</time>
      </trkpt>
      <trkpt lat="47.87649" lon="-2.5207">
        <ele>126</ele>
        <time>2023-07-22T08:52:51.754Z</time>
      </trkpt>
      <trkpt lat="47.87649" lon="-2.52069">
        <ele>128</ele>
        <time>2023-07-22T08:53:02.072Z</time>
      </trkpt>
      <trkpt lat="47.87649" lon="-2.52069">
        <ele>128</ele>
        <time>2023-07-22T08:53:03.073Z</time>
      </trkpt>
      <trkpt lat="47.87649" lon="-2.52069">
        <ele>128</ele>
        <time>2023-07-22T08:53:04.072Z</time>
      </trkpt>
      <trkpt lat="47.87649" lon="-2.52069">
        <ele>128</ele>
        <time>2023-07-22T08:53:05.072Z</time>
      </trkpt>
      <trkpt lat="47.87649" lon="-2.52069">
        <ele>128</ele>
        <time>2023-07-22T08:53:06.072Z</time>
      </trkpt>
      <trkpt lat="47.87649" lon="-2.52069">
        <ele>128</ele>
        <time>2023-07-22T08:53:07.072Z</time>
      </trkpt>
      <trkpt lat="47.87649" lon="-2.52069">
        <ele>128</ele>
        <time>2023-07-22T08:53:08.072Z</time>
      </trkpt>
      <trkpt lat="47.87649" lon="-2.5207">
        <ele>129</ele>
        <time>2023-07-22T08:53:09.073Z</time>
      </trkpt>
      <trkpt lat="47.87649" lon="-2.5207">
        <ele>129</ele>
        <time>2023-07-22T08:53:10.073Z</time>
      </trkpt>
      <trkpt lat="47.87649" lon="-2.5207">
        <ele>130</ele>
        <time>2023-07-22T08:53:11.073Z</time>
      </trkpt>
      <trkpt lat="47.87649" lon="-2.5207">
        <ele>130</ele>
        <time>2023-07-22T08:53:12.072Z</time>
      </trkpt>
      <trkpt lat="47.87649" lon="-2.5207">
        <ele>130</ele>
        <time>2023-07-22T08:53:13.073Z</time>
      </trkpt>
      <trkpt lat="47.87649" lon="-2.5207">
        <ele>131</ele>
        <time>2023-07-22T08:53:14.073Z</time>
      </trkpt>
      <trkpt lat="47.87649" lon="-2.5207">
        <ele>131</ele>
        <time>2023-07-22T08:53:15.073Z</time>
      </trkpt>
      <trkpt lat="47.87649" lon="-2.5207">
        <ele>131</ele>
        <time>2023-07-22T08:53:16.073Z</time>
      </trkpt>
      <trkpt lat="47.87649" lon="-2.52071">
        <ele>131</ele>
        <time>2023-07-22T08:53:17.072Z</time>
      </trkpt>
      <trkpt lat="47.87649" lon="-2.52071">
        <ele>132</ele>
        <time>2023-07-22T08:53:18.073Z</time>
      </trkpt>
      <trkpt lat="47.87648" lon="-2.52072">
        <ele>132</ele>
        <time>2023-07-22T08:53:19.072Z</time>
      </trkpt>
      <trkpt lat="47.87648" lon="-2.52072">
        <ele>133</ele>
        <time>2023-07-22T08:53:20.072Z</time>
      </trkpt>
      <trkpt lat="47.87649" lon="-2.52073">
        <ele>133</ele>
        <time>2023-07-22T08:53:21.072Z</time>
      </trkpt>
      <trkpt lat="47.87649" lon="-2.52073">
        <ele>134</ele>
        <time>2023-07-22T08:53:22.073Z</time>
      </trkpt>
      <trkpt lat="47.87649" lon="-2.52073">
        <ele>134</ele>
        <time>2023-07-22T08:53:23.073Z</time>
      </trkpt>
      <trkpt lat="47.87649" lon="-2.52073">
        <ele>134</ele>
        <time>2023-07-22T08:53:24.073Z</time>
      </trkpt>
      <trkpt lat="47.87649" lon="-2.52073">
        <ele>135</ele>
        <time>2023-07-22T08:53:25.072Z</time>
      </trkpt>
      <trkpt lat="47.87648" lon="-2.52073">
        <ele>135</ele>
        <time>2023-07-22T08:53:26.073Z</time>
      </trkpt>
      <trkpt lat="47.87648" lon="-2.52073">
        <ele>134</ele>
        <time>2023-07-22T08:53:27.072Z</time>
      </trkpt>
      <trkpt lat="47.87648" lon="-2.52074">
        <ele>135</ele>
        <time>2023-07-22T08:53:28.073Z</time>
      </trkpt>
      <trkpt lat="47.87648" lon="-2.52074">
        <ele>135</ele>
        <time>2023-07-22T08:53:29.072Z</time>
      </trkpt>
      <trkpt lat="47.87648" lon="-2.52075">
        <ele>135</ele>
        <time>2023-07-22T08:53:30.073Z</time>
      </trkpt>
      <trkpt lat="47.87648" lon="-2.52077">
        <ele>135</ele>
        <time>2023-07-22T08:53:31.073Z</time>
      </trkpt>
      <trkpt lat="47.87647" lon="-2.52077">
        <ele>134</ele>
        <time>2023-07-22T08:53:32.072Z</time>
      </trkpt>
      <trkpt lat="47.87647" lon="-2.52077">
        <ele>134</ele>
        <time>2023-07-22T08:53:33.072Z</time>
      </trkpt>
      <trkpt lat="47.87646" lon="-2.52078">
        <ele>121</ele>
        <time>2023-07-22T08:53:55.318Z</time>
      </trkpt>
      <trkpt lat="47.87646" lon="-2.52078">
        <ele>121</ele>
        <time>2023-07-22T08:53:56.319Z</time>
      </trkpt>
      <trkpt lat="47.87646" lon="-2.52078">
        <ele>121</ele>
        <time>2023-07-22T08:53:57.318Z</time>
      </trkpt>
      <trkpt lat="47.87646" lon="-2.52082">
        <ele>123</ele>
        <time>2023-07-22T08:54:32.727Z</time>
      </trkpt>
      <trkpt lat="47.87646" lon="-2.52084">
        <ele>123</ele>
        <time>2023-07-22T08:54:33.727Z</time>
      </trkpt>
      <trkpt lat="47.87645" lon="-2.52085">
        <ele>123</ele>
        <time>2023-07-22T08:54:34.727Z</time>
      </trkpt>
      <trkpt lat="47.87645" lon="-2.52086">
        <ele>123</ele>
        <time>2023-07-22T08:54:35.727Z</time>
      </trkpt>
      <trkpt lat="47.87645" lon="-2.52087">
        <ele>123</ele>
        <time>2023-07-22T08:54:36.728Z</time>
      </trkpt>
      <trkpt lat="47.87645" lon="-2.52088">
        <ele>124</ele>
        <time>2023-07-22T08:54:37.728Z</time>
      </trkpt>
      <trkpt lat="47.87645" lon="-2.52089">
        <ele>124</ele>
        <time>2023-07-22T08:54:38.727Z</time>
      </trkpt>
      <trkpt lat="47.87645" lon="-2.5209">
        <ele>125</ele>
        <time>2023-07-22T08:54:39.727Z</time>
      </trkpt>
      <trkpt lat="47.87645" lon="-2.5209">
        <ele>125</ele>
        <time>2023-07-22T08:54:40.728Z</time>
      </trkpt>
      <trkpt lat="47.87645" lon="-2.52091">
        <ele>126</ele>
        <time>2023-07-22T08:54:41.727Z</time>
      </trkpt>
      <trkpt lat="47.87645" lon="-2.52091">
        <ele>126</ele>
        <time>2023-07-22T08:54:42.728Z</time>
      </trkpt>
      <trkpt lat="47.87645" lon="-2.52091">
        <ele>127</ele>
        <time>2023-07-22T08:54:43.728Z</time>
      </trkpt>
      <trkpt lat="47.87641" lon="-2.5209">
        <ele>129</ele>
        <time>2023-07-22T08:54:50.776Z</time>
      </trkpt>
      <trkpt lat="47.87641" lon="-2.5209">
        <ele>129</ele>
        <time>2023-07-22T08:54:51.776Z</time>
      </trkpt>
      <trkpt lat="47.8764" lon="-2.5209">
        <ele>128</ele>
        <time>2023-07-22T08:54:52.776Z</time>
      </trkpt>
      <trkpt lat="47.87639" lon="-2.5209">
        <ele>128</ele>
        <time>2023-07-22T08:54:53.777Z</time>
      </trkpt>
      <trkpt lat="47.87638" lon="-2.5209">
        <ele>128</ele>
        <time>2023-07-22T08:54:54.776Z</time>
      </trkpt>
      <trkpt lat="47.87637" lon="-2.52089">
        <ele>128</ele>
        <time>2023-07-22T08:54:55.776Z</time>
      </trkpt>
      <trkpt lat="47.87636" lon="-2.52088">
        <ele>129</ele>
        <time>2023-07-22T08:54:56.776Z</time>
      </trkpt>
      <trkpt lat="47.87635" lon="-2.52088">
        <ele>129</ele>
        <time>2023-07-22T08:54:57.776Z</time>
      </trkpt>
      <trkpt lat="47.87634" lon="-2.52088">
        <ele>130</ele>
        <time>2023-07-22T08:54:58.776Z</time>
      </trkpt>
      <trkpt lat="47.87633" lon="-2.52088">
        <ele>130</ele>
        <time>2023-07-22T08:54:59.776Z</time>
      </trkpt>
      <trkpt lat="47.87632" lon="-2.52087">
        <ele>130</ele>
        <time>2023-07-22T08:55:00.776Z</time>
      </trkpt>
      <trkpt lat="47.87631" lon="-2.52087">
        <ele>130</ele>
        <time>2023-07-22T08:55:01.777Z</time>
      </trkpt>
      <trkpt lat="47.8763" lon="-2.52087">
        <ele>130</ele>
        <time>2023-07-22T08:55:02.777Z</time>
      </trkpt>
      <trkpt lat="47.87629" lon="-2.52086">
        <ele>130</ele>
        <time>2023-07-22T08:55:03.777Z</time>
      </trkpt>
      <trkpt lat="47.87628" lon="-2.52085">
        <ele>130</ele>
        <time>2023-07-22T08:55:04.776Z</time>
      </trkpt>
      <trkpt lat="47.87627" lon="-2.52085">
        <ele>130</ele>
        <time>2023-07-22T08:55:05.777Z</time>
      </trkpt>
      <trkpt lat="47.87626" lon="-2.52085">
        <ele>130</ele>
        <time>2023-07-22T08:55:06.777Z</time>
      </trkpt>
      <trkpt lat="47.87624" lon="-2.52085">
        <ele>130</ele>
        <time>2023-07-22T08:55:07.777Z</time>
      </trkpt>
      <trkpt lat="47.87624" lon="-2.52085">
        <ele>130</ele>
        <time>2023-07-22T08:55:08.776Z</time>
      </trkpt>
      <trkpt lat="47.87623" lon="-2.52085">
        <ele>130</ele>
        <time>2023-07-22T08:55:09.776Z</time>
      </trkpt>
      <trkpt lat="47.87622" lon="-2.52085">
        <ele>129</ele>
        <time>2023-07-22T08:55:10.776Z</time>
      </trkpt>
      <trkpt lat="47.87621" lon="-2.52086">
        <ele>129</ele>
        <time>2023-07-22T08:55:11.777Z</time>
      </trkpt>
      <trkpt lat="47.8762" lon="-2.52086">
        <ele>129</ele>
        <time>2023-07-22T08:55:12.777Z</time>
      </trkpt>
      <trkpt lat="47.87619" lon="-2.52086">
        <ele>128</ele>
        <time>2023-07-22T08:55:13.777Z</time>
      </trkpt>
      <trkpt lat="47.87618" lon="-2.52086">
        <ele>128</ele>
        <time>2023-07-22T08:55:14.776Z</time>
      </trkpt>
      <trkpt lat="47.87617" lon="-2.52086">
        <ele>128</ele>
        <time>2023-07-22T08:55:15.777Z</time>
      </trkpt>
      <trkpt lat="47.87616" lon="-2.52086">
        <ele>128</ele>
        <time>2023-07-22T08:55:16.776Z</time>
      </trkpt>
      <trkpt lat="47.87615" lon="-2.52086">
        <ele>128</ele>
        <time>2023-07-22T08:55:17.776Z</time>
      </trkpt>
      <trkpt lat="47.87613" lon="-2.52087">
        <ele>127</ele>
        <time>2023-07-22T08:55:18.776Z</time>
      </trkpt>
      <trkpt lat="47.87613" lon="-2.52089">
        <ele>127</ele>
        <time>2023-07-22T08:55:19.777Z</time>
      </trkpt>
      <trkpt lat="47.87612" lon="-2.52089">
        <ele>127</ele>
        <time>2023-07-22T08:55:20.776Z</time>
      </trkpt>
      <trkpt lat="47.87611" lon="-2.5209">
        <ele>127</ele>
        <time>2023-07-22T08:55:21.776Z</time>
      </trkpt>
      <trkpt lat="47.8761" lon="-2.5209">
        <ele>128</ele>
        <time>2023-07-22T08:55:22.777Z</time>
      </trkpt>
      <trkpt lat="47.87608" lon="-2.52091">
        <ele>128</ele>
        <time>2023-07-22T08:55:23.776Z</time>
      </trkpt>
      <trkpt lat="47.87607" lon="-2.52091">
        <ele>128</ele>
        <time>2023-07-22T08:55:24.777Z</time>
      </trkpt>
      <trkpt lat="47.87606" lon="-2.52091">
        <ele>129</ele>
        <time>2023-07-22T08:55:25.776Z</time>
      </trkpt>
      <trkpt lat="47.87606" lon="-2.52091">
        <ele>129</ele>
        <time>2023-07-22T08:55:26.776Z</time>
      </trkpt>
      <trkpt lat="47.87605" lon="-2.52092">
        <ele>129</ele>
        <time>2023-07-22T08:55:27.776Z</time>
      </trkpt>
      <trkpt lat="47.87604" lon="-2.52092">
        <ele>129</ele>
        <time>2023-07-22T08:55:28.776Z</time>
      </trkpt>
      <trkpt lat="47.87603" lon="-2.52092">
        <ele>129</ele>
        <time>2023-07-22T08:55:29.776Z</time>
      </trkpt>
      <trkpt lat="47.87602" lon="-2.52092">
        <ele>129</ele>
        <time>2023-07-22T08:55:30.776Z</time>
      </trkpt>
      <trkpt lat="47.87601" lon="-2.52093">
        <ele>129</ele>
        <time>2023-07-22T08:55:31.776Z</time>
      </trkpt>
      <trkpt lat="47.876" lon="-2.52093">
        <ele>129</ele>
        <time>2023-07-22T08:55:32.776Z</time>
      </trkpt>
      <trkpt lat="47.876" lon="-2.52093">
        <ele>130</ele>
        <time>2023-07-22T08:55:33.777Z</time>
      </trkpt>
      <trkpt lat="47.87599" lon="-2.52094">
        <ele>130</ele>
        <time>2023-07-22T08:55:34.776Z</time>
      </trkpt>
      <trkpt lat="47.87598" lon="-2.52094">
        <ele>130</ele>
        <time>2023-07-22T08:55:35.776Z</time>
      </trkpt>
      <trkpt lat="47.87597" lon="-2.52095">
        <ele>130</ele>
        <time>2023-07-22T08:55:36.776Z</time>
      </trkpt>
      <trkpt lat="47.87595" lon="-2.52095">
        <ele>130</ele>
        <time>2023-07-22T08:55:37.776Z</time>
      </trkpt>
      <trkpt lat="47.87594" lon="-2.52095">
        <ele>130</ele>
        <time>2023-07-22T08:55:38.777Z</time>
      </trkpt>
      <trkpt lat="47.87593" lon="-2.52096">
        <ele>130</ele>
        <time>2023-07-22T08:55:39.777Z</time>
      </trkpt>
      <trkpt lat="47.87592" lon="-2.52096">
        <ele>130</ele>
        <time>2023-07-22T08:55:40.776Z</time>
      </trkpt>
      <trkpt lat="47.8759" lon="-2.52096">
        <ele>130</ele>
        <time>2023-07-22T08:55:41.776Z</time>
      </trkpt>
      <trkpt lat="47.87588" lon="-2.52096">
        <ele>130</ele>
        <time>2023-07-22T08:55:42.776Z</time>
      </trkpt>
      <trkpt lat="47.87587" lon="-2.52096">
        <ele>130</ele>
        <time>2023-07-22T08:55:43.777Z</time>
      </trkpt>
      <trkpt lat="47.87586" lon="-2.52096">
        <ele>129</ele>
        <time>2023-07-22T08:55:44.776Z</time>
      </trkpt>
      <trkpt lat="47.87584" lon="-2.52096">
        <ele>129</ele>
        <time>2023-07-22T08:55:45.776Z</time>
      </trkpt>
      <trkpt lat="47.87583" lon="-2.52097">
        <ele>129</ele>
        <time>2023-07-22T08:55:46.777Z</time>
      </trkpt>
      <trkpt lat="47.87582" lon="-2.52098">
        <ele>128</ele>
        <time>2023-07-22T08:55:47.776Z</time>
      </trkpt>
      <trkpt lat="47.87581" lon="-2.52098">
        <ele>128</ele>
        <time>2023-07-22T08:55:48.776Z</time>
      </trkpt>
      <trkpt lat="47.8758" lon="-2.52099">
        <ele>128</ele>
        <time>2023-07-22T08:55:49.777Z</time>
      </trkpt>
      <trkpt lat="47.87578" lon="-2.521">
        <ele>127</ele>
        <time>2023-07-22T08:55:50.776Z</time>
      </trkpt>
      <trkpt lat="47.87577" lon="-2.52101">
        <ele>127</ele>
        <time>2023-07-22T08:55:51.777Z</time>
      </trkpt>
      <trkpt lat="47.87577" lon="-2.52101">
        <ele>126</ele>
        <time>2023-07-22T08:55:52.776Z</time>
      </trkpt>
      <trkpt lat="47.87576" lon="-2.52102">
        <ele>126</ele>
        <time>2023-07-22T08:55:53.777Z</time>
      </trkpt>
      <trkpt lat="47.87576" lon="-2.52103">
        <ele>126</ele>
        <time>2023-07-22T08:55:54.776Z</time>
      </trkpt>
      <trkpt lat="47.87575" lon="-2.52104">
        <ele>126</ele>
        <time>2023-07-22T08:55:55.776Z</time>
      </trkpt>
      <trkpt lat="47.87574" lon="-2.52105">
        <ele>126</ele>
        <time>2023-07-22T08:55:56.776Z</time>
      </trkpt>
      <trkpt lat="47.87573" lon="-2.52105">
        <ele>126</ele>
        <time>2023-07-22T08:55:57.776Z</time>
      </trkpt>
      <trkpt lat="47.87572" lon="-2.52105">
        <ele>126</ele>
        <time>2023-07-22T08:55:58.776Z</time>
      </trkpt>
      <trkpt lat="47.87571" lon="-2.52106">
        <ele>127</ele>
        <time>2023-07-22T08:55:59.776Z</time>
      </trkpt>
      <trkpt lat="47.87571" lon="-2.52106">
        <ele>127</ele>
        <time>2023-07-22T08:56:00.776Z</time>
      </trkpt>
      <trkpt lat="47.8757" lon="-2.52109">
        <ele>128</ele>
        <time>2023-07-22T08:56:01.776Z</time>
      </trkpt>
      <trkpt lat="47.87569" lon="-2.52109">
        <ele>128</ele>
        <time>2023-07-22T08:56:02.776Z</time>
      </trkpt>
      <trkpt lat="47.87569" lon="-2.5211">
        <ele>128</ele>
        <time>2023-07-22T08:56:03.776Z</time>
      </trkpt>
      <trkpt lat="47.87568" lon="-2.52111">
        <ele>128</ele>
        <time>2023-07-22T08:56:04.776Z</time>
      </trkpt>
      <trkpt lat="47.87567" lon="-2.52113">
        <ele>128</ele>
        <time>2023-07-22T08:56:05.776Z</time>
      </trkpt>
      <trkpt lat="47.87566" lon="-2.52114">
        <ele>128</ele>
        <time>2023-07-22T08:56:06.776Z</time>
      </trkpt>
      <trkpt lat="47.87565" lon="-2.52115">
        <ele>128</ele>
        <time>2023-07-22T08:56:07.777Z</time>
      </trkpt>
      <trkpt lat="47.87563" lon="-2.52116">
        <ele>128</ele>
        <time>2023-07-22T08:56:08.776Z</time>
      </trkpt>
      <trkpt lat="47.87562" lon="-2.52116">
        <ele>128</ele>
        <time>2023-07-22T08:56:09.777Z</time>
      </trkpt>
      <trkpt lat="47.87561" lon="-2.52116">
        <ele>128</ele>
        <time>2023-07-22T08:56:10.777Z</time>
      </trkpt>
      <trkpt lat="47.8756" lon="-2.52116">
        <ele>128</ele>
        <time>2023-07-22T08:56:11.776Z</time>
      </trkpt>
      <trkpt lat="47.87559" lon="-2.52117">
        <ele>128</ele>
        <time>2023-07-22T08:56:12.776Z</time>
      </trkpt>
      <trkpt lat="47.87558" lon="-2.52118">
        <ele>128</ele>
        <time>2023-07-22T08:56:13.776Z</time>
      </trkpt>
      <trkpt lat="47.87557" lon="-2.52119">
        <ele>128</ele>
        <time>2023-07-22T08:56:14.777Z</time>
      </trkpt>
      <trkpt lat="47.87556" lon="-2.52119">
        <ele>128</ele>
        <time>2023-07-22T08:56:15.776Z</time>
      </trkpt>
      <trkpt lat="47.87555" lon="-2.52119">
        <ele>128</ele>
        <time>2023-07-22T08:56:16.777Z</time>
      </trkpt>
      <trkpt lat="47.87554" lon="-2.5212">
        <ele>128</ele>
        <time>2023-07-22T08:56:17.776Z</time>
      </trkpt>
      <trkpt lat="47.87553" lon="-2.5212">
        <ele>128</ele>
        <time>2023-07-22T08:56:18.776Z</time>
      </trkpt>
      <trkpt lat="47.87552" lon="-2.52121">
        <ele>129</ele>
        <time>2023-07-22T08:56:19.776Z</time>
      </trkpt>
      <trkpt lat="47.87551" lon="-2.52122">
        <ele>129</ele>
        <time>2023-07-22T08:56:20.776Z</time>
      </trkpt>
      <trkpt lat="47.8755" lon="-2.52122">
        <ele>130</ele>
        <time>2023-07-22T08:56:21.776Z</time>
      </trkpt>
      <trkpt lat="47.87549" lon="-2.52123">
        <ele>130</ele>
        <time>2023-07-22T08:56:22.776Z</time>
      </trkpt>
      <trkpt lat="47.87548" lon="-2.52123">
        <ele>130</ele>
        <time>2023-07-22T08:56:23.776Z</time>
      </trkpt>
      <trkpt lat="47.87546" lon="-2.52124">
        <ele>130</ele>
        <time>2023-07-22T08:56:24.776Z</time>
      </trkpt>
      <trkpt lat="47.87545" lon="-2.52125">
        <ele>130</ele>
        <time>2023-07-22T08:56:25.776Z</time>
      </trkpt>
      <trkpt lat="47.87544" lon="-2.52126">
        <ele>130</ele>
        <time>2023-07-22T08:56:26.777Z</time>
      </trkpt>
      <trkpt lat="47.87543" lon="-2.52127">
        <ele>130</ele>
        <time>2023-07-22T08:56:27.776Z</time>
      </trkpt>
      <trkpt lat="47.87542" lon="-2.52129">
        <ele>130</ele>
        <time>2023-07-22T08:56:28.776Z</time>
      </trkpt>
      <trkpt lat="47.87541" lon="-2.5213">
        <ele>130</ele>
        <time>2023-07-22T08:56:29.777Z</time>
      </trkpt>
      <trkpt lat="47.87541" lon="-2.52131">
        <ele>130</ele>
        <time>2023-07-22T08:56:30.776Z</time>
      </trkpt>
      <trkpt lat="47.8754" lon="-2.52133">
        <ele>130</ele>
        <time>2023-07-22T08:56:31.776Z</time>
      </trkpt>
      <trkpt lat="47.87539" lon="-2.52134">
        <ele>130</ele>
        <time>2023-07-22T08:56:32.777Z</time>
      </trkpt>
      <trkpt lat="47.87539" lon="-2.52135">
        <ele>130</ele>
        <time>2023-07-22T08:56:33.776Z</time>
      </trkpt>
      <trkpt lat="47.87538" lon="-2.52137">
        <ele>130</ele>
        <time>2023-07-22T08:56:34.776Z</time>
      </trkpt>
      <trkpt lat="47.87537" lon="-2.52139">
        <ele>129</ele>
        <time>2023-07-22T08:56:35.777Z</time>
      </trkpt>
      <trkpt lat="47.87536" lon="-2.5214">
        <ele>129</ele>
        <time>2023-07-22T08:56:36.776Z</time>
      </trkpt>
      <trkpt lat="47.87536" lon="-2.52141">
        <ele>129</ele>
        <time>2023-07-22T08:56:37.776Z</time>
      </trkpt>
      <trkpt lat="47.87535" lon="-2.52142">
        <ele>128</ele>
        <time>2023-07-22T08:56:38.776Z</time>
      </trkpt>
      <trkpt lat="47.87534" lon="-2.52143">
        <ele>128</ele>
        <time>2023-07-22T08:56:39.777Z</time>
      </trkpt>
      <trkpt lat="47.87533" lon="-2.52144">
        <ele>128</ele>
        <time>2023-07-22T08:56:40.776Z</time>
      </trkpt>
      <trkpt lat="47.87532" lon="-2.52146">
        <ele>127</ele>
        <time>2023-07-22T08:56:41.776Z</time>
      </trkpt>
      <trkpt lat="47.87531" lon="-2.52147">
        <ele>127</ele>
        <time>2023-07-22T08:56:42.776Z</time>
      </trkpt>
      <trkpt lat="47.8753" lon="-2.52148">
        <ele>127</ele>
        <time>2023-07-22T08:56:43.776Z</time>
      </trkpt>
      <trkpt lat="47.87529" lon="-2.52148">
        <ele>126</ele>
        <time>2023-07-22T08:56:44.776Z</time>
      </trkpt>
      <trkpt lat="47.87528" lon="-2.52149">
        <ele>126</ele>
        <time>2023-07-22T08:56:45.776Z</time>
      </trkpt>
      <trkpt lat="47.87527" lon="-2.52149">
        <ele>126</ele>
        <time>2023-07-22T08:56:46.776Z</time>
      </trkpt>
      <trkpt lat="47.87526" lon="-2.52149">
        <ele>126</ele>
        <time>2023-07-22T08:56:47.776Z</time>
      </trkpt>
      <trkpt lat="47.87524" lon="-2.5215">
        <ele>126</ele>
        <time>2023-07-22T08:56:48.777Z</time>
      </trkpt>
      <trkpt lat="47.87524" lon="-2.5215">
        <ele>126</ele>
        <time>2023-07-22T08:56:49.776Z</time>
      </trkpt>
      <trkpt lat="47.87522" lon="-2.52151">
        <ele>127</ele>
        <time>2023-07-22T08:56:50.777Z</time>
      </trkpt>
      <trkpt lat="47.87521" lon="-2.52151">
        <ele>127</ele>
        <time>2023-07-22T08:56:51.776Z</time>
      </trkpt>
      <trkpt lat="47.8752" lon="-2.52151">
        <ele>127</ele>
        <time>2023-07-22T08:56:52.776Z</time>
      </trkpt>
      <trkpt lat="47.87519" lon="-2.52151">
        <ele>127</ele>
        <time>2023-07-22T08:56:53.776Z</time>
      </trkpt>
      <trkpt lat="47.87518" lon="-2.52152">
        <ele>128</ele>
        <time>2023-07-22T08:56:54.777Z</time>
      </trkpt>
      <trkpt lat="47.87517" lon="-2.52152">
        <ele>128</ele>
        <time>2023-07-22T08:56:55.777Z</time>
      </trkpt>
      <trkpt lat="47.87515" lon="-2.52153">
        <ele>129</ele>
        <time>2023-07-22T08:56:56.777Z</time>
      </trkpt>
      <trkpt lat="47.87514" lon="-2.52154">
        <ele>129</ele>
        <time>2023-07-22T08:56:57.777Z</time>
      </trkpt>
      <trkpt lat="47.87513" lon="-2.52155">
        <ele>129</ele>
        <time>2023-07-22T08:56:58.776Z</time>
      </trkpt>
      <trkpt lat="47.87512" lon="-2.52156">
        <ele>130</ele>
        <time>2023-07-22T08:56:59.776Z</time>
      </trkpt>
      <trkpt lat="47.87511" lon="-2.52157">
        <ele>130</ele>
        <time>2023-07-22T08:57:00.776Z</time>
      </trkpt>
      <trkpt lat="47.8751" lon="-2.52159">
        <ele>130</ele>
        <time>2023-07-22T08:57:01.777Z</time>
      </trkpt>
      <trkpt lat="47.87509" lon="-2.52161">
        <ele>130</ele>
        <time>2023-07-22T08:57:02.776Z</time>
      </trkpt>
      <trkpt lat="47.87507" lon="-2.52163">
        <ele>130</ele>
        <time>2023-07-22T08:57:03.776Z</time>
      </trkpt>
      <trkpt lat="47.87506" lon="-2.52165">
        <ele>130</ele>
        <time>2023-07-22T08:57:04.776Z</time>
      </trkpt>
      <trkpt lat="47.87505" lon="-2.52166">
        <ele>130</ele>
        <time>2023-07-22T08:57:05.776Z</time>
      </trkpt>
      <trkpt lat="47.87504" lon="-2.52166">
        <ele>129</ele>
        <time>2023-07-22T08:57:06.776Z</time>
      </trkpt>
      <trkpt lat="47.87503" lon="-2.52167">
        <ele>129</ele>
        <time>2023-07-22T08:57:07.776Z</time>
      </trkpt>
      <trkpt lat="47.87502" lon="-2.52167">
        <ele>129</ele>
        <time>2023-07-22T08:57:08.776Z</time>
      </trkpt>
      <trkpt lat="47.87502" lon="-2.52168">
        <ele>129</ele>
        <time>2023-07-22T08:57:09.777Z</time>
      </trkpt>
      <trkpt lat="47.87501" lon="-2.52168">
        <ele>129</ele>
        <time>2023-07-22T08:57:10.776Z</time>
      </trkpt>
      <trkpt lat="47.87501" lon="-2.52168">
        <ele>129</ele>
        <time>2023-07-22T08:57:11.776Z</time>
      </trkpt>
      <trkpt lat="47.875" lon="-2.52169">
        <ele>128</ele>
        <time>2023-07-22T08:57:12.776Z</time>
      </trkpt>
      <trkpt lat="47.875" lon="-2.5217">
        <ele>128</ele>
        <time>2023-07-22T08:57:13.776Z</time>
      </trkpt>
      <trkpt lat="47.87499" lon="-2.5217">
        <ele>128</ele>
        <time>2023-07-22T08:57:14.777Z</time>
      </trkpt>
      <trkpt lat="47.87499" lon="-2.5217">
        <ele>128</ele>
        <time>2023-07-22T08:57:15.777Z</time>
      </trkpt>
      <trkpt lat="47.87499" lon="-2.5217">
        <ele>128</ele>
        <time>2023-07-22T08:57:16.776Z</time>
      </trkpt>
      <trkpt lat="47.87498" lon="-2.52171">
        <ele>128</ele>
        <time>2023-07-22T08:57:17.776Z</time>
      </trkpt>
      <trkpt lat="47.87497" lon="-2.52171">
        <ele>128</ele>
        <time>2023-07-22T08:57:18.776Z</time>
      </trkpt>
      <trkpt lat="47.87496" lon="-2.52172">
        <ele>128</ele>
        <time>2023-07-22T08:57:19.776Z</time>
      </trkpt>
      <trkpt lat="47.87495" lon="-2.52172">
        <ele>129</ele>
        <time>2023-07-22T08:57:20.776Z</time>
      </trkpt>
      <trkpt lat="47.87494" lon="-2.52173">
        <ele>129</ele>
        <time>2023-07-22T08:57:21.776Z</time>
      </trkpt>
      <trkpt lat="47.87493" lon="-2.52173">
        <ele>130</ele>
        <time>2023-07-22T08:57:22.776Z</time>
      </trkpt>
      <trkpt lat="47.87492" lon="-2.52172">
        <ele>130</ele>
        <time>2023-07-22T08:57:23.776Z</time>
      </trkpt>
      <trkpt lat="47.8749" lon="-2.52173">
        <ele>130</ele>
        <time>2023-07-22T08:57:24.776Z</time>
      </trkpt>
      <trkpt lat="47.87489" lon="-2.52175">
        <ele>130</ele>
        <time>2023-07-22T08:57:25.776Z</time>
      </trkpt>
      <trkpt lat="47.87487" lon="-2.52178">
        <ele>131</ele>
        <time>2023-07-22T08:57:26.776Z</time>
      </trkpt>
      <trkpt lat="47.87487" lon="-2.5218">
        <ele>131</ele>
        <time>2023-07-22T08:57:27.776Z</time>
      </trkpt>
      <trkpt lat="47.87486" lon="-2.52182">
        <ele>131</ele>
        <time>2023-07-22T08:57:28.776Z</time>
      </trkpt>
      <trkpt lat="47.87485" lon="-2.52184">
        <ele>131</ele>
        <time>2023-07-22T08:57:29.776Z</time>
      </trkpt>
      <trkpt lat="47.87484" lon="-2.52185">
        <ele>131</ele>
        <time>2023-07-22T08:57:30.776Z</time>
      </trkpt>
      <trkpt lat="47.87483" lon="-2.52187">
        <ele>131</ele>
        <time>2023-07-22T08:57:31.777Z</time>
      </trkpt>
      <trkpt lat="47.87483" lon="-2.52188">
        <ele>131</ele>
        <time>2023-07-22T08:57:32.776Z</time>
      </trkpt>
      <trkpt lat="47.87482" lon="-2.5219">
        <ele>131</ele>
        <time>2023-07-22T08:57:33.776Z</time>
      </trkpt>
      <trkpt lat="47.87481" lon="-2.52191">
        <ele>131</ele>
        <time>2023-07-22T08:57:34.776Z</time>
      </trkpt>
      <trkpt lat="47.8748" lon="-2.52192">
        <ele>131</ele>
        <time>2023-07-22T08:57:35.776Z</time>
      </trkpt>
      <trkpt lat="47.8748" lon="-2.52194">
        <ele>130</ele>
        <time>2023-07-22T08:57:36.777Z</time>
      </trkpt>
      <trkpt lat="47.87479" lon="-2.52194">
        <ele>130</ele>
        <time>2023-07-22T08:57:37.776Z</time>
      </trkpt>
      <trkpt lat="47.87478" lon="-2.52195">
        <ele>130</ele>
        <time>2023-07-22T08:57:38.776Z</time>
      </trkpt>
      <trkpt lat="47.87477" lon="-2.52196">
        <ele>129</ele>
        <time>2023-07-22T08:57:39.776Z</time>
      </trkpt>
      <trkpt lat="47.87476" lon="-2.52197">
        <ele>129</ele>
        <time>2023-07-22T08:57:40.776Z</time>
      </trkpt>
      <trkpt lat="47.87476" lon="-2.52198">
        <ele>129</ele>
        <time>2023-07-22T08:57:41.777Z</time>
      </trkpt>
      <trkpt lat="47.87475" lon="-2.52199">
        <ele>128</ele>
        <time>2023-07-22T08:57:42.776Z</time>
      </trkpt>
      <trkpt lat="47.87475" lon="-2.522">
        <ele>128</ele>
        <time>2023-07-22T08:57:43.776Z</time>
      </trkpt>
      <trkpt lat="47.87474" lon="-2.52201">
        <ele>127</ele>
        <time>2023-07-22T08:57:44.776Z</time>
      </trkpt>
      <trkpt lat="47.87474" lon="-2.52202">
        <ele>127</ele>
        <time>2023-07-22T08:57:45.777Z</time>
      </trkpt>
      <trkpt lat="47.87473" lon="-2.52203">
        <ele>127</ele>
        <time>2023-07-22T08:57:46.776Z</time>
      </trkpt>
      <trkpt lat="47.87472" lon="-2.52205">
        <ele>127</ele>
        <time>2023-07-22T08:57:47.776Z</time>
      </trkpt>
      <trkpt lat="47.87471" lon="-2.52206">
        <ele>126</ele>
        <time>2023-07-22T08:57:48.777Z</time>
      </trkpt>
      <trkpt lat="47.8747" lon="-2.52207">
        <ele>126</ele>
        <time>2023-07-22T08:57:49.776Z</time>
      </trkpt>
      <trkpt lat="47.8747" lon="-2.52208">
        <ele>126</ele>
        <time>2023-07-22T08:57:50.776Z</time>
      </trkpt>
      <trkpt lat="47.87469" lon="-2.52209">
        <ele>126</ele>
        <time>2023-07-22T08:57:51.776Z</time>
      </trkpt>
      <trkpt lat="47.87469" lon="-2.5221">
        <ele>126</ele>
        <time>2023-07-22T08:57:52.776Z</time>
      </trkpt>
      <trkpt lat="47.87468" lon="-2.5221">
        <ele>126</ele>
        <time>2023-07-22T08:57:53.777Z</time>
      </trkpt>
      <trkpt lat="47.87467" lon="-2.52211">
        <ele>126</ele>
        <time>2023-07-22T08:57:54.776Z</time>
      </trkpt>
      <trkpt lat="47.87467" lon="-2.52212">
        <ele>126</ele>
        <time>2023-07-22T08:57:55.776Z</time>
      </trkpt>
      <trkpt lat="47.87466" lon="-2.52213">
        <ele>126</ele>
        <time>2023-07-22T08:57:56.776Z</time>
      </trkpt>
      <trkpt lat="47.87465" lon="-2.52213">
        <ele>126</ele>
        <time>2023-07-22T08:57:57.776Z</time>
      </trkpt>
      <trkpt lat="47.87465" lon="-2.52214">
        <ele>127</ele>
        <time>2023-07-22T08:57:58.776Z</time>
      </trkpt>
      <trkpt lat="47.87463" lon="-2.52216">
        <ele>127</ele>
        <time>2023-07-22T08:57:59.776Z</time>
      </trkpt>
      <trkpt lat="47.87461" lon="-2.52217">
        <ele>128</ele>
        <time>2023-07-22T08:58:00.777Z</time>
      </trkpt>
      <trkpt lat="47.87461" lon="-2.52219">
        <ele>129</ele>
        <time>2023-07-22T08:58:01.777Z</time>
      </trkpt>
      <trkpt lat="47.87459" lon="-2.5222">
        <ele>129</ele>
        <time>2023-07-22T08:58:02.777Z</time>
      </trkpt>
      <trkpt lat="47.87458" lon="-2.5222">
        <ele>130</ele>
        <time>2023-07-22T08:58:03.776Z</time>
      </trkpt>
      <trkpt lat="47.87458" lon="-2.52221">
        <ele>131</ele>
        <time>2023-07-22T08:58:04.776Z</time>
      </trkpt>
      <trkpt lat="47.87457" lon="-2.52222">
        <ele>131</ele>
        <time>2023-07-22T08:58:05.776Z</time>
      </trkpt>
      <trkpt lat="47.87457" lon="-2.52223">
        <ele>130</ele>
        <time>2023-07-22T08:58:06.776Z</time>
      </trkpt>
      <trkpt lat="47.87456" lon="-2.52223">
        <ele>130</ele>
        <time>2023-07-22T08:58:07.776Z</time>
      </trkpt>
      <trkpt lat="47.87456" lon="-2.52224">
        <ele>131</ele>
        <time>2023-07-22T08:58:08.776Z</time>
      </trkpt>
      <trkpt lat="47.87455" lon="-2.52225">
        <ele>131</ele>
        <time>2023-07-22T08:58:09.776Z</time>
      </trkpt>
      <trkpt lat="47.87455" lon="-2.52226">
        <ele>131</ele>
        <time>2023-07-22T08:58:10.777Z</time>
      </trkpt>
      <trkpt lat="47.87454" lon="-2.52227">
        <ele>132</ele>
        <time>2023-07-22T08:58:11.776Z</time>
      </trkpt>
      <trkpt lat="47.87454" lon="-2.52228">
        <ele>132</ele>
        <time>2023-07-22T08:58:12.776Z</time>
      </trkpt>
      <trkpt lat="47.87453" lon="-2.52229">
        <ele>132</ele>
        <time>2023-07-22T08:58:13.776Z</time>
      </trkpt>
      <trkpt lat="47.87453" lon="-2.5223">
        <ele>132</ele>
        <time>2023-07-22T08:58:14.776Z</time>
      </trkpt>
      <trkpt lat="47.87452" lon="-2.52231">
        <ele>132</ele>
        <time>2023-07-22T08:58:15.776Z</time>
      </trkpt>
      <trkpt lat="47.8745" lon="-2.52233">
        <ele>132</ele>
        <time>2023-07-22T08:58:16.776Z</time>
      </trkpt>
      <trkpt lat="47.87448" lon="-2.52234">
        <ele>132</ele>
        <time>2023-07-22T08:58:17.776Z</time>
      </trkpt>
      <trkpt lat="47.87448" lon="-2.52234">
        <ele>132</ele>
        <time>2023-07-22T08:58:18.777Z</time>
      </trkpt>
      <trkpt lat="47.87447" lon="-2.52235">
        <ele>132</ele>
        <time>2023-07-22T08:58:19.776Z</time>
      </trkpt>
      <trkpt lat="47.87446" lon="-2.52236">
        <ele>131</ele>
        <time>2023-07-22T08:58:20.777Z</time>
      </trkpt>
      <trkpt lat="47.87445" lon="-2.52236">
        <ele>131</ele>
        <time>2023-07-22T08:58:21.776Z</time>
      </trkpt>
      <trkpt lat="47.87445" lon="-2.52237">
        <ele>130</ele>
        <time>2023-07-22T08:58:22.776Z</time>
      </trkpt>
      <trkpt lat="47.87444" lon="-2.52238">
        <ele>130</ele>
        <time>2023-07-22T08:58:23.777Z</time>
      </trkpt>
      <trkpt lat="47.87443" lon="-2.52239">
        <ele>130</ele>
        <time>2023-07-22T08:58:24.776Z</time>
      </trkpt>
      <trkpt lat="47.87442" lon="-2.5224">
        <ele>129</ele>
        <time>2023-07-22T08:58:25.777Z</time>
      </trkpt>
      <trkpt lat="47.87441" lon="-2.52241">
        <ele>129</ele>
        <time>2023-07-22T08:58:26.776Z</time>
      </trkpt>
      <trkpt lat="47.87441" lon="-2.52241">
        <ele>128</ele>
        <time>2023-07-22T08:58:27.777Z</time>
      </trkpt>
      <trkpt lat="47.8744" lon="-2.52241">
        <ele>128</ele>
        <time>2023-07-22T08:58:28.777Z</time>
      </trkpt>
      <trkpt lat="47.87439" lon="-2.52242">
        <ele>127</ele>
        <time>2023-07-22T08:58:29.776Z</time>
      </trkpt>
      <trkpt lat="47.87439" lon="-2.52242">
        <ele>127</ele>
        <time>2023-07-22T08:58:30.776Z</time>
      </trkpt>
      <trkpt lat="47.87438" lon="-2.52243">
        <ele>126</ele>
        <time>2023-07-22T08:58:31.777Z</time>
      </trkpt>
      <trkpt lat="47.87436" lon="-2.52246">
        <ele>126</ele>
        <time>2023-07-22T08:58:32.776Z</time>
      </trkpt>
      <trkpt lat="47.87436" lon="-2.52249">
        <ele>126</ele>
        <time>2023-07-22T08:58:33.777Z</time>
      </trkpt>
      <trkpt lat="47.87436" lon="-2.52252">
        <ele>126</ele>
        <time>2023-07-22T08:58:34.777Z</time>
      </trkpt>
      <trkpt lat="47.87435" lon="-2.52253">
        <ele>126</ele>
        <time>2023-07-22T08:58:35.776Z</time>
      </trkpt>
      <trkpt lat="47.87435" lon="-2.52254">
        <ele>127</ele>
        <time>2023-07-22T08:58:36.777Z</time>
      </trkpt>
      <trkpt lat="47.87434" lon="-2.52255">
        <ele>127</ele>
        <time>2023-07-22T08:58:37.777Z</time>
      </trkpt>
      <trkpt lat="47.87433" lon="-2.52255">
        <ele>126</ele>
        <time>2023-07-22T08:58:38.777Z</time>
      </trkpt>
      <trkpt lat="47.87433" lon="-2.52256">
        <ele>126</ele>
        <time>2023-07-22T08:58:39.777Z</time>
      </trkpt>
      <trkpt lat="47.87433" lon="-2.52256">
        <ele>126</ele>
        <time>2023-07-22T08:58:40.776Z</time>
      </trkpt>
      <trkpt lat="47.87432" lon="-2.52257">
        <ele>126</ele>
        <time>2023-07-22T08:58:41.777Z</time>
      </trkpt>
      <trkpt lat="47.87431" lon="-2.52257">
        <ele>126</ele>
        <time>2023-07-22T08:58:42.776Z</time>
      </trkpt>
      <trkpt lat="47.8743" lon="-2.52257">
        <ele>126</ele>
        <time>2023-07-22T08:58:43.776Z</time>
      </trkpt>
      <trkpt lat="47.87429" lon="-2.52258">
        <ele>126</ele>
        <time>2023-07-22T08:58:44.777Z</time>
      </trkpt>
      <trkpt lat="47.87429" lon="-2.52259">
        <ele>126</ele>
        <time>2023-07-22T08:58:45.777Z</time>
      </trkpt>
      <trkpt lat="47.87427" lon="-2.52259">
        <ele>126</ele>
        <time>2023-07-22T08:58:46.776Z</time>
      </trkpt>
      <trkpt lat="47.87427" lon="-2.52259">
        <ele>126</ele>
        <time>2023-07-22T08:58:47.777Z</time>
      </trkpt>
      <trkpt lat="47.87426" lon="-2.52261">
        <ele>125</ele>
        <time>2023-07-22T08:58:48.776Z</time>
      </trkpt>
      <trkpt lat="47.87425" lon="-2.52262">
        <ele>125</ele>
        <time>2023-07-22T08:58:49.777Z</time>
      </trkpt>
      <trkpt lat="47.87424" lon="-2.52263">
        <ele>125</ele>
        <time>2023-07-22T08:58:50.776Z</time>
      </trkpt>
      <trkpt lat="47.87422" lon="-2.52264">
        <ele>125</ele>
        <time>2023-07-22T08:58:51.776Z</time>
      </trkpt>
      <trkpt lat="47.87422" lon="-2.52266">
        <ele>125</ele>
        <time>2023-07-22T08:58:52.777Z</time>
      </trkpt>
      <trkpt lat="47.87421" lon="-2.52267">
        <ele>125</ele>
        <time>2023-07-22T08:58:53.776Z</time>
      </trkpt>
      <trkpt lat="47.87421" lon="-2.52268">
        <ele>126</ele>
        <time>2023-07-22T08:58:54.777Z</time>
      </trkpt>
      <trkpt lat="47.8742" lon="-2.52269">
        <ele>126</ele>
        <time>2023-07-22T08:58:55.776Z</time>
      </trkpt>
      <trkpt lat="47.87419" lon="-2.52271">
        <ele>126</ele>
        <time>2023-07-22T08:58:56.777Z</time>
      </trkpt>
      <trkpt lat="47.87419" lon="-2.52272">
        <ele>127</ele>
        <time>2023-07-22T08:58:57.776Z</time>
      </trkpt>
      <trkpt lat="47.87418" lon="-2.52274">
        <ele>127</ele>
        <time>2023-07-22T08:58:58.777Z</time>
      </trkpt>
      <trkpt lat="47.87418" lon="-2.52276">
        <ele>127</ele>
        <time>2023-07-22T08:58:59.777Z</time>
      </trkpt>
      <trkpt lat="47.87418" lon="-2.52277">
        <ele>127</ele>
        <time>2023-07-22T08:59:00.777Z</time>
      </trkpt>
      <trkpt lat="47.87417" lon="-2.52278">
        <ele>127</ele>
        <time>2023-07-22T08:59:01.777Z</time>
      </trkpt>
      <trkpt lat="47.87416" lon="-2.5228">
        <ele>128</ele>
        <time>2023-07-22T08:59:02.776Z</time>
      </trkpt>
      <trkpt lat="47.87416" lon="-2.52281">
        <ele>128</ele>
        <time>2023-07-22T08:59:03.776Z</time>
      </trkpt>
      <trkpt lat="47.87415" lon="-2.52282">
        <ele>128</ele>
        <time>2023-07-22T08:59:04.776Z</time>
      </trkpt>
      <trkpt lat="47.87415" lon="-2.52283">
        <ele>128</ele>
        <time>2023-07-22T08:59:05.776Z</time>
      </trkpt>
      <trkpt lat="47.87415" lon="-2.52285">
        <ele>128</ele>
        <time>2023-07-22T08:59:06.777Z</time>
      </trkpt>
      <trkpt lat="47.87414" lon="-2.52286">
        <ele>128</ele>
        <time>2023-07-22T08:59:07.776Z</time>
      </trkpt>
      <trkpt lat="47.87413" lon="-2.52287">
        <ele>128</ele>
        <time>2023-07-22T08:59:08.776Z</time>
      </trkpt>
      <trkpt lat="47.87412" lon="-2.52288">
        <ele>128</ele>
        <time>2023-07-22T08:59:09.777Z</time>
      </trkpt>
      <trkpt lat="47.87411" lon="-2.52289">
        <ele>128</ele>
        <time>2023-07-22T08:59:10.777Z</time>
      </trkpt>
      <trkpt lat="47.8741" lon="-2.52291">
        <ele>128</ele>
        <time>2023-07-22T08:59:11.776Z</time>
      </trkpt>
      <trkpt lat="47.87409" lon="-2.52293">
        <ele>128</ele>
        <time>2023-07-22T08:59:12.776Z</time>
      </trkpt>
      <trkpt lat="47.87408" lon="-2.52295">
        <ele>128</ele>
        <time>2023-07-22T08:59:13.777Z</time>
      </trkpt>
      <trkpt lat="47.87407" lon="-2.52296">
        <ele>128</ele>
        <time>2023-07-22T08:59:14.776Z</time>
      </trkpt>
      <trkpt lat="47.87406" lon="-2.52297">
        <ele>129</ele>
        <time>2023-07-22T08:59:15.777Z</time>
      </trkpt>
      <trkpt lat="47.87405" lon="-2.52298">
        <ele>129</ele>
        <time>2023-07-22T08:59:16.777Z</time>
      </trkpt>
      <trkpt lat="47.87404" lon="-2.52298">
        <ele>130</ele>
        <time>2023-07-22T08:59:17.776Z</time>
      </trkpt>
      <trkpt lat="47.87403" lon="-2.52299">
        <ele>130</ele>
        <time>2023-07-22T08:59:18.777Z</time>
      </trkpt>
      <trkpt lat="47.87402" lon="-2.523">
        <ele>131</ele>
        <time>2023-07-22T08:59:19.776Z</time>
      </trkpt>
      <trkpt lat="47.87401" lon="-2.52301">
        <ele>131</ele>
        <time>2023-07-22T08:59:20.776Z</time>
      </trkpt>
      <trkpt lat="47.874" lon="-2.52303">
        <ele>132</ele>
        <time>2023-07-22T08:59:21.776Z</time>
      </trkpt>
      <trkpt lat="47.87399" lon="-2.52304">
        <ele>132</ele>
        <time>2023-07-22T08:59:22.776Z</time>
      </trkpt>
      <trkpt lat="47.87398" lon="-2.52306">
        <ele>132</ele>
        <time>2023-07-22T08:59:23.777Z</time>
      </trkpt>
      <trkpt lat="47.87397" lon="-2.52308">
        <ele>132</ele>
        <time>2023-07-22T08:59:24.777Z</time>
      </trkpt>
      <trkpt lat="47.87396" lon="-2.52309">
        <ele>133</ele>
        <time>2023-07-22T08:59:25.776Z</time>
      </trkpt>
      <trkpt lat="47.87394" lon="-2.52311">
        <ele>133</ele>
        <time>2023-07-22T08:59:26.776Z</time>
      </trkpt>
      <trkpt lat="47.87393" lon="-2.52313">
        <ele>134</ele>
        <time>2023-07-22T08:59:27.776Z</time>
      </trkpt>
      <trkpt lat="47.87392" lon="-2.52314">
        <ele>134</ele>
        <time>2023-07-22T08:59:28.777Z</time>
      </trkpt>
      <trkpt lat="47.8739" lon="-2.52317">
        <ele>134</ele>
        <time>2023-07-22T08:59:29.776Z</time>
      </trkpt>
      <trkpt lat="47.87389" lon="-2.52319">
        <ele>134</ele>
        <time>2023-07-22T08:59:30.776Z</time>
      </trkpt>
      <trkpt lat="47.87387" lon="-2.52321">
        <ele>134</ele>
        <time>2023-07-22T08:59:31.776Z</time>
      </trkpt>
      <trkpt lat="47.87386" lon="-2.52323">
        <ele>134</ele>
        <time>2023-07-22T08:59:32.777Z</time>
      </trkpt>
      <trkpt lat="47.87385" lon="-2.52325">
        <ele>134</ele>
        <time>2023-07-22T08:59:33.776Z</time>
      </trkpt>
      <trkpt lat="47.87386" lon="-2.52327">
        <ele>134</ele>
        <time>2023-07-22T08:59:34.777Z</time>
      </trkpt>
      <trkpt lat="47.87386" lon="-2.52328">
        <ele>133</ele>
        <time>2023-07-22T08:59:35.776Z</time>
      </trkpt>
      <trkpt lat="47.87387" lon="-2.5233">
        <ele>133</ele>
        <time>2023-07-22T08:59:36.777Z</time>
      </trkpt>
      <trkpt lat="47.8739" lon="-2.52331">
        <ele>133</ele>
        <time>2023-07-22T08:59:37.776Z</time>
      </trkpt>
      <trkpt lat="47.87391" lon="-2.52333">
        <ele>133</ele>
        <time>2023-07-22T08:59:38.777Z</time>
      </trkpt>
      <trkpt lat="47.87389" lon="-2.52334">
        <ele>133</ele>
        <time>2023-07-22T08:59:39.776Z</time>
      </trkpt>
      <trkpt lat="47.87388" lon="-2.52335">
        <ele>132</ele>
        <time>2023-07-22T08:59:40.776Z</time>
      </trkpt>
      <trkpt lat="47.87386" lon="-2.52336">
        <ele>132</ele>
        <time>2023-07-22T08:59:41.776Z</time>
      </trkpt>
      <trkpt lat="47.87384" lon="-2.52336">
        <ele>132</ele>
        <time>2023-07-22T08:59:42.777Z</time>
      </trkpt>
      <trkpt lat="47.87383" lon="-2.52336">
        <ele>132</ele>
        <time>2023-07-22T08:59:43.777Z</time>
      </trkpt>
      <trkpt lat="47.87383" lon="-2.52337">
        <ele>132</ele>
        <time>2023-07-22T08:59:44.777Z</time>
      </trkpt>
      <trkpt lat="47.87384" lon="-2.52338">
        <ele>132</ele>
        <time>2023-07-22T08:59:45.776Z</time>
      </trkpt>
      <trkpt lat="47.87383" lon="-2.52339">
        <ele>132</ele>
        <time>2023-07-22T08:59:46.777Z</time>
      </trkpt>
      <trkpt lat="47.87383" lon="-2.52341">
        <ele>132</ele>
        <time>2023-07-22T08:59:47.776Z</time>
      </trkpt>
      <trkpt lat="47.87383" lon="-2.52343">
        <ele>132</ele>
        <time>2023-07-22T08:59:48.777Z</time>
      </trkpt>
      <trkpt lat="47.87383" lon="-2.52344">
        <ele>132</ele>
        <time>2023-07-22T08:59:49.776Z</time>
      </trkpt>
      <trkpt lat="47.87383" lon="-2.52345">
        <ele>132</ele>
        <time>2023-07-22T08:59:50.776Z</time>
      </trkpt>
      <trkpt lat="47.87383" lon="-2.52346">
        <ele>132</ele>
        <time>2023-07-22T08:59:51.776Z</time>
      </trkpt>
      <trkpt lat="47.87383" lon="-2.52348">
        <ele>132</ele>
        <time>2023-07-22T08:59:52.777Z</time>
      </trkpt>
      <trkpt lat="47.87382" lon="-2.52349">
        <ele>132</ele>
        <time>2023-07-22T08:59:53.776Z</time>
      </trkpt>
      <trkpt lat="47.87382" lon="-2.52351">
        <ele>131</ele>
        <time>2023-07-22T08:59:54.776Z</time>
      </trkpt>
      <trkpt lat="47.87381" lon="-2.52352">
        <ele>131</ele>
        <time>2023-07-22T08:59:55.777Z</time>
      </trkpt>
      <trkpt lat="47.87381" lon="-2.52353">
        <ele>131</ele>
        <time>2023-07-22T08:59:56.776Z</time>
      </trkpt>
      <trkpt lat="47.8738" lon="-2.52354">
        <ele>131</ele>
        <time>2023-07-22T08:59:57.776Z</time>
      </trkpt>
      <trkpt lat="47.8738" lon="-2.52355">
        <ele>131</ele>
        <time>2023-07-22T08:59:58.777Z</time>
      </trkpt>
      <trkpt lat="47.87379" lon="-2.52356">
        <ele>131</ele>
        <time>2023-07-22T08:59:59.777Z</time>
      </trkpt>
      <trkpt lat="47.87379" lon="-2.52356">
        <ele>131</ele>
        <time>2023-07-22T09:00:00.777Z</time>
      </trkpt>
      <trkpt lat="47.87378" lon="-2.52357">
        <ele>130</ele>
        <time>2023-07-22T09:00:01.777Z</time>
      </trkpt>
      <trkpt lat="47.87377" lon="-2.52357">
        <ele>130</ele>
        <time>2023-07-22T09:00:02.776Z</time>
      </trkpt>
      <trkpt lat="47.87376" lon="-2.52357">
        <ele>130</ele>
        <time>2023-07-22T09:00:03.777Z</time>
      </trkpt>
      <trkpt lat="47.87374" lon="-2.52358">
        <ele>130</ele>
        <time>2023-07-22T09:00:04.776Z</time>
      </trkpt>
      <trkpt lat="47.87373" lon="-2.52358">
        <ele>130</ele>
        <time>2023-07-22T09:00:05.776Z</time>
      </trkpt>
      <trkpt lat="47.87372" lon="-2.52358">
        <ele>131</ele>
        <time>2023-07-22T09:00:06.777Z</time>
      </trkpt>
      <trkpt lat="47.87371" lon="-2.52359">
        <ele>131</ele>
        <time>2023-07-22T09:00:07.776Z</time>
      </trkpt>
      <trkpt lat="47.87371" lon="-2.5236">
        <ele>131</ele>
        <time>2023-07-22T09:00:08.776Z</time>
      </trkpt>
      <trkpt lat="47.8737" lon="-2.52361">
        <ele>131</ele>
        <time>2023-07-22T09:00:09.776Z</time>
      </trkpt>
      <trkpt lat="47.87369" lon="-2.52362">
        <ele>132</ele>
        <time>2023-07-22T09:00:10.777Z</time>
      </trkpt>
      <trkpt lat="47.87368" lon="-2.52362">
        <ele>132</ele>
        <time>2023-07-22T09:00:11.776Z</time>
      </trkpt>
      <trkpt lat="47.87367" lon="-2.52362">
        <ele>132</ele>
        <time>2023-07-22T09:00:12.776Z</time>
      </trkpt>
      <trkpt lat="47.87367" lon="-2.52362">
        <ele>132</ele>
        <time>2023-07-22T09:00:13.776Z</time>
      </trkpt>
      <trkpt lat="47.87367" lon="-2.52363">
        <ele>132</ele>
        <time>2023-07-22T09:00:14.777Z</time>
      </trkpt>
      <trkpt lat="47.87364" lon="-2.52361">
        <ele>133</ele>
        <time>2023-07-22T09:00:21.178Z</time>
      </trkpt>
      <trkpt lat="47.87359" lon="-2.52359">
        <ele>133</ele>
        <time>2023-07-22T09:00:29.306Z</time>
      </trkpt>
      <trkpt lat="47.87358" lon="-2.5236">
        <ele>133</ele>
        <time>2023-07-22T09:00:30.305Z</time>
      </trkpt>
      <trkpt lat="47.87357" lon="-2.52361">
        <ele>133</ele>
        <time>2023-07-22T09:00:31.306Z</time>
      </trkpt>
      <trkpt lat="47.87356" lon="-2.52361">
        <ele>133</ele>
        <time>2023-07-22T09:00:32.306Z</time>
      </trkpt>
      <trkpt lat="47.87356" lon="-2.52362">
        <ele>133</ele>
        <time>2023-07-22T09:00:33.306Z</time>
      </trkpt>
      <trkpt lat="47.87356" lon="-2.52362">
        <ele>133</ele>
        <time>2023-07-22T09:00:34.306Z</time>
      </trkpt>
      <trkpt lat="47.87356" lon="-2.52363">
        <ele>133</ele>
        <time>2023-07-22T09:00:35.305Z</time>
      </trkpt>
      <trkpt lat="47.87355" lon="-2.52364">
        <ele>133</ele>
        <time>2023-07-22T09:00:36.306Z</time>
      </trkpt>
      <trkpt lat="47.87354" lon="-2.52364">
        <ele>133</ele>
        <time>2023-07-22T09:00:37.305Z</time>
      </trkpt>
      <trkpt lat="47.87354" lon="-2.52364">
        <ele>133</ele>
        <time>2023-07-22T09:00:38.305Z</time>
      </trkpt>
      <trkpt lat="47.87353" lon="-2.52365">
        <ele>133</ele>
        <time>2023-07-22T09:00:39.305Z</time>
      </trkpt>
      <trkpt lat="47.87352" lon="-2.52365">
        <ele>133</ele>
        <time>2023-07-22T09:00:40.306Z</time>
      </trkpt>
      <trkpt lat="47.8735" lon="-2.52365">
        <ele>134</ele>
        <time>2023-07-22T09:00:41.305Z</time>
      </trkpt>
      <trkpt lat="47.87349" lon="-2.52365">
        <ele>134</ele>
        <time>2023-07-22T09:00:42.305Z</time>
      </trkpt>
      <trkpt lat="47.87348" lon="-2.52365">
        <ele>135</ele>
        <time>2023-07-22T09:00:43.305Z</time>
      </trkpt>
      <trkpt lat="47.87347" lon="-2.52365">
        <ele>135</ele>
        <time>2023-07-22T09:00:44.306Z</time>
      </trkpt>
      <trkpt lat="47.87347" lon="-2.52365">
        <ele>136</ele>
        <time>2023-07-22T09:00:45.305Z</time>
      </trkpt>
      <trkpt lat="47.87345" lon="-2.52364">
        <ele>135</ele>
        <time>2023-07-22T09:00:46.306Z</time>
      </trkpt>
      <trkpt lat="47.87345" lon="-2.52364">
        <ele>135</ele>
        <time>2023-07-22T09:00:47.305Z</time>
      </trkpt>
      <trkpt lat="47.87345" lon="-2.52364">
        <ele>134</ele>
        <time>2023-07-22T09:00:48.305Z</time>
      </trkpt>
      <trkpt lat="47.87344" lon="-2.52364">
        <ele>134</ele>
        <time>2023-07-22T09:00:49.305Z</time>
      </trkpt>
      <trkpt lat="47.87343" lon="-2.52364">
        <ele>133</ele>
        <time>2023-07-22T09:00:50.305Z</time>
      </trkpt>
      <trkpt lat="47.87341" lon="-2.52363">
        <ele>133</ele>
        <time>2023-07-22T09:00:51.306Z</time>
      </trkpt>
      <trkpt lat="47.87341" lon="-2.52363">
        <ele>133</ele>
        <time>2023-07-22T09:00:52.305Z</time>
      </trkpt>
      <trkpt lat="47.87339" lon="-2.52362">
        <ele>133</ele>
        <time>2023-07-22T09:00:53.306Z</time>
      </trkpt>
      <trkpt lat="47.87337" lon="-2.52361">
        <ele>133</ele>
        <time>2023-07-22T09:00:54.305Z</time>
      </trkpt>
      <trkpt lat="47.87337" lon="-2.52361">
        <ele>133</ele>
        <time>2023-07-22T09:00:55.306Z</time>
      </trkpt>
      <trkpt lat="47.87335" lon="-2.52361">
        <ele>133</ele>
        <time>2023-07-22T09:00:56.305Z</time>
      </trkpt>
      <trkpt lat="47.87333" lon="-2.52362">
        <ele>133</ele>
        <time>2023-07-22T09:00:57.306Z</time>
      </trkpt>
      <trkpt lat="47.87332" lon="-2.52362">
        <ele>133</ele>
        <time>2023-07-22T09:00:58.305Z</time>
      </trkpt>
      <trkpt lat="47.87331" lon="-2.52362">
        <ele>133</ele>
        <time>2023-07-22T09:00:59.305Z</time>
      </trkpt>
      <trkpt lat="47.8733" lon="-2.52362">
        <ele>133</ele>
        <time>2023-07-22T09:01:00.305Z</time>
      </trkpt>
      <trkpt lat="47.8733" lon="-2.52363">
        <ele>132</ele>
        <time>2023-07-22T09:01:01.305Z</time>
      </trkpt>
      <trkpt lat="47.87329" lon="-2.52363">
        <ele>132</ele>
        <time>2023-07-22T09:01:02.306Z</time>
      </trkpt>
      <trkpt lat="47.87328" lon="-2.52363">
        <ele>132</ele>
        <time>2023-07-22T09:01:03.306Z</time>
      </trkpt>
      <trkpt lat="47.87327" lon="-2.52362">
        <ele>132</ele>
        <time>2023-07-22T09:01:04.305Z</time>
      </trkpt>
      <trkpt lat="47.87325" lon="-2.52362">
        <ele>132</ele>
        <time>2023-07-22T09:01:05.306Z</time>
      </trkpt>
      <trkpt lat="47.87323" lon="-2.52361">
        <ele>131</ele>
        <time>2023-07-22T09:01:06.305Z</time>
      </trkpt>
      <trkpt lat="47.87321" lon="-2.52361">
        <ele>131</ele>
        <time>2023-07-22T09:01:07.306Z</time>
      </trkpt>
      <trkpt lat="47.8732" lon="-2.52361">
        <ele>131</ele>
        <time>2023-07-22T09:01:08.306Z</time>
      </trkpt>
      <trkpt lat="47.87318" lon="-2.52362">
        <ele>131</ele>
        <time>2023-07-22T09:01:09.305Z</time>
      </trkpt>
      <trkpt lat="47.87317" lon="-2.52361">
        <ele>131</ele>
        <time>2023-07-22T09:01:10.305Z</time>
      </trkpt>
      <trkpt lat="47.87316" lon="-2.5236">
        <ele>130</ele>
        <time>2023-07-22T09:01:11.305Z</time>
      </trkpt>
      <trkpt lat="47.87314" lon="-2.52359">
        <ele>130</ele>
        <time>2023-07-22T09:01:12.305Z</time>
      </trkpt>
      <trkpt lat="47.87313" lon="-2.52358">
        <ele>130</ele>
        <time>2023-07-22T09:01:13.305Z</time>
      </trkpt>
      <trkpt lat="47.87312" lon="-2.52357">
        <ele>130</ele>
        <time>2023-07-22T09:01:14.305Z</time>
      </trkpt>
      <trkpt lat="47.87311" lon="-2.52356">
        <ele>129</ele>
        <time>2023-07-22T09:01:15.306Z</time>
      </trkpt>
      <trkpt lat="47.8731" lon="-2.52356">
        <ele>129</ele>
        <time>2023-07-22T09:01:16.305Z</time>
      </trkpt>
      <trkpt lat="47.8731" lon="-2.52356">
        <ele>129</ele>
        <time>2023-07-22T09:01:17.305Z</time>
      </trkpt>
      <trkpt lat="47.87309" lon="-2.52355">
        <ele>129</ele>
        <time>2023-07-22T09:01:18.306Z</time>
      </trkpt>
      <trkpt lat="47.87308" lon="-2.52355">
        <ele>129</ele>
        <time>2023-07-22T09:01:19.305Z</time>
      </trkpt>
      <trkpt lat="47.87307" lon="-2.52354">
        <ele>129</ele>
        <time>2023-07-22T09:01:20.306Z</time>
      </trkpt>
      <trkpt lat="47.87307" lon="-2.52353">
        <ele>129</ele>
        <time>2023-07-22T09:01:21.306Z</time>
      </trkpt>
      <trkpt lat="47.87306" lon="-2.52352">
        <ele>130</ele>
        <time>2023-07-22T09:01:22.305Z</time>
      </trkpt>
      <trkpt lat="47.87305" lon="-2.52351">
        <ele>129</ele>
        <time>2023-07-22T09:01:23.306Z</time>
      </trkpt>
      <trkpt lat="47.87305" lon="-2.5235">
        <ele>129</ele>
        <time>2023-07-22T09:01:24.305Z</time>
      </trkpt>
      <trkpt lat="47.87304" lon="-2.52349">
        <ele>129</ele>
        <time>2023-07-22T09:01:25.306Z</time>
      </trkpt>
      <trkpt lat="47.87303" lon="-2.52348">
        <ele>129</ele>
        <time>2023-07-22T09:01:26.305Z</time>
      </trkpt>
      <trkpt lat="47.87303" lon="-2.52347">
        <ele>129</ele>
        <time>2023-07-22T09:01:27.306Z</time>
      </trkpt>
      <trkpt lat="47.87302" lon="-2.52346">
        <ele>129</ele>
        <time>2023-07-22T09:01:28.306Z</time>
      </trkpt>
      <trkpt lat="47.87301" lon="-2.52345">
        <ele>130</ele>
        <time>2023-07-22T09:01:29.306Z</time>
      </trkpt>
      <trkpt lat="47.87301" lon="-2.52344">
        <ele>130</ele>
        <time>2023-07-22T09:01:30.305Z</time>
      </trkpt>
      <trkpt lat="47.873" lon="-2.52343">
        <ele>130</ele>
        <time>2023-07-22T09:01:31.306Z</time>
      </trkpt>
      <trkpt lat="47.873" lon="-2.52341">
        <ele>130</ele>
        <time>2023-07-22T09:01:32.305Z</time>
      </trkpt>
      <trkpt lat="47.87299" lon="-2.52339">
        <ele>130</ele>
        <time>2023-07-22T09:01:33.306Z</time>
      </trkpt>
      <trkpt lat="47.87298" lon="-2.52338">
        <ele>130</ele>
        <time>2023-07-22T09:01:34.305Z</time>
      </trkpt>
      <trkpt lat="47.87297" lon="-2.52336">
        <ele>130</ele>
        <time>2023-07-22T09:01:35.306Z</time>
      </trkpt>
      <trkpt lat="47.87297" lon="-2.52335">
        <ele>131</ele>
        <time>2023-07-22T09:01:36.306Z</time>
      </trkpt>
      <trkpt lat="47.87296" lon="-2.52335">
        <ele>131</ele>
        <time>2023-07-22T09:01:37.305Z</time>
      </trkpt>
      <trkpt lat="47.87295" lon="-2.52334">
        <ele>131</ele>
        <time>2023-07-22T09:01:38.306Z</time>
      </trkpt>
      <trkpt lat="47.87294" lon="-2.52333">
        <ele>131</ele>
        <time>2023-07-22T09:01:39.305Z</time>
      </trkpt>
      <trkpt lat="47.87293" lon="-2.52332">
        <ele>131</ele>
        <time>2023-07-22T09:01:40.306Z</time>
      </trkpt>
      <trkpt lat="47.87292" lon="-2.52331">
        <ele>131</ele>
        <time>2023-07-22T09:01:41.306Z</time>
      </trkpt>
      <trkpt lat="47.87291" lon="-2.52331">
        <ele>131</ele>
        <time>2023-07-22T09:01:42.306Z</time>
      </trkpt>
      <trkpt lat="47.8729" lon="-2.52329">
        <ele>131</ele>
        <time>2023-07-22T09:01:43.306Z</time>
      </trkpt>
      <trkpt lat="47.87289" lon="-2.52328">
        <ele>132</ele>
        <time>2023-07-22T09:01:44.306Z</time>
      </trkpt>
      <trkpt lat="47.87288" lon="-2.52327">
        <ele>132</ele>
        <time>2023-07-22T09:01:45.305Z</time>
      </trkpt>
      <trkpt lat="47.87287" lon="-2.52326">
        <ele>132</ele>
        <time>2023-07-22T09:01:46.305Z</time>
      </trkpt>
      <trkpt lat="47.87287" lon="-2.52325">
        <ele>132</ele>
        <time>2023-07-22T09:01:47.305Z</time>
      </trkpt>
      <trkpt lat="47.87286" lon="-2.52324">
        <ele>132</ele>
        <time>2023-07-22T09:01:48.305Z</time>
      </trkpt>
      <trkpt lat="47.87285" lon="-2.52323">
        <ele>132</ele>
        <time>2023-07-22T09:01:49.305Z</time>
      </trkpt>
      <trkpt lat="47.87284" lon="-2.52323">
        <ele>132</ele>
        <time>2023-07-22T09:01:50.305Z</time>
      </trkpt>
      <trkpt lat="47.87283" lon="-2.52322">
        <ele>132</ele>
        <time>2023-07-22T09:01:51.305Z</time>
      </trkpt>
      <trkpt lat="47.87281" lon="-2.52321">
        <ele>132</ele>
        <time>2023-07-22T09:01:52.306Z</time>
      </trkpt>
      <trkpt lat="47.8728" lon="-2.5232">
        <ele>132</ele>
        <time>2023-07-22T09:01:53.305Z</time>
      </trkpt>
      <trkpt lat="47.87279" lon="-2.52319">
        <ele>132</ele>
        <time>2023-07-22T09:01:54.305Z</time>
      </trkpt>
      <trkpt lat="47.87278" lon="-2.52319">
        <ele>131</ele>
        <time>2023-07-22T09:01:55.306Z</time>
      </trkpt>
      <trkpt lat="47.87277" lon="-2.52319">
        <ele>130</ele>
        <time>2023-07-22T09:01:56.305Z</time>
      </trkpt>
      <trkpt lat="47.87276" lon="-2.52318">
        <ele>130</ele>
        <time>2023-07-22T09:01:57.306Z</time>
      </trkpt>
      <trkpt lat="47.87275" lon="-2.52318">
        <ele>130</ele>
        <time>2023-07-22T09:01:58.306Z</time>
      </trkpt>
      <trkpt lat="47.87274" lon="-2.52319">
        <ele>129</ele>
        <time>2023-07-22T09:01:59.306Z</time>
      </trkpt>
      <trkpt lat="47.87272" lon="-2.52319">
        <ele>129</ele>
        <time>2023-07-22T09:02:00.305Z</time>
      </trkpt>
      <trkpt lat="47.87271" lon="-2.52319">
        <ele>128</ele>
        <time>2023-07-22T09:02:01.306Z</time>
      </trkpt>
      <trkpt lat="47.8727" lon="-2.52319">
        <ele>127</ele>
        <time>2023-07-22T09:02:02.306Z</time>
      </trkpt>
      <trkpt lat="47.8727" lon="-2.52319">
        <ele>127</ele>
        <time>2023-07-22T09:02:03.306Z</time>
      </trkpt>
      <trkpt lat="47.87269" lon="-2.52319">
        <ele>127</ele>
        <time>2023-07-22T09:02:04.306Z</time>
      </trkpt>
      <trkpt lat="47.87268" lon="-2.52318">
        <ele>126</ele>
        <time>2023-07-22T09:02:05.305Z</time>
      </trkpt>
      <trkpt lat="47.87267" lon="-2.52318">
        <ele>126</ele>
        <time>2023-07-22T09:02:06.305Z</time>
      </trkpt>
      <trkpt lat="47.87266" lon="-2.52318">
        <ele>126</ele>
        <time>2023-07-22T09:02:07.305Z</time>
      </trkpt>
      <trkpt lat="47.87265" lon="-2.52318">
        <ele>126</ele>
        <time>2023-07-22T09:02:08.306Z</time>
      </trkpt>
      <trkpt lat="47.87264" lon="-2.52318">
        <ele>126</ele>
        <time>2023-07-22T09:02:09.305Z</time>
      </trkpt>
      <trkpt lat="47.87263" lon="-2.52318">
        <ele>126</ele>
        <time>2023-07-22T09:02:10.305Z</time>
      </trkpt>
      <trkpt lat="47.87263" lon="-2.52318">
        <ele>126</ele>
        <time>2023-07-22T09:02:11.306Z</time>
      </trkpt>
      <trkpt lat="47.87262" lon="-2.52318">
        <ele>126</ele>
        <time>2023-07-22T09:02:12.306Z</time>
      </trkpt>
      <trkpt lat="47.87261" lon="-2.52318">
        <ele>126</ele>
        <time>2023-07-22T09:02:13.305Z</time>
      </trkpt>
      <trkpt lat="47.8726" lon="-2.52318">
        <ele>127</ele>
        <time>2023-07-22T09:02:14.305Z</time>
      </trkpt>
      <trkpt lat="47.87259" lon="-2.52318">
        <ele>127</ele>
        <time>2023-07-22T09:02:15.306Z</time>
      </trkpt>
      <trkpt lat="47.87258" lon="-2.52319">
        <ele>127</ele>
        <time>2023-07-22T09:02:16.306Z</time>
      </trkpt>
      <trkpt lat="47.87257" lon="-2.52319">
        <ele>127</ele>
        <time>2023-07-22T09:02:17.305Z</time>
      </trkpt>
      <trkpt lat="47.87256" lon="-2.5232">
        <ele>127</ele>
        <time>2023-07-22T09:02:18.306Z</time>
      </trkpt>
      <trkpt lat="47.87255" lon="-2.5232">
        <ele>127</ele>
        <time>2023-07-22T09:02:19.305Z</time>
      </trkpt>
      <trkpt lat="47.87254" lon="-2.52321">
        <ele>127</ele>
        <time>2023-07-22T09:02:20.306Z</time>
      </trkpt>
      <trkpt lat="47.87253" lon="-2.52321">
        <ele>127</ele>
        <time>2023-07-22T09:02:21.306Z</time>
      </trkpt>
      <trkpt lat="47.87252" lon="-2.52322">
        <ele>127</ele>
        <time>2023-07-22T09:02:22.305Z</time>
      </trkpt>
      <trkpt lat="47.87251" lon="-2.52322">
        <ele>127</ele>
        <time>2023-07-22T09:02:23.305Z</time>
      </trkpt>
      <trkpt lat="47.8725" lon="-2.52322">
        <ele>127</ele>
        <time>2023-07-22T09:02:24.305Z</time>
      </trkpt>
      <trkpt lat="47.87249" lon="-2.52322">
        <ele>127</ele>
        <time>2023-07-22T09:02:25.305Z</time>
      </trkpt>
      <trkpt lat="47.87249" lon="-2.52323">
        <ele>127</ele>
        <time>2023-07-22T09:02:26.306Z</time>
      </trkpt>
      <trkpt lat="47.87248" lon="-2.52323">
        <ele>127</ele>
        <time>2023-07-22T09:02:27.305Z</time>
      </trkpt>
      <trkpt lat="47.87247" lon="-2.52324">
        <ele>127</ele>
        <time>2023-07-22T09:02:28.305Z</time>
      </trkpt>
      <trkpt lat="47.87247" lon="-2.52325">
        <ele>127</ele>
        <time>2023-07-22T09:02:29.306Z</time>
      </trkpt>
      <trkpt lat="47.87246" lon="-2.52325">
        <ele>127</ele>
        <time>2023-07-22T09:02:30.306Z</time>
      </trkpt>
      <trkpt lat="47.87245" lon="-2.52325">
        <ele>128</ele>
        <time>2023-07-22T09:02:31.305Z</time>
      </trkpt>
      <trkpt lat="47.87244" lon="-2.52325">
        <ele>128</ele>
        <time>2023-07-22T09:02:32.306Z</time>
      </trkpt>
      <trkpt lat="47.87243" lon="-2.52324">
        <ele>128</ele>
        <time>2023-07-22T09:02:33.305Z</time>
      </trkpt>
      <trkpt lat="47.87241" lon="-2.52323">
        <ele>128</ele>
        <time>2023-07-22T09:02:34.306Z</time>
      </trkpt>
      <trkpt lat="47.8724" lon="-2.52323">
        <ele>129</ele>
        <time>2023-07-22T09:02:35.305Z</time>
      </trkpt>
      <trkpt lat="47.87238" lon="-2.52322">
        <ele>129</ele>
        <time>2023-07-22T09:02:36.305Z</time>
      </trkpt>
      <trkpt lat="47.87237" lon="-2.52322">
        <ele>129</ele>
        <time>2023-07-22T09:02:37.306Z</time>
      </trkpt>
      <trkpt lat="47.87236" lon="-2.52323">
        <ele>129</ele>
        <time>2023-07-22T09:02:38.306Z</time>
      </trkpt>
      <trkpt lat="47.87235" lon="-2.52323">
        <ele>129</ele>
        <time>2023-07-22T09:02:39.306Z</time>
      </trkpt>
      <trkpt lat="47.87234" lon="-2.52323">
        <ele>128</ele>
        <time>2023-07-22T09:02:40.306Z</time>
      </trkpt>
      <trkpt lat="47.87232" lon="-2.52323">
        <ele>128</ele>
        <time>2023-07-22T09:02:41.306Z</time>
      </trkpt>
      <trkpt lat="47.87231" lon="-2.52322">
        <ele>128</ele>
        <time>2023-07-22T09:02:42.305Z</time>
      </trkpt>
      <trkpt lat="47.8723" lon="-2.52321">
        <ele>128</ele>
        <time>2023-07-22T09:02:43.306Z</time>
      </trkpt>
      <trkpt lat="47.87229" lon="-2.5232">
        <ele>128</ele>
        <time>2023-07-22T09:02:44.305Z</time>
      </trkpt>
      <trkpt lat="47.87229" lon="-2.5232">
        <ele>128</ele>
        <time>2023-07-22T09:02:45.306Z</time>
      </trkpt>
      <trkpt lat="47.87227" lon="-2.5232">
        <ele>127</ele>
        <time>2023-07-22T09:02:46.305Z</time>
      </trkpt>
      <trkpt lat="47.87227" lon="-2.5232">
        <ele>127</ele>
        <time>2023-07-22T09:02:47.306Z</time>
      </trkpt>
      <trkpt lat="47.87226" lon="-2.5232">
        <ele>127</ele>
        <time>2023-07-22T09:02:48.305Z</time>
      </trkpt>
      <trkpt lat="47.87224" lon="-2.52319">
        <ele>126</ele>
        <time>2023-07-22T09:02:49.305Z</time>
      </trkpt>
      <trkpt lat="47.87223" lon="-2.52319">
        <ele>126</ele>
        <time>2023-07-22T09:02:50.306Z</time>
      </trkpt>
      <trkpt lat="47.87222" lon="-2.52319">
        <ele>126</ele>
        <time>2023-07-22T09:02:51.305Z</time>
      </trkpt>
      <trkpt lat="47.87221" lon="-2.52319">
        <ele>126</ele>
        <time>2023-07-22T09:02:52.305Z</time>
      </trkpt>
      <trkpt lat="47.87221" lon="-2.52319">
        <ele>126</ele>
        <time>2023-07-22T09:02:53.305Z</time>
      </trkpt>
      <trkpt lat="47.8722" lon="-2.52319">
        <ele>125</ele>
        <time>2023-07-22T09:02:54.306Z</time>
      </trkpt>
      <trkpt lat="47.87219" lon="-2.52318">
        <ele>125</ele>
        <time>2023-07-22T09:02:55.305Z</time>
      </trkpt>
      <trkpt lat="47.87218" lon="-2.52317">
        <ele>125</ele>
        <time>2023-07-22T09:02:56.306Z</time>
      </trkpt>
      <trkpt lat="47.87218" lon="-2.52316">
        <ele>125</ele>
        <time>2023-07-22T09:02:57.305Z</time>
      </trkpt>
      <trkpt lat="47.87217" lon="-2.52316">
        <ele>125</ele>
        <time>2023-07-22T09:02:58.305Z</time>
      </trkpt>
      <trkpt lat="47.87216" lon="-2.52315">
        <ele>125</ele>
        <time>2023-07-22T09:02:59.305Z</time>
      </trkpt>
      <trkpt lat="47.87215" lon="-2.52315">
        <ele>124</ele>
        <time>2023-07-22T09:03:00.305Z</time>
      </trkpt>
      <trkpt lat="47.87214" lon="-2.52314">
        <ele>124</ele>
        <time>2023-07-22T09:03:01.305Z</time>
      </trkpt>
      <trkpt lat="47.87214" lon="-2.52314">
        <ele>124</ele>
        <time>2023-07-22T09:03:02.305Z</time>
      </trkpt>
      <trkpt lat="47.87214" lon="-2.52314">
        <ele>124</ele>
        <time>2023-07-22T09:03:03.306Z</time>
      </trkpt>
      <trkpt lat="47.87213" lon="-2.52314">
        <ele>124</ele>
        <time>2023-07-22T09:03:04.306Z</time>
      </trkpt>
      <trkpt lat="47.87212" lon="-2.52313">
        <ele>124</ele>
        <time>2023-07-22T09:03:05.306Z</time>
      </trkpt>
      <trkpt lat="47.87212" lon="-2.52313">
        <ele>124</ele>
        <time>2023-07-22T09:03:06.306Z</time>
      </trkpt>
      <trkpt lat="47.87212" lon="-2.52313">
        <ele>124</ele>
        <time>2023-07-22T09:03:07.305Z</time>
      </trkpt>
      <trkpt lat="47.87205" lon="-2.52309">
        <ele>123</ele>
        <time>2023-07-22T09:03:13.667Z</time>
      </trkpt>
      <trkpt lat="47.87204" lon="-2.52309">
        <ele>122</ele>
        <time>2023-07-22T09:03:14.667Z</time>
      </trkpt>
      <trkpt lat="47.87203" lon="-2.52308">
        <ele>122</ele>
        <time>2023-07-22T09:03:15.667Z</time>
      </trkpt>
      <trkpt lat="47.87203" lon="-2.52308">
        <ele>122</ele>
        <time>2023-07-22T09:03:16.667Z</time>
      </trkpt>
      <trkpt lat="47.87202" lon="-2.52306">
        <ele>122</ele>
        <time>2023-07-22T09:03:17.667Z</time>
      </trkpt>
      <trkpt lat="47.87201" lon="-2.52305">
        <ele>122</ele>
        <time>2023-07-22T09:03:18.668Z</time>
      </trkpt>
      <trkpt lat="47.87201" lon="-2.52305">
        <ele>122</ele>
        <time>2023-07-22T09:03:19.667Z</time>
      </trkpt>
      <trkpt lat="47.872" lon="-2.52304">
        <ele>122</ele>
        <time>2023-07-22T09:03:20.668Z</time>
      </trkpt>
      <trkpt lat="47.872" lon="-2.52305">
        <ele>123</ele>
        <time>2023-07-22T09:03:21.667Z</time>
      </trkpt>
      <trkpt lat="47.872" lon="-2.52304">
        <ele>123</ele>
        <time>2023-07-22T09:03:22.667Z</time>
      </trkpt>
      <trkpt lat="47.87199" lon="-2.52303">
        <ele>123</ele>
        <time>2023-07-22T09:03:23.667Z</time>
      </trkpt>
      <trkpt lat="47.87198" lon="-2.52303">
        <ele>123</ele>
        <time>2023-07-22T09:03:24.668Z</time>
      </trkpt>
      <trkpt lat="47.87197" lon="-2.52302">
        <ele>123</ele>
        <time>2023-07-22T09:03:25.667Z</time>
      </trkpt>
      <trkpt lat="47.87197" lon="-2.52301">
        <ele>123</ele>
        <time>2023-07-22T09:03:26.667Z</time>
      </trkpt>
      <trkpt lat="47.87197" lon="-2.52301">
        <ele>123</ele>
        <time>2023-07-22T09:03:27.667Z</time>
      </trkpt>
      <trkpt lat="47.87196" lon="-2.523">
        <ele>123</ele>
        <time>2023-07-22T09:03:28.668Z</time>
      </trkpt>
      <trkpt lat="47.87195" lon="-2.52299">
        <ele>123</ele>
        <time>2023-07-22T09:03:29.667Z</time>
      </trkpt>
      <trkpt lat="47.87194" lon="-2.52298">
        <ele>124</ele>
        <time>2023-07-22T09:03:30.668Z</time>
      </trkpt>
      <trkpt lat="47.87193" lon="-2.52297">
        <ele>124</ele>
        <time>2023-07-22T09:03:31.667Z</time>
      </trkpt>
      <trkpt lat="47.87192" lon="-2.52296">
        <ele>124</ele>
        <time>2023-07-22T09:03:32.668Z</time>
      </trkpt>
      <trkpt lat="47.87191" lon="-2.52295">
        <ele>124</ele>
        <time>2023-07-22T09:03:33.667Z</time>
      </trkpt>
      <trkpt lat="47.8719" lon="-2.52294">
        <ele>123</ele>
        <time>2023-07-22T09:03:34.667Z</time>
      </trkpt>
      <trkpt lat="47.8719" lon="-2.52293">
        <ele>123</ele>
        <time>2023-07-22T09:03:35.667Z</time>
      </trkpt>
      <trkpt lat="47.87189" lon="-2.52292">
        <ele>123</ele>
        <time>2023-07-22T09:03:36.667Z</time>
      </trkpt>
      <trkpt lat="47.87188" lon="-2.52292">
        <ele>122</ele>
        <time>2023-07-22T09:03:37.667Z</time>
      </trkpt>
      <trkpt lat="47.87188" lon="-2.52292">
        <ele>122</ele>
        <time>2023-07-22T09:03:38.667Z</time>
      </trkpt>
      <trkpt lat="47.87187" lon="-2.52292">
        <ele>121</ele>
        <time>2023-07-22T09:03:39.667Z</time>
      </trkpt>
      <trkpt lat="47.87185" lon="-2.52291">
        <ele>121</ele>
        <time>2023-07-22T09:03:40.667Z</time>
      </trkpt>
      <trkpt lat="47.87183" lon="-2.5229">
        <ele>121</ele>
        <time>2023-07-22T09:03:41.668Z</time>
      </trkpt>
      <trkpt lat="47.87182" lon="-2.52288">
        <ele>120</ele>
        <time>2023-07-22T09:03:42.667Z</time>
      </trkpt>
      <trkpt lat="47.87182" lon="-2.52287">
        <ele>120</ele>
        <time>2023-07-22T09:03:43.667Z</time>
      </trkpt>
      <trkpt lat="47.87181" lon="-2.52285">
        <ele>120</ele>
        <time>2023-07-22T09:03:44.668Z</time>
      </trkpt>
      <trkpt lat="47.8718" lon="-2.52283">
        <ele>120</ele>
        <time>2023-07-22T09:03:45.667Z</time>
      </trkpt>
      <trkpt lat="47.87179" lon="-2.52281">
        <ele>120</ele>
        <time>2023-07-22T09:03:46.668Z</time>
      </trkpt>
      <trkpt lat="47.87177" lon="-2.5228">
        <ele>120</ele>
        <time>2023-07-22T09:03:47.667Z</time>
      </trkpt>
      <trkpt lat="47.87176" lon="-2.5228">
        <ele>119</ele>
        <time>2023-07-22T09:03:48.667Z</time>
      </trkpt>
      <trkpt lat="47.87175" lon="-2.52279">
        <ele>119</ele>
        <time>2023-07-22T09:03:49.667Z</time>
      </trkpt>
      <trkpt lat="47.87173" lon="-2.52278">
        <ele>119</ele>
        <time>2023-07-22T09:03:50.668Z</time>
      </trkpt>
      <trkpt lat="47.87172" lon="-2.52278">
        <ele>120</ele>
        <time>2023-07-22T09:03:51.667Z</time>
      </trkpt>
      <trkpt lat="47.87171" lon="-2.52277">
        <ele>120</ele>
        <time>2023-07-22T09:03:52.667Z</time>
      </trkpt>
      <trkpt lat="47.87171" lon="-2.52277">
        <ele>120</ele>
        <time>2023-07-22T09:03:53.667Z</time>
      </trkpt>
      <trkpt lat="47.8717" lon="-2.52277">
        <ele>120</ele>
        <time>2023-07-22T09:03:54.668Z</time>
      </trkpt>
      <trkpt lat="47.87169" lon="-2.52277">
        <ele>120</ele>
        <time>2023-07-22T09:03:55.667Z</time>
      </trkpt>
      <trkpt lat="47.87168" lon="-2.52277">
        <ele>120</ele>
        <time>2023-07-22T09:03:56.667Z</time>
      </trkpt>
      <trkpt lat="47.87167" lon="-2.52276">
        <ele>121</ele>
        <time>2023-07-22T09:03:57.667Z</time>
      </trkpt>
      <trkpt lat="47.87166" lon="-2.52276">
        <ele>121</ele>
        <time>2023-07-22T09:03:58.667Z</time>
      </trkpt>
      <trkpt lat="47.87165" lon="-2.52274">
        <ele>121</ele>
        <time>2023-07-22T09:03:59.667Z</time>
      </trkpt>
      <trkpt lat="47.87164" lon="-2.52274">
        <ele>121</ele>
        <time>2023-07-22T09:04:00.667Z</time>
      </trkpt>
      <trkpt lat="47.87162" lon="-2.52272">
        <ele>121</ele>
        <time>2023-07-22T09:04:01.667Z</time>
      </trkpt>
      <trkpt lat="47.87161" lon="-2.52272">
        <ele>122</ele>
        <time>2023-07-22T09:04:02.667Z</time>
      </trkpt>
      <trkpt lat="47.87161" lon="-2.52272">
        <ele>121</ele>
        <time>2023-07-22T09:04:03.667Z</time>
      </trkpt>
      <trkpt lat="47.8716" lon="-2.52271">
        <ele>121</ele>
        <time>2023-07-22T09:04:04.667Z</time>
      </trkpt>
      <trkpt lat="47.87159" lon="-2.52271">
        <ele>121</ele>
        <time>2023-07-22T09:04:05.667Z</time>
      </trkpt>
      <trkpt lat="47.87158" lon="-2.5227">
        <ele>121</ele>
        <time>2023-07-22T09:04:06.668Z</time>
      </trkpt>
      <trkpt lat="47.87158" lon="-2.52269">
        <ele>121</ele>
        <time>2023-07-22T09:04:07.667Z</time>
      </trkpt>
      <trkpt lat="47.87157" lon="-2.52268">
        <ele>121</ele>
        <time>2023-07-22T09:04:08.667Z</time>
      </trkpt>
      <trkpt lat="47.87156" lon="-2.52268">
        <ele>121</ele>
        <time>2023-07-22T09:04:09.668Z</time>
      </trkpt>
      <trkpt lat="47.87156" lon="-2.52267">
        <ele>121</ele>
        <time>2023-07-22T09:04:10.668Z</time>
      </trkpt>
      <trkpt lat="47.87155" lon="-2.52266">
        <ele>121</ele>
        <time>2023-07-22T09:04:11.667Z</time>
      </trkpt>
      <trkpt lat="47.87154" lon="-2.52265">
        <ele>121</ele>
        <time>2023-07-22T09:04:12.667Z</time>
      </trkpt>
      <trkpt lat="47.87153" lon="-2.52264">
        <ele>121</ele>
        <time>2023-07-22T09:04:13.667Z</time>
      </trkpt>
      <trkpt lat="47.87152" lon="-2.52263">
        <ele>120</ele>
        <time>2023-07-22T09:04:14.668Z</time>
      </trkpt>
      <trkpt lat="47.87151" lon="-2.52261">
        <ele>120</ele>
        <time>2023-07-22T09:04:15.667Z</time>
      </trkpt>
      <trkpt lat="47.8715" lon="-2.52261">
        <ele>120</ele>
        <time>2023-07-22T09:04:16.667Z</time>
      </trkpt>
      <trkpt lat="47.87149" lon="-2.5226">
        <ele>120</ele>
        <time>2023-07-22T09:04:17.667Z</time>
      </trkpt>
      <trkpt lat="47.87149" lon="-2.52259">
        <ele>120</ele>
        <time>2023-07-22T09:04:18.667Z</time>
      </trkpt>
      <trkpt lat="47.87148" lon="-2.52259">
        <ele>120</ele>
        <time>2023-07-22T09:04:19.667Z</time>
      </trkpt>
      <trkpt lat="47.87147" lon="-2.52259">
        <ele>120</ele>
        <time>2023-07-22T09:04:20.667Z</time>
      </trkpt>
      <trkpt lat="47.87146" lon="-2.52258">
        <ele>119</ele>
        <time>2023-07-22T09:04:21.668Z</time>
      </trkpt>
      <trkpt lat="47.87145" lon="-2.52257">
        <ele>119</ele>
        <time>2023-07-22T09:04:22.668Z</time>
      </trkpt>
      <trkpt lat="47.87144" lon="-2.52256">
        <ele>119</ele>
        <time>2023-07-22T09:04:23.667Z</time>
      </trkpt>
      <trkpt lat="47.87144" lon="-2.52256">
        <ele>119</ele>
        <time>2023-07-22T09:04:24.668Z</time>
      </trkpt>
      <trkpt lat="47.87143" lon="-2.52254">
        <ele>119</ele>
        <time>2023-07-22T09:04:25.667Z</time>
      </trkpt>
      <trkpt lat="47.87142" lon="-2.52253">
        <ele>119</ele>
        <time>2023-07-22T09:04:26.667Z</time>
      </trkpt>
      <trkpt lat="47.87141" lon="-2.52253">
        <ele>118</ele>
        <time>2023-07-22T09:04:27.668Z</time>
      </trkpt>
      <trkpt lat="47.8714" lon="-2.52252">
        <ele>118</ele>
        <time>2023-07-22T09:04:28.668Z</time>
      </trkpt>
      <trkpt lat="47.8714" lon="-2.52252">
        <ele>117</ele>
        <time>2023-07-22T09:04:29.667Z</time>
      </trkpt>
      <trkpt lat="47.87139" lon="-2.52251">
        <ele>117</ele>
        <time>2023-07-22T09:04:30.667Z</time>
      </trkpt>
      <trkpt lat="47.87138" lon="-2.5225">
        <ele>116</ele>
        <time>2023-07-22T09:04:31.667Z</time>
      </trkpt>
      <trkpt lat="47.87138" lon="-2.5225">
        <ele>116</ele>
        <time>2023-07-22T09:04:32.667Z</time>
      </trkpt>
      <trkpt lat="47.87136" lon="-2.52249">
        <ele>116</ele>
        <time>2023-07-22T09:04:33.668Z</time>
      </trkpt>
      <trkpt lat="47.87135" lon="-2.52248">
        <ele>116</ele>
        <time>2023-07-22T09:04:34.667Z</time>
      </trkpt>
      <trkpt lat="47.87134" lon="-2.52248">
        <ele>116</ele>
        <time>2023-07-22T09:04:35.668Z</time>
      </trkpt>
      <trkpt lat="47.87133" lon="-2.52248">
        <ele>116</ele>
        <time>2023-07-22T09:04:36.667Z</time>
      </trkpt>
      <trkpt lat="47.87133" lon="-2.52247">
        <ele>116</ele>
        <time>2023-07-22T09:04:37.667Z</time>
      </trkpt>
      <trkpt lat="47.87132" lon="-2.52246">
        <ele>116</ele>
        <time>2023-07-22T09:04:38.667Z</time>
      </trkpt>
      <trkpt lat="47.87131" lon="-2.52246">
        <ele>115</ele>
        <time>2023-07-22T09:04:39.668Z</time>
      </trkpt>
      <trkpt lat="47.8713" lon="-2.52245">
        <ele>115</ele>
        <time>2023-07-22T09:04:40.668Z</time>
      </trkpt>
      <trkpt lat="47.87129" lon="-2.52244">
        <ele>115</ele>
        <time>2023-07-22T09:04:41.667Z</time>
      </trkpt>
      <trkpt lat="47.87129" lon="-2.52244">
        <ele>115</ele>
        <time>2023-07-22T09:04:42.667Z</time>
      </trkpt>
      <trkpt lat="47.87128" lon="-2.52243">
        <ele>114</ele>
        <time>2023-07-22T09:04:43.667Z</time>
      </trkpt>
      <trkpt lat="47.87128" lon="-2.52242">
        <ele>114</ele>
        <time>2023-07-22T09:04:44.667Z</time>
      </trkpt>
      <trkpt lat="47.87128" lon="-2.52242">
        <ele>114</ele>
        <time>2023-07-22T09:04:45.667Z</time>
      </trkpt>
      <trkpt lat="47.87127" lon="-2.52241">
        <ele>115</ele>
        <time>2023-07-22T09:04:46.667Z</time>
      </trkpt>
      <trkpt lat="47.87127" lon="-2.5224">
        <ele>115</ele>
        <time>2023-07-22T09:04:47.667Z</time>
      </trkpt>
      <trkpt lat="47.87126" lon="-2.52239">
        <ele>115</ele>
        <time>2023-07-22T09:04:48.667Z</time>
      </trkpt>
      <trkpt lat="47.87126" lon="-2.52238">
        <ele>115</ele>
        <time>2023-07-22T09:04:49.667Z</time>
      </trkpt>
      <trkpt lat="47.87125" lon="-2.52237">
        <ele>115</ele>
        <time>2023-07-22T09:04:50.667Z</time>
      </trkpt>
      <trkpt lat="47.87124" lon="-2.52237">
        <ele>115</ele>
        <time>2023-07-22T09:04:51.668Z</time>
      </trkpt>
      <trkpt lat="47.87123" lon="-2.52237">
        <ele>115</ele>
        <time>2023-07-22T09:04:52.667Z</time>
      </trkpt>
      <trkpt lat="47.87123" lon="-2.52237">
        <ele>115</ele>
        <time>2023-07-22T09:04:53.668Z</time>
      </trkpt>
      <trkpt lat="47.87122" lon="-2.52236">
        <ele>115</ele>
        <time>2023-07-22T09:04:54.668Z</time>
      </trkpt>
      <trkpt lat="47.87122" lon="-2.52235">
        <ele>115</ele>
        <time>2023-07-22T09:04:55.667Z</time>
      </trkpt>
      <trkpt lat="47.87121" lon="-2.52233">
        <ele>115</ele>
        <time>2023-07-22T09:04:56.667Z</time>
      </trkpt>
      <trkpt lat="47.87119" lon="-2.52232">
        <ele>115</ele>
        <time>2023-07-22T09:04:57.667Z</time>
      </trkpt>
      <trkpt lat="47.87118" lon="-2.52231">
        <ele>114</ele>
        <time>2023-07-22T09:04:58.668Z</time>
      </trkpt>
      <trkpt lat="47.87118" lon="-2.5223">
        <ele>114</ele>
        <time>2023-07-22T09:04:59.667Z</time>
      </trkpt>
      <trkpt lat="47.87117" lon="-2.52229">
        <ele>114</ele>
        <time>2023-07-22T09:05:00.668Z</time>
      </trkpt>
      <trkpt lat="47.87116" lon="-2.52228">
        <ele>114</ele>
        <time>2023-07-22T09:05:01.667Z</time>
      </trkpt>
      <trkpt lat="47.87115" lon="-2.52227">
        <ele>114</ele>
        <time>2023-07-22T09:05:02.667Z</time>
      </trkpt>
      <trkpt lat="47.87114" lon="-2.52226">
        <ele>115</ele>
        <time>2023-07-22T09:05:03.667Z</time>
      </trkpt>
      <trkpt lat="47.87113" lon="-2.52225">
        <ele>115</ele>
        <time>2023-07-22T09:05:04.667Z</time>
      </trkpt>
      <trkpt lat="47.87112" lon="-2.52224">
        <ele>115</ele>
        <time>2023-07-22T09:05:05.667Z</time>
      </trkpt>
      <trkpt lat="47.87111" lon="-2.52223">
        <ele>115</ele>
        <time>2023-07-22T09:05:06.667Z</time>
      </trkpt>
      <trkpt lat="47.8711" lon="-2.52222">
        <ele>116</ele>
        <time>2023-07-22T09:05:07.667Z</time>
      </trkpt>
      <trkpt lat="47.87109" lon="-2.52221">
        <ele>116</ele>
        <time>2023-07-22T09:05:08.667Z</time>
      </trkpt>
      <trkpt lat="47.87108" lon="-2.5222">
        <ele>116</ele>
        <time>2023-07-22T09:05:09.667Z</time>
      </trkpt>
      <trkpt lat="47.87108" lon="-2.5222">
        <ele>116</ele>
        <time>2023-07-22T09:05:10.667Z</time>
      </trkpt>
      <trkpt lat="47.87107" lon="-2.52219">
        <ele>116</ele>
        <time>2023-07-22T09:05:11.667Z</time>
      </trkpt>
      <trkpt lat="47.87107" lon="-2.52218">
        <ele>116</ele>
        <time>2023-07-22T09:05:12.668Z</time>
      </trkpt>
      <trkpt lat="47.87105" lon="-2.52218">
        <ele>116</ele>
        <time>2023-07-22T09:05:13.668Z</time>
      </trkpt>
      <trkpt lat="47.87104" lon="-2.52217">
        <ele>116</ele>
        <time>2023-07-22T09:05:14.667Z</time>
      </trkpt>
      <trkpt lat="47.87104" lon="-2.52217">
        <ele>116</ele>
        <time>2023-07-22T09:05:15.667Z</time>
      </trkpt>
      <trkpt lat="47.87103" lon="-2.52216">
        <ele>116</ele>
        <time>2023-07-22T09:05:16.667Z</time>
      </trkpt>
      <trkpt lat="47.87102" lon="-2.52216">
        <ele>115</ele>
        <time>2023-07-22T09:05:17.667Z</time>
      </trkpt>
      <trkpt lat="47.87101" lon="-2.52216">
        <ele>115</ele>
        <time>2023-07-22T09:05:18.668Z</time>
      </trkpt>
      <trkpt lat="47.871" lon="-2.52216">
        <ele>115</ele>
        <time>2023-07-22T09:05:19.668Z</time>
      </trkpt>
      <trkpt lat="47.87099" lon="-2.52215">
        <ele>115</ele>
        <time>2023-07-22T09:05:20.667Z</time>
      </trkpt>
      <trkpt lat="47.87098" lon="-2.52215">
        <ele>115</ele>
        <time>2023-07-22T09:05:21.667Z</time>
      </trkpt>
      <trkpt lat="47.87097" lon="-2.52214">
        <ele>115</ele>
        <time>2023-07-22T09:05:22.667Z</time>
      </trkpt>
      <trkpt lat="47.87096" lon="-2.52214">
        <ele>115</ele>
        <time>2023-07-22T09:05:23.667Z</time>
      </trkpt>
      <trkpt lat="47.87095" lon="-2.52214">
        <ele>115</ele>
        <time>2023-07-22T09:05:24.668Z</time>
      </trkpt>
      <trkpt lat="47.87094" lon="-2.52214">
        <ele>115</ele>
        <time>2023-07-22T09:05:25.668Z</time>
      </trkpt>
      <trkpt lat="47.87093" lon="-2.52214">
        <ele>115</ele>
        <time>2023-07-22T09:05:26.668Z</time>
      </trkpt>
      <trkpt lat="47.87092" lon="-2.52214">
        <ele>115</ele>
        <time>2023-07-22T09:05:27.667Z</time>
      </trkpt>
      <trkpt lat="47.8709" lon="-2.52215">
        <ele>115</ele>
        <time>2023-07-22T09:05:28.667Z</time>
      </trkpt>
      <trkpt lat="47.8709" lon="-2.52215">
        <ele>115</ele>
        <time>2023-07-22T09:05:29.667Z</time>
      </trkpt>
      <trkpt lat="47.87089" lon="-2.52216">
        <ele>115</ele>
        <time>2023-07-22T09:05:30.667Z</time>
      </trkpt>
      <trkpt lat="47.87088" lon="-2.52216">
        <ele>115</ele>
        <time>2023-07-22T09:05:31.668Z</time>
      </trkpt>
      <trkpt lat="47.87087" lon="-2.52217">
        <ele>114</ele>
        <time>2023-07-22T09:05:32.667Z</time>
      </trkpt>
      <trkpt lat="47.87085" lon="-2.52218">
        <ele>114</ele>
        <time>2023-07-22T09:05:33.667Z</time>
      </trkpt>
      <trkpt lat="47.87084" lon="-2.5222">
        <ele>114</ele>
        <time>2023-07-22T09:05:34.667Z</time>
      </trkpt>
      <trkpt lat="47.87084" lon="-2.5222">
        <ele>114</ele>
        <time>2023-07-22T09:05:35.667Z</time>
      </trkpt>
      <trkpt lat="47.87084" lon="-2.52221">
        <ele>113</ele>
        <time>2023-07-22T09:05:36.668Z</time>
      </trkpt>
      <trkpt lat="47.87084" lon="-2.52221">
        <ele>113</ele>
        <time>2023-07-22T09:05:37.668Z</time>
      </trkpt>
      <trkpt lat="47.87084" lon="-2.52221">
        <ele>114</ele>
        <time>2023-07-22T09:05:38.668Z</time>
      </trkpt>
      <trkpt lat="47.87083" lon="-2.52221">
        <ele>114</ele>
        <time>2023-07-22T09:05:39.668Z</time>
      </trkpt>
      <trkpt lat="47.87081" lon="-2.52223">
        <ele>115</ele>
        <time>2023-07-22T09:05:45.138Z</time>
      </trkpt>
      <trkpt lat="47.8708" lon="-2.52224">
        <ele>115</ele>
        <time>2023-07-22T09:05:46.138Z</time>
      </trkpt>
      <trkpt lat="47.87079" lon="-2.52224">
        <ele>115</ele>
        <time>2023-07-22T09:05:47.139Z</time>
      </trkpt>
      <trkpt lat="47.87078" lon="-2.52225">
        <ele>115</ele>
        <time>2023-07-22T09:05:48.139Z</time>
      </trkpt>
      <trkpt lat="47.87077" lon="-2.52226">
        <ele>116</ele>
        <time>2023-07-22T09:05:49.139Z</time>
      </trkpt>
      <trkpt lat="47.87077" lon="-2.52226">
        <ele>116</ele>
        <time>2023-07-22T09:05:50.138Z</time>
      </trkpt>
      <trkpt lat="47.87076" lon="-2.52227">
        <ele>117</ele>
        <time>2023-07-22T09:05:51.139Z</time>
      </trkpt>
      <trkpt lat="47.87076" lon="-2.52227">
        <ele>117</ele>
        <time>2023-07-22T09:05:52.139Z</time>
      </trkpt>
      <trkpt lat="47.87076" lon="-2.52228">
        <ele>117</ele>
        <time>2023-07-22T09:05:53.139Z</time>
      </trkpt>
      <trkpt lat="47.87076" lon="-2.52228">
        <ele>118</ele>
        <time>2023-07-22T09:05:54.138Z</time>
      </trkpt>
      <trkpt lat="47.87076" lon="-2.52229">
        <ele>118</ele>
        <time>2023-07-22T09:05:55.138Z</time>
      </trkpt>
      <trkpt lat="47.87074" lon="-2.5223">
        <ele>119</ele>
        <time>2023-07-22T09:05:56.138Z</time>
      </trkpt>
      <trkpt lat="47.87073" lon="-2.52232">
        <ele>119</ele>
        <time>2023-07-22T09:05:57.138Z</time>
      </trkpt>
      <trkpt lat="47.87072" lon="-2.52234">
        <ele>119</ele>
        <time>2023-07-22T09:05:58.138Z</time>
      </trkpt>
      <trkpt lat="47.87071" lon="-2.52234">
        <ele>119</ele>
        <time>2023-07-22T09:05:59.138Z</time>
      </trkpt>
      <trkpt lat="47.8707" lon="-2.52234">
        <ele>119</ele>
        <time>2023-07-22T09:06:00.138Z</time>
      </trkpt>
      <trkpt lat="47.87069" lon="-2.52233">
        <ele>119</ele>
        <time>2023-07-22T09:06:01.138Z</time>
      </trkpt>
      <trkpt lat="47.87068" lon="-2.52233">
        <ele>119</ele>
        <time>2023-07-22T09:06:02.138Z</time>
      </trkpt>
      <trkpt lat="47.87067" lon="-2.52232">
        <ele>118</ele>
        <time>2023-07-22T09:06:03.138Z</time>
      </trkpt>
      <trkpt lat="47.87066" lon="-2.52231">
        <ele>118</ele>
        <time>2023-07-22T09:06:04.138Z</time>
      </trkpt>
      <trkpt lat="47.87066" lon="-2.52231">
        <ele>117</ele>
        <time>2023-07-22T09:06:05.139Z</time>
      </trkpt>
      <trkpt lat="47.87065" lon="-2.5223">
        <ele>117</ele>
        <time>2023-07-22T09:06:06.139Z</time>
      </trkpt>
      <trkpt lat="47.87064" lon="-2.5223">
        <ele>116</ele>
        <time>2023-07-22T09:06:07.138Z</time>
      </trkpt>
      <trkpt lat="47.87064" lon="-2.52229">
        <ele>115</ele>
        <time>2023-07-22T09:06:08.139Z</time>
      </trkpt>
      <trkpt lat="47.87063" lon="-2.52228">
        <ele>115</ele>
        <time>2023-07-22T09:06:09.139Z</time>
      </trkpt>
      <trkpt lat="47.87063" lon="-2.52227">
        <ele>114</ele>
        <time>2023-07-22T09:06:10.138Z</time>
      </trkpt>
      <trkpt lat="47.87063" lon="-2.52227">
        <ele>114</ele>
        <time>2023-07-22T09:06:11.138Z</time>
      </trkpt>
      <trkpt lat="47.87063" lon="-2.52226">
        <ele>114</ele>
        <time>2023-07-22T09:06:12.139Z</time>
      </trkpt>
      <trkpt lat="47.87062" lon="-2.52225">
        <ele>114</ele>
        <time>2023-07-22T09:06:13.138Z</time>
      </trkpt>
      <trkpt lat="47.87061" lon="-2.52225">
        <ele>114</ele>
        <time>2023-07-22T09:06:14.138Z</time>
      </trkpt>
      <trkpt lat="47.87061" lon="-2.52224">
        <ele>113</ele>
        <time>2023-07-22T09:06:15.138Z</time>
      </trkpt>
      <trkpt lat="47.8706" lon="-2.52223">
        <ele>113</ele>
        <time>2023-07-22T09:06:16.138Z</time>
      </trkpt>
      <trkpt lat="47.8706" lon="-2.52222">
        <ele>113</ele>
        <time>2023-07-22T09:06:17.139Z</time>
      </trkpt>
      <trkpt lat="47.87059" lon="-2.52221">
        <ele>112</ele>
        <time>2023-07-22T09:06:18.138Z</time>
      </trkpt>
      <trkpt lat="47.87058" lon="-2.52221">
        <ele>112</ele>
        <time>2023-07-22T09:06:19.138Z</time>
      </trkpt>
      <trkpt lat="47.87058" lon="-2.52221">
        <ele>111</ele>
        <time>2023-07-22T09:06:20.138Z</time>
      </trkpt>
      <trkpt lat="47.87058" lon="-2.5222">
        <ele>111</ele>
        <time>2023-07-22T09:06:21.139Z</time>
      </trkpt>
      <trkpt lat="47.87058" lon="-2.5222">
        <ele>111</ele>
        <time>2023-07-22T09:06:22.138Z</time>
      </trkpt>
      <trkpt lat="47.87057" lon="-2.52219">
        <ele>110</ele>
        <time>2023-07-22T09:06:23.139Z</time>
      </trkpt>
      <trkpt lat="47.87056" lon="-2.52217">
        <ele>109</ele>
        <time>2023-07-22T09:06:24.139Z</time>
      </trkpt>
      <trkpt lat="47.87055" lon="-2.52216">
        <ele>108</ele>
        <time>2023-07-22T09:06:25.139Z</time>
      </trkpt>
      <trkpt lat="47.87055" lon="-2.52215">
        <ele>107</ele>
        <time>2023-07-22T09:06:26.139Z</time>
      </trkpt>
      <trkpt lat="47.87054" lon="-2.52214">
        <ele>106</ele>
        <time>2023-07-22T09:06:27.139Z</time>
      </trkpt>
      <trkpt lat="47.87052" lon="-2.52213">
        <ele>106</ele>
        <time>2023-07-22T09:06:28.138Z</time>
      </trkpt>
      <trkpt lat="47.87051" lon="-2.52212">
        <ele>105</ele>
        <time>2023-07-22T09:06:29.138Z</time>
      </trkpt>
      <trkpt lat="47.8705" lon="-2.5221">
        <ele>105</ele>
        <time>2023-07-22T09:06:30.138Z</time>
      </trkpt>
      <trkpt lat="47.8705" lon="-2.5221">
        <ele>105</ele>
        <time>2023-07-22T09:06:31.138Z</time>
      </trkpt>
      <trkpt lat="47.8705" lon="-2.52209">
        <ele>106</ele>
        <time>2023-07-22T09:06:32.138Z</time>
      </trkpt>
      <trkpt lat="47.87049" lon="-2.52209">
        <ele>106</ele>
        <time>2023-07-22T09:06:33.138Z</time>
      </trkpt>
      <trkpt lat="47.87048" lon="-2.52208">
        <ele>106</ele>
        <time>2023-07-22T09:06:34.138Z</time>
      </trkpt>
      <trkpt lat="47.87048" lon="-2.52207">
        <ele>107</ele>
        <time>2023-07-22T09:06:35.138Z</time>
      </trkpt>
      <trkpt lat="47.87047" lon="-2.52206">
        <ele>107</ele>
        <time>2023-07-22T09:06:36.138Z</time>
      </trkpt>
      <trkpt lat="47.87046" lon="-2.52205">
        <ele>108</ele>
        <time>2023-07-22T09:06:37.138Z</time>
      </trkpt>
      <trkpt lat="47.87046" lon="-2.52203">
        <ele>108</ele>
        <time>2023-07-22T09:06:38.139Z</time>
      </trkpt>
      <trkpt lat="47.87047" lon="-2.52202">
        <ele>108</ele>
        <time>2023-07-22T09:06:39.139Z</time>
      </trkpt>
      <trkpt lat="47.87047" lon="-2.52201">
        <ele>108</ele>
        <time>2023-07-22T09:06:40.139Z</time>
      </trkpt>
      <trkpt lat="47.87047" lon="-2.52201">
        <ele>109</ele>
        <time>2023-07-22T09:06:41.139Z</time>
      </trkpt>
      <trkpt lat="47.87046" lon="-2.522">
        <ele>109</ele>
        <time>2023-07-22T09:06:42.139Z</time>
      </trkpt>
      <trkpt lat="47.87046" lon="-2.52199">
        <ele>109</ele>
        <time>2023-07-22T09:06:43.139Z</time>
      </trkpt>
      <trkpt lat="47.87046" lon="-2.52198">
        <ele>110</ele>
        <time>2023-07-22T09:06:44.138Z</time>
      </trkpt>
      <trkpt lat="47.87046" lon="-2.52198">
        <ele>110</ele>
        <time>2023-07-22T09:06:45.138Z</time>
      </trkpt>
      <trkpt lat="47.87046" lon="-2.52198">
        <ele>111</ele>
        <time>2023-07-22T09:06:46.139Z</time>
      </trkpt>
      <trkpt lat="47.87047" lon="-2.52196">
        <ele>111</ele>
        <time>2023-07-22T09:06:47.138Z</time>
      </trkpt>
      <trkpt lat="47.87047" lon="-2.52196">
        <ele>112</ele>
        <time>2023-07-22T09:06:48.138Z</time>
      </trkpt>
      <trkpt lat="47.87047" lon="-2.52194">
        <ele>112</ele>
        <time>2023-07-22T09:06:49.138Z</time>
      </trkpt>
      <trkpt lat="47.87046" lon="-2.52193">
        <ele>113</ele>
        <time>2023-07-22T09:06:50.138Z</time>
      </trkpt>
      <trkpt lat="47.87046" lon="-2.52191">
        <ele>113</ele>
        <time>2023-07-22T09:06:51.138Z</time>
      </trkpt>
      <trkpt lat="47.87046" lon="-2.52189">
        <ele>113</ele>
        <time>2023-07-22T09:06:52.138Z</time>
      </trkpt>
      <trkpt lat="47.87045" lon="-2.52186">
        <ele>113</ele>
        <time>2023-07-22T09:06:53.138Z</time>
      </trkpt>
      <trkpt lat="47.87045" lon="-2.52186">
        <ele>114</ele>
        <time>2023-07-22T09:06:54.138Z</time>
      </trkpt>
      <trkpt lat="47.87045" lon="-2.52185">
        <ele>114</ele>
        <time>2023-07-22T09:06:55.139Z</time>
      </trkpt>
      <trkpt lat="47.87045" lon="-2.52183">
        <ele>114</ele>
        <time>2023-07-22T09:06:56.139Z</time>
      </trkpt>
      <trkpt lat="47.87045" lon="-2.52183">
        <ele>114</ele>
        <time>2023-07-22T09:06:57.139Z</time>
      </trkpt>
      <trkpt lat="47.87044" lon="-2.52181">
        <ele>114</ele>
        <time>2023-07-22T09:06:58.139Z</time>
      </trkpt>
      <trkpt lat="47.87043" lon="-2.52179">
        <ele>115</ele>
        <time>2023-07-22T09:06:59.138Z</time>
      </trkpt>
      <trkpt lat="47.87043" lon="-2.52177">
        <ele>115</ele>
        <time>2023-07-22T09:07:00.138Z</time>
      </trkpt>
      <trkpt lat="47.87043" lon="-2.52177">
        <ele>114</ele>
        <time>2023-07-22T09:07:01.138Z</time>
      </trkpt>
      <trkpt lat="47.87043" lon="-2.52175">
        <ele>114</ele>
        <time>2023-07-22T09:07:02.139Z</time>
      </trkpt>
      <trkpt lat="47.87044" lon="-2.52174">
        <ele>114</ele>
        <time>2023-07-22T09:07:03.138Z</time>
      </trkpt>
      <trkpt lat="47.87044" lon="-2.52172">
        <ele>113</ele>
        <time>2023-07-22T09:07:04.138Z</time>
      </trkpt>
      <trkpt lat="47.87044" lon="-2.52171">
        <ele>113</ele>
        <time>2023-07-22T09:07:05.138Z</time>
      </trkpt>
      <trkpt lat="47.87044" lon="-2.52171">
        <ele>113</ele>
        <time>2023-07-22T09:07:06.138Z</time>
      </trkpt>
      <trkpt lat="47.87044" lon="-2.52169">
        <ele>113</ele>
        <time>2023-07-22T09:07:07.138Z</time>
      </trkpt>
      <trkpt lat="47.87044" lon="-2.52167">
        <ele>113</ele>
        <time>2023-07-22T09:07:08.138Z</time>
      </trkpt>
      <trkpt lat="47.87043" lon="-2.52165">
        <ele>113</ele>
        <time>2023-07-22T09:07:09.138Z</time>
      </trkpt>
      <trkpt lat="47.87042" lon="-2.52164">
        <ele>113</ele>
        <time>2023-07-22T09:07:10.138Z</time>
      </trkpt>
      <trkpt lat="47.87042" lon="-2.52164">
        <ele>112</ele>
        <time>2023-07-22T09:07:11.139Z</time>
      </trkpt>
      <trkpt lat="47.8704" lon="-2.52162">
        <ele>112</ele>
        <time>2023-07-22T09:07:12.139Z</time>
      </trkpt>
      <trkpt lat="47.8704" lon="-2.5216">
        <ele>112</ele>
        <time>2023-07-22T09:07:13.139Z</time>
      </trkpt>
      <trkpt lat="47.87041" lon="-2.52158">
        <ele>111</ele>
        <time>2023-07-22T09:07:14.139Z</time>
      </trkpt>
      <trkpt lat="47.87041" lon="-2.52157">
        <ele>111</ele>
        <time>2023-07-22T09:07:15.139Z</time>
      </trkpt>
      <trkpt lat="47.87042" lon="-2.52156">
        <ele>110</ele>
        <time>2023-07-22T09:07:16.138Z</time>
      </trkpt>
      <trkpt lat="47.87042" lon="-2.52154">
        <ele>110</ele>
        <time>2023-07-22T09:07:17.138Z</time>
      </trkpt>
      <trkpt lat="47.87041" lon="-2.52153">
        <ele>110</ele>
        <time>2023-07-22T09:07:18.138Z</time>
      </trkpt>
      <trkpt lat="47.8704" lon="-2.52151">
        <ele>109</ele>
        <time>2023-07-22T09:07:19.138Z</time>
      </trkpt>
      <trkpt lat="47.87041" lon="-2.5215">
        <ele>109</ele>
        <time>2023-07-22T09:07:20.138Z</time>
      </trkpt>
      <trkpt lat="47.87041" lon="-2.52149">
        <ele>109</ele>
        <time>2023-07-22T09:07:21.138Z</time>
      </trkpt>
      <trkpt lat="47.8704" lon="-2.52148">
        <ele>109</ele>
        <time>2023-07-22T09:07:22.138Z</time>
      </trkpt>
      <trkpt lat="47.8704" lon="-2.52148">
        <ele>109</ele>
        <time>2023-07-22T09:07:23.139Z</time>
      </trkpt>
      <trkpt lat="47.8704" lon="-2.52147">
        <ele>109</ele>
        <time>2023-07-22T09:07:24.139Z</time>
      </trkpt>
      <trkpt lat="47.87039" lon="-2.52146">
        <ele>109</ele>
        <time>2023-07-22T09:07:25.139Z</time>
      </trkpt>
      <trkpt lat="47.87039" lon="-2.52146">
        <ele>109</ele>
        <time>2023-07-22T09:07:26.139Z</time>
      </trkpt>
      <trkpt lat="47.87038" lon="-2.52146">
        <ele>109</ele>
        <time>2023-07-22T09:07:27.139Z</time>
      </trkpt>
      <trkpt lat="47.87038" lon="-2.52146">
        <ele>109</ele>
        <time>2023-07-22T09:07:28.138Z</time>
      </trkpt>
      <trkpt lat="47.87037" lon="-2.52147">
        <ele>108</ele>
        <time>2023-07-22T09:07:29.138Z</time>
      </trkpt>
      <trkpt lat="47.87036" lon="-2.52148">
        <ele>108</ele>
        <time>2023-07-22T09:07:30.139Z</time>
      </trkpt>
      <trkpt lat="47.87035" lon="-2.52149">
        <ele>108</ele>
        <time>2023-07-22T09:07:31.138Z</time>
      </trkpt>
      <trkpt lat="47.87032" lon="-2.52151">
        <ele>106</ele>
        <time>2023-07-22T09:07:38.494Z</time>
      </trkpt>
      <trkpt lat="47.87031" lon="-2.52151">
        <ele>106</ele>
        <time>2023-07-22T09:07:39.495Z</time>
      </trkpt>
      <trkpt lat="47.87031" lon="-2.52151">
        <ele>105</ele>
        <time>2023-07-22T09:07:40.495Z</time>
      </trkpt>
      <trkpt lat="47.87031" lon="-2.52152">
        <ele>105</ele>
        <time>2023-07-22T09:07:41.494Z</time>
      </trkpt>
      <trkpt lat="47.8703" lon="-2.52152">
        <ele>104</ele>
        <time>2023-07-22T09:07:42.494Z</time>
      </trkpt>
      <trkpt lat="47.8703" lon="-2.52152">
        <ele>104</ele>
        <time>2023-07-22T09:07:43.495Z</time>
      </trkpt>
      <trkpt lat="47.8703" lon="-2.52152">
        <ele>103</ele>
        <time>2023-07-22T09:07:44.495Z</time>
      </trkpt>
      <trkpt lat="47.8703" lon="-2.52152">
        <ele>103</ele>
        <time>2023-07-22T09:07:45.494Z</time>
      </trkpt>
      <trkpt lat="47.8703" lon="-2.52152">
        <ele>102</ele>
        <time>2023-07-22T09:07:46.494Z</time>
      </trkpt>
      <trkpt lat="47.87029" lon="-2.52152">
        <ele>102</ele>
        <time>2023-07-22T09:07:47.494Z</time>
      </trkpt>
      <trkpt lat="47.87027" lon="-2.52153">
        <ele>102</ele>
        <time>2023-07-22T09:07:48.494Z</time>
      </trkpt>
      <trkpt lat="47.87027" lon="-2.52153">
        <ele>102</ele>
        <time>2023-07-22T09:07:49.495Z</time>
      </trkpt>
      <trkpt lat="47.87025" lon="-2.52152">
        <ele>102</ele>
        <time>2023-07-22T09:07:50.494Z</time>
      </trkpt>
      <trkpt lat="47.87024" lon="-2.52151">
        <ele>102</ele>
        <time>2023-07-22T09:07:51.495Z</time>
      </trkpt>
      <trkpt lat="47.87022" lon="-2.52151">
        <ele>102</ele>
        <time>2023-07-22T09:07:52.494Z</time>
      </trkpt>
      <trkpt lat="47.87021" lon="-2.5215">
        <ele>102</ele>
        <time>2023-07-22T09:07:53.494Z</time>
      </trkpt>
      <trkpt lat="47.8702" lon="-2.52149">
        <ele>102</ele>
        <time>2023-07-22T09:07:54.495Z</time>
      </trkpt>
      <trkpt lat="47.87018" lon="-2.52149">
        <ele>102</ele>
        <time>2023-07-22T09:07:55.494Z</time>
      </trkpt>
      <trkpt lat="47.87017" lon="-2.52148">
        <ele>102</ele>
        <time>2023-07-22T09:07:56.494Z</time>
      </trkpt>
      <trkpt lat="47.87016" lon="-2.52147">
        <ele>102</ele>
        <time>2023-07-22T09:07:57.494Z</time>
      </trkpt>
      <trkpt lat="47.87015" lon="-2.52147">
        <ele>101</ele>
        <time>2023-07-22T09:07:58.495Z</time>
      </trkpt>
      <trkpt lat="47.87014" lon="-2.52146">
        <ele>101</ele>
        <time>2023-07-22T09:07:59.495Z</time>
      </trkpt>
      <trkpt lat="47.87013" lon="-2.52145">
        <ele>101</ele>
        <time>2023-07-22T09:08:00.494Z</time>
      </trkpt>
      <trkpt lat="47.87012" lon="-2.52145">
        <ele>101</ele>
        <time>2023-07-22T09:08:01.494Z</time>
      </trkpt>
      <trkpt lat="47.87012" lon="-2.52144">
        <ele>101</ele>
        <time>2023-07-22T09:08:02.495Z</time>
      </trkpt>
      <trkpt lat="47.87011" lon="-2.52144">
        <ele>101</ele>
        <time>2023-07-22T09:08:03.495Z</time>
      </trkpt>
      <trkpt lat="47.8701" lon="-2.52144">
        <ele>101</ele>
        <time>2023-07-22T09:08:04.495Z</time>
      </trkpt>
      <trkpt lat="47.87009" lon="-2.52144">
        <ele>102</ele>
        <time>2023-07-22T09:08:05.495Z</time>
      </trkpt>
      <trkpt lat="47.87008" lon="-2.52143">
        <ele>102</ele>
        <time>2023-07-22T09:08:06.495Z</time>
      </trkpt>
      <trkpt lat="47.87008" lon="-2.52143">
        <ele>102</ele>
        <time>2023-07-22T09:08:07.494Z</time>
      </trkpt>
      <trkpt lat="47.87007" lon="-2.52143">
        <ele>102</ele>
        <time>2023-07-22T09:08:08.494Z</time>
      </trkpt>
      <trkpt lat="47.87007" lon="-2.52143">
        <ele>103</ele>
        <time>2023-07-22T09:08:09.495Z</time>
      </trkpt>
      <trkpt lat="47.87007" lon="-2.52143">
        <ele>103</ele>
        <time>2023-07-22T09:08:10.494Z</time>
      </trkpt>
      <trkpt lat="47.87006" lon="-2.52143">
        <ele>103</ele>
        <time>2023-07-22T09:08:11.494Z</time>
      </trkpt>
      <trkpt lat="47.87006" lon="-2.52143">
        <ele>103</ele>
        <time>2023-07-22T09:08:12.495Z</time>
      </trkpt>
      <trkpt lat="47.87005" lon="-2.52143">
        <ele>103</ele>
        <time>2023-07-22T09:08:13.495Z</time>
      </trkpt>
      <trkpt lat="47.87004" lon="-2.52142">
        <ele>103</ele>
        <time>2023-07-22T09:08:14.494Z</time>
      </trkpt>
      <trkpt lat="47.87003" lon="-2.52142">
        <ele>103</ele>
        <time>2023-07-22T09:08:15.495Z</time>
      </trkpt>
      <trkpt lat="47.87003" lon="-2.52141">
        <ele>103</ele>
        <time>2023-07-22T09:08:16.494Z</time>
      </trkpt>
      <trkpt lat="47.87002" lon="-2.52141">
        <ele>103</ele>
        <time>2023-07-22T09:08:17.495Z</time>
      </trkpt>
      <trkpt lat="47.87002" lon="-2.52141">
        <ele>103</ele>
        <time>2023-07-22T09:08:18.494Z</time>
      </trkpt>
      <trkpt lat="47.87001" lon="-2.5214">
        <ele>103</ele>
        <time>2023-07-22T09:08:19.494Z</time>
      </trkpt>
      <trkpt lat="47.86999" lon="-2.52139">
        <ele>103</ele>
        <time>2023-07-22T09:08:20.494Z</time>
      </trkpt>
      <trkpt lat="47.86998" lon="-2.52136">
        <ele>102</ele>
        <time>2023-07-22T09:08:21.494Z</time>
      </trkpt>
      <trkpt lat="47.86997" lon="-2.52134">
        <ele>102</ele>
        <time>2023-07-22T09:08:22.495Z</time>
      </trkpt>
      <trkpt lat="47.86997" lon="-2.52133">
        <ele>102</ele>
        <time>2023-07-22T09:08:23.494Z</time>
      </trkpt>
      <trkpt lat="47.86996" lon="-2.52132">
        <ele>102</ele>
        <time>2023-07-22T09:08:24.494Z</time>
      </trkpt>
      <trkpt lat="47.86996" lon="-2.5213">
        <ele>102</ele>
        <time>2023-07-22T09:08:25.494Z</time>
      </trkpt>
      <trkpt lat="47.86995" lon="-2.52128">
        <ele>102</ele>
        <time>2023-07-22T09:08:26.494Z</time>
      </trkpt>
      <trkpt lat="47.86995" lon="-2.52127">
        <ele>102</ele>
        <time>2023-07-22T09:08:27.495Z</time>
      </trkpt>
      <trkpt lat="47.86994" lon="-2.52127">
        <ele>102</ele>
        <time>2023-07-22T09:08:28.495Z</time>
      </trkpt>
      <trkpt lat="47.86992" lon="-2.52126">
        <ele>102</ele>
        <time>2023-07-22T09:08:29.494Z</time>
      </trkpt>
      <trkpt lat="47.86992" lon="-2.52126">
        <ele>102</ele>
        <time>2023-07-22T09:08:30.495Z</time>
      </trkpt>
      <trkpt lat="47.86991" lon="-2.52125">
        <ele>102</ele>
        <time>2023-07-22T09:08:31.495Z</time>
      </trkpt>
      <trkpt lat="47.86989" lon="-2.52124">
        <ele>102</ele>
        <time>2023-07-22T09:08:32.495Z</time>
      </trkpt>
      <trkpt lat="47.86988" lon="-2.52124">
        <ele>102</ele>
        <time>2023-07-22T09:08:33.494Z</time>
      </trkpt>
      <trkpt lat="47.86988" lon="-2.52124">
        <ele>102</ele>
        <time>2023-07-22T09:08:34.494Z</time>
      </trkpt>
      <trkpt lat="47.86988" lon="-2.52123">
        <ele>102</ele>
        <time>2023-07-22T09:08:35.494Z</time>
      </trkpt>
      <trkpt lat="47.86987" lon="-2.52122">
        <ele>102</ele>
        <time>2023-07-22T09:08:36.494Z</time>
      </trkpt>
      <trkpt lat="47.86986" lon="-2.5212">
        <ele>102</ele>
        <time>2023-07-22T09:08:37.495Z</time>
      </trkpt>
      <trkpt lat="47.86985" lon="-2.52119">
        <ele>102</ele>
        <time>2023-07-22T09:08:38.495Z</time>
      </trkpt>
      <trkpt lat="47.86985" lon="-2.5212">
        <ele>102</ele>
        <time>2023-07-22T09:08:39.494Z</time>
      </trkpt>
      <trkpt lat="47.86984" lon="-2.5212">
        <ele>101</ele>
        <time>2023-07-22T09:08:40.494Z</time>
      </trkpt>
      <trkpt lat="47.86983" lon="-2.5212">
        <ele>101</ele>
        <time>2023-07-22T09:08:41.494Z</time>
      </trkpt>
      <trkpt lat="47.86983" lon="-2.52121">
        <ele>101</ele>
        <time>2023-07-22T09:08:42.494Z</time>
      </trkpt>
      <trkpt lat="47.86982" lon="-2.52122">
        <ele>100</ele>
        <time>2023-07-22T09:08:43.494Z</time>
      </trkpt>
      <trkpt lat="47.86981" lon="-2.52122">
        <ele>100</ele>
        <time>2023-07-22T09:08:44.495Z</time>
      </trkpt>
      <trkpt lat="47.86981" lon="-2.52123">
        <ele>100</ele>
        <time>2023-07-22T09:08:45.494Z</time>
      </trkpt>
      <trkpt lat="47.86981" lon="-2.52123">
        <ele>100</ele>
        <time>2023-07-22T09:08:46.494Z</time>
      </trkpt>
      <trkpt lat="47.8698" lon="-2.52123">
        <ele>99</ele>
        <time>2023-07-22T09:08:47.494Z</time>
      </trkpt>
      <trkpt lat="47.8698" lon="-2.52124">
        <ele>99</ele>
        <time>2023-07-22T09:08:48.494Z</time>
      </trkpt>
      <trkpt lat="47.8698" lon="-2.52124">
        <ele>99</ele>
        <time>2023-07-22T09:08:49.494Z</time>
      </trkpt>
      <trkpt lat="47.86978" lon="-2.52124">
        <ele>99</ele>
        <time>2023-07-22T09:08:50.494Z</time>
      </trkpt>
      <trkpt lat="47.86978" lon="-2.52124">
        <ele>99</ele>
        <time>2023-07-22T09:08:51.494Z</time>
      </trkpt>
      <trkpt lat="47.86978" lon="-2.52124">
        <ele>99</ele>
        <time>2023-07-22T09:08:52.494Z</time>
      </trkpt>
      <trkpt lat="47.86977" lon="-2.52127">
        <ele>99</ele>
        <time>2023-07-22T09:08:57.840Z</time>
      </trkpt>
      <trkpt lat="47.86977" lon="-2.52127">
        <ele>99</ele>
        <time>2023-07-22T09:08:58.840Z</time>
      </trkpt>
      <trkpt lat="47.86976" lon="-2.52127">
        <ele>99</ele>
        <time>2023-07-22T09:08:59.840Z</time>
      </trkpt>
      <trkpt lat="47.86976" lon="-2.52127">
        <ele>99</ele>
        <time>2023-07-22T09:09:00.840Z</time>
      </trkpt>
      <trkpt lat="47.86971" lon="-2.52129">
        <ele>100</ele>
        <time>2023-07-22T09:09:10.147Z</time>
      </trkpt>
      <trkpt lat="47.8697" lon="-2.52129">
        <ele>100</ele>
        <time>2023-07-22T09:09:11.146Z</time>
      </trkpt>
      <trkpt lat="47.86969" lon="-2.52128">
        <ele>100</ele>
        <time>2023-07-22T09:09:12.147Z</time>
      </trkpt>
      <trkpt lat="47.86968" lon="-2.52129">
        <ele>101</ele>
        <time>2023-07-22T09:09:13.146Z</time>
      </trkpt>
      <trkpt lat="47.86967" lon="-2.52129">
        <ele>101</ele>
        <time>2023-07-22T09:09:14.147Z</time>
      </trkpt>
      <trkpt lat="47.86966" lon="-2.52129">
        <ele>101</ele>
        <time>2023-07-22T09:09:15.147Z</time>
      </trkpt>
      <trkpt lat="47.86964" lon="-2.5213">
        <ele>102</ele>
        <time>2023-07-22T09:09:16.147Z</time>
      </trkpt>
      <trkpt lat="47.86963" lon="-2.5213">
        <ele>102</ele>
        <time>2023-07-22T09:09:17.146Z</time>
      </trkpt>
      <trkpt lat="47.86961" lon="-2.52131">
        <ele>102</ele>
        <time>2023-07-22T09:09:18.147Z</time>
      </trkpt>
      <trkpt lat="47.8696" lon="-2.52131">
        <ele>102</ele>
        <time>2023-07-22T09:09:19.146Z</time>
      </trkpt>
      <trkpt lat="47.8696" lon="-2.52132">
        <ele>102</ele>
        <time>2023-07-22T09:09:20.147Z</time>
      </trkpt>
      <trkpt lat="47.86959" lon="-2.52132">
        <ele>102</ele>
        <time>2023-07-22T09:09:21.146Z</time>
      </trkpt>
      <trkpt lat="47.86959" lon="-2.52133">
        <ele>103</ele>
        <time>2023-07-22T09:09:22.147Z</time>
      </trkpt>
      <trkpt lat="47.86959" lon="-2.52133">
        <ele>103</ele>
        <time>2023-07-22T09:09:23.147Z</time>
      </trkpt>
      <trkpt lat="47.86957" lon="-2.52132">
        <ele>103</ele>
        <time>2023-07-22T09:09:24.147Z</time>
      </trkpt>
      <trkpt lat="47.86955" lon="-2.5213">
        <ele>103</ele>
        <time>2023-07-22T09:09:25.147Z</time>
      </trkpt>
      <trkpt lat="47.86953" lon="-2.52129">
        <ele>103</ele>
        <time>2023-07-22T09:09:26.146Z</time>
      </trkpt>
      <trkpt lat="47.86951" lon="-2.52128">
        <ele>104</ele>
        <time>2023-07-22T09:09:27.147Z</time>
      </trkpt>
      <trkpt lat="47.86951" lon="-2.52129">
        <ele>104</ele>
        <time>2023-07-22T09:09:28.146Z</time>
      </trkpt>
      <trkpt lat="47.8695" lon="-2.52129">
        <ele>104</ele>
        <time>2023-07-22T09:09:29.147Z</time>
      </trkpt>
      <trkpt lat="47.86949" lon="-2.52129">
        <ele>104</ele>
        <time>2023-07-22T09:09:30.146Z</time>
      </trkpt>
      <trkpt lat="47.86949" lon="-2.5213">
        <ele>104</ele>
        <time>2023-07-22T09:09:31.147Z</time>
      </trkpt>
      <trkpt lat="47.86948" lon="-2.5213">
        <ele>103</ele>
        <time>2023-07-22T09:09:32.146Z</time>
      </trkpt>
      <trkpt lat="47.86947" lon="-2.5213">
        <ele>103</ele>
        <time>2023-07-22T09:09:33.147Z</time>
      </trkpt>
      <trkpt lat="47.86946" lon="-2.5213">
        <ele>102</ele>
        <time>2023-07-22T09:09:34.146Z</time>
      </trkpt>
      <trkpt lat="47.86945" lon="-2.5213">
        <ele>102</ele>
        <time>2023-07-22T09:09:35.147Z</time>
      </trkpt>
      <trkpt lat="47.86944" lon="-2.52131">
        <ele>101</ele>
        <time>2023-07-22T09:09:36.146Z</time>
      </trkpt>
      <trkpt lat="47.86942" lon="-2.52131">
        <ele>101</ele>
        <time>2023-07-22T09:09:37.147Z</time>
      </trkpt>
      <trkpt lat="47.86941" lon="-2.52131">
        <ele>101</ele>
        <time>2023-07-22T09:09:38.146Z</time>
      </trkpt>
      <trkpt lat="47.8694" lon="-2.52132">
        <ele>102</ele>
        <time>2023-07-22T09:09:39.147Z</time>
      </trkpt>
      <trkpt lat="47.8694" lon="-2.52134">
        <ele>102</ele>
        <time>2023-07-22T09:09:40.146Z</time>
      </trkpt>
      <trkpt lat="47.86939" lon="-2.52135">
        <ele>102</ele>
        <time>2023-07-22T09:09:41.146Z</time>
      </trkpt>
      <trkpt lat="47.86939" lon="-2.52137">
        <ele>102</ele>
        <time>2023-07-22T09:09:42.146Z</time>
      </trkpt>
      <trkpt lat="47.86939" lon="-2.52138">
        <ele>102</ele>
        <time>2023-07-22T09:09:43.146Z</time>
      </trkpt>
      <trkpt lat="47.86939" lon="-2.5214">
        <ele>102</ele>
        <time>2023-07-22T09:09:44.147Z</time>
      </trkpt>
      <trkpt lat="47.86939" lon="-2.52141">
        <ele>103</ele>
        <time>2023-07-22T09:09:45.146Z</time>
      </trkpt>
      <trkpt lat="47.86939" lon="-2.52142">
        <ele>103</ele>
        <time>2023-07-22T09:09:46.147Z</time>
      </trkpt>
      <trkpt lat="47.86939" lon="-2.52142">
        <ele>103</ele>
        <time>2023-07-22T09:09:47.146Z</time>
      </trkpt>
      <trkpt lat="47.86939" lon="-2.52145">
        <ele>103</ele>
        <time>2023-07-22T09:09:48.147Z</time>
      </trkpt>
      <trkpt lat="47.8694" lon="-2.52148">
        <ele>103</ele>
        <time>2023-07-22T09:09:49.146Z</time>
      </trkpt>
      <trkpt lat="47.8694" lon="-2.5215">
        <ele>103</ele>
        <time>2023-07-22T09:09:50.147Z</time>
      </trkpt>
      <trkpt lat="47.86941" lon="-2.52151">
        <ele>103</ele>
        <time>2023-07-22T09:09:51.146Z</time>
      </trkpt>
      <trkpt lat="47.86941" lon="-2.52153">
        <ele>103</ele>
        <time>2023-07-22T09:09:52.147Z</time>
      </trkpt>
      <trkpt lat="47.86941" lon="-2.52155">
        <ele>103</ele>
        <time>2023-07-22T09:09:53.146Z</time>
      </trkpt>
      <trkpt lat="47.86941" lon="-2.52156">
        <ele>103</ele>
        <time>2023-07-22T09:09:54.147Z</time>
      </trkpt>
      <trkpt lat="47.86941" lon="-2.52157">
        <ele>104</ele>
        <time>2023-07-22T09:09:55.147Z</time>
      </trkpt>
      <trkpt lat="47.86941" lon="-2.52158">
        <ele>104</ele>
        <time>2023-07-22T09:09:56.147Z</time>
      </trkpt>
      <trkpt lat="47.86941" lon="-2.52159">
        <ele>104</ele>
        <time>2023-07-22T09:09:57.147Z</time>
      </trkpt>
      <trkpt lat="47.86941" lon="-2.5216">
        <ele>104</ele>
        <time>2023-07-22T09:09:58.146Z</time>
      </trkpt>
      <trkpt lat="47.86941" lon="-2.52162">
        <ele>104</ele>
        <time>2023-07-22T09:09:59.147Z</time>
      </trkpt>
      <trkpt lat="47.86941" lon="-2.52163">
        <ele>104</ele>
        <time>2023-07-22T09:10:00.146Z</time>
      </trkpt>
      <trkpt lat="47.86941" lon="-2.52165">
        <ele>104</ele>
        <time>2023-07-22T09:10:01.147Z</time>
      </trkpt>
      <trkpt lat="47.86941" lon="-2.52167">
        <ele>104</ele>
        <time>2023-07-22T09:10:02.146Z</time>
      </trkpt>
      <trkpt lat="47.86941" lon="-2.52169">
        <ele>105</ele>
        <time>2023-07-22T09:10:03.147Z</time>
      </trkpt>
      <trkpt lat="47.8694" lon="-2.52171">
        <ele>105</ele>
        <time>2023-07-22T09:10:04.146Z</time>
      </trkpt>
      <trkpt lat="47.8694" lon="-2.52174">
        <ele>105</ele>
        <time>2023-07-22T09:10:05.147Z</time>
      </trkpt>
      <trkpt lat="47.86941" lon="-2.52176">
        <ele>105</ele>
        <time>2023-07-22T09:10:06.146Z</time>
      </trkpt>
      <trkpt lat="47.86941" lon="-2.52178">
        <ele>105</ele>
        <time>2023-07-22T09:10:07.147Z</time>
      </trkpt>
      <trkpt lat="47.86941" lon="-2.5218">
        <ele>105</ele>
        <time>2023-07-22T09:10:08.146Z</time>
      </trkpt>
      <trkpt lat="47.86941" lon="-2.52182">
        <ele>105</ele>
        <time>2023-07-22T09:10:09.147Z</time>
      </trkpt>
      <trkpt lat="47.86941" lon="-2.52184">
        <ele>105</ele>
        <time>2023-07-22T09:10:10.146Z</time>
      </trkpt>
      <trkpt lat="47.86942" lon="-2.52185">
        <ele>105</ele>
        <time>2023-07-22T09:10:11.147Z</time>
      </trkpt>
      <trkpt lat="47.86942" lon="-2.52186">
        <ele>105</ele>
        <time>2023-07-22T09:10:12.146Z</time>
      </trkpt>
      <trkpt lat="47.86942" lon="-2.52188">
        <ele>105</ele>
        <time>2023-07-22T09:10:13.146Z</time>
      </trkpt>
      <trkpt lat="47.86942" lon="-2.52191">
        <ele>105</ele>
        <time>2023-07-22T09:10:14.147Z</time>
      </trkpt>
      <trkpt lat="47.86942" lon="-2.52193">
        <ele>105</ele>
        <time>2023-07-22T09:10:15.146Z</time>
      </trkpt>
      <trkpt lat="47.86941" lon="-2.52196">
        <ele>105</ele>
        <time>2023-07-22T09:10:16.146Z</time>
      </trkpt>
      <trkpt lat="47.8694" lon="-2.52199">
        <ele>105</ele>
        <time>2023-07-22T09:10:17.146Z</time>
      </trkpt>
      <trkpt lat="47.8694" lon="-2.52201">
        <ele>106</ele>
        <time>2023-07-22T09:10:18.147Z</time>
      </trkpt>
      <trkpt lat="47.8694" lon="-2.52203">
        <ele>106</ele>
        <time>2023-07-22T09:10:19.146Z</time>
      </trkpt>
      <trkpt lat="47.8694" lon="-2.52204">
        <ele>106</ele>
        <time>2023-07-22T09:10:20.147Z</time>
      </trkpt>
      <trkpt lat="47.86939" lon="-2.52206">
        <ele>106</ele>
        <time>2023-07-22T09:10:21.146Z</time>
      </trkpt>
      <trkpt lat="47.86939" lon="-2.52207">
        <ele>106</ele>
        <time>2023-07-22T09:10:22.147Z</time>
      </trkpt>
      <trkpt lat="47.86938" lon="-2.5221">
        <ele>106</ele>
        <time>2023-07-22T09:10:23.146Z</time>
      </trkpt>
      <trkpt lat="47.86938" lon="-2.52211">
        <ele>106</ele>
        <time>2023-07-22T09:10:24.146Z</time>
      </trkpt>
      <trkpt lat="47.86938" lon="-2.52212">
        <ele>106</ele>
        <time>2023-07-22T09:10:25.147Z</time>
      </trkpt>
      <trkpt lat="47.86936" lon="-2.52216">
        <ele>106</ele>
        <time>2023-07-22T09:10:26.147Z</time>
      </trkpt>
      <trkpt lat="47.86935" lon="-2.52218">
        <ele>106</ele>
        <time>2023-07-22T09:10:27.147Z</time>
      </trkpt>
      <trkpt lat="47.86935" lon="-2.52216">
        <ele>106</ele>
        <time>2023-07-22T09:10:28.147Z</time>
      </trkpt>
      <trkpt lat="47.86934" lon="-2.52217">
        <ele>106</ele>
        <time>2023-07-22T09:10:29.147Z</time>
      </trkpt>
      <trkpt lat="47.86934" lon="-2.52217">
        <ele>106</ele>
        <time>2023-07-22T09:10:30.147Z</time>
      </trkpt>
      <trkpt lat="47.86934" lon="-2.52218">
        <ele>106</ele>
        <time>2023-07-22T09:10:31.147Z</time>
      </trkpt>
      <trkpt lat="47.86935" lon="-2.5222">
        <ele>106</ele>
        <time>2023-07-22T09:10:32.147Z</time>
      </trkpt>
      <trkpt lat="47.86934" lon="-2.52221">
        <ele>107</ele>
        <time>2023-07-22T09:10:33.147Z</time>
      </trkpt>
      <trkpt lat="47.86934" lon="-2.52222">
        <ele>107</ele>
        <time>2023-07-22T09:10:34.146Z</time>
      </trkpt>
      <trkpt lat="47.86933" lon="-2.52223">
        <ele>108</ele>
        <time>2023-07-22T09:10:35.147Z</time>
      </trkpt>
      <trkpt lat="47.86932" lon="-2.52226">
        <ele>108</ele>
        <time>2023-07-22T09:10:36.146Z</time>
      </trkpt>
      <trkpt lat="47.86931" lon="-2.52227">
        <ele>108</ele>
        <time>2023-07-22T09:10:37.147Z</time>
      </trkpt>
      <trkpt lat="47.86931" lon="-2.52226">
        <ele>108</ele>
        <time>2023-07-22T09:10:38.146Z</time>
      </trkpt>
      <trkpt lat="47.86932" lon="-2.52226">
        <ele>108</ele>
        <time>2023-07-22T09:10:39.146Z</time>
      </trkpt>
      <trkpt lat="47.86932" lon="-2.52228">
        <ele>108</ele>
        <time>2023-07-22T09:10:40.147Z</time>
      </trkpt>
      <trkpt lat="47.86932" lon="-2.52228">
        <ele>109</ele>
        <time>2023-07-22T09:10:41.146Z</time>
      </trkpt>
      <trkpt lat="47.86931" lon="-2.52228">
        <ele>109</ele>
        <time>2023-07-22T09:10:42.147Z</time>
      </trkpt>
      <trkpt lat="47.86931" lon="-2.52228">
        <ele>110</ele>
        <time>2023-07-22T09:10:43.146Z</time>
      </trkpt>
      <trkpt lat="47.8693" lon="-2.52229">
        <ele>110</ele>
        <time>2023-07-22T09:10:44.147Z</time>
      </trkpt>
      <trkpt lat="47.8693" lon="-2.52228">
        <ele>110</ele>
        <time>2023-07-22T09:10:45.146Z</time>
      </trkpt>
      <trkpt lat="47.8693" lon="-2.52227">
        <ele>110</ele>
        <time>2023-07-22T09:10:46.146Z</time>
      </trkpt>
      <trkpt lat="47.86929" lon="-2.52226">
        <ele>110</ele>
        <time>2023-07-22T09:10:47.146Z</time>
      </trkpt>
      <trkpt lat="47.86928" lon="-2.52225">
        <ele>110</ele>
        <time>2023-07-22T09:10:48.147Z</time>
      </trkpt>
      <trkpt lat="47.86926" lon="-2.52225">
        <ele>110</ele>
        <time>2023-07-22T09:10:49.146Z</time>
      </trkpt>
      <trkpt lat="47.86925" lon="-2.52225">
        <ele>110</ele>
        <time>2023-07-22T09:10:50.147Z</time>
      </trkpt>
      <trkpt lat="47.86924" lon="-2.52225">
        <ele>109</ele>
        <time>2023-07-22T09:10:51.146Z</time>
      </trkpt>
      <trkpt lat="47.86923" lon="-2.52227">
        <ele>109</ele>
        <time>2023-07-22T09:10:52.146Z</time>
      </trkpt>
      <trkpt lat="47.86922" lon="-2.52228">
        <ele>109</ele>
        <time>2023-07-22T09:10:53.146Z</time>
      </trkpt>
      <trkpt lat="47.86922" lon="-2.52229">
        <ele>109</ele>
        <time>2023-07-22T09:10:54.147Z</time>
      </trkpt>
      <trkpt lat="47.86922" lon="-2.52231">
        <ele>109</ele>
        <time>2023-07-22T09:10:55.146Z</time>
      </trkpt>
      <trkpt lat="47.86922" lon="-2.52232">
        <ele>109</ele>
        <time>2023-07-22T09:10:56.147Z</time>
      </trkpt>
      <trkpt lat="47.86922" lon="-2.52232">
        <ele>109</ele>
        <time>2023-07-22T09:10:57.147Z</time>
      </trkpt>
      <trkpt lat="47.86922" lon="-2.52233">
        <ele>109</ele>
        <time>2023-07-22T09:10:58.147Z</time>
      </trkpt>
      <trkpt lat="47.86921" lon="-2.52234">
        <ele>109</ele>
        <time>2023-07-22T09:10:59.147Z</time>
      </trkpt>
      <trkpt lat="47.86922" lon="-2.52236">
        <ele>109</ele>
        <time>2023-07-22T09:11:00.146Z</time>
      </trkpt>
      <trkpt lat="47.86922" lon="-2.52238">
        <ele>109</ele>
        <time>2023-07-22T09:11:01.147Z</time>
      </trkpt>
      <trkpt lat="47.86922" lon="-2.52239">
        <ele>108</ele>
        <time>2023-07-22T09:11:02.146Z</time>
      </trkpt>
      <trkpt lat="47.86923" lon="-2.52241">
        <ele>108</ele>
        <time>2023-07-22T09:11:03.147Z</time>
      </trkpt>
      <trkpt lat="47.86924" lon="-2.52243">
        <ele>108</ele>
        <time>2023-07-22T09:11:04.146Z</time>
      </trkpt>
      <trkpt lat="47.86923" lon="-2.52246">
        <ele>108</ele>
        <time>2023-07-22T09:11:05.146Z</time>
      </trkpt>
      <trkpt lat="47.86923" lon="-2.52248">
        <ele>108</ele>
        <time>2023-07-22T09:11:06.147Z</time>
      </trkpt>
      <trkpt lat="47.86923" lon="-2.52248">
        <ele>108</ele>
        <time>2023-07-22T09:11:07.146Z</time>
      </trkpt>
      <trkpt lat="47.86923" lon="-2.52249">
        <ele>108</ele>
        <time>2023-07-22T09:11:08.146Z</time>
      </trkpt>
      <trkpt lat="47.86923" lon="-2.5225">
        <ele>108</ele>
        <time>2023-07-22T09:11:09.146Z</time>
      </trkpt>
      <trkpt lat="47.86923" lon="-2.52252">
        <ele>108</ele>
        <time>2023-07-22T09:11:10.147Z</time>
      </trkpt>
      <trkpt lat="47.86923" lon="-2.52253">
        <ele>108</ele>
        <time>2023-07-22T09:11:11.146Z</time>
      </trkpt>
      <trkpt lat="47.86923" lon="-2.52254">
        <ele>108</ele>
        <time>2023-07-22T09:11:12.147Z</time>
      </trkpt>
      <trkpt lat="47.86922" lon="-2.52256">
        <ele>109</ele>
        <time>2023-07-22T09:11:13.146Z</time>
      </trkpt>
      <trkpt lat="47.86921" lon="-2.52258">
        <ele>109</ele>
        <time>2023-07-22T09:11:14.147Z</time>
      </trkpt>
      <trkpt lat="47.8692" lon="-2.5226">
        <ele>109</ele>
        <time>2023-07-22T09:11:15.147Z</time>
      </trkpt>
      <trkpt lat="47.86919" lon="-2.52262">
        <ele>110</ele>
        <time>2023-07-22T09:11:16.146Z</time>
      </trkpt>
      <trkpt lat="47.86918" lon="-2.52264">
        <ele>110</ele>
        <time>2023-07-22T09:11:17.146Z</time>
      </trkpt>
      <trkpt lat="47.86918" lon="-2.52265">
        <ele>110</ele>
        <time>2023-07-22T09:11:18.146Z</time>
      </trkpt>
      <trkpt lat="47.86918" lon="-2.52267">
        <ele>111</ele>
        <time>2023-07-22T09:11:19.147Z</time>
      </trkpt>
      <trkpt lat="47.86918" lon="-2.52269">
        <ele>111</ele>
        <time>2023-07-22T09:11:20.146Z</time>
      </trkpt>
      <trkpt lat="47.86918" lon="-2.52271">
        <ele>111</ele>
        <time>2023-07-22T09:11:21.146Z</time>
      </trkpt>
      <trkpt lat="47.86917" lon="-2.52273">
        <ele>111</ele>
        <time>2023-07-22T09:11:22.147Z</time>
      </trkpt>
      <trkpt lat="47.86916" lon="-2.52275">
        <ele>112</ele>
        <time>2023-07-22T09:11:23.146Z</time>
      </trkpt>
      <trkpt lat="47.86916" lon="-2.52277">
        <ele>112</ele>
        <time>2023-07-22T09:11:24.147Z</time>
      </trkpt>
      <trkpt lat="47.86916" lon="-2.52278">
        <ele>113</ele>
        <time>2023-07-22T09:11:25.146Z</time>
      </trkpt>
      <trkpt lat="47.86916" lon="-2.5228">
        <ele>113</ele>
        <time>2023-07-22T09:11:26.147Z</time>
      </trkpt>
      <trkpt lat="47.86915" lon="-2.52281">
        <ele>114</ele>
        <time>2023-07-22T09:11:27.146Z</time>
      </trkpt>
      <trkpt lat="47.86914" lon="-2.52282">
        <ele>114</ele>
        <time>2023-07-22T09:11:28.147Z</time>
      </trkpt>
      <trkpt lat="47.86914" lon="-2.52283">
        <ele>114</ele>
        <time>2023-07-22T09:11:29.147Z</time>
      </trkpt>
      <trkpt lat="47.86914" lon="-2.52284">
        <ele>115</ele>
        <time>2023-07-22T09:11:30.147Z</time>
      </trkpt>
      <trkpt lat="47.86915" lon="-2.52285">
        <ele>115</ele>
        <time>2023-07-22T09:11:31.146Z</time>
      </trkpt>
      <trkpt lat="47.86915" lon="-2.52286">
        <ele>115</ele>
        <time>2023-07-22T09:11:32.146Z</time>
      </trkpt>
      <trkpt lat="47.86914" lon="-2.52288">
        <ele>115</ele>
        <time>2023-07-22T09:11:33.147Z</time>
      </trkpt>
      <trkpt lat="47.86913" lon="-2.52291">
        <ele>115</ele>
        <time>2023-07-22T09:11:34.146Z</time>
      </trkpt>
      <trkpt lat="47.86912" lon="-2.52295">
        <ele>115</ele>
        <time>2023-07-22T09:11:35.147Z</time>
      </trkpt>
      <trkpt lat="47.86912" lon="-2.52299">
        <ele>115</ele>
        <time>2023-07-22T09:11:36.146Z</time>
      </trkpt>
      <trkpt lat="47.8691" lon="-2.52301">
        <ele>115</ele>
        <time>2023-07-22T09:11:37.147Z</time>
      </trkpt>
      <trkpt lat="47.86909" lon="-2.52303">
        <ele>115</ele>
        <time>2023-07-22T09:11:38.147Z</time>
      </trkpt>
      <trkpt lat="47.86908" lon="-2.52303">
        <ele>115</ele>
        <time>2023-07-22T09:11:39.147Z</time>
      </trkpt>
      <trkpt lat="47.86907" lon="-2.52304">
        <ele>116</ele>
        <time>2023-07-22T09:11:40.147Z</time>
      </trkpt>
      <trkpt lat="47.86908" lon="-2.52305">
        <ele>116</ele>
        <time>2023-07-22T09:11:41.146Z</time>
      </trkpt>
      <trkpt lat="47.86909" lon="-2.52305">
        <ele>116</ele>
        <time>2023-07-22T09:11:42.146Z</time>
      </trkpt>
      <trkpt lat="47.8691" lon="-2.52306">
        <ele>117</ele>
        <time>2023-07-22T09:11:43.147Z</time>
      </trkpt>
      <trkpt lat="47.86911" lon="-2.52308">
        <ele>117</ele>
        <time>2023-07-22T09:11:44.146Z</time>
      </trkpt>
      <trkpt lat="47.86911" lon="-2.52309">
        <ele>118</ele>
        <time>2023-07-22T09:11:45.146Z</time>
      </trkpt>
      <trkpt lat="47.86911" lon="-2.5231">
        <ele>118</ele>
        <time>2023-07-22T09:11:46.147Z</time>
      </trkpt>
      <trkpt lat="47.86912" lon="-2.52312">
        <ele>119</ele>
        <time>2023-07-22T09:11:47.146Z</time>
      </trkpt>
      <trkpt lat="47.86912" lon="-2.52314">
        <ele>120</ele>
        <time>2023-07-22T09:11:48.147Z</time>
      </trkpt>
      <trkpt lat="47.86913" lon="-2.52316">
        <ele>120</ele>
        <time>2023-07-22T09:11:49.146Z</time>
      </trkpt>
      <trkpt lat="47.86913" lon="-2.52317">
        <ele>120</ele>
        <time>2023-07-22T09:11:50.146Z</time>
      </trkpt>
      <trkpt lat="47.86913" lon="-2.52319">
        <ele>120</ele>
        <time>2023-07-22T09:11:51.146Z</time>
      </trkpt>
      <trkpt lat="47.86914" lon="-2.52321">
        <ele>120</ele>
        <time>2023-07-22T09:11:52.147Z</time>
      </trkpt>
      <trkpt lat="47.86914" lon="-2.52324">
        <ele>120</ele>
        <time>2023-07-22T09:11:53.147Z</time>
      </trkpt>
      <trkpt lat="47.86914" lon="-2.52326">
        <ele>120</ele>
        <time>2023-07-22T09:11:54.147Z</time>
      </trkpt>
      <trkpt lat="47.86914" lon="-2.52328">
        <ele>120</ele>
        <time>2023-07-22T09:11:55.146Z</time>
      </trkpt>
      <trkpt lat="47.86914" lon="-2.52329">
        <ele>120</ele>
        <time>2023-07-22T09:11:56.147Z</time>
      </trkpt>
      <trkpt lat="47.86915" lon="-2.52331">
        <ele>120</ele>
        <time>2023-07-22T09:11:57.147Z</time>
      </trkpt>
      <trkpt lat="47.86915" lon="-2.52332">
        <ele>120</ele>
        <time>2023-07-22T09:11:58.146Z</time>
      </trkpt>
      <trkpt lat="47.86915" lon="-2.52333">
        <ele>120</ele>
        <time>2023-07-22T09:11:59.147Z</time>
      </trkpt>
      <trkpt lat="47.86915" lon="-2.52334">
        <ele>120</ele>
        <time>2023-07-22T09:12:00.146Z</time>
      </trkpt>
      <trkpt lat="47.86916" lon="-2.52334">
        <ele>121</ele>
        <time>2023-07-22T09:12:01.147Z</time>
      </trkpt>
      <trkpt lat="47.86916" lon="-2.52334">
        <ele>121</ele>
        <time>2023-07-22T09:12:02.147Z</time>
      </trkpt>
      <trkpt lat="47.86915" lon="-2.52334">
        <ele>121</ele>
        <time>2023-07-22T09:12:03.146Z</time>
      </trkpt>
      <trkpt lat="47.86913" lon="-2.52333">
        <ele>122</ele>
        <time>2023-07-22T09:12:04.147Z</time>
      </trkpt>
      <trkpt lat="47.86913" lon="-2.52332">
        <ele>122</ele>
        <time>2023-07-22T09:12:05.147Z</time>
      </trkpt>
      <trkpt lat="47.86913" lon="-2.52333">
        <ele>122</ele>
        <time>2023-07-22T09:12:06.147Z</time>
      </trkpt>
      <trkpt lat="47.86912" lon="-2.52333">
        <ele>121</ele>
        <time>2023-07-22T09:12:07.146Z</time>
      </trkpt>
      <trkpt lat="47.86912" lon="-2.52334">
        <ele>121</ele>
        <time>2023-07-22T09:12:08.147Z</time>
      </trkpt>
      <trkpt lat="47.86912" lon="-2.52335">
        <ele>121</ele>
        <time>2023-07-22T09:12:09.147Z</time>
      </trkpt>
      <trkpt lat="47.86912" lon="-2.52335">
        <ele>121</ele>
        <time>2023-07-22T09:12:10.146Z</time>
      </trkpt>
      <trkpt lat="47.86912" lon="-2.52336">
        <ele>122</ele>
        <time>2023-07-22T09:12:11.147Z</time>
      </trkpt>
      <trkpt lat="47.86913" lon="-2.52337">
        <ele>122</ele>
        <time>2023-07-22T09:12:12.146Z</time>
      </trkpt>
      <trkpt lat="47.86913" lon="-2.52338">
        <ele>122</ele>
        <time>2023-07-22T09:12:13.147Z</time>
      </trkpt>
      <trkpt lat="47.86912" lon="-2.52339">
        <ele>122</ele>
        <time>2023-07-22T09:12:14.147Z</time>
      </trkpt>
      <trkpt lat="47.86912" lon="-2.52341">
        <ele>122</ele>
        <time>2023-07-22T09:12:15.146Z</time>
      </trkpt>
      <trkpt lat="47.86912" lon="-2.52342">
        <ele>121</ele>
        <time>2023-07-22T09:12:16.147Z</time>
      </trkpt>
      <trkpt lat="47.86912" lon="-2.52343">
        <ele>121</ele>
        <time>2023-07-22T09:12:17.146Z</time>
      </trkpt>
      <trkpt lat="47.86912" lon="-2.52345">
        <ele>120</ele>
        <time>2023-07-22T09:12:18.146Z</time>
      </trkpt>
      <trkpt lat="47.86912" lon="-2.52347">
        <ele>120</ele>
        <time>2023-07-22T09:12:19.147Z</time>
      </trkpt>
      <trkpt lat="47.86912" lon="-2.52349">
        <ele>120</ele>
        <time>2023-07-22T09:12:20.146Z</time>
      </trkpt>
      <trkpt lat="47.86912" lon="-2.52351">
        <ele>119</ele>
        <time>2023-07-22T09:12:21.147Z</time>
      </trkpt>
      <trkpt lat="47.86912" lon="-2.52352">
        <ele>119</ele>
        <time>2023-07-22T09:12:22.146Z</time>
      </trkpt>
      <trkpt lat="47.86912" lon="-2.52354">
        <ele>119</ele>
        <time>2023-07-22T09:12:23.147Z</time>
      </trkpt>
      <trkpt lat="47.86912" lon="-2.52355">
        <ele>119</ele>
        <time>2023-07-22T09:12:24.146Z</time>
      </trkpt>
      <trkpt lat="47.86912" lon="-2.52357">
        <ele>119</ele>
        <time>2023-07-22T09:12:25.147Z</time>
      </trkpt>
      <trkpt lat="47.86912" lon="-2.52358">
        <ele>119</ele>
        <time>2023-07-22T09:12:26.146Z</time>
      </trkpt>
      <trkpt lat="47.86912" lon="-2.5236">
        <ele>118</ele>
        <time>2023-07-22T09:12:27.147Z</time>
      </trkpt>
      <trkpt lat="47.86913" lon="-2.52362">
        <ele>118</ele>
        <time>2023-07-22T09:12:28.147Z</time>
      </trkpt>
      <trkpt lat="47.86913" lon="-2.52363">
        <ele>118</ele>
        <time>2023-07-22T09:12:29.146Z</time>
      </trkpt>
      <trkpt lat="47.86912" lon="-2.52364">
        <ele>118</ele>
        <time>2023-07-22T09:12:30.147Z</time>
      </trkpt>
      <trkpt lat="47.86912" lon="-2.52366">
        <ele>117</ele>
        <time>2023-07-22T09:12:31.146Z</time>
      </trkpt>
      <trkpt lat="47.86912" lon="-2.52367">
        <ele>117</ele>
        <time>2023-07-22T09:12:32.147Z</time>
      </trkpt>
      <trkpt lat="47.86911" lon="-2.52369">
        <ele>117</ele>
        <time>2023-07-22T09:12:33.147Z</time>
      </trkpt>
      <trkpt lat="47.86911" lon="-2.5237">
        <ele>117</ele>
        <time>2023-07-22T09:12:34.146Z</time>
      </trkpt>
      <trkpt lat="47.8691" lon="-2.52371">
        <ele>117</ele>
        <time>2023-07-22T09:12:35.147Z</time>
      </trkpt>
      <trkpt lat="47.86909" lon="-2.52374">
        <ele>117</ele>
        <time>2023-07-22T09:12:36.146Z</time>
      </trkpt>
      <trkpt lat="47.86908" lon="-2.52377">
        <ele>117</ele>
        <time>2023-07-22T09:12:37.147Z</time>
      </trkpt>
      <trkpt lat="47.86907" lon="-2.5238">
        <ele>117</ele>
        <time>2023-07-22T09:12:38.147Z</time>
      </trkpt>
      <trkpt lat="47.86907" lon="-2.52381">
        <ele>117</ele>
        <time>2023-07-22T09:12:39.146Z</time>
      </trkpt>
      <trkpt lat="47.86907" lon="-2.52382">
        <ele>117</ele>
        <time>2023-07-22T09:12:40.147Z</time>
      </trkpt>
      <trkpt lat="47.86907" lon="-2.52383">
        <ele>118</ele>
        <time>2023-07-22T09:12:41.146Z</time>
      </trkpt>
      <trkpt lat="47.86907" lon="-2.52384">
        <ele>118</ele>
        <time>2023-07-22T09:12:42.147Z</time>
      </trkpt>
      <trkpt lat="47.86907" lon="-2.52385">
        <ele>118</ele>
        <time>2023-07-22T09:12:43.146Z</time>
      </trkpt>
      <trkpt lat="47.86907" lon="-2.52385">
        <ele>119</ele>
        <time>2023-07-22T09:12:44.146Z</time>
      </trkpt>
      <trkpt lat="47.86906" lon="-2.52387">
        <ele>119</ele>
        <time>2023-07-22T09:12:45.146Z</time>
      </trkpt>
      <trkpt lat="47.86906" lon="-2.52387">
        <ele>119</ele>
        <time>2023-07-22T09:12:46.146Z</time>
      </trkpt>
      <trkpt lat="47.86906" lon="-2.52388">
        <ele>119</ele>
        <time>2023-07-22T09:12:47.147Z</time>
      </trkpt>
      <trkpt lat="47.86906" lon="-2.52388">
        <ele>119</ele>
        <time>2023-07-22T09:12:48.146Z</time>
      </trkpt>
      <trkpt lat="47.86906" lon="-2.52389">
        <ele>119</ele>
        <time>2023-07-22T09:12:49.147Z</time>
      </trkpt>
      <trkpt lat="47.86906" lon="-2.52391">
        <ele>119</ele>
        <time>2023-07-22T09:12:50.146Z</time>
      </trkpt>
      <trkpt lat="47.86905" lon="-2.52393">
        <ele>119</ele>
        <time>2023-07-22T09:12:51.147Z</time>
      </trkpt>
      <trkpt lat="47.86905" lon="-2.52395">
        <ele>119</ele>
        <time>2023-07-22T09:12:52.146Z</time>
      </trkpt>
      <trkpt lat="47.86904" lon="-2.52398">
        <ele>118</ele>
        <time>2023-07-22T09:12:53.147Z</time>
      </trkpt>
      <trkpt lat="47.86903" lon="-2.52399">
        <ele>118</ele>
        <time>2023-07-22T09:12:54.147Z</time>
      </trkpt>
      <trkpt lat="47.86903" lon="-2.52401">
        <ele>118</ele>
        <time>2023-07-22T09:12:55.146Z</time>
      </trkpt>
      <trkpt lat="47.86903" lon="-2.52401">
        <ele>117</ele>
        <time>2023-07-22T09:12:56.146Z</time>
      </trkpt>
      <trkpt lat="47.86902" lon="-2.52401">
        <ele>117</ele>
        <time>2023-07-22T09:12:57.146Z</time>
      </trkpt>
      <trkpt lat="47.86902" lon="-2.52403">
        <ele>117</ele>
        <time>2023-07-22T09:12:58.146Z</time>
      </trkpt>
      <trkpt lat="47.86902" lon="-2.52405">
        <ele>116</ele>
        <time>2023-07-22T09:12:59.147Z</time>
      </trkpt>
      <trkpt lat="47.86902" lon="-2.52406">
        <ele>116</ele>
        <time>2023-07-22T09:13:00.146Z</time>
      </trkpt>
      <trkpt lat="47.86902" lon="-2.52407">
        <ele>116</ele>
        <time>2023-07-22T09:13:01.147Z</time>
      </trkpt>
      <trkpt lat="47.86902" lon="-2.52408">
        <ele>116</ele>
        <time>2023-07-22T09:13:02.146Z</time>
      </trkpt>
      <trkpt lat="47.86902" lon="-2.52408">
        <ele>116</ele>
        <time>2023-07-22T09:13:03.146Z</time>
      </trkpt>
      <trkpt lat="47.86901" lon="-2.52408">
        <ele>116</ele>
        <time>2023-07-22T09:13:04.147Z</time>
      </trkpt>
      <trkpt lat="47.869" lon="-2.52409">
        <ele>116</ele>
        <time>2023-07-22T09:13:05.146Z</time>
      </trkpt>
      <trkpt lat="47.869" lon="-2.5241">
        <ele>116</ele>
        <time>2023-07-22T09:13:06.147Z</time>
      </trkpt>
      <trkpt lat="47.86899" lon="-2.52412">
        <ele>116</ele>
        <time>2023-07-22T09:13:07.147Z</time>
      </trkpt>
      <trkpt lat="47.86899" lon="-2.52415">
        <ele>116</ele>
        <time>2023-07-22T09:13:08.146Z</time>
      </trkpt>
      <trkpt lat="47.86899" lon="-2.52417">
        <ele>116</ele>
        <time>2023-07-22T09:13:09.147Z</time>
      </trkpt>
      <trkpt lat="47.86899" lon="-2.52418">
        <ele>116</ele>
        <time>2023-07-22T09:13:10.146Z</time>
      </trkpt>
      <trkpt lat="47.86898" lon="-2.52419">
        <ele>116</ele>
        <time>2023-07-22T09:13:11.147Z</time>
      </trkpt>
      <trkpt lat="47.86898" lon="-2.5242">
        <ele>116</ele>
        <time>2023-07-22T09:13:12.146Z</time>
      </trkpt>
      <trkpt lat="47.86898" lon="-2.5242">
        <ele>116</ele>
        <time>2023-07-22T09:13:13.146Z</time>
      </trkpt>
      <trkpt lat="47.86898" lon="-2.52421">
        <ele>116</ele>
        <time>2023-07-22T09:13:14.147Z</time>
      </trkpt>
      <trkpt lat="47.86897" lon="-2.52421">
        <ele>116</ele>
        <time>2023-07-22T09:13:15.146Z</time>
      </trkpt>
      <trkpt lat="47.86897" lon="-2.52421">
        <ele>117</ele>
        <time>2023-07-22T09:13:16.147Z</time>
      </trkpt>
      <trkpt lat="47.86896" lon="-2.52421">
        <ele>117</ele>
        <time>2023-07-22T09:13:17.146Z</time>
      </trkpt>
      <trkpt lat="47.86896" lon="-2.52421">
        <ele>117</ele>
        <time>2023-07-22T09:13:18.147Z</time>
      </trkpt>
      <trkpt lat="47.86894" lon="-2.52428">
        <ele>116</ele>
        <time>2023-07-22T09:13:25.427Z</time>
      </trkpt>
      <trkpt lat="47.86894" lon="-2.52429">
        <ele>116</ele>
        <time>2023-07-22T09:13:26.427Z</time>
      </trkpt>
      <trkpt lat="47.86894" lon="-2.5243">
        <ele>116</ele>
        <time>2023-07-22T09:13:27.427Z</time>
      </trkpt>
      <trkpt lat="47.86894" lon="-2.52431">
        <ele>115</ele>
        <time>2023-07-22T09:13:28.427Z</time>
      </trkpt>
      <trkpt lat="47.86894" lon="-2.52432">
        <ele>115</ele>
        <time>2023-07-22T09:13:29.426Z</time>
      </trkpt>
      <trkpt lat="47.86894" lon="-2.52432">
        <ele>115</ele>
        <time>2023-07-22T09:13:30.426Z</time>
      </trkpt>
      <trkpt lat="47.86894" lon="-2.52432">
        <ele>115</ele>
        <time>2023-07-22T09:13:31.426Z</time>
      </trkpt>
      <trkpt lat="47.86893" lon="-2.52433">
        <ele>115</ele>
        <time>2023-07-22T09:13:32.427Z</time>
      </trkpt>
      <trkpt lat="47.86893" lon="-2.52433">
        <ele>115</ele>
        <time>2023-07-22T09:13:33.426Z</time>
      </trkpt>
      <trkpt lat="47.86893" lon="-2.52432">
        <ele>116</ele>
        <time>2023-07-22T09:13:34.426Z</time>
      </trkpt>
      <trkpt lat="47.86892" lon="-2.52432">
        <ele>116</ele>
        <time>2023-07-22T09:13:35.426Z</time>
      </trkpt>
      <trkpt lat="47.86891" lon="-2.52432">
        <ele>116</ele>
        <time>2023-07-22T09:13:36.426Z</time>
      </trkpt>
      <trkpt lat="47.86891" lon="-2.52432">
        <ele>116</ele>
        <time>2023-07-22T09:13:37.427Z</time>
      </trkpt>
      <trkpt lat="47.86887" lon="-2.52433">
        <ele>117</ele>
        <time>2023-07-22T09:13:43.703Z</time>
      </trkpt>
      <trkpt lat="47.86887" lon="-2.52435">
        <ele>117</ele>
        <time>2023-07-22T09:13:44.703Z</time>
      </trkpt>
      <trkpt lat="47.86886" lon="-2.52436">
        <ele>117</ele>
        <time>2023-07-22T09:13:45.703Z</time>
      </trkpt>
      <trkpt lat="47.86885" lon="-2.52438">
        <ele>118</ele>
        <time>2023-07-22T09:13:46.703Z</time>
      </trkpt>
      <trkpt lat="47.86884" lon="-2.5244">
        <ele>118</ele>
        <time>2023-07-22T09:13:47.703Z</time>
      </trkpt>
      <trkpt lat="47.86883" lon="-2.52442">
        <ele>118</ele>
        <time>2023-07-22T09:13:48.704Z</time>
      </trkpt>
      <trkpt lat="47.86882" lon="-2.52444">
        <ele>118</ele>
        <time>2023-07-22T09:13:49.704Z</time>
      </trkpt>
      <trkpt lat="47.86882" lon="-2.52445">
        <ele>118</ele>
        <time>2023-07-22T09:13:50.703Z</time>
      </trkpt>
      <trkpt lat="47.86881" lon="-2.52447">
        <ele>118</ele>
        <time>2023-07-22T09:13:51.703Z</time>
      </trkpt>
      <trkpt lat="47.86881" lon="-2.52449">
        <ele>118</ele>
        <time>2023-07-22T09:13:52.703Z</time>
      </trkpt>
      <trkpt lat="47.8688" lon="-2.5245">
        <ele>118</ele>
        <time>2023-07-22T09:13:53.703Z</time>
      </trkpt>
      <trkpt lat="47.8688" lon="-2.52452">
        <ele>117</ele>
        <time>2023-07-22T09:13:54.704Z</time>
      </trkpt>
      <trkpt lat="47.8688" lon="-2.52453">
        <ele>117</ele>
        <time>2023-07-22T09:13:55.703Z</time>
      </trkpt>
      <trkpt lat="47.86879" lon="-2.52454">
        <ele>118</ele>
        <time>2023-07-22T09:13:56.703Z</time>
      </trkpt>
      <trkpt lat="47.86879" lon="-2.52455">
        <ele>118</ele>
        <time>2023-07-22T09:13:57.703Z</time>
      </trkpt>
      <trkpt lat="47.86879" lon="-2.52455">
        <ele>118</ele>
        <time>2023-07-22T09:13:58.703Z</time>
      </trkpt>
      <trkpt lat="47.86879" lon="-2.52456">
        <ele>118</ele>
        <time>2023-07-22T09:13:59.703Z</time>
      </trkpt>
      <trkpt lat="47.86878" lon="-2.52458">
        <ele>118</ele>
        <time>2023-07-22T09:14:00.703Z</time>
      </trkpt>
      <trkpt lat="47.86877" lon="-2.5246">
        <ele>119</ele>
        <time>2023-07-22T09:14:01.703Z</time>
      </trkpt>
      <trkpt lat="47.86877" lon="-2.52462">
        <ele>119</ele>
        <time>2023-07-22T09:14:02.703Z</time>
      </trkpt>
      <trkpt lat="47.86876" lon="-2.52464">
        <ele>119</ele>
        <time>2023-07-22T09:14:03.704Z</time>
      </trkpt>
      <trkpt lat="47.86876" lon="-2.52465">
        <ele>119</ele>
        <time>2023-07-22T09:14:04.703Z</time>
      </trkpt>
      <trkpt lat="47.86875" lon="-2.52466">
        <ele>119</ele>
        <time>2023-07-22T09:14:05.704Z</time>
      </trkpt>
      <trkpt lat="47.86874" lon="-2.52467">
        <ele>119</ele>
        <time>2023-07-22T09:14:06.703Z</time>
      </trkpt>
      <trkpt lat="47.86873" lon="-2.52469">
        <ele>119</ele>
        <time>2023-07-22T09:14:07.703Z</time>
      </trkpt>
      <trkpt lat="47.86872" lon="-2.52471">
        <ele>119</ele>
        <time>2023-07-22T09:14:08.704Z</time>
      </trkpt>
      <trkpt lat="47.86871" lon="-2.52473">
        <ele>119</ele>
        <time>2023-07-22T09:14:09.703Z</time>
      </trkpt>
      <trkpt lat="47.8687" lon="-2.52475">
        <ele>118</ele>
        <time>2023-07-22T09:14:10.703Z</time>
      </trkpt>
      <trkpt lat="47.8687" lon="-2.52478">
        <ele>119</ele>
        <time>2023-07-22T09:14:11.704Z</time>
      </trkpt>
      <trkpt lat="47.8687" lon="-2.52481">
        <ele>119</ele>
        <time>2023-07-22T09:14:12.703Z</time>
      </trkpt>
      <trkpt lat="47.8687" lon="-2.52483">
        <ele>119</ele>
        <time>2023-07-22T09:14:13.704Z</time>
      </trkpt>
      <trkpt lat="47.8687" lon="-2.52485">
        <ele>119</ele>
        <time>2023-07-22T09:14:14.704Z</time>
      </trkpt>
      <trkpt lat="47.8687" lon="-2.52487">
        <ele>119</ele>
        <time>2023-07-22T09:14:15.703Z</time>
      </trkpt>
      <trkpt lat="47.8687" lon="-2.52489">
        <ele>119</ele>
        <time>2023-07-22T09:14:16.703Z</time>
      </trkpt>
      <trkpt lat="47.8687" lon="-2.5249">
        <ele>119</ele>
        <time>2023-07-22T09:14:17.704Z</time>
      </trkpt>
      <trkpt lat="47.8687" lon="-2.52492">
        <ele>120</ele>
        <time>2023-07-22T09:14:18.704Z</time>
      </trkpt>
      <trkpt lat="47.86869" lon="-2.52494">
        <ele>120</ele>
        <time>2023-07-22T09:14:19.703Z</time>
      </trkpt>
      <trkpt lat="47.86868" lon="-2.52496">
        <ele>120</ele>
        <time>2023-07-22T09:14:20.703Z</time>
      </trkpt>
      <trkpt lat="47.86867" lon="-2.52497">
        <ele>120</ele>
        <time>2023-07-22T09:14:21.703Z</time>
      </trkpt>
      <trkpt lat="47.86867" lon="-2.52497">
        <ele>120</ele>
        <time>2023-07-22T09:14:22.704Z</time>
      </trkpt>
      <trkpt lat="47.86867" lon="-2.52498">
        <ele>120</ele>
        <time>2023-07-22T09:14:23.704Z</time>
      </trkpt>
      <trkpt lat="47.86867" lon="-2.52499">
        <ele>120</ele>
        <time>2023-07-22T09:14:24.703Z</time>
      </trkpt>
      <trkpt lat="47.86866" lon="-2.52499">
        <ele>119</ele>
        <time>2023-07-22T09:14:25.704Z</time>
      </trkpt>
      <trkpt lat="47.86866" lon="-2.525">
        <ele>119</ele>
        <time>2023-07-22T09:14:26.703Z</time>
      </trkpt>
      <trkpt lat="47.86865" lon="-2.525">
        <ele>119</ele>
        <time>2023-07-22T09:14:27.704Z</time>
      </trkpt>
      <trkpt lat="47.86864" lon="-2.52501">
        <ele>119</ele>
        <time>2023-07-22T09:14:28.704Z</time>
      </trkpt>
      <trkpt lat="47.86864" lon="-2.52502">
        <ele>119</ele>
        <time>2023-07-22T09:14:29.703Z</time>
      </trkpt>
      <trkpt lat="47.86863" lon="-2.52502">
        <ele>118</ele>
        <time>2023-07-22T09:14:30.704Z</time>
      </trkpt>
      <trkpt lat="47.86863" lon="-2.52503">
        <ele>118</ele>
        <time>2023-07-22T09:14:31.703Z</time>
      </trkpt>
      <trkpt lat="47.86863" lon="-2.52504">
        <ele>118</ele>
        <time>2023-07-22T09:14:32.704Z</time>
      </trkpt>
      <trkpt lat="47.86863" lon="-2.52505">
        <ele>117</ele>
        <time>2023-07-22T09:14:33.704Z</time>
      </trkpt>
      <trkpt lat="47.86863" lon="-2.52506">
        <ele>117</ele>
        <time>2023-07-22T09:14:34.703Z</time>
      </trkpt>
      <trkpt lat="47.86863" lon="-2.52507">
        <ele>116</ele>
        <time>2023-07-22T09:14:35.703Z</time>
      </trkpt>
      <trkpt lat="47.86863" lon="-2.52508">
        <ele>115</ele>
        <time>2023-07-22T09:14:36.704Z</time>
      </trkpt>
      <trkpt lat="47.86863" lon="-2.52509">
        <ele>114</ele>
        <time>2023-07-22T09:14:37.704Z</time>
      </trkpt>
      <trkpt lat="47.86863" lon="-2.52509">
        <ele>113</ele>
        <time>2023-07-22T09:14:38.703Z</time>
      </trkpt>
      <trkpt lat="47.86863" lon="-2.52509">
        <ele>113</ele>
        <time>2023-07-22T09:14:39.704Z</time>
      </trkpt>
      <trkpt lat="47.86863" lon="-2.5251">
        <ele>112</ele>
        <time>2023-07-22T09:14:40.703Z</time>
      </trkpt>
      <trkpt lat="47.86863" lon="-2.5251">
        <ele>112</ele>
        <time>2023-07-22T09:14:41.704Z</time>
      </trkpt>
      <trkpt lat="47.86864" lon="-2.5251">
        <ele>111</ele>
        <time>2023-07-22T09:14:42.704Z</time>
      </trkpt>
      <trkpt lat="47.86864" lon="-2.52511">
        <ele>111</ele>
        <time>2023-07-22T09:14:43.703Z</time>
      </trkpt>
      <trkpt lat="47.86864" lon="-2.52511">
        <ele>110</ele>
        <time>2023-07-22T09:14:44.704Z</time>
      </trkpt>
      <trkpt lat="47.86864" lon="-2.52512">
        <ele>109</ele>
        <time>2023-07-22T09:14:45.704Z</time>
      </trkpt>
      <trkpt lat="47.86864" lon="-2.52512">
        <ele>109</ele>
        <time>2023-07-22T09:14:46.703Z</time>
      </trkpt>
      <trkpt lat="47.86865" lon="-2.52512">
        <ele>110</ele>
        <time>2023-07-22T09:14:52.017Z</time>
      </trkpt>
      <trkpt lat="47.86865" lon="-2.52512">
        <ele>110</ele>
        <time>2023-07-22T09:14:53.018Z</time>
      </trkpt>
      <trkpt lat="47.86865" lon="-2.52512">
        <ele>110</ele>
        <time>2023-07-22T09:14:54.018Z</time>
      </trkpt>
      <trkpt lat="47.86865" lon="-2.52512">
        <ele>110</ele>
        <time>2023-07-22T09:14:55.018Z</time>
      </trkpt>
      <trkpt lat="47.86865" lon="-2.52512">
        <ele>111</ele>
        <time>2023-07-22T09:14:56.017Z</time>
      </trkpt>
      <trkpt lat="47.86865" lon="-2.52512">
        <ele>111</ele>
        <time>2023-07-22T09:14:57.017Z</time>
      </trkpt>
      <trkpt lat="47.86865" lon="-2.52511">
        <ele>111</ele>
        <time>2023-07-22T09:14:58.017Z</time>
      </trkpt>
      <trkpt lat="47.86865" lon="-2.52511">
        <ele>111</ele>
        <time>2023-07-22T09:14:59.017Z</time>
      </trkpt>
      <trkpt lat="47.86865" lon="-2.52511">
        <ele>111</ele>
        <time>2023-07-22T09:15:00.017Z</time>
      </trkpt>
      <trkpt lat="47.86864" lon="-2.52511">
        <ele>111</ele>
        <time>2023-07-22T09:15:01.017Z</time>
      </trkpt>
      <trkpt lat="47.86864" lon="-2.52511">
        <ele>111</ele>
        <time>2023-07-22T09:15:02.018Z</time>
      </trkpt>
      <trkpt lat="47.86864" lon="-2.52511">
        <ele>111</ele>
        <time>2023-07-22T09:15:03.018Z</time>
      </trkpt>
      <trkpt lat="47.86864" lon="-2.52511">
        <ele>111</ele>
        <time>2023-07-22T09:15:04.018Z</time>
      </trkpt>
      <trkpt lat="47.86864" lon="-2.52511">
        <ele>111</ele>
        <time>2023-07-22T09:15:05.018Z</time>
      </trkpt>
      <trkpt lat="47.86864" lon="-2.52511">
        <ele>111</ele>
        <time>2023-07-22T09:15:06.017Z</time>
      </trkpt>
      <trkpt lat="47.86864" lon="-2.52511">
        <ele>111</ele>
        <time>2023-07-22T09:15:07.017Z</time>
      </trkpt>
      <trkpt lat="47.86864" lon="-2.52511">
        <ele>111</ele>
        <time>2023-07-22T09:15:08.017Z</time>
      </trkpt>
      <trkpt lat="47.86864" lon="-2.52511">
        <ele>111</ele>
        <time>2023-07-22T09:15:09.017Z</time>
      </trkpt>
      <trkpt lat="47.86864" lon="-2.52511">
        <ele>112</ele>
        <time>2023-07-22T09:15:10.018Z</time>
      </trkpt>
      <trkpt lat="47.86864" lon="-2.52511">
        <ele>112</ele>
        <time>2023-07-22T09:15:11.018Z</time>
      </trkpt>
      <trkpt lat="47.86864" lon="-2.52511">
        <ele>112</ele>
        <time>2023-07-22T09:15:12.018Z</time>
      </trkpt>
      <trkpt lat="47.86864" lon="-2.52511">
        <ele>113</ele>
        <time>2023-07-22T09:15:13.017Z</time>
      </trkpt>
      <trkpt lat="47.86864" lon="-2.52511">
        <ele>113</ele>
        <time>2023-07-22T09:15:14.017Z</time>
      </trkpt>
      <trkpt lat="47.86864" lon="-2.5251">
        <ele>113</ele>
        <time>2023-07-22T09:15:15.018Z</time>
      </trkpt>
      <trkpt lat="47.86864" lon="-2.5251">
        <ele>114</ele>
        <time>2023-07-22T09:15:16.017Z</time>
      </trkpt>
      <trkpt lat="47.86864" lon="-2.5251">
        <ele>114</ele>
        <time>2023-07-22T09:15:17.017Z</time>
      </trkpt>
      <trkpt lat="47.86864" lon="-2.5251">
        <ele>114</ele>
        <time>2023-07-22T09:15:18.018Z</time>
      </trkpt>
      <trkpt lat="47.86864" lon="-2.5251">
        <ele>115</ele>
        <time>2023-07-22T09:15:19.018Z</time>
      </trkpt>
      <trkpt lat="47.86864" lon="-2.52511">
        <ele>115</ele>
        <time>2023-07-22T09:15:20.018Z</time>
      </trkpt>
      <trkpt lat="47.86864" lon="-2.52511">
        <ele>115</ele>
        <time>2023-07-22T09:15:21.018Z</time>
      </trkpt>
      <trkpt lat="47.86864" lon="-2.52511">
        <ele>115</ele>
        <time>2023-07-22T09:15:22.017Z</time>
      </trkpt>
      <trkpt lat="47.86864" lon="-2.52511">
        <ele>115</ele>
        <time>2023-07-22T09:15:23.018Z</time>
      </trkpt>
      <trkpt lat="47.86864" lon="-2.52511">
        <ele>114</ele>
        <time>2023-07-22T09:15:24.018Z</time>
      </trkpt>
      <trkpt lat="47.86864" lon="-2.52511">
        <ele>114</ele>
        <time>2023-07-22T09:15:25.018Z</time>
      </trkpt>
      <trkpt lat="47.86864" lon="-2.5251">
        <ele>114</ele>
        <time>2023-07-22T09:15:26.018Z</time>
      </trkpt>
      <trkpt lat="47.86864" lon="-2.5251">
        <ele>114</ele>
        <time>2023-07-22T09:15:27.018Z</time>
      </trkpt>
      <trkpt lat="47.86864" lon="-2.5251">
        <ele>114</ele>
        <time>2023-07-22T09:15:28.018Z</time>
      </trkpt>
      <trkpt lat="47.86864" lon="-2.5251">
        <ele>114</ele>
        <time>2023-07-22T09:15:29.018Z</time>
      </trkpt>
      <trkpt lat="47.86864" lon="-2.5251">
        <ele>114</ele>
        <time>2023-07-22T09:15:30.017Z</time>
      </trkpt>
      <trkpt lat="47.86864" lon="-2.52508">
        <ele>112</ele>
        <time>2023-07-22T09:16:07.216Z</time>
      </trkpt>
      <trkpt lat="47.86864" lon="-2.52508">
        <ele>112</ele>
        <time>2023-07-22T09:16:08.215Z</time>
      </trkpt>
      <trkpt lat="47.86864" lon="-2.52508">
        <ele>112</ele>
        <time>2023-07-22T09:16:09.215Z</time>
      </trkpt>
      <trkpt lat="47.86865" lon="-2.52508">
        <ele>112</ele>
        <time>2023-07-22T09:16:10.215Z</time>
      </trkpt>
      <trkpt lat="47.86864" lon="-2.52507">
        <ele>114</ele>
        <time>2023-07-22T09:16:17.438Z</time>
      </trkpt>
      <trkpt lat="47.86864" lon="-2.52507">
        <ele>114</ele>
        <time>2023-07-22T09:16:18.439Z</time>
      </trkpt>
      <trkpt lat="47.86864" lon="-2.52507">
        <ele>114</ele>
        <time>2023-07-22T09:16:19.438Z</time>
      </trkpt>
      <trkpt lat="47.86864" lon="-2.52507">
        <ele>114</ele>
        <time>2023-07-22T09:16:20.439Z</time>
      </trkpt>
      <trkpt lat="47.86864" lon="-2.52507">
        <ele>114</ele>
        <time>2023-07-22T09:16:21.438Z</time>
      </trkpt>
      <trkpt lat="47.86864" lon="-2.52507">
        <ele>114</ele>
        <time>2023-07-22T09:16:22.439Z</time>
      </trkpt>
      <trkpt lat="47.86864" lon="-2.52507">
        <ele>114</ele>
        <time>2023-07-22T09:16:23.438Z</time>
      </trkpt>
      <trkpt lat="47.86864" lon="-2.52507">
        <ele>114</ele>
        <time>2023-07-22T09:16:24.439Z</time>
      </trkpt>
      <trkpt lat="47.86864" lon="-2.52507">
        <ele>114</ele>
        <time>2023-07-22T09:16:25.438Z</time>
      </trkpt>
      <trkpt lat="47.86864" lon="-2.52507">
        <ele>114</ele>
        <time>2023-07-22T09:16:26.439Z</time>
      </trkpt>
      <trkpt lat="47.86864" lon="-2.52507">
        <ele>114</ele>
        <time>2023-07-22T09:16:27.439Z</time>
      </trkpt>
      <trkpt lat="47.86864" lon="-2.52507">
        <ele>114</ele>
        <time>2023-07-22T09:16:28.439Z</time>
      </trkpt>
      <trkpt lat="47.86864" lon="-2.52507">
        <ele>114</ele>
        <time>2023-07-22T09:16:29.439Z</time>
      </trkpt>
      <trkpt lat="47.86864" lon="-2.52507">
        <ele>115</ele>
        <time>2023-07-22T09:16:30.438Z</time>
      </trkpt>
      <trkpt lat="47.86864" lon="-2.52507">
        <ele>115</ele>
        <time>2023-07-22T09:16:31.439Z</time>
      </trkpt>
      <trkpt lat="47.86864" lon="-2.52507">
        <ele>115</ele>
        <time>2023-07-22T09:16:32.438Z</time>
      </trkpt>
      <trkpt lat="47.86864" lon="-2.52507">
        <ele>115</ele>
        <time>2023-07-22T09:16:33.439Z</time>
      </trkpt>
      <trkpt lat="47.86864" lon="-2.52507">
        <ele>115</ele>
        <time>2023-07-22T09:16:34.438Z</time>
      </trkpt>
      <trkpt lat="47.86864" lon="-2.52506">
        <ele>115</ele>
        <time>2023-07-22T09:16:35.439Z</time>
      </trkpt>
      <trkpt lat="47.86864" lon="-2.52506">
        <ele>115</ele>
        <time>2023-07-22T09:16:36.438Z</time>
      </trkpt>
      <trkpt lat="47.86864" lon="-2.52506">
        <ele>115</ele>
        <time>2023-07-22T09:16:37.439Z</time>
      </trkpt>
      <trkpt lat="47.86864" lon="-2.52506">
        <ele>115</ele>
        <time>2023-07-22T09:16:38.438Z</time>
      </trkpt>
      <trkpt lat="47.86864" lon="-2.52506">
        <ele>115</ele>
        <time>2023-07-22T09:16:39.439Z</time>
      </trkpt>
      <trkpt lat="47.86864" lon="-2.52506">
        <ele>116</ele>
        <time>2023-07-22T09:16:40.438Z</time>
      </trkpt>
      <trkpt lat="47.86864" lon="-2.52506">
        <ele>116</ele>
        <time>2023-07-22T09:16:41.438Z</time>
      </trkpt>
      <trkpt lat="47.86864" lon="-2.52506">
        <ele>116</ele>
        <time>2023-07-22T09:16:42.438Z</time>
      </trkpt>
      <trkpt lat="47.86864" lon="-2.52506">
        <ele>116</ele>
        <time>2023-07-22T09:16:43.438Z</time>
      </trkpt>
      <trkpt lat="47.86864" lon="-2.52506">
        <ele>115</ele>
        <time>2023-07-22T09:16:44.439Z</time>
      </trkpt>
      <trkpt lat="47.86864" lon="-2.52506">
        <ele>115</ele>
        <time>2023-07-22T09:16:45.438Z</time>
      </trkpt>
      <trkpt lat="47.86864" lon="-2.52506">
        <ele>115</ele>
        <time>2023-07-22T09:16:46.439Z</time>
      </trkpt>
      <trkpt lat="47.86864" lon="-2.52506">
        <ele>115</ele>
        <time>2023-07-22T09:16:47.438Z</time>
      </trkpt>
      <trkpt lat="47.86864" lon="-2.52506">
        <ele>115</ele>
        <time>2023-07-22T09:16:48.439Z</time>
      </trkpt>
      <trkpt lat="47.86864" lon="-2.52506">
        <ele>114</ele>
        <time>2023-07-22T09:16:49.438Z</time>
      </trkpt>
      <trkpt lat="47.86864" lon="-2.52506">
        <ele>114</ele>
        <time>2023-07-22T09:16:50.438Z</time>
      </trkpt>
      <trkpt lat="47.86864" lon="-2.52506">
        <ele>114</ele>
        <time>2023-07-22T09:16:51.438Z</time>
      </trkpt>
      <trkpt lat="47.86864" lon="-2.52506">
        <ele>113</ele>
        <time>2023-07-22T09:16:52.439Z</time>
      </trkpt>
      <trkpt lat="47.86864" lon="-2.52506">
        <ele>113</ele>
        <time>2023-07-22T09:16:53.438Z</time>
      </trkpt>
      <trkpt lat="47.86864" lon="-2.52506">
        <ele>112</ele>
        <time>2023-07-22T09:16:54.439Z</time>
      </trkpt>
      <trkpt lat="47.86864" lon="-2.52507">
        <ele>112</ele>
        <time>2023-07-22T09:16:55.438Z</time>
      </trkpt>
      <trkpt lat="47.86863" lon="-2.52507">
        <ele>112</ele>
        <time>2023-07-22T09:16:56.439Z</time>
      </trkpt>
      <trkpt lat="47.86863" lon="-2.52507">
        <ele>112</ele>
        <time>2023-07-22T09:16:57.438Z</time>
      </trkpt>
      <trkpt lat="47.86861" lon="-2.52506">
        <ele>109</ele>
        <time>2023-07-22T09:17:09.871Z</time>
      </trkpt>
      <trkpt lat="47.86861" lon="-2.52506">
        <ele>109</ele>
        <time>2023-07-22T09:17:10.871Z</time>
      </trkpt>
      <trkpt lat="47.86861" lon="-2.52506">
        <ele>109</ele>
        <time>2023-07-22T09:17:11.872Z</time>
      </trkpt>
      <trkpt lat="47.86859" lon="-2.52511">
        <ele>111</ele>
        <time>2023-07-22T09:17:28.241Z</time>
      </trkpt>
      <trkpt lat="47.86858" lon="-2.52511">
        <ele>112</ele>
        <time>2023-07-22T09:17:29.240Z</time>
      </trkpt>
      <trkpt lat="47.86857" lon="-2.52511">
        <ele>112</ele>
        <time>2023-07-22T09:17:30.241Z</time>
      </trkpt>
      <trkpt lat="47.86856" lon="-2.52512">
        <ele>113</ele>
        <time>2023-07-22T09:17:31.240Z</time>
      </trkpt>
      <trkpt lat="47.86856" lon="-2.52512">
        <ele>114</ele>
        <time>2023-07-22T09:17:32.240Z</time>
      </trkpt>
      <trkpt lat="47.86855" lon="-2.52512">
        <ele>114</ele>
        <time>2023-07-22T09:17:33.240Z</time>
      </trkpt>
      <trkpt lat="47.86854" lon="-2.52513">
        <ele>115</ele>
        <time>2023-07-22T09:17:34.240Z</time>
      </trkpt>
      <trkpt lat="47.86854" lon="-2.52513">
        <ele>116</ele>
        <time>2023-07-22T09:17:35.240Z</time>
      </trkpt>
      <trkpt lat="47.86854" lon="-2.52514">
        <ele>117</ele>
        <time>2023-07-22T09:17:36.240Z</time>
      </trkpt>
      <trkpt lat="47.86854" lon="-2.52515">
        <ele>117</ele>
        <time>2023-07-22T09:17:37.240Z</time>
      </trkpt>
      <trkpt lat="47.86854" lon="-2.52517">
        <ele>118</ele>
        <time>2023-07-22T09:17:38.241Z</time>
      </trkpt>
      <trkpt lat="47.86854" lon="-2.52518">
        <ele>118</ele>
        <time>2023-07-22T09:17:39.240Z</time>
      </trkpt>
      <trkpt lat="47.86854" lon="-2.5252">
        <ele>118</ele>
        <time>2023-07-22T09:17:40.241Z</time>
      </trkpt>
      <trkpt lat="47.86854" lon="-2.52521">
        <ele>119</ele>
        <time>2023-07-22T09:17:41.241Z</time>
      </trkpt>
      <trkpt lat="47.86854" lon="-2.52522">
        <ele>119</ele>
        <time>2023-07-22T09:17:42.240Z</time>
      </trkpt>
      <trkpt lat="47.86853" lon="-2.52523">
        <ele>119</ele>
        <time>2023-07-22T09:17:43.240Z</time>
      </trkpt>
      <trkpt lat="47.86853" lon="-2.52525">
        <ele>119</ele>
        <time>2023-07-22T09:17:44.240Z</time>
      </trkpt>
      <trkpt lat="47.86853" lon="-2.52526">
        <ele>120</ele>
        <time>2023-07-22T09:17:45.241Z</time>
      </trkpt>
      <trkpt lat="47.86852" lon="-2.52527">
        <ele>120</ele>
        <time>2023-07-22T09:17:46.241Z</time>
      </trkpt>
      <trkpt lat="47.86852" lon="-2.52528">
        <ele>120</ele>
        <time>2023-07-22T09:17:47.240Z</time>
      </trkpt>
      <trkpt lat="47.86852" lon="-2.52529">
        <ele>120</ele>
        <time>2023-07-22T09:17:48.241Z</time>
      </trkpt>
      <trkpt lat="47.86852" lon="-2.52531">
        <ele>120</ele>
        <time>2023-07-22T09:17:49.241Z</time>
      </trkpt>
      <trkpt lat="47.86852" lon="-2.52532">
        <ele>120</ele>
        <time>2023-07-22T09:17:50.241Z</time>
      </trkpt>
      <trkpt lat="47.86852" lon="-2.52533">
        <ele>120</ele>
        <time>2023-07-22T09:17:51.241Z</time>
      </trkpt>
      <trkpt lat="47.86851" lon="-2.52535">
        <ele>120</ele>
        <time>2023-07-22T09:17:52.240Z</time>
      </trkpt>
      <trkpt lat="47.8685" lon="-2.52537">
        <ele>120</ele>
        <time>2023-07-22T09:17:53.240Z</time>
      </trkpt>
      <trkpt lat="47.86849" lon="-2.52538">
        <ele>120</ele>
        <time>2023-07-22T09:17:54.240Z</time>
      </trkpt>
      <trkpt lat="47.86848" lon="-2.5254">
        <ele>119</ele>
        <time>2023-07-22T09:17:55.241Z</time>
      </trkpt>
      <trkpt lat="47.86847" lon="-2.52541">
        <ele>119</ele>
        <time>2023-07-22T09:17:56.241Z</time>
      </trkpt>
      <trkpt lat="47.86845" lon="-2.52543">
        <ele>120</ele>
        <time>2023-07-22T09:17:57.240Z</time>
      </trkpt>
      <trkpt lat="47.86844" lon="-2.52544">
        <ele>120</ele>
        <time>2023-07-22T09:17:58.241Z</time>
      </trkpt>
      <trkpt lat="47.86844" lon="-2.52545">
        <ele>120</ele>
        <time>2023-07-22T09:17:59.241Z</time>
      </trkpt>
      <trkpt lat="47.86843" lon="-2.52546">
        <ele>120</ele>
        <time>2023-07-22T09:18:00.241Z</time>
      </trkpt>
      <trkpt lat="47.86842" lon="-2.52548">
        <ele>120</ele>
        <time>2023-07-22T09:18:01.241Z</time>
      </trkpt>
      <trkpt lat="47.86842" lon="-2.52549">
        <ele>120</ele>
        <time>2023-07-22T09:18:02.241Z</time>
      </trkpt>
      <trkpt lat="47.86841" lon="-2.5255">
        <ele>120</ele>
        <time>2023-07-22T09:18:03.240Z</time>
      </trkpt>
      <trkpt lat="47.86841" lon="-2.52551">
        <ele>121</ele>
        <time>2023-07-22T09:18:04.240Z</time>
      </trkpt>
      <trkpt lat="47.86841" lon="-2.52552">
        <ele>121</ele>
        <time>2023-07-22T09:18:05.240Z</time>
      </trkpt>
      <trkpt lat="47.86841" lon="-2.52553">
        <ele>121</ele>
        <time>2023-07-22T09:18:06.241Z</time>
      </trkpt>
      <trkpt lat="47.86841" lon="-2.52554">
        <ele>121</ele>
        <time>2023-07-22T09:18:07.241Z</time>
      </trkpt>
      <trkpt lat="47.86842" lon="-2.52555">
        <ele>121</ele>
        <time>2023-07-22T09:18:08.241Z</time>
      </trkpt>
      <trkpt lat="47.86843" lon="-2.52555">
        <ele>120</ele>
        <time>2023-07-22T09:18:09.241Z</time>
      </trkpt>
      <trkpt lat="47.86843" lon="-2.52556">
        <ele>120</ele>
        <time>2023-07-22T09:18:10.240Z</time>
      </trkpt>
      <trkpt lat="47.86842" lon="-2.52556">
        <ele>120</ele>
        <time>2023-07-22T09:18:11.240Z</time>
      </trkpt>
      <trkpt lat="47.86842" lon="-2.52556">
        <ele>120</ele>
        <time>2023-07-22T09:18:12.240Z</time>
      </trkpt>
      <trkpt lat="47.86842" lon="-2.52556">
        <ele>120</ele>
        <time>2023-07-22T09:18:13.241Z</time>
      </trkpt>
      <trkpt lat="47.86842" lon="-2.52557">
        <ele>120</ele>
        <time>2023-07-22T09:18:14.240Z</time>
      </trkpt>
      <trkpt lat="47.86841" lon="-2.52558">
        <ele>120</ele>
        <time>2023-07-22T09:18:15.241Z</time>
      </trkpt>
      <trkpt lat="47.86841" lon="-2.52558">
        <ele>120</ele>
        <time>2023-07-22T09:18:16.240Z</time>
      </trkpt>
      <trkpt lat="47.8684" lon="-2.5256">
        <ele>120</ele>
        <time>2023-07-22T09:18:17.241Z</time>
      </trkpt>
      <trkpt lat="47.86838" lon="-2.52561">
        <ele>120</ele>
        <time>2023-07-22T09:18:18.240Z</time>
      </trkpt>
      <trkpt lat="47.86837" lon="-2.52562">
        <ele>120</ele>
        <time>2023-07-22T09:18:19.241Z</time>
      </trkpt>
      <trkpt lat="47.86837" lon="-2.52563">
        <ele>120</ele>
        <time>2023-07-22T09:18:20.240Z</time>
      </trkpt>
      <trkpt lat="47.86837" lon="-2.52564">
        <ele>120</ele>
        <time>2023-07-22T09:18:21.240Z</time>
      </trkpt>
      <trkpt lat="47.86837" lon="-2.52565">
        <ele>120</ele>
        <time>2023-07-22T09:18:22.241Z</time>
      </trkpt>
      <trkpt lat="47.86837" lon="-2.52566">
        <ele>121</ele>
        <time>2023-07-22T09:18:23.241Z</time>
      </trkpt>
      <trkpt lat="47.86836" lon="-2.52567">
        <ele>121</ele>
        <time>2023-07-22T09:18:24.241Z</time>
      </trkpt>
      <trkpt lat="47.86836" lon="-2.52568">
        <ele>121</ele>
        <time>2023-07-22T09:18:25.241Z</time>
      </trkpt>
      <trkpt lat="47.86835" lon="-2.5257">
        <ele>121</ele>
        <time>2023-07-22T09:18:26.241Z</time>
      </trkpt>
      <trkpt lat="47.86835" lon="-2.52571">
        <ele>122</ele>
        <time>2023-07-22T09:18:27.240Z</time>
      </trkpt>
      <trkpt lat="47.86834" lon="-2.52573">
        <ele>122</ele>
        <time>2023-07-22T09:18:28.241Z</time>
      </trkpt>
      <trkpt lat="47.86834" lon="-2.52574">
        <ele>123</ele>
        <time>2023-07-22T09:18:29.240Z</time>
      </trkpt>
      <trkpt lat="47.86833" lon="-2.52576">
        <ele>123</ele>
        <time>2023-07-22T09:18:30.241Z</time>
      </trkpt>
      <trkpt lat="47.86832" lon="-2.52578">
        <ele>123</ele>
        <time>2023-07-22T09:18:31.240Z</time>
      </trkpt>
      <trkpt lat="47.86831" lon="-2.52581">
        <ele>123</ele>
        <time>2023-07-22T09:18:32.241Z</time>
      </trkpt>
      <trkpt lat="47.86831" lon="-2.52583">
        <ele>124</ele>
        <time>2023-07-22T09:18:33.240Z</time>
      </trkpt>
      <trkpt lat="47.86831" lon="-2.52585">
        <ele>124</ele>
        <time>2023-07-22T09:18:34.241Z</time>
      </trkpt>
      <trkpt lat="47.8683" lon="-2.52588">
        <ele>124</ele>
        <time>2023-07-22T09:18:35.240Z</time>
      </trkpt>
      <trkpt lat="47.8683" lon="-2.52591">
        <ele>124</ele>
        <time>2023-07-22T09:18:36.240Z</time>
      </trkpt>
      <trkpt lat="47.8683" lon="-2.52593">
        <ele>124</ele>
        <time>2023-07-22T09:18:37.241Z</time>
      </trkpt>
      <trkpt lat="47.86831" lon="-2.52595">
        <ele>124</ele>
        <time>2023-07-22T09:18:38.241Z</time>
      </trkpt>
      <trkpt lat="47.86831" lon="-2.52598">
        <ele>124</ele>
        <time>2023-07-22T09:18:39.241Z</time>
      </trkpt>
      <trkpt lat="47.86831" lon="-2.52599">
        <ele>124</ele>
        <time>2023-07-22T09:18:40.240Z</time>
      </trkpt>
      <trkpt lat="47.86831" lon="-2.526">
        <ele>124</ele>
        <time>2023-07-22T09:18:41.241Z</time>
      </trkpt>
      <trkpt lat="47.86831" lon="-2.52602">
        <ele>124</ele>
        <time>2023-07-22T09:18:42.240Z</time>
      </trkpt>
      <trkpt lat="47.86831" lon="-2.52604">
        <ele>124</ele>
        <time>2023-07-22T09:18:43.241Z</time>
      </trkpt>
      <trkpt lat="47.86831" lon="-2.52604">
        <ele>124</ele>
        <time>2023-07-22T09:18:44.240Z</time>
      </trkpt>
      <trkpt lat="47.86831" lon="-2.52605">
        <ele>124</ele>
        <time>2023-07-22T09:18:45.241Z</time>
      </trkpt>
      <trkpt lat="47.86831" lon="-2.52607">
        <ele>123</ele>
        <time>2023-07-22T09:18:46.240Z</time>
      </trkpt>
      <trkpt lat="47.86831" lon="-2.52607">
        <ele>123</ele>
        <time>2023-07-22T09:18:47.240Z</time>
      </trkpt>
      <trkpt lat="47.86832" lon="-2.52609">
        <ele>122</ele>
        <time>2023-07-22T09:18:48.241Z</time>
      </trkpt>
      <trkpt lat="47.86832" lon="-2.5261">
        <ele>122</ele>
        <time>2023-07-22T09:18:49.240Z</time>
      </trkpt>
      <trkpt lat="47.86832" lon="-2.52611">
        <ele>122</ele>
        <time>2023-07-22T09:18:50.241Z</time>
      </trkpt>
      <trkpt lat="47.86832" lon="-2.52612">
        <ele>121</ele>
        <time>2023-07-22T09:18:51.241Z</time>
      </trkpt>
      <trkpt lat="47.86832" lon="-2.52614">
        <ele>121</ele>
        <time>2023-07-22T09:18:52.240Z</time>
      </trkpt>
      <trkpt lat="47.86832" lon="-2.52616">
        <ele>121</ele>
        <time>2023-07-22T09:18:53.241Z</time>
      </trkpt>
      <trkpt lat="47.86832" lon="-2.52619">
        <ele>121</ele>
        <time>2023-07-22T09:18:54.240Z</time>
      </trkpt>
      <trkpt lat="47.86832" lon="-2.52621">
        <ele>121</ele>
        <time>2023-07-22T09:18:55.241Z</time>
      </trkpt>
      <trkpt lat="47.86832" lon="-2.52624">
        <ele>121</ele>
        <time>2023-07-22T09:18:56.240Z</time>
      </trkpt>
      <trkpt lat="47.86832" lon="-2.52626">
        <ele>121</ele>
        <time>2023-07-22T09:18:57.241Z</time>
      </trkpt>
      <trkpt lat="47.86832" lon="-2.52628">
        <ele>121</ele>
        <time>2023-07-22T09:18:58.241Z</time>
      </trkpt>
      <trkpt lat="47.86832" lon="-2.52629">
        <ele>121</ele>
        <time>2023-07-22T09:18:59.240Z</time>
      </trkpt>
      <trkpt lat="47.86832" lon="-2.52631">
        <ele>121</ele>
        <time>2023-07-22T09:19:00.241Z</time>
      </trkpt>
      <trkpt lat="47.86832" lon="-2.52632">
        <ele>121</ele>
        <time>2023-07-22T09:19:01.240Z</time>
      </trkpt>
      <trkpt lat="47.86832" lon="-2.52633">
        <ele>121</ele>
        <time>2023-07-22T09:19:02.241Z</time>
      </trkpt>
      <trkpt lat="47.86833" lon="-2.52635">
        <ele>121</ele>
        <time>2023-07-22T09:19:03.240Z</time>
      </trkpt>
      <trkpt lat="47.86833" lon="-2.52636">
        <ele>121</ele>
        <time>2023-07-22T09:19:04.241Z</time>
      </trkpt>
      <trkpt lat="47.86833" lon="-2.52637">
        <ele>122</ele>
        <time>2023-07-22T09:19:05.240Z</time>
      </trkpt>
      <trkpt lat="47.86833" lon="-2.52639">
        <ele>122</ele>
        <time>2023-07-22T09:19:06.241Z</time>
      </trkpt>
      <trkpt lat="47.86833" lon="-2.52641">
        <ele>122</ele>
        <time>2023-07-22T09:19:07.240Z</time>
      </trkpt>
      <trkpt lat="47.86833" lon="-2.52644">
        <ele>122</ele>
        <time>2023-07-22T09:19:08.241Z</time>
      </trkpt>
      <trkpt lat="47.86833" lon="-2.52645">
        <ele>122</ele>
        <time>2023-07-22T09:19:09.240Z</time>
      </trkpt>
      <trkpt lat="47.86833" lon="-2.52647">
        <ele>122</ele>
        <time>2023-07-22T09:19:10.241Z</time>
      </trkpt>
      <trkpt lat="47.86833" lon="-2.52648">
        <ele>122</ele>
        <time>2023-07-22T09:19:11.240Z</time>
      </trkpt>
      <trkpt lat="47.86832" lon="-2.52649">
        <ele>122</ele>
        <time>2023-07-22T09:19:12.241Z</time>
      </trkpt>
      <trkpt lat="47.86833" lon="-2.52651">
        <ele>123</ele>
        <time>2023-07-22T09:19:13.240Z</time>
      </trkpt>
      <trkpt lat="47.86833" lon="-2.52652">
        <ele>123</ele>
        <time>2023-07-22T09:19:14.241Z</time>
      </trkpt>
      <trkpt lat="47.86833" lon="-2.52654">
        <ele>123</ele>
        <time>2023-07-22T09:19:15.241Z</time>
      </trkpt>
      <trkpt lat="47.86833" lon="-2.52655">
        <ele>124</ele>
        <time>2023-07-22T09:19:16.240Z</time>
      </trkpt>
      <trkpt lat="47.86833" lon="-2.52657">
        <ele>124</ele>
        <time>2023-07-22T09:19:17.241Z</time>
      </trkpt>
      <trkpt lat="47.86833" lon="-2.52658">
        <ele>124</ele>
        <time>2023-07-22T09:19:18.240Z</time>
      </trkpt>
      <trkpt lat="47.86832" lon="-2.52659">
        <ele>124</ele>
        <time>2023-07-22T09:19:19.241Z</time>
      </trkpt>
      <trkpt lat="47.86832" lon="-2.52661">
        <ele>124</ele>
        <time>2023-07-22T09:19:20.240Z</time>
      </trkpt>
      <trkpt lat="47.86832" lon="-2.52664">
        <ele>124</ele>
        <time>2023-07-22T09:19:21.241Z</time>
      </trkpt>
      <trkpt lat="47.86832" lon="-2.52664">
        <ele>124</ele>
        <time>2023-07-22T09:19:22.241Z</time>
      </trkpt>
      <trkpt lat="47.86832" lon="-2.52666">
        <ele>124</ele>
        <time>2023-07-22T09:19:23.241Z</time>
      </trkpt>
      <trkpt lat="47.86833" lon="-2.52668">
        <ele>124</ele>
        <time>2023-07-22T09:19:24.240Z</time>
      </trkpt>
      <trkpt lat="47.86833" lon="-2.52668">
        <ele>124</ele>
        <time>2023-07-22T09:19:25.241Z</time>
      </trkpt>
      <trkpt lat="47.86834" lon="-2.52669">
        <ele>123</ele>
        <time>2023-07-22T09:19:26.240Z</time>
      </trkpt>
      <trkpt lat="47.86834" lon="-2.52671">
        <ele>123</ele>
        <time>2023-07-22T09:19:27.241Z</time>
      </trkpt>
      <trkpt lat="47.86834" lon="-2.52672">
        <ele>123</ele>
        <time>2023-07-22T09:19:28.240Z</time>
      </trkpt>
      <trkpt lat="47.86834" lon="-2.52673">
        <ele>123</ele>
        <time>2023-07-22T09:19:29.240Z</time>
      </trkpt>
      <trkpt lat="47.86834" lon="-2.52675">
        <ele>123</ele>
        <time>2023-07-22T09:19:30.240Z</time>
      </trkpt>
      <trkpt lat="47.86834" lon="-2.52677">
        <ele>123</ele>
        <time>2023-07-22T09:19:31.241Z</time>
      </trkpt>
      <trkpt lat="47.86834" lon="-2.52678">
        <ele>123</ele>
        <time>2023-07-22T09:19:32.240Z</time>
      </trkpt>
      <trkpt lat="47.86834" lon="-2.5268">
        <ele>123</ele>
        <time>2023-07-22T09:19:33.241Z</time>
      </trkpt>
      <trkpt lat="47.86834" lon="-2.52682">
        <ele>123</ele>
        <time>2023-07-22T09:19:34.240Z</time>
      </trkpt>
      <trkpt lat="47.86834" lon="-2.52684">
        <ele>123</ele>
        <time>2023-07-22T09:19:35.241Z</time>
      </trkpt>
      <trkpt lat="47.86834" lon="-2.52686">
        <ele>123</ele>
        <time>2023-07-22T09:19:36.240Z</time>
      </trkpt>
      <trkpt lat="47.86834" lon="-2.52687">
        <ele>123</ele>
        <time>2023-07-22T09:19:37.241Z</time>
      </trkpt>
      <trkpt lat="47.86834" lon="-2.52689">
        <ele>123</ele>
        <time>2023-07-22T09:19:38.241Z</time>
      </trkpt>
      <trkpt lat="47.86835" lon="-2.5269">
        <ele>123</ele>
        <time>2023-07-22T09:19:39.240Z</time>
      </trkpt>
      <trkpt lat="47.86834" lon="-2.52692">
        <ele>123</ele>
        <time>2023-07-22T09:19:40.240Z</time>
      </trkpt>
      <trkpt lat="47.86834" lon="-2.52693">
        <ele>123</ele>
        <time>2023-07-22T09:19:41.241Z</time>
      </trkpt>
      <trkpt lat="47.86834" lon="-2.52695">
        <ele>123</ele>
        <time>2023-07-22T09:19:42.240Z</time>
      </trkpt>
      <trkpt lat="47.86835" lon="-2.52696">
        <ele>123</ele>
        <time>2023-07-22T09:19:43.241Z</time>
      </trkpt>
      <trkpt lat="47.86835" lon="-2.52697">
        <ele>123</ele>
        <time>2023-07-22T09:19:44.240Z</time>
      </trkpt>
      <trkpt lat="47.86835" lon="-2.527">
        <ele>123</ele>
        <time>2023-07-22T09:19:45.241Z</time>
      </trkpt>
      <trkpt lat="47.86835" lon="-2.52703">
        <ele>123</ele>
        <time>2023-07-22T09:19:46.241Z</time>
      </trkpt>
      <trkpt lat="47.86836" lon="-2.52707">
        <ele>123</ele>
        <time>2023-07-22T09:19:47.240Z</time>
      </trkpt>
      <trkpt lat="47.86837" lon="-2.5271">
        <ele>123</ele>
        <time>2023-07-22T09:19:48.241Z</time>
      </trkpt>
      <trkpt lat="47.86836" lon="-2.52715">
        <ele>123</ele>
        <time>2023-07-22T09:19:49.241Z</time>
      </trkpt>
      <trkpt lat="47.86834" lon="-2.52719">
        <ele>123</ele>
        <time>2023-07-22T09:19:50.241Z</time>
      </trkpt>
      <trkpt lat="47.86834" lon="-2.52721">
        <ele>123</ele>
        <time>2023-07-22T09:19:51.240Z</time>
      </trkpt>
      <trkpt lat="47.86835" lon="-2.52726">
        <ele>123</ele>
        <time>2023-07-22T09:19:52.241Z</time>
      </trkpt>
      <trkpt lat="47.86837" lon="-2.52731">
        <ele>123</ele>
        <time>2023-07-22T09:19:53.240Z</time>
      </trkpt>
      <trkpt lat="47.86837" lon="-2.52735">
        <ele>123</ele>
        <time>2023-07-22T09:19:54.241Z</time>
      </trkpt>
      <trkpt lat="47.86839" lon="-2.52739">
        <ele>123</ele>
        <time>2023-07-22T09:19:55.240Z</time>
      </trkpt>
      <trkpt lat="47.86841" lon="-2.52742">
        <ele>123</ele>
        <time>2023-07-22T09:19:56.241Z</time>
      </trkpt>
      <trkpt lat="47.8684" lon="-2.52739">
        <ele>123</ele>
        <time>2023-07-22T09:19:57.240Z</time>
      </trkpt>
      <trkpt lat="47.86841" lon="-2.52739">
        <ele>124</ele>
        <time>2023-07-22T09:19:58.241Z</time>
      </trkpt>
      <trkpt lat="47.86841" lon="-2.52739">
        <ele>124</ele>
        <time>2023-07-22T09:19:59.240Z</time>
      </trkpt>
      <trkpt lat="47.86841" lon="-2.52739">
        <ele>124</ele>
        <time>2023-07-22T09:20:00.240Z</time>
      </trkpt>
      <trkpt lat="47.86841" lon="-2.52741">
        <ele>125</ele>
        <time>2023-07-22T09:20:01.240Z</time>
      </trkpt>
      <trkpt lat="47.8684" lon="-2.52743">
        <ele>125</ele>
        <time>2023-07-22T09:20:02.241Z</time>
      </trkpt>
      <trkpt lat="47.8684" lon="-2.52745">
        <ele>125</ele>
        <time>2023-07-22T09:20:03.241Z</time>
      </trkpt>
      <trkpt lat="47.8684" lon="-2.52746">
        <ele>126</ele>
        <time>2023-07-22T09:20:04.240Z</time>
      </trkpt>
      <trkpt lat="47.86839" lon="-2.52747">
        <ele>126</ele>
        <time>2023-07-22T09:20:05.241Z</time>
      </trkpt>
      <trkpt lat="47.86839" lon="-2.52748">
        <ele>126</ele>
        <time>2023-07-22T09:20:06.241Z</time>
      </trkpt>
      <trkpt lat="47.86839" lon="-2.52749">
        <ele>126</ele>
        <time>2023-07-22T09:20:07.241Z</time>
      </trkpt>
      <trkpt lat="47.86838" lon="-2.52751">
        <ele>126</ele>
        <time>2023-07-22T09:20:08.240Z</time>
      </trkpt>
      <trkpt lat="47.86839" lon="-2.52752">
        <ele>126</ele>
        <time>2023-07-22T09:20:09.241Z</time>
      </trkpt>
      <trkpt lat="47.86838" lon="-2.52754">
        <ele>126</ele>
        <time>2023-07-22T09:20:10.241Z</time>
      </trkpt>
      <trkpt lat="47.86838" lon="-2.52755">
        <ele>126</ele>
        <time>2023-07-22T09:20:11.241Z</time>
      </trkpt>
      <trkpt lat="47.86838" lon="-2.52756">
        <ele>126</ele>
        <time>2023-07-22T09:20:12.240Z</time>
      </trkpt>
      <trkpt lat="47.86839" lon="-2.52758">
        <ele>125</ele>
        <time>2023-07-22T09:20:13.241Z</time>
      </trkpt>
      <trkpt lat="47.86839" lon="-2.52759">
        <ele>125</ele>
        <time>2023-07-22T09:20:14.240Z</time>
      </trkpt>
      <trkpt lat="47.86839" lon="-2.5276">
        <ele>125</ele>
        <time>2023-07-22T09:20:15.241Z</time>
      </trkpt>
      <trkpt lat="47.86839" lon="-2.52761">
        <ele>124</ele>
        <time>2023-07-22T09:20:16.240Z</time>
      </trkpt>
      <trkpt lat="47.86838" lon="-2.52762">
        <ele>124</ele>
        <time>2023-07-22T09:20:17.241Z</time>
      </trkpt>
      <trkpt lat="47.86838" lon="-2.52764">
        <ele>124</ele>
        <time>2023-07-22T09:20:18.241Z</time>
      </trkpt>
      <trkpt lat="47.86838" lon="-2.52765">
        <ele>124</ele>
        <time>2023-07-22T09:20:19.240Z</time>
      </trkpt>
      <trkpt lat="47.86838" lon="-2.52766">
        <ele>124</ele>
        <time>2023-07-22T09:20:20.241Z</time>
      </trkpt>
      <trkpt lat="47.86837" lon="-2.52767">
        <ele>123</ele>
        <time>2023-07-22T09:20:21.240Z</time>
      </trkpt>
      <trkpt lat="47.86837" lon="-2.52768">
        <ele>123</ele>
        <time>2023-07-22T09:20:22.240Z</time>
      </trkpt>
      <trkpt lat="47.86837" lon="-2.5277">
        <ele>123</ele>
        <time>2023-07-22T09:20:23.241Z</time>
      </trkpt>
      <trkpt lat="47.86837" lon="-2.52771">
        <ele>123</ele>
        <time>2023-07-22T09:20:24.240Z</time>
      </trkpt>
      <trkpt lat="47.86837" lon="-2.52773">
        <ele>122</ele>
        <time>2023-07-22T09:20:25.241Z</time>
      </trkpt>
      <trkpt lat="47.86837" lon="-2.52775">
        <ele>122</ele>
        <time>2023-07-22T09:20:26.240Z</time>
      </trkpt>
      <trkpt lat="47.86837" lon="-2.52777">
        <ele>123</ele>
        <time>2023-07-22T09:20:27.241Z</time>
      </trkpt>
      <trkpt lat="47.86837" lon="-2.52778">
        <ele>123</ele>
        <time>2023-07-22T09:20:28.240Z</time>
      </trkpt>
      <trkpt lat="47.86836" lon="-2.52779">
        <ele>123</ele>
        <time>2023-07-22T09:20:29.241Z</time>
      </trkpt>
      <trkpt lat="47.86836" lon="-2.52781">
        <ele>123</ele>
        <time>2023-07-22T09:20:30.240Z</time>
      </trkpt>
      <trkpt lat="47.86836" lon="-2.52783">
        <ele>122</ele>
        <time>2023-07-22T09:20:31.240Z</time>
      </trkpt>
      <trkpt lat="47.86836" lon="-2.52784">
        <ele>122</ele>
        <time>2023-07-22T09:20:32.241Z</time>
      </trkpt>
      <trkpt lat="47.86836" lon="-2.52785">
        <ele>122</ele>
        <time>2023-07-22T09:20:33.240Z</time>
      </trkpt>
      <trkpt lat="47.86835" lon="-2.52787">
        <ele>122</ele>
        <time>2023-07-22T09:20:34.241Z</time>
      </trkpt>
      <trkpt lat="47.86836" lon="-2.52788">
        <ele>122</ele>
        <time>2023-07-22T09:20:35.241Z</time>
      </trkpt>
      <trkpt lat="47.86836" lon="-2.5279">
        <ele>121</ele>
        <time>2023-07-22T09:20:36.241Z</time>
      </trkpt>
      <trkpt lat="47.86835" lon="-2.52791">
        <ele>121</ele>
        <time>2023-07-22T09:20:37.241Z</time>
      </trkpt>
      <trkpt lat="47.86835" lon="-2.52793">
        <ele>121</ele>
        <time>2023-07-22T09:20:38.241Z</time>
      </trkpt>
      <trkpt lat="47.86835" lon="-2.52794">
        <ele>121</ele>
        <time>2023-07-22T09:20:39.240Z</time>
      </trkpt>
      <trkpt lat="47.86835" lon="-2.52795">
        <ele>121</ele>
        <time>2023-07-22T09:20:40.241Z</time>
      </trkpt>
      <trkpt lat="47.86835" lon="-2.52795">
        <ele>121</ele>
        <time>2023-07-22T09:20:41.240Z</time>
      </trkpt>
      <trkpt lat="47.86835" lon="-2.52796">
        <ele>121</ele>
        <time>2023-07-22T09:20:42.241Z</time>
      </trkpt>
      <trkpt lat="47.86835" lon="-2.52798">
        <ele>121</ele>
        <time>2023-07-22T09:20:43.240Z</time>
      </trkpt>
      <trkpt lat="47.86836" lon="-2.52802">
        <ele>121</ele>
        <time>2023-07-22T09:20:44.241Z</time>
      </trkpt>
      <trkpt lat="47.86835" lon="-2.52805">
        <ele>121</ele>
        <time>2023-07-22T09:20:45.240Z</time>
      </trkpt>
      <trkpt lat="47.86835" lon="-2.52807">
        <ele>121</ele>
        <time>2023-07-22T09:20:46.241Z</time>
      </trkpt>
      <trkpt lat="47.86835" lon="-2.52809">
        <ele>121</ele>
        <time>2023-07-22T09:20:47.240Z</time>
      </trkpt>
      <trkpt lat="47.86835" lon="-2.5281">
        <ele>121</ele>
        <time>2023-07-22T09:20:48.241Z</time>
      </trkpt>
      <trkpt lat="47.86835" lon="-2.52811">
        <ele>121</ele>
        <time>2023-07-22T09:20:49.240Z</time>
      </trkpt>
      <trkpt lat="47.86835" lon="-2.52812">
        <ele>121</ele>
        <time>2023-07-22T09:20:50.241Z</time>
      </trkpt>
      <trkpt lat="47.86835" lon="-2.52814">
        <ele>121</ele>
        <time>2023-07-22T09:20:51.240Z</time>
      </trkpt>
      <trkpt lat="47.86835" lon="-2.52815">
        <ele>121</ele>
        <time>2023-07-22T09:20:52.241Z</time>
      </trkpt>
      <trkpt lat="47.86834" lon="-2.52816">
        <ele>122</ele>
        <time>2023-07-22T09:20:53.241Z</time>
      </trkpt>
      <trkpt lat="47.86834" lon="-2.52818">
        <ele>122</ele>
        <time>2023-07-22T09:20:54.240Z</time>
      </trkpt>
      <trkpt lat="47.86834" lon="-2.5282">
        <ele>122</ele>
        <time>2023-07-22T09:20:55.241Z</time>
      </trkpt>
      <trkpt lat="47.86834" lon="-2.52822">
        <ele>123</ele>
        <time>2023-07-22T09:20:56.240Z</time>
      </trkpt>
      <trkpt lat="47.86834" lon="-2.52825">
        <ele>123</ele>
        <time>2023-07-22T09:20:57.241Z</time>
      </trkpt>
      <trkpt lat="47.86834" lon="-2.52826">
        <ele>123</ele>
        <time>2023-07-22T09:20:58.240Z</time>
      </trkpt>
      <trkpt lat="47.86834" lon="-2.52827">
        <ele>123</ele>
        <time>2023-07-22T09:20:59.241Z</time>
      </trkpt>
      <trkpt lat="47.86835" lon="-2.52828">
        <ele>124</ele>
        <time>2023-07-22T09:21:00.241Z</time>
      </trkpt>
      <trkpt lat="47.86835" lon="-2.52829">
        <ele>124</ele>
        <time>2023-07-22T09:21:01.240Z</time>
      </trkpt>
      <trkpt lat="47.86836" lon="-2.52832">
        <ele>124</ele>
        <time>2023-07-22T09:21:02.240Z</time>
      </trkpt>
      <trkpt lat="47.86837" lon="-2.52833">
        <ele>124</ele>
        <time>2023-07-22T09:21:03.240Z</time>
      </trkpt>
      <trkpt lat="47.86837" lon="-2.52834">
        <ele>124</ele>
        <time>2023-07-22T09:21:04.240Z</time>
      </trkpt>
      <trkpt lat="47.86839" lon="-2.52836">
        <ele>124</ele>
        <time>2023-07-22T09:21:05.241Z</time>
      </trkpt>
      <trkpt lat="47.8684" lon="-2.52836">
        <ele>124</ele>
        <time>2023-07-22T09:21:06.240Z</time>
      </trkpt>
      <trkpt lat="47.8684" lon="-2.52837">
        <ele>124</ele>
        <time>2023-07-22T09:21:07.241Z</time>
      </trkpt>
      <trkpt lat="47.8684" lon="-2.52839">
        <ele>125</ele>
        <time>2023-07-22T09:21:08.240Z</time>
      </trkpt>
      <trkpt lat="47.8684" lon="-2.52839">
        <ele>125</ele>
        <time>2023-07-22T09:21:09.241Z</time>
      </trkpt>
      <trkpt lat="47.8684" lon="-2.5284">
        <ele>125</ele>
        <time>2023-07-22T09:21:10.240Z</time>
      </trkpt>
      <trkpt lat="47.8684" lon="-2.5284">
        <ele>125</ele>
        <time>2023-07-22T09:21:11.241Z</time>
      </trkpt>
      <trkpt lat="47.86841" lon="-2.52841">
        <ele>126</ele>
        <time>2023-07-22T09:21:12.240Z</time>
      </trkpt>
      <trkpt lat="47.86842" lon="-2.52841">
        <ele>126</ele>
        <time>2023-07-22T09:21:13.241Z</time>
      </trkpt>
      <trkpt lat="47.86842" lon="-2.52841">
        <ele>127</ele>
        <time>2023-07-22T09:21:14.240Z</time>
      </trkpt>
      <trkpt lat="47.86842" lon="-2.52842">
        <ele>127</ele>
        <time>2023-07-22T09:21:15.241Z</time>
      </trkpt>
      <trkpt lat="47.86842" lon="-2.52842">
        <ele>127</ele>
        <time>2023-07-22T09:21:16.240Z</time>
      </trkpt>
      <trkpt lat="47.86843" lon="-2.52843">
        <ele>128</ele>
        <time>2023-07-22T09:21:17.241Z</time>
      </trkpt>
      <trkpt lat="47.86844" lon="-2.52845">
        <ele>128</ele>
        <time>2023-07-22T09:21:18.240Z</time>
      </trkpt>
      <trkpt lat="47.86845" lon="-2.52846">
        <ele>128</ele>
        <time>2023-07-22T09:21:19.241Z</time>
      </trkpt>
      <trkpt lat="47.86845" lon="-2.52847">
        <ele>128</ele>
        <time>2023-07-22T09:21:20.241Z</time>
      </trkpt>
      <trkpt lat="47.86846" lon="-2.52848">
        <ele>129</ele>
        <time>2023-07-22T09:21:21.240Z</time>
      </trkpt>
      <trkpt lat="47.86847" lon="-2.52849">
        <ele>129</ele>
        <time>2023-07-22T09:21:22.241Z</time>
      </trkpt>
      <trkpt lat="47.86847" lon="-2.5285">
        <ele>129</ele>
        <time>2023-07-22T09:21:23.240Z</time>
      </trkpt>
      <trkpt lat="47.86848" lon="-2.52851">
        <ele>129</ele>
        <time>2023-07-22T09:21:24.241Z</time>
      </trkpt>
      <trkpt lat="47.86849" lon="-2.52852">
        <ele>129</ele>
        <time>2023-07-22T09:21:25.240Z</time>
      </trkpt>
      <trkpt lat="47.8685" lon="-2.52853">
        <ele>129</ele>
        <time>2023-07-22T09:21:26.241Z</time>
      </trkpt>
      <trkpt lat="47.86851" lon="-2.52854">
        <ele>129</ele>
        <time>2023-07-22T09:21:27.240Z</time>
      </trkpt>
      <trkpt lat="47.86851" lon="-2.52855">
        <ele>129</ele>
        <time>2023-07-22T09:21:28.241Z</time>
      </trkpt>
      <trkpt lat="47.86851" lon="-2.52856">
        <ele>130</ele>
        <time>2023-07-22T09:21:29.240Z</time>
      </trkpt>
      <trkpt lat="47.86851" lon="-2.52857">
        <ele>130</ele>
        <time>2023-07-22T09:21:30.240Z</time>
      </trkpt>
      <trkpt lat="47.86852" lon="-2.52858">
        <ele>131</ele>
        <time>2023-07-22T09:21:31.240Z</time>
      </trkpt>
      <trkpt lat="47.86852" lon="-2.5286">
        <ele>132</ele>
        <time>2023-07-22T09:21:32.240Z</time>
      </trkpt>
      <trkpt lat="47.86852" lon="-2.52862">
        <ele>132</ele>
        <time>2023-07-22T09:21:33.241Z</time>
      </trkpt>
      <trkpt lat="47.86852" lon="-2.52863">
        <ele>132</ele>
        <time>2023-07-22T09:21:34.240Z</time>
      </trkpt>
      <trkpt lat="47.86852" lon="-2.52864">
        <ele>133</ele>
        <time>2023-07-22T09:21:35.241Z</time>
      </trkpt>
      <trkpt lat="47.86852" lon="-2.52865">
        <ele>133</ele>
        <time>2023-07-22T09:21:36.241Z</time>
      </trkpt>
      <trkpt lat="47.86852" lon="-2.52866">
        <ele>134</ele>
        <time>2023-07-22T09:21:37.240Z</time>
      </trkpt>
      <trkpt lat="47.86852" lon="-2.52867">
        <ele>134</ele>
        <time>2023-07-22T09:21:38.241Z</time>
      </trkpt>
      <trkpt lat="47.86853" lon="-2.52867">
        <ele>134</ele>
        <time>2023-07-22T09:21:39.240Z</time>
      </trkpt>
      <trkpt lat="47.86853" lon="-2.52867">
        <ele>135</ele>
        <time>2023-07-22T09:21:40.241Z</time>
      </trkpt>
      <trkpt lat="47.86854" lon="-2.52868">
        <ele>135</ele>
        <time>2023-07-22T09:21:41.240Z</time>
      </trkpt>
      <trkpt lat="47.86853" lon="-2.52869">
        <ele>135</ele>
        <time>2023-07-22T09:21:42.241Z</time>
      </trkpt>
      <trkpt lat="47.86854" lon="-2.5287">
        <ele>135</ele>
        <time>2023-07-22T09:21:43.240Z</time>
      </trkpt>
      <trkpt lat="47.86855" lon="-2.52871">
        <ele>135</ele>
        <time>2023-07-22T09:21:44.241Z</time>
      </trkpt>
      <trkpt lat="47.86856" lon="-2.52871">
        <ele>135</ele>
        <time>2023-07-22T09:21:45.240Z</time>
      </trkpt>
      <trkpt lat="47.86855" lon="-2.52872">
        <ele>135</ele>
        <time>2023-07-22T09:21:46.241Z</time>
      </trkpt>
      <trkpt lat="47.86855" lon="-2.52872">
        <ele>135</ele>
        <time>2023-07-22T09:21:47.241Z</time>
      </trkpt>
      <trkpt lat="47.86855" lon="-2.52872">
        <ele>135</ele>
        <time>2023-07-22T09:21:48.240Z</time>
      </trkpt>
      <trkpt lat="47.86855" lon="-2.52873">
        <ele>135</ele>
        <time>2023-07-22T09:21:49.240Z</time>
      </trkpt>
      <trkpt lat="47.86856" lon="-2.52874">
        <ele>134</ele>
        <time>2023-07-22T09:21:50.240Z</time>
      </trkpt>
      <trkpt lat="47.86857" lon="-2.52875">
        <ele>134</ele>
        <time>2023-07-22T09:21:51.241Z</time>
      </trkpt>
      <trkpt lat="47.86858" lon="-2.52876">
        <ele>134</ele>
        <time>2023-07-22T09:21:52.240Z</time>
      </trkpt>
      <trkpt lat="47.86859" lon="-2.52877">
        <ele>134</ele>
        <time>2023-07-22T09:21:53.241Z</time>
      </trkpt>
      <trkpt lat="47.8686" lon="-2.52877">
        <ele>134</ele>
        <time>2023-07-22T09:21:54.240Z</time>
      </trkpt>
      <trkpt lat="47.8686" lon="-2.52877">
        <ele>134</ele>
        <time>2023-07-22T09:21:55.241Z</time>
      </trkpt>
      <trkpt lat="47.8686" lon="-2.52877">
        <ele>134</ele>
        <time>2023-07-22T09:21:56.240Z</time>
      </trkpt>
      <trkpt lat="47.86861" lon="-2.52878">
        <ele>134</ele>
        <time>2023-07-22T09:21:57.241Z</time>
      </trkpt>
      <trkpt lat="47.86861" lon="-2.52878">
        <ele>134</ele>
        <time>2023-07-22T09:21:58.240Z</time>
      </trkpt>
      <trkpt lat="47.86861" lon="-2.52878">
        <ele>134</ele>
        <time>2023-07-22T09:21:59.241Z</time>
      </trkpt>
      <trkpt lat="47.86861" lon="-2.52878">
        <ele>134</ele>
        <time>2023-07-22T09:22:00.240Z</time>
      </trkpt>
      <trkpt lat="47.86861" lon="-2.52879">
        <ele>134</ele>
        <time>2023-07-22T09:22:01.240Z</time>
      </trkpt>
      <trkpt lat="47.86862" lon="-2.5288">
        <ele>134</ele>
        <time>2023-07-22T09:22:02.240Z</time>
      </trkpt>
      <trkpt lat="47.86862" lon="-2.52881">
        <ele>134</ele>
        <time>2023-07-22T09:22:03.241Z</time>
      </trkpt>
      <trkpt lat="47.86862" lon="-2.52881">
        <ele>135</ele>
        <time>2023-07-22T09:22:04.241Z</time>
      </trkpt>
      <trkpt lat="47.86863" lon="-2.52882">
        <ele>135</ele>
        <time>2023-07-22T09:22:05.241Z</time>
      </trkpt>
      <trkpt lat="47.86864" lon="-2.52883">
        <ele>135</ele>
        <time>2023-07-22T09:22:06.240Z</time>
      </trkpt>
      <trkpt lat="47.8687" lon="-2.52889">
        <ele>138</ele>
        <time>2023-07-22T09:22:12.686Z</time>
      </trkpt>
      <trkpt lat="47.86872" lon="-2.5289">
        <ele>138</ele>
        <time>2023-07-22T09:22:13.686Z</time>
      </trkpt>
      <trkpt lat="47.86872" lon="-2.5289">
        <ele>138</ele>
        <time>2023-07-22T09:22:14.686Z</time>
      </trkpt>
      <trkpt lat="47.86873" lon="-2.52891">
        <ele>138</ele>
        <time>2023-07-22T09:22:15.686Z</time>
      </trkpt>
      <trkpt lat="47.86874" lon="-2.52892">
        <ele>139</ele>
        <time>2023-07-22T09:22:16.686Z</time>
      </trkpt>
      <trkpt lat="47.86875" lon="-2.52893">
        <ele>139</ele>
        <time>2023-07-22T09:22:17.686Z</time>
      </trkpt>
      <trkpt lat="47.86875" lon="-2.52893">
        <ele>139</ele>
        <time>2023-07-22T09:22:18.686Z</time>
      </trkpt>
      <trkpt lat="47.86876" lon="-2.52896">
        <ele>139</ele>
        <time>2023-07-22T09:22:19.687Z</time>
      </trkpt>
      <trkpt lat="47.86877" lon="-2.52897">
        <ele>139</ele>
        <time>2023-07-22T09:22:20.686Z</time>
      </trkpt>
      <trkpt lat="47.86878" lon="-2.529">
        <ele>140</ele>
        <time>2023-07-22T09:22:21.686Z</time>
      </trkpt>
      <trkpt lat="47.86879" lon="-2.52902">
        <ele>140</ele>
        <time>2023-07-22T09:22:22.686Z</time>
      </trkpt>
      <trkpt lat="47.8688" lon="-2.52905">
        <ele>140</ele>
        <time>2023-07-22T09:22:23.687Z</time>
      </trkpt>
      <trkpt lat="47.8688" lon="-2.52906">
        <ele>140</ele>
        <time>2023-07-22T09:22:24.687Z</time>
      </trkpt>
      <trkpt lat="47.86881" lon="-2.52906">
        <ele>141</ele>
        <time>2023-07-22T09:22:25.687Z</time>
      </trkpt>
      <trkpt lat="47.86883" lon="-2.52905">
        <ele>141</ele>
        <time>2023-07-22T09:22:26.687Z</time>
      </trkpt>
      <trkpt lat="47.86883" lon="-2.52905">
        <ele>141</ele>
        <time>2023-07-22T09:22:27.686Z</time>
      </trkpt>
      <trkpt lat="47.86883" lon="-2.52906">
        <ele>141</ele>
        <time>2023-07-22T09:22:28.686Z</time>
      </trkpt>
      <trkpt lat="47.86884" lon="-2.52907">
        <ele>141</ele>
        <time>2023-07-22T09:22:29.686Z</time>
      </trkpt>
      <trkpt lat="47.86884" lon="-2.52908">
        <ele>141</ele>
        <time>2023-07-22T09:22:30.686Z</time>
      </trkpt>
      <trkpt lat="47.86884" lon="-2.52908">
        <ele>140</ele>
        <time>2023-07-22T09:22:31.686Z</time>
      </trkpt>
      <trkpt lat="47.86885" lon="-2.5291">
        <ele>140</ele>
        <time>2023-07-22T09:22:32.686Z</time>
      </trkpt>
      <trkpt lat="47.86886" lon="-2.52911">
        <ele>140</ele>
        <time>2023-07-22T09:22:33.686Z</time>
      </trkpt>
      <trkpt lat="47.86886" lon="-2.52913">
        <ele>140</ele>
        <time>2023-07-22T09:22:34.686Z</time>
      </trkpt>
      <trkpt lat="47.86886" lon="-2.52914">
        <ele>140</ele>
        <time>2023-07-22T09:22:35.687Z</time>
      </trkpt>
      <trkpt lat="47.86887" lon="-2.52915">
        <ele>139</ele>
        <time>2023-07-22T09:22:36.686Z</time>
      </trkpt>
      <trkpt lat="47.86888" lon="-2.52918">
        <ele>139</ele>
        <time>2023-07-22T09:22:37.686Z</time>
      </trkpt>
      <trkpt lat="47.86889" lon="-2.5292">
        <ele>139</ele>
        <time>2023-07-22T09:22:38.686Z</time>
      </trkpt>
      <trkpt lat="47.86888" lon="-2.52921">
        <ele>139</ele>
        <time>2023-07-22T09:22:39.686Z</time>
      </trkpt>
      <trkpt lat="47.86888" lon="-2.52922">
        <ele>139</ele>
        <time>2023-07-22T09:22:40.687Z</time>
      </trkpt>
      <trkpt lat="47.86888" lon="-2.52923">
        <ele>138</ele>
        <time>2023-07-22T09:22:41.687Z</time>
      </trkpt>
      <trkpt lat="47.86889" lon="-2.52925">
        <ele>138</ele>
        <time>2023-07-22T09:22:42.686Z</time>
      </trkpt>
      <trkpt lat="47.86889" lon="-2.52927">
        <ele>138</ele>
        <time>2023-07-22T09:22:43.686Z</time>
      </trkpt>
      <trkpt lat="47.86888" lon="-2.52928">
        <ele>138</ele>
        <time>2023-07-22T09:22:44.686Z</time>
      </trkpt>
      <trkpt lat="47.86888" lon="-2.52928">
        <ele>138</ele>
        <time>2023-07-22T09:22:45.686Z</time>
      </trkpt>
      <trkpt lat="47.86888" lon="-2.52929">
        <ele>138</ele>
        <time>2023-07-22T09:22:46.686Z</time>
      </trkpt>
      <trkpt lat="47.86888" lon="-2.5293">
        <ele>138</ele>
        <time>2023-07-22T09:22:47.686Z</time>
      </trkpt>
      <trkpt lat="47.86889" lon="-2.5293">
        <ele>138</ele>
        <time>2023-07-22T09:22:48.687Z</time>
      </trkpt>
      <trkpt lat="47.86889" lon="-2.5293">
        <ele>139</ele>
        <time>2023-07-22T09:22:49.686Z</time>
      </trkpt>
      <trkpt lat="47.8689" lon="-2.52931">
        <ele>139</ele>
        <time>2023-07-22T09:22:50.687Z</time>
      </trkpt>
      <trkpt lat="47.8689" lon="-2.52931">
        <ele>139</ele>
        <time>2023-07-22T09:22:51.687Z</time>
      </trkpt>
      <trkpt lat="47.86891" lon="-2.52932">
        <ele>139</ele>
        <time>2023-07-22T09:22:52.686Z</time>
      </trkpt>
      <trkpt lat="47.86891" lon="-2.52933">
        <ele>139</ele>
        <time>2023-07-22T09:22:53.686Z</time>
      </trkpt>
      <trkpt lat="47.86891" lon="-2.52933">
        <ele>139</ele>
        <time>2023-07-22T09:22:54.686Z</time>
      </trkpt>
      <trkpt lat="47.86891" lon="-2.52934">
        <ele>139</ele>
        <time>2023-07-22T09:22:55.686Z</time>
      </trkpt>
      <trkpt lat="47.86891" lon="-2.52936">
        <ele>140</ele>
        <time>2023-07-22T09:22:56.687Z</time>
      </trkpt>
      <trkpt lat="47.8689" lon="-2.52937">
        <ele>140</ele>
        <time>2023-07-22T09:22:57.686Z</time>
      </trkpt>
      <trkpt lat="47.8689" lon="-2.52937">
        <ele>140</ele>
        <time>2023-07-22T09:22:58.686Z</time>
      </trkpt>
      <trkpt lat="47.8689" lon="-2.52938">
        <ele>140</ele>
        <time>2023-07-22T09:22:59.686Z</time>
      </trkpt>
      <trkpt lat="47.86892" lon="-2.52939">
        <ele>141</ele>
        <time>2023-07-22T09:23:00.686Z</time>
      </trkpt>
      <trkpt lat="47.86893" lon="-2.52939">
        <ele>141</ele>
        <time>2023-07-22T09:23:01.686Z</time>
      </trkpt>
      <trkpt lat="47.86893" lon="-2.52939">
        <ele>141</ele>
        <time>2023-07-22T09:23:02.687Z</time>
      </trkpt>
      <trkpt lat="47.86893" lon="-2.52939">
        <ele>141</ele>
        <time>2023-07-22T09:23:03.687Z</time>
      </trkpt>
      <trkpt lat="47.86894" lon="-2.52941">
        <ele>144</ele>
        <time>2023-07-22T09:23:16.055Z</time>
      </trkpt>
      <trkpt lat="47.86893" lon="-2.52942">
        <ele>143</ele>
        <time>2023-07-22T09:23:17.054Z</time>
      </trkpt>
      <trkpt lat="47.86893" lon="-2.52943">
        <ele>143</ele>
        <time>2023-07-22T09:23:18.055Z</time>
      </trkpt>
      <trkpt lat="47.86893" lon="-2.52944">
        <ele>142</ele>
        <time>2023-07-22T09:23:19.054Z</time>
      </trkpt>
      <trkpt lat="47.86893" lon="-2.52944">
        <ele>142</ele>
        <time>2023-07-22T09:23:20.055Z</time>
      </trkpt>
      <trkpt lat="47.86893" lon="-2.52945">
        <ele>142</ele>
        <time>2023-07-22T09:23:21.054Z</time>
      </trkpt>
      <trkpt lat="47.86893" lon="-2.52946">
        <ele>141</ele>
        <time>2023-07-22T09:23:22.054Z</time>
      </trkpt>
      <trkpt lat="47.86893" lon="-2.52946">
        <ele>141</ele>
        <time>2023-07-22T09:23:23.054Z</time>
      </trkpt>
      <trkpt lat="47.86893" lon="-2.52947">
        <ele>140</ele>
        <time>2023-07-22T09:23:24.055Z</time>
      </trkpt>
      <trkpt lat="47.86893" lon="-2.52947">
        <ele>140</ele>
        <time>2023-07-22T09:23:25.054Z</time>
      </trkpt>
      <trkpt lat="47.86893" lon="-2.52947">
        <ele>140</ele>
        <time>2023-07-22T09:23:26.054Z</time>
      </trkpt>
      <trkpt lat="47.86892" lon="-2.52947">
        <ele>140</ele>
        <time>2023-07-22T09:23:27.054Z</time>
      </trkpt>
      <trkpt lat="47.86892" lon="-2.52947">
        <ele>140</ele>
        <time>2023-07-22T09:23:28.054Z</time>
      </trkpt>
      <trkpt lat="47.86892" lon="-2.52947">
        <ele>140</ele>
        <time>2023-07-22T09:23:29.054Z</time>
      </trkpt>
      <trkpt lat="47.86892" lon="-2.52947">
        <ele>140</ele>
        <time>2023-07-22T09:23:30.055Z</time>
      </trkpt>
      <trkpt lat="47.86892" lon="-2.52947">
        <ele>140</ele>
        <time>2023-07-22T09:23:31.054Z</time>
      </trkpt>
      <trkpt lat="47.86892" lon="-2.52947">
        <ele>140</ele>
        <time>2023-07-22T09:23:32.055Z</time>
      </trkpt>
      <trkpt lat="47.86892" lon="-2.52948">
        <ele>141</ele>
        <time>2023-07-22T09:23:33.054Z</time>
      </trkpt>
      <trkpt lat="47.86892" lon="-2.52948">
        <ele>141</ele>
        <time>2023-07-22T09:23:34.054Z</time>
      </trkpt>
      <trkpt lat="47.86892" lon="-2.52948">
        <ele>141</ele>
        <time>2023-07-22T09:23:35.055Z</time>
      </trkpt>
      <trkpt lat="47.86891" lon="-2.52949">
        <ele>141</ele>
        <time>2023-07-22T09:23:36.054Z</time>
      </trkpt>
      <trkpt lat="47.86891" lon="-2.52949">
        <ele>142</ele>
        <time>2023-07-22T09:23:37.054Z</time>
      </trkpt>
      <trkpt lat="47.86891" lon="-2.52949">
        <ele>142</ele>
        <time>2023-07-22T09:23:38.054Z</time>
      </trkpt>
      <trkpt lat="47.8689" lon="-2.5295">
        <ele>142</ele>
        <time>2023-07-22T09:23:39.055Z</time>
      </trkpt>
      <trkpt lat="47.86889" lon="-2.5295">
        <ele>142</ele>
        <time>2023-07-22T09:23:40.054Z</time>
      </trkpt>
      <trkpt lat="47.86889" lon="-2.5295">
        <ele>142</ele>
        <time>2023-07-22T09:23:41.055Z</time>
      </trkpt>
      <trkpt lat="47.86889" lon="-2.52951">
        <ele>142</ele>
        <time>2023-07-22T09:23:42.055Z</time>
      </trkpt>
      <trkpt lat="47.86887" lon="-2.5295">
        <ele>142</ele>
        <time>2023-07-22T09:23:43.054Z</time>
      </trkpt>
      <trkpt lat="47.86887" lon="-2.5295">
        <ele>142</ele>
        <time>2023-07-22T09:23:44.054Z</time>
      </trkpt>
      <trkpt lat="47.86887" lon="-2.5295">
        <ele>142</ele>
        <time>2023-07-22T09:23:45.055Z</time>
      </trkpt>
      <trkpt lat="47.86887" lon="-2.5295">
        <ele>142</ele>
        <time>2023-07-22T09:23:46.054Z</time>
      </trkpt>
      <trkpt lat="47.86886" lon="-2.5295">
        <ele>142</ele>
        <time>2023-07-22T09:23:47.055Z</time>
      </trkpt>
      <trkpt lat="47.86884" lon="-2.5295">
        <ele>143</ele>
        <time>2023-07-22T09:23:48.054Z</time>
      </trkpt>
      <trkpt lat="47.86884" lon="-2.5295">
        <ele>142</ele>
        <time>2023-07-22T09:23:49.055Z</time>
      </trkpt>
      <trkpt lat="47.86882" lon="-2.5295">
        <ele>142</ele>
        <time>2023-07-22T09:23:50.054Z</time>
      </trkpt>
      <trkpt lat="47.86882" lon="-2.5295">
        <ele>142</ele>
        <time>2023-07-22T09:23:51.054Z</time>
      </trkpt>
      <trkpt lat="47.86881" lon="-2.52951">
        <ele>142</ele>
        <time>2023-07-22T09:23:52.054Z</time>
      </trkpt>
      <trkpt lat="47.8688" lon="-2.52952">
        <ele>141</ele>
        <time>2023-07-22T09:23:53.054Z</time>
      </trkpt>
      <trkpt lat="47.86879" lon="-2.52952">
        <ele>141</ele>
        <time>2023-07-22T09:23:54.054Z</time>
      </trkpt>
      <trkpt lat="47.86878" lon="-2.52952">
        <ele>141</ele>
        <time>2023-07-22T09:23:55.055Z</time>
      </trkpt>
      <trkpt lat="47.86876" lon="-2.52952">
        <ele>141</ele>
        <time>2023-07-22T09:23:56.054Z</time>
      </trkpt>
      <trkpt lat="47.86875" lon="-2.52952">
        <ele>141</ele>
        <time>2023-07-22T09:23:57.054Z</time>
      </trkpt>
      <trkpt lat="47.86874" lon="-2.52953">
        <ele>141</ele>
        <time>2023-07-22T09:23:58.054Z</time>
      </trkpt>
      <trkpt lat="47.86873" lon="-2.52954">
        <ele>141</ele>
        <time>2023-07-22T09:23:59.055Z</time>
      </trkpt>
      <trkpt lat="47.86873" lon="-2.52954">
        <ele>141</ele>
        <time>2023-07-22T09:24:00.055Z</time>
      </trkpt>
      <trkpt lat="47.86871" lon="-2.52955">
        <ele>141</ele>
        <time>2023-07-22T09:24:01.054Z</time>
      </trkpt>
      <trkpt lat="47.86871" lon="-2.52956">
        <ele>142</ele>
        <time>2023-07-22T09:24:02.054Z</time>
      </trkpt>
      <trkpt lat="47.8687" lon="-2.52956">
        <ele>142</ele>
        <time>2023-07-22T09:24:03.055Z</time>
      </trkpt>
      <trkpt lat="47.8687" lon="-2.52956">
        <ele>143</ele>
        <time>2023-07-22T09:24:04.054Z</time>
      </trkpt>
      <trkpt lat="47.86869" lon="-2.52956">
        <ele>144</ele>
        <time>2023-07-22T09:24:05.055Z</time>
      </trkpt>
      <trkpt lat="47.86868" lon="-2.52957">
        <ele>144</ele>
        <time>2023-07-22T09:24:06.054Z</time>
      </trkpt>
      <trkpt lat="47.86867" lon="-2.52957">
        <ele>144</ele>
        <time>2023-07-22T09:24:07.055Z</time>
      </trkpt>
      <trkpt lat="47.86866" lon="-2.52958">
        <ele>144</ele>
        <time>2023-07-22T09:24:08.054Z</time>
      </trkpt>
      <trkpt lat="47.86865" lon="-2.52958">
        <ele>144</ele>
        <time>2023-07-22T09:24:09.054Z</time>
      </trkpt>
      <trkpt lat="47.86864" lon="-2.52959">
        <ele>144</ele>
        <time>2023-07-22T09:24:10.055Z</time>
      </trkpt>
      <trkpt lat="47.86862" lon="-2.5296">
        <ele>145</ele>
        <time>2023-07-22T09:24:11.054Z</time>
      </trkpt>
      <trkpt lat="47.86861" lon="-2.5296">
        <ele>145</ele>
        <time>2023-07-22T09:24:12.054Z</time>
      </trkpt>
      <trkpt lat="47.8686" lon="-2.5296">
        <ele>145</ele>
        <time>2023-07-22T09:24:13.055Z</time>
      </trkpt>
      <trkpt lat="47.86859" lon="-2.5296">
        <ele>145</ele>
        <time>2023-07-22T09:24:14.055Z</time>
      </trkpt>
      <trkpt lat="47.86857" lon="-2.5296">
        <ele>146</ele>
        <time>2023-07-22T09:24:15.054Z</time>
      </trkpt>
      <trkpt lat="47.86856" lon="-2.52959">
        <ele>146</ele>
        <time>2023-07-22T09:24:16.054Z</time>
      </trkpt>
      <trkpt lat="47.86855" lon="-2.5296">
        <ele>146</ele>
        <time>2023-07-22T09:24:17.054Z</time>
      </trkpt>
      <trkpt lat="47.86854" lon="-2.5296">
        <ele>146</ele>
        <time>2023-07-22T09:24:18.054Z</time>
      </trkpt>
      <trkpt lat="47.86853" lon="-2.52962">
        <ele>147</ele>
        <time>2023-07-22T09:24:19.055Z</time>
      </trkpt>
      <trkpt lat="47.86853" lon="-2.52963">
        <ele>146</ele>
        <time>2023-07-22T09:24:20.054Z</time>
      </trkpt>
      <trkpt lat="47.86852" lon="-2.52964">
        <ele>146</ele>
        <time>2023-07-22T09:24:21.055Z</time>
      </trkpt>
      <trkpt lat="47.86851" lon="-2.52964">
        <ele>145</ele>
        <time>2023-07-22T09:24:22.055Z</time>
      </trkpt>
      <trkpt lat="47.8685" lon="-2.52965">
        <ele>145</ele>
        <time>2023-07-22T09:24:23.055Z</time>
      </trkpt>
      <trkpt lat="47.86849" lon="-2.52965">
        <ele>144</ele>
        <time>2023-07-22T09:24:24.054Z</time>
      </trkpt>
      <trkpt lat="47.86847" lon="-2.52966">
        <ele>143</ele>
        <time>2023-07-22T09:24:25.055Z</time>
      </trkpt>
      <trkpt lat="47.86846" lon="-2.52966">
        <ele>143</ele>
        <time>2023-07-22T09:24:26.055Z</time>
      </trkpt>
      <trkpt lat="47.86845" lon="-2.52966">
        <ele>143</ele>
        <time>2023-07-22T09:24:27.054Z</time>
      </trkpt>
      <trkpt lat="47.86844" lon="-2.52966">
        <ele>143</ele>
        <time>2023-07-22T09:24:28.055Z</time>
      </trkpt>
      <trkpt lat="47.86843" lon="-2.52966">
        <ele>143</ele>
        <time>2023-07-22T09:24:29.054Z</time>
      </trkpt>
      <trkpt lat="47.86842" lon="-2.52967">
        <ele>143</ele>
        <time>2023-07-22T09:24:30.055Z</time>
      </trkpt>
      <trkpt lat="47.86841" lon="-2.52967">
        <ele>143</ele>
        <time>2023-07-22T09:24:31.054Z</time>
      </trkpt>
      <trkpt lat="47.8684" lon="-2.52966">
        <ele>143</ele>
        <time>2023-07-22T09:24:32.054Z</time>
      </trkpt>
      <trkpt lat="47.86839" lon="-2.52966">
        <ele>143</ele>
        <time>2023-07-22T09:24:33.054Z</time>
      </trkpt>
      <trkpt lat="47.86838" lon="-2.52966">
        <ele>143</ele>
        <time>2023-07-22T09:24:34.055Z</time>
      </trkpt>
      <trkpt lat="47.86838" lon="-2.52966">
        <ele>142</ele>
        <time>2023-07-22T09:24:35.055Z</time>
      </trkpt>
      <trkpt lat="47.86837" lon="-2.52967">
        <ele>142</ele>
        <time>2023-07-22T09:24:36.054Z</time>
      </trkpt>
      <trkpt lat="47.86836" lon="-2.52967">
        <ele>142</ele>
        <time>2023-07-22T09:24:37.055Z</time>
      </trkpt>
      <trkpt lat="47.86835" lon="-2.52968">
        <ele>142</ele>
        <time>2023-07-22T09:24:38.054Z</time>
      </trkpt>
      <trkpt lat="47.86834" lon="-2.52968">
        <ele>142</ele>
        <time>2023-07-22T09:24:39.055Z</time>
      </trkpt>
      <trkpt lat="47.86833" lon="-2.52969">
        <ele>142</ele>
        <time>2023-07-22T09:24:40.054Z</time>
      </trkpt>
      <trkpt lat="47.86831" lon="-2.5297">
        <ele>142</ele>
        <time>2023-07-22T09:24:41.055Z</time>
      </trkpt>
      <trkpt lat="47.86831" lon="-2.52971">
        <ele>141</ele>
        <time>2023-07-22T09:24:42.054Z</time>
      </trkpt>
      <trkpt lat="47.8683" lon="-2.52972">
        <ele>141</ele>
        <time>2023-07-22T09:24:43.055Z</time>
      </trkpt>
      <trkpt lat="47.86829" lon="-2.52973">
        <ele>140</ele>
        <time>2023-07-22T09:24:44.054Z</time>
      </trkpt>
      <trkpt lat="47.86829" lon="-2.52974">
        <ele>139</ele>
        <time>2023-07-22T09:24:45.054Z</time>
      </trkpt>
      <trkpt lat="47.86827" lon="-2.52975">
        <ele>138</ele>
        <time>2023-07-22T09:24:46.055Z</time>
      </trkpt>
      <trkpt lat="47.86826" lon="-2.52975">
        <ele>138</ele>
        <time>2023-07-22T09:24:47.055Z</time>
      </trkpt>
      <trkpt lat="47.86825" lon="-2.52976">
        <ele>137</ele>
        <time>2023-07-22T09:24:48.055Z</time>
      </trkpt>
      <trkpt lat="47.86824" lon="-2.52977">
        <ele>137</ele>
        <time>2023-07-22T09:24:49.054Z</time>
      </trkpt>
      <trkpt lat="47.86823" lon="-2.52977">
        <ele>136</ele>
        <time>2023-07-22T09:24:50.054Z</time>
      </trkpt>
      <trkpt lat="47.86822" lon="-2.52979">
        <ele>136</ele>
        <time>2023-07-22T09:24:51.054Z</time>
      </trkpt>
      <trkpt lat="47.86821" lon="-2.5298">
        <ele>135</ele>
        <time>2023-07-22T09:24:52.054Z</time>
      </trkpt>
      <trkpt lat="47.8682" lon="-2.52981">
        <ele>135</ele>
        <time>2023-07-22T09:24:53.054Z</time>
      </trkpt>
      <trkpt lat="47.8682" lon="-2.52982">
        <ele>135</ele>
        <time>2023-07-22T09:24:54.054Z</time>
      </trkpt>
      <trkpt lat="47.8682" lon="-2.52983">
        <ele>135</ele>
        <time>2023-07-22T09:24:55.055Z</time>
      </trkpt>
      <trkpt lat="47.8682" lon="-2.52982">
        <ele>135</ele>
        <time>2023-07-22T09:24:56.054Z</time>
      </trkpt>
      <trkpt lat="47.8682" lon="-2.52982">
        <ele>137</ele>
        <time>2023-07-22T09:24:57.055Z</time>
      </trkpt>
      <trkpt lat="47.86819" lon="-2.52982">
        <ele>138</ele>
        <time>2023-07-22T09:24:58.054Z</time>
      </trkpt>
      <trkpt lat="47.86818" lon="-2.52982">
        <ele>138</ele>
        <time>2023-07-22T09:24:59.054Z</time>
      </trkpt>
      <trkpt lat="47.86817" lon="-2.52982">
        <ele>139</ele>
        <time>2023-07-22T09:25:00.055Z</time>
      </trkpt>
      <trkpt lat="47.86815" lon="-2.52983">
        <ele>140</ele>
        <time>2023-07-22T09:25:01.055Z</time>
      </trkpt>
      <trkpt lat="47.86813" lon="-2.52983">
        <ele>140</ele>
        <time>2023-07-22T09:25:02.054Z</time>
      </trkpt>
      <trkpt lat="47.86811" lon="-2.52984">
        <ele>140</ele>
        <time>2023-07-22T09:25:03.054Z</time>
      </trkpt>
      <trkpt lat="47.8681" lon="-2.52985">
        <ele>141</ele>
        <time>2023-07-22T09:25:04.055Z</time>
      </trkpt>
      <trkpt lat="47.86809" lon="-2.52986">
        <ele>140</ele>
        <time>2023-07-22T09:25:05.054Z</time>
      </trkpt>
      <trkpt lat="47.86808" lon="-2.52987">
        <ele>140</ele>
        <time>2023-07-22T09:25:06.054Z</time>
      </trkpt>
      <trkpt lat="47.86807" lon="-2.52987">
        <ele>140</ele>
        <time>2023-07-22T09:25:07.055Z</time>
      </trkpt>
      <trkpt lat="47.86807" lon="-2.52988">
        <ele>140</ele>
        <time>2023-07-22T09:25:08.054Z</time>
      </trkpt>
      <trkpt lat="47.86806" lon="-2.52989">
        <ele>140</ele>
        <time>2023-07-22T09:25:09.054Z</time>
      </trkpt>
      <trkpt lat="47.86805" lon="-2.5299">
        <ele>139</ele>
        <time>2023-07-22T09:25:10.055Z</time>
      </trkpt>
      <trkpt lat="47.86805" lon="-2.52991">
        <ele>139</ele>
        <time>2023-07-22T09:25:11.054Z</time>
      </trkpt>
      <trkpt lat="47.86804" lon="-2.52992">
        <ele>138</ele>
        <time>2023-07-22T09:25:12.054Z</time>
      </trkpt>
      <trkpt lat="47.86803" lon="-2.52992">
        <ele>138</ele>
        <time>2023-07-22T09:25:13.054Z</time>
      </trkpt>
      <trkpt lat="47.86802" lon="-2.52992">
        <ele>138</ele>
        <time>2023-07-22T09:25:14.054Z</time>
      </trkpt>
      <trkpt lat="47.86801" lon="-2.52992">
        <ele>138</ele>
        <time>2023-07-22T09:25:15.055Z</time>
      </trkpt>
      <trkpt lat="47.868" lon="-2.52993">
        <ele>139</ele>
        <time>2023-07-22T09:25:16.055Z</time>
      </trkpt>
      <trkpt lat="47.86799" lon="-2.52994">
        <ele>138</ele>
        <time>2023-07-22T09:25:17.054Z</time>
      </trkpt>
      <trkpt lat="47.86799" lon="-2.52994">
        <ele>138</ele>
        <time>2023-07-22T09:25:18.055Z</time>
      </trkpt>
      <trkpt lat="47.86798" lon="-2.52994">
        <ele>138</ele>
        <time>2023-07-22T09:25:19.054Z</time>
      </trkpt>
      <trkpt lat="47.86797" lon="-2.52995">
        <ele>138</ele>
        <time>2023-07-22T09:25:20.054Z</time>
      </trkpt>
      <trkpt lat="47.86796" lon="-2.52996">
        <ele>138</ele>
        <time>2023-07-22T09:25:21.055Z</time>
      </trkpt>
      <trkpt lat="47.86795" lon="-2.52997">
        <ele>138</ele>
        <time>2023-07-22T09:25:22.055Z</time>
      </trkpt>
      <trkpt lat="47.86794" lon="-2.52997">
        <ele>138</ele>
        <time>2023-07-22T09:25:23.055Z</time>
      </trkpt>
      <trkpt lat="47.86793" lon="-2.52998">
        <ele>138</ele>
        <time>2023-07-22T09:25:24.055Z</time>
      </trkpt>
      <trkpt lat="47.86792" lon="-2.53">
        <ele>138</ele>
        <time>2023-07-22T09:25:25.054Z</time>
      </trkpt>
      <trkpt lat="47.86791" lon="-2.53001">
        <ele>137</ele>
        <time>2023-07-22T09:25:26.054Z</time>
      </trkpt>
      <trkpt lat="47.86791" lon="-2.53002">
        <ele>137</ele>
        <time>2023-07-22T09:25:27.054Z</time>
      </trkpt>
      <trkpt lat="47.8679" lon="-2.53002">
        <ele>137</ele>
        <time>2023-07-22T09:25:28.055Z</time>
      </trkpt>
      <trkpt lat="47.86789" lon="-2.53003">
        <ele>136</ele>
        <time>2023-07-22T09:25:29.054Z</time>
      </trkpt>
      <trkpt lat="47.86788" lon="-2.53003">
        <ele>136</ele>
        <time>2023-07-22T09:25:30.054Z</time>
      </trkpt>
      <trkpt lat="47.86787" lon="-2.53004">
        <ele>136</ele>
        <time>2023-07-22T09:25:31.055Z</time>
      </trkpt>
      <trkpt lat="47.86785" lon="-2.53004">
        <ele>137</ele>
        <time>2023-07-22T09:25:32.054Z</time>
      </trkpt>
      <trkpt lat="47.86784" lon="-2.53004">
        <ele>137</ele>
        <time>2023-07-22T09:25:33.054Z</time>
      </trkpt>
      <trkpt lat="47.86784" lon="-2.53004">
        <ele>137</ele>
        <time>2023-07-22T09:25:34.055Z</time>
      </trkpt>
      <trkpt lat="47.86783" lon="-2.53005">
        <ele>137</ele>
        <time>2023-07-22T09:25:35.054Z</time>
      </trkpt>
      <trkpt lat="47.86783" lon="-2.53005">
        <ele>137</ele>
        <time>2023-07-22T09:25:36.055Z</time>
      </trkpt>
      <trkpt lat="47.86783" lon="-2.53006">
        <ele>138</ele>
        <time>2023-07-22T09:25:37.054Z</time>
      </trkpt>
      <trkpt lat="47.86782" lon="-2.53007">
        <ele>138</ele>
        <time>2023-07-22T09:25:38.055Z</time>
      </trkpt>
      <trkpt lat="47.86781" lon="-2.53008">
        <ele>138</ele>
        <time>2023-07-22T09:25:39.054Z</time>
      </trkpt>
      <trkpt lat="47.8678" lon="-2.53008">
        <ele>138</ele>
        <time>2023-07-22T09:25:40.054Z</time>
      </trkpt>
      <trkpt lat="47.8678" lon="-2.53009">
        <ele>138</ele>
        <time>2023-07-22T09:25:41.055Z</time>
      </trkpt>
      <trkpt lat="47.86779" lon="-2.53009">
        <ele>138</ele>
        <time>2023-07-22T09:25:42.054Z</time>
      </trkpt>
      <trkpt lat="47.86778" lon="-2.53009">
        <ele>138</ele>
        <time>2023-07-22T09:25:43.055Z</time>
      </trkpt>
      <trkpt lat="47.86778" lon="-2.5301">
        <ele>138</ele>
        <time>2023-07-22T09:25:44.055Z</time>
      </trkpt>
      <trkpt lat="47.86777" lon="-2.53011">
        <ele>138</ele>
        <time>2023-07-22T09:25:45.054Z</time>
      </trkpt>
      <trkpt lat="47.86777" lon="-2.53012">
        <ele>139</ele>
        <time>2023-07-22T09:25:46.055Z</time>
      </trkpt>
      <trkpt lat="47.86776" lon="-2.53012">
        <ele>139</ele>
        <time>2023-07-22T09:25:47.055Z</time>
      </trkpt>
      <trkpt lat="47.86775" lon="-2.53014">
        <ele>139</ele>
        <time>2023-07-22T09:25:48.054Z</time>
      </trkpt>
      <trkpt lat="47.86774" lon="-2.53015">
        <ele>139</ele>
        <time>2023-07-22T09:25:49.054Z</time>
      </trkpt>
      <trkpt lat="47.86774" lon="-2.53016">
        <ele>139</ele>
        <time>2023-07-22T09:25:50.054Z</time>
      </trkpt>
      <trkpt lat="47.86773" lon="-2.53016">
        <ele>139</ele>
        <time>2023-07-22T09:25:51.055Z</time>
      </trkpt>
      <trkpt lat="47.86771" lon="-2.53017">
        <ele>139</ele>
        <time>2023-07-22T09:25:52.055Z</time>
      </trkpt>
      <trkpt lat="47.8677" lon="-2.53017">
        <ele>139</ele>
        <time>2023-07-22T09:25:53.054Z</time>
      </trkpt>
      <trkpt lat="47.86769" lon="-2.53016">
        <ele>139</ele>
        <time>2023-07-22T09:25:54.054Z</time>
      </trkpt>
      <trkpt lat="47.86768" lon="-2.53016">
        <ele>139</ele>
        <time>2023-07-22T09:25:55.054Z</time>
      </trkpt>
      <trkpt lat="47.86768" lon="-2.53016">
        <ele>139</ele>
        <time>2023-07-22T09:25:56.055Z</time>
      </trkpt>
      <trkpt lat="47.86767" lon="-2.53015">
        <ele>139</ele>
        <time>2023-07-22T09:25:57.054Z</time>
      </trkpt>
      <trkpt lat="47.86766" lon="-2.53015">
        <ele>140</ele>
        <time>2023-07-22T09:25:58.054Z</time>
      </trkpt>
      <trkpt lat="47.86765" lon="-2.53014">
        <ele>140</ele>
        <time>2023-07-22T09:25:59.054Z</time>
      </trkpt>
      <trkpt lat="47.86764" lon="-2.53014">
        <ele>140</ele>
        <time>2023-07-22T09:26:00.055Z</time>
      </trkpt>
      <trkpt lat="47.86763" lon="-2.53014">
        <ele>140</ele>
        <time>2023-07-22T09:26:01.055Z</time>
      </trkpt>
      <trkpt lat="47.86763" lon="-2.53013">
        <ele>140</ele>
        <time>2023-07-22T09:26:02.055Z</time>
      </trkpt>
      <trkpt lat="47.86762" lon="-2.53012">
        <ele>140</ele>
        <time>2023-07-22T09:26:03.054Z</time>
      </trkpt>
      <trkpt lat="47.86762" lon="-2.53011">
        <ele>141</ele>
        <time>2023-07-22T09:26:04.054Z</time>
      </trkpt>
      <trkpt lat="47.86761" lon="-2.5301">
        <ele>141</ele>
        <time>2023-07-22T09:26:05.054Z</time>
      </trkpt>
      <trkpt lat="47.8676" lon="-2.53009">
        <ele>141</ele>
        <time>2023-07-22T09:26:06.055Z</time>
      </trkpt>
      <trkpt lat="47.86759" lon="-2.53008">
        <ele>141</ele>
        <time>2023-07-22T09:26:07.054Z</time>
      </trkpt>
      <trkpt lat="47.86758" lon="-2.53007">
        <ele>141</ele>
        <time>2023-07-22T09:26:08.055Z</time>
      </trkpt>
      <trkpt lat="47.86757" lon="-2.53006">
        <ele>141</ele>
        <time>2023-07-22T09:26:09.055Z</time>
      </trkpt>
      <trkpt lat="47.86756" lon="-2.53005">
        <ele>141</ele>
        <time>2023-07-22T09:26:10.054Z</time>
      </trkpt>
      <trkpt lat="47.86756" lon="-2.53004">
        <ele>142</ele>
        <time>2023-07-22T09:26:11.054Z</time>
      </trkpt>
      <trkpt lat="47.86755" lon="-2.53004">
        <ele>142</ele>
        <time>2023-07-22T09:26:12.055Z</time>
      </trkpt>
      <trkpt lat="47.86754" lon="-2.53003">
        <ele>141</ele>
        <time>2023-07-22T09:26:13.054Z</time>
      </trkpt>
      <trkpt lat="47.86754" lon="-2.53003">
        <ele>141</ele>
        <time>2023-07-22T09:26:14.054Z</time>
      </trkpt>
      <trkpt lat="47.86753" lon="-2.53002">
        <ele>141</ele>
        <time>2023-07-22T09:26:15.055Z</time>
      </trkpt>
      <trkpt lat="47.86752" lon="-2.53002">
        <ele>141</ele>
        <time>2023-07-22T09:26:16.055Z</time>
      </trkpt>
      <trkpt lat="47.86752" lon="-2.53002">
        <ele>140</ele>
        <time>2023-07-22T09:26:17.055Z</time>
      </trkpt>
      <trkpt lat="47.86751" lon="-2.53002">
        <ele>140</ele>
        <time>2023-07-22T09:26:18.055Z</time>
      </trkpt>
      <trkpt lat="47.8675" lon="-2.53001">
        <ele>140</ele>
        <time>2023-07-22T09:26:19.055Z</time>
      </trkpt>
      <trkpt lat="47.86749" lon="-2.53">
        <ele>139</ele>
        <time>2023-07-22T09:26:20.055Z</time>
      </trkpt>
      <trkpt lat="47.86747" lon="-2.53">
        <ele>139</ele>
        <time>2023-07-22T09:26:21.055Z</time>
      </trkpt>
      <trkpt lat="47.86747" lon="-2.53">
        <ele>138</ele>
        <time>2023-07-22T09:26:22.054Z</time>
      </trkpt>
      <trkpt lat="47.86745" lon="-2.53">
        <ele>138</ele>
        <time>2023-07-22T09:26:23.054Z</time>
      </trkpt>
      <trkpt lat="47.86744" lon="-2.52999">
        <ele>139</ele>
        <time>2023-07-22T09:26:24.054Z</time>
      </trkpt>
      <trkpt lat="47.86743" lon="-2.52998">
        <ele>139</ele>
        <time>2023-07-22T09:26:25.054Z</time>
      </trkpt>
      <trkpt lat="47.86742" lon="-2.52998">
        <ele>140</ele>
        <time>2023-07-22T09:26:26.055Z</time>
      </trkpt>
      <trkpt lat="47.86741" lon="-2.52997">
        <ele>140</ele>
        <time>2023-07-22T09:26:27.055Z</time>
      </trkpt>
      <trkpt lat="47.8674" lon="-2.52997">
        <ele>140</ele>
        <time>2023-07-22T09:26:28.054Z</time>
      </trkpt>
      <trkpt lat="47.8674" lon="-2.52996">
        <ele>141</ele>
        <time>2023-07-22T09:26:29.054Z</time>
      </trkpt>
      <trkpt lat="47.86739" lon="-2.52996">
        <ele>141</ele>
        <time>2023-07-22T09:26:30.054Z</time>
      </trkpt>
      <trkpt lat="47.86738" lon="-2.52995">
        <ele>141</ele>
        <time>2023-07-22T09:26:31.054Z</time>
      </trkpt>
      <trkpt lat="47.86737" lon="-2.52995">
        <ele>141</ele>
        <time>2023-07-22T09:26:32.055Z</time>
      </trkpt>
      <trkpt lat="47.86736" lon="-2.52995">
        <ele>141</ele>
        <time>2023-07-22T09:26:33.055Z</time>
      </trkpt>
      <trkpt lat="47.86736" lon="-2.52995">
        <ele>141</ele>
        <time>2023-07-22T09:26:34.054Z</time>
      </trkpt>
      <trkpt lat="47.86735" lon="-2.52994">
        <ele>141</ele>
        <time>2023-07-22T09:26:35.055Z</time>
      </trkpt>
      <trkpt lat="47.86734" lon="-2.52993">
        <ele>141</ele>
        <time>2023-07-22T09:26:36.054Z</time>
      </trkpt>
      <trkpt lat="47.86733" lon="-2.52993">
        <ele>141</ele>
        <time>2023-07-22T09:26:37.054Z</time>
      </trkpt>
      <trkpt lat="47.86732" lon="-2.52992">
        <ele>141</ele>
        <time>2023-07-22T09:26:38.054Z</time>
      </trkpt>
      <trkpt lat="47.86731" lon="-2.52992">
        <ele>142</ele>
        <time>2023-07-22T09:26:39.055Z</time>
      </trkpt>
      <trkpt lat="47.86731" lon="-2.52992">
        <ele>142</ele>
        <time>2023-07-22T09:26:40.055Z</time>
      </trkpt>
      <trkpt lat="47.86729" lon="-2.5299">
        <ele>142</ele>
        <time>2023-07-22T09:26:41.055Z</time>
      </trkpt>
      <trkpt lat="47.86728" lon="-2.5299">
        <ele>142</ele>
        <time>2023-07-22T09:26:42.055Z</time>
      </trkpt>
      <trkpt lat="47.86727" lon="-2.52989">
        <ele>142</ele>
        <time>2023-07-22T09:26:43.055Z</time>
      </trkpt>
      <trkpt lat="47.86726" lon="-2.52988">
        <ele>142</ele>
        <time>2023-07-22T09:26:44.055Z</time>
      </trkpt>
      <trkpt lat="47.86725" lon="-2.52987">
        <ele>141</ele>
        <time>2023-07-22T09:26:45.054Z</time>
      </trkpt>
      <trkpt lat="47.86724" lon="-2.52987">
        <ele>141</ele>
        <time>2023-07-22T09:26:46.055Z</time>
      </trkpt>
      <trkpt lat="47.86722" lon="-2.52987">
        <ele>141</ele>
        <time>2023-07-22T09:26:47.054Z</time>
      </trkpt>
      <trkpt lat="47.86721" lon="-2.52987">
        <ele>140</ele>
        <time>2023-07-22T09:26:48.054Z</time>
      </trkpt>
      <trkpt lat="47.8672" lon="-2.52986">
        <ele>140</ele>
        <time>2023-07-22T09:26:49.054Z</time>
      </trkpt>
      <trkpt lat="47.86719" lon="-2.52986">
        <ele>139</ele>
        <time>2023-07-22T09:26:50.055Z</time>
      </trkpt>
      <trkpt lat="47.86718" lon="-2.52985">
        <ele>139</ele>
        <time>2023-07-22T09:26:51.054Z</time>
      </trkpt>
      <trkpt lat="47.86717" lon="-2.52984">
        <ele>138</ele>
        <time>2023-07-22T09:26:52.054Z</time>
      </trkpt>
      <trkpt lat="47.86716" lon="-2.52983">
        <ele>137</ele>
        <time>2023-07-22T09:26:53.054Z</time>
      </trkpt>
      <trkpt lat="47.86716" lon="-2.52982">
        <ele>137</ele>
        <time>2023-07-22T09:26:54.054Z</time>
      </trkpt>
      <trkpt lat="47.86716" lon="-2.52981">
        <ele>137</ele>
        <time>2023-07-22T09:26:55.055Z</time>
      </trkpt>
      <trkpt lat="47.86716" lon="-2.52981">
        <ele>136</ele>
        <time>2023-07-22T09:26:56.055Z</time>
      </trkpt>
      <trkpt lat="47.86714" lon="-2.5298">
        <ele>136</ele>
        <time>2023-07-22T09:26:57.054Z</time>
      </trkpt>
      <trkpt lat="47.86713" lon="-2.52979">
        <ele>136</ele>
        <time>2023-07-22T09:26:58.054Z</time>
      </trkpt>
      <trkpt lat="47.86712" lon="-2.52978">
        <ele>136</ele>
        <time>2023-07-22T09:26:59.054Z</time>
      </trkpt>
      <trkpt lat="47.86711" lon="-2.52978">
        <ele>137</ele>
        <time>2023-07-22T09:27:00.054Z</time>
      </trkpt>
      <trkpt lat="47.8671" lon="-2.52977">
        <ele>137</ele>
        <time>2023-07-22T09:27:01.054Z</time>
      </trkpt>
      <trkpt lat="47.8671" lon="-2.52976">
        <ele>137</ele>
        <time>2023-07-22T09:27:02.054Z</time>
      </trkpt>
      <trkpt lat="47.86709" lon="-2.52976">
        <ele>137</ele>
        <time>2023-07-22T09:27:03.054Z</time>
      </trkpt>
      <trkpt lat="47.86708" lon="-2.52976">
        <ele>137</ele>
        <time>2023-07-22T09:27:04.054Z</time>
      </trkpt>
      <trkpt lat="47.86707" lon="-2.52975">
        <ele>137</ele>
        <time>2023-07-22T09:27:05.054Z</time>
      </trkpt>
      <trkpt lat="47.86706" lon="-2.52975">
        <ele>137</ele>
        <time>2023-07-22T09:27:06.054Z</time>
      </trkpt>
      <trkpt lat="47.86705" lon="-2.52974">
        <ele>137</ele>
        <time>2023-07-22T09:27:07.054Z</time>
      </trkpt>
      <trkpt lat="47.86703" lon="-2.52973">
        <ele>137</ele>
        <time>2023-07-22T09:27:08.054Z</time>
      </trkpt>
      <trkpt lat="47.86702" lon="-2.52972">
        <ele>137</ele>
        <time>2023-07-22T09:27:09.055Z</time>
      </trkpt>
      <trkpt lat="47.86701" lon="-2.52972">
        <ele>138</ele>
        <time>2023-07-22T09:27:10.054Z</time>
      </trkpt>
      <trkpt lat="47.86701" lon="-2.52972">
        <ele>138</ele>
        <time>2023-07-22T09:27:11.055Z</time>
      </trkpt>
      <trkpt lat="47.86701" lon="-2.52972">
        <ele>138</ele>
        <time>2023-07-22T09:27:12.054Z</time>
      </trkpt>
      <trkpt lat="47.867" lon="-2.52971">
        <ele>138</ele>
        <time>2023-07-22T09:27:13.055Z</time>
      </trkpt>
      <trkpt lat="47.867" lon="-2.5297">
        <ele>138</ele>
        <time>2023-07-22T09:27:14.055Z</time>
      </trkpt>
      <trkpt lat="47.86699" lon="-2.5297">
        <ele>139</ele>
        <time>2023-07-22T09:27:15.055Z</time>
      </trkpt>
      <trkpt lat="47.86699" lon="-2.52969">
        <ele>139</ele>
        <time>2023-07-22T09:27:16.054Z</time>
      </trkpt>
      <trkpt lat="47.86699" lon="-2.52969">
        <ele>140</ele>
        <time>2023-07-22T09:27:17.054Z</time>
      </trkpt>
      <trkpt lat="47.86698" lon="-2.52968">
        <ele>140</ele>
        <time>2023-07-22T09:27:18.054Z</time>
      </trkpt>
      <trkpt lat="47.86698" lon="-2.52968">
        <ele>141</ele>
        <time>2023-07-22T09:27:19.055Z</time>
      </trkpt>
      <trkpt lat="47.86697" lon="-2.52967">
        <ele>141</ele>
        <time>2023-07-22T09:27:20.055Z</time>
      </trkpt>
      <trkpt lat="47.86696" lon="-2.52967">
        <ele>142</ele>
        <time>2023-07-22T09:27:21.055Z</time>
      </trkpt>
      <trkpt lat="47.86695" lon="-2.52966">
        <ele>141</ele>
        <time>2023-07-22T09:27:22.055Z</time>
      </trkpt>
      <trkpt lat="47.86694" lon="-2.52965">
        <ele>141</ele>
        <time>2023-07-22T09:27:23.054Z</time>
      </trkpt>
      <trkpt lat="47.86693" lon="-2.52964">
        <ele>141</ele>
        <time>2023-07-22T09:27:24.054Z</time>
      </trkpt>
      <trkpt lat="47.86692" lon="-2.52962">
        <ele>140</ele>
        <time>2023-07-22T09:27:25.054Z</time>
      </trkpt>
      <trkpt lat="47.86691" lon="-2.52961">
        <ele>140</ele>
        <time>2023-07-22T09:27:26.055Z</time>
      </trkpt>
      <trkpt lat="47.8669" lon="-2.52959">
        <ele>139</ele>
        <time>2023-07-22T09:27:27.054Z</time>
      </trkpt>
      <trkpt lat="47.8669" lon="-2.52958">
        <ele>139</ele>
        <time>2023-07-22T09:27:28.054Z</time>
      </trkpt>
      <trkpt lat="47.8669" lon="-2.52957">
        <ele>139</ele>
        <time>2023-07-22T09:27:29.055Z</time>
      </trkpt>
      <trkpt lat="47.86689" lon="-2.52955">
        <ele>139</ele>
        <time>2023-07-22T09:27:30.055Z</time>
      </trkpt>
      <trkpt lat="47.86689" lon="-2.52954">
        <ele>138</ele>
        <time>2023-07-22T09:27:31.055Z</time>
      </trkpt>
      <trkpt lat="47.86689" lon="-2.52953">
        <ele>138</ele>
        <time>2023-07-22T09:27:32.055Z</time>
      </trkpt>
      <trkpt lat="47.86689" lon="-2.52952">
        <ele>138</ele>
        <time>2023-07-22T09:27:33.055Z</time>
      </trkpt>
      <trkpt lat="47.86688" lon="-2.52951">
        <ele>138</ele>
        <time>2023-07-22T09:27:34.054Z</time>
      </trkpt>
      <trkpt lat="47.86686" lon="-2.52951">
        <ele>138</ele>
        <time>2023-07-22T09:27:35.054Z</time>
      </trkpt>
      <trkpt lat="47.86685" lon="-2.5295">
        <ele>137</ele>
        <time>2023-07-22T09:27:36.055Z</time>
      </trkpt>
      <trkpt lat="47.86685" lon="-2.52949">
        <ele>137</ele>
        <time>2023-07-22T09:27:37.055Z</time>
      </trkpt>
      <trkpt lat="47.86684" lon="-2.52948">
        <ele>137</ele>
        <time>2023-07-22T09:27:38.055Z</time>
      </trkpt>
      <trkpt lat="47.86684" lon="-2.52947">
        <ele>137</ele>
        <time>2023-07-22T09:27:39.054Z</time>
      </trkpt>
      <trkpt lat="47.86685" lon="-2.52944">
        <ele>137</ele>
        <time>2023-07-22T09:27:40.055Z</time>
      </trkpt>
      <trkpt lat="47.86685" lon="-2.52942">
        <ele>137</ele>
        <time>2023-07-22T09:27:41.054Z</time>
      </trkpt>
      <trkpt lat="47.86684" lon="-2.52941">
        <ele>137</ele>
        <time>2023-07-22T09:27:42.054Z</time>
      </trkpt>
      <trkpt lat="47.86684" lon="-2.5294">
        <ele>138</ele>
        <time>2023-07-22T09:27:43.055Z</time>
      </trkpt>
      <trkpt lat="47.86684" lon="-2.52939">
        <ele>138</ele>
        <time>2023-07-22T09:27:44.055Z</time>
      </trkpt>
      <trkpt lat="47.86684" lon="-2.52938">
        <ele>138</ele>
        <time>2023-07-22T09:27:45.054Z</time>
      </trkpt>
      <trkpt lat="47.86684" lon="-2.52938">
        <ele>139</ele>
        <time>2023-07-22T09:27:46.054Z</time>
      </trkpt>
      <trkpt lat="47.86683" lon="-2.52937">
        <ele>139</ele>
        <time>2023-07-22T09:27:47.054Z</time>
      </trkpt>
      <trkpt lat="47.86682" lon="-2.52936">
        <ele>139</ele>
        <time>2023-07-22T09:27:48.054Z</time>
      </trkpt>
      <trkpt lat="47.86682" lon="-2.52934">
        <ele>140</ele>
        <time>2023-07-22T09:27:49.054Z</time>
      </trkpt>
      <trkpt lat="47.86681" lon="-2.52933">
        <ele>140</ele>
        <time>2023-07-22T09:27:50.055Z</time>
      </trkpt>
      <trkpt lat="47.8668" lon="-2.52933">
        <ele>140</ele>
        <time>2023-07-22T09:27:51.055Z</time>
      </trkpt>
      <trkpt lat="47.86679" lon="-2.52932">
        <ele>141</ele>
        <time>2023-07-22T09:27:52.055Z</time>
      </trkpt>
      <trkpt lat="47.86679" lon="-2.52931">
        <ele>141</ele>
        <time>2023-07-22T09:27:53.055Z</time>
      </trkpt>
      <trkpt lat="47.86678" lon="-2.52931">
        <ele>141</ele>
        <time>2023-07-22T09:27:54.055Z</time>
      </trkpt>
      <trkpt lat="47.86677" lon="-2.5293">
        <ele>141</ele>
        <time>2023-07-22T09:27:55.055Z</time>
      </trkpt>
      <trkpt lat="47.86676" lon="-2.52928">
        <ele>142</ele>
        <time>2023-07-22T09:27:56.055Z</time>
      </trkpt>
      <trkpt lat="47.86675" lon="-2.52927">
        <ele>142</ele>
        <time>2023-07-22T09:27:57.055Z</time>
      </trkpt>
      <trkpt lat="47.86675" lon="-2.52925">
        <ele>142</ele>
        <time>2023-07-22T09:27:58.055Z</time>
      </trkpt>
      <trkpt lat="47.86674" lon="-2.52923">
        <ele>142</ele>
        <time>2023-07-22T09:27:59.055Z</time>
      </trkpt>
      <trkpt lat="47.86673" lon="-2.52922">
        <ele>142</ele>
        <time>2023-07-22T09:28:00.054Z</time>
      </trkpt>
      <trkpt lat="47.86673" lon="-2.52922">
        <ele>142</ele>
        <time>2023-07-22T09:28:01.054Z</time>
      </trkpt>
      <trkpt lat="47.86674" lon="-2.52921">
        <ele>141</ele>
        <time>2023-07-22T09:28:02.055Z</time>
      </trkpt>
      <trkpt lat="47.86674" lon="-2.52921">
        <ele>141</ele>
        <time>2023-07-22T09:28:03.055Z</time>
      </trkpt>
      <trkpt lat="47.86674" lon="-2.5292">
        <ele>141</ele>
        <time>2023-07-22T09:28:04.055Z</time>
      </trkpt>
      <trkpt lat="47.86674" lon="-2.52919">
        <ele>142</ele>
        <time>2023-07-22T09:28:05.054Z</time>
      </trkpt>
      <trkpt lat="47.86674" lon="-2.52919">
        <ele>142</ele>
        <time>2023-07-22T09:28:06.055Z</time>
      </trkpt>
      <trkpt lat="47.86673" lon="-2.52918">
        <ele>142</ele>
        <time>2023-07-22T09:28:07.055Z</time>
      </trkpt>
      <trkpt lat="47.86673" lon="-2.52917">
        <ele>142</ele>
        <time>2023-07-22T09:28:08.054Z</time>
      </trkpt>
      <trkpt lat="47.86673" lon="-2.52916">
        <ele>142</ele>
        <time>2023-07-22T09:28:09.054Z</time>
      </trkpt>
      <trkpt lat="47.86672" lon="-2.52915">
        <ele>142</ele>
        <time>2023-07-22T09:28:10.054Z</time>
      </trkpt>
      <trkpt lat="47.86672" lon="-2.52914">
        <ele>142</ele>
        <time>2023-07-22T09:28:11.054Z</time>
      </trkpt>
      <trkpt lat="47.86671" lon="-2.52913">
        <ele>143</ele>
        <time>2023-07-22T09:28:12.054Z</time>
      </trkpt>
      <trkpt lat="47.86671" lon="-2.52913">
        <ele>143</ele>
        <time>2023-07-22T09:28:13.054Z</time>
      </trkpt>
      <trkpt lat="47.86671" lon="-2.52912">
        <ele>144</ele>
        <time>2023-07-22T09:28:14.055Z</time>
      </trkpt>
      <trkpt lat="47.86671" lon="-2.52912">
        <ele>144</ele>
        <time>2023-07-22T09:28:15.054Z</time>
      </trkpt>
      <trkpt lat="47.8667" lon="-2.52911">
        <ele>144</ele>
        <time>2023-07-22T09:28:16.054Z</time>
      </trkpt>
      <trkpt lat="47.8667" lon="-2.52909">
        <ele>144</ele>
        <time>2023-07-22T09:28:17.055Z</time>
      </trkpt>
      <trkpt lat="47.86669" lon="-2.52908">
        <ele>143</ele>
        <time>2023-07-22T09:28:18.055Z</time>
      </trkpt>
      <trkpt lat="47.86669" lon="-2.52907">
        <ele>143</ele>
        <time>2023-07-22T09:28:19.054Z</time>
      </trkpt>
      <trkpt lat="47.86668" lon="-2.52906">
        <ele>142</ele>
        <time>2023-07-22T09:28:20.055Z</time>
      </trkpt>
      <trkpt lat="47.86667" lon="-2.52904">
        <ele>142</ele>
        <time>2023-07-22T09:28:21.054Z</time>
      </trkpt>
      <trkpt lat="47.86667" lon="-2.52903">
        <ele>142</ele>
        <time>2023-07-22T09:28:22.054Z</time>
      </trkpt>
      <trkpt lat="47.86666" lon="-2.52902">
        <ele>141</ele>
        <time>2023-07-22T09:28:23.055Z</time>
      </trkpt>
      <trkpt lat="47.86665" lon="-2.52899">
        <ele>141</ele>
        <time>2023-07-22T09:28:24.054Z</time>
      </trkpt>
      <trkpt lat="47.86664" lon="-2.52897">
        <ele>141</ele>
        <time>2023-07-22T09:28:25.055Z</time>
      </trkpt>
      <trkpt lat="47.86664" lon="-2.52896">
        <ele>141</ele>
        <time>2023-07-22T09:28:26.055Z</time>
      </trkpt>
      <trkpt lat="47.86664" lon="-2.52894">
        <ele>141</ele>
        <time>2023-07-22T09:28:27.054Z</time>
      </trkpt>
      <trkpt lat="47.86663" lon="-2.52891">
        <ele>141</ele>
        <time>2023-07-22T09:28:28.054Z</time>
      </trkpt>
      <trkpt lat="47.86663" lon="-2.5289">
        <ele>141</ele>
        <time>2023-07-22T09:28:29.054Z</time>
      </trkpt>
      <trkpt lat="47.86663" lon="-2.52889">
        <ele>141</ele>
        <time>2023-07-22T09:28:30.054Z</time>
      </trkpt>
      <trkpt lat="47.86663" lon="-2.52888">
        <ele>141</ele>
        <time>2023-07-22T09:28:31.054Z</time>
      </trkpt>
      <trkpt lat="47.86661" lon="-2.52888">
        <ele>140</ele>
        <time>2023-07-22T09:28:32.054Z</time>
      </trkpt>
      <trkpt lat="47.86661" lon="-2.52887">
        <ele>140</ele>
        <time>2023-07-22T09:28:33.055Z</time>
      </trkpt>
      <trkpt lat="47.86659" lon="-2.52886">
        <ele>140</ele>
        <time>2023-07-22T09:28:34.054Z</time>
      </trkpt>
      <trkpt lat="47.86659" lon="-2.52886">
        <ele>140</ele>
        <time>2023-07-22T09:28:35.054Z</time>
      </trkpt>
      <trkpt lat="47.86659" lon="-2.52885">
        <ele>140</ele>
        <time>2023-07-22T09:28:36.054Z</time>
      </trkpt>
      <trkpt lat="47.86657" lon="-2.52885">
        <ele>140</ele>
        <time>2023-07-22T09:28:37.054Z</time>
      </trkpt>
      <trkpt lat="47.86657" lon="-2.52884">
        <ele>140</ele>
        <time>2023-07-22T09:28:38.054Z</time>
      </trkpt>
      <trkpt lat="47.86656" lon="-2.52884">
        <ele>140</ele>
        <time>2023-07-22T09:28:39.054Z</time>
      </trkpt>
      <trkpt lat="47.86656" lon="-2.52884">
        <ele>140</ele>
        <time>2023-07-22T09:28:40.054Z</time>
      </trkpt>
      <trkpt lat="47.86652" lon="-2.52883">
        <ele>140</ele>
        <time>2023-07-22T09:28:46.547Z</time>
      </trkpt>
      <trkpt lat="47.86651" lon="-2.52882">
        <ele>139</ele>
        <time>2023-07-22T09:28:47.547Z</time>
      </trkpt>
      <trkpt lat="47.8665" lon="-2.52882">
        <ele>139</ele>
        <time>2023-07-22T09:28:48.547Z</time>
      </trkpt>
      <trkpt lat="47.8665" lon="-2.52881">
        <ele>139</ele>
        <time>2023-07-22T09:28:49.547Z</time>
      </trkpt>
      <trkpt lat="47.86649" lon="-2.52881">
        <ele>139</ele>
        <time>2023-07-22T09:28:50.548Z</time>
      </trkpt>
      <trkpt lat="47.86648" lon="-2.5288">
        <ele>139</ele>
        <time>2023-07-22T09:28:51.548Z</time>
      </trkpt>
      <trkpt lat="47.86648" lon="-2.5288">
        <ele>139</ele>
        <time>2023-07-22T09:28:52.548Z</time>
      </trkpt>
      <trkpt lat="47.86648" lon="-2.5288">
        <ele>140</ele>
        <time>2023-07-22T09:28:53.548Z</time>
      </trkpt>
      <trkpt lat="47.86645" lon="-2.52879">
        <ele>139</ele>
        <time>2023-07-22T09:28:54.548Z</time>
      </trkpt>
      <trkpt lat="47.86645" lon="-2.52879">
        <ele>139</ele>
        <time>2023-07-22T09:28:55.547Z</time>
      </trkpt>
      <trkpt lat="47.86644" lon="-2.52879">
        <ele>139</ele>
        <time>2023-07-22T09:28:56.547Z</time>
      </trkpt>
      <trkpt lat="47.86643" lon="-2.52878">
        <ele>139</ele>
        <time>2023-07-22T09:28:57.547Z</time>
      </trkpt>
      <trkpt lat="47.86642" lon="-2.52878">
        <ele>139</ele>
        <time>2023-07-22T09:28:58.548Z</time>
      </trkpt>
      <trkpt lat="47.86641" lon="-2.52878">
        <ele>139</ele>
        <time>2023-07-22T09:28:59.547Z</time>
      </trkpt>
      <trkpt lat="47.86641" lon="-2.52878">
        <ele>139</ele>
        <time>2023-07-22T09:29:00.547Z</time>
      </trkpt>
      <trkpt lat="47.8664" lon="-2.52877">
        <ele>139</ele>
        <time>2023-07-22T09:29:01.547Z</time>
      </trkpt>
      <trkpt lat="47.86639" lon="-2.52877">
        <ele>140</ele>
        <time>2023-07-22T09:29:02.548Z</time>
      </trkpt>
      <trkpt lat="47.86637" lon="-2.52876">
        <ele>140</ele>
        <time>2023-07-22T09:29:03.547Z</time>
      </trkpt>
      <trkpt lat="47.86637" lon="-2.52876">
        <ele>140</ele>
        <time>2023-07-22T09:29:04.548Z</time>
      </trkpt>
      <trkpt lat="47.86635" lon="-2.52875">
        <ele>141</ele>
        <time>2023-07-22T09:29:05.547Z</time>
      </trkpt>
      <trkpt lat="47.86635" lon="-2.52875">
        <ele>141</ele>
        <time>2023-07-22T09:29:06.547Z</time>
      </trkpt>
      <trkpt lat="47.86634" lon="-2.52875">
        <ele>141</ele>
        <time>2023-07-22T09:29:07.547Z</time>
      </trkpt>
      <trkpt lat="47.86633" lon="-2.52874">
        <ele>141</ele>
        <time>2023-07-22T09:29:08.547Z</time>
      </trkpt>
      <trkpt lat="47.86632" lon="-2.52873">
        <ele>141</ele>
        <time>2023-07-22T09:29:09.547Z</time>
      </trkpt>
      <trkpt lat="47.86631" lon="-2.52873">
        <ele>141</ele>
        <time>2023-07-22T09:29:10.547Z</time>
      </trkpt>
      <trkpt lat="47.8663" lon="-2.52872">
        <ele>140</ele>
        <time>2023-07-22T09:29:11.547Z</time>
      </trkpt>
      <trkpt lat="47.86629" lon="-2.52872">
        <ele>141</ele>
        <time>2023-07-22T09:29:12.547Z</time>
      </trkpt>
      <trkpt lat="47.86628" lon="-2.52871">
        <ele>141</ele>
        <time>2023-07-22T09:29:13.547Z</time>
      </trkpt>
      <trkpt lat="47.86627" lon="-2.52871">
        <ele>141</ele>
        <time>2023-07-22T09:29:14.547Z</time>
      </trkpt>
      <trkpt lat="47.86626" lon="-2.52871">
        <ele>141</ele>
        <time>2023-07-22T09:29:15.547Z</time>
      </trkpt>
      <trkpt lat="47.86626" lon="-2.52871">
        <ele>141</ele>
        <time>2023-07-22T09:29:16.548Z</time>
      </trkpt>
      <trkpt lat="47.86624" lon="-2.5287">
        <ele>140</ele>
        <time>2023-07-22T09:29:17.547Z</time>
      </trkpt>
      <trkpt lat="47.86623" lon="-2.5287">
        <ele>140</ele>
        <time>2023-07-22T09:29:18.547Z</time>
      </trkpt>
      <trkpt lat="47.86622" lon="-2.5287">
        <ele>140</ele>
        <time>2023-07-22T09:29:19.548Z</time>
      </trkpt>
      <trkpt lat="47.86622" lon="-2.5287">
        <ele>139</ele>
        <time>2023-07-22T09:29:20.547Z</time>
      </trkpt>
      <trkpt lat="47.86622" lon="-2.52871">
        <ele>139</ele>
        <time>2023-07-22T09:29:21.547Z</time>
      </trkpt>
      <trkpt lat="47.86622" lon="-2.52871">
        <ele>139</ele>
        <time>2023-07-22T09:29:22.547Z</time>
      </trkpt>
      <trkpt lat="47.86622" lon="-2.5287">
        <ele>139</ele>
        <time>2023-07-22T09:29:23.547Z</time>
      </trkpt>
      <trkpt lat="47.86622" lon="-2.52869">
        <ele>137</ele>
        <time>2023-07-22T09:29:47.679Z</time>
      </trkpt>
      <trkpt lat="47.86622" lon="-2.52869">
        <ele>137</ele>
        <time>2023-07-22T09:29:48.679Z</time>
      </trkpt>
      <trkpt lat="47.86622" lon="-2.52869">
        <ele>137</ele>
        <time>2023-07-22T09:29:49.679Z</time>
      </trkpt>
      <trkpt lat="47.86622" lon="-2.52868">
        <ele>137</ele>
        <time>2023-07-22T09:29:50.680Z</time>
      </trkpt>
      <trkpt lat="47.86622" lon="-2.52868">
        <ele>137</ele>
        <time>2023-07-22T09:29:51.679Z</time>
      </trkpt>
      <trkpt lat="47.86622" lon="-2.52868">
        <ele>137</ele>
        <time>2023-07-22T09:29:52.679Z</time>
      </trkpt>
      <trkpt lat="47.86622" lon="-2.52869">
        <ele>137</ele>
        <time>2023-07-22T09:29:53.680Z</time>
      </trkpt>
      <trkpt lat="47.86622" lon="-2.52869">
        <ele>138</ele>
        <time>2023-07-22T09:29:54.679Z</time>
      </trkpt>
      <trkpt lat="47.86623" lon="-2.52869">
        <ele>136</ele>
        <time>2023-07-22T09:30:10.392Z</time>
      </trkpt>
      <trkpt lat="47.86623" lon="-2.5287">
        <ele>136</ele>
        <time>2023-07-22T09:30:11.391Z</time>
      </trkpt>
      <trkpt lat="47.86624" lon="-2.5287">
        <ele>136</ele>
        <time>2023-07-22T09:30:12.392Z</time>
      </trkpt>
      <trkpt lat="47.86624" lon="-2.5287">
        <ele>136</ele>
        <time>2023-07-22T09:30:13.391Z</time>
      </trkpt>
      <trkpt lat="47.86624" lon="-2.5287">
        <ele>136</ele>
        <time>2023-07-22T09:30:14.391Z</time>
      </trkpt>
      <trkpt lat="47.86624" lon="-2.5287">
        <ele>137</ele>
        <time>2023-07-22T09:30:15.391Z</time>
      </trkpt>
      <trkpt lat="47.86624" lon="-2.5287">
        <ele>137</ele>
        <time>2023-07-22T09:30:16.391Z</time>
      </trkpt>
      <trkpt lat="47.86624" lon="-2.5287">
        <ele>137</ele>
        <time>2023-07-22T09:30:17.392Z</time>
      </trkpt>
      <trkpt lat="47.86624" lon="-2.5287">
        <ele>138</ele>
        <time>2023-07-22T09:30:18.392Z</time>
      </trkpt>
      <trkpt lat="47.86624" lon="-2.5287">
        <ele>137</ele>
        <time>2023-07-22T09:30:19.391Z</time>
      </trkpt>
      <trkpt lat="47.86624" lon="-2.5287">
        <ele>137</ele>
        <time>2023-07-22T09:30:20.391Z</time>
      </trkpt>
      <trkpt lat="47.86624" lon="-2.5287">
        <ele>137</ele>
        <time>2023-07-22T09:30:21.391Z</time>
      </trkpt>
      <trkpt lat="47.86624" lon="-2.5287">
        <ele>137</ele>
        <time>2023-07-22T09:30:22.391Z</time>
      </trkpt>
      <trkpt lat="47.86624" lon="-2.5287">
        <ele>137</ele>
        <time>2023-07-22T09:30:23.391Z</time>
      </trkpt>
      <trkpt lat="47.86625" lon="-2.5287">
        <ele>136</ele>
        <time>2023-07-22T09:30:24.391Z</time>
      </trkpt>
      <trkpt lat="47.86625" lon="-2.5287">
        <ele>136</ele>
        <time>2023-07-22T09:30:25.391Z</time>
      </trkpt>
      <trkpt lat="47.86625" lon="-2.5287">
        <ele>136</ele>
        <time>2023-07-22T09:30:26.391Z</time>
      </trkpt>
      <trkpt lat="47.86625" lon="-2.5287">
        <ele>136</ele>
        <time>2023-07-22T09:30:27.391Z</time>
      </trkpt>
      <trkpt lat="47.86624" lon="-2.5287">
        <ele>136</ele>
        <time>2023-07-22T09:30:28.392Z</time>
      </trkpt>
      <trkpt lat="47.86624" lon="-2.5287">
        <ele>136</ele>
        <time>2023-07-22T09:30:29.391Z</time>
      </trkpt>
      <trkpt lat="47.86624" lon="-2.5287">
        <ele>136</ele>
        <time>2023-07-22T09:30:30.392Z</time>
      </trkpt>
      <trkpt lat="47.86624" lon="-2.5287">
        <ele>136</ele>
        <time>2023-07-22T09:30:31.392Z</time>
      </trkpt>
      <trkpt lat="47.86624" lon="-2.5287">
        <ele>136</ele>
        <time>2023-07-22T09:30:32.392Z</time>
      </trkpt>
      <trkpt lat="47.86624" lon="-2.5287">
        <ele>136</ele>
        <time>2023-07-22T09:30:33.392Z</time>
      </trkpt>
      <trkpt lat="47.86625" lon="-2.5287">
        <ele>136</ele>
        <time>2023-07-22T09:30:34.392Z</time>
      </trkpt>
      <trkpt lat="47.86625" lon="-2.5287">
        <ele>136</ele>
        <time>2023-07-22T09:30:35.392Z</time>
      </trkpt>
      <trkpt lat="47.86625" lon="-2.5287">
        <ele>135</ele>
        <time>2023-07-22T09:30:36.392Z</time>
      </trkpt>
      <trkpt lat="47.86625" lon="-2.5287">
        <ele>135</ele>
        <time>2023-07-22T09:30:37.391Z</time>
      </trkpt>
      <trkpt lat="47.86625" lon="-2.5287">
        <ele>134</ele>
        <time>2023-07-22T09:30:38.391Z</time>
      </trkpt>
      <trkpt lat="47.86625" lon="-2.5287">
        <ele>133</ele>
        <time>2023-07-22T09:30:39.392Z</time>
      </trkpt>
      <trkpt lat="47.86625" lon="-2.5287">
        <ele>133</ele>
        <time>2023-07-22T09:30:40.392Z</time>
      </trkpt>
      <trkpt lat="47.86625" lon="-2.5287">
        <ele>133</ele>
        <time>2023-07-22T09:30:41.392Z</time>
      </trkpt>
      <trkpt lat="47.86625" lon="-2.5287">
        <ele>132</ele>
        <time>2023-07-22T09:30:42.392Z</time>
      </trkpt>
      <trkpt lat="47.86625" lon="-2.5287">
        <ele>132</ele>
        <time>2023-07-22T09:30:43.392Z</time>
      </trkpt>
      <trkpt lat="47.86625" lon="-2.5287">
        <ele>132</ele>
        <time>2023-07-22T09:30:44.392Z</time>
      </trkpt>
      <trkpt lat="47.86625" lon="-2.5287">
        <ele>132</ele>
        <time>2023-07-22T09:30:45.392Z</time>
      </trkpt>
      <trkpt lat="47.86625" lon="-2.5287">
        <ele>132</ele>
        <time>2023-07-22T09:30:46.391Z</time>
      </trkpt>
      <trkpt lat="47.86626" lon="-2.5287">
        <ele>132</ele>
        <time>2023-07-22T09:30:54.728Z</time>
      </trkpt>
      <trkpt lat="47.86626" lon="-2.5287">
        <ele>132</ele>
        <time>2023-07-22T09:30:55.727Z</time>
      </trkpt>
      <trkpt lat="47.86626" lon="-2.5287">
        <ele>131</ele>
        <time>2023-07-22T09:30:56.727Z</time>
      </trkpt>
      <trkpt lat="47.86626" lon="-2.5287">
        <ele>131</ele>
        <time>2023-07-22T09:30:57.728Z</time>
      </trkpt>
      <trkpt lat="47.86626" lon="-2.5287">
        <ele>131</ele>
        <time>2023-07-22T09:30:58.728Z</time>
      </trkpt>
      <trkpt lat="47.86626" lon="-2.5287">
        <ele>131</ele>
        <time>2023-07-22T09:30:59.728Z</time>
      </trkpt>
      <trkpt lat="47.86626" lon="-2.5287">
        <ele>131</ele>
        <time>2023-07-22T09:31:00.728Z</time>
      </trkpt>
      <trkpt lat="47.86626" lon="-2.5287">
        <ele>131</ele>
        <time>2023-07-22T09:31:01.727Z</time>
      </trkpt>
      <trkpt lat="47.86626" lon="-2.5287">
        <ele>132</ele>
        <time>2023-07-22T09:31:02.727Z</time>
      </trkpt>
      <trkpt lat="47.86626" lon="-2.5287">
        <ele>132</ele>
        <time>2023-07-22T09:31:03.727Z</time>
      </trkpt>
      <trkpt lat="47.86626" lon="-2.5287">
        <ele>132</ele>
        <time>2023-07-22T09:31:04.727Z</time>
      </trkpt>
      <trkpt lat="47.86626" lon="-2.5287">
        <ele>133</ele>
        <time>2023-07-22T09:31:05.728Z</time>
      </trkpt>
      <trkpt lat="47.86626" lon="-2.52871">
        <ele>133</ele>
        <time>2023-07-22T09:31:06.727Z</time>
      </trkpt>
      <trkpt lat="47.86626" lon="-2.5287">
        <ele>133</ele>
        <time>2023-07-22T09:31:07.727Z</time>
      </trkpt>
      <trkpt lat="47.86626" lon="-2.5287">
        <ele>133</ele>
        <time>2023-07-22T09:31:08.727Z</time>
      </trkpt>
      <trkpt lat="47.86625" lon="-2.52871">
        <ele>132</ele>
        <time>2023-07-22T09:31:09.727Z</time>
      </trkpt>
      <trkpt lat="47.86625" lon="-2.52871">
        <ele>132</ele>
        <time>2023-07-22T09:31:10.727Z</time>
      </trkpt>
      <trkpt lat="47.86625" lon="-2.52871">
        <ele>131</ele>
        <time>2023-07-22T09:31:11.727Z</time>
      </trkpt>
      <trkpt lat="47.86625" lon="-2.52871">
        <ele>131</ele>
        <time>2023-07-22T09:31:12.727Z</time>
      </trkpt>
      <trkpt lat="47.86625" lon="-2.52871">
        <ele>130</ele>
        <time>2023-07-22T09:31:13.727Z</time>
      </trkpt>
      <trkpt lat="47.86625" lon="-2.52871">
        <ele>130</ele>
        <time>2023-07-22T09:31:14.727Z</time>
      </trkpt>
      <trkpt lat="47.86625" lon="-2.52872">
        <ele>130</ele>
        <time>2023-07-22T09:31:15.728Z</time>
      </trkpt>
      <trkpt lat="47.86625" lon="-2.52872">
        <ele>130</ele>
        <time>2023-07-22T09:31:16.727Z</time>
      </trkpt>
      <trkpt lat="47.86625" lon="-2.52873">
        <ele>130</ele>
        <time>2023-07-22T09:31:17.728Z</time>
      </trkpt>
      <trkpt lat="47.86625" lon="-2.52873">
        <ele>129</ele>
        <time>2023-07-22T09:31:18.727Z</time>
      </trkpt>
      <trkpt lat="47.86625" lon="-2.52873">
        <ele>129</ele>
        <time>2023-07-22T09:31:19.728Z</time>
      </trkpt>
      <trkpt lat="47.86624" lon="-2.52873">
        <ele>129</ele>
        <time>2023-07-22T09:31:20.728Z</time>
      </trkpt>
      <trkpt lat="47.86624" lon="-2.52873">
        <ele>129</ele>
        <time>2023-07-22T09:31:21.728Z</time>
      </trkpt>
      <trkpt lat="47.86624" lon="-2.52873">
        <ele>129</ele>
        <time>2023-07-22T09:31:22.728Z</time>
      </trkpt>
      <trkpt lat="47.86624" lon="-2.52873">
        <ele>129</ele>
        <time>2023-07-22T09:31:23.727Z</time>
      </trkpt>
      <trkpt lat="47.86624" lon="-2.52872">
        <ele>129</ele>
        <time>2023-07-22T09:31:24.727Z</time>
      </trkpt>
      <trkpt lat="47.86624" lon="-2.52872">
        <ele>129</ele>
        <time>2023-07-22T09:31:25.727Z</time>
      </trkpt>
      <trkpt lat="47.86624" lon="-2.52872">
        <ele>129</ele>
        <time>2023-07-22T09:31:26.728Z</time>
      </trkpt>
      <trkpt lat="47.86623" lon="-2.52872">
        <ele>130</ele>
        <time>2023-07-22T09:31:27.728Z</time>
      </trkpt>
      <trkpt lat="47.86623" lon="-2.52872">
        <ele>130</ele>
        <time>2023-07-22T09:31:28.728Z</time>
      </trkpt>
      <trkpt lat="47.86623" lon="-2.52872">
        <ele>130</ele>
        <time>2023-07-22T09:31:29.728Z</time>
      </trkpt>
      <trkpt lat="47.86623" lon="-2.52872">
        <ele>131</ele>
        <time>2023-07-22T09:31:30.727Z</time>
      </trkpt>
      <trkpt lat="47.86623" lon="-2.52873">
        <ele>132</ele>
        <time>2023-07-22T09:31:31.727Z</time>
      </trkpt>
      <trkpt lat="47.86622" lon="-2.52873">
        <ele>132</ele>
        <time>2023-07-22T09:31:32.727Z</time>
      </trkpt>
      <trkpt lat="47.86622" lon="-2.52873">
        <ele>134</ele>
        <time>2023-07-22T09:31:51.959Z</time>
      </trkpt>
      <trkpt lat="47.8662" lon="-2.52873">
        <ele>134</ele>
        <time>2023-07-22T09:31:58.386Z</time>
      </trkpt>
      <trkpt lat="47.86621" lon="-2.52873">
        <ele>136</ele>
        <time>2023-07-22T09:32:06.617Z</time>
      </trkpt>
      <trkpt lat="47.8662" lon="-2.52872">
        <ele>137</ele>
        <time>2023-07-22T09:32:12.890Z</time>
      </trkpt>
      <trkpt lat="47.86619" lon="-2.52872">
        <ele>138</ele>
        <time>2023-07-22T09:32:13.890Z</time>
      </trkpt>
      <trkpt lat="47.86619" lon="-2.52873">
        <ele>138</ele>
        <time>2023-07-22T09:32:28.969Z</time>
      </trkpt>
      <trkpt lat="47.86619" lon="-2.52873">
        <ele>138</ele>
        <time>2023-07-22T09:32:29.970Z</time>
      </trkpt>
      <trkpt lat="47.86619" lon="-2.52873">
        <ele>138</ele>
        <time>2023-07-22T09:32:30.969Z</time>
      </trkpt>
      <trkpt lat="47.8662" lon="-2.52873">
        <ele>138</ele>
        <time>2023-07-22T09:32:31.970Z</time>
      </trkpt>
      <trkpt lat="47.8662" lon="-2.52873">
        <ele>138</ele>
        <time>2023-07-22T09:32:32.969Z</time>
      </trkpt>
      <trkpt lat="47.86621" lon="-2.52874">
        <ele>138</ele>
        <time>2023-07-22T09:32:33.970Z</time>
      </trkpt>
      <trkpt lat="47.86623" lon="-2.52874">
        <ele>138</ele>
        <time>2023-07-22T09:32:34.969Z</time>
      </trkpt>
      <trkpt lat="47.86624" lon="-2.52874">
        <ele>138</ele>
        <time>2023-07-22T09:32:35.970Z</time>
      </trkpt>
      <trkpt lat="47.86626" lon="-2.52875">
        <ele>138</ele>
        <time>2023-07-22T09:32:36.969Z</time>
      </trkpt>
      <trkpt lat="47.86627" lon="-2.52875">
        <ele>139</ele>
        <time>2023-07-22T09:32:37.970Z</time>
      </trkpt>
      <trkpt lat="47.86627" lon="-2.52874">
        <ele>139</ele>
        <time>2023-07-22T09:32:38.969Z</time>
      </trkpt>
      <trkpt lat="47.86627" lon="-2.52874">
        <ele>139</ele>
        <time>2023-07-22T09:32:39.970Z</time>
      </trkpt>
      <trkpt lat="47.86628" lon="-2.52874">
        <ele>140</ele>
        <time>2023-07-22T09:32:40.969Z</time>
      </trkpt>
      <trkpt lat="47.86628" lon="-2.52874">
        <ele>140</ele>
        <time>2023-07-22T09:32:41.970Z</time>
      </trkpt>
      <trkpt lat="47.86628" lon="-2.52874">
        <ele>140</ele>
        <time>2023-07-22T09:32:42.969Z</time>
      </trkpt>
      <trkpt lat="47.86628" lon="-2.52874">
        <ele>141</ele>
        <time>2023-07-22T09:32:43.969Z</time>
      </trkpt>
      <trkpt lat="47.86628" lon="-2.52874">
        <ele>141</ele>
        <time>2023-07-22T09:32:44.970Z</time>
      </trkpt>
      <trkpt lat="47.86628" lon="-2.52874">
        <ele>142</ele>
        <time>2023-07-22T09:32:45.969Z</time>
      </trkpt>
      <trkpt lat="47.86628" lon="-2.52874">
        <ele>142</ele>
        <time>2023-07-22T09:32:46.970Z</time>
      </trkpt>
      <trkpt lat="47.86628" lon="-2.52874">
        <ele>142</ele>
        <time>2023-07-22T09:32:47.969Z</time>
      </trkpt>
      <trkpt lat="47.86628" lon="-2.52874">
        <ele>142</ele>
        <time>2023-07-22T09:32:48.970Z</time>
      </trkpt>
      <trkpt lat="47.86628" lon="-2.52874">
        <ele>142</ele>
        <time>2023-07-22T09:32:49.969Z</time>
      </trkpt>
      <trkpt lat="47.86628" lon="-2.52874">
        <ele>142</ele>
        <time>2023-07-22T09:32:50.970Z</time>
      </trkpt>
      <trkpt lat="47.86628" lon="-2.52874">
        <ele>142</ele>
        <time>2023-07-22T09:32:51.969Z</time>
      </trkpt>
      <trkpt lat="47.86628" lon="-2.52875">
        <ele>142</ele>
        <time>2023-07-22T09:32:52.970Z</time>
      </trkpt>
      <trkpt lat="47.86628" lon="-2.52875">
        <ele>142</ele>
        <time>2023-07-22T09:32:53.969Z</time>
      </trkpt>
      <trkpt lat="47.86628" lon="-2.52875">
        <ele>142</ele>
        <time>2023-07-22T09:32:54.970Z</time>
      </trkpt>
      <trkpt lat="47.86628" lon="-2.52875">
        <ele>142</ele>
        <time>2023-07-22T09:32:55.969Z</time>
      </trkpt>
      <trkpt lat="47.86628" lon="-2.52875">
        <ele>142</ele>
        <time>2023-07-22T09:32:56.969Z</time>
      </trkpt>
      <trkpt lat="47.86628" lon="-2.52875">
        <ele>141</ele>
        <time>2023-07-22T09:32:57.970Z</time>
      </trkpt>
      <trkpt lat="47.86628" lon="-2.52875">
        <ele>141</ele>
        <time>2023-07-22T09:32:58.969Z</time>
      </trkpt>
      <trkpt lat="47.86628" lon="-2.52875">
        <ele>141</ele>
        <time>2023-07-22T09:32:59.969Z</time>
      </trkpt>
      <trkpt lat="47.86628" lon="-2.52875">
        <ele>140</ele>
        <time>2023-07-22T09:33:00.970Z</time>
      </trkpt>
      <trkpt lat="47.86628" lon="-2.52875">
        <ele>140</ele>
        <time>2023-07-22T09:33:01.969Z</time>
      </trkpt>
      <trkpt lat="47.86629" lon="-2.52875">
        <ele>140</ele>
        <time>2023-07-22T09:33:02.970Z</time>
      </trkpt>
      <trkpt lat="47.86629" lon="-2.52875">
        <ele>141</ele>
        <time>2023-07-22T09:33:03.969Z</time>
      </trkpt>
      <trkpt lat="47.86629" lon="-2.52875">
        <ele>141</ele>
        <time>2023-07-22T09:33:04.969Z</time>
      </trkpt>
      <trkpt lat="47.86629" lon="-2.52875">
        <ele>141</ele>
        <time>2023-07-22T09:33:05.970Z</time>
      </trkpt>
      <trkpt lat="47.86629" lon="-2.52875">
        <ele>141</ele>
        <time>2023-07-22T09:33:06.970Z</time>
      </trkpt>
      <trkpt lat="47.86629" lon="-2.52875">
        <ele>142</ele>
        <time>2023-07-22T09:33:07.970Z</time>
      </trkpt>
      <trkpt lat="47.86629" lon="-2.52875">
        <ele>142</ele>
        <time>2023-07-22T09:33:08.969Z</time>
      </trkpt>
      <trkpt lat="47.86629" lon="-2.52875">
        <ele>142</ele>
        <time>2023-07-22T09:33:09.970Z</time>
      </trkpt>
      <trkpt lat="47.86629" lon="-2.52875">
        <ele>142</ele>
        <time>2023-07-22T09:33:10.969Z</time>
      </trkpt>
      <trkpt lat="47.86629" lon="-2.52875">
        <ele>142</ele>
        <time>2023-07-22T09:33:11.969Z</time>
      </trkpt>
      <trkpt lat="47.86629" lon="-2.52876">
        <ele>142</ele>
        <time>2023-07-22T09:33:12.970Z</time>
      </trkpt>
      <trkpt lat="47.86629" lon="-2.52876">
        <ele>143</ele>
        <time>2023-07-22T09:33:13.969Z</time>
      </trkpt>
      <trkpt lat="47.86629" lon="-2.52876">
        <ele>143</ele>
        <time>2023-07-22T09:33:14.970Z</time>
      </trkpt>
      <trkpt lat="47.86629" lon="-2.52876">
        <ele>143</ele>
        <time>2023-07-22T09:33:15.969Z</time>
      </trkpt>
      <trkpt lat="47.86629" lon="-2.52876">
        <ele>142</ele>
        <time>2023-07-22T09:33:16.970Z</time>
      </trkpt>
      <trkpt lat="47.86629" lon="-2.52876">
        <ele>142</ele>
        <time>2023-07-22T09:33:17.969Z</time>
      </trkpt>
      <trkpt lat="47.86629" lon="-2.52876">
        <ele>142</ele>
        <time>2023-07-22T09:33:18.970Z</time>
      </trkpt>
      <trkpt lat="47.86629" lon="-2.52876">
        <ele>142</ele>
        <time>2023-07-22T09:33:19.970Z</time>
      </trkpt>
      <trkpt lat="47.8663" lon="-2.52876">
        <ele>141</ele>
        <time>2023-07-22T09:33:20.970Z</time>
      </trkpt>
      <trkpt lat="47.8663" lon="-2.52876">
        <ele>140</ele>
        <time>2023-07-22T09:33:21.970Z</time>
      </trkpt>
      <trkpt lat="47.8663" lon="-2.52876">
        <ele>140</ele>
        <time>2023-07-22T09:33:22.970Z</time>
      </trkpt>
      <trkpt lat="47.8663" lon="-2.52875">
        <ele>139</ele>
        <time>2023-07-22T09:33:23.969Z</time>
      </trkpt>
      <trkpt lat="47.8663" lon="-2.52875">
        <ele>139</ele>
        <time>2023-07-22T09:33:24.970Z</time>
      </trkpt>
      <trkpt lat="47.8663" lon="-2.52875">
        <ele>139</ele>
        <time>2023-07-22T09:33:25.970Z</time>
      </trkpt>
      <trkpt lat="47.8663" lon="-2.52875">
        <ele>139</ele>
        <time>2023-07-22T09:33:26.969Z</time>
      </trkpt>
      <trkpt lat="47.8663" lon="-2.52875">
        <ele>139</ele>
        <time>2023-07-22T09:33:27.970Z</time>
      </trkpt>
      <trkpt lat="47.8663" lon="-2.52875">
        <ele>139</ele>
        <time>2023-07-22T09:33:28.969Z</time>
      </trkpt>
      <trkpt lat="47.8663" lon="-2.52875">
        <ele>139</ele>
        <time>2023-07-22T09:33:29.970Z</time>
      </trkpt>
      <trkpt lat="47.8663" lon="-2.52875">
        <ele>139</ele>
        <time>2023-07-22T09:33:30.969Z</time>
      </trkpt>
      <trkpt lat="47.8663" lon="-2.52875">
        <ele>139</ele>
        <time>2023-07-22T09:33:31.969Z</time>
      </trkpt>
      <trkpt lat="47.8663" lon="-2.52874">
        <ele>139</ele>
        <time>2023-07-22T09:33:32.970Z</time>
      </trkpt>
      <trkpt lat="47.8663" lon="-2.52874">
        <ele>139</ele>
        <time>2023-07-22T09:33:33.969Z</time>
      </trkpt>
      <trkpt lat="47.8663" lon="-2.52874">
        <ele>138</ele>
        <time>2023-07-22T09:33:34.970Z</time>
      </trkpt>
      <trkpt lat="47.8663" lon="-2.52874">
        <ele>138</ele>
        <time>2023-07-22T09:33:35.969Z</time>
      </trkpt>
      <trkpt lat="47.86629" lon="-2.52873">
        <ele>138</ele>
        <time>2023-07-22T09:33:36.969Z</time>
      </trkpt>
      <trkpt lat="47.86628" lon="-2.52873">
        <ele>137</ele>
        <time>2023-07-22T09:33:37.970Z</time>
      </trkpt>
      <trkpt lat="47.86627" lon="-2.52872">
        <ele>137</ele>
        <time>2023-07-22T09:33:38.969Z</time>
      </trkpt>
      <trkpt lat="47.86625" lon="-2.52872">
        <ele>137</ele>
        <time>2023-07-22T09:33:39.969Z</time>
      </trkpt>
      <trkpt lat="47.86624" lon="-2.52871">
        <ele>137</ele>
        <time>2023-07-22T09:33:40.970Z</time>
      </trkpt>
      <trkpt lat="47.86623" lon="-2.5287">
        <ele>137</ele>
        <time>2023-07-22T09:33:41.969Z</time>
      </trkpt>
      <trkpt lat="47.86622" lon="-2.5287">
        <ele>137</ele>
        <time>2023-07-22T09:33:42.970Z</time>
      </trkpt>
      <trkpt lat="47.86619" lon="-2.52868">
        <ele>138</ele>
        <time>2023-07-22T09:33:43.970Z</time>
      </trkpt>
      <trkpt lat="47.86618" lon="-2.52867">
        <ele>138</ele>
        <time>2023-07-22T09:33:44.969Z</time>
      </trkpt>
      <trkpt lat="47.86616" lon="-2.52866">
        <ele>138</ele>
        <time>2023-07-22T09:33:45.970Z</time>
      </trkpt>
      <trkpt lat="47.86615" lon="-2.52864">
        <ele>139</ele>
        <time>2023-07-22T09:33:46.970Z</time>
      </trkpt>
      <trkpt lat="47.86613" lon="-2.52863">
        <ele>139</ele>
        <time>2023-07-22T09:33:47.969Z</time>
      </trkpt>
      <trkpt lat="47.86611" lon="-2.52862">
        <ele>139</ele>
        <time>2023-07-22T09:33:48.970Z</time>
      </trkpt>
      <trkpt lat="47.8661" lon="-2.52861">
        <ele>140</ele>
        <time>2023-07-22T09:33:49.969Z</time>
      </trkpt>
      <trkpt lat="47.86608" lon="-2.5286">
        <ele>140</ele>
        <time>2023-07-22T09:33:50.970Z</time>
      </trkpt>
      <trkpt lat="47.86607" lon="-2.52859">
        <ele>140</ele>
        <time>2023-07-22T09:33:51.969Z</time>
      </trkpt>
      <trkpt lat="47.86606" lon="-2.52858">
        <ele>140</ele>
        <time>2023-07-22T09:33:52.970Z</time>
      </trkpt>
      <trkpt lat="47.86604" lon="-2.52858">
        <ele>140</ele>
        <time>2023-07-22T09:33:53.969Z</time>
      </trkpt>
      <trkpt lat="47.86603" lon="-2.52857">
        <ele>140</ele>
        <time>2023-07-22T09:33:54.970Z</time>
      </trkpt>
      <trkpt lat="47.86601" lon="-2.52857">
        <ele>140</ele>
        <time>2023-07-22T09:33:55.969Z</time>
      </trkpt>
      <trkpt lat="47.866" lon="-2.52856">
        <ele>140</ele>
        <time>2023-07-22T09:33:56.970Z</time>
      </trkpt>
      <trkpt lat="47.86599" lon="-2.52856">
        <ele>140</ele>
        <time>2023-07-22T09:33:57.969Z</time>
      </trkpt>
      <trkpt lat="47.86597" lon="-2.52855">
        <ele>140</ele>
        <time>2023-07-22T09:33:58.969Z</time>
      </trkpt>
      <trkpt lat="47.86596" lon="-2.52854">
        <ele>140</ele>
        <time>2023-07-22T09:33:59.970Z</time>
      </trkpt>
      <trkpt lat="47.86595" lon="-2.52853">
        <ele>140</ele>
        <time>2023-07-22T09:34:00.969Z</time>
      </trkpt>
      <trkpt lat="47.86593" lon="-2.52852">
        <ele>140</ele>
        <time>2023-07-22T09:34:01.969Z</time>
      </trkpt>
      <trkpt lat="47.86592" lon="-2.52852">
        <ele>140</ele>
        <time>2023-07-22T09:34:02.969Z</time>
      </trkpt>
      <trkpt lat="47.8659" lon="-2.52851">
        <ele>139</ele>
        <time>2023-07-22T09:34:03.970Z</time>
      </trkpt>
      <trkpt lat="47.86589" lon="-2.5285">
        <ele>139</ele>
        <time>2023-07-22T09:34:04.970Z</time>
      </trkpt>
      <trkpt lat="47.86587" lon="-2.52849">
        <ele>139</ele>
        <time>2023-07-22T09:34:05.969Z</time>
      </trkpt>
      <trkpt lat="47.86586" lon="-2.52848">
        <ele>139</ele>
        <time>2023-07-22T09:34:06.970Z</time>
      </trkpt>
      <trkpt lat="47.86584" lon="-2.52847">
        <ele>139</ele>
        <time>2023-07-22T09:34:07.969Z</time>
      </trkpt>
      <trkpt lat="47.86583" lon="-2.52847">
        <ele>139</ele>
        <time>2023-07-22T09:34:08.969Z</time>
      </trkpt>
      <trkpt lat="47.86581" lon="-2.52846">
        <ele>140</ele>
        <time>2023-07-22T09:34:09.970Z</time>
      </trkpt>
      <trkpt lat="47.8658" lon="-2.52845">
        <ele>140</ele>
        <time>2023-07-22T09:34:10.970Z</time>
      </trkpt>
      <trkpt lat="47.86578" lon="-2.52844">
        <ele>140</ele>
        <time>2023-07-22T09:34:11.969Z</time>
      </trkpt>
      <trkpt lat="47.86577" lon="-2.52844">
        <ele>140</ele>
        <time>2023-07-22T09:34:12.969Z</time>
      </trkpt>
      <trkpt lat="47.86575" lon="-2.52843">
        <ele>140</ele>
        <time>2023-07-22T09:34:13.970Z</time>
      </trkpt>
      <trkpt lat="47.86574" lon="-2.52842">
        <ele>140</ele>
        <time>2023-07-22T09:34:14.970Z</time>
      </trkpt>
      <trkpt lat="47.86573" lon="-2.52841">
        <ele>140</ele>
        <time>2023-07-22T09:34:15.969Z</time>
      </trkpt>
      <trkpt lat="47.86572" lon="-2.5284">
        <ele>139</ele>
        <time>2023-07-22T09:34:16.970Z</time>
      </trkpt>
      <trkpt lat="47.8657" lon="-2.52839">
        <ele>139</ele>
        <time>2023-07-22T09:34:17.969Z</time>
      </trkpt>
      <trkpt lat="47.86569" lon="-2.52838">
        <ele>139</ele>
        <time>2023-07-22T09:34:18.970Z</time>
      </trkpt>
      <trkpt lat="47.86568" lon="-2.52837">
        <ele>139</ele>
        <time>2023-07-22T09:34:19.969Z</time>
      </trkpt>
      <trkpt lat="47.86566" lon="-2.52837">
        <ele>139</ele>
        <time>2023-07-22T09:34:20.969Z</time>
      </trkpt>
      <trkpt lat="47.86565" lon="-2.52836">
        <ele>139</ele>
        <time>2023-07-22T09:34:21.970Z</time>
      </trkpt>
      <trkpt lat="47.86564" lon="-2.52835">
        <ele>139</ele>
        <time>2023-07-22T09:34:22.969Z</time>
      </trkpt>
      <trkpt lat="47.86563" lon="-2.52834">
        <ele>139</ele>
        <time>2023-07-22T09:34:23.970Z</time>
      </trkpt>
      <trkpt lat="47.86561" lon="-2.52833">
        <ele>139</ele>
        <time>2023-07-22T09:34:24.970Z</time>
      </trkpt>
      <trkpt lat="47.8656" lon="-2.52832">
        <ele>139</ele>
        <time>2023-07-22T09:34:25.969Z</time>
      </trkpt>
      <trkpt lat="47.86559" lon="-2.52831">
        <ele>139</ele>
        <time>2023-07-22T09:34:26.969Z</time>
      </trkpt>
      <trkpt lat="47.86557" lon="-2.5283">
        <ele>139</ele>
        <time>2023-07-22T09:34:27.969Z</time>
      </trkpt>
      <trkpt lat="47.86556" lon="-2.52829">
        <ele>140</ele>
        <time>2023-07-22T09:34:28.970Z</time>
      </trkpt>
      <trkpt lat="47.86555" lon="-2.52829">
        <ele>140</ele>
        <time>2023-07-22T09:34:29.969Z</time>
      </trkpt>
      <trkpt lat="47.86553" lon="-2.52828">
        <ele>140</ele>
        <time>2023-07-22T09:34:30.969Z</time>
      </trkpt>
      <trkpt lat="47.86552" lon="-2.52827">
        <ele>140</ele>
        <time>2023-07-22T09:34:31.969Z</time>
      </trkpt>
      <trkpt lat="47.8655" lon="-2.52826">
        <ele>140</ele>
        <time>2023-07-22T09:34:32.969Z</time>
      </trkpt>
      <trkpt lat="47.86549" lon="-2.52824">
        <ele>140</ele>
        <time>2023-07-22T09:34:33.970Z</time>
      </trkpt>
      <trkpt lat="47.86548" lon="-2.52823">
        <ele>140</ele>
        <time>2023-07-22T09:34:34.969Z</time>
      </trkpt>
      <trkpt lat="47.86546" lon="-2.52823">
        <ele>140</ele>
        <time>2023-07-22T09:34:35.970Z</time>
      </trkpt>
      <trkpt lat="47.86545" lon="-2.52822">
        <ele>140</ele>
        <time>2023-07-22T09:34:36.969Z</time>
      </trkpt>
      <trkpt lat="47.86544" lon="-2.52821">
        <ele>140</ele>
        <time>2023-07-22T09:34:37.970Z</time>
      </trkpt>
      <trkpt lat="47.86542" lon="-2.5282">
        <ele>140</ele>
        <time>2023-07-22T09:34:38.969Z</time>
      </trkpt>
      <trkpt lat="47.86541" lon="-2.52819">
        <ele>140</ele>
        <time>2023-07-22T09:34:39.970Z</time>
      </trkpt>
      <trkpt lat="47.86539" lon="-2.52818">
        <ele>140</ele>
        <time>2023-07-22T09:34:40.970Z</time>
      </trkpt>
      <trkpt lat="47.86538" lon="-2.52817">
        <ele>140</ele>
        <time>2023-07-22T09:34:41.970Z</time>
      </trkpt>
      <trkpt lat="47.86537" lon="-2.52816">
        <ele>140</ele>
        <time>2023-07-22T09:34:42.970Z</time>
      </trkpt>
      <trkpt lat="47.86536" lon="-2.52815">
        <ele>140</ele>
        <time>2023-07-22T09:34:43.969Z</time>
      </trkpt>
      <trkpt lat="47.86534" lon="-2.52814">
        <ele>139</ele>
        <time>2023-07-22T09:34:44.969Z</time>
      </trkpt>
      <trkpt lat="47.86533" lon="-2.52813">
        <ele>139</ele>
        <time>2023-07-22T09:34:45.969Z</time>
      </trkpt>
      <trkpt lat="47.86531" lon="-2.52812">
        <ele>139</ele>
        <time>2023-07-22T09:34:46.970Z</time>
      </trkpt>
      <trkpt lat="47.8653" lon="-2.52812">
        <ele>140</ele>
        <time>2023-07-22T09:34:47.969Z</time>
      </trkpt>
      <trkpt lat="47.86529" lon="-2.52811">
        <ele>139</ele>
        <time>2023-07-22T09:34:48.969Z</time>
      </trkpt>
      <trkpt lat="47.86527" lon="-2.5281">
        <ele>139</ele>
        <time>2023-07-22T09:34:49.970Z</time>
      </trkpt>
      <trkpt lat="47.86526" lon="-2.5281">
        <ele>139</ele>
        <time>2023-07-22T09:34:50.969Z</time>
      </trkpt>
      <trkpt lat="47.86525" lon="-2.5281">
        <ele>139</ele>
        <time>2023-07-22T09:34:51.970Z</time>
      </trkpt>
      <trkpt lat="47.86523" lon="-2.52809">
        <ele>139</ele>
        <time>2023-07-22T09:34:52.969Z</time>
      </trkpt>
      <trkpt lat="47.86522" lon="-2.52808">
        <ele>139</ele>
        <time>2023-07-22T09:34:53.969Z</time>
      </trkpt>
      <trkpt lat="47.86521" lon="-2.52807">
        <ele>139</ele>
        <time>2023-07-22T09:34:54.970Z</time>
      </trkpt>
      <trkpt lat="47.8652" lon="-2.52806">
        <ele>139</ele>
        <time>2023-07-22T09:34:55.969Z</time>
      </trkpt>
      <trkpt lat="47.86518" lon="-2.52806">
        <ele>139</ele>
        <time>2023-07-22T09:34:56.970Z</time>
      </trkpt>
      <trkpt lat="47.86517" lon="-2.52805">
        <ele>139</ele>
        <time>2023-07-22T09:34:57.969Z</time>
      </trkpt>
      <trkpt lat="47.86515" lon="-2.52804">
        <ele>139</ele>
        <time>2023-07-22T09:34:58.970Z</time>
      </trkpt>
      <trkpt lat="47.86514" lon="-2.52803">
        <ele>139</ele>
        <time>2023-07-22T09:34:59.970Z</time>
      </trkpt>
      <trkpt lat="47.86513" lon="-2.52803">
        <ele>139</ele>
        <time>2023-07-22T09:35:00.969Z</time>
      </trkpt>
      <trkpt lat="47.86512" lon="-2.52802">
        <ele>139</ele>
        <time>2023-07-22T09:35:01.970Z</time>
      </trkpt>
      <trkpt lat="47.86511" lon="-2.52801">
        <ele>139</ele>
        <time>2023-07-22T09:35:02.969Z</time>
      </trkpt>
      <trkpt lat="47.86509" lon="-2.528">
        <ele>139</ele>
        <time>2023-07-22T09:35:03.970Z</time>
      </trkpt>
      <trkpt lat="47.86508" lon="-2.528">
        <ele>139</ele>
        <time>2023-07-22T09:35:04.970Z</time>
      </trkpt>
      <trkpt lat="47.86507" lon="-2.52799">
        <ele>139</ele>
        <time>2023-07-22T09:35:05.969Z</time>
      </trkpt>
      <trkpt lat="47.86505" lon="-2.52798">
        <ele>139</ele>
        <time>2023-07-22T09:35:06.970Z</time>
      </trkpt>
      <trkpt lat="47.86504" lon="-2.52797">
        <ele>139</ele>
        <time>2023-07-22T09:35:07.969Z</time>
      </trkpt>
      <trkpt lat="47.86503" lon="-2.52796">
        <ele>139</ele>
        <time>2023-07-22T09:35:08.970Z</time>
      </trkpt>
      <trkpt lat="47.86501" lon="-2.52796">
        <ele>138</ele>
        <time>2023-07-22T09:35:09.969Z</time>
      </trkpt>
      <trkpt lat="47.865" lon="-2.52795">
        <ele>138</ele>
        <time>2023-07-22T09:35:10.970Z</time>
      </trkpt>
      <trkpt lat="47.86499" lon="-2.52794">
        <ele>138</ele>
        <time>2023-07-22T09:35:11.970Z</time>
      </trkpt>
      <trkpt lat="47.86497" lon="-2.52794">
        <ele>138</ele>
        <time>2023-07-22T09:35:12.969Z</time>
      </trkpt>
      <trkpt lat="47.86496" lon="-2.52793">
        <ele>138</ele>
        <time>2023-07-22T09:35:13.970Z</time>
      </trkpt>
      <trkpt lat="47.86494" lon="-2.52793">
        <ele>137</ele>
        <time>2023-07-22T09:35:14.969Z</time>
      </trkpt>
      <trkpt lat="47.86493" lon="-2.52792">
        <ele>137</ele>
        <time>2023-07-22T09:35:15.970Z</time>
      </trkpt>
      <trkpt lat="47.86491" lon="-2.52791">
        <ele>137</ele>
        <time>2023-07-22T09:35:16.970Z</time>
      </trkpt>
      <trkpt lat="47.8649" lon="-2.5279">
        <ele>137</ele>
        <time>2023-07-22T09:35:17.970Z</time>
      </trkpt>
      <trkpt lat="47.86488" lon="-2.52789">
        <ele>137</ele>
        <time>2023-07-22T09:35:18.969Z</time>
      </trkpt>
      <trkpt lat="47.86487" lon="-2.52788">
        <ele>137</ele>
        <time>2023-07-22T09:35:19.970Z</time>
      </trkpt>
      <trkpt lat="47.86486" lon="-2.52787">
        <ele>137</ele>
        <time>2023-07-22T09:35:20.969Z</time>
      </trkpt>
      <trkpt lat="47.86484" lon="-2.52787">
        <ele>137</ele>
        <time>2023-07-22T09:35:21.969Z</time>
      </trkpt>
      <trkpt lat="47.86483" lon="-2.52786">
        <ele>137</ele>
        <time>2023-07-22T09:35:22.970Z</time>
      </trkpt>
      <trkpt lat="47.86482" lon="-2.52786">
        <ele>136</ele>
        <time>2023-07-22T09:35:23.969Z</time>
      </trkpt>
      <trkpt lat="47.8648" lon="-2.52785">
        <ele>136</ele>
        <time>2023-07-22T09:35:24.969Z</time>
      </trkpt>
      <trkpt lat="47.86479" lon="-2.52784">
        <ele>136</ele>
        <time>2023-07-22T09:35:25.969Z</time>
      </trkpt>
      <trkpt lat="47.86478" lon="-2.52783">
        <ele>136</ele>
        <time>2023-07-22T09:35:26.969Z</time>
      </trkpt>
      <trkpt lat="47.86476" lon="-2.52782">
        <ele>136</ele>
        <time>2023-07-22T09:35:27.969Z</time>
      </trkpt>
      <trkpt lat="47.86475" lon="-2.52781">
        <ele>137</ele>
        <time>2023-07-22T09:35:28.970Z</time>
      </trkpt>
      <trkpt lat="47.86474" lon="-2.5278">
        <ele>137</ele>
        <time>2023-07-22T09:35:29.969Z</time>
      </trkpt>
      <trkpt lat="47.86472" lon="-2.5278">
        <ele>137</ele>
        <time>2023-07-22T09:35:30.969Z</time>
      </trkpt>
      <trkpt lat="47.86471" lon="-2.52779">
        <ele>137</ele>
        <time>2023-07-22T09:35:31.970Z</time>
      </trkpt>
      <trkpt lat="47.8647" lon="-2.52778">
        <ele>137</ele>
        <time>2023-07-22T09:35:32.970Z</time>
      </trkpt>
      <trkpt lat="47.86468" lon="-2.52778">
        <ele>137</ele>
        <time>2023-07-22T09:35:33.970Z</time>
      </trkpt>
      <trkpt lat="47.86467" lon="-2.52777">
        <ele>137</ele>
        <time>2023-07-22T09:35:34.969Z</time>
      </trkpt>
      <trkpt lat="47.86466" lon="-2.52776">
        <ele>137</ele>
        <time>2023-07-22T09:35:35.969Z</time>
      </trkpt>
      <trkpt lat="47.86464" lon="-2.52776">
        <ele>137</ele>
        <time>2023-07-22T09:35:36.970Z</time>
      </trkpt>
      <trkpt lat="47.86463" lon="-2.52775">
        <ele>137</ele>
        <time>2023-07-22T09:35:37.969Z</time>
      </trkpt>
      <trkpt lat="47.86462" lon="-2.52775">
        <ele>137</ele>
        <time>2023-07-22T09:35:38.970Z</time>
      </trkpt>
      <trkpt lat="47.86461" lon="-2.52775">
        <ele>137</ele>
        <time>2023-07-22T09:35:39.969Z</time>
      </trkpt>
      <trkpt lat="47.86459" lon="-2.52774">
        <ele>138</ele>
        <time>2023-07-22T09:35:40.970Z</time>
      </trkpt>
      <trkpt lat="47.86458" lon="-2.52774">
        <ele>138</ele>
        <time>2023-07-22T09:35:41.969Z</time>
      </trkpt>
      <trkpt lat="47.86457" lon="-2.52774">
        <ele>137</ele>
        <time>2023-07-22T09:35:42.969Z</time>
      </trkpt>
      <trkpt lat="47.86456" lon="-2.52773">
        <ele>137</ele>
        <time>2023-07-22T09:35:43.970Z</time>
      </trkpt>
      <trkpt lat="47.86455" lon="-2.52772">
        <ele>137</ele>
        <time>2023-07-22T09:35:44.969Z</time>
      </trkpt>
      <trkpt lat="47.86453" lon="-2.52771">
        <ele>138</ele>
        <time>2023-07-22T09:35:45.970Z</time>
      </trkpt>
      <trkpt lat="47.86452" lon="-2.52771">
        <ele>138</ele>
        <time>2023-07-22T09:35:46.969Z</time>
      </trkpt>
      <trkpt lat="47.86451" lon="-2.5277">
        <ele>138</ele>
        <time>2023-07-22T09:35:47.970Z</time>
      </trkpt>
      <trkpt lat="47.8645" lon="-2.52769">
        <ele>138</ele>
        <time>2023-07-22T09:35:48.970Z</time>
      </trkpt>
      <trkpt lat="47.86449" lon="-2.52768">
        <ele>138</ele>
        <time>2023-07-22T09:35:49.969Z</time>
      </trkpt>
      <trkpt lat="47.86447" lon="-2.52767">
        <ele>138</ele>
        <time>2023-07-22T09:35:50.970Z</time>
      </trkpt>
      <trkpt lat="47.86446" lon="-2.52766">
        <ele>138</ele>
        <time>2023-07-22T09:35:51.969Z</time>
      </trkpt>
      <trkpt lat="47.86445" lon="-2.52765">
        <ele>137</ele>
        <time>2023-07-22T09:35:52.970Z</time>
      </trkpt>
      <trkpt lat="47.86444" lon="-2.52764">
        <ele>137</ele>
        <time>2023-07-22T09:35:53.969Z</time>
      </trkpt>
      <trkpt lat="47.86443" lon="-2.52763">
        <ele>137</ele>
        <time>2023-07-22T09:35:54.969Z</time>
      </trkpt>
      <trkpt lat="47.86441" lon="-2.52762">
        <ele>137</ele>
        <time>2023-07-22T09:35:55.969Z</time>
      </trkpt>
      <trkpt lat="47.8644" lon="-2.52761">
        <ele>138</ele>
        <time>2023-07-22T09:35:56.970Z</time>
      </trkpt>
      <trkpt lat="47.86439" lon="-2.5276">
        <ele>138</ele>
        <time>2023-07-22T09:35:57.970Z</time>
      </trkpt>
      <trkpt lat="47.86438" lon="-2.52759">
        <ele>138</ele>
        <time>2023-07-22T09:35:58.970Z</time>
      </trkpt>
      <trkpt lat="47.86437" lon="-2.52759">
        <ele>139</ele>
        <time>2023-07-22T09:35:59.970Z</time>
      </trkpt>
      <trkpt lat="47.86435" lon="-2.52758">
        <ele>139</ele>
        <time>2023-07-22T09:36:00.970Z</time>
      </trkpt>
      <trkpt lat="47.86434" lon="-2.52758">
        <ele>139</ele>
        <time>2023-07-22T09:36:01.969Z</time>
      </trkpt>
      <trkpt lat="47.86433" lon="-2.52757">
        <ele>139</ele>
        <time>2023-07-22T09:36:02.970Z</time>
      </trkpt>
      <trkpt lat="47.86432" lon="-2.52756">
        <ele>139</ele>
        <time>2023-07-22T09:36:03.969Z</time>
      </trkpt>
      <trkpt lat="47.86431" lon="-2.52755">
        <ele>139</ele>
        <time>2023-07-22T09:36:04.970Z</time>
      </trkpt>
      <trkpt lat="47.8643" lon="-2.52755">
        <ele>139</ele>
        <time>2023-07-22T09:36:05.970Z</time>
      </trkpt>
      <trkpt lat="47.86429" lon="-2.52754">
        <ele>139</ele>
        <time>2023-07-22T09:36:06.970Z</time>
      </trkpt>
      <trkpt lat="47.86428" lon="-2.52754">
        <ele>139</ele>
        <time>2023-07-22T09:36:07.969Z</time>
      </trkpt>
      <trkpt lat="47.86426" lon="-2.52754">
        <ele>139</ele>
        <time>2023-07-22T09:36:08.969Z</time>
      </trkpt>
      <trkpt lat="47.86425" lon="-2.52753">
        <ele>139</ele>
        <time>2023-07-22T09:36:09.969Z</time>
      </trkpt>
      <trkpt lat="47.86424" lon="-2.52753">
        <ele>139</ele>
        <time>2023-07-22T09:36:10.970Z</time>
      </trkpt>
      <trkpt lat="47.86423" lon="-2.52753">
        <ele>139</ele>
        <time>2023-07-22T09:36:11.970Z</time>
      </trkpt>
      <trkpt lat="47.86422" lon="-2.52752">
        <ele>139</ele>
        <time>2023-07-22T09:36:12.969Z</time>
      </trkpt>
      <trkpt lat="47.8642" lon="-2.52751">
        <ele>139</ele>
        <time>2023-07-22T09:36:13.969Z</time>
      </trkpt>
      <trkpt lat="47.86419" lon="-2.52751">
        <ele>139</ele>
        <time>2023-07-22T09:36:14.969Z</time>
      </trkpt>
      <trkpt lat="47.86417" lon="-2.52751">
        <ele>139</ele>
        <time>2023-07-22T09:36:15.969Z</time>
      </trkpt>
      <trkpt lat="47.86416" lon="-2.52751">
        <ele>139</ele>
        <time>2023-07-22T09:36:16.969Z</time>
      </trkpt>
      <trkpt lat="47.86415" lon="-2.5275">
        <ele>139</ele>
        <time>2023-07-22T09:36:17.970Z</time>
      </trkpt>
      <trkpt lat="47.86414" lon="-2.5275">
        <ele>139</ele>
        <time>2023-07-22T09:36:18.970Z</time>
      </trkpt>
      <trkpt lat="47.86413" lon="-2.5275">
        <ele>139</ele>
        <time>2023-07-22T09:36:19.970Z</time>
      </trkpt>
      <trkpt lat="47.86412" lon="-2.5275">
        <ele>139</ele>
        <time>2023-07-22T09:36:20.970Z</time>
      </trkpt>
      <trkpt lat="47.86411" lon="-2.52749">
        <ele>139</ele>
        <time>2023-07-22T09:36:21.969Z</time>
      </trkpt>
      <trkpt lat="47.86409" lon="-2.52749">
        <ele>139</ele>
        <time>2023-07-22T09:36:22.969Z</time>
      </trkpt>
      <trkpt lat="47.86408" lon="-2.52749">
        <ele>139</ele>
        <time>2023-07-22T09:36:23.970Z</time>
      </trkpt>
      <trkpt lat="47.86407" lon="-2.52749">
        <ele>139</ele>
        <time>2023-07-22T09:36:24.970Z</time>
      </trkpt>
      <trkpt lat="47.86406" lon="-2.52749">
        <ele>140</ele>
        <time>2023-07-22T09:36:25.969Z</time>
      </trkpt>
      <trkpt lat="47.86405" lon="-2.52748">
        <ele>140</ele>
        <time>2023-07-22T09:36:26.969Z</time>
      </trkpt>
      <trkpt lat="47.86404" lon="-2.52748">
        <ele>140</ele>
        <time>2023-07-22T09:36:27.969Z</time>
      </trkpt>
      <trkpt lat="47.86403" lon="-2.52747">
        <ele>141</ele>
        <time>2023-07-22T09:36:28.970Z</time>
      </trkpt>
      <trkpt lat="47.86402" lon="-2.52746">
        <ele>141</ele>
        <time>2023-07-22T09:36:29.970Z</time>
      </trkpt>
      <trkpt lat="47.86401" lon="-2.52745">
        <ele>141</ele>
        <time>2023-07-22T09:36:30.970Z</time>
      </trkpt>
      <trkpt lat="47.864" lon="-2.52745">
        <ele>141</ele>
        <time>2023-07-22T09:36:31.969Z</time>
      </trkpt>
      <trkpt lat="47.864" lon="-2.52745">
        <ele>141</ele>
        <time>2023-07-22T09:36:32.970Z</time>
      </trkpt>
      <trkpt lat="47.86398" lon="-2.52745">
        <ele>141</ele>
        <time>2023-07-22T09:36:33.969Z</time>
      </trkpt>
      <trkpt lat="47.86397" lon="-2.52745">
        <ele>141</ele>
        <time>2023-07-22T09:36:34.969Z</time>
      </trkpt>
      <trkpt lat="47.86396" lon="-2.52746">
        <ele>141</ele>
        <time>2023-07-22T09:36:35.969Z</time>
      </trkpt>
      <trkpt lat="47.86395" lon="-2.52746">
        <ele>141</ele>
        <time>2023-07-22T09:36:36.970Z</time>
      </trkpt>
      <trkpt lat="47.86394" lon="-2.52747">
        <ele>141</ele>
        <time>2023-07-22T09:36:37.969Z</time>
      </trkpt>
      <trkpt lat="47.86393" lon="-2.52747">
        <ele>141</ele>
        <time>2023-07-22T09:36:38.969Z</time>
      </trkpt>
      <trkpt lat="47.86391" lon="-2.52747">
        <ele>140</ele>
        <time>2023-07-22T09:36:39.969Z</time>
      </trkpt>
      <trkpt lat="47.8639" lon="-2.52748">
        <ele>140</ele>
        <time>2023-07-22T09:36:40.970Z</time>
      </trkpt>
      <trkpt lat="47.86389" lon="-2.52748">
        <ele>140</ele>
        <time>2023-07-22T09:36:41.969Z</time>
      </trkpt>
      <trkpt lat="47.86388" lon="-2.52748">
        <ele>140</ele>
        <time>2023-07-22T09:36:42.970Z</time>
      </trkpt>
      <trkpt lat="47.86387" lon="-2.52748">
        <ele>140</ele>
        <time>2023-07-22T09:36:43.970Z</time>
      </trkpt>
      <trkpt lat="47.86385" lon="-2.52748">
        <ele>140</ele>
        <time>2023-07-22T09:36:44.969Z</time>
      </trkpt>
      <trkpt lat="47.86384" lon="-2.52748">
        <ele>141</ele>
        <time>2023-07-22T09:36:45.969Z</time>
      </trkpt>
      <trkpt lat="47.86383" lon="-2.52747">
        <ele>141</ele>
        <time>2023-07-22T09:36:46.969Z</time>
      </trkpt>
      <trkpt lat="47.86382" lon="-2.52747">
        <ele>141</ele>
        <time>2023-07-22T09:36:47.970Z</time>
      </trkpt>
      <trkpt lat="47.86381" lon="-2.52747">
        <ele>141</ele>
        <time>2023-07-22T09:36:48.970Z</time>
      </trkpt>
      <trkpt lat="47.8638" lon="-2.52747">
        <ele>141</ele>
        <time>2023-07-22T09:36:49.969Z</time>
      </trkpt>
      <trkpt lat="47.86379" lon="-2.52747">
        <ele>141</ele>
        <time>2023-07-22T09:36:50.969Z</time>
      </trkpt>
      <trkpt lat="47.86378" lon="-2.52746">
        <ele>141</ele>
        <time>2023-07-22T09:36:51.969Z</time>
      </trkpt>
      <trkpt lat="47.86377" lon="-2.52746">
        <ele>141</ele>
        <time>2023-07-22T09:36:52.969Z</time>
      </trkpt>
      <trkpt lat="47.86376" lon="-2.52746">
        <ele>141</ele>
        <time>2023-07-22T09:36:53.969Z</time>
      </trkpt>
      <trkpt lat="47.86375" lon="-2.52745">
        <ele>141</ele>
        <time>2023-07-22T09:36:54.970Z</time>
      </trkpt>
      <trkpt lat="47.86374" lon="-2.52745">
        <ele>141</ele>
        <time>2023-07-22T09:36:55.969Z</time>
      </trkpt>
      <trkpt lat="47.86373" lon="-2.52744">
        <ele>141</ele>
        <time>2023-07-22T09:36:56.969Z</time>
      </trkpt>
      <trkpt lat="47.86372" lon="-2.52744">
        <ele>141</ele>
        <time>2023-07-22T09:36:57.969Z</time>
      </trkpt>
      <trkpt lat="47.86371" lon="-2.52744">
        <ele>141</ele>
        <time>2023-07-22T09:36:58.969Z</time>
      </trkpt>
      <trkpt lat="47.8637" lon="-2.52743">
        <ele>141</ele>
        <time>2023-07-22T09:36:59.969Z</time>
      </trkpt>
      <trkpt lat="47.86369" lon="-2.52743">
        <ele>141</ele>
        <time>2023-07-22T09:37:00.970Z</time>
      </trkpt>
      <trkpt lat="47.86368" lon="-2.52743">
        <ele>142</ele>
        <time>2023-07-22T09:37:01.969Z</time>
      </trkpt>
      <trkpt lat="47.86367" lon="-2.52743">
        <ele>142</ele>
        <time>2023-07-22T09:37:02.969Z</time>
      </trkpt>
      <trkpt lat="47.86366" lon="-2.52743">
        <ele>142</ele>
        <time>2023-07-22T09:37:03.969Z</time>
      </trkpt>
      <trkpt lat="47.86365" lon="-2.52742">
        <ele>141</ele>
        <time>2023-07-22T09:37:04.969Z</time>
      </trkpt>
      <trkpt lat="47.86364" lon="-2.52742">
        <ele>141</ele>
        <time>2023-07-22T09:37:05.970Z</time>
      </trkpt>
      <trkpt lat="47.86363" lon="-2.52742">
        <ele>141</ele>
        <time>2023-07-22T09:37:06.969Z</time>
      </trkpt>
      <trkpt lat="47.86362" lon="-2.52741">
        <ele>140</ele>
        <time>2023-07-22T09:37:07.969Z</time>
      </trkpt>
      <trkpt lat="47.86361" lon="-2.52741">
        <ele>140</ele>
        <time>2023-07-22T09:37:08.969Z</time>
      </trkpt>
      <trkpt lat="47.8636" lon="-2.5274">
        <ele>140</ele>
        <time>2023-07-22T09:37:09.969Z</time>
      </trkpt>
      <trkpt lat="47.86359" lon="-2.5274">
        <ele>139</ele>
        <time>2023-07-22T09:37:10.969Z</time>
      </trkpt>
      <trkpt lat="47.86358" lon="-2.5274">
        <ele>139</ele>
        <time>2023-07-22T09:37:11.969Z</time>
      </trkpt>
      <trkpt lat="47.86357" lon="-2.52741">
        <ele>139</ele>
        <time>2023-07-22T09:37:12.970Z</time>
      </trkpt>
      <trkpt lat="47.86356" lon="-2.52741">
        <ele>139</ele>
        <time>2023-07-22T09:37:13.970Z</time>
      </trkpt>
      <trkpt lat="47.86355" lon="-2.52741">
        <ele>138</ele>
        <time>2023-07-22T09:37:14.970Z</time>
      </trkpt>
      <trkpt lat="47.86354" lon="-2.52741">
        <ele>138</ele>
        <time>2023-07-22T09:37:15.969Z</time>
      </trkpt>
      <trkpt lat="47.86353" lon="-2.52741">
        <ele>139</ele>
        <time>2023-07-22T09:37:16.969Z</time>
      </trkpt>
      <trkpt lat="47.86351" lon="-2.52741">
        <ele>139</ele>
        <time>2023-07-22T09:37:17.969Z</time>
      </trkpt>
      <trkpt lat="47.86351" lon="-2.52741">
        <ele>139</ele>
        <time>2023-07-22T09:37:18.969Z</time>
      </trkpt>
      <trkpt lat="47.86349" lon="-2.52741">
        <ele>139</ele>
        <time>2023-07-22T09:37:19.969Z</time>
      </trkpt>
      <trkpt lat="47.86348" lon="-2.5274">
        <ele>139</ele>
        <time>2023-07-22T09:37:20.969Z</time>
      </trkpt>
      <trkpt lat="47.86347" lon="-2.5274">
        <ele>139</ele>
        <time>2023-07-22T09:37:21.970Z</time>
      </trkpt>
      <trkpt lat="47.86346" lon="-2.52739">
        <ele>139</ele>
        <time>2023-07-22T09:37:22.969Z</time>
      </trkpt>
      <trkpt lat="47.86345" lon="-2.52739">
        <ele>140</ele>
        <time>2023-07-22T09:37:23.969Z</time>
      </trkpt>
      <trkpt lat="47.86345" lon="-2.52738">
        <ele>140</ele>
        <time>2023-07-22T09:37:24.969Z</time>
      </trkpt>
      <trkpt lat="47.86345" lon="-2.52738">
        <ele>140</ele>
        <time>2023-07-22T09:37:25.969Z</time>
      </trkpt>
      <trkpt lat="47.86345" lon="-2.52737">
        <ele>140</ele>
        <time>2023-07-22T09:37:26.969Z</time>
      </trkpt>
      <trkpt lat="47.86344" lon="-2.52735">
        <ele>140</ele>
        <time>2023-07-22T09:37:27.969Z</time>
      </trkpt>
      <trkpt lat="47.86344" lon="-2.52734">
        <ele>140</ele>
        <time>2023-07-22T09:37:28.970Z</time>
      </trkpt>
      <trkpt lat="47.86343" lon="-2.52733">
        <ele>140</ele>
        <time>2023-07-22T09:37:29.969Z</time>
      </trkpt>
      <trkpt lat="47.86342" lon="-2.52732">
        <ele>141</ele>
        <time>2023-07-22T09:37:30.969Z</time>
      </trkpt>
      <trkpt lat="47.86341" lon="-2.52731">
        <ele>140</ele>
        <time>2023-07-22T09:37:31.970Z</time>
      </trkpt>
      <trkpt lat="47.8634" lon="-2.52731">
        <ele>140</ele>
        <time>2023-07-22T09:37:32.970Z</time>
      </trkpt>
      <trkpt lat="47.86339" lon="-2.52731">
        <ele>140</ele>
        <time>2023-07-22T09:37:33.969Z</time>
      </trkpt>
      <trkpt lat="47.86339" lon="-2.52731">
        <ele>140</ele>
        <time>2023-07-22T09:37:34.970Z</time>
      </trkpt>
      <trkpt lat="47.86339" lon="-2.5273">
        <ele>140</ele>
        <time>2023-07-22T09:37:35.969Z</time>
      </trkpt>
      <trkpt lat="47.86339" lon="-2.5273">
        <ele>139</ele>
        <time>2023-07-22T09:37:36.969Z</time>
      </trkpt>
      <trkpt lat="47.86339" lon="-2.52729">
        <ele>139</ele>
        <time>2023-07-22T09:37:37.970Z</time>
      </trkpt>
      <trkpt lat="47.86339" lon="-2.52729">
        <ele>139</ele>
        <time>2023-07-22T09:37:38.970Z</time>
      </trkpt>
      <trkpt lat="47.86338" lon="-2.52729">
        <ele>135</ele>
        <time>2023-07-22T09:38:05.192Z</time>
      </trkpt>
      <trkpt lat="47.86338" lon="-2.52729">
        <ele>136</ele>
        <time>2023-07-22T09:38:06.193Z</time>
      </trkpt>
      <trkpt lat="47.86339" lon="-2.52729">
        <ele>136</ele>
        <time>2023-07-22T09:38:07.192Z</time>
      </trkpt>
      <trkpt lat="47.86339" lon="-2.52729">
        <ele>136</ele>
        <time>2023-07-22T09:38:08.193Z</time>
      </trkpt>
      <trkpt lat="47.86339" lon="-2.52729">
        <ele>136</ele>
        <time>2023-07-22T09:38:09.192Z</time>
      </trkpt>
      <trkpt lat="47.86339" lon="-2.52729">
        <ele>136</ele>
        <time>2023-07-22T09:38:10.193Z</time>
      </trkpt>
      <trkpt lat="47.86338" lon="-2.52729">
        <ele>137</ele>
        <time>2023-07-22T09:38:11.192Z</time>
      </trkpt>
      <trkpt lat="47.86339" lon="-2.5273">
        <ele>137</ele>
        <time>2023-07-22T09:38:12.193Z</time>
      </trkpt>
      <trkpt lat="47.86338" lon="-2.52729">
        <ele>137</ele>
        <time>2023-07-22T09:38:13.192Z</time>
      </trkpt>
      <trkpt lat="47.86338" lon="-2.52729">
        <ele>137</ele>
        <time>2023-07-22T09:38:14.193Z</time>
      </trkpt>
      <trkpt lat="47.86338" lon="-2.52729">
        <ele>138</ele>
        <time>2023-07-22T09:38:15.192Z</time>
      </trkpt>
      <trkpt lat="47.86338" lon="-2.52729">
        <ele>138</ele>
        <time>2023-07-22T09:38:16.193Z</time>
      </trkpt>
      <trkpt lat="47.86338" lon="-2.52729">
        <ele>138</ele>
        <time>2023-07-22T09:38:17.193Z</time>
      </trkpt>
      <trkpt lat="47.86338" lon="-2.52729">
        <ele>138</ele>
        <time>2023-07-22T09:38:18.193Z</time>
      </trkpt>
      <trkpt lat="47.86339" lon="-2.52729">
        <ele>137</ele>
        <time>2023-07-22T09:38:19.192Z</time>
      </trkpt>
      <trkpt lat="47.86339" lon="-2.52729">
        <ele>137</ele>
        <time>2023-07-22T09:38:20.192Z</time>
      </trkpt>
      <trkpt lat="47.86339" lon="-2.52729">
        <ele>137</ele>
        <time>2023-07-22T09:38:21.192Z</time>
      </trkpt>
      <trkpt lat="47.86339" lon="-2.52729">
        <ele>136</ele>
        <time>2023-07-22T09:38:22.192Z</time>
      </trkpt>
      <trkpt lat="47.86339" lon="-2.52729">
        <ele>136</ele>
        <time>2023-07-22T09:38:23.193Z</time>
      </trkpt>
      <trkpt lat="47.86339" lon="-2.52729">
        <ele>136</ele>
        <time>2023-07-22T09:38:24.192Z</time>
      </trkpt>
      <trkpt lat="47.86339" lon="-2.52729">
        <ele>135</ele>
        <time>2023-07-22T09:38:25.193Z</time>
      </trkpt>
      <trkpt lat="47.86339" lon="-2.52729">
        <ele>135</ele>
        <time>2023-07-22T09:38:26.192Z</time>
      </trkpt>
      <trkpt lat="47.86339" lon="-2.52729">
        <ele>135</ele>
        <time>2023-07-22T09:38:27.193Z</time>
      </trkpt>
      <trkpt lat="47.86339" lon="-2.52729">
        <ele>135</ele>
        <time>2023-07-22T09:38:28.192Z</time>
      </trkpt>
      <trkpt lat="47.86339" lon="-2.52729">
        <ele>134</ele>
        <time>2023-07-22T09:38:29.193Z</time>
      </trkpt>
      <trkpt lat="47.86339" lon="-2.52729">
        <ele>134</ele>
        <time>2023-07-22T09:38:30.192Z</time>
      </trkpt>
      <trkpt lat="47.86339" lon="-2.52729">
        <ele>134</ele>
        <time>2023-07-22T09:38:31.193Z</time>
      </trkpt>
      <trkpt lat="47.86339" lon="-2.52729">
        <ele>134</ele>
        <time>2023-07-22T09:38:32.192Z</time>
      </trkpt>
      <trkpt lat="47.86339" lon="-2.52729">
        <ele>134</ele>
        <time>2023-07-22T09:38:33.193Z</time>
      </trkpt>
      <trkpt lat="47.86338" lon="-2.52728">
        <ele>135</ele>
        <time>2023-07-22T09:38:34.192Z</time>
      </trkpt>
      <trkpt lat="47.86338" lon="-2.52728">
        <ele>135</ele>
        <time>2023-07-22T09:38:35.193Z</time>
      </trkpt>
      <trkpt lat="47.86338" lon="-2.52727">
        <ele>136</ele>
        <time>2023-07-22T09:38:36.193Z</time>
      </trkpt>
      <trkpt lat="47.86336" lon="-2.52722">
        <ele>136</ele>
        <time>2023-07-22T09:38:43.564Z</time>
      </trkpt>
      <trkpt lat="47.86336" lon="-2.5272">
        <ele>136</ele>
        <time>2023-07-22T09:38:44.564Z</time>
      </trkpt>
      <trkpt lat="47.86336" lon="-2.5272">
        <ele>136</ele>
        <time>2023-07-22T09:38:45.565Z</time>
      </trkpt>
      <trkpt lat="47.86335" lon="-2.52719">
        <ele>136</ele>
        <time>2023-07-22T09:38:46.564Z</time>
      </trkpt>
      <trkpt lat="47.86335" lon="-2.52717">
        <ele>137</ele>
        <time>2023-07-22T09:38:47.565Z</time>
      </trkpt>
      <trkpt lat="47.86335" lon="-2.52716">
        <ele>137</ele>
        <time>2023-07-22T09:38:48.564Z</time>
      </trkpt>
      <trkpt lat="47.86335" lon="-2.52716">
        <ele>137</ele>
        <time>2023-07-22T09:38:49.565Z</time>
      </trkpt>
      <trkpt lat="47.86335" lon="-2.52715">
        <ele>137</ele>
        <time>2023-07-22T09:38:50.565Z</time>
      </trkpt>
      <trkpt lat="47.86335" lon="-2.52714">
        <ele>137</ele>
        <time>2023-07-22T09:38:51.564Z</time>
      </trkpt>
      <trkpt lat="47.86335" lon="-2.52713">
        <ele>137</ele>
        <time>2023-07-22T09:38:52.565Z</time>
      </trkpt>
      <trkpt lat="47.86335" lon="-2.52713">
        <ele>137</ele>
        <time>2023-07-22T09:38:53.564Z</time>
      </trkpt>
      <trkpt lat="47.86335" lon="-2.52712">
        <ele>137</ele>
        <time>2023-07-22T09:38:54.564Z</time>
      </trkpt>
      <trkpt lat="47.86336" lon="-2.5271">
        <ele>137</ele>
        <time>2023-07-22T09:38:55.564Z</time>
      </trkpt>
      <trkpt lat="47.86336" lon="-2.52709">
        <ele>137</ele>
        <time>2023-07-22T09:38:56.564Z</time>
      </trkpt>
      <trkpt lat="47.86337" lon="-2.52708">
        <ele>136</ele>
        <time>2023-07-22T09:38:57.564Z</time>
      </trkpt>
      <trkpt lat="47.86337" lon="-2.52708">
        <ele>136</ele>
        <time>2023-07-22T09:38:58.564Z</time>
      </trkpt>
      <trkpt lat="47.86337" lon="-2.52706">
        <ele>137</ele>
        <time>2023-07-22T09:38:59.564Z</time>
      </trkpt>
      <trkpt lat="47.86337" lon="-2.52705">
        <ele>136</ele>
        <time>2023-07-22T09:39:00.565Z</time>
      </trkpt>
      <trkpt lat="47.86338" lon="-2.52704">
        <ele>136</ele>
        <time>2023-07-22T09:39:01.564Z</time>
      </trkpt>
      <trkpt lat="47.86338" lon="-2.52704">
        <ele>136</ele>
        <time>2023-07-22T09:39:02.564Z</time>
      </trkpt>
      <trkpt lat="47.86339" lon="-2.52703">
        <ele>136</ele>
        <time>2023-07-22T09:39:03.565Z</time>
      </trkpt>
      <trkpt lat="47.8634" lon="-2.52702">
        <ele>137</ele>
        <time>2023-07-22T09:39:04.565Z</time>
      </trkpt>
      <trkpt lat="47.86341" lon="-2.52702">
        <ele>137</ele>
        <time>2023-07-22T09:39:05.565Z</time>
      </trkpt>
      <trkpt lat="47.86341" lon="-2.52702">
        <ele>137</ele>
        <time>2023-07-22T09:39:06.564Z</time>
      </trkpt>
      <trkpt lat="47.86343" lon="-2.527">
        <ele>138</ele>
        <time>2023-07-22T09:39:07.564Z</time>
      </trkpt>
      <trkpt lat="47.86343" lon="-2.52699">
        <ele>138</ele>
        <time>2023-07-22T09:39:08.565Z</time>
      </trkpt>
      <trkpt lat="47.86344" lon="-2.52698">
        <ele>139</ele>
        <time>2023-07-22T09:39:09.564Z</time>
      </trkpt>
      <trkpt lat="47.86344" lon="-2.52698">
        <ele>139</ele>
        <time>2023-07-22T09:39:10.564Z</time>
      </trkpt>
      <trkpt lat="47.86345" lon="-2.52696">
        <ele>139</ele>
        <time>2023-07-22T09:39:11.565Z</time>
      </trkpt>
      <trkpt lat="47.86346" lon="-2.52695">
        <ele>140</ele>
        <time>2023-07-22T09:39:12.565Z</time>
      </trkpt>
      <trkpt lat="47.86347" lon="-2.52695">
        <ele>140</ele>
        <time>2023-07-22T09:39:13.564Z</time>
      </trkpt>
      <trkpt lat="47.86347" lon="-2.52695">
        <ele>140</ele>
        <time>2023-07-22T09:39:14.564Z</time>
      </trkpt>
      <trkpt lat="47.86348" lon="-2.52693">
        <ele>141</ele>
        <time>2023-07-22T09:39:15.564Z</time>
      </trkpt>
      <trkpt lat="47.86349" lon="-2.52692">
        <ele>141</ele>
        <time>2023-07-22T09:39:16.564Z</time>
      </trkpt>
      <trkpt lat="47.8635" lon="-2.52691">
        <ele>141</ele>
        <time>2023-07-22T09:39:17.564Z</time>
      </trkpt>
      <trkpt lat="47.8635" lon="-2.52691">
        <ele>141</ele>
        <time>2023-07-22T09:39:18.564Z</time>
      </trkpt>
      <trkpt lat="47.86351" lon="-2.5269">
        <ele>142</ele>
        <time>2023-07-22T09:39:19.565Z</time>
      </trkpt>
      <trkpt lat="47.86353" lon="-2.52689">
        <ele>142</ele>
        <time>2023-07-22T09:39:20.565Z</time>
      </trkpt>
      <trkpt lat="47.86354" lon="-2.52687">
        <ele>142</ele>
        <time>2023-07-22T09:39:21.565Z</time>
      </trkpt>
      <trkpt lat="47.86354" lon="-2.52686">
        <ele>142</ele>
        <time>2023-07-22T09:39:22.564Z</time>
      </trkpt>
      <trkpt lat="47.86354" lon="-2.52686">
        <ele>142</ele>
        <time>2023-07-22T09:39:23.564Z</time>
      </trkpt>
      <trkpt lat="47.86354" lon="-2.52683">
        <ele>141</ele>
        <time>2023-07-22T09:39:24.565Z</time>
      </trkpt>
      <trkpt lat="47.86354" lon="-2.52681">
        <ele>141</ele>
        <time>2023-07-22T09:39:25.565Z</time>
      </trkpt>
      <trkpt lat="47.86353" lon="-2.5268">
        <ele>140</ele>
        <time>2023-07-22T09:39:26.564Z</time>
      </trkpt>
      <trkpt lat="47.86353" lon="-2.5268">
        <ele>140</ele>
        <time>2023-07-22T09:39:27.564Z</time>
      </trkpt>
      <trkpt lat="47.86353" lon="-2.52677">
        <ele>139</ele>
        <time>2023-07-22T09:39:28.564Z</time>
      </trkpt>
      <trkpt lat="47.86352" lon="-2.52676">
        <ele>139</ele>
        <time>2023-07-22T09:39:29.565Z</time>
      </trkpt>
      <trkpt lat="47.86352" lon="-2.52674">
        <ele>139</ele>
        <time>2023-07-22T09:39:30.565Z</time>
      </trkpt>
      <trkpt lat="47.86351" lon="-2.52672">
        <ele>138</ele>
        <time>2023-07-22T09:39:31.565Z</time>
      </trkpt>
      <trkpt lat="47.86351" lon="-2.52671">
        <ele>138</ele>
        <time>2023-07-22T09:39:32.564Z</time>
      </trkpt>
      <trkpt lat="47.86351" lon="-2.5267">
        <ele>137</ele>
        <time>2023-07-22T09:39:33.564Z</time>
      </trkpt>
      <trkpt lat="47.8635" lon="-2.52668">
        <ele>137</ele>
        <time>2023-07-22T09:39:34.565Z</time>
      </trkpt>
      <trkpt lat="47.8635" lon="-2.52668">
        <ele>137</ele>
        <time>2023-07-22T09:39:35.564Z</time>
      </trkpt>
      <trkpt lat="47.86349" lon="-2.52666">
        <ele>136</ele>
        <time>2023-07-22T09:39:36.564Z</time>
      </trkpt>
      <trkpt lat="47.86347" lon="-2.52664">
        <ele>135</ele>
        <time>2023-07-22T09:39:37.564Z</time>
      </trkpt>
      <trkpt lat="47.86346" lon="-2.52663">
        <ele>135</ele>
        <time>2023-07-22T09:39:38.564Z</time>
      </trkpt>
      <trkpt lat="47.86346" lon="-2.52663">
        <ele>135</ele>
        <time>2023-07-22T09:39:39.564Z</time>
      </trkpt>
      <trkpt lat="47.86346" lon="-2.52661">
        <ele>134</ele>
        <time>2023-07-22T09:39:40.564Z</time>
      </trkpt>
      <trkpt lat="47.86345" lon="-2.5266">
        <ele>134</ele>
        <time>2023-07-22T09:39:41.565Z</time>
      </trkpt>
      <trkpt lat="47.86344" lon="-2.52658">
        <ele>134</ele>
        <time>2023-07-22T09:39:42.564Z</time>
      </trkpt>
      <trkpt lat="47.86344" lon="-2.52658">
        <ele>134</ele>
        <time>2023-07-22T09:39:43.564Z</time>
      </trkpt>
      <trkpt lat="47.86342" lon="-2.52656">
        <ele>133</ele>
        <time>2023-07-22T09:39:44.564Z</time>
      </trkpt>
      <trkpt lat="47.86341" lon="-2.52655">
        <ele>132</ele>
        <time>2023-07-22T09:39:45.565Z</time>
      </trkpt>
      <trkpt lat="47.8634" lon="-2.52654">
        <ele>132</ele>
        <time>2023-07-22T09:39:46.564Z</time>
      </trkpt>
      <trkpt lat="47.8634" lon="-2.52654">
        <ele>132</ele>
        <time>2023-07-22T09:39:47.565Z</time>
      </trkpt>
      <trkpt lat="47.8634" lon="-2.52654">
        <ele>132</ele>
        <time>2023-07-22T09:39:48.565Z</time>
      </trkpt>
      <trkpt lat="47.86338" lon="-2.52653">
        <ele>131</ele>
        <time>2023-07-22T09:39:49.565Z</time>
      </trkpt>
      <trkpt lat="47.86337" lon="-2.52652">
        <ele>131</ele>
        <time>2023-07-22T09:39:50.564Z</time>
      </trkpt>
      <trkpt lat="47.86337" lon="-2.52652">
        <ele>131</ele>
        <time>2023-07-22T09:39:51.564Z</time>
      </trkpt>
      <trkpt lat="47.86336" lon="-2.52651">
        <ele>131</ele>
        <time>2023-07-22T09:39:52.564Z</time>
      </trkpt>
      <trkpt lat="47.86334" lon="-2.52649">
        <ele>131</ele>
        <time>2023-07-22T09:39:53.564Z</time>
      </trkpt>
      <trkpt lat="47.86333" lon="-2.52648">
        <ele>131</ele>
        <time>2023-07-22T09:39:54.564Z</time>
      </trkpt>
      <trkpt lat="47.86332" lon="-2.52647">
        <ele>132</ele>
        <time>2023-07-22T09:39:55.564Z</time>
      </trkpt>
      <trkpt lat="47.86332" lon="-2.52647">
        <ele>132</ele>
        <time>2023-07-22T09:39:56.564Z</time>
      </trkpt>
      <trkpt lat="47.8633" lon="-2.52646">
        <ele>132</ele>
        <time>2023-07-22T09:39:57.564Z</time>
      </trkpt>
      <trkpt lat="47.86329" lon="-2.52645">
        <ele>133</ele>
        <time>2023-07-22T09:39:58.564Z</time>
      </trkpt>
      <trkpt lat="47.86328" lon="-2.52644">
        <ele>133</ele>
        <time>2023-07-22T09:39:59.564Z</time>
      </trkpt>
      <trkpt lat="47.86328" lon="-2.52644">
        <ele>133</ele>
        <time>2023-07-22T09:40:00.564Z</time>
      </trkpt>
      <trkpt lat="47.86326" lon="-2.52643">
        <ele>134</ele>
        <time>2023-07-22T09:40:01.564Z</time>
      </trkpt>
      <trkpt lat="47.86325" lon="-2.52642">
        <ele>134</ele>
        <time>2023-07-22T09:40:02.564Z</time>
      </trkpt>
      <trkpt lat="47.86324" lon="-2.52641">
        <ele>135</ele>
        <time>2023-07-22T09:40:03.564Z</time>
      </trkpt>
      <trkpt lat="47.86324" lon="-2.52641">
        <ele>135</ele>
        <time>2023-07-22T09:40:04.564Z</time>
      </trkpt>
      <trkpt lat="47.86323" lon="-2.52639">
        <ele>136</ele>
        <time>2023-07-22T09:40:05.564Z</time>
      </trkpt>
      <trkpt lat="47.86322" lon="-2.52638">
        <ele>136</ele>
        <time>2023-07-22T09:40:06.564Z</time>
      </trkpt>
      <trkpt lat="47.86322" lon="-2.52637">
        <ele>136</ele>
        <time>2023-07-22T09:40:07.564Z</time>
      </trkpt>
      <trkpt lat="47.86322" lon="-2.52637">
        <ele>136</ele>
        <time>2023-07-22T09:40:08.564Z</time>
      </trkpt>
      <trkpt lat="47.86322" lon="-2.52636">
        <ele>137</ele>
        <time>2023-07-22T09:40:09.564Z</time>
      </trkpt>
      <trkpt lat="47.86322" lon="-2.52636">
        <ele>137</ele>
        <time>2023-07-22T09:40:10.564Z</time>
      </trkpt>
      <trkpt lat="47.86321" lon="-2.52635">
        <ele>137</ele>
        <time>2023-07-22T09:40:11.564Z</time>
      </trkpt>
      <trkpt lat="47.86321" lon="-2.52635">
        <ele>137</ele>
        <time>2023-07-22T09:40:12.564Z</time>
      </trkpt>
      <trkpt lat="47.86321" lon="-2.52634">
        <ele>137</ele>
        <time>2023-07-22T09:40:13.564Z</time>
      </trkpt>
      <trkpt lat="47.86321" lon="-2.52633">
        <ele>136</ele>
        <time>2023-07-22T09:40:14.564Z</time>
      </trkpt>
      <trkpt lat="47.8632" lon="-2.52632">
        <ele>136</ele>
        <time>2023-07-22T09:40:15.564Z</time>
      </trkpt>
      <trkpt lat="47.8632" lon="-2.52632">
        <ele>136</ele>
        <time>2023-07-22T09:40:16.564Z</time>
      </trkpt>
      <trkpt lat="47.86319" lon="-2.52632">
        <ele>136</ele>
        <time>2023-07-22T09:40:17.565Z</time>
      </trkpt>
      <trkpt lat="47.86317" lon="-2.52631">
        <ele>135</ele>
        <time>2023-07-22T09:40:18.564Z</time>
      </trkpt>
      <trkpt lat="47.86315" lon="-2.52631">
        <ele>134</ele>
        <time>2023-07-22T09:40:19.564Z</time>
      </trkpt>
      <trkpt lat="47.86315" lon="-2.52631">
        <ele>134</ele>
        <time>2023-07-22T09:40:20.565Z</time>
      </trkpt>
      <trkpt lat="47.86314" lon="-2.52631">
        <ele>134</ele>
        <time>2023-07-22T09:40:21.564Z</time>
      </trkpt>
      <trkpt lat="47.86311" lon="-2.5263">
        <ele>135</ele>
        <time>2023-07-22T09:40:22.565Z</time>
      </trkpt>
      <trkpt lat="47.8631" lon="-2.5263">
        <ele>135</ele>
        <time>2023-07-22T09:40:23.565Z</time>
      </trkpt>
      <trkpt lat="47.8631" lon="-2.5263">
        <ele>135</ele>
        <time>2023-07-22T09:40:24.564Z</time>
      </trkpt>
      <trkpt lat="47.86308" lon="-2.52629">
        <ele>135</ele>
        <time>2023-07-22T09:40:25.564Z</time>
      </trkpt>
      <trkpt lat="47.86306" lon="-2.52627">
        <ele>136</ele>
        <time>2023-07-22T09:40:26.564Z</time>
      </trkpt>
      <trkpt lat="47.86304" lon="-2.52627">
        <ele>137</ele>
        <time>2023-07-22T09:40:27.564Z</time>
      </trkpt>
      <trkpt lat="47.86304" lon="-2.52627">
        <ele>137</ele>
        <time>2023-07-22T09:40:28.565Z</time>
      </trkpt>
      <trkpt lat="47.86304" lon="-2.52627">
        <ele>137</ele>
        <time>2023-07-22T09:40:29.564Z</time>
      </trkpt>
      <trkpt lat="47.86302" lon="-2.52625">
        <ele>138</ele>
        <time>2023-07-22T09:40:30.565Z</time>
      </trkpt>
      <trkpt lat="47.86301" lon="-2.52625">
        <ele>138</ele>
        <time>2023-07-22T09:40:31.565Z</time>
      </trkpt>
      <trkpt lat="47.863" lon="-2.52624">
        <ele>138</ele>
        <time>2023-07-22T09:40:32.564Z</time>
      </trkpt>
      <trkpt lat="47.863" lon="-2.52624">
        <ele>138</ele>
        <time>2023-07-22T09:40:33.565Z</time>
      </trkpt>
      <trkpt lat="47.86298" lon="-2.52623">
        <ele>138</ele>
        <time>2023-07-22T09:40:34.565Z</time>
      </trkpt>
      <trkpt lat="47.86296" lon="-2.52622">
        <ele>138</ele>
        <time>2023-07-22T09:40:35.564Z</time>
      </trkpt>
      <trkpt lat="47.86296" lon="-2.52622">
        <ele>138</ele>
        <time>2023-07-22T09:40:36.564Z</time>
      </trkpt>
      <trkpt lat="47.86295" lon="-2.52622">
        <ele>138</ele>
        <time>2023-07-22T09:40:37.564Z</time>
      </trkpt>
      <trkpt lat="47.86295" lon="-2.52621">
        <ele>137</ele>
        <time>2023-07-22T09:40:38.564Z</time>
      </trkpt>
      <trkpt lat="47.86294" lon="-2.52621">
        <ele>137</ele>
        <time>2023-07-22T09:40:39.564Z</time>
      </trkpt>
      <trkpt lat="47.86294" lon="-2.52621">
        <ele>136</ele>
        <time>2023-07-22T09:40:40.564Z</time>
      </trkpt>
      <trkpt lat="47.86294" lon="-2.52621">
        <ele>136</ele>
        <time>2023-07-22T09:40:41.564Z</time>
      </trkpt>
      <trkpt lat="47.86293" lon="-2.52621">
        <ele>136</ele>
        <time>2023-07-22T09:40:42.564Z</time>
      </trkpt>
      <trkpt lat="47.86293" lon="-2.52621">
        <ele>136</ele>
        <time>2023-07-22T09:40:43.564Z</time>
      </trkpt>
      <trkpt lat="47.86293" lon="-2.52621">
        <ele>136</ele>
        <time>2023-07-22T09:40:44.564Z</time>
      </trkpt>
      <trkpt lat="47.86293" lon="-2.52621">
        <ele>136</ele>
        <time>2023-07-22T09:40:45.564Z</time>
      </trkpt>
      <trkpt lat="47.86293" lon="-2.52621">
        <ele>136</ele>
        <time>2023-07-22T09:40:46.565Z</time>
      </trkpt>
      <trkpt lat="47.86293" lon="-2.52623">
        <ele>139</ele>
        <time>2023-07-22T09:40:55.727Z</time>
      </trkpt>
      <trkpt lat="47.86293" lon="-2.52623">
        <ele>139</ele>
        <time>2023-07-22T09:40:56.727Z</time>
      </trkpt>
      <trkpt lat="47.86293" lon="-2.52623">
        <ele>139</ele>
        <time>2023-07-22T09:40:57.727Z</time>
      </trkpt>
      <trkpt lat="47.86293" lon="-2.52623">
        <ele>139</ele>
        <time>2023-07-22T09:40:58.727Z</time>
      </trkpt>
      <trkpt lat="47.86294" lon="-2.52624">
        <ele>139</ele>
        <time>2023-07-22T09:40:59.727Z</time>
      </trkpt>
      <trkpt lat="47.86295" lon="-2.52624">
        <ele>139</ele>
        <time>2023-07-22T09:41:00.727Z</time>
      </trkpt>
      <trkpt lat="47.86296" lon="-2.52624">
        <ele>139</ele>
        <time>2023-07-22T09:41:01.727Z</time>
      </trkpt>
      <trkpt lat="47.86296" lon="-2.52623">
        <ele>139</ele>
        <time>2023-07-22T09:41:02.726Z</time>
      </trkpt>
      <trkpt lat="47.86298" lon="-2.52622">
        <ele>139</ele>
        <time>2023-07-22T09:41:03.726Z</time>
      </trkpt>
      <trkpt lat="47.86299" lon="-2.52622">
        <ele>139</ele>
        <time>2023-07-22T09:41:04.727Z</time>
      </trkpt>
      <trkpt lat="47.863" lon="-2.52622">
        <ele>139</ele>
        <time>2023-07-22T09:41:05.726Z</time>
      </trkpt>
      <trkpt lat="47.86302" lon="-2.52623">
        <ele>139</ele>
        <time>2023-07-22T09:41:06.726Z</time>
      </trkpt>
      <trkpt lat="47.86304" lon="-2.52623">
        <ele>139</ele>
        <time>2023-07-22T09:41:07.726Z</time>
      </trkpt>
      <trkpt lat="47.86305" lon="-2.52623">
        <ele>139</ele>
        <time>2023-07-22T09:41:08.727Z</time>
      </trkpt>
      <trkpt lat="47.86306" lon="-2.52624">
        <ele>139</ele>
        <time>2023-07-22T09:41:09.727Z</time>
      </trkpt>
      <trkpt lat="47.86307" lon="-2.52624">
        <ele>139</ele>
        <time>2023-07-22T09:41:10.727Z</time>
      </trkpt>
      <trkpt lat="47.86308" lon="-2.52624">
        <ele>139</ele>
        <time>2023-07-22T09:41:11.726Z</time>
      </trkpt>
      <trkpt lat="47.86309" lon="-2.52626">
        <ele>138</ele>
        <time>2023-07-22T09:41:12.726Z</time>
      </trkpt>
      <trkpt lat="47.8631" lon="-2.52626">
        <ele>138</ele>
        <time>2023-07-22T09:41:13.727Z</time>
      </trkpt>
      <trkpt lat="47.86311" lon="-2.52628">
        <ele>138</ele>
        <time>2023-07-22T09:41:14.727Z</time>
      </trkpt>
      <trkpt lat="47.86311" lon="-2.52628">
        <ele>139</ele>
        <time>2023-07-22T09:41:15.727Z</time>
      </trkpt>
      <trkpt lat="47.86312" lon="-2.52629">
        <ele>139</ele>
        <time>2023-07-22T09:41:16.727Z</time>
      </trkpt>
      <trkpt lat="47.86313" lon="-2.5263">
        <ele>139</ele>
        <time>2023-07-22T09:41:17.726Z</time>
      </trkpt>
      <trkpt lat="47.86315" lon="-2.52631">
        <ele>139</ele>
        <time>2023-07-22T09:41:18.726Z</time>
      </trkpt>
      <trkpt lat="47.86316" lon="-2.52631">
        <ele>139</ele>
        <time>2023-07-22T09:41:19.726Z</time>
      </trkpt>
      <trkpt lat="47.86316" lon="-2.52632">
        <ele>139</ele>
        <time>2023-07-22T09:41:20.726Z</time>
      </trkpt>
      <trkpt lat="47.86317" lon="-2.52631">
        <ele>139</ele>
        <time>2023-07-22T09:41:21.726Z</time>
      </trkpt>
      <trkpt lat="47.86316" lon="-2.5263">
        <ele>139</ele>
        <time>2023-07-22T09:41:22.727Z</time>
      </trkpt>
      <trkpt lat="47.86316" lon="-2.52629">
        <ele>139</ele>
        <time>2023-07-22T09:41:23.727Z</time>
      </trkpt>
      <trkpt lat="47.86317" lon="-2.52628">
        <ele>139</ele>
        <time>2023-07-22T09:41:24.726Z</time>
      </trkpt>
      <trkpt lat="47.86317" lon="-2.52627">
        <ele>140</ele>
        <time>2023-07-22T09:41:25.726Z</time>
      </trkpt>
      <trkpt lat="47.86316" lon="-2.52627">
        <ele>140</ele>
        <time>2023-07-22T09:41:26.726Z</time>
      </trkpt>
      <trkpt lat="47.86316" lon="-2.52626">
        <ele>140</ele>
        <time>2023-07-22T09:41:27.726Z</time>
      </trkpt>
      <trkpt lat="47.86315" lon="-2.52624">
        <ele>140</ele>
        <time>2023-07-22T09:41:28.727Z</time>
      </trkpt>
      <trkpt lat="47.86314" lon="-2.52623">
        <ele>140</ele>
        <time>2023-07-22T09:41:29.726Z</time>
      </trkpt>
      <trkpt lat="47.86315" lon="-2.52623">
        <ele>140</ele>
        <time>2023-07-22T09:41:30.727Z</time>
      </trkpt>
      <trkpt lat="47.86314" lon="-2.52622">
        <ele>140</ele>
        <time>2023-07-22T09:41:31.727Z</time>
      </trkpt>
      <trkpt lat="47.86314" lon="-2.52621">
        <ele>140</ele>
        <time>2023-07-22T09:41:32.726Z</time>
      </trkpt>
      <trkpt lat="47.86313" lon="-2.5262">
        <ele>139</ele>
        <time>2023-07-22T09:41:33.727Z</time>
      </trkpt>
      <trkpt lat="47.86312" lon="-2.52619">
        <ele>139</ele>
        <time>2023-07-22T09:41:34.727Z</time>
      </trkpt>
      <trkpt lat="47.86312" lon="-2.52618">
        <ele>139</ele>
        <time>2023-07-22T09:41:35.726Z</time>
      </trkpt>
      <trkpt lat="47.86312" lon="-2.52618">
        <ele>139</ele>
        <time>2023-07-22T09:41:36.726Z</time>
      </trkpt>
      <trkpt lat="47.86313" lon="-2.52612">
        <ele>139</ele>
        <time>2023-07-22T09:41:44.097Z</time>
      </trkpt>
      <trkpt lat="47.86313" lon="-2.52612">
        <ele>138</ele>
        <time>2023-07-22T09:41:45.097Z</time>
      </trkpt>
      <trkpt lat="47.86313" lon="-2.52612">
        <ele>138</ele>
        <time>2023-07-22T09:41:46.097Z</time>
      </trkpt>
      <trkpt lat="47.86312" lon="-2.52612">
        <ele>138</ele>
        <time>2023-07-22T09:41:47.097Z</time>
      </trkpt>
      <trkpt lat="47.86312" lon="-2.52612">
        <ele>138</ele>
        <time>2023-07-22T09:41:48.097Z</time>
      </trkpt>
      <trkpt lat="47.86312" lon="-2.52612">
        <ele>137</ele>
        <time>2023-07-22T09:41:49.097Z</time>
      </trkpt>
      <trkpt lat="47.86313" lon="-2.52611">
        <ele>135</ele>
        <time>2023-07-22T09:41:55.516Z</time>
      </trkpt>
      <trkpt lat="47.86313" lon="-2.52611">
        <ele>134</ele>
        <time>2023-07-22T09:41:56.516Z</time>
      </trkpt>
      <trkpt lat="47.86316" lon="-2.52611">
        <ele>133</ele>
        <time>2023-07-22T09:42:02.854Z</time>
      </trkpt>
      <trkpt lat="47.86316" lon="-2.52612">
        <ele>132</ele>
        <time>2023-07-22T09:42:03.855Z</time>
      </trkpt>
      <trkpt lat="47.86316" lon="-2.52612">
        <ele>132</ele>
        <time>2023-07-22T09:42:04.855Z</time>
      </trkpt>
      <trkpt lat="47.86318" lon="-2.52612">
        <ele>132</ele>
        <time>2023-07-22T09:42:05.854Z</time>
      </trkpt>
      <trkpt lat="47.86319" lon="-2.52612">
        <ele>132</ele>
        <time>2023-07-22T09:42:06.854Z</time>
      </trkpt>
      <trkpt lat="47.8632" lon="-2.52613">
        <ele>132</ele>
        <time>2023-07-22T09:42:07.855Z</time>
      </trkpt>
      <trkpt lat="47.8632" lon="-2.52613">
        <ele>132</ele>
        <time>2023-07-22T09:42:08.854Z</time>
      </trkpt>
      <trkpt lat="47.86321" lon="-2.52613">
        <ele>131</ele>
        <time>2023-07-22T09:42:09.855Z</time>
      </trkpt>
      <trkpt lat="47.86322" lon="-2.52613">
        <ele>131</ele>
        <time>2023-07-22T09:42:10.854Z</time>
      </trkpt>
      <trkpt lat="47.86322" lon="-2.52614">
        <ele>131</ele>
        <time>2023-07-22T09:42:11.854Z</time>
      </trkpt>
      <trkpt lat="47.86322" lon="-2.52614">
        <ele>131</ele>
        <time>2023-07-22T09:42:12.854Z</time>
      </trkpt>
      <trkpt lat="47.86322" lon="-2.52615">
        <ele>131</ele>
        <time>2023-07-22T09:42:13.854Z</time>
      </trkpt>
      <trkpt lat="47.86321" lon="-2.52616">
        <ele>131</ele>
        <time>2023-07-22T09:42:14.855Z</time>
      </trkpt>
      <trkpt lat="47.86321" lon="-2.52617">
        <ele>131</ele>
        <time>2023-07-22T09:42:15.854Z</time>
      </trkpt>
      <trkpt lat="47.86322" lon="-2.52618">
        <ele>131</ele>
        <time>2023-07-22T09:42:16.854Z</time>
      </trkpt>
      <trkpt lat="47.86322" lon="-2.52618">
        <ele>130</ele>
        <time>2023-07-22T09:42:17.854Z</time>
      </trkpt>
      <trkpt lat="47.86323" lon="-2.52617">
        <ele>131</ele>
        <time>2023-07-22T09:42:18.854Z</time>
      </trkpt>
      <trkpt lat="47.86324" lon="-2.52618">
        <ele>131</ele>
        <time>2023-07-22T09:42:19.854Z</time>
      </trkpt>
      <trkpt lat="47.86323" lon="-2.52619">
        <ele>131</ele>
        <time>2023-07-22T09:42:20.854Z</time>
      </trkpt>
      <trkpt lat="47.86322" lon="-2.5262">
        <ele>131</ele>
        <time>2023-07-22T09:42:21.855Z</time>
      </trkpt>
      <trkpt lat="47.86321" lon="-2.52622">
        <ele>131</ele>
        <time>2023-07-22T09:42:22.854Z</time>
      </trkpt>
      <trkpt lat="47.86321" lon="-2.52622">
        <ele>131</ele>
        <time>2023-07-22T09:42:23.855Z</time>
      </trkpt>
      <trkpt lat="47.86321" lon="-2.52623">
        <ele>131</ele>
        <time>2023-07-22T09:42:24.854Z</time>
      </trkpt>
      <trkpt lat="47.8632" lon="-2.52624">
        <ele>131</ele>
        <time>2023-07-22T09:42:25.854Z</time>
      </trkpt>
      <trkpt lat="47.86319" lon="-2.52626">
        <ele>131</ele>
        <time>2023-07-22T09:42:26.855Z</time>
      </trkpt>
      <trkpt lat="47.86319" lon="-2.52627">
        <ele>132</ele>
        <time>2023-07-22T09:42:27.854Z</time>
      </trkpt>
      <trkpt lat="47.86319" lon="-2.52628">
        <ele>132</ele>
        <time>2023-07-22T09:42:28.854Z</time>
      </trkpt>
      <trkpt lat="47.8632" lon="-2.5263">
        <ele>133</ele>
        <time>2023-07-22T09:42:29.854Z</time>
      </trkpt>
      <trkpt lat="47.8632" lon="-2.5263">
        <ele>133</ele>
        <time>2023-07-22T09:42:30.855Z</time>
      </trkpt>
      <trkpt lat="47.8632" lon="-2.52631">
        <ele>133</ele>
        <time>2023-07-22T09:42:31.854Z</time>
      </trkpt>
      <trkpt lat="47.8632" lon="-2.52631">
        <ele>133</ele>
        <time>2023-07-22T09:42:32.855Z</time>
      </trkpt>
      <trkpt lat="47.86318" lon="-2.52633">
        <ele>133</ele>
        <time>2023-07-22T09:42:41.182Z</time>
      </trkpt>
      <trkpt lat="47.86319" lon="-2.52634">
        <ele>137</ele>
        <time>2023-07-22T09:42:49.507Z</time>
      </trkpt>
      <trkpt lat="47.86319" lon="-2.52634">
        <ele>137</ele>
        <time>2023-07-22T09:42:50.507Z</time>
      </trkpt>
      <trkpt lat="47.86319" lon="-2.52634">
        <ele>138</ele>
        <time>2023-07-22T09:42:51.507Z</time>
      </trkpt>
      <trkpt lat="47.86319" lon="-2.52634">
        <ele>138</ele>
        <time>2023-07-22T09:42:52.506Z</time>
      </trkpt>
      <trkpt lat="47.86319" lon="-2.52635">
        <ele>138</ele>
        <time>2023-07-22T09:42:53.506Z</time>
      </trkpt>
      <trkpt lat="47.86319" lon="-2.52635">
        <ele>138</ele>
        <time>2023-07-22T09:42:54.506Z</time>
      </trkpt>
      <trkpt lat="47.86319" lon="-2.52635">
        <ele>139</ele>
        <time>2023-07-22T09:42:55.506Z</time>
      </trkpt>
      <trkpt lat="47.86319" lon="-2.52635">
        <ele>139</ele>
        <time>2023-07-22T09:42:56.506Z</time>
      </trkpt>
      <trkpt lat="47.86319" lon="-2.52635">
        <ele>139</ele>
        <time>2023-07-22T09:42:57.506Z</time>
      </trkpt>
      <trkpt lat="47.8632" lon="-2.52635">
        <ele>139</ele>
        <time>2023-07-22T09:42:58.507Z</time>
      </trkpt>
      <trkpt lat="47.8632" lon="-2.52635">
        <ele>139</ele>
        <time>2023-07-22T09:42:59.507Z</time>
      </trkpt>
      <trkpt lat="47.8632" lon="-2.52635">
        <ele>139</ele>
        <time>2023-07-22T09:43:00.507Z</time>
      </trkpt>
      <trkpt lat="47.8632" lon="-2.52635">
        <ele>139</ele>
        <time>2023-07-22T09:43:01.507Z</time>
      </trkpt>
      <trkpt lat="47.8632" lon="-2.52636">
        <ele>139</ele>
        <time>2023-07-22T09:43:02.507Z</time>
      </trkpt>
      <trkpt lat="47.8632" lon="-2.52636">
        <ele>139</ele>
        <time>2023-07-22T09:43:03.507Z</time>
      </trkpt>
      <trkpt lat="47.8632" lon="-2.52636">
        <ele>139</ele>
        <time>2023-07-22T09:43:04.506Z</time>
      </trkpt>
      <trkpt lat="47.8632" lon="-2.52636">
        <ele>139</ele>
        <time>2023-07-22T09:43:05.506Z</time>
      </trkpt>
      <trkpt lat="47.86321" lon="-2.52636">
        <ele>139</ele>
        <time>2023-07-22T09:43:06.506Z</time>
      </trkpt>
      <trkpt lat="47.86321" lon="-2.52636">
        <ele>139</ele>
        <time>2023-07-22T09:43:07.506Z</time>
      </trkpt>
      <trkpt lat="47.86321" lon="-2.52636">
        <ele>140</ele>
        <time>2023-07-22T09:43:08.506Z</time>
      </trkpt>
      <trkpt lat="47.86321" lon="-2.52636">
        <ele>141</ele>
        <time>2023-07-22T09:43:09.507Z</time>
      </trkpt>
      <trkpt lat="47.86321" lon="-2.52636">
        <ele>142</ele>
        <time>2023-07-22T09:43:10.507Z</time>
      </trkpt>
      <trkpt lat="47.86321" lon="-2.52637">
        <ele>143</ele>
        <time>2023-07-22T09:43:11.507Z</time>
      </trkpt>
      <trkpt lat="47.86321" lon="-2.52637">
        <ele>144</ele>
        <time>2023-07-22T09:43:12.507Z</time>
      </trkpt>
      <trkpt lat="47.86321" lon="-2.52637">
        <ele>145</ele>
        <time>2023-07-22T09:43:13.507Z</time>
      </trkpt>
      <trkpt lat="47.86321" lon="-2.52637">
        <ele>146</ele>
        <time>2023-07-22T09:43:14.506Z</time>
      </trkpt>
      <trkpt lat="47.86321" lon="-2.52637">
        <ele>146</ele>
        <time>2023-07-22T09:43:15.506Z</time>
      </trkpt>
      <trkpt lat="47.86322" lon="-2.52637">
        <ele>147</ele>
        <time>2023-07-22T09:43:16.506Z</time>
      </trkpt>
      <trkpt lat="47.86322" lon="-2.52637">
        <ele>147</ele>
        <time>2023-07-22T09:43:17.506Z</time>
      </trkpt>
      <trkpt lat="47.86322" lon="-2.52638">
        <ele>147</ele>
        <time>2023-07-22T09:43:18.506Z</time>
      </trkpt>
      <trkpt lat="47.86322" lon="-2.52638">
        <ele>147</ele>
        <time>2023-07-22T09:43:19.507Z</time>
      </trkpt>
      <trkpt lat="47.86324" lon="-2.52639">
        <ele>149</ele>
        <time>2023-07-22T09:43:30.656Z</time>
      </trkpt>
      <trkpt lat="47.86327" lon="-2.52639">
        <ele>153</ele>
        <time>2023-07-22T09:43:49.955Z</time>
      </trkpt>
      <trkpt lat="47.86326" lon="-2.52639">
        <ele>153</ele>
        <time>2023-07-22T09:43:50.954Z</time>
      </trkpt>
      <trkpt lat="47.86326" lon="-2.52639">
        <ele>153</ele>
        <time>2023-07-22T09:43:51.955Z</time>
      </trkpt>
      <trkpt lat="47.86325" lon="-2.52639">
        <ele>153</ele>
        <time>2023-07-22T09:43:52.954Z</time>
      </trkpt>
      <trkpt lat="47.86325" lon="-2.52638">
        <ele>153</ele>
        <time>2023-07-22T09:43:53.955Z</time>
      </trkpt>
      <trkpt lat="47.86327" lon="-2.52638">
        <ele>144</ele>
        <time>2023-07-22T09:44:44.255Z</time>
      </trkpt>
      <trkpt lat="47.86327" lon="-2.52638">
        <ele>144</ele>
        <time>2023-07-22T09:44:45.255Z</time>
      </trkpt>
      <trkpt lat="47.86328" lon="-2.5264">
        <ele>144</ele>
        <time>2023-07-22T09:45:00.296Z</time>
      </trkpt>
      <trkpt lat="47.86328" lon="-2.5264">
        <ele>143</ele>
        <time>2023-07-22T09:45:01.297Z</time>
      </trkpt>
      <trkpt lat="47.86328" lon="-2.52639">
        <ele>143</ele>
        <time>2023-07-22T09:45:02.296Z</time>
      </trkpt>
      <trkpt lat="47.86328" lon="-2.52638">
        <ele>142</ele>
        <time>2023-07-22T09:45:03.296Z</time>
      </trkpt>
      <trkpt lat="47.86328" lon="-2.52637">
        <ele>142</ele>
        <time>2023-07-22T09:45:04.296Z</time>
      </trkpt>
      <trkpt lat="47.86329" lon="-2.52637">
        <ele>142</ele>
        <time>2023-07-22T09:45:05.297Z</time>
      </trkpt>
      <trkpt lat="47.86329" lon="-2.52636">
        <ele>141</ele>
        <time>2023-07-22T09:45:06.296Z</time>
      </trkpt>
      <trkpt lat="47.8633" lon="-2.52635">
        <ele>141</ele>
        <time>2023-07-22T09:45:07.297Z</time>
      </trkpt>
      <trkpt lat="47.8633" lon="-2.52634">
        <ele>140</ele>
        <time>2023-07-22T09:45:08.296Z</time>
      </trkpt>
      <trkpt lat="47.8633" lon="-2.52632">
        <ele>140</ele>
        <time>2023-07-22T09:45:09.296Z</time>
      </trkpt>
      <trkpt lat="47.8633" lon="-2.5263">
        <ele>140</ele>
        <time>2023-07-22T09:45:10.297Z</time>
      </trkpt>
      <trkpt lat="47.8633" lon="-2.52628">
        <ele>140</ele>
        <time>2023-07-22T09:45:11.296Z</time>
      </trkpt>
      <trkpt lat="47.86329" lon="-2.52626">
        <ele>140</ele>
        <time>2023-07-22T09:45:12.296Z</time>
      </trkpt>
      <trkpt lat="47.86328" lon="-2.52625">
        <ele>140</ele>
        <time>2023-07-22T09:45:13.296Z</time>
      </trkpt>
      <trkpt lat="47.86328" lon="-2.52624">
        <ele>139</ele>
        <time>2023-07-22T09:45:14.296Z</time>
      </trkpt>
      <trkpt lat="47.86328" lon="-2.52623">
        <ele>139</ele>
        <time>2023-07-22T09:45:15.296Z</time>
      </trkpt>
      <trkpt lat="47.86328" lon="-2.52622">
        <ele>139</ele>
        <time>2023-07-22T09:45:16.297Z</time>
      </trkpt>
      <trkpt lat="47.86328" lon="-2.52622">
        <ele>138</ele>
        <time>2023-07-22T09:45:17.296Z</time>
      </trkpt>
      <trkpt lat="47.8633" lon="-2.52625">
        <ele>136</ele>
        <time>2023-07-22T09:45:36.556Z</time>
      </trkpt>
      <trkpt lat="47.86331" lon="-2.52625">
        <ele>136</ele>
        <time>2023-07-22T09:45:37.556Z</time>
      </trkpt>
      <trkpt lat="47.86332" lon="-2.52625">
        <ele>136</ele>
        <time>2023-07-22T09:45:38.556Z</time>
      </trkpt>
      <trkpt lat="47.86332" lon="-2.52624">
        <ele>136</ele>
        <time>2023-07-22T09:45:39.557Z</time>
      </trkpt>
      <trkpt lat="47.86332" lon="-2.52623">
        <ele>135</ele>
        <time>2023-07-22T09:45:40.556Z</time>
      </trkpt>
      <trkpt lat="47.86332" lon="-2.52623">
        <ele>135</ele>
        <time>2023-07-22T09:45:41.556Z</time>
      </trkpt>
      <trkpt lat="47.8633" lon="-2.5263">
        <ele>128</ele>
        <time>2023-07-22T09:45:54.687Z</time>
      </trkpt>
      <trkpt lat="47.8633" lon="-2.52631">
        <ele>128</ele>
        <time>2023-07-22T09:45:55.687Z</time>
      </trkpt>
      <trkpt lat="47.8633" lon="-2.52631">
        <ele>129</ele>
        <time>2023-07-22T09:45:56.687Z</time>
      </trkpt>
      <trkpt lat="47.8633" lon="-2.52631">
        <ele>129</ele>
        <time>2023-07-22T09:45:57.687Z</time>
      </trkpt>
      <trkpt lat="47.86329" lon="-2.52631">
        <ele>130</ele>
        <time>2023-07-22T09:46:03.086Z</time>
      </trkpt>
      <trkpt lat="47.86329" lon="-2.5263">
        <ele>130</ele>
        <time>2023-07-22T09:46:04.087Z</time>
      </trkpt>
      <trkpt lat="47.86329" lon="-2.52629">
        <ele>130</ele>
        <time>2023-07-22T09:46:05.086Z</time>
      </trkpt>
      <trkpt lat="47.86328" lon="-2.52628">
        <ele>130</ele>
        <time>2023-07-22T09:46:06.086Z</time>
      </trkpt>
      <trkpt lat="47.86328" lon="-2.52627">
        <ele>130</ele>
        <time>2023-07-22T09:46:07.086Z</time>
      </trkpt>
      <trkpt lat="47.86327" lon="-2.52625">
        <ele>130</ele>
        <time>2023-07-22T09:46:08.086Z</time>
      </trkpt>
      <trkpt lat="47.86326" lon="-2.52624">
        <ele>130</ele>
        <time>2023-07-22T09:46:09.086Z</time>
      </trkpt>
      <trkpt lat="47.86325" lon="-2.52624">
        <ele>131</ele>
        <time>2023-07-22T09:46:10.087Z</time>
      </trkpt>
      <trkpt lat="47.86325" lon="-2.52624">
        <ele>131</ele>
        <time>2023-07-22T09:46:11.086Z</time>
      </trkpt>
      <trkpt lat="47.86324" lon="-2.52625">
        <ele>131</ele>
        <time>2023-07-22T09:46:12.087Z</time>
      </trkpt>
      <trkpt lat="47.86323" lon="-2.52626">
        <ele>132</ele>
        <time>2023-07-22T09:46:13.087Z</time>
      </trkpt>
      <trkpt lat="47.86322" lon="-2.52627">
        <ele>132</ele>
        <time>2023-07-22T09:46:14.086Z</time>
      </trkpt>
      <trkpt lat="47.86321" lon="-2.52628">
        <ele>132</ele>
        <time>2023-07-22T09:46:15.087Z</time>
      </trkpt>
      <trkpt lat="47.86321" lon="-2.52628">
        <ele>132</ele>
        <time>2023-07-22T09:46:16.086Z</time>
      </trkpt>
      <trkpt lat="47.8632" lon="-2.52628">
        <ele>133</ele>
        <time>2023-07-22T09:46:17.086Z</time>
      </trkpt>
      <trkpt lat="47.8632" lon="-2.52629">
        <ele>133</ele>
        <time>2023-07-22T09:46:18.086Z</time>
      </trkpt>
      <trkpt lat="47.8632" lon="-2.52629">
        <ele>133</ele>
        <time>2023-07-22T09:46:19.087Z</time>
      </trkpt>
      <trkpt lat="47.86319" lon="-2.5263">
        <ele>133</ele>
        <time>2023-07-22T09:46:20.086Z</time>
      </trkpt>
      <trkpt lat="47.86318" lon="-2.5263">
        <ele>133</ele>
        <time>2023-07-22T09:46:21.087Z</time>
      </trkpt>
      <trkpt lat="47.86318" lon="-2.5263">
        <ele>134</ele>
        <time>2023-07-22T09:46:22.086Z</time>
      </trkpt>
      <trkpt lat="47.86317" lon="-2.5263">
        <ele>134</ele>
        <time>2023-07-22T09:46:23.086Z</time>
      </trkpt>
      <trkpt lat="47.86317" lon="-2.52629">
        <ele>135</ele>
        <time>2023-07-22T09:46:24.086Z</time>
      </trkpt>
      <trkpt lat="47.86317" lon="-2.52629">
        <ele>135</ele>
        <time>2023-07-22T09:46:25.087Z</time>
      </trkpt>
      <trkpt lat="47.86316" lon="-2.52628">
        <ele>136</ele>
        <time>2023-07-22T09:46:26.086Z</time>
      </trkpt>
      <trkpt lat="47.86316" lon="-2.52628">
        <ele>136</ele>
        <time>2023-07-22T09:46:27.087Z</time>
      </trkpt>
      <trkpt lat="47.86316" lon="-2.52627">
        <ele>136</ele>
        <time>2023-07-22T09:46:28.086Z</time>
      </trkpt>
      <trkpt lat="47.86317" lon="-2.52627">
        <ele>136</ele>
        <time>2023-07-22T09:46:29.087Z</time>
      </trkpt>
      <trkpt lat="47.86317" lon="-2.52626">
        <ele>136</ele>
        <time>2023-07-22T09:46:30.087Z</time>
      </trkpt>
      <trkpt lat="47.86316" lon="-2.52625">
        <ele>136</ele>
        <time>2023-07-22T09:46:31.086Z</time>
      </trkpt>
      <trkpt lat="47.86316" lon="-2.52625">
        <ele>137</ele>
        <time>2023-07-22T09:46:32.087Z</time>
      </trkpt>
      <trkpt lat="47.86316" lon="-2.52625">
        <ele>137</ele>
        <time>2023-07-22T09:46:33.086Z</time>
      </trkpt>
      <trkpt lat="47.8632" lon="-2.52627">
        <ele>140</ele>
        <time>2023-07-22T09:46:55.176Z</time>
      </trkpt>
      <trkpt lat="47.8632" lon="-2.52626">
        <ele>140</ele>
        <time>2023-07-22T09:46:56.175Z</time>
      </trkpt>
      <trkpt lat="47.8632" lon="-2.52626">
        <ele>140</ele>
        <time>2023-07-22T09:46:57.176Z</time>
      </trkpt>
      <trkpt lat="47.8632" lon="-2.52627">
        <ele>139</ele>
        <time>2023-07-22T09:46:58.175Z</time>
      </trkpt>
      <trkpt lat="47.8632" lon="-2.52627">
        <ele>139</ele>
        <time>2023-07-22T09:46:59.175Z</time>
      </trkpt>
      <trkpt lat="47.8632" lon="-2.52627">
        <ele>139</ele>
        <time>2023-07-22T09:47:00.176Z</time>
      </trkpt>
      <trkpt lat="47.86321" lon="-2.52627">
        <ele>139</ele>
        <time>2023-07-22T09:47:01.175Z</time>
      </trkpt>
      <trkpt lat="47.86321" lon="-2.52627">
        <ele>139</ele>
        <time>2023-07-22T09:47:02.176Z</time>
      </trkpt>
      <trkpt lat="47.86321" lon="-2.52627">
        <ele>139</ele>
        <time>2023-07-22T09:47:03.175Z</time>
      </trkpt>
      <trkpt lat="47.86321" lon="-2.52626">
        <ele>140</ele>
        <time>2023-07-22T09:47:10.519Z</time>
      </trkpt>
      <trkpt lat="47.86321" lon="-2.52626">
        <ele>140</ele>
        <time>2023-07-22T09:47:11.520Z</time>
      </trkpt>
      <trkpt lat="47.86321" lon="-2.52626">
        <ele>141</ele>
        <time>2023-07-22T09:47:12.519Z</time>
      </trkpt>
      <trkpt lat="47.86321" lon="-2.52626">
        <ele>141</ele>
        <time>2023-07-22T09:47:13.519Z</time>
      </trkpt>
      <trkpt lat="47.86321" lon="-2.52626">
        <ele>141</ele>
        <time>2023-07-22T09:47:14.520Z</time>
      </trkpt>
      <trkpt lat="47.86322" lon="-2.52626">
        <ele>141</ele>
        <time>2023-07-22T09:47:15.519Z</time>
      </trkpt>
      <trkpt lat="47.86322" lon="-2.52626">
        <ele>141</ele>
        <time>2023-07-22T09:47:16.519Z</time>
      </trkpt>
      <trkpt lat="47.86322" lon="-2.52627">
        <ele>141</ele>
        <time>2023-07-22T09:47:17.520Z</time>
      </trkpt>
      <trkpt lat="47.86322" lon="-2.52627">
        <ele>141</ele>
        <time>2023-07-22T09:47:18.519Z</time>
      </trkpt>
      <trkpt lat="47.86322" lon="-2.52627">
        <ele>141</ele>
        <time>2023-07-22T09:47:19.519Z</time>
      </trkpt>
      <trkpt lat="47.86322" lon="-2.52627">
        <ele>141</ele>
        <time>2023-07-22T09:47:20.520Z</time>
      </trkpt>
      <trkpt lat="47.86322" lon="-2.52627">
        <ele>141</ele>
        <time>2023-07-22T09:47:21.519Z</time>
      </trkpt>
      <trkpt lat="47.86322" lon="-2.52627">
        <ele>141</ele>
        <time>2023-07-22T09:47:22.520Z</time>
      </trkpt>
      <trkpt lat="47.86322" lon="-2.52627">
        <ele>140</ele>
        <time>2023-07-22T09:47:23.519Z</time>
      </trkpt>
      <trkpt lat="47.86322" lon="-2.52627">
        <ele>140</ele>
        <time>2023-07-22T09:47:24.520Z</time>
      </trkpt>
      <trkpt lat="47.86322" lon="-2.52627">
        <ele>140</ele>
        <time>2023-07-22T09:47:25.519Z</time>
      </trkpt>
      <trkpt lat="47.86322" lon="-2.52627">
        <ele>140</ele>
        <time>2023-07-22T09:47:26.519Z</time>
      </trkpt>
      <trkpt lat="47.8632" lon="-2.52626">
        <ele>139</ele>
        <time>2023-07-22T09:47:27.519Z</time>
      </trkpt>
      <trkpt lat="47.8632" lon="-2.52627">
        <ele>139</ele>
        <time>2023-07-22T09:47:28.519Z</time>
      </trkpt>
      <trkpt lat="47.86318" lon="-2.52627">
        <ele>139</ele>
        <time>2023-07-22T09:47:29.519Z</time>
      </trkpt>
      <trkpt lat="47.86318" lon="-2.52628">
        <ele>139</ele>
        <time>2023-07-22T09:47:30.520Z</time>
      </trkpt>
      <trkpt lat="47.86318" lon="-2.52627">
        <ele>139</ele>
        <time>2023-07-22T09:47:31.520Z</time>
      </trkpt>
      <trkpt lat="47.86318" lon="-2.52627">
        <ele>140</ele>
        <time>2023-07-22T09:47:32.519Z</time>
      </trkpt>
      <trkpt lat="47.86318" lon="-2.52627">
        <ele>140</ele>
        <time>2023-07-22T09:47:33.520Z</time>
      </trkpt>
      <trkpt lat="47.86318" lon="-2.52627">
        <ele>140</ele>
        <time>2023-07-22T09:47:34.519Z</time>
      </trkpt>
      <trkpt lat="47.86319" lon="-2.52627">
        <ele>140</ele>
        <time>2023-07-22T09:47:35.519Z</time>
      </trkpt>
      <trkpt lat="47.86319" lon="-2.52627">
        <ele>140</ele>
        <time>2023-07-22T09:47:36.520Z</time>
      </trkpt>
      <trkpt lat="47.86319" lon="-2.52626">
        <ele>141</ele>
        <time>2023-07-22T09:47:37.520Z</time>
      </trkpt>
      <trkpt lat="47.8632" lon="-2.52626">
        <ele>141</ele>
        <time>2023-07-22T09:47:38.519Z</time>
      </trkpt>
      <trkpt lat="47.86321" lon="-2.52625">
        <ele>141</ele>
        <time>2023-07-22T09:47:39.520Z</time>
      </trkpt>
      <trkpt lat="47.86322" lon="-2.52624">
        <ele>142</ele>
        <time>2023-07-22T09:47:40.520Z</time>
      </trkpt>
      <trkpt lat="47.86323" lon="-2.52623">
        <ele>142</ele>
        <time>2023-07-22T09:47:41.520Z</time>
      </trkpt>
      <trkpt lat="47.86324" lon="-2.52622">
        <ele>142</ele>
        <time>2023-07-22T09:47:42.519Z</time>
      </trkpt>
      <trkpt lat="47.86325" lon="-2.52621">
        <ele>142</ele>
        <time>2023-07-22T09:47:43.519Z</time>
      </trkpt>
      <trkpt lat="47.86325" lon="-2.52621">
        <ele>142</ele>
        <time>2023-07-22T09:47:44.519Z</time>
      </trkpt>
      <trkpt lat="47.86326" lon="-2.5262">
        <ele>142</ele>
        <time>2023-07-22T09:47:45.519Z</time>
      </trkpt>
      <trkpt lat="47.86326" lon="-2.5262">
        <ele>141</ele>
        <time>2023-07-22T09:47:46.520Z</time>
      </trkpt>
      <trkpt lat="47.86327" lon="-2.5262">
        <ele>141</ele>
        <time>2023-07-22T09:47:47.519Z</time>
      </trkpt>
      <trkpt lat="47.86327" lon="-2.5262">
        <ele>140</ele>
        <time>2023-07-22T09:47:48.519Z</time>
      </trkpt>
      <trkpt lat="47.86327" lon="-2.5262">
        <ele>140</ele>
        <time>2023-07-22T09:47:49.519Z</time>
      </trkpt>
      <trkpt lat="47.86324" lon="-2.52621">
        <ele>128</ele>
        <time>2023-07-22T09:49:01.279Z</time>
      </trkpt>
      <trkpt lat="47.86324" lon="-2.52621">
        <ele>128</ele>
        <time>2023-07-22T09:49:02.279Z</time>
      </trkpt>
      <trkpt lat="47.86324" lon="-2.52621">
        <ele>127</ele>
        <time>2023-07-22T09:49:03.279Z</time>
      </trkpt>
      <trkpt lat="47.86324" lon="-2.52621">
        <ele>126</ele>
        <time>2023-07-22T09:49:04.280Z</time>
      </trkpt>
      <trkpt lat="47.86324" lon="-2.52621">
        <ele>125</ele>
        <time>2023-07-22T09:49:05.280Z</time>
      </trkpt>
      <trkpt lat="47.86324" lon="-2.52621">
        <ele>125</ele>
        <time>2023-07-22T09:49:06.280Z</time>
      </trkpt>
      <trkpt lat="47.86324" lon="-2.52621">
        <ele>124</ele>
        <time>2023-07-22T09:49:07.280Z</time>
      </trkpt>
      <trkpt lat="47.86324" lon="-2.52621">
        <ele>123</ele>
        <time>2023-07-22T09:49:08.280Z</time>
      </trkpt>
      <trkpt lat="47.86323" lon="-2.52621">
        <ele>123</ele>
        <time>2023-07-22T09:49:09.280Z</time>
      </trkpt>
      <trkpt lat="47.86323" lon="-2.52621">
        <ele>122</ele>
        <time>2023-07-22T09:49:10.280Z</time>
      </trkpt>
      <trkpt lat="47.86323" lon="-2.52621">
        <ele>122</ele>
        <time>2023-07-22T09:49:11.280Z</time>
      </trkpt>
      <trkpt lat="47.86323" lon="-2.52621">
        <ele>122</ele>
        <time>2023-07-22T09:49:12.280Z</time>
      </trkpt>
      <trkpt lat="47.86323" lon="-2.52621">
        <ele>121</ele>
        <time>2023-07-22T09:49:13.280Z</time>
      </trkpt>
      <trkpt lat="47.86323" lon="-2.52621">
        <ele>121</ele>
        <time>2023-07-22T09:49:14.280Z</time>
      </trkpt>
      <trkpt lat="47.86323" lon="-2.52621">
        <ele>121</ele>
        <time>2023-07-22T09:49:15.279Z</time>
      </trkpt>
      <trkpt lat="47.86323" lon="-2.52621">
        <ele>120</ele>
        <time>2023-07-22T09:49:16.279Z</time>
      </trkpt>
      <trkpt lat="47.86323" lon="-2.52621">
        <ele>120</ele>
        <time>2023-07-22T09:49:17.280Z</time>
      </trkpt>
      <trkpt lat="47.86323" lon="-2.52621">
        <ele>120</ele>
        <time>2023-07-22T09:49:18.280Z</time>
      </trkpt>
      <trkpt lat="47.86323" lon="-2.52621">
        <ele>120</ele>
        <time>2023-07-22T09:49:19.279Z</time>
      </trkpt>
      <trkpt lat="47.86323" lon="-2.52621">
        <ele>120</ele>
        <time>2023-07-22T09:49:20.279Z</time>
      </trkpt>
      <trkpt lat="47.86323" lon="-2.52621">
        <ele>119</ele>
        <time>2023-07-22T09:49:21.280Z</time>
      </trkpt>
      <trkpt lat="47.86323" lon="-2.52621">
        <ele>119</ele>
        <time>2023-07-22T09:49:22.279Z</time>
      </trkpt>
      <trkpt lat="47.86323" lon="-2.52621">
        <ele>119</ele>
        <time>2023-07-22T09:49:23.279Z</time>
      </trkpt>
      <trkpt lat="47.86323" lon="-2.52621">
        <ele>119</ele>
        <time>2023-07-22T09:49:24.280Z</time>
      </trkpt>
      <trkpt lat="47.86323" lon="-2.52621">
        <ele>119</ele>
        <time>2023-07-22T09:49:25.279Z</time>
      </trkpt>
      <trkpt lat="47.86323" lon="-2.52621">
        <ele>119</ele>
        <time>2023-07-22T09:49:26.279Z</time>
      </trkpt>
      <trkpt lat="47.86323" lon="-2.52621">
        <ele>119</ele>
        <time>2023-07-22T09:49:27.279Z</time>
      </trkpt>
      <trkpt lat="47.86323" lon="-2.52621">
        <ele>119</ele>
        <time>2023-07-22T09:49:28.279Z</time>
      </trkpt>
      <trkpt lat="47.86323" lon="-2.52621">
        <ele>119</ele>
        <time>2023-07-22T09:49:29.280Z</time>
      </trkpt>
      <trkpt lat="47.86323" lon="-2.52621">
        <ele>119</ele>
        <time>2023-07-22T09:49:30.279Z</time>
      </trkpt>
      <trkpt lat="47.86323" lon="-2.52621">
        <ele>120</ele>
        <time>2023-07-22T09:49:31.279Z</time>
      </trkpt>
      <trkpt lat="47.86323" lon="-2.52621">
        <ele>121</ele>
        <time>2023-07-22T09:49:32.279Z</time>
      </trkpt>
      <trkpt lat="47.86323" lon="-2.52621">
        <ele>122</ele>
        <time>2023-07-22T09:49:33.279Z</time>
      </trkpt>
      <trkpt lat="47.86323" lon="-2.52621">
        <ele>123</ele>
        <time>2023-07-22T09:49:34.279Z</time>
      </trkpt>
      <trkpt lat="47.86323" lon="-2.52621">
        <ele>124</ele>
        <time>2023-07-22T09:49:35.279Z</time>
      </trkpt>
      <trkpt lat="47.86323" lon="-2.52621">
        <ele>124</ele>
        <time>2023-07-22T09:49:36.279Z</time>
      </trkpt>
      <trkpt lat="47.86323" lon="-2.52621">
        <ele>125</ele>
        <time>2023-07-22T09:49:37.280Z</time>
      </trkpt>
      <trkpt lat="47.86323" lon="-2.52621">
        <ele>126</ele>
        <time>2023-07-22T09:49:38.279Z</time>
      </trkpt>
      <trkpt lat="47.86323" lon="-2.5262">
        <ele>127</ele>
        <time>2023-07-22T09:49:39.279Z</time>
      </trkpt>
      <trkpt lat="47.86323" lon="-2.52621">
        <ele>128</ele>
        <time>2023-07-22T09:49:40.280Z</time>
      </trkpt>
      <trkpt lat="47.86323" lon="-2.52621">
        <ele>129</ele>
        <time>2023-07-22T09:49:41.280Z</time>
      </trkpt>
      <trkpt lat="47.86322" lon="-2.52621">
        <ele>129</ele>
        <time>2023-07-22T09:49:42.279Z</time>
      </trkpt>
      <trkpt lat="47.86322" lon="-2.52621">
        <ele>130</ele>
        <time>2023-07-22T09:49:43.280Z</time>
      </trkpt>
      <trkpt lat="47.86322" lon="-2.52621">
        <ele>131</ele>
        <time>2023-07-22T09:49:44.279Z</time>
      </trkpt>
      <trkpt lat="47.86319" lon="-2.52623">
        <ele>129</ele>
        <time>2023-07-22T09:50:24.459Z</time>
      </trkpt>
      <trkpt lat="47.86319" lon="-2.52623">
        <ele>130</ele>
        <time>2023-07-22T09:50:25.459Z</time>
      </trkpt>
      <trkpt lat="47.86318" lon="-2.52624">
        <ele>130</ele>
        <time>2023-07-22T09:50:26.459Z</time>
      </trkpt>
      <trkpt lat="47.86318" lon="-2.52624">
        <ele>131</ele>
        <time>2023-07-22T09:50:27.459Z</time>
      </trkpt>
      <trkpt lat="47.86318" lon="-2.52624">
        <ele>131</ele>
        <time>2023-07-22T09:50:28.459Z</time>
      </trkpt>
      <trkpt lat="47.86317" lon="-2.52624">
        <ele>132</ele>
        <time>2023-07-22T09:50:29.459Z</time>
      </trkpt>
      <trkpt lat="47.86317" lon="-2.52625">
        <ele>132</ele>
        <time>2023-07-22T09:50:30.460Z</time>
      </trkpt>
      <trkpt lat="47.86316" lon="-2.52625">
        <ele>132</ele>
        <time>2023-07-22T09:50:31.460Z</time>
      </trkpt>
      <trkpt lat="47.86316" lon="-2.52625">
        <ele>132</ele>
        <time>2023-07-22T09:50:32.460Z</time>
      </trkpt>
      <trkpt lat="47.86316" lon="-2.52626">
        <ele>132</ele>
        <time>2023-07-22T09:50:33.459Z</time>
      </trkpt>
      <trkpt lat="47.86315" lon="-2.52626">
        <ele>132</ele>
        <time>2023-07-22T09:50:34.460Z</time>
      </trkpt>
      <trkpt lat="47.86316" lon="-2.52627">
        <ele>133</ele>
        <time>2023-07-22T09:50:35.460Z</time>
      </trkpt>
      <trkpt lat="47.86315" lon="-2.52627">
        <ele>133</ele>
        <time>2023-07-22T09:50:36.459Z</time>
      </trkpt>
      <trkpt lat="47.86315" lon="-2.52628">
        <ele>133</ele>
        <time>2023-07-22T09:50:37.460Z</time>
      </trkpt>
      <trkpt lat="47.86316" lon="-2.52628">
        <ele>134</ele>
        <time>2023-07-22T09:50:38.459Z</time>
      </trkpt>
      <trkpt lat="47.86316" lon="-2.52629">
        <ele>134</ele>
        <time>2023-07-22T09:50:39.460Z</time>
      </trkpt>
      <trkpt lat="47.86315" lon="-2.52629">
        <ele>135</ele>
        <time>2023-07-22T09:50:40.460Z</time>
      </trkpt>
      <trkpt lat="47.86314" lon="-2.52629">
        <ele>136</ele>
        <time>2023-07-22T09:50:41.460Z</time>
      </trkpt>
      <trkpt lat="47.86314" lon="-2.5263">
        <ele>136</ele>
        <time>2023-07-22T09:50:42.460Z</time>
      </trkpt>
      <trkpt lat="47.86313" lon="-2.5263">
        <ele>137</ele>
        <time>2023-07-22T09:50:43.459Z</time>
      </trkpt>
      <trkpt lat="47.86312" lon="-2.52631">
        <ele>137</ele>
        <time>2023-07-22T09:50:44.459Z</time>
      </trkpt>
      <trkpt lat="47.86312" lon="-2.52631">
        <ele>137</ele>
        <time>2023-07-22T09:50:45.459Z</time>
      </trkpt>
      <trkpt lat="47.86311" lon="-2.5263">
        <ele>137</ele>
        <time>2023-07-22T09:50:46.459Z</time>
      </trkpt>
      <trkpt lat="47.86311" lon="-2.5263">
        <ele>138</ele>
        <time>2023-07-22T09:50:47.459Z</time>
      </trkpt>
      <trkpt lat="47.8631" lon="-2.52629">
        <ele>137</ele>
        <time>2023-07-22T09:50:48.459Z</time>
      </trkpt>
      <trkpt lat="47.8631" lon="-2.52629">
        <ele>137</ele>
        <time>2023-07-22T09:50:49.460Z</time>
      </trkpt>
      <trkpt lat="47.86309" lon="-2.52629">
        <ele>137</ele>
        <time>2023-07-22T09:50:50.460Z</time>
      </trkpt>
      <trkpt lat="47.8631" lon="-2.52628">
        <ele>137</ele>
        <time>2023-07-22T09:50:51.460Z</time>
      </trkpt>
      <trkpt lat="47.86309" lon="-2.52629">
        <ele>136</ele>
        <time>2023-07-22T09:50:52.460Z</time>
      </trkpt>
      <trkpt lat="47.86309" lon="-2.5263">
        <ele>136</ele>
        <time>2023-07-22T09:50:53.460Z</time>
      </trkpt>
      <trkpt lat="47.86308" lon="-2.5263">
        <ele>137</ele>
        <time>2023-07-22T09:50:54.460Z</time>
      </trkpt>
      <trkpt lat="47.86308" lon="-2.5263">
        <ele>137</ele>
        <time>2023-07-22T09:50:55.460Z</time>
      </trkpt>
      <trkpt lat="47.86308" lon="-2.5263">
        <ele>137</ele>
        <time>2023-07-22T09:50:56.459Z</time>
      </trkpt>
      <trkpt lat="47.86305" lon="-2.52629">
        <ele>138</ele>
        <time>2023-07-22T09:51:04.845Z</time>
      </trkpt>
      <trkpt lat="47.86303" lon="-2.52629">
        <ele>135</ele>
        <time>2023-07-22T09:51:22.130Z</time>
      </trkpt>
      <trkpt lat="47.86303" lon="-2.52628">
        <ele>135</ele>
        <time>2023-07-22T09:51:23.129Z</time>
      </trkpt>
      <trkpt lat="47.86303" lon="-2.52626">
        <ele>135</ele>
        <time>2023-07-22T09:51:24.129Z</time>
      </trkpt>
      <trkpt lat="47.86303" lon="-2.52625">
        <ele>135</ele>
        <time>2023-07-22T09:51:25.129Z</time>
      </trkpt>
      <trkpt lat="47.86302" lon="-2.52624">
        <ele>134</ele>
        <time>2023-07-22T09:51:26.129Z</time>
      </trkpt>
      <trkpt lat="47.86302" lon="-2.52621">
        <ele>135</ele>
        <time>2023-07-22T09:51:27.130Z</time>
      </trkpt>
      <trkpt lat="47.86302" lon="-2.5262">
        <ele>135</ele>
        <time>2023-07-22T09:51:28.129Z</time>
      </trkpt>
      <trkpt lat="47.86303" lon="-2.52617">
        <ele>135</ele>
        <time>2023-07-22T09:51:29.130Z</time>
      </trkpt>
      <trkpt lat="47.86303" lon="-2.52615">
        <ele>135</ele>
        <time>2023-07-22T09:51:30.130Z</time>
      </trkpt>
      <trkpt lat="47.86303" lon="-2.52614">
        <ele>135</ele>
        <time>2023-07-22T09:51:31.129Z</time>
      </trkpt>
      <trkpt lat="47.86303" lon="-2.52614">
        <ele>135</ele>
        <time>2023-07-22T09:51:32.129Z</time>
      </trkpt>
      <trkpt lat="47.86303" lon="-2.52613">
        <ele>135</ele>
        <time>2023-07-22T09:51:33.129Z</time>
      </trkpt>
      <trkpt lat="47.86303" lon="-2.52612">
        <ele>135</ele>
        <time>2023-07-22T09:51:34.130Z</time>
      </trkpt>
      <trkpt lat="47.86303" lon="-2.5261">
        <ele>136</ele>
        <time>2023-07-22T09:51:35.129Z</time>
      </trkpt>
      <trkpt lat="47.86303" lon="-2.52608">
        <ele>136</ele>
        <time>2023-07-22T09:51:36.130Z</time>
      </trkpt>
      <trkpt lat="47.86303" lon="-2.52608">
        <ele>136</ele>
        <time>2023-07-22T09:51:37.130Z</time>
      </trkpt>
      <trkpt lat="47.86303" lon="-2.52606">
        <ele>136</ele>
        <time>2023-07-22T09:51:38.129Z</time>
      </trkpt>
      <trkpt lat="47.86304" lon="-2.52605">
        <ele>136</ele>
        <time>2023-07-22T09:51:39.130Z</time>
      </trkpt>
      <trkpt lat="47.86304" lon="-2.52604">
        <ele>136</ele>
        <time>2023-07-22T09:51:40.130Z</time>
      </trkpt>
      <trkpt lat="47.86304" lon="-2.52602">
        <ele>135</ele>
        <time>2023-07-22T09:51:41.129Z</time>
      </trkpt>
      <trkpt lat="47.86305" lon="-2.52601">
        <ele>135</ele>
        <time>2023-07-22T09:51:42.130Z</time>
      </trkpt>
      <trkpt lat="47.86305" lon="-2.526">
        <ele>134</ele>
        <time>2023-07-22T09:51:43.129Z</time>
      </trkpt>
      <trkpt lat="47.86305" lon="-2.52598">
        <ele>134</ele>
        <time>2023-07-22T09:51:44.129Z</time>
      </trkpt>
      <trkpt lat="47.86305" lon="-2.52596">
        <ele>133</ele>
        <time>2023-07-22T09:51:45.129Z</time>
      </trkpt>
      <trkpt lat="47.86306" lon="-2.52595">
        <ele>133</ele>
        <time>2023-07-22T09:51:46.130Z</time>
      </trkpt>
      <trkpt lat="47.86306" lon="-2.52593">
        <ele>133</ele>
        <time>2023-07-22T09:51:47.129Z</time>
      </trkpt>
      <trkpt lat="47.86307" lon="-2.52592">
        <ele>133</ele>
        <time>2023-07-22T09:51:48.129Z</time>
      </trkpt>
      <trkpt lat="47.86307" lon="-2.52591">
        <ele>133</ele>
        <time>2023-07-22T09:51:49.129Z</time>
      </trkpt>
      <trkpt lat="47.86307" lon="-2.52589">
        <ele>133</ele>
        <time>2023-07-22T09:51:50.130Z</time>
      </trkpt>
      <trkpt lat="47.86308" lon="-2.52588">
        <ele>133</ele>
        <time>2023-07-22T09:51:51.129Z</time>
      </trkpt>
      <trkpt lat="47.86308" lon="-2.52587">
        <ele>133</ele>
        <time>2023-07-22T09:51:52.129Z</time>
      </trkpt>
      <trkpt lat="47.86309" lon="-2.52586">
        <ele>133</ele>
        <time>2023-07-22T09:51:53.130Z</time>
      </trkpt>
      <trkpt lat="47.86309" lon="-2.52585">
        <ele>133</ele>
        <time>2023-07-22T09:51:54.130Z</time>
      </trkpt>
      <trkpt lat="47.8631" lon="-2.52584">
        <ele>132</ele>
        <time>2023-07-22T09:51:55.129Z</time>
      </trkpt>
      <trkpt lat="47.8631" lon="-2.52584">
        <ele>132</ele>
        <time>2023-07-22T09:51:56.129Z</time>
      </trkpt>
      <trkpt lat="47.8631" lon="-2.52583">
        <ele>131</ele>
        <time>2023-07-22T09:51:57.130Z</time>
      </trkpt>
      <trkpt lat="47.86311" lon="-2.52583">
        <ele>131</ele>
        <time>2023-07-22T09:51:58.129Z</time>
      </trkpt>
      <trkpt lat="47.86311" lon="-2.52583">
        <ele>130</ele>
        <time>2023-07-22T09:51:59.129Z</time>
      </trkpt>
      <trkpt lat="47.86312" lon="-2.52583">
        <ele>130</ele>
        <time>2023-07-22T09:52:00.129Z</time>
      </trkpt>
      <trkpt lat="47.86312" lon="-2.52583">
        <ele>130</ele>
        <time>2023-07-22T09:52:01.129Z</time>
      </trkpt>
      <trkpt lat="47.86312" lon="-2.52583">
        <ele>130</ele>
        <time>2023-07-22T09:52:02.129Z</time>
      </trkpt>
      <trkpt lat="47.86312" lon="-2.52583">
        <ele>130</ele>
        <time>2023-07-22T09:52:03.130Z</time>
      </trkpt>
      <trkpt lat="47.86313" lon="-2.52583">
        <ele>133</ele>
        <time>2023-07-22T09:52:09.606Z</time>
      </trkpt>
      <trkpt lat="47.86313" lon="-2.52582">
        <ele>133</ele>
        <time>2023-07-22T09:52:10.606Z</time>
      </trkpt>
      <trkpt lat="47.86313" lon="-2.52582">
        <ele>133</ele>
        <time>2023-07-22T09:52:11.606Z</time>
      </trkpt>
      <trkpt lat="47.86313" lon="-2.52582">
        <ele>133</ele>
        <time>2023-07-22T09:52:12.605Z</time>
      </trkpt>
      <trkpt lat="47.86313" lon="-2.52582">
        <ele>134</ele>
        <time>2023-07-22T09:52:13.606Z</time>
      </trkpt>
      <trkpt lat="47.86313" lon="-2.52582">
        <ele>133</ele>
        <time>2023-07-22T09:52:14.606Z</time>
      </trkpt>
      <trkpt lat="47.86313" lon="-2.52583">
        <ele>133</ele>
        <time>2023-07-22T09:52:15.605Z</time>
      </trkpt>
      <trkpt lat="47.86313" lon="-2.52583">
        <ele>133</ele>
        <time>2023-07-22T09:52:16.605Z</time>
      </trkpt>
      <trkpt lat="47.86313" lon="-2.52583">
        <ele>133</ele>
        <time>2023-07-22T09:52:17.606Z</time>
      </trkpt>
      <trkpt lat="47.86313" lon="-2.52582">
        <ele>133</ele>
        <time>2023-07-22T09:52:18.605Z</time>
      </trkpt>
      <trkpt lat="47.86312" lon="-2.52582">
        <ele>133</ele>
        <time>2023-07-22T09:52:19.606Z</time>
      </trkpt>
      <trkpt lat="47.86312" lon="-2.52582">
        <ele>133</ele>
        <time>2023-07-22T09:52:20.606Z</time>
      </trkpt>
      <trkpt lat="47.86312" lon="-2.52581">
        <ele>133</ele>
        <time>2023-07-22T09:52:21.606Z</time>
      </trkpt>
      <trkpt lat="47.86312" lon="-2.5258">
        <ele>132</ele>
        <time>2023-07-22T09:52:22.605Z</time>
      </trkpt>
      <trkpt lat="47.86312" lon="-2.52579">
        <ele>132</ele>
        <time>2023-07-22T09:52:23.605Z</time>
      </trkpt>
      <trkpt lat="47.86312" lon="-2.52579">
        <ele>132</ele>
        <time>2023-07-22T09:52:24.606Z</time>
      </trkpt>
      <trkpt lat="47.86313" lon="-2.52578">
        <ele>132</ele>
        <time>2023-07-22T09:52:25.605Z</time>
      </trkpt>
      <trkpt lat="47.86314" lon="-2.52578">
        <ele>131</ele>
        <time>2023-07-22T09:52:26.606Z</time>
      </trkpt>
      <trkpt lat="47.86314" lon="-2.52578">
        <ele>131</ele>
        <time>2023-07-22T09:52:27.605Z</time>
      </trkpt>
      <trkpt lat="47.86315" lon="-2.52577">
        <ele>131</ele>
        <time>2023-07-22T09:52:28.605Z</time>
      </trkpt>
      <trkpt lat="47.86316" lon="-2.52576">
        <ele>131</ele>
        <time>2023-07-22T09:52:29.605Z</time>
      </trkpt>
      <trkpt lat="47.86316" lon="-2.52575">
        <ele>131</ele>
        <time>2023-07-22T09:52:30.605Z</time>
      </trkpt>
      <trkpt lat="47.86317" lon="-2.52575">
        <ele>131</ele>
        <time>2023-07-22T09:52:31.606Z</time>
      </trkpt>
      <trkpt lat="47.86317" lon="-2.52573">
        <ele>131</ele>
        <time>2023-07-22T09:52:32.605Z</time>
      </trkpt>
      <trkpt lat="47.86317" lon="-2.52573">
        <ele>131</ele>
        <time>2023-07-22T09:52:33.605Z</time>
      </trkpt>
      <trkpt lat="47.86317" lon="-2.5257">
        <ele>130</ele>
        <time>2023-07-22T09:52:34.606Z</time>
      </trkpt>
      <trkpt lat="47.86318" lon="-2.52569">
        <ele>129</ele>
        <time>2023-07-22T09:52:35.606Z</time>
      </trkpt>
      <trkpt lat="47.86319" lon="-2.52568">
        <ele>129</ele>
        <time>2023-07-22T09:52:36.605Z</time>
      </trkpt>
      <trkpt lat="47.86319" lon="-2.52568">
        <ele>129</ele>
        <time>2023-07-22T09:52:37.606Z</time>
      </trkpt>
      <trkpt lat="47.8632" lon="-2.52566">
        <ele>129</ele>
        <time>2023-07-22T09:52:38.605Z</time>
      </trkpt>
      <trkpt lat="47.86321" lon="-2.52566">
        <ele>129</ele>
        <time>2023-07-22T09:52:39.605Z</time>
      </trkpt>
      <trkpt lat="47.86322" lon="-2.52566">
        <ele>129</ele>
        <time>2023-07-22T09:52:40.606Z</time>
      </trkpt>
      <trkpt lat="47.86323" lon="-2.52565">
        <ele>130</ele>
        <time>2023-07-22T09:52:41.605Z</time>
      </trkpt>
      <trkpt lat="47.86325" lon="-2.52564">
        <ele>130</ele>
        <time>2023-07-22T09:52:42.606Z</time>
      </trkpt>
      <trkpt lat="47.86326" lon="-2.52564">
        <ele>130</ele>
        <time>2023-07-22T09:52:43.605Z</time>
      </trkpt>
      <trkpt lat="47.86327" lon="-2.52563">
        <ele>131</ele>
        <time>2023-07-22T09:52:44.605Z</time>
      </trkpt>
      <trkpt lat="47.86327" lon="-2.52562">
        <ele>131</ele>
        <time>2023-07-22T09:52:45.605Z</time>
      </trkpt>
      <trkpt lat="47.86329" lon="-2.52561">
        <ele>132</ele>
        <time>2023-07-22T09:52:46.605Z</time>
      </trkpt>
      <trkpt lat="47.86329" lon="-2.5256">
        <ele>132</ele>
        <time>2023-07-22T09:52:47.605Z</time>
      </trkpt>
      <trkpt lat="47.86329" lon="-2.52559">
        <ele>133</ele>
        <time>2023-07-22T09:52:48.606Z</time>
      </trkpt>
      <trkpt lat="47.86329" lon="-2.52559">
        <ele>133</ele>
        <time>2023-07-22T09:52:49.606Z</time>
      </trkpt>
      <trkpt lat="47.8633" lon="-2.52557">
        <ele>133</ele>
        <time>2023-07-22T09:52:50.605Z</time>
      </trkpt>
      <trkpt lat="47.86331" lon="-2.52557">
        <ele>133</ele>
        <time>2023-07-22T09:52:51.606Z</time>
      </trkpt>
      <trkpt lat="47.86331" lon="-2.52556">
        <ele>133</ele>
        <time>2023-07-22T09:52:52.605Z</time>
      </trkpt>
      <trkpt lat="47.86332" lon="-2.52555">
        <ele>134</ele>
        <time>2023-07-22T09:52:53.605Z</time>
      </trkpt>
      <trkpt lat="47.86333" lon="-2.52555">
        <ele>134</ele>
        <time>2023-07-22T09:52:54.606Z</time>
      </trkpt>
      <trkpt lat="47.86334" lon="-2.52555">
        <ele>134</ele>
        <time>2023-07-22T09:52:55.605Z</time>
      </trkpt>
      <trkpt lat="47.86335" lon="-2.52556">
        <ele>134</ele>
        <time>2023-07-22T09:52:56.606Z</time>
      </trkpt>
      <trkpt lat="47.86336" lon="-2.52557">
        <ele>134</ele>
        <time>2023-07-22T09:52:57.605Z</time>
      </trkpt>
      <trkpt lat="47.86336" lon="-2.52557">
        <ele>134</ele>
        <time>2023-07-22T09:52:58.605Z</time>
      </trkpt>
      <trkpt lat="47.86337" lon="-2.52557">
        <ele>134</ele>
        <time>2023-07-22T09:52:59.605Z</time>
      </trkpt>
      <trkpt lat="47.86339" lon="-2.52558">
        <ele>134</ele>
        <time>2023-07-22T09:53:00.606Z</time>
      </trkpt>
      <trkpt lat="47.86339" lon="-2.52558">
        <ele>134</ele>
        <time>2023-07-22T09:53:01.605Z</time>
      </trkpt>
      <trkpt lat="47.86339" lon="-2.52558">
        <ele>134</ele>
        <time>2023-07-22T09:53:02.606Z</time>
      </trkpt>
      <trkpt lat="47.86341" lon="-2.52557">
        <ele>133</ele>
        <time>2023-07-22T09:53:03.606Z</time>
      </trkpt>
      <trkpt lat="47.86342" lon="-2.52556">
        <ele>133</ele>
        <time>2023-07-22T09:53:04.605Z</time>
      </trkpt>
      <trkpt lat="47.86343" lon="-2.52556">
        <ele>133</ele>
        <time>2023-07-22T09:53:05.605Z</time>
      </trkpt>
      <trkpt lat="47.86344" lon="-2.52556">
        <ele>133</ele>
        <time>2023-07-22T09:53:06.605Z</time>
      </trkpt>
      <trkpt lat="47.86345" lon="-2.52556">
        <ele>133</ele>
        <time>2023-07-22T09:53:07.606Z</time>
      </trkpt>
      <trkpt lat="47.86346" lon="-2.52555">
        <ele>133</ele>
        <time>2023-07-22T09:53:08.605Z</time>
      </trkpt>
      <trkpt lat="47.86347" lon="-2.52556">
        <ele>132</ele>
        <time>2023-07-22T09:53:09.605Z</time>
      </trkpt>
      <trkpt lat="47.86348" lon="-2.52557">
        <ele>132</ele>
        <time>2023-07-22T09:53:10.605Z</time>
      </trkpt>
      <trkpt lat="47.86348" lon="-2.52557">
        <ele>132</ele>
        <time>2023-07-22T09:53:11.606Z</time>
      </trkpt>
      <trkpt lat="47.8635" lon="-2.52558">
        <ele>132</ele>
        <time>2023-07-22T09:53:12.605Z</time>
      </trkpt>
      <trkpt lat="47.86352" lon="-2.52558">
        <ele>132</ele>
        <time>2023-07-22T09:53:13.606Z</time>
      </trkpt>
      <trkpt lat="47.86353" lon="-2.52558">
        <ele>132</ele>
        <time>2023-07-22T09:53:14.605Z</time>
      </trkpt>
      <trkpt lat="47.86353" lon="-2.52557">
        <ele>131</ele>
        <time>2023-07-22T09:53:15.605Z</time>
      </trkpt>
      <trkpt lat="47.86354" lon="-2.52556">
        <ele>131</ele>
        <time>2023-07-22T09:53:16.605Z</time>
      </trkpt>
      <trkpt lat="47.86354" lon="-2.52556">
        <ele>131</ele>
        <time>2023-07-22T09:53:17.605Z</time>
      </trkpt>
      <trkpt lat="47.86355" lon="-2.52555">
        <ele>131</ele>
        <time>2023-07-22T09:53:18.605Z</time>
      </trkpt>
      <trkpt lat="47.86356" lon="-2.52554">
        <ele>131</ele>
        <time>2023-07-22T09:53:19.605Z</time>
      </trkpt>
      <trkpt lat="47.86356" lon="-2.52554">
        <ele>130</ele>
        <time>2023-07-22T09:53:20.605Z</time>
      </trkpt>
      <trkpt lat="47.86358" lon="-2.52553">
        <ele>130</ele>
        <time>2023-07-22T09:53:21.605Z</time>
      </trkpt>
      <trkpt lat="47.86359" lon="-2.52553">
        <ele>130</ele>
        <time>2023-07-22T09:53:22.606Z</time>
      </trkpt>
      <trkpt lat="47.86359" lon="-2.52553">
        <ele>130</ele>
        <time>2023-07-22T09:53:23.606Z</time>
      </trkpt>
      <trkpt lat="47.86359" lon="-2.52552">
        <ele>130</ele>
        <time>2023-07-22T09:53:24.605Z</time>
      </trkpt>
      <trkpt lat="47.86361" lon="-2.52551">
        <ele>130</ele>
        <time>2023-07-22T09:53:25.606Z</time>
      </trkpt>
      <trkpt lat="47.86361" lon="-2.5255">
        <ele>130</ele>
        <time>2023-07-22T09:53:26.606Z</time>
      </trkpt>
      <trkpt lat="47.86361" lon="-2.5255">
        <ele>130</ele>
        <time>2023-07-22T09:53:27.605Z</time>
      </trkpt>
      <trkpt lat="47.86363" lon="-2.52548">
        <ele>130</ele>
        <time>2023-07-22T09:53:28.605Z</time>
      </trkpt>
      <trkpt lat="47.86363" lon="-2.52547">
        <ele>130</ele>
        <time>2023-07-22T09:53:29.605Z</time>
      </trkpt>
      <trkpt lat="47.86363" lon="-2.52546">
        <ele>130</ele>
        <time>2023-07-22T09:53:30.606Z</time>
      </trkpt>
      <trkpt lat="47.86364" lon="-2.52544">
        <ele>130</ele>
        <time>2023-07-22T09:53:31.605Z</time>
      </trkpt>
      <trkpt lat="47.86364" lon="-2.52542">
        <ele>130</ele>
        <time>2023-07-22T09:53:32.606Z</time>
      </trkpt>
      <trkpt lat="47.86366" lon="-2.52541">
        <ele>130</ele>
        <time>2023-07-22T09:53:33.605Z</time>
      </trkpt>
      <trkpt lat="47.86366" lon="-2.52541">
        <ele>130</ele>
        <time>2023-07-22T09:53:34.606Z</time>
      </trkpt>
      <trkpt lat="47.86368" lon="-2.52538">
        <ele>129</ele>
        <time>2023-07-22T09:53:35.605Z</time>
      </trkpt>
      <trkpt lat="47.8637" lon="-2.52537">
        <ele>129</ele>
        <time>2023-07-22T09:53:36.605Z</time>
      </trkpt>
      <trkpt lat="47.86371" lon="-2.52536">
        <ele>129</ele>
        <time>2023-07-22T09:53:37.606Z</time>
      </trkpt>
      <trkpt lat="47.86372" lon="-2.52535">
        <ele>128</ele>
        <time>2023-07-22T09:53:38.605Z</time>
      </trkpt>
      <trkpt lat="47.86373" lon="-2.52534">
        <ele>128</ele>
        <time>2023-07-22T09:53:39.605Z</time>
      </trkpt>
      <trkpt lat="47.86374" lon="-2.52533">
        <ele>128</ele>
        <time>2023-07-22T09:53:40.605Z</time>
      </trkpt>
      <trkpt lat="47.86375" lon="-2.52532">
        <ele>128</ele>
        <time>2023-07-22T09:53:41.605Z</time>
      </trkpt>
      <trkpt lat="47.86375" lon="-2.52531">
        <ele>128</ele>
        <time>2023-07-22T09:53:42.605Z</time>
      </trkpt>
      <trkpt lat="47.86375" lon="-2.52531">
        <ele>128</ele>
        <time>2023-07-22T09:53:43.605Z</time>
      </trkpt>
      <trkpt lat="47.86376" lon="-2.5253">
        <ele>128</ele>
        <time>2023-07-22T09:53:44.606Z</time>
      </trkpt>
      <trkpt lat="47.86376" lon="-2.52529">
        <ele>129</ele>
        <time>2023-07-22T09:53:45.606Z</time>
      </trkpt>
      <trkpt lat="47.86376" lon="-2.52529">
        <ele>129</ele>
        <time>2023-07-22T09:53:46.605Z</time>
      </trkpt>
      <trkpt lat="47.86376" lon="-2.52529">
        <ele>129</ele>
        <time>2023-07-22T09:53:47.606Z</time>
      </trkpt>
      <trkpt lat="47.86377" lon="-2.5253">
        <ele>129</ele>
        <time>2023-07-22T09:53:48.605Z</time>
      </trkpt>
      <trkpt lat="47.86379" lon="-2.52531">
        <ele>129</ele>
        <time>2023-07-22T09:53:49.606Z</time>
      </trkpt>
      <trkpt lat="47.8638" lon="-2.52531">
        <ele>129</ele>
        <time>2023-07-22T09:53:50.605Z</time>
      </trkpt>
      <trkpt lat="47.86381" lon="-2.5253">
        <ele>129</ele>
        <time>2023-07-22T09:53:51.606Z</time>
      </trkpt>
      <trkpt lat="47.86382" lon="-2.52529">
        <ele>129</ele>
        <time>2023-07-22T09:53:52.605Z</time>
      </trkpt>
      <trkpt lat="47.86383" lon="-2.52529">
        <ele>129</ele>
        <time>2023-07-22T09:53:53.605Z</time>
      </trkpt>
      <trkpt lat="47.86384" lon="-2.52528">
        <ele>130</ele>
        <time>2023-07-22T09:53:54.605Z</time>
      </trkpt>
      <trkpt lat="47.86384" lon="-2.52528">
        <ele>130</ele>
        <time>2023-07-22T09:53:55.605Z</time>
      </trkpt>
      <trkpt lat="47.86384" lon="-2.52528">
        <ele>130</ele>
        <time>2023-07-22T09:53:56.605Z</time>
      </trkpt>
      <trkpt lat="47.86385" lon="-2.52527">
        <ele>129</ele>
        <time>2023-07-22T09:53:57.606Z</time>
      </trkpt>
      <trkpt lat="47.86385" lon="-2.52526">
        <ele>129</ele>
        <time>2023-07-22T09:53:58.605Z</time>
      </trkpt>
      <trkpt lat="47.86385" lon="-2.52525">
        <ele>129</ele>
        <time>2023-07-22T09:53:59.606Z</time>
      </trkpt>
      <trkpt lat="47.86385" lon="-2.52524">
        <ele>129</ele>
        <time>2023-07-22T09:54:00.605Z</time>
      </trkpt>
      <trkpt lat="47.86386" lon="-2.52523">
        <ele>128</ele>
        <time>2023-07-22T09:54:01.605Z</time>
      </trkpt>
      <trkpt lat="47.86385" lon="-2.52521">
        <ele>128</ele>
        <time>2023-07-22T09:54:02.606Z</time>
      </trkpt>
      <trkpt lat="47.86385" lon="-2.52521">
        <ele>128</ele>
        <time>2023-07-22T09:54:03.605Z</time>
      </trkpt>
      <trkpt lat="47.86385" lon="-2.5252">
        <ele>127</ele>
        <time>2023-07-22T09:54:04.605Z</time>
      </trkpt>
      <trkpt lat="47.86386" lon="-2.52519">
        <ele>127</ele>
        <time>2023-07-22T09:54:05.605Z</time>
      </trkpt>
      <trkpt lat="47.86387" lon="-2.52519">
        <ele>127</ele>
        <time>2023-07-22T09:54:06.606Z</time>
      </trkpt>
      <trkpt lat="47.86388" lon="-2.52518">
        <ele>127</ele>
        <time>2023-07-22T09:54:07.605Z</time>
      </trkpt>
      <trkpt lat="47.86388" lon="-2.52518">
        <ele>127</ele>
        <time>2023-07-22T09:54:08.606Z</time>
      </trkpt>
      <trkpt lat="47.8639" lon="-2.52515">
        <ele>127</ele>
        <time>2023-07-22T09:54:09.605Z</time>
      </trkpt>
      <trkpt lat="47.86391" lon="-2.52515">
        <ele>128</ele>
        <time>2023-07-22T09:54:10.605Z</time>
      </trkpt>
      <trkpt lat="47.86392" lon="-2.52514">
        <ele>128</ele>
        <time>2023-07-22T09:54:11.605Z</time>
      </trkpt>
      <trkpt lat="47.86392" lon="-2.52514">
        <ele>128</ele>
        <time>2023-07-22T09:54:12.605Z</time>
      </trkpt>
      <trkpt lat="47.86395" lon="-2.52514">
        <ele>129</ele>
        <time>2023-07-22T09:54:13.605Z</time>
      </trkpt>
      <trkpt lat="47.86396" lon="-2.52514">
        <ele>130</ele>
        <time>2023-07-22T09:54:14.605Z</time>
      </trkpt>
      <trkpt lat="47.86397" lon="-2.52514">
        <ele>130</ele>
        <time>2023-07-22T09:54:15.606Z</time>
      </trkpt>
      <trkpt lat="47.86398" lon="-2.52514">
        <ele>130</ele>
        <time>2023-07-22T09:54:16.605Z</time>
      </trkpt>
      <trkpt lat="47.86399" lon="-2.52513">
        <ele>131</ele>
        <time>2023-07-22T09:54:17.605Z</time>
      </trkpt>
      <trkpt lat="47.86401" lon="-2.52513">
        <ele>131</ele>
        <time>2023-07-22T09:54:18.605Z</time>
      </trkpt>
      <trkpt lat="47.86402" lon="-2.52513">
        <ele>132</ele>
        <time>2023-07-22T09:54:19.605Z</time>
      </trkpt>
      <trkpt lat="47.86403" lon="-2.52513">
        <ele>132</ele>
        <time>2023-07-22T09:54:20.605Z</time>
      </trkpt>
      <trkpt lat="47.86405" lon="-2.52513">
        <ele>132</ele>
        <time>2023-07-22T09:54:21.605Z</time>
      </trkpt>
      <trkpt lat="47.86405" lon="-2.52514">
        <ele>133</ele>
        <time>2023-07-22T09:54:22.606Z</time>
      </trkpt>
      <trkpt lat="47.86407" lon="-2.52514">
        <ele>133</ele>
        <time>2023-07-22T09:54:23.606Z</time>
      </trkpt>
      <trkpt lat="47.86407" lon="-2.52513">
        <ele>134</ele>
        <time>2023-07-22T09:54:24.606Z</time>
      </trkpt>
      <trkpt lat="47.86408" lon="-2.52513">
        <ele>134</ele>
        <time>2023-07-22T09:54:25.605Z</time>
      </trkpt>
      <trkpt lat="47.86409" lon="-2.52512">
        <ele>134</ele>
        <time>2023-07-22T09:54:26.605Z</time>
      </trkpt>
      <trkpt lat="47.8641" lon="-2.52511">
        <ele>135</ele>
        <time>2023-07-22T09:54:27.605Z</time>
      </trkpt>
      <trkpt lat="47.86412" lon="-2.5251">
        <ele>136</ele>
        <time>2023-07-22T09:54:28.605Z</time>
      </trkpt>
      <trkpt lat="47.86414" lon="-2.52508">
        <ele>136</ele>
        <time>2023-07-22T09:54:29.605Z</time>
      </trkpt>
      <trkpt lat="47.86415" lon="-2.52507">
        <ele>137</ele>
        <time>2023-07-22T09:54:30.606Z</time>
      </trkpt>
      <trkpt lat="47.86416" lon="-2.52506">
        <ele>138</ele>
        <time>2023-07-22T09:54:31.605Z</time>
      </trkpt>
      <trkpt lat="47.86416" lon="-2.52504">
        <ele>137</ele>
        <time>2023-07-22T09:54:32.606Z</time>
      </trkpt>
      <trkpt lat="47.86416" lon="-2.52504">
        <ele>137</ele>
        <time>2023-07-22T09:54:33.605Z</time>
      </trkpt>
      <trkpt lat="47.86416" lon="-2.52501">
        <ele>137</ele>
        <time>2023-07-22T09:54:34.605Z</time>
      </trkpt>
      <trkpt lat="47.86417" lon="-2.525">
        <ele>137</ele>
        <time>2023-07-22T09:54:35.605Z</time>
      </trkpt>
      <trkpt lat="47.86417" lon="-2.52499">
        <ele>137</ele>
        <time>2023-07-22T09:54:36.605Z</time>
      </trkpt>
      <trkpt lat="47.86417" lon="-2.52499">
        <ele>137</ele>
        <time>2023-07-22T09:54:37.606Z</time>
      </trkpt>
      <trkpt lat="47.86417" lon="-2.52498">
        <ele>135</ele>
        <time>2023-07-22T09:54:38.606Z</time>
      </trkpt>
      <trkpt lat="47.86417" lon="-2.52498">
        <ele>135</ele>
        <time>2023-07-22T09:54:39.606Z</time>
      </trkpt>
      <trkpt lat="47.86417" lon="-2.52498">
        <ele>134</ele>
        <time>2023-07-22T09:54:40.606Z</time>
      </trkpt>
      <trkpt lat="47.86421" lon="-2.52495">
        <ele>135</ele>
        <time>2023-07-22T09:55:10.071Z</time>
      </trkpt>
      <trkpt lat="47.86421" lon="-2.52495">
        <ele>135</ele>
        <time>2023-07-22T09:55:11.071Z</time>
      </trkpt>
      <trkpt lat="47.86421" lon="-2.52495">
        <ele>135</ele>
        <time>2023-07-22T09:55:12.070Z</time>
      </trkpt>
      <trkpt lat="47.86422" lon="-2.52494">
        <ele>135</ele>
        <time>2023-07-22T09:55:13.070Z</time>
      </trkpt>
      <trkpt lat="47.86422" lon="-2.52494">
        <ele>135</ele>
        <time>2023-07-22T09:55:14.070Z</time>
      </trkpt>
      <trkpt lat="47.86423" lon="-2.52493">
        <ele>135</ele>
        <time>2023-07-22T09:55:15.070Z</time>
      </trkpt>
      <trkpt lat="47.86423" lon="-2.52493">
        <ele>135</ele>
        <time>2023-07-22T09:55:16.070Z</time>
      </trkpt>
      <trkpt lat="47.86424" lon="-2.52492">
        <ele>135</ele>
        <time>2023-07-22T09:55:17.070Z</time>
      </trkpt>
      <trkpt lat="47.86425" lon="-2.52491">
        <ele>135</ele>
        <time>2023-07-22T09:55:18.070Z</time>
      </trkpt>
      <trkpt lat="47.86426" lon="-2.52491">
        <ele>135</ele>
        <time>2023-07-22T09:55:19.071Z</time>
      </trkpt>
      <trkpt lat="47.86426" lon="-2.52491">
        <ele>135</ele>
        <time>2023-07-22T09:55:20.071Z</time>
      </trkpt>
      <trkpt lat="47.86426" lon="-2.52491">
        <ele>135</ele>
        <time>2023-07-22T09:55:21.070Z</time>
      </trkpt>
      <trkpt lat="47.86427" lon="-2.52491">
        <ele>135</ele>
        <time>2023-07-22T09:55:22.070Z</time>
      </trkpt>
      <trkpt lat="47.86427" lon="-2.52487">
        <ele>125</ele>
        <time>2023-07-22T09:55:53.186Z</time>
      </trkpt>
      <trkpt lat="47.86426" lon="-2.52484">
        <ele>127</ele>
        <time>2023-07-22T09:56:13.303Z</time>
      </trkpt>
      <trkpt lat="47.86424" lon="-2.52474">
        <ele>130</ele>
        <time>2023-07-22T09:56:40.572Z</time>
      </trkpt>
      <trkpt lat="47.86425" lon="-2.52473">
        <ele>130</ele>
        <time>2023-07-22T09:56:41.572Z</time>
      </trkpt>
      <trkpt lat="47.86425" lon="-2.52472">
        <ele>130</ele>
        <time>2023-07-22T09:56:42.572Z</time>
      </trkpt>
      <trkpt lat="47.86425" lon="-2.52472">
        <ele>130</ele>
        <time>2023-07-22T09:56:43.573Z</time>
      </trkpt>
      <trkpt lat="47.86426" lon="-2.52471">
        <ele>129</ele>
        <time>2023-07-22T09:56:44.573Z</time>
      </trkpt>
      <trkpt lat="47.86426" lon="-2.5247">
        <ele>129</ele>
        <time>2023-07-22T09:56:45.572Z</time>
      </trkpt>
      <trkpt lat="47.86426" lon="-2.52469">
        <ele>128</ele>
        <time>2023-07-22T09:56:46.572Z</time>
      </trkpt>
      <trkpt lat="47.86427" lon="-2.52469">
        <ele>128</ele>
        <time>2023-07-22T09:56:47.573Z</time>
      </trkpt>
      <trkpt lat="47.86427" lon="-2.52468">
        <ele>127</ele>
        <time>2023-07-22T09:56:48.573Z</time>
      </trkpt>
      <trkpt lat="47.86427" lon="-2.52467">
        <ele>127</ele>
        <time>2023-07-22T09:56:49.572Z</time>
      </trkpt>
      <trkpt lat="47.86426" lon="-2.52466">
        <ele>126</ele>
        <time>2023-07-22T09:56:50.572Z</time>
      </trkpt>
      <trkpt lat="47.86426" lon="-2.52465">
        <ele>126</ele>
        <time>2023-07-22T09:56:51.573Z</time>
      </trkpt>
      <trkpt lat="47.86426" lon="-2.52464">
        <ele>126</ele>
        <time>2023-07-22T09:56:52.573Z</time>
      </trkpt>
      <trkpt lat="47.86426" lon="-2.52463">
        <ele>126</ele>
        <time>2023-07-22T09:56:53.572Z</time>
      </trkpt>
      <trkpt lat="47.86426" lon="-2.52463">
        <ele>126</ele>
        <time>2023-07-22T09:56:54.573Z</time>
      </trkpt>
      <trkpt lat="47.86426" lon="-2.52462">
        <ele>125</ele>
        <time>2023-07-22T09:56:55.573Z</time>
      </trkpt>
      <trkpt lat="47.86426" lon="-2.52461">
        <ele>125</ele>
        <time>2023-07-22T09:56:56.572Z</time>
      </trkpt>
      <trkpt lat="47.86426" lon="-2.5246">
        <ele>124</ele>
        <time>2023-07-22T09:56:57.572Z</time>
      </trkpt>
      <trkpt lat="47.86426" lon="-2.52458">
        <ele>124</ele>
        <time>2023-07-22T09:56:58.572Z</time>
      </trkpt>
      <trkpt lat="47.86427" lon="-2.52457">
        <ele>124</ele>
        <time>2023-07-22T09:56:59.573Z</time>
      </trkpt>
      <trkpt lat="47.86427" lon="-2.52456">
        <ele>124</ele>
        <time>2023-07-22T09:57:00.572Z</time>
      </trkpt>
      <trkpt lat="47.86427" lon="-2.52455">
        <ele>124</ele>
        <time>2023-07-22T09:57:01.572Z</time>
      </trkpt>
      <trkpt lat="47.86427" lon="-2.52454">
        <ele>124</ele>
        <time>2023-07-22T09:57:02.572Z</time>
      </trkpt>
      <trkpt lat="47.86428" lon="-2.52452">
        <ele>124</ele>
        <time>2023-07-22T09:57:03.573Z</time>
      </trkpt>
      <trkpt lat="47.86428" lon="-2.52451">
        <ele>123</ele>
        <time>2023-07-22T09:57:04.572Z</time>
      </trkpt>
      <trkpt lat="47.86428" lon="-2.5245">
        <ele>123</ele>
        <time>2023-07-22T09:57:05.572Z</time>
      </trkpt>
      <trkpt lat="47.86428" lon="-2.52449">
        <ele>122</ele>
        <time>2023-07-22T09:57:06.572Z</time>
      </trkpt>
      <trkpt lat="47.86428" lon="-2.52448">
        <ele>122</ele>
        <time>2023-07-22T09:57:07.572Z</time>
      </trkpt>
      <trkpt lat="47.86428" lon="-2.52446">
        <ele>123</ele>
        <time>2023-07-22T09:57:08.572Z</time>
      </trkpt>
      <trkpt lat="47.86428" lon="-2.52444">
        <ele>123</ele>
        <time>2023-07-22T09:57:09.573Z</time>
      </trkpt>
      <trkpt lat="47.86429" lon="-2.52443">
        <ele>123</ele>
        <time>2023-07-22T09:57:10.572Z</time>
      </trkpt>
      <trkpt lat="47.86429" lon="-2.52442">
        <ele>123</ele>
        <time>2023-07-22T09:57:11.573Z</time>
      </trkpt>
      <trkpt lat="47.8643" lon="-2.5244">
        <ele>123</ele>
        <time>2023-07-22T09:57:12.572Z</time>
      </trkpt>
      <trkpt lat="47.8643" lon="-2.52439">
        <ele>124</ele>
        <time>2023-07-22T09:57:13.572Z</time>
      </trkpt>
      <trkpt lat="47.86431" lon="-2.52438">
        <ele>124</ele>
        <time>2023-07-22T09:57:14.572Z</time>
      </trkpt>
      <trkpt lat="47.86431" lon="-2.52437">
        <ele>124</ele>
        <time>2023-07-22T09:57:15.572Z</time>
      </trkpt>
      <trkpt lat="47.86432" lon="-2.52435">
        <ele>124</ele>
        <time>2023-07-22T09:57:16.572Z</time>
      </trkpt>
      <trkpt lat="47.86433" lon="-2.52434">
        <ele>124</ele>
        <time>2023-07-22T09:57:17.573Z</time>
      </trkpt>
      <trkpt lat="47.86433" lon="-2.52432">
        <ele>125</ele>
        <time>2023-07-22T09:57:18.572Z</time>
      </trkpt>
      <trkpt lat="47.86434" lon="-2.5243">
        <ele>125</ele>
        <time>2023-07-22T09:57:19.572Z</time>
      </trkpt>
      <trkpt lat="47.86434" lon="-2.52428">
        <ele>125</ele>
        <time>2023-07-22T09:57:20.572Z</time>
      </trkpt>
      <trkpt lat="47.86434" lon="-2.52427">
        <ele>125</ele>
        <time>2023-07-22T09:57:21.572Z</time>
      </trkpt>
      <trkpt lat="47.86434" lon="-2.52426">
        <ele>125</ele>
        <time>2023-07-22T09:57:22.573Z</time>
      </trkpt>
      <trkpt lat="47.86434" lon="-2.52424">
        <ele>125</ele>
        <time>2023-07-22T09:57:23.572Z</time>
      </trkpt>
      <trkpt lat="47.86434" lon="-2.52423">
        <ele>125</ele>
        <time>2023-07-22T09:57:24.573Z</time>
      </trkpt>
      <trkpt lat="47.86434" lon="-2.52422">
        <ele>125</ele>
        <time>2023-07-22T09:57:25.573Z</time>
      </trkpt>
      <trkpt lat="47.86434" lon="-2.5242">
        <ele>125</ele>
        <time>2023-07-22T09:57:26.572Z</time>
      </trkpt>
      <trkpt lat="47.86434" lon="-2.52418">
        <ele>125</ele>
        <time>2023-07-22T09:57:27.572Z</time>
      </trkpt>
      <trkpt lat="47.86434" lon="-2.52417">
        <ele>125</ele>
        <time>2023-07-22T09:57:28.573Z</time>
      </trkpt>
      <trkpt lat="47.86434" lon="-2.52416">
        <ele>125</ele>
        <time>2023-07-22T09:57:29.573Z</time>
      </trkpt>
      <trkpt lat="47.86435" lon="-2.52414">
        <ele>125</ele>
        <time>2023-07-22T09:57:30.572Z</time>
      </trkpt>
      <trkpt lat="47.86435" lon="-2.52413">
        <ele>125</ele>
        <time>2023-07-22T09:57:31.572Z</time>
      </trkpt>
      <trkpt lat="47.86435" lon="-2.52411">
        <ele>125</ele>
        <time>2023-07-22T09:57:32.573Z</time>
      </trkpt>
      <trkpt lat="47.86435" lon="-2.5241">
        <ele>126</ele>
        <time>2023-07-22T09:57:33.573Z</time>
      </trkpt>
      <trkpt lat="47.86436" lon="-2.52409">
        <ele>126</ele>
        <time>2023-07-22T09:57:34.573Z</time>
      </trkpt>
      <trkpt lat="47.86436" lon="-2.52407">
        <ele>125</ele>
        <time>2023-07-22T09:57:35.573Z</time>
      </trkpt>
      <trkpt lat="47.86436" lon="-2.52406">
        <ele>125</ele>
        <time>2023-07-22T09:57:36.572Z</time>
      </trkpt>
      <trkpt lat="47.86436" lon="-2.52405">
        <ele>125</ele>
        <time>2023-07-22T09:57:37.573Z</time>
      </trkpt>
      <trkpt lat="47.86436" lon="-2.52403">
        <ele>125</ele>
        <time>2023-07-22T09:57:38.572Z</time>
      </trkpt>
      <trkpt lat="47.86436" lon="-2.52402">
        <ele>124</ele>
        <time>2023-07-22T09:57:39.573Z</time>
      </trkpt>
      <trkpt lat="47.86436" lon="-2.52401">
        <ele>124</ele>
        <time>2023-07-22T09:57:40.572Z</time>
      </trkpt>
      <trkpt lat="47.86437" lon="-2.52398">
        <ele>124</ele>
        <time>2023-07-22T09:57:41.573Z</time>
      </trkpt>
      <trkpt lat="47.86437" lon="-2.52397">
        <ele>124</ele>
        <time>2023-07-22T09:57:42.572Z</time>
      </trkpt>
      <trkpt lat="47.86436" lon="-2.52395">
        <ele>124</ele>
        <time>2023-07-22T09:57:43.572Z</time>
      </trkpt>
      <trkpt lat="47.86436" lon="-2.52393">
        <ele>124</ele>
        <time>2023-07-22T09:57:44.573Z</time>
      </trkpt>
      <trkpt lat="47.86436" lon="-2.52392">
        <ele>123</ele>
        <time>2023-07-22T09:57:45.573Z</time>
      </trkpt>
      <trkpt lat="47.86436" lon="-2.52391">
        <ele>123</ele>
        <time>2023-07-22T09:57:46.572Z</time>
      </trkpt>
      <trkpt lat="47.86436" lon="-2.5239">
        <ele>123</ele>
        <time>2023-07-22T09:57:47.572Z</time>
      </trkpt>
      <trkpt lat="47.86437" lon="-2.52388">
        <ele>123</ele>
        <time>2023-07-22T09:57:48.573Z</time>
      </trkpt>
      <trkpt lat="47.86437" lon="-2.52387">
        <ele>123</ele>
        <time>2023-07-22T09:57:49.572Z</time>
      </trkpt>
      <trkpt lat="47.86437" lon="-2.52385">
        <ele>123</ele>
        <time>2023-07-22T09:57:50.573Z</time>
      </trkpt>
      <trkpt lat="47.86437" lon="-2.52384">
        <ele>123</ele>
        <time>2023-07-22T09:57:51.572Z</time>
      </trkpt>
      <trkpt lat="47.86438" lon="-2.52383">
        <ele>124</ele>
        <time>2023-07-22T09:57:52.572Z</time>
      </trkpt>
      <trkpt lat="47.86438" lon="-2.52381">
        <ele>124</ele>
        <time>2023-07-22T09:57:53.572Z</time>
      </trkpt>
      <trkpt lat="47.86438" lon="-2.5238">
        <ele>124</ele>
        <time>2023-07-22T09:57:54.572Z</time>
      </trkpt>
      <trkpt lat="47.86439" lon="-2.52379">
        <ele>124</ele>
        <time>2023-07-22T09:57:55.573Z</time>
      </trkpt>
      <trkpt lat="47.86439" lon="-2.52378">
        <ele>124</ele>
        <time>2023-07-22T09:57:56.573Z</time>
      </trkpt>
      <trkpt lat="47.86439" lon="-2.52376">
        <ele>125</ele>
        <time>2023-07-22T09:57:57.572Z</time>
      </trkpt>
      <trkpt lat="47.86439" lon="-2.52375">
        <ele>125</ele>
        <time>2023-07-22T09:57:58.572Z</time>
      </trkpt>
      <trkpt lat="47.86439" lon="-2.52373">
        <ele>125</ele>
        <time>2023-07-22T09:57:59.572Z</time>
      </trkpt>
      <trkpt lat="47.8644" lon="-2.52372">
        <ele>125</ele>
        <time>2023-07-22T09:58:00.572Z</time>
      </trkpt>
      <trkpt lat="47.8644" lon="-2.52371">
        <ele>125</ele>
        <time>2023-07-22T09:58:01.572Z</time>
      </trkpt>
      <trkpt lat="47.8644" lon="-2.52369">
        <ele>125</ele>
        <time>2023-07-22T09:58:02.572Z</time>
      </trkpt>
      <trkpt lat="47.86441" lon="-2.52368">
        <ele>125</ele>
        <time>2023-07-22T09:58:03.572Z</time>
      </trkpt>
      <trkpt lat="47.86441" lon="-2.52366">
        <ele>125</ele>
        <time>2023-07-22T09:58:04.572Z</time>
      </trkpt>
      <trkpt lat="47.86441" lon="-2.52365">
        <ele>126</ele>
        <time>2023-07-22T09:58:05.572Z</time>
      </trkpt>
      <trkpt lat="47.86441" lon="-2.52363">
        <ele>126</ele>
        <time>2023-07-22T09:58:06.572Z</time>
      </trkpt>
      <trkpt lat="47.86441" lon="-2.52361">
        <ele>126</ele>
        <time>2023-07-22T09:58:07.572Z</time>
      </trkpt>
      <trkpt lat="47.86442" lon="-2.5236">
        <ele>126</ele>
        <time>2023-07-22T09:58:08.572Z</time>
      </trkpt>
      <trkpt lat="47.86442" lon="-2.52359">
        <ele>126</ele>
        <time>2023-07-22T09:58:09.572Z</time>
      </trkpt>
      <trkpt lat="47.86442" lon="-2.52357">
        <ele>127</ele>
        <time>2023-07-22T09:58:10.572Z</time>
      </trkpt>
      <trkpt lat="47.86443" lon="-2.52355">
        <ele>127</ele>
        <time>2023-07-22T09:58:11.573Z</time>
      </trkpt>
      <trkpt lat="47.86443" lon="-2.52353">
        <ele>127</ele>
        <time>2023-07-22T09:58:12.573Z</time>
      </trkpt>
      <trkpt lat="47.86443" lon="-2.52352">
        <ele>127</ele>
        <time>2023-07-22T09:58:13.573Z</time>
      </trkpt>
      <trkpt lat="47.86444" lon="-2.52351">
        <ele>127</ele>
        <time>2023-07-22T09:58:14.573Z</time>
      </trkpt>
      <trkpt lat="47.86444" lon="-2.52349">
        <ele>126</ele>
        <time>2023-07-22T09:58:15.573Z</time>
      </trkpt>
      <trkpt lat="47.86444" lon="-2.52347">
        <ele>126</ele>
        <time>2023-07-22T09:58:16.573Z</time>
      </trkpt>
      <trkpt lat="47.86444" lon="-2.52346">
        <ele>126</ele>
        <time>2023-07-22T09:58:17.573Z</time>
      </trkpt>
      <trkpt lat="47.86444" lon="-2.52344">
        <ele>126</ele>
        <time>2023-07-22T09:58:18.573Z</time>
      </trkpt>
      <trkpt lat="47.86444" lon="-2.52343">
        <ele>126</ele>
        <time>2023-07-22T09:58:19.572Z</time>
      </trkpt>
      <trkpt lat="47.86444" lon="-2.52341">
        <ele>126</ele>
        <time>2023-07-22T09:58:20.572Z</time>
      </trkpt>
      <trkpt lat="47.86444" lon="-2.5234">
        <ele>125</ele>
        <time>2023-07-22T09:58:21.572Z</time>
      </trkpt>
      <trkpt lat="47.86444" lon="-2.52338">
        <ele>125</ele>
        <time>2023-07-22T09:58:22.573Z</time>
      </trkpt>
      <trkpt lat="47.86444" lon="-2.52337">
        <ele>125</ele>
        <time>2023-07-22T09:58:23.573Z</time>
      </trkpt>
      <trkpt lat="47.86444" lon="-2.52335">
        <ele>125</ele>
        <time>2023-07-22T09:58:24.572Z</time>
      </trkpt>
      <trkpt lat="47.86445" lon="-2.52333">
        <ele>125</ele>
        <time>2023-07-22T09:58:25.572Z</time>
      </trkpt>
      <trkpt lat="47.86445" lon="-2.52332">
        <ele>125</ele>
        <time>2023-07-22T09:58:26.573Z</time>
      </trkpt>
      <trkpt lat="47.86445" lon="-2.5233">
        <ele>125</ele>
        <time>2023-07-22T09:58:27.572Z</time>
      </trkpt>
      <trkpt lat="47.86446" lon="-2.52328">
        <ele>125</ele>
        <time>2023-07-22T09:58:28.573Z</time>
      </trkpt>
      <trkpt lat="47.86446" lon="-2.52327">
        <ele>125</ele>
        <time>2023-07-22T09:58:29.573Z</time>
      </trkpt>
      <trkpt lat="47.86447" lon="-2.52325">
        <ele>125</ele>
        <time>2023-07-22T09:58:30.572Z</time>
      </trkpt>
      <trkpt lat="47.86447" lon="-2.52323">
        <ele>125</ele>
        <time>2023-07-22T09:58:31.572Z</time>
      </trkpt>
      <trkpt lat="47.86447" lon="-2.52322">
        <ele>125</ele>
        <time>2023-07-22T09:58:32.573Z</time>
      </trkpt>
      <trkpt lat="47.86448" lon="-2.5232">
        <ele>125</ele>
        <time>2023-07-22T09:58:33.572Z</time>
      </trkpt>
      <trkpt lat="47.86448" lon="-2.52318">
        <ele>125</ele>
        <time>2023-07-22T09:58:34.572Z</time>
      </trkpt>
      <trkpt lat="47.86448" lon="-2.52317">
        <ele>125</ele>
        <time>2023-07-22T09:58:35.572Z</time>
      </trkpt>
      <trkpt lat="47.86448" lon="-2.52315">
        <ele>125</ele>
        <time>2023-07-22T09:58:36.573Z</time>
      </trkpt>
      <trkpt lat="47.86448" lon="-2.52314">
        <ele>125</ele>
        <time>2023-07-22T09:58:37.573Z</time>
      </trkpt>
      <trkpt lat="47.86448" lon="-2.52312">
        <ele>124</ele>
        <time>2023-07-22T09:58:38.573Z</time>
      </trkpt>
      <trkpt lat="47.86448" lon="-2.5231">
        <ele>124</ele>
        <time>2023-07-22T09:58:39.572Z</time>
      </trkpt>
      <trkpt lat="47.86448" lon="-2.52308">
        <ele>124</ele>
        <time>2023-07-22T09:58:40.572Z</time>
      </trkpt>
      <trkpt lat="47.86448" lon="-2.52306">
        <ele>124</ele>
        <time>2023-07-22T09:58:41.573Z</time>
      </trkpt>
      <trkpt lat="47.86448" lon="-2.52305">
        <ele>124</ele>
        <time>2023-07-22T09:58:42.572Z</time>
      </trkpt>
      <trkpt lat="47.86449" lon="-2.52302">
        <ele>125</ele>
        <time>2023-07-22T09:58:43.573Z</time>
      </trkpt>
      <trkpt lat="47.86449" lon="-2.52301">
        <ele>125</ele>
        <time>2023-07-22T09:58:44.572Z</time>
      </trkpt>
      <trkpt lat="47.86449" lon="-2.52299">
        <ele>125</ele>
        <time>2023-07-22T09:58:45.572Z</time>
      </trkpt>
      <trkpt lat="47.86449" lon="-2.52297">
        <ele>125</ele>
        <time>2023-07-22T09:58:46.572Z</time>
      </trkpt>
      <trkpt lat="47.86449" lon="-2.52295">
        <ele>125</ele>
        <time>2023-07-22T09:58:47.572Z</time>
      </trkpt>
      <trkpt lat="47.8645" lon="-2.52293">
        <ele>125</ele>
        <time>2023-07-22T09:58:48.572Z</time>
      </trkpt>
      <trkpt lat="47.8645" lon="-2.52292">
        <ele>125</ele>
        <time>2023-07-22T09:58:49.573Z</time>
      </trkpt>
      <trkpt lat="47.8645" lon="-2.5229">
        <ele>125</ele>
        <time>2023-07-22T09:58:50.572Z</time>
      </trkpt>
      <trkpt lat="47.8645" lon="-2.52288">
        <ele>125</ele>
        <time>2023-07-22T09:58:51.572Z</time>
      </trkpt>
      <trkpt lat="47.8645" lon="-2.52287">
        <ele>125</ele>
        <time>2023-07-22T09:58:52.572Z</time>
      </trkpt>
      <trkpt lat="47.8645" lon="-2.52285">
        <ele>125</ele>
        <time>2023-07-22T09:58:53.573Z</time>
      </trkpt>
      <trkpt lat="47.8645" lon="-2.52284">
        <ele>125</ele>
        <time>2023-07-22T09:58:54.572Z</time>
      </trkpt>
      <trkpt lat="47.8645" lon="-2.52282">
        <ele>126</ele>
        <time>2023-07-22T09:58:55.573Z</time>
      </trkpt>
      <trkpt lat="47.8645" lon="-2.52281">
        <ele>126</ele>
        <time>2023-07-22T09:58:56.572Z</time>
      </trkpt>
      <trkpt lat="47.8645" lon="-2.52281">
        <ele>126</ele>
        <time>2023-07-22T09:58:57.572Z</time>
      </trkpt>
      <trkpt lat="47.8645" lon="-2.52279">
        <ele>126</ele>
        <time>2023-07-22T09:58:58.572Z</time>
      </trkpt>
      <trkpt lat="47.8645" lon="-2.52278">
        <ele>126</ele>
        <time>2023-07-22T09:58:59.572Z</time>
      </trkpt>
      <trkpt lat="47.86452" lon="-2.52278">
        <ele>127</ele>
        <time>2023-07-22T09:59:00.573Z</time>
      </trkpt>
      <trkpt lat="47.86453" lon="-2.52276">
        <ele>127</ele>
        <time>2023-07-22T09:59:01.572Z</time>
      </trkpt>
      <trkpt lat="47.86454" lon="-2.52274">
        <ele>127</ele>
        <time>2023-07-22T09:59:02.572Z</time>
      </trkpt>
      <trkpt lat="47.86454" lon="-2.52272">
        <ele>127</ele>
        <time>2023-07-22T09:59:03.572Z</time>
      </trkpt>
      <trkpt lat="47.86454" lon="-2.52271">
        <ele>127</ele>
        <time>2023-07-22T09:59:04.572Z</time>
      </trkpt>
      <trkpt lat="47.86455" lon="-2.52269">
        <ele>127</ele>
        <time>2023-07-22T09:59:05.572Z</time>
      </trkpt>
      <trkpt lat="47.86455" lon="-2.52267">
        <ele>127</ele>
        <time>2023-07-22T09:59:06.573Z</time>
      </trkpt>
      <trkpt lat="47.86455" lon="-2.52265">
        <ele>127</ele>
        <time>2023-07-22T09:59:07.573Z</time>
      </trkpt>
      <trkpt lat="47.86455" lon="-2.52263">
        <ele>127</ele>
        <time>2023-07-22T09:59:08.572Z</time>
      </trkpt>
      <trkpt lat="47.86455" lon="-2.52261">
        <ele>126</ele>
        <time>2023-07-22T09:59:09.572Z</time>
      </trkpt>
      <trkpt lat="47.86455" lon="-2.52259">
        <ele>126</ele>
        <time>2023-07-22T09:59:10.572Z</time>
      </trkpt>
      <trkpt lat="47.86455" lon="-2.52257">
        <ele>125</ele>
        <time>2023-07-22T09:59:11.572Z</time>
      </trkpt>
      <trkpt lat="47.86455" lon="-2.52255">
        <ele>125</ele>
        <time>2023-07-22T09:59:12.572Z</time>
      </trkpt>
      <trkpt lat="47.86454" lon="-2.52253">
        <ele>125</ele>
        <time>2023-07-22T09:59:13.572Z</time>
      </trkpt>
      <trkpt lat="47.86454" lon="-2.52251">
        <ele>124</ele>
        <time>2023-07-22T09:59:14.573Z</time>
      </trkpt>
      <trkpt lat="47.86454" lon="-2.52249">
        <ele>124</ele>
        <time>2023-07-22T09:59:15.572Z</time>
      </trkpt>
      <trkpt lat="47.86454" lon="-2.52247">
        <ele>124</ele>
        <time>2023-07-22T09:59:16.572Z</time>
      </trkpt>
      <trkpt lat="47.86454" lon="-2.52245">
        <ele>124</ele>
        <time>2023-07-22T09:59:17.572Z</time>
      </trkpt>
      <trkpt lat="47.86454" lon="-2.52243">
        <ele>124</ele>
        <time>2023-07-22T09:59:18.572Z</time>
      </trkpt>
      <trkpt lat="47.86453" lon="-2.52241">
        <ele>124</ele>
        <time>2023-07-22T09:59:19.572Z</time>
      </trkpt>
      <trkpt lat="47.86453" lon="-2.52239">
        <ele>124</ele>
        <time>2023-07-22T09:59:20.573Z</time>
      </trkpt>
      <trkpt lat="47.86453" lon="-2.52237">
        <ele>124</ele>
        <time>2023-07-22T09:59:21.572Z</time>
      </trkpt>
      <trkpt lat="47.86453" lon="-2.52235">
        <ele>123</ele>
        <time>2023-07-22T09:59:22.572Z</time>
      </trkpt>
      <trkpt lat="47.86454" lon="-2.52233">
        <ele>123</ele>
        <time>2023-07-22T09:59:23.572Z</time>
      </trkpt>
      <trkpt lat="47.86454" lon="-2.52232">
        <ele>123</ele>
        <time>2023-07-22T09:59:24.573Z</time>
      </trkpt>
      <trkpt lat="47.86454" lon="-2.5223">
        <ele>123</ele>
        <time>2023-07-22T09:59:25.573Z</time>
      </trkpt>
      <trkpt lat="47.86454" lon="-2.52228">
        <ele>123</ele>
        <time>2023-07-22T09:59:26.572Z</time>
      </trkpt>
      <trkpt lat="47.86455" lon="-2.52227">
        <ele>122</ele>
        <time>2023-07-22T09:59:27.572Z</time>
      </trkpt>
      <trkpt lat="47.86455" lon="-2.52224">
        <ele>122</ele>
        <time>2023-07-22T09:59:28.572Z</time>
      </trkpt>
      <trkpt lat="47.86455" lon="-2.52223">
        <ele>122</ele>
        <time>2023-07-22T09:59:29.573Z</time>
      </trkpt>
      <trkpt lat="47.86455" lon="-2.52221">
        <ele>122</ele>
        <time>2023-07-22T09:59:30.572Z</time>
      </trkpt>
      <trkpt lat="47.86454" lon="-2.5222">
        <ele>122</ele>
        <time>2023-07-22T09:59:31.572Z</time>
      </trkpt>
      <trkpt lat="47.86454" lon="-2.52219">
        <ele>122</ele>
        <time>2023-07-22T09:59:32.573Z</time>
      </trkpt>
      <trkpt lat="47.86453" lon="-2.52217">
        <ele>122</ele>
        <time>2023-07-22T09:59:33.572Z</time>
      </trkpt>
      <trkpt lat="47.86453" lon="-2.52216">
        <ele>122</ele>
        <time>2023-07-22T09:59:34.573Z</time>
      </trkpt>
      <trkpt lat="47.86454" lon="-2.52215">
        <ele>121</ele>
        <time>2023-07-22T09:59:35.572Z</time>
      </trkpt>
      <trkpt lat="47.86454" lon="-2.52213">
        <ele>121</ele>
        <time>2023-07-22T09:59:36.573Z</time>
      </trkpt>
      <trkpt lat="47.86454" lon="-2.52212">
        <ele>121</ele>
        <time>2023-07-22T09:59:37.572Z</time>
      </trkpt>
      <trkpt lat="47.86455" lon="-2.52211">
        <ele>120</ele>
        <time>2023-07-22T09:59:38.572Z</time>
      </trkpt>
      <trkpt lat="47.86455" lon="-2.52209">
        <ele>120</ele>
        <time>2023-07-22T09:59:39.572Z</time>
      </trkpt>
      <trkpt lat="47.86455" lon="-2.52207">
        <ele>120</ele>
        <time>2023-07-22T09:59:40.572Z</time>
      </trkpt>
      <trkpt lat="47.86455" lon="-2.52206">
        <ele>120</ele>
        <time>2023-07-22T09:59:41.573Z</time>
      </trkpt>
      <trkpt lat="47.86455" lon="-2.52204">
        <ele>120</ele>
        <time>2023-07-22T09:59:42.572Z</time>
      </trkpt>
      <trkpt lat="47.86455" lon="-2.52202">
        <ele>120</ele>
        <time>2023-07-22T09:59:43.573Z</time>
      </trkpt>
      <trkpt lat="47.86455" lon="-2.522">
        <ele>120</ele>
        <time>2023-07-22T09:59:44.572Z</time>
      </trkpt>
      <trkpt lat="47.86456" lon="-2.52199">
        <ele>120</ele>
        <time>2023-07-22T09:59:45.572Z</time>
      </trkpt>
      <trkpt lat="47.86456" lon="-2.52197">
        <ele>120</ele>
        <time>2023-07-22T09:59:46.572Z</time>
      </trkpt>
      <trkpt lat="47.86456" lon="-2.52196">
        <ele>119</ele>
        <time>2023-07-22T09:59:47.572Z</time>
      </trkpt>
      <trkpt lat="47.86456" lon="-2.52195">
        <ele>119</ele>
        <time>2023-07-22T09:59:48.572Z</time>
      </trkpt>
      <trkpt lat="47.86457" lon="-2.52193">
        <ele>118</ele>
        <time>2023-07-22T09:59:49.573Z</time>
      </trkpt>
      <trkpt lat="47.86457" lon="-2.52191">
        <ele>118</ele>
        <time>2023-07-22T09:59:50.572Z</time>
      </trkpt>
      <trkpt lat="47.86457" lon="-2.52189">
        <ele>117</ele>
        <time>2023-07-22T09:59:51.572Z</time>
      </trkpt>
      <trkpt lat="47.86457" lon="-2.52188">
        <ele>117</ele>
        <time>2023-07-22T09:59:52.572Z</time>
      </trkpt>
      <trkpt lat="47.86457" lon="-2.52186">
        <ele>117</ele>
        <time>2023-07-22T09:59:53.572Z</time>
      </trkpt>
      <trkpt lat="47.86457" lon="-2.52185">
        <ele>116</ele>
        <time>2023-07-22T09:59:54.573Z</time>
      </trkpt>
      <trkpt lat="47.86458" lon="-2.52183">
        <ele>116</ele>
        <time>2023-07-22T09:59:55.573Z</time>
      </trkpt>
      <trkpt lat="47.86458" lon="-2.52181">
        <ele>116</ele>
        <time>2023-07-22T09:59:56.572Z</time>
      </trkpt>
      <trkpt lat="47.86458" lon="-2.5218">
        <ele>116</ele>
        <time>2023-07-22T09:59:57.573Z</time>
      </trkpt>
      <trkpt lat="47.86458" lon="-2.52178">
        <ele>116</ele>
        <time>2023-07-22T09:59:58.572Z</time>
      </trkpt>
      <trkpt lat="47.86458" lon="-2.52176">
        <ele>116</ele>
        <time>2023-07-22T09:59:59.573Z</time>
      </trkpt>
      <trkpt lat="47.86458" lon="-2.52175">
        <ele>116</ele>
        <time>2023-07-22T10:00:00.573Z</time>
      </trkpt>
      <trkpt lat="47.86459" lon="-2.52173">
        <ele>116</ele>
        <time>2023-07-22T10:00:01.572Z</time>
      </trkpt>
      <trkpt lat="47.86459" lon="-2.52172">
        <ele>116</ele>
        <time>2023-07-22T10:00:02.572Z</time>
      </trkpt>
      <trkpt lat="47.8646" lon="-2.5217">
        <ele>117</ele>
        <time>2023-07-22T10:00:03.572Z</time>
      </trkpt>
      <trkpt lat="47.8646" lon="-2.52168">
        <ele>117</ele>
        <time>2023-07-22T10:00:04.573Z</time>
      </trkpt>
      <trkpt lat="47.8646" lon="-2.52167">
        <ele>117</ele>
        <time>2023-07-22T10:00:05.572Z</time>
      </trkpt>
      <trkpt lat="47.86461" lon="-2.52165">
        <ele>117</ele>
        <time>2023-07-22T10:00:06.572Z</time>
      </trkpt>
      <trkpt lat="47.86461" lon="-2.52163">
        <ele>118</ele>
        <time>2023-07-22T10:00:07.573Z</time>
      </trkpt>
      <trkpt lat="47.86461" lon="-2.52161">
        <ele>118</ele>
        <time>2023-07-22T10:00:08.572Z</time>
      </trkpt>
      <trkpt lat="47.86461" lon="-2.52159">
        <ele>117</ele>
        <time>2023-07-22T10:00:09.572Z</time>
      </trkpt>
      <trkpt lat="47.86461" lon="-2.52157">
        <ele>117</ele>
        <time>2023-07-22T10:00:10.572Z</time>
      </trkpt>
      <trkpt lat="47.8646" lon="-2.52156">
        <ele>117</ele>
        <time>2023-07-22T10:00:11.573Z</time>
      </trkpt>
      <trkpt lat="47.8646" lon="-2.52154">
        <ele>116</ele>
        <time>2023-07-22T10:00:12.572Z</time>
      </trkpt>
      <trkpt lat="47.8646" lon="-2.52153">
        <ele>116</ele>
        <time>2023-07-22T10:00:13.572Z</time>
      </trkpt>
      <trkpt lat="47.8646" lon="-2.52151">
        <ele>116</ele>
        <time>2023-07-22T10:00:14.572Z</time>
      </trkpt>
      <trkpt lat="47.86459" lon="-2.52149">
        <ele>116</ele>
        <time>2023-07-22T10:00:15.572Z</time>
      </trkpt>
      <trkpt lat="47.86459" lon="-2.52147">
        <ele>116</ele>
        <time>2023-07-22T10:00:16.572Z</time>
      </trkpt>
      <trkpt lat="47.86459" lon="-2.52146">
        <ele>116</ele>
        <time>2023-07-22T10:00:17.572Z</time>
      </trkpt>
      <trkpt lat="47.86459" lon="-2.52145">
        <ele>115</ele>
        <time>2023-07-22T10:00:18.572Z</time>
      </trkpt>
      <trkpt lat="47.86459" lon="-2.52143">
        <ele>115</ele>
        <time>2023-07-22T10:00:19.572Z</time>
      </trkpt>
      <trkpt lat="47.86459" lon="-2.52141">
        <ele>115</ele>
        <time>2023-07-22T10:00:20.572Z</time>
      </trkpt>
      <trkpt lat="47.86459" lon="-2.52139">
        <ele>115</ele>
        <time>2023-07-22T10:00:21.573Z</time>
      </trkpt>
      <trkpt lat="47.86459" lon="-2.52138">
        <ele>115</ele>
        <time>2023-07-22T10:00:22.572Z</time>
      </trkpt>
      <trkpt lat="47.86459" lon="-2.52136">
        <ele>115</ele>
        <time>2023-07-22T10:00:23.573Z</time>
      </trkpt>
      <trkpt lat="47.86459" lon="-2.52135">
        <ele>115</ele>
        <time>2023-07-22T10:00:24.572Z</time>
      </trkpt>
      <trkpt lat="47.8646" lon="-2.52133">
        <ele>114</ele>
        <time>2023-07-22T10:00:25.572Z</time>
      </trkpt>
      <trkpt lat="47.8646" lon="-2.52131">
        <ele>114</ele>
        <time>2023-07-22T10:00:26.572Z</time>
      </trkpt>
      <trkpt lat="47.8646" lon="-2.5213">
        <ele>114</ele>
        <time>2023-07-22T10:00:27.573Z</time>
      </trkpt>
      <trkpt lat="47.8646" lon="-2.52128">
        <ele>113</ele>
        <time>2023-07-22T10:00:28.573Z</time>
      </trkpt>
      <trkpt lat="47.8646" lon="-2.52127">
        <ele>113</ele>
        <time>2023-07-22T10:00:29.572Z</time>
      </trkpt>
      <trkpt lat="47.8646" lon="-2.52126">
        <ele>113</ele>
        <time>2023-07-22T10:00:30.573Z</time>
      </trkpt>
      <trkpt lat="47.8646" lon="-2.52125">
        <ele>113</ele>
        <time>2023-07-22T10:00:31.573Z</time>
      </trkpt>
      <trkpt lat="47.8646" lon="-2.52123">
        <ele>113</ele>
        <time>2023-07-22T10:00:32.572Z</time>
      </trkpt>
      <trkpt lat="47.8646" lon="-2.52122">
        <ele>113</ele>
        <time>2023-07-22T10:00:33.572Z</time>
      </trkpt>
      <trkpt lat="47.86461" lon="-2.5212">
        <ele>112</ele>
        <time>2023-07-22T10:00:34.572Z</time>
      </trkpt>
      <trkpt lat="47.86461" lon="-2.52118">
        <ele>112</ele>
        <time>2023-07-22T10:00:35.573Z</time>
      </trkpt>
      <trkpt lat="47.86461" lon="-2.52116">
        <ele>112</ele>
        <time>2023-07-22T10:00:36.572Z</time>
      </trkpt>
      <trkpt lat="47.86461" lon="-2.52115">
        <ele>112</ele>
        <time>2023-07-22T10:00:37.572Z</time>
      </trkpt>
      <trkpt lat="47.86462" lon="-2.52113">
        <ele>112</ele>
        <time>2023-07-22T10:00:38.573Z</time>
      </trkpt>
      <trkpt lat="47.86462" lon="-2.52111">
        <ele>112</ele>
        <time>2023-07-22T10:00:39.573Z</time>
      </trkpt>
      <trkpt lat="47.86462" lon="-2.52109">
        <ele>112</ele>
        <time>2023-07-22T10:00:40.572Z</time>
      </trkpt>
      <trkpt lat="47.86462" lon="-2.52107">
        <ele>111</ele>
        <time>2023-07-22T10:00:41.573Z</time>
      </trkpt>
      <trkpt lat="47.86462" lon="-2.52106">
        <ele>111</ele>
        <time>2023-07-22T10:00:42.572Z</time>
      </trkpt>
      <trkpt lat="47.86462" lon="-2.52104">
        <ele>111</ele>
        <time>2023-07-22T10:00:43.572Z</time>
      </trkpt>
      <trkpt lat="47.86463" lon="-2.52103">
        <ele>111</ele>
        <time>2023-07-22T10:00:44.573Z</time>
      </trkpt>
      <trkpt lat="47.86463" lon="-2.52101">
        <ele>110</ele>
        <time>2023-07-22T10:00:45.572Z</time>
      </trkpt>
      <trkpt lat="47.86463" lon="-2.52099">
        <ele>110</ele>
        <time>2023-07-22T10:00:46.573Z</time>
      </trkpt>
      <trkpt lat="47.86463" lon="-2.52098">
        <ele>110</ele>
        <time>2023-07-22T10:00:47.572Z</time>
      </trkpt>
      <trkpt lat="47.86463" lon="-2.52096">
        <ele>111</ele>
        <time>2023-07-22T10:00:48.572Z</time>
      </trkpt>
      <trkpt lat="47.86463" lon="-2.52095">
        <ele>111</ele>
        <time>2023-07-22T10:00:49.572Z</time>
      </trkpt>
      <trkpt lat="47.86463" lon="-2.52093">
        <ele>111</ele>
        <time>2023-07-22T10:00:50.572Z</time>
      </trkpt>
      <trkpt lat="47.86463" lon="-2.52091">
        <ele>110</ele>
        <time>2023-07-22T10:00:51.573Z</time>
      </trkpt>
      <trkpt lat="47.86463" lon="-2.5209">
        <ele>111</ele>
        <time>2023-07-22T10:00:52.573Z</time>
      </trkpt>
      <trkpt lat="47.86463" lon="-2.52088">
        <ele>111</ele>
        <time>2023-07-22T10:00:53.573Z</time>
      </trkpt>
      <trkpt lat="47.86464" lon="-2.52087">
        <ele>111</ele>
        <time>2023-07-22T10:00:54.573Z</time>
      </trkpt>
      <trkpt lat="47.86464" lon="-2.52085">
        <ele>111</ele>
        <time>2023-07-22T10:00:55.572Z</time>
      </trkpt>
      <trkpt lat="47.86464" lon="-2.52084">
        <ele>112</ele>
        <time>2023-07-22T10:00:56.572Z</time>
      </trkpt>
      <trkpt lat="47.86464" lon="-2.52082">
        <ele>112</ele>
        <time>2023-07-22T10:00:57.573Z</time>
      </trkpt>
      <trkpt lat="47.86464" lon="-2.52081">
        <ele>112</ele>
        <time>2023-07-22T10:00:58.572Z</time>
      </trkpt>
      <trkpt lat="47.86464" lon="-2.52079">
        <ele>111</ele>
        <time>2023-07-22T10:00:59.572Z</time>
      </trkpt>
      <trkpt lat="47.86465" lon="-2.52077">
        <ele>111</ele>
        <time>2023-07-22T10:01:00.572Z</time>
      </trkpt>
      <trkpt lat="47.86465" lon="-2.52075">
        <ele>111</ele>
        <time>2023-07-22T10:01:01.573Z</time>
      </trkpt>
      <trkpt lat="47.86465" lon="-2.52074">
        <ele>111</ele>
        <time>2023-07-22T10:01:02.573Z</time>
      </trkpt>
      <trkpt lat="47.86465" lon="-2.52072">
        <ele>110</ele>
        <time>2023-07-22T10:01:03.572Z</time>
      </trkpt>
      <trkpt lat="47.86465" lon="-2.5207">
        <ele>110</ele>
        <time>2023-07-22T10:01:04.572Z</time>
      </trkpt>
      <trkpt lat="47.86466" lon="-2.52068">
        <ele>110</ele>
        <time>2023-07-22T10:01:05.573Z</time>
      </trkpt>
      <trkpt lat="47.86466" lon="-2.52067">
        <ele>109</ele>
        <time>2023-07-22T10:01:06.573Z</time>
      </trkpt>
      <trkpt lat="47.86466" lon="-2.52065">
        <ele>109</ele>
        <time>2023-07-22T10:01:07.573Z</time>
      </trkpt>
      <trkpt lat="47.86466" lon="-2.52063">
        <ele>109</ele>
        <time>2023-07-22T10:01:08.573Z</time>
      </trkpt>
      <trkpt lat="47.86466" lon="-2.52062">
        <ele>109</ele>
        <time>2023-07-22T10:01:09.573Z</time>
      </trkpt>
      <trkpt lat="47.86466" lon="-2.5206">
        <ele>109</ele>
        <time>2023-07-22T10:01:10.572Z</time>
      </trkpt>
      <trkpt lat="47.86467" lon="-2.52058">
        <ele>109</ele>
        <time>2023-07-22T10:01:11.572Z</time>
      </trkpt>
      <trkpt lat="47.86467" lon="-2.52056">
        <ele>110</ele>
        <time>2023-07-22T10:01:12.573Z</time>
      </trkpt>
      <trkpt lat="47.86467" lon="-2.52055">
        <ele>110</ele>
        <time>2023-07-22T10:01:13.572Z</time>
      </trkpt>
      <trkpt lat="47.86467" lon="-2.52052">
        <ele>110</ele>
        <time>2023-07-22T10:01:14.572Z</time>
      </trkpt>
      <trkpt lat="47.86467" lon="-2.52051">
        <ele>110</ele>
        <time>2023-07-22T10:01:15.572Z</time>
      </trkpt>
      <trkpt lat="47.86468" lon="-2.52048">
        <ele>110</ele>
        <time>2023-07-22T10:01:16.573Z</time>
      </trkpt>
      <trkpt lat="47.86468" lon="-2.52047">
        <ele>110</ele>
        <time>2023-07-22T10:01:17.572Z</time>
      </trkpt>
      <trkpt lat="47.86468" lon="-2.52045">
        <ele>110</ele>
        <time>2023-07-22T10:01:18.572Z</time>
      </trkpt>
      <trkpt lat="47.86468" lon="-2.52043">
        <ele>110</ele>
        <time>2023-07-22T10:01:19.573Z</time>
      </trkpt>
      <trkpt lat="47.86469" lon="-2.52041">
        <ele>110</ele>
        <time>2023-07-22T10:01:20.573Z</time>
      </trkpt>
      <trkpt lat="47.86469" lon="-2.52039">
        <ele>109</ele>
        <time>2023-07-22T10:01:21.573Z</time>
      </trkpt>
      <trkpt lat="47.86469" lon="-2.52037">
        <ele>109</ele>
        <time>2023-07-22T10:01:22.572Z</time>
      </trkpt>
      <trkpt lat="47.86469" lon="-2.52034">
        <ele>108</ele>
        <time>2023-07-22T10:01:23.572Z</time>
      </trkpt>
      <trkpt lat="47.86469" lon="-2.52033">
        <ele>107</ele>
        <time>2023-07-22T10:01:24.572Z</time>
      </trkpt>
      <trkpt lat="47.86469" lon="-2.52031">
        <ele>107</ele>
        <time>2023-07-22T10:01:25.573Z</time>
      </trkpt>
      <trkpt lat="47.86469" lon="-2.52028">
        <ele>106</ele>
        <time>2023-07-22T10:01:26.572Z</time>
      </trkpt>
      <trkpt lat="47.86469" lon="-2.52027">
        <ele>106</ele>
        <time>2023-07-22T10:01:27.573Z</time>
      </trkpt>
      <trkpt lat="47.8647" lon="-2.52025">
        <ele>106</ele>
        <time>2023-07-22T10:01:28.573Z</time>
      </trkpt>
      <trkpt lat="47.8647" lon="-2.52023">
        <ele>106</ele>
        <time>2023-07-22T10:01:29.572Z</time>
      </trkpt>
      <trkpt lat="47.8647" lon="-2.5202">
        <ele>106</ele>
        <time>2023-07-22T10:01:30.573Z</time>
      </trkpt>
      <trkpt lat="47.8647" lon="-2.52018">
        <ele>106</ele>
        <time>2023-07-22T10:01:31.573Z</time>
      </trkpt>
      <trkpt lat="47.8647" lon="-2.52017">
        <ele>106</ele>
        <time>2023-07-22T10:01:32.572Z</time>
      </trkpt>
      <trkpt lat="47.86471" lon="-2.52014">
        <ele>105</ele>
        <time>2023-07-22T10:01:33.572Z</time>
      </trkpt>
      <trkpt lat="47.86471" lon="-2.52013">
        <ele>105</ele>
        <time>2023-07-22T10:01:34.573Z</time>
      </trkpt>
      <trkpt lat="47.86471" lon="-2.5201">
        <ele>104</ele>
        <time>2023-07-22T10:01:35.572Z</time>
      </trkpt>
      <trkpt lat="47.86471" lon="-2.52008">
        <ele>104</ele>
        <time>2023-07-22T10:01:36.572Z</time>
      </trkpt>
      <trkpt lat="47.86471" lon="-2.52006">
        <ele>104</ele>
        <time>2023-07-22T10:01:37.573Z</time>
      </trkpt>
      <trkpt lat="47.86472" lon="-2.52005">
        <ele>104</ele>
        <time>2023-07-22T10:01:38.572Z</time>
      </trkpt>
      <trkpt lat="47.86472" lon="-2.52003">
        <ele>104</ele>
        <time>2023-07-22T10:01:39.572Z</time>
      </trkpt>
      <trkpt lat="47.86472" lon="-2.52001">
        <ele>104</ele>
        <time>2023-07-22T10:01:40.572Z</time>
      </trkpt>
      <trkpt lat="47.86473" lon="-2.51999">
        <ele>104</ele>
        <time>2023-07-22T10:01:41.573Z</time>
      </trkpt>
      <trkpt lat="47.86473" lon="-2.51997">
        <ele>104</ele>
        <time>2023-07-22T10:01:42.572Z</time>
      </trkpt>
      <trkpt lat="47.86473" lon="-2.51995">
        <ele>104</ele>
        <time>2023-07-22T10:01:43.572Z</time>
      </trkpt>
      <trkpt lat="47.86474" lon="-2.51993">
        <ele>104</ele>
        <time>2023-07-22T10:01:44.573Z</time>
      </trkpt>
      <trkpt lat="47.86474" lon="-2.51991">
        <ele>104</ele>
        <time>2023-07-22T10:01:45.572Z</time>
      </trkpt>
      <trkpt lat="47.86474" lon="-2.51989">
        <ele>104</ele>
        <time>2023-07-22T10:01:46.572Z</time>
      </trkpt>
      <trkpt lat="47.86474" lon="-2.51987">
        <ele>104</ele>
        <time>2023-07-22T10:01:47.572Z</time>
      </trkpt>
      <trkpt lat="47.86475" lon="-2.51985">
        <ele>104</ele>
        <time>2023-07-22T10:01:48.573Z</time>
      </trkpt>
      <trkpt lat="47.86475" lon="-2.51983">
        <ele>104</ele>
        <time>2023-07-22T10:01:49.572Z</time>
      </trkpt>
      <trkpt lat="47.86476" lon="-2.51981">
        <ele>104</ele>
        <time>2023-07-22T10:01:50.572Z</time>
      </trkpt>
      <trkpt lat="47.86476" lon="-2.51979">
        <ele>104</ele>
        <time>2023-07-22T10:01:51.573Z</time>
      </trkpt>
      <trkpt lat="47.86476" lon="-2.51977">
        <ele>104</ele>
        <time>2023-07-22T10:01:52.573Z</time>
      </trkpt>
      <trkpt lat="47.86476" lon="-2.51975">
        <ele>104</ele>
        <time>2023-07-22T10:01:53.573Z</time>
      </trkpt>
      <trkpt lat="47.86476" lon="-2.51973">
        <ele>104</ele>
        <time>2023-07-22T10:01:54.573Z</time>
      </trkpt>
      <trkpt lat="47.86476" lon="-2.51971">
        <ele>104</ele>
        <time>2023-07-22T10:01:55.573Z</time>
      </trkpt>
      <trkpt lat="47.86476" lon="-2.51969">
        <ele>104</ele>
        <time>2023-07-22T10:01:56.573Z</time>
      </trkpt>
      <trkpt lat="47.86477" lon="-2.51968">
        <ele>104</ele>
        <time>2023-07-22T10:01:57.573Z</time>
      </trkpt>
      <trkpt lat="47.86477" lon="-2.51966">
        <ele>103</ele>
        <time>2023-07-22T10:01:58.573Z</time>
      </trkpt>
      <trkpt lat="47.86477" lon="-2.51964">
        <ele>103</ele>
        <time>2023-07-22T10:01:59.573Z</time>
      </trkpt>
      <trkpt lat="47.86477" lon="-2.51962">
        <ele>103</ele>
        <time>2023-07-22T10:02:00.572Z</time>
      </trkpt>
      <trkpt lat="47.86477" lon="-2.5196">
        <ele>103</ele>
        <time>2023-07-22T10:02:01.573Z</time>
      </trkpt>
      <trkpt lat="47.86478" lon="-2.51959">
        <ele>103</ele>
        <time>2023-07-22T10:02:02.572Z</time>
      </trkpt>
      <trkpt lat="47.86477" lon="-2.51957">
        <ele>103</ele>
        <time>2023-07-22T10:02:03.572Z</time>
      </trkpt>
      <trkpt lat="47.86477" lon="-2.51955">
        <ele>103</ele>
        <time>2023-07-22T10:02:04.573Z</time>
      </trkpt>
      <trkpt lat="47.86477" lon="-2.51954">
        <ele>102</ele>
        <time>2023-07-22T10:02:05.573Z</time>
      </trkpt>
      <trkpt lat="47.86477" lon="-2.51952">
        <ele>102</ele>
        <time>2023-07-22T10:02:06.572Z</time>
      </trkpt>
      <trkpt lat="47.86478" lon="-2.51951">
        <ele>102</ele>
        <time>2023-07-22T10:02:07.573Z</time>
      </trkpt>
      <trkpt lat="47.86478" lon="-2.51949">
        <ele>102</ele>
        <time>2023-07-22T10:02:08.573Z</time>
      </trkpt>
      <trkpt lat="47.86477" lon="-2.51947">
        <ele>102</ele>
        <time>2023-07-22T10:02:09.573Z</time>
      </trkpt>
      <trkpt lat="47.86478" lon="-2.51946">
        <ele>102</ele>
        <time>2023-07-22T10:02:10.573Z</time>
      </trkpt>
      <trkpt lat="47.86477" lon="-2.51944">
        <ele>102</ele>
        <time>2023-07-22T10:02:11.572Z</time>
      </trkpt>
      <trkpt lat="47.86478" lon="-2.51942">
        <ele>102</ele>
        <time>2023-07-22T10:02:12.572Z</time>
      </trkpt>
      <trkpt lat="47.86478" lon="-2.51941">
        <ele>102</ele>
        <time>2023-07-22T10:02:13.573Z</time>
      </trkpt>
      <trkpt lat="47.86478" lon="-2.51939">
        <ele>102</ele>
        <time>2023-07-22T10:02:14.572Z</time>
      </trkpt>
      <trkpt lat="47.86478" lon="-2.51937">
        <ele>102</ele>
        <time>2023-07-22T10:02:15.572Z</time>
      </trkpt>
      <trkpt lat="47.86478" lon="-2.51936">
        <ele>102</ele>
        <time>2023-07-22T10:02:16.572Z</time>
      </trkpt>
      <trkpt lat="47.86478" lon="-2.51934">
        <ele>102</ele>
        <time>2023-07-22T10:02:17.573Z</time>
      </trkpt>
      <trkpt lat="47.86478" lon="-2.51933">
        <ele>103</ele>
        <time>2023-07-22T10:02:18.572Z</time>
      </trkpt>
      <trkpt lat="47.86479" lon="-2.51931">
        <ele>103</ele>
        <time>2023-07-22T10:02:19.573Z</time>
      </trkpt>
      <trkpt lat="47.86478" lon="-2.5193">
        <ele>104</ele>
        <time>2023-07-22T10:02:20.573Z</time>
      </trkpt>
      <trkpt lat="47.86478" lon="-2.51928">
        <ele>104</ele>
        <time>2023-07-22T10:02:21.573Z</time>
      </trkpt>
      <trkpt lat="47.86479" lon="-2.51927">
        <ele>105</ele>
        <time>2023-07-22T10:02:22.572Z</time>
      </trkpt>
      <trkpt lat="47.86479" lon="-2.51924">
        <ele>105</ele>
        <time>2023-07-22T10:02:23.572Z</time>
      </trkpt>
      <trkpt lat="47.8648" lon="-2.51923">
        <ele>106</ele>
        <time>2023-07-22T10:02:24.573Z</time>
      </trkpt>
      <trkpt lat="47.8648" lon="-2.51921">
        <ele>107</ele>
        <time>2023-07-22T10:02:25.573Z</time>
      </trkpt>
      <trkpt lat="47.8648" lon="-2.5192">
        <ele>107</ele>
        <time>2023-07-22T10:02:26.572Z</time>
      </trkpt>
      <trkpt lat="47.86481" lon="-2.51918">
        <ele>108</ele>
        <time>2023-07-22T10:02:27.572Z</time>
      </trkpt>
      <trkpt lat="47.86481" lon="-2.51916">
        <ele>108</ele>
        <time>2023-07-22T10:02:28.572Z</time>
      </trkpt>
      <trkpt lat="47.8648" lon="-2.51915">
        <ele>108</ele>
        <time>2023-07-22T10:02:29.573Z</time>
      </trkpt>
      <trkpt lat="47.8648" lon="-2.51913">
        <ele>108</ele>
        <time>2023-07-22T10:02:30.573Z</time>
      </trkpt>
      <trkpt lat="47.8648" lon="-2.51912">
        <ele>108</ele>
        <time>2023-07-22T10:02:31.572Z</time>
      </trkpt>
      <trkpt lat="47.8648" lon="-2.5191">
        <ele>108</ele>
        <time>2023-07-22T10:02:32.573Z</time>
      </trkpt>
      <trkpt lat="47.8648" lon="-2.51909">
        <ele>108</ele>
        <time>2023-07-22T10:02:33.572Z</time>
      </trkpt>
      <trkpt lat="47.8648" lon="-2.51907">
        <ele>108</ele>
        <time>2023-07-22T10:02:34.572Z</time>
      </trkpt>
      <trkpt lat="47.8648" lon="-2.51906">
        <ele>107</ele>
        <time>2023-07-22T10:02:35.572Z</time>
      </trkpt>
      <trkpt lat="47.8648" lon="-2.51905">
        <ele>107</ele>
        <time>2023-07-22T10:02:36.573Z</time>
      </trkpt>
      <trkpt lat="47.86481" lon="-2.51903">
        <ele>107</ele>
        <time>2023-07-22T10:02:37.573Z</time>
      </trkpt>
      <trkpt lat="47.86481" lon="-2.51901">
        <ele>106</ele>
        <time>2023-07-22T10:02:38.572Z</time>
      </trkpt>
      <trkpt lat="47.86481" lon="-2.51899">
        <ele>106</ele>
        <time>2023-07-22T10:02:39.572Z</time>
      </trkpt>
      <trkpt lat="47.86482" lon="-2.51897">
        <ele>105</ele>
        <time>2023-07-22T10:02:40.573Z</time>
      </trkpt>
      <trkpt lat="47.86482" lon="-2.51895">
        <ele>105</ele>
        <time>2023-07-22T10:02:41.572Z</time>
      </trkpt>
      <trkpt lat="47.86482" lon="-2.51893">
        <ele>105</ele>
        <time>2023-07-22T10:02:42.573Z</time>
      </trkpt>
      <trkpt lat="47.86482" lon="-2.51891">
        <ele>104</ele>
        <time>2023-07-22T10:02:43.572Z</time>
      </trkpt>
      <trkpt lat="47.86483" lon="-2.51889">
        <ele>104</ele>
        <time>2023-07-22T10:02:44.573Z</time>
      </trkpt>
      <trkpt lat="47.86483" lon="-2.51888">
        <ele>104</ele>
        <time>2023-07-22T10:02:45.572Z</time>
      </trkpt>
      <trkpt lat="47.86485" lon="-2.51886">
        <ele>104</ele>
        <time>2023-07-22T10:02:46.573Z</time>
      </trkpt>
      <trkpt lat="47.86485" lon="-2.51885">
        <ele>103</ele>
        <time>2023-07-22T10:02:47.573Z</time>
      </trkpt>
      <trkpt lat="47.86486" lon="-2.51884">
        <ele>103</ele>
        <time>2023-07-22T10:02:48.573Z</time>
      </trkpt>
      <trkpt lat="47.86487" lon="-2.51882">
        <ele>103</ele>
        <time>2023-07-22T10:02:49.572Z</time>
      </trkpt>
      <trkpt lat="47.86488" lon="-2.51881">
        <ele>103</ele>
        <time>2023-07-22T10:02:50.573Z</time>
      </trkpt>
      <trkpt lat="47.86488" lon="-2.51879">
        <ele>103</ele>
        <time>2023-07-22T10:02:51.573Z</time>
      </trkpt>
      <trkpt lat="47.86487" lon="-2.51878">
        <ele>102</ele>
        <time>2023-07-22T10:02:52.573Z</time>
      </trkpt>
      <trkpt lat="47.86488" lon="-2.51875">
        <ele>102</ele>
        <time>2023-07-22T10:02:53.573Z</time>
      </trkpt>
      <trkpt lat="47.86489" lon="-2.51873">
        <ele>102</ele>
        <time>2023-07-22T10:02:54.572Z</time>
      </trkpt>
      <trkpt lat="47.8649" lon="-2.51871">
        <ele>102</ele>
        <time>2023-07-22T10:02:55.573Z</time>
      </trkpt>
      <trkpt lat="47.8649" lon="-2.51869">
        <ele>102</ele>
        <time>2023-07-22T10:02:56.573Z</time>
      </trkpt>
      <trkpt lat="47.8649" lon="-2.51867">
        <ele>102</ele>
        <time>2023-07-22T10:02:57.572Z</time>
      </trkpt>
      <trkpt lat="47.8649" lon="-2.51866">
        <ele>102</ele>
        <time>2023-07-22T10:02:58.572Z</time>
      </trkpt>
      <trkpt lat="47.86491" lon="-2.51864">
        <ele>102</ele>
        <time>2023-07-22T10:02:59.573Z</time>
      </trkpt>
      <trkpt lat="47.86491" lon="-2.51862">
        <ele>102</ele>
        <time>2023-07-22T10:03:00.572Z</time>
      </trkpt>
      <trkpt lat="47.86491" lon="-2.5186">
        <ele>102</ele>
        <time>2023-07-22T10:03:01.572Z</time>
      </trkpt>
      <trkpt lat="47.86491" lon="-2.51859">
        <ele>102</ele>
        <time>2023-07-22T10:03:02.572Z</time>
      </trkpt>
      <trkpt lat="47.86492" lon="-2.51857">
        <ele>102</ele>
        <time>2023-07-22T10:03:03.572Z</time>
      </trkpt>
      <trkpt lat="47.86492" lon="-2.51855">
        <ele>102</ele>
        <time>2023-07-22T10:03:04.572Z</time>
      </trkpt>
      <trkpt lat="47.86492" lon="-2.51854">
        <ele>102</ele>
        <time>2023-07-22T10:03:05.573Z</time>
      </trkpt>
      <trkpt lat="47.86492" lon="-2.51852">
        <ele>102</ele>
        <time>2023-07-22T10:03:06.572Z</time>
      </trkpt>
      <trkpt lat="47.86493" lon="-2.5185">
        <ele>103</ele>
        <time>2023-07-22T10:03:07.573Z</time>
      </trkpt>
      <trkpt lat="47.86493" lon="-2.51849">
        <ele>103</ele>
        <time>2023-07-22T10:03:08.573Z</time>
      </trkpt>
      <trkpt lat="47.86493" lon="-2.51847">
        <ele>103</ele>
        <time>2023-07-22T10:03:09.573Z</time>
      </trkpt>
      <trkpt lat="47.86493" lon="-2.51846">
        <ele>103</ele>
        <time>2023-07-22T10:03:10.572Z</time>
      </trkpt>
      <trkpt lat="47.86494" lon="-2.51845">
        <ele>103</ele>
        <time>2023-07-22T10:03:11.572Z</time>
      </trkpt>
      <trkpt lat="47.86494" lon="-2.51844">
        <ele>103</ele>
        <time>2023-07-22T10:03:12.573Z</time>
      </trkpt>
      <trkpt lat="47.86494" lon="-2.51842">
        <ele>103</ele>
        <time>2023-07-22T10:03:13.572Z</time>
      </trkpt>
      <trkpt lat="47.86495" lon="-2.5184">
        <ele>103</ele>
        <time>2023-07-22T10:03:14.572Z</time>
      </trkpt>
      <trkpt lat="47.86496" lon="-2.51838">
        <ele>104</ele>
        <time>2023-07-22T10:03:15.572Z</time>
      </trkpt>
      <trkpt lat="47.86496" lon="-2.51837">
        <ele>104</ele>
        <time>2023-07-22T10:03:16.572Z</time>
      </trkpt>
      <trkpt lat="47.86497" lon="-2.51836">
        <ele>104</ele>
        <time>2023-07-22T10:03:17.572Z</time>
      </trkpt>
      <trkpt lat="47.86498" lon="-2.51834">
        <ele>104</ele>
        <time>2023-07-22T10:03:18.573Z</time>
      </trkpt>
      <trkpt lat="47.86498" lon="-2.51831">
        <ele>104</ele>
        <time>2023-07-22T10:03:19.572Z</time>
      </trkpt>
      <trkpt lat="47.86498" lon="-2.51829">
        <ele>104</ele>
        <time>2023-07-22T10:03:20.572Z</time>
      </trkpt>
      <trkpt lat="47.86497" lon="-2.51828">
        <ele>104</ele>
        <time>2023-07-22T10:03:21.572Z</time>
      </trkpt>
      <trkpt lat="47.86497" lon="-2.51825">
        <ele>104</ele>
        <time>2023-07-22T10:03:22.573Z</time>
      </trkpt>
      <trkpt lat="47.86497" lon="-2.51824">
        <ele>104</ele>
        <time>2023-07-22T10:03:23.572Z</time>
      </trkpt>
      <trkpt lat="47.86497" lon="-2.51821">
        <ele>104</ele>
        <time>2023-07-22T10:03:24.572Z</time>
      </trkpt>
      <trkpt lat="47.86498" lon="-2.5182">
        <ele>105</ele>
        <time>2023-07-22T10:03:25.572Z</time>
      </trkpt>
      <trkpt lat="47.86499" lon="-2.51818">
        <ele>105</ele>
        <time>2023-07-22T10:03:26.573Z</time>
      </trkpt>
      <trkpt lat="47.865" lon="-2.51817">
        <ele>105</ele>
        <time>2023-07-22T10:03:27.572Z</time>
      </trkpt>
      <trkpt lat="47.865" lon="-2.51815">
        <ele>105</ele>
        <time>2023-07-22T10:03:28.572Z</time>
      </trkpt>
      <trkpt lat="47.865" lon="-2.51813">
        <ele>105</ele>
        <time>2023-07-22T10:03:29.572Z</time>
      </trkpt>
      <trkpt lat="47.86501" lon="-2.51812">
        <ele>105</ele>
        <time>2023-07-22T10:03:30.572Z</time>
      </trkpt>
      <trkpt lat="47.86501" lon="-2.5181">
        <ele>105</ele>
        <time>2023-07-22T10:03:31.572Z</time>
      </trkpt>
      <trkpt lat="47.86501" lon="-2.51808">
        <ele>105</ele>
        <time>2023-07-22T10:03:32.573Z</time>
      </trkpt>
      <trkpt lat="47.86502" lon="-2.51806">
        <ele>105</ele>
        <time>2023-07-22T10:03:33.572Z</time>
      </trkpt>
      <trkpt lat="47.86502" lon="-2.51804">
        <ele>105</ele>
        <time>2023-07-22T10:03:34.572Z</time>
      </trkpt>
      <trkpt lat="47.86502" lon="-2.51802">
        <ele>105</ele>
        <time>2023-07-22T10:03:35.573Z</time>
      </trkpt>
      <trkpt lat="47.86502" lon="-2.518">
        <ele>105</ele>
        <time>2023-07-22T10:03:36.573Z</time>
      </trkpt>
      <trkpt lat="47.86502" lon="-2.51798">
        <ele>104</ele>
        <time>2023-07-22T10:03:37.573Z</time>
      </trkpt>
      <trkpt lat="47.86503" lon="-2.51797">
        <ele>105</ele>
        <time>2023-07-22T10:03:38.573Z</time>
      </trkpt>
      <trkpt lat="47.86503" lon="-2.51795">
        <ele>105</ele>
        <time>2023-07-22T10:03:39.572Z</time>
      </trkpt>
      <trkpt lat="47.86504" lon="-2.51794">
        <ele>105</ele>
        <time>2023-07-22T10:03:40.573Z</time>
      </trkpt>
      <trkpt lat="47.86504" lon="-2.51792">
        <ele>104</ele>
        <time>2023-07-22T10:03:41.573Z</time>
      </trkpt>
      <trkpt lat="47.86504" lon="-2.5179">
        <ele>104</ele>
        <time>2023-07-22T10:03:42.573Z</time>
      </trkpt>
      <trkpt lat="47.86504" lon="-2.51789">
        <ele>104</ele>
        <time>2023-07-22T10:03:43.572Z</time>
      </trkpt>
      <trkpt lat="47.86505" lon="-2.51787">
        <ele>104</ele>
        <time>2023-07-22T10:03:44.572Z</time>
      </trkpt>
      <trkpt lat="47.86505" lon="-2.51786">
        <ele>103</ele>
        <time>2023-07-22T10:03:45.572Z</time>
      </trkpt>
      <trkpt lat="47.86505" lon="-2.51785">
        <ele>103</ele>
        <time>2023-07-22T10:03:46.573Z</time>
      </trkpt>
      <trkpt lat="47.86505" lon="-2.51783">
        <ele>103</ele>
        <time>2023-07-22T10:03:47.573Z</time>
      </trkpt>
      <trkpt lat="47.86505" lon="-2.51782">
        <ele>102</ele>
        <time>2023-07-22T10:03:48.572Z</time>
      </trkpt>
      <trkpt lat="47.86505" lon="-2.5178">
        <ele>101</ele>
        <time>2023-07-22T10:03:49.572Z</time>
      </trkpt>
      <trkpt lat="47.86504" lon="-2.51778">
        <ele>101</ele>
        <time>2023-07-22T10:03:50.572Z</time>
      </trkpt>
      <trkpt lat="47.86504" lon="-2.51776">
        <ele>100</ele>
        <time>2023-07-22T10:03:51.572Z</time>
      </trkpt>
      <trkpt lat="47.86504" lon="-2.51775">
        <ele>99</ele>
        <time>2023-07-22T10:03:52.572Z</time>
      </trkpt>
      <trkpt lat="47.86504" lon="-2.51773">
        <ele>98</ele>
        <time>2023-07-22T10:03:53.572Z</time>
      </trkpt>
      <trkpt lat="47.86503" lon="-2.51771">
        <ele>98</ele>
        <time>2023-07-22T10:03:54.572Z</time>
      </trkpt>
      <trkpt lat="47.86503" lon="-2.51769">
        <ele>97</ele>
        <time>2023-07-22T10:03:55.572Z</time>
      </trkpt>
      <trkpt lat="47.86503" lon="-2.51768">
        <ele>96</ele>
        <time>2023-07-22T10:03:56.573Z</time>
      </trkpt>
      <trkpt lat="47.86503" lon="-2.51766">
        <ele>96</ele>
        <time>2023-07-22T10:03:57.572Z</time>
      </trkpt>
      <trkpt lat="47.86502" lon="-2.51765">
        <ele>95</ele>
        <time>2023-07-22T10:03:58.573Z</time>
      </trkpt>
      <trkpt lat="47.86502" lon="-2.51764">
        <ele>94</ele>
        <time>2023-07-22T10:03:59.572Z</time>
      </trkpt>
      <trkpt lat="47.86502" lon="-2.51763">
        <ele>94</ele>
        <time>2023-07-22T10:04:00.572Z</time>
      </trkpt>
      <trkpt lat="47.86502" lon="-2.51761">
        <ele>94</ele>
        <time>2023-07-22T10:04:01.573Z</time>
      </trkpt>
      <trkpt lat="47.86502" lon="-2.5176">
        <ele>93</ele>
        <time>2023-07-22T10:04:02.573Z</time>
      </trkpt>
      <trkpt lat="47.86502" lon="-2.51759">
        <ele>93</ele>
        <time>2023-07-22T10:04:03.572Z</time>
      </trkpt>
      <trkpt lat="47.86503" lon="-2.51757">
        <ele>93</ele>
        <time>2023-07-22T10:04:04.573Z</time>
      </trkpt>
      <trkpt lat="47.86502" lon="-2.51756">
        <ele>93</ele>
        <time>2023-07-22T10:04:05.572Z</time>
      </trkpt>
      <trkpt lat="47.86502" lon="-2.51754">
        <ele>93</ele>
        <time>2023-07-22T10:04:06.572Z</time>
      </trkpt>
      <trkpt lat="47.86502" lon="-2.51752">
        <ele>92</ele>
        <time>2023-07-22T10:04:07.572Z</time>
      </trkpt>
      <trkpt lat="47.86503" lon="-2.51751">
        <ele>92</ele>
        <time>2023-07-22T10:04:08.572Z</time>
      </trkpt>
      <trkpt lat="47.86503" lon="-2.5175">
        <ele>92</ele>
        <time>2023-07-22T10:04:09.573Z</time>
      </trkpt>
      <trkpt lat="47.86503" lon="-2.51748">
        <ele>92</ele>
        <time>2023-07-22T10:04:10.573Z</time>
      </trkpt>
      <trkpt lat="47.86504" lon="-2.51746">
        <ele>93</ele>
        <time>2023-07-22T10:04:11.572Z</time>
      </trkpt>
      <trkpt lat="47.86504" lon="-2.51745">
        <ele>93</ele>
        <time>2023-07-22T10:04:12.572Z</time>
      </trkpt>
      <trkpt lat="47.86505" lon="-2.51744">
        <ele>93</ele>
        <time>2023-07-22T10:04:13.573Z</time>
      </trkpt>
      <trkpt lat="47.86505" lon="-2.51742">
        <ele>93</ele>
        <time>2023-07-22T10:04:14.573Z</time>
      </trkpt>
      <trkpt lat="47.86506" lon="-2.51741">
        <ele>92</ele>
        <time>2023-07-22T10:04:15.573Z</time>
      </trkpt>
      <trkpt lat="47.86506" lon="-2.51739">
        <ele>92</ele>
        <time>2023-07-22T10:04:16.572Z</time>
      </trkpt>
      <trkpt lat="47.86506" lon="-2.51738">
        <ele>91</ele>
        <time>2023-07-22T10:04:17.573Z</time>
      </trkpt>
      <trkpt lat="47.86507" lon="-2.51736">
        <ele>91</ele>
        <time>2023-07-22T10:04:18.573Z</time>
      </trkpt>
      <trkpt lat="47.86507" lon="-2.51736">
        <ele>90</ele>
        <time>2023-07-22T10:04:19.572Z</time>
      </trkpt>
      <trkpt lat="47.86508" lon="-2.51734">
        <ele>90</ele>
        <time>2023-07-22T10:04:20.572Z</time>
      </trkpt>
      <trkpt lat="47.86508" lon="-2.51732">
        <ele>90</ele>
        <time>2023-07-22T10:04:21.572Z</time>
      </trkpt>
      <trkpt lat="47.86509" lon="-2.51731">
        <ele>90</ele>
        <time>2023-07-22T10:04:22.573Z</time>
      </trkpt>
      <trkpt lat="47.8651" lon="-2.51729">
        <ele>90</ele>
        <time>2023-07-22T10:04:23.573Z</time>
      </trkpt>
      <trkpt lat="47.86511" lon="-2.51728">
        <ele>90</ele>
        <time>2023-07-22T10:04:24.572Z</time>
      </trkpt>
      <trkpt lat="47.86511" lon="-2.51726">
        <ele>91</ele>
        <time>2023-07-22T10:04:25.572Z</time>
      </trkpt>
      <trkpt lat="47.86512" lon="-2.51725">
        <ele>91</ele>
        <time>2023-07-22T10:04:26.572Z</time>
      </trkpt>
      <trkpt lat="47.86513" lon="-2.51724">
        <ele>91</ele>
        <time>2023-07-22T10:04:27.572Z</time>
      </trkpt>
      <trkpt lat="47.86514" lon="-2.51722">
        <ele>92</ele>
        <time>2023-07-22T10:04:28.573Z</time>
      </trkpt>
      <trkpt lat="47.86515" lon="-2.51721">
        <ele>93</ele>
        <time>2023-07-22T10:04:29.572Z</time>
      </trkpt>
      <trkpt lat="47.86515" lon="-2.51719">
        <ele>93</ele>
        <time>2023-07-22T10:04:30.572Z</time>
      </trkpt>
      <trkpt lat="47.86516" lon="-2.51718">
        <ele>94</ele>
        <time>2023-07-22T10:04:31.572Z</time>
      </trkpt>
      <trkpt lat="47.86517" lon="-2.51716">
        <ele>95</ele>
        <time>2023-07-22T10:04:32.572Z</time>
      </trkpt>
      <trkpt lat="47.86518" lon="-2.51715">
        <ele>95</ele>
        <time>2023-07-22T10:04:33.573Z</time>
      </trkpt>
      <trkpt lat="47.86519" lon="-2.51713">
        <ele>96</ele>
        <time>2023-07-22T10:04:34.572Z</time>
      </trkpt>
      <trkpt lat="47.86519" lon="-2.51712">
        <ele>96</ele>
        <time>2023-07-22T10:04:35.573Z</time>
      </trkpt>
      <trkpt lat="47.86519" lon="-2.51711">
        <ele>97</ele>
        <time>2023-07-22T10:04:36.572Z</time>
      </trkpt>
      <trkpt lat="47.86519" lon="-2.51709">
        <ele>97</ele>
        <time>2023-07-22T10:04:37.572Z</time>
      </trkpt>
      <trkpt lat="47.8652" lon="-2.51708">
        <ele>97</ele>
        <time>2023-07-22T10:04:38.572Z</time>
      </trkpt>
      <trkpt lat="47.86521" lon="-2.51707">
        <ele>97</ele>
        <time>2023-07-22T10:04:39.573Z</time>
      </trkpt>
      <trkpt lat="47.86522" lon="-2.51705">
        <ele>97</ele>
        <time>2023-07-22T10:04:40.572Z</time>
      </trkpt>
      <trkpt lat="47.86523" lon="-2.51704">
        <ele>96</ele>
        <time>2023-07-22T10:04:41.572Z</time>
      </trkpt>
      <trkpt lat="47.86524" lon="-2.51703">
        <ele>96</ele>
        <time>2023-07-22T10:04:42.572Z</time>
      </trkpt>
      <trkpt lat="47.86525" lon="-2.51701">
        <ele>96</ele>
        <time>2023-07-22T10:04:43.573Z</time>
      </trkpt>
      <trkpt lat="47.86526" lon="-2.517">
        <ele>95</ele>
        <time>2023-07-22T10:04:44.572Z</time>
      </trkpt>
      <trkpt lat="47.86526" lon="-2.51699">
        <ele>94</ele>
        <time>2023-07-22T10:04:45.572Z</time>
      </trkpt>
      <trkpt lat="47.86527" lon="-2.51698">
        <ele>94</ele>
        <time>2023-07-22T10:04:46.572Z</time>
      </trkpt>
      <trkpt lat="47.86528" lon="-2.51696">
        <ele>94</ele>
        <time>2023-07-22T10:04:47.573Z</time>
      </trkpt>
      <trkpt lat="47.86528" lon="-2.51696">
        <ele>94</ele>
        <time>2023-07-22T10:04:48.573Z</time>
      </trkpt>
      <trkpt lat="47.86529" lon="-2.51694">
        <ele>93</ele>
        <time>2023-07-22T10:04:49.573Z</time>
      </trkpt>
      <trkpt lat="47.86529" lon="-2.51693">
        <ele>93</ele>
        <time>2023-07-22T10:04:50.572Z</time>
      </trkpt>
      <trkpt lat="47.8653" lon="-2.51693">
        <ele>93</ele>
        <time>2023-07-22T10:04:51.572Z</time>
      </trkpt>
      <trkpt lat="47.8653" lon="-2.51691">
        <ele>92</ele>
        <time>2023-07-22T10:04:52.573Z</time>
      </trkpt>
      <trkpt lat="47.86531" lon="-2.5169">
        <ele>91</ele>
        <time>2023-07-22T10:04:53.573Z</time>
      </trkpt>
      <trkpt lat="47.86532" lon="-2.51689">
        <ele>91</ele>
        <time>2023-07-22T10:04:54.572Z</time>
      </trkpt>
      <trkpt lat="47.86532" lon="-2.51688">
        <ele>90</ele>
        <time>2023-07-22T10:04:55.572Z</time>
      </trkpt>
      <trkpt lat="47.86533" lon="-2.51687">
        <ele>89</ele>
        <time>2023-07-22T10:04:56.572Z</time>
      </trkpt>
      <trkpt lat="47.86533" lon="-2.51686">
        <ele>88</ele>
        <time>2023-07-22T10:04:57.572Z</time>
      </trkpt>
      <trkpt lat="47.86533" lon="-2.51685">
        <ele>88</ele>
        <time>2023-07-22T10:04:58.572Z</time>
      </trkpt>
      <trkpt lat="47.86533" lon="-2.51684">
        <ele>87</ele>
        <time>2023-07-22T10:04:59.572Z</time>
      </trkpt>
      <trkpt lat="47.86534" lon="-2.51683">
        <ele>86</ele>
        <time>2023-07-22T10:05:00.573Z</time>
      </trkpt>
      <trkpt lat="47.86535" lon="-2.51682">
        <ele>86</ele>
        <time>2023-07-22T10:05:01.572Z</time>
      </trkpt>
      <trkpt lat="47.86535" lon="-2.51681">
        <ele>85</ele>
        <time>2023-07-22T10:05:02.573Z</time>
      </trkpt>
      <trkpt lat="47.86536" lon="-2.51681">
        <ele>85</ele>
        <time>2023-07-22T10:05:03.572Z</time>
      </trkpt>
      <trkpt lat="47.86536" lon="-2.5168">
        <ele>84</ele>
        <time>2023-07-22T10:05:04.572Z</time>
      </trkpt>
      <trkpt lat="47.86536" lon="-2.5168">
        <ele>84</ele>
        <time>2023-07-22T10:05:05.572Z</time>
      </trkpt>
      <trkpt lat="47.86541" lon="-2.51673">
        <ele>84</ele>
        <time>2023-07-22T10:05:10.896Z</time>
      </trkpt>
      <trkpt lat="47.86542" lon="-2.51672">
        <ele>84</ele>
        <time>2023-07-22T10:05:11.896Z</time>
      </trkpt>
      <trkpt lat="47.86542" lon="-2.51671">
        <ele>84</ele>
        <time>2023-07-22T10:05:12.895Z</time>
      </trkpt>
      <trkpt lat="47.86544" lon="-2.5167">
        <ele>85</ele>
        <time>2023-07-22T10:05:13.896Z</time>
      </trkpt>
      <trkpt lat="47.86544" lon="-2.51669">
        <ele>85</ele>
        <time>2023-07-22T10:05:14.895Z</time>
      </trkpt>
      <trkpt lat="47.86544" lon="-2.51668">
        <ele>85</ele>
        <time>2023-07-22T10:05:15.895Z</time>
      </trkpt>
      <trkpt lat="47.86545" lon="-2.51667">
        <ele>85</ele>
        <time>2023-07-22T10:05:16.895Z</time>
      </trkpt>
      <trkpt lat="47.86545" lon="-2.51667">
        <ele>85</ele>
        <time>2023-07-22T10:05:17.895Z</time>
      </trkpt>
      <trkpt lat="47.86546" lon="-2.51667">
        <ele>85</ele>
        <time>2023-07-22T10:05:18.895Z</time>
      </trkpt>
      <trkpt lat="47.86547" lon="-2.51666">
        <ele>84</ele>
        <time>2023-07-22T10:05:19.895Z</time>
      </trkpt>
      <trkpt lat="47.86548" lon="-2.51665">
        <ele>84</ele>
        <time>2023-07-22T10:05:20.895Z</time>
      </trkpt>
      <trkpt lat="47.86549" lon="-2.51664">
        <ele>84</ele>
        <time>2023-07-22T10:05:21.896Z</time>
      </trkpt>
      <trkpt lat="47.8655" lon="-2.51662">
        <ele>83</ele>
        <time>2023-07-22T10:05:22.896Z</time>
      </trkpt>
      <trkpt lat="47.8655" lon="-2.51661">
        <ele>83</ele>
        <time>2023-07-22T10:05:23.896Z</time>
      </trkpt>
      <trkpt lat="47.8655" lon="-2.5166">
        <ele>82</ele>
        <time>2023-07-22T10:05:24.896Z</time>
      </trkpt>
      <trkpt lat="47.86551" lon="-2.51659">
        <ele>82</ele>
        <time>2023-07-22T10:05:25.896Z</time>
      </trkpt>
      <trkpt lat="47.86551" lon="-2.51658">
        <ele>82</ele>
        <time>2023-07-22T10:05:26.896Z</time>
      </trkpt>
      <trkpt lat="47.86552" lon="-2.51656">
        <ele>82</ele>
        <time>2023-07-22T10:05:27.896Z</time>
      </trkpt>
      <trkpt lat="47.86552" lon="-2.51656">
        <ele>82</ele>
        <time>2023-07-22T10:05:28.896Z</time>
      </trkpt>
      <trkpt lat="47.86553" lon="-2.51655">
        <ele>82</ele>
        <time>2023-07-22T10:05:29.896Z</time>
      </trkpt>
      <trkpt lat="47.86553" lon="-2.51656">
        <ele>82</ele>
        <time>2023-07-22T10:05:30.895Z</time>
      </trkpt>
      <trkpt lat="47.86554" lon="-2.51657">
        <ele>82</ele>
        <time>2023-07-22T10:05:31.895Z</time>
      </trkpt>
      <trkpt lat="47.86554" lon="-2.51657">
        <ele>82</ele>
        <time>2023-07-22T10:05:32.895Z</time>
      </trkpt>
      <trkpt lat="47.86555" lon="-2.51656">
        <ele>82</ele>
        <time>2023-07-22T10:05:33.895Z</time>
      </trkpt>
      <trkpt lat="47.86556" lon="-2.51655">
        <ele>82</ele>
        <time>2023-07-22T10:05:34.895Z</time>
      </trkpt>
      <trkpt lat="47.86557" lon="-2.51655">
        <ele>82</ele>
        <time>2023-07-22T10:05:35.895Z</time>
      </trkpt>
      <trkpt lat="47.86558" lon="-2.51655">
        <ele>82</ele>
        <time>2023-07-22T10:05:36.895Z</time>
      </trkpt>
      <trkpt lat="47.86559" lon="-2.51655">
        <ele>82</ele>
        <time>2023-07-22T10:05:37.896Z</time>
      </trkpt>
      <trkpt lat="47.8656" lon="-2.51655">
        <ele>82</ele>
        <time>2023-07-22T10:05:38.896Z</time>
      </trkpt>
      <trkpt lat="47.8656" lon="-2.51654">
        <ele>82</ele>
        <time>2023-07-22T10:05:39.896Z</time>
      </trkpt>
      <trkpt lat="47.8656" lon="-2.51655">
        <ele>82</ele>
        <time>2023-07-22T10:05:40.896Z</time>
      </trkpt>
      <trkpt lat="47.86561" lon="-2.51655">
        <ele>82</ele>
        <time>2023-07-22T10:05:41.896Z</time>
      </trkpt>
      <trkpt lat="47.86561" lon="-2.51654">
        <ele>82</ele>
        <time>2023-07-22T10:05:42.896Z</time>
      </trkpt>
      <trkpt lat="47.86562" lon="-2.51651">
        <ele>82</ele>
        <time>2023-07-22T10:05:43.895Z</time>
      </trkpt>
      <trkpt lat="47.86563" lon="-2.5165">
        <ele>82</ele>
        <time>2023-07-22T10:05:44.896Z</time>
      </trkpt>
      <trkpt lat="47.86565" lon="-2.51649">
        <ele>82</ele>
        <time>2023-07-22T10:05:45.896Z</time>
      </trkpt>
      <trkpt lat="47.86567" lon="-2.51648">
        <ele>82</ele>
        <time>2023-07-22T10:05:46.896Z</time>
      </trkpt>
      <trkpt lat="47.86568" lon="-2.51646">
        <ele>82</ele>
        <time>2023-07-22T10:05:47.896Z</time>
      </trkpt>
      <trkpt lat="47.86569" lon="-2.51645">
        <ele>82</ele>
        <time>2023-07-22T10:05:48.895Z</time>
      </trkpt>
      <trkpt lat="47.86569" lon="-2.51643">
        <ele>82</ele>
        <time>2023-07-22T10:05:49.896Z</time>
      </trkpt>
      <trkpt lat="47.8657" lon="-2.51641">
        <ele>82</ele>
        <time>2023-07-22T10:05:50.895Z</time>
      </trkpt>
      <trkpt lat="47.86571" lon="-2.5164">
        <ele>83</ele>
        <time>2023-07-22T10:05:51.896Z</time>
      </trkpt>
      <trkpt lat="47.86572" lon="-2.51639">
        <ele>83</ele>
        <time>2023-07-22T10:05:52.896Z</time>
      </trkpt>
      <trkpt lat="47.86573" lon="-2.51638">
        <ele>83</ele>
        <time>2023-07-22T10:05:53.895Z</time>
      </trkpt>
      <trkpt lat="47.86574" lon="-2.51638">
        <ele>83</ele>
        <time>2023-07-22T10:05:54.895Z</time>
      </trkpt>
      <trkpt lat="47.86575" lon="-2.51638">
        <ele>83</ele>
        <time>2023-07-22T10:05:55.895Z</time>
      </trkpt>
      <trkpt lat="47.86576" lon="-2.51638">
        <ele>83</ele>
        <time>2023-07-22T10:05:56.895Z</time>
      </trkpt>
      <trkpt lat="47.86576" lon="-2.51639">
        <ele>83</ele>
        <time>2023-07-22T10:05:57.896Z</time>
      </trkpt>
      <trkpt lat="47.86576" lon="-2.5164">
        <ele>83</ele>
        <time>2023-07-22T10:05:58.896Z</time>
      </trkpt>
      <trkpt lat="47.86576" lon="-2.5164">
        <ele>83</ele>
        <time>2023-07-22T10:05:59.895Z</time>
      </trkpt>
      <trkpt lat="47.86576" lon="-2.5164">
        <ele>83</ele>
        <time>2023-07-22T10:06:00.896Z</time>
      </trkpt>
      <trkpt lat="47.86576" lon="-2.51642">
        <ele>83</ele>
        <time>2023-07-22T10:06:01.895Z</time>
      </trkpt>
      <trkpt lat="47.86576" lon="-2.51642">
        <ele>83</ele>
        <time>2023-07-22T10:06:02.895Z</time>
      </trkpt>
      <trkpt lat="47.86577" lon="-2.51644">
        <ele>83</ele>
        <time>2023-07-22T10:06:03.896Z</time>
      </trkpt>
      <trkpt lat="47.86577" lon="-2.51645">
        <ele>83</ele>
        <time>2023-07-22T10:06:04.896Z</time>
      </trkpt>
      <trkpt lat="47.86578" lon="-2.51645">
        <ele>83</ele>
        <time>2023-07-22T10:06:05.896Z</time>
      </trkpt>
      <trkpt lat="47.86578" lon="-2.51645">
        <ele>83</ele>
        <time>2023-07-22T10:06:06.896Z</time>
      </trkpt>
      <trkpt lat="47.8658" lon="-2.51645">
        <ele>83</ele>
        <time>2023-07-22T10:06:07.896Z</time>
      </trkpt>
      <trkpt lat="47.86581" lon="-2.51645">
        <ele>83</ele>
        <time>2023-07-22T10:06:08.895Z</time>
      </trkpt>
      <trkpt lat="47.86582" lon="-2.51645">
        <ele>83</ele>
        <time>2023-07-22T10:06:09.895Z</time>
      </trkpt>
      <trkpt lat="47.86583" lon="-2.51645">
        <ele>83</ele>
        <time>2023-07-22T10:06:10.896Z</time>
      </trkpt>
      <trkpt lat="47.86584" lon="-2.51645">
        <ele>83</ele>
        <time>2023-07-22T10:06:11.895Z</time>
      </trkpt>
      <trkpt lat="47.86585" lon="-2.51645">
        <ele>82</ele>
        <time>2023-07-22T10:06:12.895Z</time>
      </trkpt>
      <trkpt lat="47.86585" lon="-2.51645">
        <ele>82</ele>
        <time>2023-07-22T10:06:13.895Z</time>
      </trkpt>
      <trkpt lat="47.86586" lon="-2.51645">
        <ele>81</ele>
        <time>2023-07-22T10:06:14.896Z</time>
      </trkpt>
      <trkpt lat="47.86586" lon="-2.51645">
        <ele>81</ele>
        <time>2023-07-22T10:06:15.895Z</time>
      </trkpt>
      <trkpt lat="47.86588" lon="-2.51644">
        <ele>81</ele>
        <time>2023-07-22T10:06:16.896Z</time>
      </trkpt>
      <trkpt lat="47.86589" lon="-2.51643">
        <ele>80</ele>
        <time>2023-07-22T10:06:17.895Z</time>
      </trkpt>
      <trkpt lat="47.8659" lon="-2.51643">
        <ele>80</ele>
        <time>2023-07-22T10:06:18.895Z</time>
      </trkpt>
      <trkpt lat="47.86592" lon="-2.51642">
        <ele>80</ele>
        <time>2023-07-22T10:06:19.895Z</time>
      </trkpt>
      <trkpt lat="47.86593" lon="-2.51642">
        <ele>80</ele>
        <time>2023-07-22T10:06:20.896Z</time>
      </trkpt>
      <trkpt lat="47.86594" lon="-2.51641">
        <ele>80</ele>
        <time>2023-07-22T10:06:21.895Z</time>
      </trkpt>
      <trkpt lat="47.86594" lon="-2.5164">
        <ele>80</ele>
        <time>2023-07-22T10:06:22.895Z</time>
      </trkpt>
      <trkpt lat="47.86596" lon="-2.5164">
        <ele>80</ele>
        <time>2023-07-22T10:06:23.896Z</time>
      </trkpt>
      <trkpt lat="47.86597" lon="-2.51639">
        <ele>80</ele>
        <time>2023-07-22T10:06:24.895Z</time>
      </trkpt>
      <trkpt lat="47.86599" lon="-2.51638">
        <ele>81</ele>
        <time>2023-07-22T10:06:25.896Z</time>
      </trkpt>
      <trkpt lat="47.866" lon="-2.51637">
        <ele>81</ele>
        <time>2023-07-22T10:06:26.895Z</time>
      </trkpt>
      <trkpt lat="47.86601" lon="-2.51637">
        <ele>82</ele>
        <time>2023-07-22T10:06:27.895Z</time>
      </trkpt>
      <trkpt lat="47.86602" lon="-2.51637">
        <ele>82</ele>
        <time>2023-07-22T10:06:28.895Z</time>
      </trkpt>
      <trkpt lat="47.86602" lon="-2.51636">
        <ele>83</ele>
        <time>2023-07-22T10:06:29.896Z</time>
      </trkpt>
      <trkpt lat="47.86604" lon="-2.51636">
        <ele>83</ele>
        <time>2023-07-22T10:06:30.895Z</time>
      </trkpt>
      <trkpt lat="47.86605" lon="-2.51636">
        <ele>84</ele>
        <time>2023-07-22T10:06:31.896Z</time>
      </trkpt>
      <trkpt lat="47.86606" lon="-2.51637">
        <ele>84</ele>
        <time>2023-07-22T10:06:32.895Z</time>
      </trkpt>
      <trkpt lat="47.86607" lon="-2.51638">
        <ele>84</ele>
        <time>2023-07-22T10:06:33.896Z</time>
      </trkpt>
      <trkpt lat="47.86607" lon="-2.51639">
        <ele>85</ele>
        <time>2023-07-22T10:06:34.895Z</time>
      </trkpt>
      <trkpt lat="47.86608" lon="-2.51639">
        <ele>85</ele>
        <time>2023-07-22T10:06:35.896Z</time>
      </trkpt>
      <trkpt lat="47.86608" lon="-2.51639">
        <ele>85</ele>
        <time>2023-07-22T10:06:36.895Z</time>
      </trkpt>
      <trkpt lat="47.86613" lon="-2.51634">
        <ele>83</ele>
        <time>2023-07-22T10:06:46.215Z</time>
      </trkpt>
      <trkpt lat="47.86615" lon="-2.51633">
        <ele>83</ele>
        <time>2023-07-22T10:06:47.215Z</time>
      </trkpt>
      <trkpt lat="47.86616" lon="-2.51631">
        <ele>83</ele>
        <time>2023-07-22T10:06:48.215Z</time>
      </trkpt>
      <trkpt lat="47.86618" lon="-2.5163">
        <ele>84</ele>
        <time>2023-07-22T10:06:49.215Z</time>
      </trkpt>
      <trkpt lat="47.8662" lon="-2.51629">
        <ele>84</ele>
        <time>2023-07-22T10:06:50.215Z</time>
      </trkpt>
      <trkpt lat="47.86621" lon="-2.51628">
        <ele>85</ele>
        <time>2023-07-22T10:06:51.215Z</time>
      </trkpt>
      <trkpt lat="47.86623" lon="-2.51627">
        <ele>85</ele>
        <time>2023-07-22T10:06:52.215Z</time>
      </trkpt>
      <trkpt lat="47.86624" lon="-2.51626">
        <ele>86</ele>
        <time>2023-07-22T10:06:53.215Z</time>
      </trkpt>
      <trkpt lat="47.86625" lon="-2.51626">
        <ele>87</ele>
        <time>2023-07-22T10:06:54.215Z</time>
      </trkpt>
      <trkpt lat="47.86626" lon="-2.51625">
        <ele>87</ele>
        <time>2023-07-22T10:06:55.215Z</time>
      </trkpt>
      <trkpt lat="47.86627" lon="-2.51624">
        <ele>88</ele>
        <time>2023-07-22T10:06:56.215Z</time>
      </trkpt>
      <trkpt lat="47.86629" lon="-2.51622">
        <ele>88</ele>
        <time>2023-07-22T10:06:57.215Z</time>
      </trkpt>
      <trkpt lat="47.8663" lon="-2.51621">
        <ele>89</ele>
        <time>2023-07-22T10:06:58.215Z</time>
      </trkpt>
      <trkpt lat="47.86631" lon="-2.5162">
        <ele>89</ele>
        <time>2023-07-22T10:06:59.215Z</time>
      </trkpt>
      <trkpt lat="47.86632" lon="-2.51619">
        <ele>90</ele>
        <time>2023-07-22T10:07:00.215Z</time>
      </trkpt>
      <trkpt lat="47.86633" lon="-2.51619">
        <ele>90</ele>
        <time>2023-07-22T10:07:01.215Z</time>
      </trkpt>
      <trkpt lat="47.86633" lon="-2.51619">
        <ele>90</ele>
        <time>2023-07-22T10:07:02.215Z</time>
      </trkpt>
      <trkpt lat="47.86634" lon="-2.51619">
        <ele>90</ele>
        <time>2023-07-22T10:07:03.215Z</time>
      </trkpt>
      <trkpt lat="47.86635" lon="-2.51621">
        <ele>89</ele>
        <time>2023-07-22T10:07:04.215Z</time>
      </trkpt>
      <trkpt lat="47.86636" lon="-2.51621">
        <ele>89</ele>
        <time>2023-07-22T10:07:05.215Z</time>
      </trkpt>
      <trkpt lat="47.86637" lon="-2.51622">
        <ele>89</ele>
        <time>2023-07-22T10:07:06.215Z</time>
      </trkpt>
      <trkpt lat="47.86638" lon="-2.51622">
        <ele>89</ele>
        <time>2023-07-22T10:07:07.215Z</time>
      </trkpt>
      <trkpt lat="47.86639" lon="-2.51622">
        <ele>89</ele>
        <time>2023-07-22T10:07:08.215Z</time>
      </trkpt>
      <trkpt lat="47.8664" lon="-2.51621">
        <ele>89</ele>
        <time>2023-07-22T10:07:09.215Z</time>
      </trkpt>
      <trkpt lat="47.86641" lon="-2.51621">
        <ele>89</ele>
        <time>2023-07-22T10:07:10.215Z</time>
      </trkpt>
      <trkpt lat="47.86642" lon="-2.51621">
        <ele>89</ele>
        <time>2023-07-22T10:07:11.215Z</time>
      </trkpt>
      <trkpt lat="47.86644" lon="-2.51621">
        <ele>89</ele>
        <time>2023-07-22T10:07:12.215Z</time>
      </trkpt>
      <trkpt lat="47.86645" lon="-2.51622">
        <ele>89</ele>
        <time>2023-07-22T10:07:13.215Z</time>
      </trkpt>
      <trkpt lat="47.86646" lon="-2.51622">
        <ele>88</ele>
        <time>2023-07-22T10:07:14.215Z</time>
      </trkpt>
      <trkpt lat="47.86647" lon="-2.51621">
        <ele>88</ele>
        <time>2023-07-22T10:07:15.215Z</time>
      </trkpt>
      <trkpt lat="47.86648" lon="-2.51622">
        <ele>88</ele>
        <time>2023-07-22T10:07:16.215Z</time>
      </trkpt>
      <trkpt lat="47.86649" lon="-2.51623">
        <ele>88</ele>
        <time>2023-07-22T10:07:17.215Z</time>
      </trkpt>
      <trkpt lat="47.86649" lon="-2.51624">
        <ele>88</ele>
        <time>2023-07-22T10:07:18.215Z</time>
      </trkpt>
      <trkpt lat="47.86649" lon="-2.51625">
        <ele>88</ele>
        <time>2023-07-22T10:07:19.215Z</time>
      </trkpt>
      <trkpt lat="47.8665" lon="-2.51626">
        <ele>87</ele>
        <time>2023-07-22T10:07:20.215Z</time>
      </trkpt>
      <trkpt lat="47.86651" lon="-2.51627">
        <ele>87</ele>
        <time>2023-07-22T10:07:21.215Z</time>
      </trkpt>
      <trkpt lat="47.86652" lon="-2.51628">
        <ele>87</ele>
        <time>2023-07-22T10:07:22.215Z</time>
      </trkpt>
      <trkpt lat="47.86652" lon="-2.51628">
        <ele>87</ele>
        <time>2023-07-22T10:07:23.215Z</time>
      </trkpt>
      <trkpt lat="47.86653" lon="-2.51629">
        <ele>87</ele>
        <time>2023-07-22T10:07:24.215Z</time>
      </trkpt>
      <trkpt lat="47.86654" lon="-2.51629">
        <ele>87</ele>
        <time>2023-07-22T10:07:25.215Z</time>
      </trkpt>
      <trkpt lat="47.86654" lon="-2.5163">
        <ele>87</ele>
        <time>2023-07-22T10:07:26.215Z</time>
      </trkpt>
      <trkpt lat="47.86655" lon="-2.51631">
        <ele>87</ele>
        <time>2023-07-22T10:07:27.215Z</time>
      </trkpt>
      <trkpt lat="47.86656" lon="-2.51631">
        <ele>87</ele>
        <time>2023-07-22T10:07:28.215Z</time>
      </trkpt>
      <trkpt lat="47.86657" lon="-2.51632">
        <ele>87</ele>
        <time>2023-07-22T10:07:29.215Z</time>
      </trkpt>
      <trkpt lat="47.86658" lon="-2.51633">
        <ele>87</ele>
        <time>2023-07-22T10:07:30.215Z</time>
      </trkpt>
      <trkpt lat="47.86659" lon="-2.51633">
        <ele>87</ele>
        <time>2023-07-22T10:07:31.215Z</time>
      </trkpt>
      <trkpt lat="47.8666" lon="-2.51634">
        <ele>87</ele>
        <time>2023-07-22T10:07:32.215Z</time>
      </trkpt>
      <trkpt lat="47.8666" lon="-2.51634">
        <ele>87</ele>
        <time>2023-07-22T10:07:33.215Z</time>
      </trkpt>
      <trkpt lat="47.86661" lon="-2.51636">
        <ele>87</ele>
        <time>2023-07-22T10:07:34.215Z</time>
      </trkpt>
      <trkpt lat="47.86662" lon="-2.51636">
        <ele>86</ele>
        <time>2023-07-22T10:07:35.215Z</time>
      </trkpt>
      <trkpt lat="47.86663" lon="-2.51637">
        <ele>86</ele>
        <time>2023-07-22T10:07:36.215Z</time>
      </trkpt>
      <trkpt lat="47.86663" lon="-2.51639">
        <ele>86</ele>
        <time>2023-07-22T10:07:37.215Z</time>
      </trkpt>
      <trkpt lat="47.86665" lon="-2.5164">
        <ele>86</ele>
        <time>2023-07-22T10:07:38.215Z</time>
      </trkpt>
      <trkpt lat="47.86665" lon="-2.51642">
        <ele>86</ele>
        <time>2023-07-22T10:07:39.215Z</time>
      </trkpt>
      <trkpt lat="47.86666" lon="-2.51643">
        <ele>86</ele>
        <time>2023-07-22T10:07:40.215Z</time>
      </trkpt>
      <trkpt lat="47.86667" lon="-2.51644">
        <ele>86</ele>
        <time>2023-07-22T10:07:41.215Z</time>
      </trkpt>
      <trkpt lat="47.86668" lon="-2.51644">
        <ele>86</ele>
        <time>2023-07-22T10:07:42.215Z</time>
      </trkpt>
      <trkpt lat="47.86669" lon="-2.51645">
        <ele>87</ele>
        <time>2023-07-22T10:07:43.215Z</time>
      </trkpt>
      <trkpt lat="47.86669" lon="-2.51645">
        <ele>87</ele>
        <time>2023-07-22T10:07:44.215Z</time>
      </trkpt>
      <trkpt lat="47.8667" lon="-2.51646">
        <ele>87</ele>
        <time>2023-07-22T10:07:45.215Z</time>
      </trkpt>
      <trkpt lat="47.86671" lon="-2.51647">
        <ele>87</ele>
        <time>2023-07-22T10:07:46.215Z</time>
      </trkpt>
      <trkpt lat="47.86672" lon="-2.51648">
        <ele>88</ele>
        <time>2023-07-22T10:07:47.215Z</time>
      </trkpt>
      <trkpt lat="47.86673" lon="-2.51649">
        <ele>88</ele>
        <time>2023-07-22T10:07:48.215Z</time>
      </trkpt>
      <trkpt lat="47.86674" lon="-2.51649">
        <ele>88</ele>
        <time>2023-07-22T10:07:49.215Z</time>
      </trkpt>
      <trkpt lat="47.86675" lon="-2.51651">
        <ele>88</ele>
        <time>2023-07-22T10:07:50.215Z</time>
      </trkpt>
      <trkpt lat="47.86676" lon="-2.51653">
        <ele>88</ele>
        <time>2023-07-22T10:07:51.215Z</time>
      </trkpt>
      <trkpt lat="47.86676" lon="-2.51653">
        <ele>88</ele>
        <time>2023-07-22T10:07:52.215Z</time>
      </trkpt>
      <trkpt lat="47.86677" lon="-2.51655">
        <ele>88</ele>
        <time>2023-07-22T10:07:53.215Z</time>
      </trkpt>
      <trkpt lat="47.86678" lon="-2.51656">
        <ele>88</ele>
        <time>2023-07-22T10:07:54.215Z</time>
      </trkpt>
      <trkpt lat="47.86679" lon="-2.51656">
        <ele>88</ele>
        <time>2023-07-22T10:07:55.215Z</time>
      </trkpt>
      <trkpt lat="47.8668" lon="-2.51657">
        <ele>88</ele>
        <time>2023-07-22T10:07:56.215Z</time>
      </trkpt>
      <trkpt lat="47.8668" lon="-2.51658">
        <ele>88</ele>
        <time>2023-07-22T10:07:57.215Z</time>
      </trkpt>
      <trkpt lat="47.86681" lon="-2.51658">
        <ele>88</ele>
        <time>2023-07-22T10:07:58.215Z</time>
      </trkpt>
      <trkpt lat="47.8668" lon="-2.51659">
        <ele>87</ele>
        <time>2023-07-22T10:07:59.215Z</time>
      </trkpt>
      <trkpt lat="47.86681" lon="-2.5166">
        <ele>87</ele>
        <time>2023-07-22T10:08:00.215Z</time>
      </trkpt>
      <trkpt lat="47.86681" lon="-2.51661">
        <ele>87</ele>
        <time>2023-07-22T10:08:01.215Z</time>
      </trkpt>
      <trkpt lat="47.86682" lon="-2.51662">
        <ele>86</ele>
        <time>2023-07-22T10:08:02.215Z</time>
      </trkpt>
      <trkpt lat="47.86682" lon="-2.51664">
        <ele>86</ele>
        <time>2023-07-22T10:08:03.215Z</time>
      </trkpt>
      <trkpt lat="47.86683" lon="-2.51665">
        <ele>85</ele>
        <time>2023-07-22T10:08:04.215Z</time>
      </trkpt>
      <trkpt lat="47.86682" lon="-2.51667">
        <ele>84</ele>
        <time>2023-07-22T10:08:05.215Z</time>
      </trkpt>
      <trkpt lat="47.86683" lon="-2.51668">
        <ele>84</ele>
        <time>2023-07-22T10:08:06.215Z</time>
      </trkpt>
      <trkpt lat="47.86683" lon="-2.51669">
        <ele>83</ele>
        <time>2023-07-22T10:08:07.215Z</time>
      </trkpt>
      <trkpt lat="47.86683" lon="-2.51671">
        <ele>82</ele>
        <time>2023-07-22T10:08:08.215Z</time>
      </trkpt>
      <trkpt lat="47.86684" lon="-2.51672">
        <ele>82</ele>
        <time>2023-07-22T10:08:09.215Z</time>
      </trkpt>
      <trkpt lat="47.86685" lon="-2.51672">
        <ele>82</ele>
        <time>2023-07-22T10:08:10.215Z</time>
      </trkpt>
      <trkpt lat="47.86686" lon="-2.51673">
        <ele>82</ele>
        <time>2023-07-22T10:08:11.215Z</time>
      </trkpt>
      <trkpt lat="47.86686" lon="-2.51674">
        <ele>82</ele>
        <time>2023-07-22T10:08:12.215Z</time>
      </trkpt>
      <trkpt lat="47.86688" lon="-2.51675">
        <ele>82</ele>
        <time>2023-07-22T10:08:13.215Z</time>
      </trkpt>
      <trkpt lat="47.86689" lon="-2.51675">
        <ele>82</ele>
        <time>2023-07-22T10:08:14.215Z</time>
      </trkpt>
      <trkpt lat="47.86691" lon="-2.51677">
        <ele>82</ele>
        <time>2023-07-22T10:08:15.215Z</time>
      </trkpt>
      <trkpt lat="47.86692" lon="-2.51678">
        <ele>82</ele>
        <time>2023-07-22T10:08:16.215Z</time>
      </trkpt>
      <trkpt lat="47.86693" lon="-2.51678">
        <ele>82</ele>
        <time>2023-07-22T10:08:17.215Z</time>
      </trkpt>
      <trkpt lat="47.86694" lon="-2.5168">
        <ele>83</ele>
        <time>2023-07-22T10:08:18.215Z</time>
      </trkpt>
      <trkpt lat="47.86695" lon="-2.5168">
        <ele>83</ele>
        <time>2023-07-22T10:08:19.215Z</time>
      </trkpt>
      <trkpt lat="47.86696" lon="-2.51681">
        <ele>83</ele>
        <time>2023-07-22T10:08:20.215Z</time>
      </trkpt>
      <trkpt lat="47.86698" lon="-2.51682">
        <ele>84</ele>
        <time>2023-07-22T10:08:21.215Z</time>
      </trkpt>
      <trkpt lat="47.86699" lon="-2.51682">
        <ele>85</ele>
        <time>2023-07-22T10:08:22.215Z</time>
      </trkpt>
      <trkpt lat="47.86699" lon="-2.51683">
        <ele>86</ele>
        <time>2023-07-22T10:08:23.215Z</time>
      </trkpt>
      <trkpt lat="47.86701" lon="-2.51683">
        <ele>86</ele>
        <time>2023-07-22T10:08:24.215Z</time>
      </trkpt>
      <trkpt lat="47.86702" lon="-2.51684">
        <ele>87</ele>
        <time>2023-07-22T10:08:25.215Z</time>
      </trkpt>
      <trkpt lat="47.86703" lon="-2.51684">
        <ele>87</ele>
        <time>2023-07-22T10:08:26.215Z</time>
      </trkpt>
      <trkpt lat="47.86704" lon="-2.51685">
        <ele>87</ele>
        <time>2023-07-22T10:08:27.215Z</time>
      </trkpt>
      <trkpt lat="47.86706" lon="-2.51684">
        <ele>88</ele>
        <time>2023-07-22T10:08:28.215Z</time>
      </trkpt>
      <trkpt lat="47.86708" lon="-2.51684">
        <ele>88</ele>
        <time>2023-07-22T10:08:29.215Z</time>
      </trkpt>
      <trkpt lat="47.86708" lon="-2.51687">
        <ele>88</ele>
        <time>2023-07-22T10:08:30.215Z</time>
      </trkpt>
      <trkpt lat="47.8671" lon="-2.51688">
        <ele>88</ele>
        <time>2023-07-22T10:08:31.215Z</time>
      </trkpt>
      <trkpt lat="47.86712" lon="-2.51689">
        <ele>88</ele>
        <time>2023-07-22T10:08:32.215Z</time>
      </trkpt>
      <trkpt lat="47.86713" lon="-2.5169">
        <ele>88</ele>
        <time>2023-07-22T10:08:33.215Z</time>
      </trkpt>
      <trkpt lat="47.86713" lon="-2.51691">
        <ele>88</ele>
        <time>2023-07-22T10:08:34.215Z</time>
      </trkpt>
      <trkpt lat="47.86714" lon="-2.51692">
        <ele>87</ele>
        <time>2023-07-22T10:08:35.215Z</time>
      </trkpt>
      <trkpt lat="47.86715" lon="-2.51692">
        <ele>87</ele>
        <time>2023-07-22T10:08:36.215Z</time>
      </trkpt>
      <trkpt lat="47.86717" lon="-2.51692">
        <ele>87</ele>
        <time>2023-07-22T10:08:37.215Z</time>
      </trkpt>
      <trkpt lat="47.86717" lon="-2.51694">
        <ele>87</ele>
        <time>2023-07-22T10:08:38.215Z</time>
      </trkpt>
      <trkpt lat="47.86716" lon="-2.51695">
        <ele>87</ele>
        <time>2023-07-22T10:08:39.215Z</time>
      </trkpt>
      <trkpt lat="47.86717" lon="-2.51695">
        <ele>87</ele>
        <time>2023-07-22T10:08:40.215Z</time>
      </trkpt>
      <trkpt lat="47.86717" lon="-2.51696">
        <ele>87</ele>
        <time>2023-07-22T10:08:41.215Z</time>
      </trkpt>
      <trkpt lat="47.86717" lon="-2.51697">
        <ele>88</ele>
        <time>2023-07-22T10:08:42.215Z</time>
      </trkpt>
      <trkpt lat="47.86716" lon="-2.51699">
        <ele>88</ele>
        <time>2023-07-22T10:08:43.215Z</time>
      </trkpt>
      <trkpt lat="47.86716" lon="-2.517">
        <ele>88</ele>
        <time>2023-07-22T10:08:44.215Z</time>
      </trkpt>
      <trkpt lat="47.86716" lon="-2.51702">
        <ele>88</ele>
        <time>2023-07-22T10:08:45.215Z</time>
      </trkpt>
      <trkpt lat="47.86716" lon="-2.51702">
        <ele>89</ele>
        <time>2023-07-22T10:08:46.215Z</time>
      </trkpt>
      <trkpt lat="47.86717" lon="-2.51703">
        <ele>89</ele>
        <time>2023-07-22T10:08:47.215Z</time>
      </trkpt>
      <trkpt lat="47.86717" lon="-2.51704">
        <ele>89</ele>
        <time>2023-07-22T10:08:48.215Z</time>
      </trkpt>
      <trkpt lat="47.86717" lon="-2.51704">
        <ele>90</ele>
        <time>2023-07-22T10:08:49.215Z</time>
      </trkpt>
      <trkpt lat="47.86718" lon="-2.5171">
        <ele>92</ele>
        <time>2023-07-22T10:08:58.583Z</time>
      </trkpt>
      <trkpt lat="47.86719" lon="-2.5171">
        <ele>92</ele>
        <time>2023-07-22T10:08:59.583Z</time>
      </trkpt>
      <trkpt lat="47.8672" lon="-2.51711">
        <ele>92</ele>
        <time>2023-07-22T10:09:00.584Z</time>
      </trkpt>
      <trkpt lat="47.86722" lon="-2.5171">
        <ele>92</ele>
        <time>2023-07-22T10:09:01.584Z</time>
      </trkpt>
      <trkpt lat="47.86723" lon="-2.5171">
        <ele>92</ele>
        <time>2023-07-22T10:09:02.584Z</time>
      </trkpt>
      <trkpt lat="47.86725" lon="-2.5171">
        <ele>92</ele>
        <time>2023-07-22T10:09:03.583Z</time>
      </trkpt>
      <trkpt lat="47.86725" lon="-2.51711">
        <ele>92</ele>
        <time>2023-07-22T10:09:04.583Z</time>
      </trkpt>
      <trkpt lat="47.86726" lon="-2.51712">
        <ele>92</ele>
        <time>2023-07-22T10:09:05.583Z</time>
      </trkpt>
      <trkpt lat="47.86727" lon="-2.51712">
        <ele>92</ele>
        <time>2023-07-22T10:09:06.583Z</time>
      </trkpt>
      <trkpt lat="47.86728" lon="-2.51713">
        <ele>92</ele>
        <time>2023-07-22T10:09:07.583Z</time>
      </trkpt>
      <trkpt lat="47.86728" lon="-2.51715">
        <ele>92</ele>
        <time>2023-07-22T10:09:08.584Z</time>
      </trkpt>
      <trkpt lat="47.86728" lon="-2.51715">
        <ele>91</ele>
        <time>2023-07-22T10:09:09.584Z</time>
      </trkpt>
      <trkpt lat="47.86729" lon="-2.51716">
        <ele>91</ele>
        <time>2023-07-22T10:09:10.583Z</time>
      </trkpt>
      <trkpt lat="47.86729" lon="-2.51717">
        <ele>91</ele>
        <time>2023-07-22T10:09:11.583Z</time>
      </trkpt>
      <trkpt lat="47.8673" lon="-2.51718">
        <ele>90</ele>
        <time>2023-07-22T10:09:12.583Z</time>
      </trkpt>
      <trkpt lat="47.8673" lon="-2.51718">
        <ele>90</ele>
        <time>2023-07-22T10:09:13.583Z</time>
      </trkpt>
      <trkpt lat="47.8673" lon="-2.51718">
        <ele>90</ele>
        <time>2023-07-22T10:09:14.583Z</time>
      </trkpt>
      <trkpt lat="47.86729" lon="-2.5172">
        <ele>89</ele>
        <time>2023-07-22T10:09:15.583Z</time>
      </trkpt>
      <trkpt lat="47.86728" lon="-2.51721">
        <ele>89</ele>
        <time>2023-07-22T10:09:16.583Z</time>
      </trkpt>
      <trkpt lat="47.86727" lon="-2.51721">
        <ele>89</ele>
        <time>2023-07-22T10:09:17.583Z</time>
      </trkpt>
      <trkpt lat="47.86727" lon="-2.51721">
        <ele>89</ele>
        <time>2023-07-22T10:09:18.583Z</time>
      </trkpt>
      <trkpt lat="47.86727" lon="-2.51721">
        <ele>88</ele>
        <time>2023-07-22T10:09:19.584Z</time>
      </trkpt>
      <trkpt lat="47.86727" lon="-2.51721">
        <ele>84</ele>
        <time>2023-07-22T10:09:27.837Z</time>
      </trkpt>
      <trkpt lat="47.86727" lon="-2.51721">
        <ele>84</ele>
        <time>2023-07-22T10:09:28.837Z</time>
      </trkpt>
      <trkpt lat="47.86727" lon="-2.51723">
        <ele>84</ele>
        <time>2023-07-22T10:09:29.837Z</time>
      </trkpt>
      <trkpt lat="47.86728" lon="-2.51724">
        <ele>84</ele>
        <time>2023-07-22T10:09:30.836Z</time>
      </trkpt>
      <trkpt lat="47.86729" lon="-2.51723">
        <ele>85</ele>
        <time>2023-07-22T10:09:31.836Z</time>
      </trkpt>
      <trkpt lat="47.8673" lon="-2.51723">
        <ele>85</ele>
        <time>2023-07-22T10:09:32.837Z</time>
      </trkpt>
      <trkpt lat="47.86732" lon="-2.51722">
        <ele>85</ele>
        <time>2023-07-22T10:09:33.836Z</time>
      </trkpt>
      <trkpt lat="47.86733" lon="-2.51721">
        <ele>86</ele>
        <time>2023-07-22T10:09:34.836Z</time>
      </trkpt>
      <trkpt lat="47.86734" lon="-2.51721">
        <ele>86</ele>
        <time>2023-07-22T10:09:35.836Z</time>
      </trkpt>
      <trkpt lat="47.86736" lon="-2.5172">
        <ele>87</ele>
        <time>2023-07-22T10:09:36.837Z</time>
      </trkpt>
      <trkpt lat="47.86737" lon="-2.51721">
        <ele>87</ele>
        <time>2023-07-22T10:09:37.837Z</time>
      </trkpt>
      <trkpt lat="47.86737" lon="-2.51721">
        <ele>88</ele>
        <time>2023-07-22T10:09:38.836Z</time>
      </trkpt>
      <trkpt lat="47.86738" lon="-2.51721">
        <ele>88</ele>
        <time>2023-07-22T10:09:39.836Z</time>
      </trkpt>
      <trkpt lat="47.8674" lon="-2.51721">
        <ele>89</ele>
        <time>2023-07-22T10:09:40.836Z</time>
      </trkpt>
      <trkpt lat="47.86741" lon="-2.51722">
        <ele>89</ele>
        <time>2023-07-22T10:09:41.836Z</time>
      </trkpt>
      <trkpt lat="47.86742" lon="-2.51722">
        <ele>89</ele>
        <time>2023-07-22T10:09:42.837Z</time>
      </trkpt>
      <trkpt lat="47.86744" lon="-2.51722">
        <ele>89</ele>
        <time>2023-07-22T10:09:43.836Z</time>
      </trkpt>
      <trkpt lat="47.86745" lon="-2.51723">
        <ele>90</ele>
        <time>2023-07-22T10:09:44.836Z</time>
      </trkpt>
      <trkpt lat="47.86746" lon="-2.51723">
        <ele>90</ele>
        <time>2023-07-22T10:09:45.836Z</time>
      </trkpt>
      <trkpt lat="47.86746" lon="-2.51724">
        <ele>89</ele>
        <time>2023-07-22T10:09:46.836Z</time>
      </trkpt>
      <trkpt lat="47.86748" lon="-2.51725">
        <ele>89</ele>
        <time>2023-07-22T10:09:47.836Z</time>
      </trkpt>
      <trkpt lat="47.86749" lon="-2.51725">
        <ele>89</ele>
        <time>2023-07-22T10:09:48.836Z</time>
      </trkpt>
      <trkpt lat="47.8675" lon="-2.51725">
        <ele>89</ele>
        <time>2023-07-22T10:09:49.836Z</time>
      </trkpt>
      <trkpt lat="47.86752" lon="-2.51725">
        <ele>88</ele>
        <time>2023-07-22T10:09:50.837Z</time>
      </trkpt>
      <trkpt lat="47.86755" lon="-2.51725">
        <ele>88</ele>
        <time>2023-07-22T10:09:51.837Z</time>
      </trkpt>
      <trkpt lat="47.86756" lon="-2.51726">
        <ele>88</ele>
        <time>2023-07-22T10:09:52.836Z</time>
      </trkpt>
      <trkpt lat="47.86758" lon="-2.51726">
        <ele>87</ele>
        <time>2023-07-22T10:09:53.837Z</time>
      </trkpt>
      <trkpt lat="47.86759" lon="-2.51726">
        <ele>87</ele>
        <time>2023-07-22T10:09:54.836Z</time>
      </trkpt>
      <trkpt lat="47.8676" lon="-2.51726">
        <ele>87</ele>
        <time>2023-07-22T10:09:55.836Z</time>
      </trkpt>
      <trkpt lat="47.86761" lon="-2.51726">
        <ele>87</ele>
        <time>2023-07-22T10:09:56.836Z</time>
      </trkpt>
      <trkpt lat="47.86763" lon="-2.51727">
        <ele>87</ele>
        <time>2023-07-22T10:09:57.837Z</time>
      </trkpt>
      <trkpt lat="47.86764" lon="-2.51729">
        <ele>87</ele>
        <time>2023-07-22T10:09:58.837Z</time>
      </trkpt>
      <trkpt lat="47.86764" lon="-2.5173">
        <ele>87</ele>
        <time>2023-07-22T10:09:59.836Z</time>
      </trkpt>
      <trkpt lat="47.86766" lon="-2.5173">
        <ele>88</ele>
        <time>2023-07-22T10:10:00.837Z</time>
      </trkpt>
      <trkpt lat="47.86766" lon="-2.51731">
        <ele>88</ele>
        <time>2023-07-22T10:10:01.837Z</time>
      </trkpt>
      <trkpt lat="47.86767" lon="-2.51732">
        <ele>88</ele>
        <time>2023-07-22T10:10:02.836Z</time>
      </trkpt>
      <trkpt lat="47.86767" lon="-2.51733">
        <ele>88</ele>
        <time>2023-07-22T10:10:03.837Z</time>
      </trkpt>
      <trkpt lat="47.86768" lon="-2.51734">
        <ele>88</ele>
        <time>2023-07-22T10:10:04.836Z</time>
      </trkpt>
      <trkpt lat="47.86768" lon="-2.51736">
        <ele>88</ele>
        <time>2023-07-22T10:10:05.837Z</time>
      </trkpt>
      <trkpt lat="47.86768" lon="-2.51737">
        <ele>88</ele>
        <time>2023-07-22T10:10:06.836Z</time>
      </trkpt>
      <trkpt lat="47.86768" lon="-2.51738">
        <ele>89</ele>
        <time>2023-07-22T10:10:07.836Z</time>
      </trkpt>
      <trkpt lat="47.86769" lon="-2.5174">
        <ele>89</ele>
        <time>2023-07-22T10:10:08.837Z</time>
      </trkpt>
      <trkpt lat="47.86769" lon="-2.51741">
        <ele>89</ele>
        <time>2023-07-22T10:10:09.836Z</time>
      </trkpt>
      <trkpt lat="47.8677" lon="-2.51741">
        <ele>89</ele>
        <time>2023-07-22T10:10:10.836Z</time>
      </trkpt>
      <trkpt lat="47.8677" lon="-2.51742">
        <ele>90</ele>
        <time>2023-07-22T10:10:11.836Z</time>
      </trkpt>
      <trkpt lat="47.86771" lon="-2.51743">
        <ele>90</ele>
        <time>2023-07-22T10:10:12.837Z</time>
      </trkpt>
      <trkpt lat="47.86771" lon="-2.51743">
        <ele>90</ele>
        <time>2023-07-22T10:10:13.837Z</time>
      </trkpt>
      <trkpt lat="47.86772" lon="-2.51744">
        <ele>90</ele>
        <time>2023-07-22T10:10:14.836Z</time>
      </trkpt>
      <trkpt lat="47.86772" lon="-2.51745">
        <ele>90</ele>
        <time>2023-07-22T10:10:15.836Z</time>
      </trkpt>
      <trkpt lat="47.86773" lon="-2.51746">
        <ele>90</ele>
        <time>2023-07-22T10:10:16.837Z</time>
      </trkpt>
      <trkpt lat="47.86773" lon="-2.51747">
        <ele>91</ele>
        <time>2023-07-22T10:10:17.837Z</time>
      </trkpt>
      <trkpt lat="47.86774" lon="-2.51748">
        <ele>91</ele>
        <time>2023-07-22T10:10:18.837Z</time>
      </trkpt>
      <trkpt lat="47.86774" lon="-2.51748">
        <ele>90</ele>
        <time>2023-07-22T10:10:19.836Z</time>
      </trkpt>
      <trkpt lat="47.86775" lon="-2.51749">
        <ele>90</ele>
        <time>2023-07-22T10:10:20.836Z</time>
      </trkpt>
      <trkpt lat="47.86776" lon="-2.5175">
        <ele>90</ele>
        <time>2023-07-22T10:10:21.836Z</time>
      </trkpt>
      <trkpt lat="47.86777" lon="-2.51749">
        <ele>89</ele>
        <time>2023-07-22T10:10:22.836Z</time>
      </trkpt>
      <trkpt lat="47.86779" lon="-2.51749">
        <ele>89</ele>
        <time>2023-07-22T10:10:23.837Z</time>
      </trkpt>
      <trkpt lat="47.8678" lon="-2.51748">
        <ele>88</ele>
        <time>2023-07-22T10:10:24.836Z</time>
      </trkpt>
      <trkpt lat="47.86781" lon="-2.51747">
        <ele>88</ele>
        <time>2023-07-22T10:10:25.836Z</time>
      </trkpt>
      <trkpt lat="47.86782" lon="-2.51746">
        <ele>88</ele>
        <time>2023-07-22T10:10:26.836Z</time>
      </trkpt>
      <trkpt lat="47.86784" lon="-2.51746">
        <ele>88</ele>
        <time>2023-07-22T10:10:27.836Z</time>
      </trkpt>
      <trkpt lat="47.86785" lon="-2.51744">
        <ele>88</ele>
        <time>2023-07-22T10:10:28.836Z</time>
      </trkpt>
      <trkpt lat="47.86786" lon="-2.51744">
        <ele>88</ele>
        <time>2023-07-22T10:10:29.837Z</time>
      </trkpt>
      <trkpt lat="47.86787" lon="-2.51743">
        <ele>88</ele>
        <time>2023-07-22T10:10:30.837Z</time>
      </trkpt>
      <trkpt lat="47.86789" lon="-2.51743">
        <ele>89</ele>
        <time>2023-07-22T10:10:31.836Z</time>
      </trkpt>
      <trkpt lat="47.86791" lon="-2.51742">
        <ele>89</ele>
        <time>2023-07-22T10:10:32.836Z</time>
      </trkpt>
      <trkpt lat="47.86793" lon="-2.51742">
        <ele>89</ele>
        <time>2023-07-22T10:10:33.837Z</time>
      </trkpt>
      <trkpt lat="47.86795" lon="-2.51742">
        <ele>89</ele>
        <time>2023-07-22T10:10:34.836Z</time>
      </trkpt>
      <trkpt lat="47.86798" lon="-2.51741">
        <ele>89</ele>
        <time>2023-07-22T10:10:35.837Z</time>
      </trkpt>
      <trkpt lat="47.86799" lon="-2.5174">
        <ele>90</ele>
        <time>2023-07-22T10:10:36.836Z</time>
      </trkpt>
      <trkpt lat="47.868" lon="-2.51739">
        <ele>90</ele>
        <time>2023-07-22T10:10:37.836Z</time>
      </trkpt>
      <trkpt lat="47.86801" lon="-2.51738">
        <ele>90</ele>
        <time>2023-07-22T10:10:38.837Z</time>
      </trkpt>
      <trkpt lat="47.86803" lon="-2.51737">
        <ele>90</ele>
        <time>2023-07-22T10:10:39.836Z</time>
      </trkpt>
      <trkpt lat="47.86805" lon="-2.51737">
        <ele>90</ele>
        <time>2023-07-22T10:10:40.836Z</time>
      </trkpt>
      <trkpt lat="47.86807" lon="-2.51738">
        <ele>90</ele>
        <time>2023-07-22T10:10:41.836Z</time>
      </trkpt>
      <trkpt lat="47.86807" lon="-2.51739">
        <ele>90</ele>
        <time>2023-07-22T10:10:42.837Z</time>
      </trkpt>
      <trkpt lat="47.86807" lon="-2.51739">
        <ele>90</ele>
        <time>2023-07-22T10:10:43.836Z</time>
      </trkpt>
      <trkpt lat="47.86807" lon="-2.51739">
        <ele>90</ele>
        <time>2023-07-22T10:10:44.836Z</time>
      </trkpt>
      <trkpt lat="47.86807" lon="-2.5174">
        <ele>91</ele>
        <time>2023-07-22T10:10:45.837Z</time>
      </trkpt>
      <trkpt lat="47.86808" lon="-2.51741">
        <ele>91</ele>
        <time>2023-07-22T10:10:46.837Z</time>
      </trkpt>
      <trkpt lat="47.86809" lon="-2.5174">
        <ele>91</ele>
        <time>2023-07-22T10:10:47.837Z</time>
      </trkpt>
      <trkpt lat="47.86811" lon="-2.51739">
        <ele>90</ele>
        <time>2023-07-22T10:10:48.837Z</time>
      </trkpt>
      <trkpt lat="47.86811" lon="-2.51739">
        <ele>90</ele>
        <time>2023-07-22T10:10:49.836Z</time>
      </trkpt>
      <trkpt lat="47.86812" lon="-2.51739">
        <ele>90</ele>
        <time>2023-07-22T10:10:50.836Z</time>
      </trkpt>
      <trkpt lat="47.86812" lon="-2.51739">
        <ele>89</ele>
        <time>2023-07-22T10:10:51.836Z</time>
      </trkpt>
      <trkpt lat="47.86812" lon="-2.51738">
        <ele>89</ele>
        <time>2023-07-22T10:10:52.837Z</time>
      </trkpt>
      <trkpt lat="47.86812" lon="-2.51738">
        <ele>89</ele>
        <time>2023-07-22T10:10:53.836Z</time>
      </trkpt>
      <trkpt lat="47.86813" lon="-2.51738">
        <ele>88</ele>
        <time>2023-07-22T10:10:54.836Z</time>
      </trkpt>
      <trkpt lat="47.86815" lon="-2.51737">
        <ele>88</ele>
        <time>2023-07-22T10:10:55.837Z</time>
      </trkpt>
      <trkpt lat="47.86815" lon="-2.51737">
        <ele>88</ele>
        <time>2023-07-22T10:10:56.836Z</time>
      </trkpt>
      <trkpt lat="47.86817" lon="-2.51738">
        <ele>88</ele>
        <time>2023-07-22T10:10:57.836Z</time>
      </trkpt>
      <trkpt lat="47.86818" lon="-2.51738">
        <ele>87</ele>
        <time>2023-07-22T10:10:58.836Z</time>
      </trkpt>
      <trkpt lat="47.8682" lon="-2.51737">
        <ele>87</ele>
        <time>2023-07-22T10:10:59.836Z</time>
      </trkpt>
      <trkpt lat="47.86822" lon="-2.51737">
        <ele>87</ele>
        <time>2023-07-22T10:11:00.837Z</time>
      </trkpt>
      <trkpt lat="47.86824" lon="-2.51736">
        <ele>87</ele>
        <time>2023-07-22T10:11:01.836Z</time>
      </trkpt>
      <trkpt lat="47.86826" lon="-2.51736">
        <ele>87</ele>
        <time>2023-07-22T10:11:02.836Z</time>
      </trkpt>
      <trkpt lat="47.86826" lon="-2.51736">
        <ele>87</ele>
        <time>2023-07-22T10:11:03.836Z</time>
      </trkpt>
      <trkpt lat="47.86827" lon="-2.51736">
        <ele>87</ele>
        <time>2023-07-22T10:11:04.836Z</time>
      </trkpt>
      <trkpt lat="47.86826" lon="-2.51737">
        <ele>87</ele>
        <time>2023-07-22T10:11:05.836Z</time>
      </trkpt>
      <trkpt lat="47.86825" lon="-2.51736">
        <ele>87</ele>
        <time>2023-07-22T10:11:06.837Z</time>
      </trkpt>
      <trkpt lat="47.86829" lon="-2.51736">
        <ele>89</ele>
        <time>2023-07-22T10:11:13.260Z</time>
      </trkpt>
      <trkpt lat="47.86831" lon="-2.51737">
        <ele>90</ele>
        <time>2023-07-22T10:11:14.260Z</time>
      </trkpt>
      <trkpt lat="47.86832" lon="-2.51737">
        <ele>90</ele>
        <time>2023-07-22T10:11:15.260Z</time>
      </trkpt>
      <trkpt lat="47.86833" lon="-2.51736">
        <ele>91</ele>
        <time>2023-07-22T10:11:16.259Z</time>
      </trkpt>
      <trkpt lat="47.86834" lon="-2.51736">
        <ele>92</ele>
        <time>2023-07-22T10:11:17.260Z</time>
      </trkpt>
      <trkpt lat="47.86836" lon="-2.51736">
        <ele>92</ele>
        <time>2023-07-22T10:11:18.260Z</time>
      </trkpt>
      <trkpt lat="47.86839" lon="-2.51736">
        <ele>93</ele>
        <time>2023-07-22T10:11:19.259Z</time>
      </trkpt>
      <trkpt lat="47.86839" lon="-2.51735">
        <ele>93</ele>
        <time>2023-07-22T10:11:20.259Z</time>
      </trkpt>
      <trkpt lat="47.86841" lon="-2.51735">
        <ele>93</ele>
        <time>2023-07-22T10:11:21.259Z</time>
      </trkpt>
      <trkpt lat="47.86841" lon="-2.51735">
        <ele>93</ele>
        <time>2023-07-22T10:11:22.259Z</time>
      </trkpt>
      <trkpt lat="47.86842" lon="-2.51735">
        <ele>94</ele>
        <time>2023-07-22T10:11:23.260Z</time>
      </trkpt>
      <trkpt lat="47.86843" lon="-2.51736">
        <ele>94</ele>
        <time>2023-07-22T10:11:24.260Z</time>
      </trkpt>
      <trkpt lat="47.86845" lon="-2.51736">
        <ele>94</ele>
        <time>2023-07-22T10:11:25.259Z</time>
      </trkpt>
      <trkpt lat="47.86845" lon="-2.51736">
        <ele>95</ele>
        <time>2023-07-22T10:11:26.260Z</time>
      </trkpt>
      <trkpt lat="47.86845" lon="-2.51736">
        <ele>95</ele>
        <time>2023-07-22T10:11:27.259Z</time>
      </trkpt>
      <trkpt lat="47.86847" lon="-2.51736">
        <ele>95</ele>
        <time>2023-07-22T10:11:28.260Z</time>
      </trkpt>
      <trkpt lat="47.86847" lon="-2.51737">
        <ele>94</ele>
        <time>2023-07-22T10:11:29.259Z</time>
      </trkpt>
      <trkpt lat="47.86847" lon="-2.51737">
        <ele>94</ele>
        <time>2023-07-22T10:11:30.260Z</time>
      </trkpt>
      <trkpt lat="47.86848" lon="-2.51737">
        <ele>90</ele>
        <time>2023-07-22T10:11:38.354Z</time>
      </trkpt>
      <trkpt lat="47.86848" lon="-2.51737">
        <ele>90</ele>
        <time>2023-07-22T10:11:39.354Z</time>
      </trkpt>
      <trkpt lat="47.86848" lon="-2.51737">
        <ele>90</ele>
        <time>2023-07-22T10:11:40.355Z</time>
      </trkpt>
      <trkpt lat="47.86848" lon="-2.51738">
        <ele>89</ele>
        <time>2023-07-22T10:11:41.354Z</time>
      </trkpt>
      <trkpt lat="47.86851" lon="-2.51738">
        <ele>89</ele>
        <time>2023-07-22T10:11:42.354Z</time>
      </trkpt>
      <trkpt lat="47.86853" lon="-2.51737">
        <ele>90</ele>
        <time>2023-07-22T10:11:43.355Z</time>
      </trkpt>
      <trkpt lat="47.86854" lon="-2.51737">
        <ele>90</ele>
        <time>2023-07-22T10:11:44.354Z</time>
      </trkpt>
      <trkpt lat="47.86856" lon="-2.51737">
        <ele>91</ele>
        <time>2023-07-22T10:11:45.355Z</time>
      </trkpt>
      <trkpt lat="47.86857" lon="-2.51737">
        <ele>91</ele>
        <time>2023-07-22T10:11:46.354Z</time>
      </trkpt>
      <trkpt lat="47.86857" lon="-2.51737">
        <ele>91</ele>
        <time>2023-07-22T10:11:47.354Z</time>
      </trkpt>
      <trkpt lat="47.86858" lon="-2.51738">
        <ele>92</ele>
        <time>2023-07-22T10:11:48.354Z</time>
      </trkpt>
      <trkpt lat="47.86858" lon="-2.51738">
        <ele>92</ele>
        <time>2023-07-22T10:11:49.354Z</time>
      </trkpt>
      <trkpt lat="47.86858" lon="-2.51738">
        <ele>92</ele>
        <time>2023-07-22T10:11:50.354Z</time>
      </trkpt>
      <trkpt lat="47.86859" lon="-2.51738">
        <ele>93</ele>
        <time>2023-07-22T10:11:51.354Z</time>
      </trkpt>
      <trkpt lat="47.86859" lon="-2.51739">
        <ele>93</ele>
        <time>2023-07-22T10:11:52.355Z</time>
      </trkpt>
      <trkpt lat="47.86859" lon="-2.5174">
        <ele>93</ele>
        <time>2023-07-22T10:11:53.355Z</time>
      </trkpt>
      <trkpt lat="47.8686" lon="-2.51741">
        <ele>93</ele>
        <time>2023-07-22T10:11:54.355Z</time>
      </trkpt>
      <trkpt lat="47.8686" lon="-2.51742">
        <ele>93</ele>
        <time>2023-07-22T10:11:55.354Z</time>
      </trkpt>
      <trkpt lat="47.8686" lon="-2.51743">
        <ele>94</ele>
        <time>2023-07-22T10:11:56.354Z</time>
      </trkpt>
      <trkpt lat="47.8686" lon="-2.51744">
        <ele>94</ele>
        <time>2023-07-22T10:11:57.355Z</time>
      </trkpt>
      <trkpt lat="47.8686" lon="-2.51745">
        <ele>94</ele>
        <time>2023-07-22T10:11:58.354Z</time>
      </trkpt>
      <trkpt lat="47.86861" lon="-2.51745">
        <ele>94</ele>
        <time>2023-07-22T10:11:59.354Z</time>
      </trkpt>
      <trkpt lat="47.86862" lon="-2.51745">
        <ele>94</ele>
        <time>2023-07-22T10:12:00.355Z</time>
      </trkpt>
      <trkpt lat="47.86863" lon="-2.51746">
        <ele>95</ele>
        <time>2023-07-22T10:12:01.354Z</time>
      </trkpt>
      <trkpt lat="47.86864" lon="-2.51746">
        <ele>95</ele>
        <time>2023-07-22T10:12:02.355Z</time>
      </trkpt>
      <trkpt lat="47.86864" lon="-2.51747">
        <ele>94</ele>
        <time>2023-07-22T10:12:03.355Z</time>
      </trkpt>
      <trkpt lat="47.86865" lon="-2.51748">
        <ele>94</ele>
        <time>2023-07-22T10:12:04.355Z</time>
      </trkpt>
      <trkpt lat="47.86866" lon="-2.5175">
        <ele>94</ele>
        <time>2023-07-22T10:12:05.354Z</time>
      </trkpt>
      <trkpt lat="47.86867" lon="-2.51751">
        <ele>94</ele>
        <time>2023-07-22T10:12:06.355Z</time>
      </trkpt>
      <trkpt lat="47.86868" lon="-2.51752">
        <ele>94</ele>
        <time>2023-07-22T10:12:07.355Z</time>
      </trkpt>
      <trkpt lat="47.86868" lon="-2.51752">
        <ele>94</ele>
        <time>2023-07-22T10:12:08.354Z</time>
      </trkpt>
      <trkpt lat="47.86869" lon="-2.51753">
        <ele>94</ele>
        <time>2023-07-22T10:12:09.354Z</time>
      </trkpt>
      <trkpt lat="47.8687" lon="-2.51754">
        <ele>94</ele>
        <time>2023-07-22T10:12:10.354Z</time>
      </trkpt>
      <trkpt lat="47.8687" lon="-2.51755">
        <ele>93</ele>
        <time>2023-07-22T10:12:11.355Z</time>
      </trkpt>
      <trkpt lat="47.86871" lon="-2.51757">
        <ele>93</ele>
        <time>2023-07-22T10:12:12.354Z</time>
      </trkpt>
      <trkpt lat="47.86872" lon="-2.51759">
        <ele>92</ele>
        <time>2023-07-22T10:12:13.354Z</time>
      </trkpt>
      <trkpt lat="47.86873" lon="-2.51761">
        <ele>92</ele>
        <time>2023-07-22T10:12:14.355Z</time>
      </trkpt>
      <trkpt lat="47.86875" lon="-2.51764">
        <ele>91</ele>
        <time>2023-07-22T10:12:15.354Z</time>
      </trkpt>
      <trkpt lat="47.86876" lon="-2.51765">
        <ele>91</ele>
        <time>2023-07-22T10:12:16.355Z</time>
      </trkpt>
      <trkpt lat="47.86878" lon="-2.51766">
        <ele>91</ele>
        <time>2023-07-22T10:12:17.354Z</time>
      </trkpt>
      <trkpt lat="47.86879" lon="-2.51767">
        <ele>91</ele>
        <time>2023-07-22T10:12:18.354Z</time>
      </trkpt>
      <trkpt lat="47.86881" lon="-2.51768">
        <ele>91</ele>
        <time>2023-07-22T10:12:19.354Z</time>
      </trkpt>
      <trkpt lat="47.86882" lon="-2.51769">
        <ele>91</ele>
        <time>2023-07-22T10:12:20.355Z</time>
      </trkpt>
      <trkpt lat="47.86884" lon="-2.5177">
        <ele>91</ele>
        <time>2023-07-22T10:12:21.355Z</time>
      </trkpt>
      <trkpt lat="47.86886" lon="-2.51771">
        <ele>91</ele>
        <time>2023-07-22T10:12:22.354Z</time>
      </trkpt>
      <trkpt lat="47.86888" lon="-2.51772">
        <ele>91</ele>
        <time>2023-07-22T10:12:23.354Z</time>
      </trkpt>
      <trkpt lat="47.86891" lon="-2.51772">
        <ele>91</ele>
        <time>2023-07-22T10:12:24.355Z</time>
      </trkpt>
      <trkpt lat="47.86894" lon="-2.51772">
        <ele>92</ele>
        <time>2023-07-22T10:12:25.355Z</time>
      </trkpt>
      <trkpt lat="47.86897" lon="-2.51772">
        <ele>93</ele>
        <time>2023-07-22T10:12:26.354Z</time>
      </trkpt>
      <trkpt lat="47.869" lon="-2.51771">
        <ele>94</ele>
        <time>2023-07-22T10:12:27.355Z</time>
      </trkpt>
      <trkpt lat="47.86903" lon="-2.5177">
        <ele>94</ele>
        <time>2023-07-22T10:12:28.354Z</time>
      </trkpt>
      <trkpt lat="47.86906" lon="-2.51769">
        <ele>95</ele>
        <time>2023-07-22T10:12:29.355Z</time>
      </trkpt>
      <trkpt lat="47.86909" lon="-2.51767">
        <ele>95</ele>
        <time>2023-07-22T10:12:30.354Z</time>
      </trkpt>
      <trkpt lat="47.86912" lon="-2.51766">
        <ele>96</ele>
        <time>2023-07-22T10:12:31.354Z</time>
      </trkpt>
      <trkpt lat="47.86914" lon="-2.51765">
        <ele>97</ele>
        <time>2023-07-22T10:12:32.354Z</time>
      </trkpt>
      <trkpt lat="47.86916" lon="-2.51763">
        <ele>97</ele>
        <time>2023-07-22T10:12:33.354Z</time>
      </trkpt>
      <trkpt lat="47.86918" lon="-2.51762">
        <ele>97</ele>
        <time>2023-07-22T10:12:34.354Z</time>
      </trkpt>
      <trkpt lat="47.86919" lon="-2.51761">
        <ele>98</ele>
        <time>2023-07-22T10:12:35.355Z</time>
      </trkpt>
      <trkpt lat="47.8692" lon="-2.51761">
        <ele>98</ele>
        <time>2023-07-22T10:12:36.354Z</time>
      </trkpt>
      <trkpt lat="47.86921" lon="-2.5176">
        <ele>99</ele>
        <time>2023-07-22T10:12:37.355Z</time>
      </trkpt>
      <trkpt lat="47.86921" lon="-2.5176">
        <ele>99</ele>
        <time>2023-07-22T10:12:38.355Z</time>
      </trkpt>
      <trkpt lat="47.86922" lon="-2.51761">
        <ele>99</ele>
        <time>2023-07-22T10:12:39.355Z</time>
      </trkpt>
      <trkpt lat="47.86921" lon="-2.51761">
        <ele>99</ele>
        <time>2023-07-22T10:12:40.355Z</time>
      </trkpt>
      <trkpt lat="47.86921" lon="-2.51762">
        <ele>99</ele>
        <time>2023-07-22T10:12:41.354Z</time>
      </trkpt>
      <trkpt lat="47.86922" lon="-2.51763">
        <ele>99</ele>
        <time>2023-07-22T10:12:42.354Z</time>
      </trkpt>
      <trkpt lat="47.86924" lon="-2.51761">
        <ele>99</ele>
        <time>2023-07-22T10:12:43.354Z</time>
      </trkpt>
      <trkpt lat="47.86925" lon="-2.5176">
        <ele>99</ele>
        <time>2023-07-22T10:12:44.354Z</time>
      </trkpt>
      <trkpt lat="47.86927" lon="-2.51758">
        <ele>99</ele>
        <time>2023-07-22T10:12:45.355Z</time>
      </trkpt>
      <trkpt lat="47.86929" lon="-2.51756">
        <ele>99</ele>
        <time>2023-07-22T10:12:46.354Z</time>
      </trkpt>
      <trkpt lat="47.86931" lon="-2.51754">
        <ele>99</ele>
        <time>2023-07-22T10:12:47.354Z</time>
      </trkpt>
      <trkpt lat="47.86932" lon="-2.51753">
        <ele>99</ele>
        <time>2023-07-22T10:12:48.355Z</time>
      </trkpt>
      <trkpt lat="47.86933" lon="-2.51752">
        <ele>99</ele>
        <time>2023-07-22T10:12:49.354Z</time>
      </trkpt>
      <trkpt lat="47.86933" lon="-2.51751">
        <ele>99</ele>
        <time>2023-07-22T10:12:50.355Z</time>
      </trkpt>
      <trkpt lat="47.86935" lon="-2.51749">
        <ele>100</ele>
        <time>2023-07-22T10:12:51.354Z</time>
      </trkpt>
      <trkpt lat="47.86936" lon="-2.51748">
        <ele>100</ele>
        <time>2023-07-22T10:12:52.355Z</time>
      </trkpt>
      <trkpt lat="47.86936" lon="-2.51746">
        <ele>100</ele>
        <time>2023-07-22T10:12:53.354Z</time>
      </trkpt>
      <trkpt lat="47.86936" lon="-2.51745">
        <ele>100</ele>
        <time>2023-07-22T10:12:54.355Z</time>
      </trkpt>
      <trkpt lat="47.86936" lon="-2.51745">
        <ele>100</ele>
        <time>2023-07-22T10:12:55.354Z</time>
      </trkpt>
      <trkpt lat="47.86936" lon="-2.51744">
        <ele>100</ele>
        <time>2023-07-22T10:12:56.355Z</time>
      </trkpt>
      <trkpt lat="47.86937" lon="-2.51743">
        <ele>100</ele>
        <time>2023-07-22T10:12:57.354Z</time>
      </trkpt>
      <trkpt lat="47.86937" lon="-2.51743">
        <ele>100</ele>
        <time>2023-07-22T10:12:58.355Z</time>
      </trkpt>
      <trkpt lat="47.86937" lon="-2.51743">
        <ele>100</ele>
        <time>2023-07-22T10:12:59.354Z</time>
      </trkpt>
      <trkpt lat="47.86935" lon="-2.51749">
        <ele>99</ele>
        <time>2023-07-22T10:13:05.766Z</time>
      </trkpt>
      <trkpt lat="47.86935" lon="-2.51751">
        <ele>99</ele>
        <time>2023-07-22T10:13:06.766Z</time>
      </trkpt>
      <trkpt lat="47.86936" lon="-2.51752">
        <ele>98</ele>
        <time>2023-07-22T10:13:07.767Z</time>
      </trkpt>
      <trkpt lat="47.86937" lon="-2.51754">
        <ele>98</ele>
        <time>2023-07-22T10:13:08.766Z</time>
      </trkpt>
      <trkpt lat="47.86938" lon="-2.51755">
        <ele>98</ele>
        <time>2023-07-22T10:13:09.766Z</time>
      </trkpt>
      <trkpt lat="47.86939" lon="-2.51756">
        <ele>99</ele>
        <time>2023-07-22T10:13:10.767Z</time>
      </trkpt>
      <trkpt lat="47.8694" lon="-2.51756">
        <ele>99</ele>
        <time>2023-07-22T10:13:11.766Z</time>
      </trkpt>
      <trkpt lat="47.8694" lon="-2.51757">
        <ele>99</ele>
        <time>2023-07-22T10:13:12.766Z</time>
      </trkpt>
      <trkpt lat="47.86941" lon="-2.51758">
        <ele>100</ele>
        <time>2023-07-22T10:13:13.766Z</time>
      </trkpt>
      <trkpt lat="47.86941" lon="-2.51758">
        <ele>100</ele>
        <time>2023-07-22T10:13:14.766Z</time>
      </trkpt>
      <trkpt lat="47.86942" lon="-2.51759">
        <ele>100</ele>
        <time>2023-07-22T10:13:15.767Z</time>
      </trkpt>
      <trkpt lat="47.86942" lon="-2.5176">
        <ele>100</ele>
        <time>2023-07-22T10:13:16.766Z</time>
      </trkpt>
      <trkpt lat="47.86943" lon="-2.51761">
        <ele>100</ele>
        <time>2023-07-22T10:13:17.766Z</time>
      </trkpt>
      <trkpt lat="47.86944" lon="-2.51762">
        <ele>100</ele>
        <time>2023-07-22T10:13:18.766Z</time>
      </trkpt>
      <trkpt lat="47.86945" lon="-2.51763">
        <ele>100</ele>
        <time>2023-07-22T10:13:19.766Z</time>
      </trkpt>
      <trkpt lat="47.86945" lon="-2.51764">
        <ele>100</ele>
        <time>2023-07-22T10:13:20.766Z</time>
      </trkpt>
      <trkpt lat="47.86946" lon="-2.51765">
        <ele>100</ele>
        <time>2023-07-22T10:13:21.767Z</time>
      </trkpt>
      <trkpt lat="47.86947" lon="-2.51766">
        <ele>100</ele>
        <time>2023-07-22T10:13:22.767Z</time>
      </trkpt>
      <trkpt lat="47.86947" lon="-2.51767">
        <ele>100</ele>
        <time>2023-07-22T10:13:23.766Z</time>
      </trkpt>
      <trkpt lat="47.86948" lon="-2.51768">
        <ele>100</ele>
        <time>2023-07-22T10:13:24.766Z</time>
      </trkpt>
      <trkpt lat="47.86948" lon="-2.5177">
        <ele>100</ele>
        <time>2023-07-22T10:13:25.766Z</time>
      </trkpt>
      <trkpt lat="47.86947" lon="-2.51772">
        <ele>99</ele>
        <time>2023-07-22T10:13:26.766Z</time>
      </trkpt>
      <trkpt lat="47.86946" lon="-2.51775">
        <ele>99</ele>
        <time>2023-07-22T10:13:27.766Z</time>
      </trkpt>
      <trkpt lat="47.86946" lon="-2.51778">
        <ele>99</ele>
        <time>2023-07-22T10:13:28.766Z</time>
      </trkpt>
      <trkpt lat="47.86946" lon="-2.5178">
        <ele>98</ele>
        <time>2023-07-22T10:13:29.767Z</time>
      </trkpt>
      <trkpt lat="47.86947" lon="-2.51782">
        <ele>98</ele>
        <time>2023-07-22T10:13:30.766Z</time>
      </trkpt>
      <trkpt lat="47.86947" lon="-2.51784">
        <ele>98</ele>
        <time>2023-07-22T10:13:31.766Z</time>
      </trkpt>
      <trkpt lat="47.86949" lon="-2.51785">
        <ele>98</ele>
        <time>2023-07-22T10:13:32.766Z</time>
      </trkpt>
      <trkpt lat="47.8695" lon="-2.51786">
        <ele>99</ele>
        <time>2023-07-22T10:13:33.766Z</time>
      </trkpt>
      <trkpt lat="47.86951" lon="-2.51787">
        <ele>99</ele>
        <time>2023-07-22T10:13:34.766Z</time>
      </trkpt>
      <trkpt lat="47.86951" lon="-2.51787">
        <ele>99</ele>
        <time>2023-07-22T10:13:35.766Z</time>
      </trkpt>
      <trkpt lat="47.86951" lon="-2.51788">
        <ele>100</ele>
        <time>2023-07-22T10:13:36.766Z</time>
      </trkpt>
      <trkpt lat="47.86952" lon="-2.51789">
        <ele>101</ele>
        <time>2023-07-22T10:13:37.766Z</time>
      </trkpt>
      <trkpt lat="47.86952" lon="-2.51789">
        <ele>101</ele>
        <time>2023-07-22T10:13:38.766Z</time>
      </trkpt>
      <trkpt lat="47.86953" lon="-2.5179">
        <ele>102</ele>
        <time>2023-07-22T10:13:39.766Z</time>
      </trkpt>
      <trkpt lat="47.86953" lon="-2.5179">
        <ele>102</ele>
        <time>2023-07-22T10:13:40.766Z</time>
      </trkpt>
      <trkpt lat="47.86953" lon="-2.51791">
        <ele>103</ele>
        <time>2023-07-22T10:13:41.766Z</time>
      </trkpt>
      <trkpt lat="47.86954" lon="-2.51792">
        <ele>103</ele>
        <time>2023-07-22T10:13:42.766Z</time>
      </trkpt>
      <trkpt lat="47.86954" lon="-2.51793">
        <ele>103</ele>
        <time>2023-07-22T10:13:43.766Z</time>
      </trkpt>
      <trkpt lat="47.86955" lon="-2.51794">
        <ele>104</ele>
        <time>2023-07-22T10:13:44.766Z</time>
      </trkpt>
      <trkpt lat="47.86956" lon="-2.51795">
        <ele>104</ele>
        <time>2023-07-22T10:13:45.766Z</time>
      </trkpt>
      <trkpt lat="47.86958" lon="-2.51796">
        <ele>104</ele>
        <time>2023-07-22T10:13:46.766Z</time>
      </trkpt>
      <trkpt lat="47.86958" lon="-2.51796">
        <ele>103</ele>
        <time>2023-07-22T10:13:47.766Z</time>
      </trkpt>
      <trkpt lat="47.86959" lon="-2.51797">
        <ele>103</ele>
        <time>2023-07-22T10:13:48.767Z</time>
      </trkpt>
      <trkpt lat="47.86958" lon="-2.51799">
        <ele>102</ele>
        <time>2023-07-22T10:13:49.766Z</time>
      </trkpt>
      <trkpt lat="47.86958" lon="-2.51801">
        <ele>102</ele>
        <time>2023-07-22T10:13:50.766Z</time>
      </trkpt>
      <trkpt lat="47.86958" lon="-2.51804">
        <ele>101</ele>
        <time>2023-07-22T10:13:51.766Z</time>
      </trkpt>
      <trkpt lat="47.8696" lon="-2.51804">
        <ele>100</ele>
        <time>2023-07-22T10:13:52.766Z</time>
      </trkpt>
      <trkpt lat="47.86961" lon="-2.51805">
        <ele>100</ele>
        <time>2023-07-22T10:13:53.766Z</time>
      </trkpt>
      <trkpt lat="47.86962" lon="-2.51806">
        <ele>99</ele>
        <time>2023-07-22T10:13:54.766Z</time>
      </trkpt>
      <trkpt lat="47.86962" lon="-2.51806">
        <ele>99</ele>
        <time>2023-07-22T10:13:55.767Z</time>
      </trkpt>
      <trkpt lat="47.86963" lon="-2.51807">
        <ele>99</ele>
        <time>2023-07-22T10:13:56.767Z</time>
      </trkpt>
      <trkpt lat="47.86963" lon="-2.51808">
        <ele>98</ele>
        <time>2023-07-22T10:13:57.766Z</time>
      </trkpt>
      <trkpt lat="47.86963" lon="-2.51809">
        <ele>98</ele>
        <time>2023-07-22T10:13:58.766Z</time>
      </trkpt>
      <trkpt lat="47.86963" lon="-2.5181">
        <ele>97</ele>
        <time>2023-07-22T10:13:59.766Z</time>
      </trkpt>
      <trkpt lat="47.86965" lon="-2.51811">
        <ele>97</ele>
        <time>2023-07-22T10:14:00.767Z</time>
      </trkpt>
      <trkpt lat="47.86967" lon="-2.51812">
        <ele>97</ele>
        <time>2023-07-22T10:14:01.767Z</time>
      </trkpt>
      <trkpt lat="47.86968" lon="-2.51813">
        <ele>98</ele>
        <time>2023-07-22T10:14:02.767Z</time>
      </trkpt>
      <trkpt lat="47.86969" lon="-2.51814">
        <ele>98</ele>
        <time>2023-07-22T10:14:03.767Z</time>
      </trkpt>
      <trkpt lat="47.8697" lon="-2.51814">
        <ele>99</ele>
        <time>2023-07-22T10:14:04.766Z</time>
      </trkpt>
      <trkpt lat="47.86971" lon="-2.51815">
        <ele>100</ele>
        <time>2023-07-22T10:14:05.766Z</time>
      </trkpt>
      <trkpt lat="47.86972" lon="-2.51816">
        <ele>101</ele>
        <time>2023-07-22T10:14:06.767Z</time>
      </trkpt>
      <trkpt lat="47.86973" lon="-2.51816">
        <ele>101</ele>
        <time>2023-07-22T10:14:07.766Z</time>
      </trkpt>
      <trkpt lat="47.86973" lon="-2.51817">
        <ele>102</ele>
        <time>2023-07-22T10:14:08.766Z</time>
      </trkpt>
      <trkpt lat="47.86973" lon="-2.51818">
        <ele>102</ele>
        <time>2023-07-22T10:14:09.766Z</time>
      </trkpt>
      <trkpt lat="47.86974" lon="-2.51818">
        <ele>102</ele>
        <time>2023-07-22T10:14:10.766Z</time>
      </trkpt>
      <trkpt lat="47.86975" lon="-2.51819">
        <ele>103</ele>
        <time>2023-07-22T10:14:11.767Z</time>
      </trkpt>
      <trkpt lat="47.86977" lon="-2.51819">
        <ele>103</ele>
        <time>2023-07-22T10:14:12.766Z</time>
      </trkpt>
      <trkpt lat="47.86978" lon="-2.5182">
        <ele>104</ele>
        <time>2023-07-22T10:14:13.766Z</time>
      </trkpt>
      <trkpt lat="47.8698" lon="-2.5182">
        <ele>104</ele>
        <time>2023-07-22T10:14:14.766Z</time>
      </trkpt>
      <trkpt lat="47.86983" lon="-2.51818">
        <ele>105</ele>
        <time>2023-07-22T10:14:15.766Z</time>
      </trkpt>
      <trkpt lat="47.86985" lon="-2.51817">
        <ele>105</ele>
        <time>2023-07-22T10:14:16.766Z</time>
      </trkpt>
      <trkpt lat="47.86985" lon="-2.51818">
        <ele>106</ele>
        <time>2023-07-22T10:14:17.767Z</time>
      </trkpt>
      <trkpt lat="47.86988" lon="-2.51816">
        <ele>106</ele>
        <time>2023-07-22T10:14:18.766Z</time>
      </trkpt>
      <trkpt lat="47.8699" lon="-2.51816">
        <ele>106</ele>
        <time>2023-07-22T10:14:19.766Z</time>
      </trkpt>
      <trkpt lat="47.86992" lon="-2.51816">
        <ele>106</ele>
        <time>2023-07-22T10:14:20.766Z</time>
      </trkpt>
      <trkpt lat="47.86993" lon="-2.51815">
        <ele>106</ele>
        <time>2023-07-22T10:14:21.766Z</time>
      </trkpt>
      <trkpt lat="47.86994" lon="-2.51816">
        <ele>106</ele>
        <time>2023-07-22T10:14:22.766Z</time>
      </trkpt>
      <trkpt lat="47.86995" lon="-2.51817">
        <ele>106</ele>
        <time>2023-07-22T10:14:23.766Z</time>
      </trkpt>
      <trkpt lat="47.86996" lon="-2.51817">
        <ele>106</ele>
        <time>2023-07-22T10:14:24.766Z</time>
      </trkpt>
      <trkpt lat="47.86997" lon="-2.51817">
        <ele>106</ele>
        <time>2023-07-22T10:14:25.766Z</time>
      </trkpt>
      <trkpt lat="47.86998" lon="-2.51818">
        <ele>106</ele>
        <time>2023-07-22T10:14:26.766Z</time>
      </trkpt>
      <trkpt lat="47.86999" lon="-2.51818">
        <ele>105</ele>
        <time>2023-07-22T10:14:27.766Z</time>
      </trkpt>
      <trkpt lat="47.87001" lon="-2.51818">
        <ele>105</ele>
        <time>2023-07-22T10:14:28.766Z</time>
      </trkpt>
      <trkpt lat="47.87003" lon="-2.51818">
        <ele>105</ele>
        <time>2023-07-22T10:14:29.766Z</time>
      </trkpt>
      <trkpt lat="47.87004" lon="-2.51818">
        <ele>105</ele>
        <time>2023-07-22T10:14:30.766Z</time>
      </trkpt>
      <trkpt lat="47.87005" lon="-2.51818">
        <ele>105</ele>
        <time>2023-07-22T10:14:31.766Z</time>
      </trkpt>
      <trkpt lat="47.87007" lon="-2.51819">
        <ele>105</ele>
        <time>2023-07-22T10:14:32.766Z</time>
      </trkpt>
      <trkpt lat="47.87011" lon="-2.51819">
        <ele>105</ele>
        <time>2023-07-22T10:14:33.766Z</time>
      </trkpt>
      <trkpt lat="47.87014" lon="-2.51817">
        <ele>104</ele>
        <time>2023-07-22T10:14:34.766Z</time>
      </trkpt>
      <trkpt lat="47.87016" lon="-2.51815">
        <ele>104</ele>
        <time>2023-07-22T10:14:35.767Z</time>
      </trkpt>
      <trkpt lat="47.87021" lon="-2.51812">
        <ele>104</ele>
        <time>2023-07-22T10:14:36.766Z</time>
      </trkpt>
      <trkpt lat="47.8702" lon="-2.51814">
        <ele>104</ele>
        <time>2023-07-22T10:14:37.767Z</time>
      </trkpt>
      <trkpt lat="47.87022" lon="-2.51816">
        <ele>104</ele>
        <time>2023-07-22T10:14:38.766Z</time>
      </trkpt>
      <trkpt lat="47.87022" lon="-2.51819">
        <ele>103</ele>
        <time>2023-07-22T10:14:39.766Z</time>
      </trkpt>
      <trkpt lat="47.8702" lon="-2.51814">
        <ele>103</ele>
        <time>2023-07-22T10:14:40.766Z</time>
      </trkpt>
      <trkpt lat="47.87026" lon="-2.51809">
        <ele>103</ele>
        <time>2023-07-22T10:14:41.767Z</time>
      </trkpt>
      <trkpt lat="47.87026" lon="-2.5181">
        <ele>103</ele>
        <time>2023-07-22T10:14:42.766Z</time>
      </trkpt>
      <trkpt lat="47.87025" lon="-2.51811">
        <ele>103</ele>
        <time>2023-07-22T10:14:43.766Z</time>
      </trkpt>
      <trkpt lat="47.87027" lon="-2.51808">
        <ele>102</ele>
        <time>2023-07-22T10:14:44.766Z</time>
      </trkpt>
      <trkpt lat="47.87027" lon="-2.51807">
        <ele>102</ele>
        <time>2023-07-22T10:14:45.766Z</time>
      </trkpt>
      <trkpt lat="47.87029" lon="-2.51806">
        <ele>101</ele>
        <time>2023-07-22T10:14:46.766Z</time>
      </trkpt>
      <trkpt lat="47.87027" lon="-2.51805">
        <ele>101</ele>
        <time>2023-07-22T10:14:47.767Z</time>
      </trkpt>
      <trkpt lat="47.87028" lon="-2.51803">
        <ele>100</ele>
        <time>2023-07-22T10:14:48.766Z</time>
      </trkpt>
      <trkpt lat="47.8703" lon="-2.51804">
        <ele>100</ele>
        <time>2023-07-22T10:14:49.767Z</time>
      </trkpt>
      <trkpt lat="47.87032" lon="-2.51805">
        <ele>99</ele>
        <time>2023-07-22T10:14:50.766Z</time>
      </trkpt>
      <trkpt lat="47.87031" lon="-2.51806">
        <ele>99</ele>
        <time>2023-07-22T10:14:51.766Z</time>
      </trkpt>
      <trkpt lat="47.87032" lon="-2.51805">
        <ele>98</ele>
        <time>2023-07-22T10:14:52.766Z</time>
      </trkpt>
      <trkpt lat="47.87021" lon="-2.51807">
        <ele>100</ele>
        <time>2023-07-22T11:53:49.184Z</time>
      </trkpt>
      <trkpt lat="47.87021" lon="-2.51807">
        <ele>100</ele>
        <time>2023-07-22T11:53:50.185Z</time>
      </trkpt>
      <trkpt lat="47.8702" lon="-2.51806">
        <ele>100</ele>
        <time>2023-07-22T11:53:51.184Z</time>
      </trkpt>
      <trkpt lat="47.8702" lon="-2.51805">
        <ele>100</ele>
        <time>2023-07-22T11:53:52.185Z</time>
      </trkpt>
      <trkpt lat="47.87019" lon="-2.51803">
        <ele>99</ele>
        <time>2023-07-22T11:53:53.184Z</time>
      </trkpt>
      <trkpt lat="47.87018" lon="-2.51801">
        <ele>99</ele>
        <time>2023-07-22T11:53:54.184Z</time>
      </trkpt>
      <trkpt lat="47.87016" lon="-2.518">
        <ele>98</ele>
        <time>2023-07-22T11:53:55.185Z</time>
      </trkpt>
      <trkpt lat="47.87015" lon="-2.518">
        <ele>98</ele>
        <time>2023-07-22T11:53:56.184Z</time>
      </trkpt>
      <trkpt lat="47.87014" lon="-2.518">
        <ele>98</ele>
        <time>2023-07-22T11:53:57.185Z</time>
      </trkpt>
      <trkpt lat="47.87013" lon="-2.51799">
        <ele>98</ele>
        <time>2023-07-22T11:53:58.184Z</time>
      </trkpt>
      <trkpt lat="47.87012" lon="-2.51799">
        <ele>97</ele>
        <time>2023-07-22T11:53:59.185Z</time>
      </trkpt>
      <trkpt lat="47.87011" lon="-2.51798">
        <ele>97</ele>
        <time>2023-07-22T11:54:00.185Z</time>
      </trkpt>
      <trkpt lat="47.8701" lon="-2.51798">
        <ele>97</ele>
        <time>2023-07-22T11:54:01.184Z</time>
      </trkpt>
      <trkpt lat="47.8701" lon="-2.51798">
        <ele>97</ele>
        <time>2023-07-22T11:54:02.184Z</time>
      </trkpt>
      <trkpt lat="47.87009" lon="-2.51798">
        <ele>97</ele>
        <time>2023-07-22T11:54:03.184Z</time>
      </trkpt>
      <trkpt lat="47.87009" lon="-2.51798">
        <ele>97</ele>
        <time>2023-07-22T11:54:04.185Z</time>
      </trkpt>
      <trkpt lat="47.87009" lon="-2.51798">
        <ele>97</ele>
        <time>2023-07-22T11:54:05.184Z</time>
      </trkpt>
      <trkpt lat="47.87009" lon="-2.51799">
        <ele>97</ele>
        <time>2023-07-22T11:54:06.184Z</time>
      </trkpt>
      <trkpt lat="47.87008" lon="-2.51799">
        <ele>97</ele>
        <time>2023-07-22T11:54:07.185Z</time>
      </trkpt>
      <trkpt lat="47.87006" lon="-2.51799">
        <ele>97</ele>
        <time>2023-07-22T11:54:08.185Z</time>
      </trkpt>
      <trkpt lat="47.87005" lon="-2.51798">
        <ele>97</ele>
        <time>2023-07-22T11:54:09.184Z</time>
      </trkpt>
      <trkpt lat="47.87003" lon="-2.51798">
        <ele>97</ele>
        <time>2023-07-22T11:54:10.185Z</time>
      </trkpt>
      <trkpt lat="47.87003" lon="-2.51798">
        <ele>96</ele>
        <time>2023-07-22T11:54:11.184Z</time>
      </trkpt>
      <trkpt lat="47.87002" lon="-2.51797">
        <ele>96</ele>
        <time>2023-07-22T11:54:12.185Z</time>
      </trkpt>
      <trkpt lat="47.87001" lon="-2.51796">
        <ele>96</ele>
        <time>2023-07-22T11:54:13.184Z</time>
      </trkpt>
      <trkpt lat="47.87" lon="-2.51796">
        <ele>96</ele>
        <time>2023-07-22T11:54:14.184Z</time>
      </trkpt>
      <trkpt lat="47.87" lon="-2.51796">
        <ele>96</ele>
        <time>2023-07-22T11:54:15.184Z</time>
      </trkpt>
      <trkpt lat="47.87" lon="-2.51796">
        <ele>96</ele>
        <time>2023-07-22T11:54:16.184Z</time>
      </trkpt>
      <trkpt lat="47.86999" lon="-2.51795">
        <ele>96</ele>
        <time>2023-07-22T11:54:17.184Z</time>
      </trkpt>
      <trkpt lat="47.86997" lon="-2.51794">
        <ele>96</ele>
        <time>2023-07-22T11:54:18.185Z</time>
      </trkpt>
      <trkpt lat="47.86995" lon="-2.51793">
        <ele>96</ele>
        <time>2023-07-22T11:54:19.184Z</time>
      </trkpt>
      <trkpt lat="47.86993" lon="-2.51792">
        <ele>96</ele>
        <time>2023-07-22T11:54:20.185Z</time>
      </trkpt>
      <trkpt lat="47.86991" lon="-2.51792">
        <ele>96</ele>
        <time>2023-07-22T11:54:21.184Z</time>
      </trkpt>
      <trkpt lat="47.86988" lon="-2.5179">
        <ele>96</ele>
        <time>2023-07-22T11:54:22.185Z</time>
      </trkpt>
      <trkpt lat="47.86987" lon="-2.51787">
        <ele>96</ele>
        <time>2023-07-22T11:54:23.185Z</time>
      </trkpt>
      <trkpt lat="47.86986" lon="-2.51787">
        <ele>95</ele>
        <time>2023-07-22T11:54:24.185Z</time>
      </trkpt>
      <trkpt lat="47.86986" lon="-2.51786">
        <ele>95</ele>
        <time>2023-07-22T11:54:25.185Z</time>
      </trkpt>
      <trkpt lat="47.86984" lon="-2.51785">
        <ele>95</ele>
        <time>2023-07-22T11:54:26.185Z</time>
      </trkpt>
      <trkpt lat="47.86983" lon="-2.51785">
        <ele>95</ele>
        <time>2023-07-22T11:54:27.185Z</time>
      </trkpt>
      <trkpt lat="47.86982" lon="-2.51784">
        <ele>95</ele>
        <time>2023-07-22T11:54:28.184Z</time>
      </trkpt>
      <trkpt lat="47.8698" lon="-2.51783">
        <ele>95</ele>
        <time>2023-07-22T11:54:29.184Z</time>
      </trkpt>
      <trkpt lat="47.86977" lon="-2.51782">
        <ele>94</ele>
        <time>2023-07-22T11:54:30.185Z</time>
      </trkpt>
      <trkpt lat="47.86976" lon="-2.51781">
        <ele>94</ele>
        <time>2023-07-22T11:54:31.184Z</time>
      </trkpt>
      <trkpt lat="47.86975" lon="-2.51778">
        <ele>94</ele>
        <time>2023-07-22T11:54:32.184Z</time>
      </trkpt>
      <trkpt lat="47.86975" lon="-2.51775">
        <ele>94</ele>
        <time>2023-07-22T11:54:33.185Z</time>
      </trkpt>
      <trkpt lat="47.86974" lon="-2.51773">
        <ele>94</ele>
        <time>2023-07-22T11:54:34.185Z</time>
      </trkpt>
      <trkpt lat="47.86972" lon="-2.51772">
        <ele>94</ele>
        <time>2023-07-22T11:54:35.185Z</time>
      </trkpt>
      <trkpt lat="47.8697" lon="-2.51772">
        <ele>94</ele>
        <time>2023-07-22T11:54:36.184Z</time>
      </trkpt>
      <trkpt lat="47.86969" lon="-2.51773">
        <ele>94</ele>
        <time>2023-07-22T11:54:37.185Z</time>
      </trkpt>
      <trkpt lat="47.86968" lon="-2.51773">
        <ele>94</ele>
        <time>2023-07-22T11:54:38.184Z</time>
      </trkpt>
      <trkpt lat="47.86967" lon="-2.51772">
        <ele>94</ele>
        <time>2023-07-22T11:54:39.185Z</time>
      </trkpt>
      <trkpt lat="47.86966" lon="-2.51771">
        <ele>94</ele>
        <time>2023-07-22T11:54:40.184Z</time>
      </trkpt>
      <trkpt lat="47.86965" lon="-2.5177">
        <ele>94</ele>
        <time>2023-07-22T11:54:41.184Z</time>
      </trkpt>
      <trkpt lat="47.86965" lon="-2.51768">
        <ele>94</ele>
        <time>2023-07-22T11:54:42.184Z</time>
      </trkpt>
      <trkpt lat="47.86963" lon="-2.51767">
        <ele>94</ele>
        <time>2023-07-22T11:54:43.184Z</time>
      </trkpt>
      <trkpt lat="47.86963" lon="-2.51766">
        <ele>94</ele>
        <time>2023-07-22T11:54:44.184Z</time>
      </trkpt>
      <trkpt lat="47.86962" lon="-2.51765">
        <ele>94</ele>
        <time>2023-07-22T11:54:45.184Z</time>
      </trkpt>
      <trkpt lat="47.86961" lon="-2.51765">
        <ele>94</ele>
        <time>2023-07-22T11:54:46.185Z</time>
      </trkpt>
      <trkpt lat="47.8696" lon="-2.51764">
        <ele>94</ele>
        <time>2023-07-22T11:54:47.185Z</time>
      </trkpt>
      <trkpt lat="47.8696" lon="-2.51763">
        <ele>94</ele>
        <time>2023-07-22T11:54:48.185Z</time>
      </trkpt>
      <trkpt lat="47.86959" lon="-2.51762">
        <ele>94</ele>
        <time>2023-07-22T11:54:49.185Z</time>
      </trkpt>
      <trkpt lat="47.86958" lon="-2.51759">
        <ele>93</ele>
        <time>2023-07-22T11:54:50.185Z</time>
      </trkpt>
      <trkpt lat="47.86958" lon="-2.51758">
        <ele>93</ele>
        <time>2023-07-22T11:54:51.185Z</time>
      </trkpt>
      <trkpt lat="47.86957" lon="-2.51756">
        <ele>93</ele>
        <time>2023-07-22T11:54:52.185Z</time>
      </trkpt>
      <trkpt lat="47.86955" lon="-2.51755">
        <ele>92</ele>
        <time>2023-07-22T11:54:53.185Z</time>
      </trkpt>
      <trkpt lat="47.86953" lon="-2.51754">
        <ele>92</ele>
        <time>2023-07-22T11:54:54.184Z</time>
      </trkpt>
      <trkpt lat="47.86952" lon="-2.51752">
        <ele>93</ele>
        <time>2023-07-22T11:54:55.184Z</time>
      </trkpt>
      <trkpt lat="47.86951" lon="-2.51751">
        <ele>93</ele>
        <time>2023-07-22T11:54:56.184Z</time>
      </trkpt>
      <trkpt lat="47.8695" lon="-2.5175">
        <ele>93</ele>
        <time>2023-07-22T11:54:57.184Z</time>
      </trkpt>
      <trkpt lat="47.86949" lon="-2.51749">
        <ele>93</ele>
        <time>2023-07-22T11:54:58.185Z</time>
      </trkpt>
      <trkpt lat="47.86948" lon="-2.51749">
        <ele>93</ele>
        <time>2023-07-22T11:54:59.184Z</time>
      </trkpt>
      <trkpt lat="47.86948" lon="-2.51748">
        <ele>93</ele>
        <time>2023-07-22T11:55:00.184Z</time>
      </trkpt>
      <trkpt lat="47.86947" lon="-2.51747">
        <ele>94</ele>
        <time>2023-07-22T11:55:01.185Z</time>
      </trkpt>
      <trkpt lat="47.86946" lon="-2.51746">
        <ele>94</ele>
        <time>2023-07-22T11:55:02.185Z</time>
      </trkpt>
      <trkpt lat="47.86945" lon="-2.51745">
        <ele>94</ele>
        <time>2023-07-22T11:55:03.184Z</time>
      </trkpt>
      <trkpt lat="47.86944" lon="-2.51744">
        <ele>95</ele>
        <time>2023-07-22T11:55:04.184Z</time>
      </trkpt>
      <trkpt lat="47.86943" lon="-2.51744">
        <ele>95</ele>
        <time>2023-07-22T11:55:05.184Z</time>
      </trkpt>
      <trkpt lat="47.86941" lon="-2.51745">
        <ele>95</ele>
        <time>2023-07-22T11:55:06.184Z</time>
      </trkpt>
      <trkpt lat="47.86941" lon="-2.51744">
        <ele>94</ele>
        <time>2023-07-22T11:55:07.185Z</time>
      </trkpt>
      <trkpt lat="47.86939" lon="-2.51743">
        <ele>94</ele>
        <time>2023-07-22T11:55:08.185Z</time>
      </trkpt>
      <trkpt lat="47.86939" lon="-2.51742">
        <ele>94</ele>
        <time>2023-07-22T11:55:09.185Z</time>
      </trkpt>
      <trkpt lat="47.86938" lon="-2.51741">
        <ele>94</ele>
        <time>2023-07-22T11:55:10.184Z</time>
      </trkpt>
      <trkpt lat="47.86937" lon="-2.51741">
        <ele>94</ele>
        <time>2023-07-22T11:55:11.184Z</time>
      </trkpt>
      <trkpt lat="47.86935" lon="-2.5174">
        <ele>94</ele>
        <time>2023-07-22T11:55:12.184Z</time>
      </trkpt>
      <trkpt lat="47.86934" lon="-2.51738">
        <ele>94</ele>
        <time>2023-07-22T11:55:13.185Z</time>
      </trkpt>
      <trkpt lat="47.86934" lon="-2.51736">
        <ele>95</ele>
        <time>2023-07-22T11:55:14.184Z</time>
      </trkpt>
      <trkpt lat="47.86933" lon="-2.51734">
        <ele>95</ele>
        <time>2023-07-22T11:55:15.184Z</time>
      </trkpt>
      <trkpt lat="47.86932" lon="-2.51734">
        <ele>95</ele>
        <time>2023-07-22T11:55:16.184Z</time>
      </trkpt>
      <trkpt lat="47.86932" lon="-2.51735">
        <ele>95</ele>
        <time>2023-07-22T11:55:17.184Z</time>
      </trkpt>
      <trkpt lat="47.8693" lon="-2.51737">
        <ele>95</ele>
        <time>2023-07-22T11:55:18.185Z</time>
      </trkpt>
      <trkpt lat="47.86928" lon="-2.51738">
        <ele>96</ele>
        <time>2023-07-22T11:55:19.184Z</time>
      </trkpt>
      <trkpt lat="47.86927" lon="-2.5174">
        <ele>96</ele>
        <time>2023-07-22T11:55:20.184Z</time>
      </trkpt>
      <trkpt lat="47.86925" lon="-2.51741">
        <ele>97</ele>
        <time>2023-07-22T11:55:21.184Z</time>
      </trkpt>
      <trkpt lat="47.86923" lon="-2.51743">
        <ele>97</ele>
        <time>2023-07-22T11:55:22.184Z</time>
      </trkpt>
      <trkpt lat="47.86922" lon="-2.51744">
        <ele>97</ele>
        <time>2023-07-22T11:55:23.185Z</time>
      </trkpt>
      <trkpt lat="47.86921" lon="-2.51745">
        <ele>98</ele>
        <time>2023-07-22T11:55:24.185Z</time>
      </trkpt>
      <trkpt lat="47.86919" lon="-2.51746">
        <ele>99</ele>
        <time>2023-07-22T11:55:25.184Z</time>
      </trkpt>
      <trkpt lat="47.86917" lon="-2.51747">
        <ele>100</ele>
        <time>2023-07-22T11:55:26.184Z</time>
      </trkpt>
      <trkpt lat="47.86916" lon="-2.51747">
        <ele>101</ele>
        <time>2023-07-22T11:55:27.184Z</time>
      </trkpt>
      <trkpt lat="47.86914" lon="-2.51748">
        <ele>101</ele>
        <time>2023-07-22T11:55:28.184Z</time>
      </trkpt>
      <trkpt lat="47.86913" lon="-2.5175">
        <ele>102</ele>
        <time>2023-07-22T11:55:29.184Z</time>
      </trkpt>
      <trkpt lat="47.86911" lon="-2.5175">
        <ele>103</ele>
        <time>2023-07-22T11:55:30.184Z</time>
      </trkpt>
      <trkpt lat="47.86911" lon="-2.51752">
        <ele>103</ele>
        <time>2023-07-22T11:55:31.184Z</time>
      </trkpt>
      <trkpt lat="47.86909" lon="-2.51755">
        <ele>104</ele>
        <time>2023-07-22T11:55:32.185Z</time>
      </trkpt>
      <trkpt lat="47.86908" lon="-2.51756">
        <ele>104</ele>
        <time>2023-07-22T11:55:33.185Z</time>
      </trkpt>
      <trkpt lat="47.86907" lon="-2.51757">
        <ele>105</ele>
        <time>2023-07-22T11:55:34.184Z</time>
      </trkpt>
      <trkpt lat="47.86905" lon="-2.51758">
        <ele>105</ele>
        <time>2023-07-22T11:55:35.184Z</time>
      </trkpt>
      <trkpt lat="47.86903" lon="-2.51759">
        <ele>106</ele>
        <time>2023-07-22T11:55:36.184Z</time>
      </trkpt>
      <trkpt lat="47.86902" lon="-2.51759">
        <ele>106</ele>
        <time>2023-07-22T11:55:37.184Z</time>
      </trkpt>
      <trkpt lat="47.86902" lon="-2.51759">
        <ele>106</ele>
        <time>2023-07-22T11:55:38.184Z</time>
      </trkpt>
      <trkpt lat="47.869" lon="-2.51759">
        <ele>107</ele>
        <time>2023-07-22T11:55:39.184Z</time>
      </trkpt>
      <trkpt lat="47.86899" lon="-2.5176">
        <ele>107</ele>
        <time>2023-07-22T11:55:40.185Z</time>
      </trkpt>
      <trkpt lat="47.869" lon="-2.51761">
        <ele>106</ele>
        <time>2023-07-22T11:55:41.185Z</time>
      </trkpt>
      <trkpt lat="47.86899" lon="-2.51762">
        <ele>106</ele>
        <time>2023-07-22T11:55:42.185Z</time>
      </trkpt>
      <trkpt lat="47.86899" lon="-2.51762">
        <ele>106</ele>
        <time>2023-07-22T11:55:43.185Z</time>
      </trkpt>
      <trkpt lat="47.86898" lon="-2.51763">
        <ele>106</ele>
        <time>2023-07-22T11:55:44.185Z</time>
      </trkpt>
      <trkpt lat="47.86898" lon="-2.51764">
        <ele>106</ele>
        <time>2023-07-22T11:55:45.184Z</time>
      </trkpt>
      <trkpt lat="47.86898" lon="-2.51764">
        <ele>106</ele>
        <time>2023-07-22T11:55:46.184Z</time>
      </trkpt>
      <trkpt lat="47.86898" lon="-2.51764">
        <ele>106</ele>
        <time>2023-07-22T11:55:47.185Z</time>
      </trkpt>
      <trkpt lat="47.86899" lon="-2.51765">
        <ele>105</ele>
        <time>2023-07-22T11:55:54.441Z</time>
      </trkpt>
      <trkpt lat="47.86899" lon="-2.51766">
        <ele>105</ele>
        <time>2023-07-22T11:55:55.442Z</time>
      </trkpt>
      <trkpt lat="47.86899" lon="-2.51766">
        <ele>105</ele>
        <time>2023-07-22T11:55:56.441Z</time>
      </trkpt>
      <trkpt lat="47.86899" lon="-2.51766">
        <ele>105</ele>
        <time>2023-07-22T11:55:57.441Z</time>
      </trkpt>
      <trkpt lat="47.86899" lon="-2.51766">
        <ele>104</ele>
        <time>2023-07-22T11:55:58.441Z</time>
      </trkpt>
      <trkpt lat="47.86896" lon="-2.51766">
        <ele>102</ele>
        <time>2023-07-22T11:56:04.897Z</time>
      </trkpt>
      <trkpt lat="47.86895" lon="-2.51765">
        <ele>102</ele>
        <time>2023-07-22T11:56:05.897Z</time>
      </trkpt>
      <trkpt lat="47.86895" lon="-2.51764">
        <ele>102</ele>
        <time>2023-07-22T11:56:06.896Z</time>
      </trkpt>
      <trkpt lat="47.86894" lon="-2.51763">
        <ele>102</ele>
        <time>2023-07-22T11:56:07.897Z</time>
      </trkpt>
      <trkpt lat="47.86893" lon="-2.51761">
        <ele>102</ele>
        <time>2023-07-22T11:56:08.896Z</time>
      </trkpt>
      <trkpt lat="47.86892" lon="-2.51759">
        <ele>102</ele>
        <time>2023-07-22T11:56:09.896Z</time>
      </trkpt>
      <trkpt lat="47.86892" lon="-2.51758">
        <ele>102</ele>
        <time>2023-07-22T11:56:10.896Z</time>
      </trkpt>
      <trkpt lat="47.86891" lon="-2.51756">
        <ele>101</ele>
        <time>2023-07-22T11:56:11.896Z</time>
      </trkpt>
      <trkpt lat="47.86891" lon="-2.51755">
        <ele>101</ele>
        <time>2023-07-22T11:56:12.897Z</time>
      </trkpt>
      <trkpt lat="47.8689" lon="-2.51754">
        <ele>101</ele>
        <time>2023-07-22T11:56:13.897Z</time>
      </trkpt>
      <trkpt lat="47.8689" lon="-2.51753">
        <ele>101</ele>
        <time>2023-07-22T11:56:14.896Z</time>
      </trkpt>
      <trkpt lat="47.86889" lon="-2.51752">
        <ele>101</ele>
        <time>2023-07-22T11:56:15.896Z</time>
      </trkpt>
      <trkpt lat="47.86889" lon="-2.5175">
        <ele>101</ele>
        <time>2023-07-22T11:56:16.896Z</time>
      </trkpt>
      <trkpt lat="47.86888" lon="-2.51748">
        <ele>101</ele>
        <time>2023-07-22T11:56:17.896Z</time>
      </trkpt>
      <trkpt lat="47.86888" lon="-2.51747">
        <ele>101</ele>
        <time>2023-07-22T11:56:18.897Z</time>
      </trkpt>
      <trkpt lat="47.86887" lon="-2.51746">
        <ele>101</ele>
        <time>2023-07-22T11:56:19.896Z</time>
      </trkpt>
      <trkpt lat="47.86886" lon="-2.51745">
        <ele>102</ele>
        <time>2023-07-22T11:56:20.896Z</time>
      </trkpt>
      <trkpt lat="47.86886" lon="-2.51744">
        <ele>102</ele>
        <time>2023-07-22T11:56:21.896Z</time>
      </trkpt>
      <trkpt lat="47.86885" lon="-2.51742">
        <ele>102</ele>
        <time>2023-07-22T11:56:22.896Z</time>
      </trkpt>
      <trkpt lat="47.86884" lon="-2.5174">
        <ele>103</ele>
        <time>2023-07-22T11:56:23.896Z</time>
      </trkpt>
      <trkpt lat="47.86884" lon="-2.51739">
        <ele>103</ele>
        <time>2023-07-22T11:56:24.896Z</time>
      </trkpt>
      <trkpt lat="47.86882" lon="-2.51737">
        <ele>104</ele>
        <time>2023-07-22T11:56:25.896Z</time>
      </trkpt>
      <trkpt lat="47.86881" lon="-2.51735">
        <ele>104</ele>
        <time>2023-07-22T11:56:26.896Z</time>
      </trkpt>
      <trkpt lat="47.8688" lon="-2.51733">
        <ele>105</ele>
        <time>2023-07-22T11:56:27.896Z</time>
      </trkpt>
      <trkpt lat="47.86878" lon="-2.51732">
        <ele>105</ele>
        <time>2023-07-22T11:56:28.896Z</time>
      </trkpt>
      <trkpt lat="47.86876" lon="-2.51731">
        <ele>105</ele>
        <time>2023-07-22T11:56:29.897Z</time>
      </trkpt>
      <trkpt lat="47.86875" lon="-2.5173">
        <ele>105</ele>
        <time>2023-07-22T11:56:30.897Z</time>
      </trkpt>
      <trkpt lat="47.86874" lon="-2.51729">
        <ele>105</ele>
        <time>2023-07-22T11:56:31.897Z</time>
      </trkpt>
      <trkpt lat="47.86872" lon="-2.51727">
        <ele>105</ele>
        <time>2023-07-22T11:56:32.897Z</time>
      </trkpt>
      <trkpt lat="47.86871" lon="-2.51727">
        <ele>105</ele>
        <time>2023-07-22T11:56:33.896Z</time>
      </trkpt>
      <trkpt lat="47.8687" lon="-2.51726">
        <ele>104</ele>
        <time>2023-07-22T11:56:34.896Z</time>
      </trkpt>
      <trkpt lat="47.86869" lon="-2.51725">
        <ele>104</ele>
        <time>2023-07-22T11:56:35.896Z</time>
      </trkpt>
      <trkpt lat="47.86868" lon="-2.51723">
        <ele>104</ele>
        <time>2023-07-22T11:56:36.896Z</time>
      </trkpt>
      <trkpt lat="47.86866" lon="-2.51721">
        <ele>104</ele>
        <time>2023-07-22T11:56:37.897Z</time>
      </trkpt>
      <trkpt lat="47.86865" lon="-2.51719">
        <ele>104</ele>
        <time>2023-07-22T11:56:38.896Z</time>
      </trkpt>
      <trkpt lat="47.86863" lon="-2.51717">
        <ele>104</ele>
        <time>2023-07-22T11:56:39.896Z</time>
      </trkpt>
      <trkpt lat="47.86863" lon="-2.51716">
        <ele>104</ele>
        <time>2023-07-22T11:56:40.896Z</time>
      </trkpt>
      <trkpt lat="47.86861" lon="-2.51714">
        <ele>103</ele>
        <time>2023-07-22T11:56:41.896Z</time>
      </trkpt>
      <trkpt lat="47.8686" lon="-2.51714">
        <ele>103</ele>
        <time>2023-07-22T11:56:42.897Z</time>
      </trkpt>
      <trkpt lat="47.86859" lon="-2.51713">
        <ele>102</ele>
        <time>2023-07-22T11:56:43.896Z</time>
      </trkpt>
      <trkpt lat="47.86858" lon="-2.51714">
        <ele>101</ele>
        <time>2023-07-22T11:56:44.897Z</time>
      </trkpt>
      <trkpt lat="47.86857" lon="-2.51713">
        <ele>100</ele>
        <time>2023-07-22T11:56:45.896Z</time>
      </trkpt>
      <trkpt lat="47.86856" lon="-2.51712">
        <ele>99</ele>
        <time>2023-07-22T11:56:46.897Z</time>
      </trkpt>
      <trkpt lat="47.86855" lon="-2.51712">
        <ele>98</ele>
        <time>2023-07-22T11:56:47.897Z</time>
      </trkpt>
      <trkpt lat="47.86854" lon="-2.51711">
        <ele>97</ele>
        <time>2023-07-22T11:56:48.897Z</time>
      </trkpt>
      <trkpt lat="47.86853" lon="-2.51711">
        <ele>95</ele>
        <time>2023-07-22T11:56:49.896Z</time>
      </trkpt>
      <trkpt lat="47.86852" lon="-2.51711">
        <ele>94</ele>
        <time>2023-07-22T11:56:50.897Z</time>
      </trkpt>
      <trkpt lat="47.86852" lon="-2.51712">
        <ele>94</ele>
        <time>2023-07-22T11:56:51.897Z</time>
      </trkpt>
      <trkpt lat="47.86851" lon="-2.51714">
        <ele>93</ele>
        <time>2023-07-22T11:56:52.897Z</time>
      </trkpt>
      <trkpt lat="47.8685" lon="-2.51715">
        <ele>93</ele>
        <time>2023-07-22T11:56:53.896Z</time>
      </trkpt>
      <trkpt lat="47.86849" lon="-2.51717">
        <ele>92</ele>
        <time>2023-07-22T11:56:54.896Z</time>
      </trkpt>
      <trkpt lat="47.86848" lon="-2.51717">
        <ele>92</ele>
        <time>2023-07-22T11:56:55.896Z</time>
      </trkpt>
      <trkpt lat="47.86846" lon="-2.51716">
        <ele>92</ele>
        <time>2023-07-22T11:56:56.897Z</time>
      </trkpt>
      <trkpt lat="47.86845" lon="-2.51716">
        <ele>92</ele>
        <time>2023-07-22T11:56:57.896Z</time>
      </trkpt>
      <trkpt lat="47.86844" lon="-2.51716">
        <ele>92</ele>
        <time>2023-07-22T11:56:58.897Z</time>
      </trkpt>
      <trkpt lat="47.86842" lon="-2.51716">
        <ele>91</ele>
        <time>2023-07-22T11:56:59.897Z</time>
      </trkpt>
      <trkpt lat="47.86841" lon="-2.51716">
        <ele>91</ele>
        <time>2023-07-22T11:57:00.896Z</time>
      </trkpt>
      <trkpt lat="47.8684" lon="-2.51717">
        <ele>91</ele>
        <time>2023-07-22T11:57:01.896Z</time>
      </trkpt>
      <trkpt lat="47.86839" lon="-2.51716">
        <ele>91</ele>
        <time>2023-07-22T11:57:02.896Z</time>
      </trkpt>
      <trkpt lat="47.86838" lon="-2.51717">
        <ele>90</ele>
        <time>2023-07-22T11:57:03.896Z</time>
      </trkpt>
      <trkpt lat="47.86837" lon="-2.51717">
        <ele>90</ele>
        <time>2023-07-22T11:57:04.897Z</time>
      </trkpt>
      <trkpt lat="47.86836" lon="-2.51717">
        <ele>90</ele>
        <time>2023-07-22T11:57:05.896Z</time>
      </trkpt>
      <trkpt lat="47.86834" lon="-2.51718">
        <ele>90</ele>
        <time>2023-07-22T11:57:06.896Z</time>
      </trkpt>
      <trkpt lat="47.86832" lon="-2.51719">
        <ele>90</ele>
        <time>2023-07-22T11:57:07.896Z</time>
      </trkpt>
      <trkpt lat="47.86831" lon="-2.5172">
        <ele>90</ele>
        <time>2023-07-22T11:57:08.896Z</time>
      </trkpt>
      <trkpt lat="47.8683" lon="-2.51721">
        <ele>91</ele>
        <time>2023-07-22T11:57:09.896Z</time>
      </trkpt>
      <trkpt lat="47.86829" lon="-2.51722">
        <ele>91</ele>
        <time>2023-07-22T11:57:10.896Z</time>
      </trkpt>
      <trkpt lat="47.86828" lon="-2.51723">
        <ele>92</ele>
        <time>2023-07-22T11:57:11.896Z</time>
      </trkpt>
      <trkpt lat="47.86826" lon="-2.51724">
        <ele>92</ele>
        <time>2023-07-22T11:57:12.897Z</time>
      </trkpt>
      <trkpt lat="47.86824" lon="-2.51724">
        <ele>93</ele>
        <time>2023-07-22T11:57:13.896Z</time>
      </trkpt>
      <trkpt lat="47.86822" lon="-2.51724">
        <ele>93</ele>
        <time>2023-07-22T11:57:14.896Z</time>
      </trkpt>
      <trkpt lat="47.86821" lon="-2.51724">
        <ele>94</ele>
        <time>2023-07-22T11:57:15.896Z</time>
      </trkpt>
      <trkpt lat="47.86819" lon="-2.51725">
        <ele>95</ele>
        <time>2023-07-22T11:57:16.896Z</time>
      </trkpt>
      <trkpt lat="47.86816" lon="-2.51725">
        <ele>95</ele>
        <time>2023-07-22T11:57:17.896Z</time>
      </trkpt>
      <trkpt lat="47.86813" lon="-2.51725">
        <ele>96</ele>
        <time>2023-07-22T11:57:18.896Z</time>
      </trkpt>
      <trkpt lat="47.86812" lon="-2.51725">
        <ele>96</ele>
        <time>2023-07-22T11:57:19.897Z</time>
      </trkpt>
      <trkpt lat="47.86811" lon="-2.51726">
        <ele>96</ele>
        <time>2023-07-22T11:57:20.896Z</time>
      </trkpt>
      <trkpt lat="47.8681" lon="-2.51725">
        <ele>96</ele>
        <time>2023-07-22T11:57:21.896Z</time>
      </trkpt>
      <trkpt lat="47.86808" lon="-2.51725">
        <ele>97</ele>
        <time>2023-07-22T11:57:22.896Z</time>
      </trkpt>
      <trkpt lat="47.86807" lon="-2.51724">
        <ele>97</ele>
        <time>2023-07-22T11:57:23.896Z</time>
      </trkpt>
      <trkpt lat="47.86806" lon="-2.51724">
        <ele>97</ele>
        <time>2023-07-22T11:57:24.896Z</time>
      </trkpt>
      <trkpt lat="47.86804" lon="-2.51723">
        <ele>97</ele>
        <time>2023-07-22T11:57:25.897Z</time>
      </trkpt>
      <trkpt lat="47.86802" lon="-2.51722">
        <ele>98</ele>
        <time>2023-07-22T11:57:26.896Z</time>
      </trkpt>
      <trkpt lat="47.868" lon="-2.51722">
        <ele>98</ele>
        <time>2023-07-22T11:57:27.896Z</time>
      </trkpt>
      <trkpt lat="47.86799" lon="-2.51722">
        <ele>98</ele>
        <time>2023-07-22T11:57:28.896Z</time>
      </trkpt>
      <trkpt lat="47.86799" lon="-2.51722">
        <ele>98</ele>
        <time>2023-07-22T11:57:29.896Z</time>
      </trkpt>
      <trkpt lat="47.86798" lon="-2.51722">
        <ele>98</ele>
        <time>2023-07-22T11:57:30.897Z</time>
      </trkpt>
      <trkpt lat="47.86798" lon="-2.51723">
        <ele>98</ele>
        <time>2023-07-22T11:57:31.896Z</time>
      </trkpt>
      <trkpt lat="47.86796" lon="-2.51722">
        <ele>98</ele>
        <time>2023-07-22T11:57:32.896Z</time>
      </trkpt>
      <trkpt lat="47.86795" lon="-2.51722">
        <ele>97</ele>
        <time>2023-07-22T11:57:33.896Z</time>
      </trkpt>
      <trkpt lat="47.86793" lon="-2.51722">
        <ele>97</ele>
        <time>2023-07-22T11:57:34.896Z</time>
      </trkpt>
      <trkpt lat="47.86792" lon="-2.51723">
        <ele>97</ele>
        <time>2023-07-22T11:57:35.896Z</time>
      </trkpt>
      <trkpt lat="47.86791" lon="-2.51724">
        <ele>96</ele>
        <time>2023-07-22T11:57:36.896Z</time>
      </trkpt>
      <trkpt lat="47.86789" lon="-2.51725">
        <ele>96</ele>
        <time>2023-07-22T11:57:37.897Z</time>
      </trkpt>
      <trkpt lat="47.86788" lon="-2.51726">
        <ele>96</ele>
        <time>2023-07-22T11:57:38.897Z</time>
      </trkpt>
      <trkpt lat="47.86786" lon="-2.51726">
        <ele>96</ele>
        <time>2023-07-22T11:57:39.896Z</time>
      </trkpt>
      <trkpt lat="47.86785" lon="-2.51727">
        <ele>96</ele>
        <time>2023-07-22T11:57:40.896Z</time>
      </trkpt>
      <trkpt lat="47.86784" lon="-2.51727">
        <ele>96</ele>
        <time>2023-07-22T11:57:41.896Z</time>
      </trkpt>
      <trkpt lat="47.86783" lon="-2.51727">
        <ele>95</ele>
        <time>2023-07-22T11:57:42.896Z</time>
      </trkpt>
      <trkpt lat="47.86781" lon="-2.51727">
        <ele>95</ele>
        <time>2023-07-22T11:57:43.896Z</time>
      </trkpt>
      <trkpt lat="47.8678" lon="-2.51728">
        <ele>95</ele>
        <time>2023-07-22T11:57:44.896Z</time>
      </trkpt>
      <trkpt lat="47.86779" lon="-2.51729">
        <ele>94</ele>
        <time>2023-07-22T11:57:45.896Z</time>
      </trkpt>
      <trkpt lat="47.86778" lon="-2.5173">
        <ele>95</ele>
        <time>2023-07-22T11:57:46.896Z</time>
      </trkpt>
      <trkpt lat="47.86777" lon="-2.51729">
        <ele>95</ele>
        <time>2023-07-22T11:57:47.896Z</time>
      </trkpt>
      <trkpt lat="47.86775" lon="-2.51729">
        <ele>95</ele>
        <time>2023-07-22T11:57:48.897Z</time>
      </trkpt>
      <trkpt lat="47.86774" lon="-2.51729">
        <ele>95</ele>
        <time>2023-07-22T11:57:49.896Z</time>
      </trkpt>
      <trkpt lat="47.86773" lon="-2.5173">
        <ele>95</ele>
        <time>2023-07-22T11:57:50.896Z</time>
      </trkpt>
      <trkpt lat="47.86772" lon="-2.5173">
        <ele>95</ele>
        <time>2023-07-22T11:57:51.896Z</time>
      </trkpt>
      <trkpt lat="47.8677" lon="-2.51731">
        <ele>94</ele>
        <time>2023-07-22T11:57:52.896Z</time>
      </trkpt>
      <trkpt lat="47.86769" lon="-2.51734">
        <ele>94</ele>
        <time>2023-07-22T11:57:53.896Z</time>
      </trkpt>
      <trkpt lat="47.86768" lon="-2.51735">
        <ele>94</ele>
        <time>2023-07-22T11:57:54.897Z</time>
      </trkpt>
      <trkpt lat="47.86767" lon="-2.51736">
        <ele>95</ele>
        <time>2023-07-22T11:57:55.897Z</time>
      </trkpt>
      <trkpt lat="47.86766" lon="-2.51736">
        <ele>95</ele>
        <time>2023-07-22T11:57:56.896Z</time>
      </trkpt>
      <trkpt lat="47.86764" lon="-2.51736">
        <ele>95</ele>
        <time>2023-07-22T11:57:57.897Z</time>
      </trkpt>
      <trkpt lat="47.86763" lon="-2.51736">
        <ele>95</ele>
        <time>2023-07-22T11:57:58.896Z</time>
      </trkpt>
      <trkpt lat="47.86762" lon="-2.51736">
        <ele>95</ele>
        <time>2023-07-22T11:57:59.897Z</time>
      </trkpt>
      <trkpt lat="47.86761" lon="-2.51737">
        <ele>96</ele>
        <time>2023-07-22T11:58:00.896Z</time>
      </trkpt>
      <trkpt lat="47.8676" lon="-2.51739">
        <ele>96</ele>
        <time>2023-07-22T11:58:01.897Z</time>
      </trkpt>
      <trkpt lat="47.86759" lon="-2.5174">
        <ele>96</ele>
        <time>2023-07-22T11:58:02.896Z</time>
      </trkpt>
      <trkpt lat="47.86758" lon="-2.51741">
        <ele>97</ele>
        <time>2023-07-22T11:58:03.896Z</time>
      </trkpt>
      <trkpt lat="47.86757" lon="-2.51742">
        <ele>97</ele>
        <time>2023-07-22T11:58:04.897Z</time>
      </trkpt>
      <trkpt lat="47.86756" lon="-2.51742">
        <ele>97</ele>
        <time>2023-07-22T11:58:05.897Z</time>
      </trkpt>
      <trkpt lat="47.86755" lon="-2.51741">
        <ele>97</ele>
        <time>2023-07-22T11:58:06.896Z</time>
      </trkpt>
      <trkpt lat="47.86753" lon="-2.51742">
        <ele>97</ele>
        <time>2023-07-22T11:58:07.897Z</time>
      </trkpt>
      <trkpt lat="47.86752" lon="-2.51742">
        <ele>97</ele>
        <time>2023-07-22T11:58:08.896Z</time>
      </trkpt>
      <trkpt lat="47.86751" lon="-2.5174">
        <ele>96</ele>
        <time>2023-07-22T11:58:09.896Z</time>
      </trkpt>
      <trkpt lat="47.8675" lon="-2.5174">
        <ele>96</ele>
        <time>2023-07-22T11:58:10.896Z</time>
      </trkpt>
      <trkpt lat="47.8675" lon="-2.5174">
        <ele>95</ele>
        <time>2023-07-22T11:58:11.897Z</time>
      </trkpt>
      <trkpt lat="47.86749" lon="-2.5174">
        <ele>95</ele>
        <time>2023-07-22T11:58:12.896Z</time>
      </trkpt>
      <trkpt lat="47.86748" lon="-2.5174">
        <ele>95</ele>
        <time>2023-07-22T11:58:13.896Z</time>
      </trkpt>
      <trkpt lat="47.86748" lon="-2.51739">
        <ele>94</ele>
        <time>2023-07-22T11:58:14.897Z</time>
      </trkpt>
      <trkpt lat="47.86747" lon="-2.51739">
        <ele>94</ele>
        <time>2023-07-22T11:58:15.896Z</time>
      </trkpt>
      <trkpt lat="47.86747" lon="-2.51737">
        <ele>94</ele>
        <time>2023-07-22T11:58:16.897Z</time>
      </trkpt>
      <trkpt lat="47.86746" lon="-2.51737">
        <ele>94</ele>
        <time>2023-07-22T11:58:17.896Z</time>
      </trkpt>
      <trkpt lat="47.86744" lon="-2.51737">
        <ele>94</ele>
        <time>2023-07-22T11:58:18.896Z</time>
      </trkpt>
      <trkpt lat="47.86743" lon="-2.51737">
        <ele>95</ele>
        <time>2023-07-22T11:58:19.896Z</time>
      </trkpt>
      <trkpt lat="47.86743" lon="-2.51737">
        <ele>95</ele>
        <time>2023-07-22T11:58:20.897Z</time>
      </trkpt>
      <trkpt lat="47.86741" lon="-2.51737">
        <ele>95</ele>
        <time>2023-07-22T11:58:21.896Z</time>
      </trkpt>
      <trkpt lat="47.86741" lon="-2.51736">
        <ele>95</ele>
        <time>2023-07-22T11:58:22.896Z</time>
      </trkpt>
      <trkpt lat="47.8674" lon="-2.51735">
        <ele>95</ele>
        <time>2023-07-22T11:58:23.896Z</time>
      </trkpt>
      <trkpt lat="47.86739" lon="-2.51735">
        <ele>95</ele>
        <time>2023-07-22T11:58:24.896Z</time>
      </trkpt>
      <trkpt lat="47.86738" lon="-2.51735">
        <ele>95</ele>
        <time>2023-07-22T11:58:25.896Z</time>
      </trkpt>
      <trkpt lat="47.86737" lon="-2.51734">
        <ele>95</ele>
        <time>2023-07-22T11:58:26.896Z</time>
      </trkpt>
      <trkpt lat="47.86736" lon="-2.51732">
        <ele>95</ele>
        <time>2023-07-22T11:58:27.896Z</time>
      </trkpt>
      <trkpt lat="47.86735" lon="-2.51731">
        <ele>96</ele>
        <time>2023-07-22T11:58:28.896Z</time>
      </trkpt>
      <trkpt lat="47.86734" lon="-2.5173">
        <ele>96</ele>
        <time>2023-07-22T11:58:29.896Z</time>
      </trkpt>
      <trkpt lat="47.86732" lon="-2.51729">
        <ele>96</ele>
        <time>2023-07-22T11:58:30.896Z</time>
      </trkpt>
      <trkpt lat="47.86731" lon="-2.51729">
        <ele>97</ele>
        <time>2023-07-22T11:58:31.896Z</time>
      </trkpt>
      <trkpt lat="47.8673" lon="-2.5173">
        <ele>97</ele>
        <time>2023-07-22T11:58:32.896Z</time>
      </trkpt>
      <trkpt lat="47.8673" lon="-2.5173">
        <ele>97</ele>
        <time>2023-07-22T11:58:33.896Z</time>
      </trkpt>
      <trkpt lat="47.86729" lon="-2.51731">
        <ele>97</ele>
        <time>2023-07-22T11:58:34.897Z</time>
      </trkpt>
      <trkpt lat="47.86728" lon="-2.51731">
        <ele>97</ele>
        <time>2023-07-22T11:58:35.896Z</time>
      </trkpt>
      <trkpt lat="47.86726" lon="-2.51732">
        <ele>96</ele>
        <time>2023-07-22T11:58:36.896Z</time>
      </trkpt>
      <trkpt lat="47.86725" lon="-2.51732">
        <ele>96</ele>
        <time>2023-07-22T11:58:37.896Z</time>
      </trkpt>
      <trkpt lat="47.86724" lon="-2.51732">
        <ele>96</ele>
        <time>2023-07-22T11:58:38.896Z</time>
      </trkpt>
      <trkpt lat="47.86723" lon="-2.51732">
        <ele>96</ele>
        <time>2023-07-22T11:58:39.897Z</time>
      </trkpt>
      <trkpt lat="47.86723" lon="-2.51731">
        <ele>96</ele>
        <time>2023-07-22T11:58:40.896Z</time>
      </trkpt>
      <trkpt lat="47.86722" lon="-2.51731">
        <ele>97</ele>
        <time>2023-07-22T11:58:41.896Z</time>
      </trkpt>
      <trkpt lat="47.86722" lon="-2.51732">
        <ele>97</ele>
        <time>2023-07-22T11:58:42.896Z</time>
      </trkpt>
      <trkpt lat="47.86721" lon="-2.51732">
        <ele>97</ele>
        <time>2023-07-22T11:58:43.897Z</time>
      </trkpt>
      <trkpt lat="47.8672" lon="-2.51731">
        <ele>97</ele>
        <time>2023-07-22T11:58:44.896Z</time>
      </trkpt>
      <trkpt lat="47.86719" lon="-2.5173">
        <ele>97</ele>
        <time>2023-07-22T11:58:45.896Z</time>
      </trkpt>
      <trkpt lat="47.86718" lon="-2.51729">
        <ele>98</ele>
        <time>2023-07-22T11:58:46.896Z</time>
      </trkpt>
      <trkpt lat="47.86717" lon="-2.51728">
        <ele>97</ele>
        <time>2023-07-22T11:58:47.896Z</time>
      </trkpt>
      <trkpt lat="47.86716" lon="-2.51728">
        <ele>97</ele>
        <time>2023-07-22T11:58:48.896Z</time>
      </trkpt>
      <trkpt lat="47.86715" lon="-2.51727">
        <ele>97</ele>
        <time>2023-07-22T11:58:49.896Z</time>
      </trkpt>
      <trkpt lat="47.86714" lon="-2.51728">
        <ele>97</ele>
        <time>2023-07-22T11:58:50.896Z</time>
      </trkpt>
      <trkpt lat="47.86712" lon="-2.51726">
        <ele>96</ele>
        <time>2023-07-22T11:58:51.896Z</time>
      </trkpt>
      <trkpt lat="47.86712" lon="-2.51727">
        <ele>96</ele>
        <time>2023-07-22T11:58:52.896Z</time>
      </trkpt>
      <trkpt lat="47.86712" lon="-2.51727">
        <ele>96</ele>
        <time>2023-07-22T11:58:53.896Z</time>
      </trkpt>
      <trkpt lat="47.86712" lon="-2.51727">
        <ele>96</ele>
        <time>2023-07-22T11:58:54.896Z</time>
      </trkpt>
      <trkpt lat="47.86715" lon="-2.51729">
        <ele>96</ele>
        <time>2023-07-22T11:59:03.058Z</time>
      </trkpt>
      <trkpt lat="47.86715" lon="-2.51728">
        <ele>96</ele>
        <time>2023-07-22T11:59:04.059Z</time>
      </trkpt>
      <trkpt lat="47.86716" lon="-2.51727">
        <ele>95</ele>
        <time>2023-07-22T11:59:05.058Z</time>
      </trkpt>
      <trkpt lat="47.86716" lon="-2.51726">
        <ele>95</ele>
        <time>2023-07-22T11:59:06.058Z</time>
      </trkpt>
      <trkpt lat="47.86716" lon="-2.51725">
        <ele>95</ele>
        <time>2023-07-22T11:59:07.058Z</time>
      </trkpt>
      <trkpt lat="47.86717" lon="-2.51724">
        <ele>96</ele>
        <time>2023-07-22T11:59:08.058Z</time>
      </trkpt>
      <trkpt lat="47.86716" lon="-2.51724">
        <ele>96</ele>
        <time>2023-07-22T11:59:09.058Z</time>
      </trkpt>
      <trkpt lat="47.86717" lon="-2.51723">
        <ele>96</ele>
        <time>2023-07-22T11:59:10.058Z</time>
      </trkpt>
      <trkpt lat="47.86717" lon="-2.51723">
        <ele>96</ele>
        <time>2023-07-22T11:59:11.058Z</time>
      </trkpt>
      <trkpt lat="47.86716" lon="-2.51724">
        <ele>95</ele>
        <time>2023-07-22T11:59:22.351Z</time>
      </trkpt>
      <trkpt lat="47.86716" lon="-2.51724">
        <ele>95</ele>
        <time>2023-07-22T11:59:23.352Z</time>
      </trkpt>
      <trkpt lat="47.86716" lon="-2.51724">
        <ele>95</ele>
        <time>2023-07-22T11:59:24.351Z</time>
      </trkpt>
      <trkpt lat="47.86704" lon="-2.51722">
        <ele>93</ele>
        <time>2023-07-22T12:00:44.131Z</time>
      </trkpt>
      <trkpt lat="47.86703" lon="-2.51722">
        <ele>94</ele>
        <time>2023-07-22T12:00:45.131Z</time>
      </trkpt>
      <trkpt lat="47.86703" lon="-2.51722">
        <ele>94</ele>
        <time>2023-07-22T12:00:46.131Z</time>
      </trkpt>
      <trkpt lat="47.86702" lon="-2.51721">
        <ele>94</ele>
        <time>2023-07-22T12:00:47.131Z</time>
      </trkpt>
      <trkpt lat="47.86701" lon="-2.51721">
        <ele>94</ele>
        <time>2023-07-22T12:00:48.131Z</time>
      </trkpt>
      <trkpt lat="47.867" lon="-2.51721">
        <ele>94</ele>
        <time>2023-07-22T12:00:49.131Z</time>
      </trkpt>
      <trkpt lat="47.86699" lon="-2.51721">
        <ele>94</ele>
        <time>2023-07-22T12:00:50.131Z</time>
      </trkpt>
      <trkpt lat="47.86699" lon="-2.5172">
        <ele>94</ele>
        <time>2023-07-22T12:00:51.131Z</time>
      </trkpt>
      <trkpt lat="47.86697" lon="-2.5172">
        <ele>93</ele>
        <time>2023-07-22T12:00:52.131Z</time>
      </trkpt>
      <trkpt lat="47.86696" lon="-2.5172">
        <ele>93</ele>
        <time>2023-07-22T12:00:53.131Z</time>
      </trkpt>
      <trkpt lat="47.86695" lon="-2.5172">
        <ele>93</ele>
        <time>2023-07-22T12:00:54.131Z</time>
      </trkpt>
      <trkpt lat="47.86694" lon="-2.51719">
        <ele>93</ele>
        <time>2023-07-22T12:00:55.131Z</time>
      </trkpt>
      <trkpt lat="47.86692" lon="-2.51718">
        <ele>93</ele>
        <time>2023-07-22T12:00:56.131Z</time>
      </trkpt>
      <trkpt lat="47.86691" lon="-2.51717">
        <ele>93</ele>
        <time>2023-07-22T12:00:57.131Z</time>
      </trkpt>
      <trkpt lat="47.8669" lon="-2.51716">
        <ele>92</ele>
        <time>2023-07-22T12:00:58.131Z</time>
      </trkpt>
      <trkpt lat="47.86689" lon="-2.51715">
        <ele>92</ele>
        <time>2023-07-22T12:00:59.131Z</time>
      </trkpt>
      <trkpt lat="47.86687" lon="-2.51714">
        <ele>92</ele>
        <time>2023-07-22T12:01:00.131Z</time>
      </trkpt>
      <trkpt lat="47.86686" lon="-2.51714">
        <ele>92</ele>
        <time>2023-07-22T12:01:01.131Z</time>
      </trkpt>
      <trkpt lat="47.86685" lon="-2.51714">
        <ele>92</ele>
        <time>2023-07-22T12:01:02.131Z</time>
      </trkpt>
      <trkpt lat="47.86683" lon="-2.51713">
        <ele>92</ele>
        <time>2023-07-22T12:01:03.131Z</time>
      </trkpt>
      <trkpt lat="47.86683" lon="-2.51713">
        <ele>92</ele>
        <time>2023-07-22T12:01:04.131Z</time>
      </trkpt>
      <trkpt lat="47.86681" lon="-2.51711">
        <ele>92</ele>
        <time>2023-07-22T12:01:05.131Z</time>
      </trkpt>
      <trkpt lat="47.86679" lon="-2.5171">
        <ele>92</ele>
        <time>2023-07-22T12:01:06.131Z</time>
      </trkpt>
      <trkpt lat="47.86678" lon="-2.51709">
        <ele>92</ele>
        <time>2023-07-22T12:01:07.131Z</time>
      </trkpt>
      <trkpt lat="47.86677" lon="-2.51709">
        <ele>92</ele>
        <time>2023-07-22T12:01:08.131Z</time>
      </trkpt>
      <trkpt lat="47.86676" lon="-2.51707">
        <ele>92</ele>
        <time>2023-07-22T12:01:09.131Z</time>
      </trkpt>
      <trkpt lat="47.86675" lon="-2.51705">
        <ele>92</ele>
        <time>2023-07-22T12:01:10.131Z</time>
      </trkpt>
      <trkpt lat="47.86674" lon="-2.51703">
        <ele>93</ele>
        <time>2023-07-22T12:01:11.131Z</time>
      </trkpt>
      <trkpt lat="47.86674" lon="-2.51702">
        <ele>93</ele>
        <time>2023-07-22T12:01:12.131Z</time>
      </trkpt>
      <trkpt lat="47.86673" lon="-2.51702">
        <ele>93</ele>
        <time>2023-07-22T12:01:13.131Z</time>
      </trkpt>
      <trkpt lat="47.86672" lon="-2.51702">
        <ele>93</ele>
        <time>2023-07-22T12:01:14.131Z</time>
      </trkpt>
      <trkpt lat="47.86671" lon="-2.51702">
        <ele>93</ele>
        <time>2023-07-22T12:01:15.131Z</time>
      </trkpt>
      <trkpt lat="47.8667" lon="-2.51702">
        <ele>93</ele>
        <time>2023-07-22T12:01:16.131Z</time>
      </trkpt>
      <trkpt lat="47.86668" lon="-2.51701">
        <ele>93</ele>
        <time>2023-07-22T12:01:17.131Z</time>
      </trkpt>
      <trkpt lat="47.86667" lon="-2.517">
        <ele>93</ele>
        <time>2023-07-22T12:01:18.131Z</time>
      </trkpt>
      <trkpt lat="47.86666" lon="-2.517">
        <ele>94</ele>
        <time>2023-07-22T12:01:19.131Z</time>
      </trkpt>
      <trkpt lat="47.86665" lon="-2.51701">
        <ele>94</ele>
        <time>2023-07-22T12:01:20.131Z</time>
      </trkpt>
      <trkpt lat="47.86664" lon="-2.51702">
        <ele>94</ele>
        <time>2023-07-22T12:01:21.131Z</time>
      </trkpt>
      <trkpt lat="47.86664" lon="-2.51701">
        <ele>94</ele>
        <time>2023-07-22T12:01:22.131Z</time>
      </trkpt>
      <trkpt lat="47.86663" lon="-2.51701">
        <ele>94</ele>
        <time>2023-07-22T12:01:23.131Z</time>
      </trkpt>
      <trkpt lat="47.86663" lon="-2.51701">
        <ele>94</ele>
        <time>2023-07-22T12:01:24.131Z</time>
      </trkpt>
      <trkpt lat="47.86662" lon="-2.51699">
        <ele>95</ele>
        <time>2023-07-22T12:01:25.131Z</time>
      </trkpt>
      <trkpt lat="47.86661" lon="-2.51698">
        <ele>95</ele>
        <time>2023-07-22T12:01:26.131Z</time>
      </trkpt>
      <trkpt lat="47.8666" lon="-2.51697">
        <ele>96</ele>
        <time>2023-07-22T12:01:27.131Z</time>
      </trkpt>
      <trkpt lat="47.86659" lon="-2.51697">
        <ele>96</ele>
        <time>2023-07-22T12:01:28.131Z</time>
      </trkpt>
      <trkpt lat="47.86658" lon="-2.51698">
        <ele>97</ele>
        <time>2023-07-22T12:01:29.131Z</time>
      </trkpt>
      <trkpt lat="47.86657" lon="-2.51699">
        <ele>97</ele>
        <time>2023-07-22T12:01:30.131Z</time>
      </trkpt>
      <trkpt lat="47.86656" lon="-2.51699">
        <ele>96</ele>
        <time>2023-07-22T12:01:31.131Z</time>
      </trkpt>
      <trkpt lat="47.86656" lon="-2.51699">
        <ele>96</ele>
        <time>2023-07-22T12:01:32.131Z</time>
      </trkpt>
      <trkpt lat="47.86654" lon="-2.51698">
        <ele>96</ele>
        <time>2023-07-22T12:01:33.131Z</time>
      </trkpt>
      <trkpt lat="47.86654" lon="-2.51698">
        <ele>96</ele>
        <time>2023-07-22T12:01:34.131Z</time>
      </trkpt>
      <trkpt lat="47.86653" lon="-2.51697">
        <ele>95</ele>
        <time>2023-07-22T12:01:35.131Z</time>
      </trkpt>
      <trkpt lat="47.86652" lon="-2.51696">
        <ele>95</ele>
        <time>2023-07-22T12:01:36.131Z</time>
      </trkpt>
      <trkpt lat="47.86651" lon="-2.51695">
        <ele>95</ele>
        <time>2023-07-22T12:01:37.131Z</time>
      </trkpt>
      <trkpt lat="47.8665" lon="-2.51695">
        <ele>95</ele>
        <time>2023-07-22T12:01:38.131Z</time>
      </trkpt>
      <trkpt lat="47.86649" lon="-2.51694">
        <ele>95</ele>
        <time>2023-07-22T12:01:39.131Z</time>
      </trkpt>
      <trkpt lat="47.86648" lon="-2.51693">
        <ele>95</ele>
        <time>2023-07-22T12:01:40.131Z</time>
      </trkpt>
      <trkpt lat="47.86648" lon="-2.51693">
        <ele>95</ele>
        <time>2023-07-22T12:01:41.131Z</time>
      </trkpt>
      <trkpt lat="47.86647" lon="-2.51693">
        <ele>95</ele>
        <time>2023-07-22T12:01:42.131Z</time>
      </trkpt>
      <trkpt lat="47.86646" lon="-2.51692">
        <ele>95</ele>
        <time>2023-07-22T12:01:43.131Z</time>
      </trkpt>
      <trkpt lat="47.86646" lon="-2.51691">
        <ele>95</ele>
        <time>2023-07-22T12:01:44.131Z</time>
      </trkpt>
      <trkpt lat="47.86645" lon="-2.5169">
        <ele>96</ele>
        <time>2023-07-22T12:01:45.131Z</time>
      </trkpt>
      <trkpt lat="47.86644" lon="-2.51689">
        <ele>97</ele>
        <time>2023-07-22T12:01:46.131Z</time>
      </trkpt>
      <trkpt lat="47.86644" lon="-2.51688">
        <ele>97</ele>
        <time>2023-07-22T12:01:47.131Z</time>
      </trkpt>
      <trkpt lat="47.86643" lon="-2.51687">
        <ele>98</ele>
        <time>2023-07-22T12:01:48.131Z</time>
      </trkpt>
      <trkpt lat="47.86642" lon="-2.51685">
        <ele>98</ele>
        <time>2023-07-22T12:01:49.131Z</time>
      </trkpt>
      <trkpt lat="47.86642" lon="-2.51683">
        <ele>99</ele>
        <time>2023-07-22T12:01:50.131Z</time>
      </trkpt>
      <trkpt lat="47.86641" lon="-2.51682">
        <ele>99</ele>
        <time>2023-07-22T12:01:51.131Z</time>
      </trkpt>
      <trkpt lat="47.8664" lon="-2.51681">
        <ele>100</ele>
        <time>2023-07-22T12:01:52.131Z</time>
      </trkpt>
      <trkpt lat="47.86639" lon="-2.51681">
        <ele>100</ele>
        <time>2023-07-22T12:01:53.131Z</time>
      </trkpt>
      <trkpt lat="47.86638" lon="-2.51681">
        <ele>100</ele>
        <time>2023-07-22T12:01:54.131Z</time>
      </trkpt>
      <trkpt lat="47.86637" lon="-2.51681">
        <ele>101</ele>
        <time>2023-07-22T12:01:55.131Z</time>
      </trkpt>
      <trkpt lat="47.86637" lon="-2.5168">
        <ele>101</ele>
        <time>2023-07-22T12:01:56.131Z</time>
      </trkpt>
      <trkpt lat="47.86636" lon="-2.5168">
        <ele>100</ele>
        <time>2023-07-22T12:01:57.131Z</time>
      </trkpt>
      <trkpt lat="47.86636" lon="-2.51679">
        <ele>100</ele>
        <time>2023-07-22T12:01:58.131Z</time>
      </trkpt>
      <trkpt lat="47.86635" lon="-2.51678">
        <ele>100</ele>
        <time>2023-07-22T12:01:59.131Z</time>
      </trkpt>
      <trkpt lat="47.86634" lon="-2.51678">
        <ele>100</ele>
        <time>2023-07-22T12:02:00.131Z</time>
      </trkpt>
      <trkpt lat="47.86634" lon="-2.51676">
        <ele>100</ele>
        <time>2023-07-22T12:02:01.131Z</time>
      </trkpt>
      <trkpt lat="47.86633" lon="-2.51675">
        <ele>100</ele>
        <time>2023-07-22T12:02:02.131Z</time>
      </trkpt>
      <trkpt lat="47.86633" lon="-2.51674">
        <ele>100</ele>
        <time>2023-07-22T12:02:03.131Z</time>
      </trkpt>
      <trkpt lat="47.86632" lon="-2.51673">
        <ele>100</ele>
        <time>2023-07-22T12:02:04.131Z</time>
      </trkpt>
      <trkpt lat="47.86632" lon="-2.51673">
        <ele>100</ele>
        <time>2023-07-22T12:02:05.131Z</time>
      </trkpt>
      <trkpt lat="47.86632" lon="-2.51673">
        <ele>100</ele>
        <time>2023-07-22T12:02:06.131Z</time>
      </trkpt>
      <trkpt lat="47.86632" lon="-2.51673">
        <ele>100</ele>
        <time>2023-07-22T12:02:07.131Z</time>
      </trkpt>
      <trkpt lat="47.86632" lon="-2.51672">
        <ele>100</ele>
        <time>2023-07-22T12:02:08.131Z</time>
      </trkpt>
      <trkpt lat="47.86632" lon="-2.51671">
        <ele>100</ele>
        <time>2023-07-22T12:02:09.131Z</time>
      </trkpt>
      <trkpt lat="47.86632" lon="-2.5167">
        <ele>100</ele>
        <time>2023-07-22T12:02:10.131Z</time>
      </trkpt>
      <trkpt lat="47.86632" lon="-2.51668">
        <ele>100</ele>
        <time>2023-07-22T12:02:11.131Z</time>
      </trkpt>
      <trkpt lat="47.86632" lon="-2.51667">
        <ele>100</ele>
        <time>2023-07-22T12:02:12.131Z</time>
      </trkpt>
      <trkpt lat="47.86631" lon="-2.51667">
        <ele>101</ele>
        <time>2023-07-22T12:02:13.131Z</time>
      </trkpt>
      <trkpt lat="47.86631" lon="-2.51666">
        <ele>101</ele>
        <time>2023-07-22T12:02:14.131Z</time>
      </trkpt>
      <trkpt lat="47.8663" lon="-2.51665">
        <ele>102</ele>
        <time>2023-07-22T12:02:15.131Z</time>
      </trkpt>
      <trkpt lat="47.8663" lon="-2.51665">
        <ele>102</ele>
        <time>2023-07-22T12:02:16.131Z</time>
      </trkpt>
      <trkpt lat="47.86629" lon="-2.51664">
        <ele>102</ele>
        <time>2023-07-22T12:02:17.131Z</time>
      </trkpt>
      <trkpt lat="47.86628" lon="-2.51662">
        <ele>102</ele>
        <time>2023-07-22T12:02:18.131Z</time>
      </trkpt>
      <trkpt lat="47.86627" lon="-2.51662">
        <ele>102</ele>
        <time>2023-07-22T12:02:19.131Z</time>
      </trkpt>
      <trkpt lat="47.86626" lon="-2.51661">
        <ele>102</ele>
        <time>2023-07-22T12:02:20.131Z</time>
      </trkpt>
      <trkpt lat="47.86625" lon="-2.5166">
        <ele>102</ele>
        <time>2023-07-22T12:02:21.131Z</time>
      </trkpt>
      <trkpt lat="47.86623" lon="-2.51659">
        <ele>102</ele>
        <time>2023-07-22T12:02:22.131Z</time>
      </trkpt>
      <trkpt lat="47.86622" lon="-2.51658">
        <ele>102</ele>
        <time>2023-07-22T12:02:23.131Z</time>
      </trkpt>
      <trkpt lat="47.86621" lon="-2.51658">
        <ele>101</ele>
        <time>2023-07-22T12:02:24.131Z</time>
      </trkpt>
      <trkpt lat="47.8662" lon="-2.51657">
        <ele>101</ele>
        <time>2023-07-22T12:02:25.131Z</time>
      </trkpt>
      <trkpt lat="47.86619" lon="-2.51657">
        <ele>101</ele>
        <time>2023-07-22T12:02:26.131Z</time>
      </trkpt>
      <trkpt lat="47.86619" lon="-2.51656">
        <ele>101</ele>
        <time>2023-07-22T12:02:27.131Z</time>
      </trkpt>
      <trkpt lat="47.86618" lon="-2.51656">
        <ele>101</ele>
        <time>2023-07-22T12:02:28.131Z</time>
      </trkpt>
      <trkpt lat="47.86617" lon="-2.51655">
        <ele>100</ele>
        <time>2023-07-22T12:02:29.131Z</time>
      </trkpt>
      <trkpt lat="47.86617" lon="-2.51656">
        <ele>100</ele>
        <time>2023-07-22T12:02:30.131Z</time>
      </trkpt>
      <trkpt lat="47.86616" lon="-2.51657">
        <ele>100</ele>
        <time>2023-07-22T12:02:31.131Z</time>
      </trkpt>
      <trkpt lat="47.86616" lon="-2.51658">
        <ele>99</ele>
        <time>2023-07-22T12:02:32.131Z</time>
      </trkpt>
      <trkpt lat="47.86615" lon="-2.51658">
        <ele>99</ele>
        <time>2023-07-22T12:02:33.131Z</time>
      </trkpt>
      <trkpt lat="47.86614" lon="-2.51659">
        <ele>98</ele>
        <time>2023-07-22T12:02:34.131Z</time>
      </trkpt>
      <trkpt lat="47.86613" lon="-2.51659">
        <ele>98</ele>
        <time>2023-07-22T12:02:35.131Z</time>
      </trkpt>
      <trkpt lat="47.86612" lon="-2.51658">
        <ele>98</ele>
        <time>2023-07-22T12:02:36.131Z</time>
      </trkpt>
      <trkpt lat="47.86611" lon="-2.51657">
        <ele>98</ele>
        <time>2023-07-22T12:02:37.131Z</time>
      </trkpt>
      <trkpt lat="47.8661" lon="-2.51655">
        <ele>98</ele>
        <time>2023-07-22T12:02:38.131Z</time>
      </trkpt>
      <trkpt lat="47.86609" lon="-2.51654">
        <ele>98</ele>
        <time>2023-07-22T12:02:39.131Z</time>
      </trkpt>
      <trkpt lat="47.86608" lon="-2.51652">
        <ele>98</ele>
        <time>2023-07-22T12:02:40.131Z</time>
      </trkpt>
      <trkpt lat="47.86608" lon="-2.5165">
        <ele>98</ele>
        <time>2023-07-22T12:02:41.131Z</time>
      </trkpt>
      <trkpt lat="47.86607" lon="-2.51648">
        <ele>98</ele>
        <time>2023-07-22T12:02:42.131Z</time>
      </trkpt>
      <trkpt lat="47.86607" lon="-2.51647">
        <ele>98</ele>
        <time>2023-07-22T12:02:43.131Z</time>
      </trkpt>
      <trkpt lat="47.86606" lon="-2.51645">
        <ele>98</ele>
        <time>2023-07-22T12:02:44.131Z</time>
      </trkpt>
      <trkpt lat="47.86606" lon="-2.51643">
        <ele>98</ele>
        <time>2023-07-22T12:02:45.131Z</time>
      </trkpt>
      <trkpt lat="47.86605" lon="-2.51641">
        <ele>98</ele>
        <time>2023-07-22T12:02:46.131Z</time>
      </trkpt>
      <trkpt lat="47.86604" lon="-2.5164">
        <ele>98</ele>
        <time>2023-07-22T12:02:47.131Z</time>
      </trkpt>
      <trkpt lat="47.86603" lon="-2.51638">
        <ele>98</ele>
        <time>2023-07-22T12:02:48.131Z</time>
      </trkpt>
      <trkpt lat="47.86602" lon="-2.51636">
        <ele>98</ele>
        <time>2023-07-22T12:02:49.131Z</time>
      </trkpt>
      <trkpt lat="47.86601" lon="-2.51634">
        <ele>98</ele>
        <time>2023-07-22T12:02:50.131Z</time>
      </trkpt>
      <trkpt lat="47.866" lon="-2.51633">
        <ele>98</ele>
        <time>2023-07-22T12:02:51.131Z</time>
      </trkpt>
      <trkpt lat="47.866" lon="-2.51632">
        <ele>98</ele>
        <time>2023-07-22T12:02:52.131Z</time>
      </trkpt>
      <trkpt lat="47.866" lon="-2.51632">
        <ele>98</ele>
        <time>2023-07-22T12:02:53.131Z</time>
      </trkpt>
      <trkpt lat="47.86601" lon="-2.51632">
        <ele>98</ele>
        <time>2023-07-22T12:02:54.131Z</time>
      </trkpt>
      <trkpt lat="47.86601" lon="-2.51631">
        <ele>98</ele>
        <time>2023-07-22T12:02:55.131Z</time>
      </trkpt>
      <trkpt lat="47.866" lon="-2.51631">
        <ele>98</ele>
        <time>2023-07-22T12:02:56.131Z</time>
      </trkpt>
      <trkpt lat="47.866" lon="-2.51629">
        <ele>98</ele>
        <time>2023-07-22T12:02:57.131Z</time>
      </trkpt>
      <trkpt lat="47.86599" lon="-2.51628">
        <ele>98</ele>
        <time>2023-07-22T12:02:58.131Z</time>
      </trkpt>
      <trkpt lat="47.86598" lon="-2.51628">
        <ele>97</ele>
        <time>2023-07-22T12:02:59.131Z</time>
      </trkpt>
      <trkpt lat="47.86597" lon="-2.51628">
        <ele>97</ele>
        <time>2023-07-22T12:03:00.131Z</time>
      </trkpt>
      <trkpt lat="47.86596" lon="-2.51628">
        <ele>96</ele>
        <time>2023-07-22T12:03:01.131Z</time>
      </trkpt>
      <trkpt lat="47.86595" lon="-2.51627">
        <ele>95</ele>
        <time>2023-07-22T12:03:02.131Z</time>
      </trkpt>
      <trkpt lat="47.86594" lon="-2.51626">
        <ele>94</ele>
        <time>2023-07-22T12:03:03.131Z</time>
      </trkpt>
      <trkpt lat="47.86593" lon="-2.51625">
        <ele>93</ele>
        <time>2023-07-22T12:03:04.131Z</time>
      </trkpt>
      <trkpt lat="47.86591" lon="-2.51624">
        <ele>92</ele>
        <time>2023-07-22T12:03:05.131Z</time>
      </trkpt>
      <trkpt lat="47.8659" lon="-2.51623">
        <ele>91</ele>
        <time>2023-07-22T12:03:06.131Z</time>
      </trkpt>
      <trkpt lat="47.86589" lon="-2.51621">
        <ele>91</ele>
        <time>2023-07-22T12:03:07.131Z</time>
      </trkpt>
      <trkpt lat="47.86587" lon="-2.51621">
        <ele>90</ele>
        <time>2023-07-22T12:03:08.131Z</time>
      </trkpt>
      <trkpt lat="47.86586" lon="-2.51622">
        <ele>89</ele>
        <time>2023-07-22T12:03:09.131Z</time>
      </trkpt>
      <trkpt lat="47.86584" lon="-2.51623">
        <ele>89</ele>
        <time>2023-07-22T12:03:10.131Z</time>
      </trkpt>
      <trkpt lat="47.86583" lon="-2.51624">
        <ele>89</ele>
        <time>2023-07-22T12:03:11.131Z</time>
      </trkpt>
      <trkpt lat="47.86581" lon="-2.51624">
        <ele>88</ele>
        <time>2023-07-22T12:03:12.131Z</time>
      </trkpt>
      <trkpt lat="47.8658" lon="-2.51624">
        <ele>88</ele>
        <time>2023-07-22T12:03:13.131Z</time>
      </trkpt>
      <trkpt lat="47.86579" lon="-2.51624">
        <ele>88</ele>
        <time>2023-07-22T12:03:14.131Z</time>
      </trkpt>
      <trkpt lat="47.86578" lon="-2.51623">
        <ele>87</ele>
        <time>2023-07-22T12:03:15.131Z</time>
      </trkpt>
      <trkpt lat="47.86577" lon="-2.51623">
        <ele>87</ele>
        <time>2023-07-22T12:03:16.131Z</time>
      </trkpt>
      <trkpt lat="47.86575" lon="-2.51623">
        <ele>87</ele>
        <time>2023-07-22T12:03:17.131Z</time>
      </trkpt>
      <trkpt lat="47.86574" lon="-2.51624">
        <ele>87</ele>
        <time>2023-07-22T12:03:18.131Z</time>
      </trkpt>
      <trkpt lat="47.86573" lon="-2.51623">
        <ele>86</ele>
        <time>2023-07-22T12:03:19.131Z</time>
      </trkpt>
      <trkpt lat="47.86572" lon="-2.51624">
        <ele>86</ele>
        <time>2023-07-22T12:03:20.131Z</time>
      </trkpt>
      <trkpt lat="47.86571" lon="-2.51626">
        <ele>86</ele>
        <time>2023-07-22T12:03:21.131Z</time>
      </trkpt>
      <trkpt lat="47.8657" lon="-2.51627">
        <ele>86</ele>
        <time>2023-07-22T12:03:22.131Z</time>
      </trkpt>
      <trkpt lat="47.86569" lon="-2.51628">
        <ele>86</ele>
        <time>2023-07-22T12:03:23.131Z</time>
      </trkpt>
      <trkpt lat="47.86568" lon="-2.5163">
        <ele>86</ele>
        <time>2023-07-22T12:03:24.131Z</time>
      </trkpt>
      <trkpt lat="47.86567" lon="-2.51632">
        <ele>86</ele>
        <time>2023-07-22T12:03:25.131Z</time>
      </trkpt>
      <trkpt lat="47.86567" lon="-2.51634">
        <ele>86</ele>
        <time>2023-07-22T12:03:26.131Z</time>
      </trkpt>
      <trkpt lat="47.86567" lon="-2.51636">
        <ele>86</ele>
        <time>2023-07-22T12:03:27.131Z</time>
      </trkpt>
      <trkpt lat="47.86566" lon="-2.51637">
        <ele>86</ele>
        <time>2023-07-22T12:03:28.131Z</time>
      </trkpt>
      <trkpt lat="47.86565" lon="-2.51638">
        <ele>85</ele>
        <time>2023-07-22T12:03:29.131Z</time>
      </trkpt>
      <trkpt lat="47.86564" lon="-2.5164">
        <ele>85</ele>
        <time>2023-07-22T12:03:30.131Z</time>
      </trkpt>
      <trkpt lat="47.86563" lon="-2.51642">
        <ele>85</ele>
        <time>2023-07-22T12:03:31.131Z</time>
      </trkpt>
      <trkpt lat="47.86561" lon="-2.51644">
        <ele>85</ele>
        <time>2023-07-22T12:03:32.131Z</time>
      </trkpt>
      <trkpt lat="47.86561" lon="-2.51645">
        <ele>85</ele>
        <time>2023-07-22T12:03:33.131Z</time>
      </trkpt>
      <trkpt lat="47.8656" lon="-2.51646">
        <ele>84</ele>
        <time>2023-07-22T12:03:34.131Z</time>
      </trkpt>
      <trkpt lat="47.86559" lon="-2.51647">
        <ele>85</ele>
        <time>2023-07-22T12:03:35.131Z</time>
      </trkpt>
      <trkpt lat="47.86559" lon="-2.51649">
        <ele>85</ele>
        <time>2023-07-22T12:03:36.131Z</time>
      </trkpt>
      <trkpt lat="47.86558" lon="-2.51651">
        <ele>85</ele>
        <time>2023-07-22T12:03:37.131Z</time>
      </trkpt>
      <trkpt lat="47.86557" lon="-2.51652">
        <ele>85</ele>
        <time>2023-07-22T12:03:38.131Z</time>
      </trkpt>
      <trkpt lat="47.86556" lon="-2.51653">
        <ele>85</ele>
        <time>2023-07-22T12:03:39.131Z</time>
      </trkpt>
      <trkpt lat="47.86554" lon="-2.51654">
        <ele>85</ele>
        <time>2023-07-22T12:03:40.131Z</time>
      </trkpt>
      <trkpt lat="47.86553" lon="-2.51655">
        <ele>85</ele>
        <time>2023-07-22T12:03:41.131Z</time>
      </trkpt>
      <trkpt lat="47.86552" lon="-2.51656">
        <ele>85</ele>
        <time>2023-07-22T12:03:42.131Z</time>
      </trkpt>
      <trkpt lat="47.86551" lon="-2.51655">
        <ele>85</ele>
        <time>2023-07-22T12:03:43.131Z</time>
      </trkpt>
      <trkpt lat="47.8655" lon="-2.51655">
        <ele>85</ele>
        <time>2023-07-22T12:03:44.131Z</time>
      </trkpt>
      <trkpt lat="47.86549" lon="-2.51655">
        <ele>86</ele>
        <time>2023-07-22T12:03:45.131Z</time>
      </trkpt>
      <trkpt lat="47.86548" lon="-2.51655">
        <ele>86</ele>
        <time>2023-07-22T12:03:46.131Z</time>
      </trkpt>
      <trkpt lat="47.86547" lon="-2.51657">
        <ele>86</ele>
        <time>2023-07-22T12:03:47.131Z</time>
      </trkpt>
      <trkpt lat="47.86546" lon="-2.51658">
        <ele>86</ele>
        <time>2023-07-22T12:03:48.131Z</time>
      </trkpt>
      <trkpt lat="47.86546" lon="-2.51659">
        <ele>86</ele>
        <time>2023-07-22T12:03:49.131Z</time>
      </trkpt>
      <trkpt lat="47.86545" lon="-2.51661">
        <ele>87</ele>
        <time>2023-07-22T12:03:50.131Z</time>
      </trkpt>
      <trkpt lat="47.86544" lon="-2.51661">
        <ele>87</ele>
        <time>2023-07-22T12:03:51.131Z</time>
      </trkpt>
      <trkpt lat="47.86543" lon="-2.51661">
        <ele>87</ele>
        <time>2023-07-22T12:03:52.131Z</time>
      </trkpt>
      <trkpt lat="47.86542" lon="-2.51661">
        <ele>87</ele>
        <time>2023-07-22T12:03:53.131Z</time>
      </trkpt>
      <trkpt lat="47.86542" lon="-2.51661">
        <ele>87</ele>
        <time>2023-07-22T12:03:54.131Z</time>
      </trkpt>
      <trkpt lat="47.86542" lon="-2.51661">
        <ele>87</ele>
        <time>2023-07-22T12:03:55.131Z</time>
      </trkpt>
      <trkpt lat="47.86542" lon="-2.51662">
        <ele>87</ele>
        <time>2023-07-22T12:03:56.131Z</time>
      </trkpt>
      <trkpt lat="47.86541" lon="-2.51664">
        <ele>87</ele>
        <time>2023-07-22T12:03:57.131Z</time>
      </trkpt>
      <trkpt lat="47.86541" lon="-2.51665">
        <ele>87</ele>
        <time>2023-07-22T12:03:58.131Z</time>
      </trkpt>
      <trkpt lat="47.8654" lon="-2.51665">
        <ele>87</ele>
        <time>2023-07-22T12:03:59.131Z</time>
      </trkpt>
      <trkpt lat="47.86539" lon="-2.51665">
        <ele>87</ele>
        <time>2023-07-22T12:04:00.131Z</time>
      </trkpt>
      <trkpt lat="47.86539" lon="-2.51663">
        <ele>87</ele>
        <time>2023-07-22T12:04:01.131Z</time>
      </trkpt>
      <trkpt lat="47.86538" lon="-2.51662">
        <ele>87</ele>
        <time>2023-07-22T12:04:02.131Z</time>
      </trkpt>
      <trkpt lat="47.86537" lon="-2.5166">
        <ele>88</ele>
        <time>2023-07-22T12:04:03.131Z</time>
      </trkpt>
      <trkpt lat="47.86536" lon="-2.5166">
        <ele>88</ele>
        <time>2023-07-22T12:04:04.131Z</time>
      </trkpt>
      <trkpt lat="47.86535" lon="-2.5166">
        <ele>88</ele>
        <time>2023-07-22T12:04:05.131Z</time>
      </trkpt>
      <trkpt lat="47.86534" lon="-2.5166">
        <ele>88</ele>
        <time>2023-07-22T12:04:06.131Z</time>
      </trkpt>
      <trkpt lat="47.86533" lon="-2.51662">
        <ele>88</ele>
        <time>2023-07-22T12:04:07.131Z</time>
      </trkpt>
      <trkpt lat="47.86533" lon="-2.51662">
        <ele>88</ele>
        <time>2023-07-22T12:04:08.131Z</time>
      </trkpt>
      <trkpt lat="47.86532" lon="-2.51664">
        <ele>88</ele>
        <time>2023-07-22T12:04:09.131Z</time>
      </trkpt>
      <trkpt lat="47.86531" lon="-2.51664">
        <ele>88</ele>
        <time>2023-07-22T12:04:10.131Z</time>
      </trkpt>
      <trkpt lat="47.8653" lon="-2.51665">
        <ele>88</ele>
        <time>2023-07-22T12:04:11.131Z</time>
      </trkpt>
      <trkpt lat="47.86529" lon="-2.51665">
        <ele>88</ele>
        <time>2023-07-22T12:04:12.131Z</time>
      </trkpt>
      <trkpt lat="47.86529" lon="-2.51665">
        <ele>88</ele>
        <time>2023-07-22T12:04:13.131Z</time>
      </trkpt>
      <trkpt lat="47.86528" lon="-2.51666">
        <ele>88</ele>
        <time>2023-07-22T12:04:14.131Z</time>
      </trkpt>
      <trkpt lat="47.86528" lon="-2.51666">
        <ele>88</ele>
        <time>2023-07-22T12:04:15.131Z</time>
      </trkpt>
      <trkpt lat="47.86527" lon="-2.51667">
        <ele>88</ele>
        <time>2023-07-22T12:04:16.131Z</time>
      </trkpt>
      <trkpt lat="47.86526" lon="-2.51668">
        <ele>88</ele>
        <time>2023-07-22T12:04:17.131Z</time>
      </trkpt>
      <trkpt lat="47.86526" lon="-2.51669">
        <ele>88</ele>
        <time>2023-07-22T12:04:18.131Z</time>
      </trkpt>
      <trkpt lat="47.86525" lon="-2.5167">
        <ele>88</ele>
        <time>2023-07-22T12:04:19.131Z</time>
      </trkpt>
      <trkpt lat="47.86524" lon="-2.51671">
        <ele>88</ele>
        <time>2023-07-22T12:04:20.131Z</time>
      </trkpt>
      <trkpt lat="47.86523" lon="-2.51672">
        <ele>88</ele>
        <time>2023-07-22T12:04:21.131Z</time>
      </trkpt>
      <trkpt lat="47.86522" lon="-2.51673">
        <ele>88</ele>
        <time>2023-07-22T12:04:22.131Z</time>
      </trkpt>
      <trkpt lat="47.86521" lon="-2.51673">
        <ele>88</ele>
        <time>2023-07-22T12:04:23.131Z</time>
      </trkpt>
      <trkpt lat="47.86521" lon="-2.51674">
        <ele>88</ele>
        <time>2023-07-22T12:04:24.131Z</time>
      </trkpt>
      <trkpt lat="47.8652" lon="-2.51674">
        <ele>88</ele>
        <time>2023-07-22T12:04:25.131Z</time>
      </trkpt>
      <trkpt lat="47.86519" lon="-2.51674">
        <ele>88</ele>
        <time>2023-07-22T12:04:26.131Z</time>
      </trkpt>
      <trkpt lat="47.86519" lon="-2.51675">
        <ele>88</ele>
        <time>2023-07-22T12:04:27.131Z</time>
      </trkpt>
      <trkpt lat="47.86518" lon="-2.51675">
        <ele>89</ele>
        <time>2023-07-22T12:04:28.131Z</time>
      </trkpt>
      <trkpt lat="47.86517" lon="-2.51675">
        <ele>89</ele>
        <time>2023-07-22T12:04:29.131Z</time>
      </trkpt>
      <trkpt lat="47.86517" lon="-2.51676">
        <ele>89</ele>
        <time>2023-07-22T12:04:30.131Z</time>
      </trkpt>
      <trkpt lat="47.86516" lon="-2.51676">
        <ele>89</ele>
        <time>2023-07-22T12:04:31.131Z</time>
      </trkpt>
      <trkpt lat="47.86515" lon="-2.51677">
        <ele>89</ele>
        <time>2023-07-22T12:04:32.131Z</time>
      </trkpt>
      <trkpt lat="47.86514" lon="-2.51677">
        <ele>89</ele>
        <time>2023-07-22T12:04:33.131Z</time>
      </trkpt>
      <trkpt lat="47.86513" lon="-2.51678">
        <ele>89</ele>
        <time>2023-07-22T12:04:34.131Z</time>
      </trkpt>
      <trkpt lat="47.86511" lon="-2.51679">
        <ele>89</ele>
        <time>2023-07-22T12:04:35.131Z</time>
      </trkpt>
      <trkpt lat="47.8651" lon="-2.51681">
        <ele>89</ele>
        <time>2023-07-22T12:04:36.131Z</time>
      </trkpt>
      <trkpt lat="47.8651" lon="-2.51683">
        <ele>89</ele>
        <time>2023-07-22T12:04:37.131Z</time>
      </trkpt>
      <trkpt lat="47.86509" lon="-2.51683">
        <ele>89</ele>
        <time>2023-07-22T12:04:38.131Z</time>
      </trkpt>
      <trkpt lat="47.8651" lon="-2.51685">
        <ele>90</ele>
        <time>2023-07-22T12:04:39.131Z</time>
      </trkpt>
      <trkpt lat="47.86509" lon="-2.51687">
        <ele>90</ele>
        <time>2023-07-22T12:04:40.131Z</time>
      </trkpt>
      <trkpt lat="47.86508" lon="-2.51689">
        <ele>90</ele>
        <time>2023-07-22T12:04:41.131Z</time>
      </trkpt>
      <trkpt lat="47.86508" lon="-2.51691">
        <ele>90</ele>
        <time>2023-07-22T12:04:42.131Z</time>
      </trkpt>
      <trkpt lat="47.86508" lon="-2.51694">
        <ele>90</ele>
        <time>2023-07-22T12:04:43.131Z</time>
      </trkpt>
      <trkpt lat="47.86507" lon="-2.51696">
        <ele>90</ele>
        <time>2023-07-22T12:04:44.131Z</time>
      </trkpt>
      <trkpt lat="47.86508" lon="-2.51698">
        <ele>90</ele>
        <time>2023-07-22T12:04:45.131Z</time>
      </trkpt>
      <trkpt lat="47.86507" lon="-2.517">
        <ele>90</ele>
        <time>2023-07-22T12:04:46.131Z</time>
      </trkpt>
      <trkpt lat="47.86507" lon="-2.51703">
        <ele>90</ele>
        <time>2023-07-22T12:04:47.131Z</time>
      </trkpt>
      <trkpt lat="47.86506" lon="-2.51704">
        <ele>90</ele>
        <time>2023-07-22T12:04:48.131Z</time>
      </trkpt>
      <trkpt lat="47.86506" lon="-2.51705">
        <ele>90</ele>
        <time>2023-07-22T12:04:49.131Z</time>
      </trkpt>
      <trkpt lat="47.86505" lon="-2.51706">
        <ele>90</ele>
        <time>2023-07-22T12:04:50.131Z</time>
      </trkpt>
      <trkpt lat="47.86505" lon="-2.51708">
        <ele>90</ele>
        <time>2023-07-22T12:04:51.131Z</time>
      </trkpt>
      <trkpt lat="47.86505" lon="-2.51709">
        <ele>90</ele>
        <time>2023-07-22T12:04:52.131Z</time>
      </trkpt>
      <trkpt lat="47.86504" lon="-2.51711">
        <ele>90</ele>
        <time>2023-07-22T12:04:53.131Z</time>
      </trkpt>
      <trkpt lat="47.86504" lon="-2.51713">
        <ele>90</ele>
        <time>2023-07-22T12:04:54.131Z</time>
      </trkpt>
      <trkpt lat="47.86503" lon="-2.51714">
        <ele>90</ele>
        <time>2023-07-22T12:04:55.131Z</time>
      </trkpt>
      <trkpt lat="47.86502" lon="-2.51715">
        <ele>90</ele>
        <time>2023-07-22T12:04:56.131Z</time>
      </trkpt>
      <trkpt lat="47.86501" lon="-2.51717">
        <ele>90</ele>
        <time>2023-07-22T12:04:57.131Z</time>
      </trkpt>
      <trkpt lat="47.86501" lon="-2.51719">
        <ele>90</ele>
        <time>2023-07-22T12:04:58.131Z</time>
      </trkpt>
      <trkpt lat="47.86499" lon="-2.51721">
        <ele>89</ele>
        <time>2023-07-22T12:04:59.131Z</time>
      </trkpt>
      <trkpt lat="47.86499" lon="-2.51723">
        <ele>89</ele>
        <time>2023-07-22T12:05:00.131Z</time>
      </trkpt>
      <trkpt lat="47.86496" lon="-2.51726">
        <ele>90</ele>
        <time>2023-07-22T12:05:01.131Z</time>
      </trkpt>
      <trkpt lat="47.86496" lon="-2.51728">
        <ele>90</ele>
        <time>2023-07-22T12:05:02.131Z</time>
      </trkpt>
      <trkpt lat="47.86495" lon="-2.51729">
        <ele>90</ele>
        <time>2023-07-22T12:05:03.131Z</time>
      </trkpt>
      <trkpt lat="47.86495" lon="-2.51732">
        <ele>90</ele>
        <time>2023-07-22T12:05:04.131Z</time>
      </trkpt>
      <trkpt lat="47.86493" lon="-2.51733">
        <ele>90</ele>
        <time>2023-07-22T12:05:05.131Z</time>
      </trkpt>
      <trkpt lat="47.86493" lon="-2.51735">
        <ele>90</ele>
        <time>2023-07-22T12:05:06.131Z</time>
      </trkpt>
      <trkpt lat="47.86493" lon="-2.51736">
        <ele>90</ele>
        <time>2023-07-22T12:05:07.131Z</time>
      </trkpt>
      <trkpt lat="47.86492" lon="-2.51737">
        <ele>90</ele>
        <time>2023-07-22T12:05:08.131Z</time>
      </trkpt>
      <trkpt lat="47.86492" lon="-2.51738">
        <ele>90</ele>
        <time>2023-07-22T12:05:09.131Z</time>
      </trkpt>
      <trkpt lat="47.86492" lon="-2.51739">
        <ele>90</ele>
        <time>2023-07-22T12:05:10.131Z</time>
      </trkpt>
      <trkpt lat="47.86492" lon="-2.51741">
        <ele>90</ele>
        <time>2023-07-22T12:05:11.131Z</time>
      </trkpt>
      <trkpt lat="47.86492" lon="-2.51742">
        <ele>90</ele>
        <time>2023-07-22T12:05:12.131Z</time>
      </trkpt>
      <trkpt lat="47.86492" lon="-2.51744">
        <ele>90</ele>
        <time>2023-07-22T12:05:13.131Z</time>
      </trkpt>
      <trkpt lat="47.86491" lon="-2.51746">
        <ele>90</ele>
        <time>2023-07-22T12:05:14.131Z</time>
      </trkpt>
      <trkpt lat="47.86491" lon="-2.51747">
        <ele>90</ele>
        <time>2023-07-22T12:05:15.131Z</time>
      </trkpt>
      <trkpt lat="47.8649" lon="-2.51748">
        <ele>90</ele>
        <time>2023-07-22T12:05:16.131Z</time>
      </trkpt>
      <trkpt lat="47.86489" lon="-2.5175">
        <ele>90</ele>
        <time>2023-07-22T12:05:17.131Z</time>
      </trkpt>
      <trkpt lat="47.86488" lon="-2.51751">
        <ele>90</ele>
        <time>2023-07-22T12:05:18.131Z</time>
      </trkpt>
      <trkpt lat="47.86488" lon="-2.51753">
        <ele>90</ele>
        <time>2023-07-22T12:05:19.131Z</time>
      </trkpt>
      <trkpt lat="47.86488" lon="-2.51754">
        <ele>90</ele>
        <time>2023-07-22T12:05:20.131Z</time>
      </trkpt>
      <trkpt lat="47.86488" lon="-2.51756">
        <ele>90</ele>
        <time>2023-07-22T12:05:21.131Z</time>
      </trkpt>
      <trkpt lat="47.86488" lon="-2.51758">
        <ele>90</ele>
        <time>2023-07-22T12:05:22.131Z</time>
      </trkpt>
      <trkpt lat="47.86488" lon="-2.51759">
        <ele>91</ele>
        <time>2023-07-22T12:05:23.131Z</time>
      </trkpt>
      <trkpt lat="47.86487" lon="-2.5176">
        <ele>91</ele>
        <time>2023-07-22T12:05:24.131Z</time>
      </trkpt>
      <trkpt lat="47.86487" lon="-2.51761">
        <ele>91</ele>
        <time>2023-07-22T12:05:25.131Z</time>
      </trkpt>
      <trkpt lat="47.86487" lon="-2.51762">
        <ele>91</ele>
        <time>2023-07-22T12:05:26.131Z</time>
      </trkpt>
      <trkpt lat="47.86488" lon="-2.51763">
        <ele>91</ele>
        <time>2023-07-22T12:05:27.131Z</time>
      </trkpt>
      <trkpt lat="47.86488" lon="-2.51763">
        <ele>92</ele>
        <time>2023-07-22T12:05:28.131Z</time>
      </trkpt>
      <trkpt lat="47.86488" lon="-2.51763">
        <ele>92</ele>
        <time>2023-07-22T12:05:29.131Z</time>
      </trkpt>
      <trkpt lat="47.86487" lon="-2.51761">
        <ele>92</ele>
        <time>2023-07-22T12:05:35.489Z</time>
      </trkpt>
      <trkpt lat="47.86487" lon="-2.5176">
        <ele>93</ele>
        <time>2023-07-22T12:05:36.488Z</time>
      </trkpt>
      <trkpt lat="47.86487" lon="-2.5176">
        <ele>93</ele>
        <time>2023-07-22T12:05:37.489Z</time>
      </trkpt>
      <trkpt lat="47.86486" lon="-2.5176">
        <ele>94</ele>
        <time>2023-07-22T12:05:38.489Z</time>
      </trkpt>
      <trkpt lat="47.86486" lon="-2.5176">
        <ele>94</ele>
        <time>2023-07-22T12:05:39.489Z</time>
      </trkpt>
      <trkpt lat="47.86486" lon="-2.51759">
        <ele>95</ele>
        <time>2023-07-22T12:05:40.489Z</time>
      </trkpt>
      <trkpt lat="47.86486" lon="-2.51759">
        <ele>95</ele>
        <time>2023-07-22T12:05:41.489Z</time>
      </trkpt>
      <trkpt lat="47.86485" lon="-2.51758">
        <ele>96</ele>
        <time>2023-07-22T12:05:42.488Z</time>
      </trkpt>
      <trkpt lat="47.86484" lon="-2.51756">
        <ele>96</ele>
        <time>2023-07-22T12:05:43.488Z</time>
      </trkpt>
      <trkpt lat="47.86484" lon="-2.51756">
        <ele>96</ele>
        <time>2023-07-22T12:05:44.488Z</time>
      </trkpt>
      <trkpt lat="47.86485" lon="-2.51754">
        <ele>97</ele>
        <time>2023-07-22T12:05:45.489Z</time>
      </trkpt>
      <trkpt lat="47.86485" lon="-2.51753">
        <ele>97</ele>
        <time>2023-07-22T12:05:46.488Z</time>
      </trkpt>
      <trkpt lat="47.86485" lon="-2.51752">
        <ele>98</ele>
        <time>2023-07-22T12:05:47.489Z</time>
      </trkpt>
      <trkpt lat="47.86484" lon="-2.51751">
        <ele>98</ele>
        <time>2023-07-22T12:05:48.488Z</time>
      </trkpt>
      <trkpt lat="47.86484" lon="-2.5175">
        <ele>99</ele>
        <time>2023-07-22T12:05:49.488Z</time>
      </trkpt>
      <trkpt lat="47.86483" lon="-2.5175">
        <ele>99</ele>
        <time>2023-07-22T12:05:50.489Z</time>
      </trkpt>
      <trkpt lat="47.86482" lon="-2.51749">
        <ele>99</ele>
        <time>2023-07-22T12:05:51.488Z</time>
      </trkpt>
      <trkpt lat="47.86482" lon="-2.51748">
        <ele>99</ele>
        <time>2023-07-22T12:05:52.489Z</time>
      </trkpt>
      <trkpt lat="47.86482" lon="-2.51748">
        <ele>100</ele>
        <time>2023-07-22T12:05:53.489Z</time>
      </trkpt>
      <trkpt lat="47.86483" lon="-2.51747">
        <ele>100</ele>
        <time>2023-07-22T12:05:54.488Z</time>
      </trkpt>
      <trkpt lat="47.86483" lon="-2.51746">
        <ele>100</ele>
        <time>2023-07-22T12:05:55.488Z</time>
      </trkpt>
      <trkpt lat="47.86483" lon="-2.51745">
        <ele>100</ele>
        <time>2023-07-22T12:05:56.488Z</time>
      </trkpt>
      <trkpt lat="47.86483" lon="-2.51743">
        <ele>100</ele>
        <time>2023-07-22T12:05:57.489Z</time>
      </trkpt>
      <trkpt lat="47.86483" lon="-2.51741">
        <ele>101</ele>
        <time>2023-07-22T12:05:58.489Z</time>
      </trkpt>
      <trkpt lat="47.86482" lon="-2.5174">
        <ele>101</ele>
        <time>2023-07-22T12:05:59.489Z</time>
      </trkpt>
      <trkpt lat="47.86482" lon="-2.51738">
        <ele>101</ele>
        <time>2023-07-22T12:06:00.488Z</time>
      </trkpt>
      <trkpt lat="47.86481" lon="-2.51737">
        <ele>101</ele>
        <time>2023-07-22T12:06:01.489Z</time>
      </trkpt>
      <trkpt lat="47.8648" lon="-2.51736">
        <ele>101</ele>
        <time>2023-07-22T12:06:02.489Z</time>
      </trkpt>
      <trkpt lat="47.8648" lon="-2.51734">
        <ele>101</ele>
        <time>2023-07-22T12:06:03.488Z</time>
      </trkpt>
      <trkpt lat="47.86479" lon="-2.51734">
        <ele>101</ele>
        <time>2023-07-22T12:06:04.488Z</time>
      </trkpt>
      <trkpt lat="47.86477" lon="-2.51732">
        <ele>101</ele>
        <time>2023-07-22T12:06:05.488Z</time>
      </trkpt>
      <trkpt lat="47.86475" lon="-2.5173">
        <ele>101</ele>
        <time>2023-07-22T12:06:06.488Z</time>
      </trkpt>
      <trkpt lat="47.86473" lon="-2.51728">
        <ele>101</ele>
        <time>2023-07-22T12:06:07.489Z</time>
      </trkpt>
      <trkpt lat="47.86472" lon="-2.51725">
        <ele>101</ele>
        <time>2023-07-22T12:06:08.488Z</time>
      </trkpt>
      <trkpt lat="47.8647" lon="-2.51723">
        <ele>101</ele>
        <time>2023-07-22T12:06:09.488Z</time>
      </trkpt>
      <trkpt lat="47.86469" lon="-2.51721">
        <ele>101</ele>
        <time>2023-07-22T12:06:10.488Z</time>
      </trkpt>
      <trkpt lat="47.86468" lon="-2.51719">
        <ele>101</ele>
        <time>2023-07-22T12:06:11.489Z</time>
      </trkpt>
      <trkpt lat="47.86468" lon="-2.51718">
        <ele>101</ele>
        <time>2023-07-22T12:06:12.489Z</time>
      </trkpt>
      <trkpt lat="47.86467" lon="-2.51717">
        <ele>101</ele>
        <time>2023-07-22T12:06:13.488Z</time>
      </trkpt>
      <trkpt lat="47.86467" lon="-2.51715">
        <ele>101</ele>
        <time>2023-07-22T12:06:14.489Z</time>
      </trkpt>
      <trkpt lat="47.86467" lon="-2.51713">
        <ele>101</ele>
        <time>2023-07-22T12:06:15.489Z</time>
      </trkpt>
      <trkpt lat="47.86467" lon="-2.51712">
        <ele>101</ele>
        <time>2023-07-22T12:06:16.489Z</time>
      </trkpt>
      <trkpt lat="47.86466" lon="-2.51712">
        <ele>101</ele>
        <time>2023-07-22T12:06:17.488Z</time>
      </trkpt>
      <trkpt lat="47.86466" lon="-2.51711">
        <ele>101</ele>
        <time>2023-07-22T12:06:18.489Z</time>
      </trkpt>
      <trkpt lat="47.86466" lon="-2.51711">
        <ele>101</ele>
        <time>2023-07-22T12:06:19.489Z</time>
      </trkpt>
      <trkpt lat="47.86465" lon="-2.5171">
        <ele>101</ele>
        <time>2023-07-22T12:06:20.489Z</time>
      </trkpt>
      <trkpt lat="47.86464" lon="-2.51709">
        <ele>101</ele>
        <time>2023-07-22T12:06:21.488Z</time>
      </trkpt>
      <trkpt lat="47.86462" lon="-2.51709">
        <ele>101</ele>
        <time>2023-07-22T12:06:22.489Z</time>
      </trkpt>
      <trkpt lat="47.86462" lon="-2.51709">
        <ele>102</ele>
        <time>2023-07-22T12:06:23.488Z</time>
      </trkpt>
      <trkpt lat="47.86461" lon="-2.51708">
        <ele>102</ele>
        <time>2023-07-22T12:06:24.488Z</time>
      </trkpt>
      <trkpt lat="47.86459" lon="-2.51707">
        <ele>102</ele>
        <time>2023-07-22T12:06:25.489Z</time>
      </trkpt>
      <trkpt lat="47.86458" lon="-2.51707">
        <ele>102</ele>
        <time>2023-07-22T12:06:26.488Z</time>
      </trkpt>
      <trkpt lat="47.86457" lon="-2.51706">
        <ele>102</ele>
        <time>2023-07-22T12:06:27.489Z</time>
      </trkpt>
      <trkpt lat="47.86456" lon="-2.51705">
        <ele>102</ele>
        <time>2023-07-22T12:06:28.489Z</time>
      </trkpt>
      <trkpt lat="47.86454" lon="-2.51706">
        <ele>102</ele>
        <time>2023-07-22T12:06:29.488Z</time>
      </trkpt>
      <trkpt lat="47.86453" lon="-2.51706">
        <ele>102</ele>
        <time>2023-07-22T12:06:30.489Z</time>
      </trkpt>
      <trkpt lat="47.86453" lon="-2.51706">
        <ele>102</ele>
        <time>2023-07-22T12:06:31.488Z</time>
      </trkpt>
      <trkpt lat="47.86453" lon="-2.51706">
        <ele>101</ele>
        <time>2023-07-22T12:06:32.489Z</time>
      </trkpt>
      <trkpt lat="47.86453" lon="-2.51705">
        <ele>101</ele>
        <time>2023-07-22T12:06:33.488Z</time>
      </trkpt>
      <trkpt lat="47.86452" lon="-2.51704">
        <ele>101</ele>
        <time>2023-07-22T12:06:34.489Z</time>
      </trkpt>
      <trkpt lat="47.86452" lon="-2.51703">
        <ele>100</ele>
        <time>2023-07-22T12:06:35.489Z</time>
      </trkpt>
      <trkpt lat="47.86452" lon="-2.51704">
        <ele>100</ele>
        <time>2023-07-22T12:06:36.488Z</time>
      </trkpt>
      <trkpt lat="47.86451" lon="-2.51705">
        <ele>100</ele>
        <time>2023-07-22T12:06:37.489Z</time>
      </trkpt>
      <trkpt lat="47.86449" lon="-2.51705">
        <ele>99</ele>
        <time>2023-07-22T12:06:38.489Z</time>
      </trkpt>
      <trkpt lat="47.86448" lon="-2.51703">
        <ele>99</ele>
        <time>2023-07-22T12:06:39.489Z</time>
      </trkpt>
      <trkpt lat="47.86447" lon="-2.51702">
        <ele>99</ele>
        <time>2023-07-22T12:06:40.488Z</time>
      </trkpt>
      <trkpt lat="47.86447" lon="-2.51703">
        <ele>99</ele>
        <time>2023-07-22T12:06:41.489Z</time>
      </trkpt>
      <trkpt lat="47.86446" lon="-2.51703">
        <ele>99</ele>
        <time>2023-07-22T12:06:42.488Z</time>
      </trkpt>
      <trkpt lat="47.86446" lon="-2.51705">
        <ele>100</ele>
        <time>2023-07-22T12:06:43.488Z</time>
      </trkpt>
      <trkpt lat="47.86446" lon="-2.51705">
        <ele>100</ele>
        <time>2023-07-22T12:06:44.488Z</time>
      </trkpt>
      <trkpt lat="47.86447" lon="-2.51705">
        <ele>99</ele>
        <time>2023-07-22T12:06:45.489Z</time>
      </trkpt>
      <trkpt lat="47.86447" lon="-2.51704">
        <ele>99</ele>
        <time>2023-07-22T12:06:46.488Z</time>
      </trkpt>
      <trkpt lat="47.86446" lon="-2.51704">
        <ele>99</ele>
        <time>2023-07-22T12:06:47.489Z</time>
      </trkpt>
      <trkpt lat="47.86445" lon="-2.51703">
        <ele>99</ele>
        <time>2023-07-22T12:06:48.489Z</time>
      </trkpt>
      <trkpt lat="47.86444" lon="-2.51701">
        <ele>98</ele>
        <time>2023-07-22T12:06:49.488Z</time>
      </trkpt>
      <trkpt lat="47.86442" lon="-2.517">
        <ele>98</ele>
        <time>2023-07-22T12:06:50.489Z</time>
      </trkpt>
      <trkpt lat="47.86442" lon="-2.517">
        <ele>98</ele>
        <time>2023-07-22T12:06:51.489Z</time>
      </trkpt>
      <trkpt lat="47.86441" lon="-2.517">
        <ele>98</ele>
        <time>2023-07-22T12:06:52.489Z</time>
      </trkpt>
      <trkpt lat="47.86441" lon="-2.517">
        <ele>97</ele>
        <time>2023-07-22T12:06:53.489Z</time>
      </trkpt>
      <trkpt lat="47.86441" lon="-2.517">
        <ele>97</ele>
        <time>2023-07-22T12:06:54.489Z</time>
      </trkpt>
      <trkpt lat="47.8644" lon="-2.51699">
        <ele>97</ele>
        <time>2023-07-22T12:06:55.489Z</time>
      </trkpt>
      <trkpt lat="47.86432" lon="-2.51696">
        <ele>98</ele>
        <time>2023-07-22T12:07:03.630Z</time>
      </trkpt>
      <trkpt lat="47.86431" lon="-2.51696">
        <ele>98</ele>
        <time>2023-07-22T12:07:04.629Z</time>
      </trkpt>
      <trkpt lat="47.8643" lon="-2.51695">
        <ele>99</ele>
        <time>2023-07-22T12:07:05.629Z</time>
      </trkpt>
      <trkpt lat="47.86428" lon="-2.51693">
        <ele>99</ele>
        <time>2023-07-22T12:07:06.630Z</time>
      </trkpt>
      <trkpt lat="47.86427" lon="-2.51692">
        <ele>99</ele>
        <time>2023-07-22T12:07:07.629Z</time>
      </trkpt>
      <trkpt lat="47.86426" lon="-2.51692">
        <ele>100</ele>
        <time>2023-07-22T12:07:08.629Z</time>
      </trkpt>
      <trkpt lat="47.86425" lon="-2.51691">
        <ele>100</ele>
        <time>2023-07-22T12:07:09.630Z</time>
      </trkpt>
      <trkpt lat="47.86425" lon="-2.51691">
        <ele>101</ele>
        <time>2023-07-22T12:07:10.630Z</time>
      </trkpt>
      <trkpt lat="47.86425" lon="-2.51691">
        <ele>101</ele>
        <time>2023-07-22T12:07:11.630Z</time>
      </trkpt>
      <trkpt lat="47.86424" lon="-2.51691">
        <ele>102</ele>
        <time>2023-07-22T12:07:12.630Z</time>
      </trkpt>
      <trkpt lat="47.86424" lon="-2.5169">
        <ele>102</ele>
        <time>2023-07-22T12:07:13.629Z</time>
      </trkpt>
      <trkpt lat="47.86423" lon="-2.5169">
        <ele>102</ele>
        <time>2023-07-22T12:07:14.629Z</time>
      </trkpt>
      <trkpt lat="47.86422" lon="-2.51688">
        <ele>102</ele>
        <time>2023-07-22T12:07:15.630Z</time>
      </trkpt>
      <trkpt lat="47.86422" lon="-2.51688">
        <ele>102</ele>
        <time>2023-07-22T12:07:16.630Z</time>
      </trkpt>
      <trkpt lat="47.86422" lon="-2.51687">
        <ele>102</ele>
        <time>2023-07-22T12:07:17.630Z</time>
      </trkpt>
      <trkpt lat="47.86422" lon="-2.51686">
        <ele>102</ele>
        <time>2023-07-22T12:07:18.629Z</time>
      </trkpt>
      <trkpt lat="47.86422" lon="-2.51685">
        <ele>102</ele>
        <time>2023-07-22T12:07:19.629Z</time>
      </trkpt>
      <trkpt lat="47.86422" lon="-2.51685">
        <ele>102</ele>
        <time>2023-07-22T12:07:20.629Z</time>
      </trkpt>
      <trkpt lat="47.86421" lon="-2.51684">
        <ele>101</ele>
        <time>2023-07-22T12:07:21.630Z</time>
      </trkpt>
      <trkpt lat="47.86422" lon="-2.51684">
        <ele>101</ele>
        <time>2023-07-22T12:07:22.630Z</time>
      </trkpt>
      <trkpt lat="47.86421" lon="-2.51683">
        <ele>101</ele>
        <time>2023-07-22T12:07:23.630Z</time>
      </trkpt>
      <trkpt lat="47.86421" lon="-2.51681">
        <ele>101</ele>
        <time>2023-07-22T12:07:24.630Z</time>
      </trkpt>
      <trkpt lat="47.86422" lon="-2.5168">
        <ele>100</ele>
        <time>2023-07-22T12:07:25.630Z</time>
      </trkpt>
      <trkpt lat="47.86422" lon="-2.51679">
        <ele>100</ele>
        <time>2023-07-22T12:07:26.629Z</time>
      </trkpt>
      <trkpt lat="47.86422" lon="-2.51678">
        <ele>99</ele>
        <time>2023-07-22T12:07:27.630Z</time>
      </trkpt>
      <trkpt lat="47.86422" lon="-2.51676">
        <ele>99</ele>
        <time>2023-07-22T12:07:28.629Z</time>
      </trkpt>
      <trkpt lat="47.86422" lon="-2.51675">
        <ele>99</ele>
        <time>2023-07-22T12:07:29.630Z</time>
      </trkpt>
      <trkpt lat="47.86422" lon="-2.51675">
        <ele>99</ele>
        <time>2023-07-22T12:07:30.629Z</time>
      </trkpt>
      <trkpt lat="47.86423" lon="-2.51675">
        <ele>99</ele>
        <time>2023-07-22T12:07:31.630Z</time>
      </trkpt>
      <trkpt lat="47.86424" lon="-2.51675">
        <ele>98</ele>
        <time>2023-07-22T12:07:32.630Z</time>
      </trkpt>
      <trkpt lat="47.86424" lon="-2.51675">
        <ele>98</ele>
        <time>2023-07-22T12:07:33.630Z</time>
      </trkpt>
      <trkpt lat="47.86425" lon="-2.51674">
        <ele>98</ele>
        <time>2023-07-22T12:07:34.629Z</time>
      </trkpt>
      <trkpt lat="47.86424" lon="-2.51673">
        <ele>97</ele>
        <time>2023-07-22T12:07:35.629Z</time>
      </trkpt>
      <trkpt lat="47.86424" lon="-2.51672">
        <ele>97</ele>
        <time>2023-07-22T12:07:36.630Z</time>
      </trkpt>
      <trkpt lat="47.86424" lon="-2.51671">
        <ele>97</ele>
        <time>2023-07-22T12:07:37.629Z</time>
      </trkpt>
      <trkpt lat="47.86424" lon="-2.51671">
        <ele>96</ele>
        <time>2023-07-22T12:07:38.630Z</time>
      </trkpt>
      <trkpt lat="47.86425" lon="-2.5167">
        <ele>96</ele>
        <time>2023-07-22T12:07:39.629Z</time>
      </trkpt>
      <trkpt lat="47.86426" lon="-2.51669">
        <ele>96</ele>
        <time>2023-07-22T12:07:40.630Z</time>
      </trkpt>
      <trkpt lat="47.86425" lon="-2.51668">
        <ele>96</ele>
        <time>2023-07-22T12:07:41.629Z</time>
      </trkpt>
      <trkpt lat="47.86425" lon="-2.51667">
        <ele>96</ele>
        <time>2023-07-22T12:07:42.629Z</time>
      </trkpt>
      <trkpt lat="47.86426" lon="-2.51667">
        <ele>96</ele>
        <time>2023-07-22T12:07:43.630Z</time>
      </trkpt>
      <trkpt lat="47.86426" lon="-2.51667">
        <ele>96</ele>
        <time>2023-07-22T12:07:44.630Z</time>
      </trkpt>
      <trkpt lat="47.86426" lon="-2.51666">
        <ele>96</ele>
        <time>2023-07-22T12:07:45.630Z</time>
      </trkpt>
      <trkpt lat="47.86426" lon="-2.51665">
        <ele>96</ele>
        <time>2023-07-22T12:07:46.629Z</time>
      </trkpt>
      <trkpt lat="47.86425" lon="-2.51663">
        <ele>96</ele>
        <time>2023-07-22T12:07:47.629Z</time>
      </trkpt>
      <trkpt lat="47.86425" lon="-2.51663">
        <ele>97</ele>
        <time>2023-07-22T12:07:48.630Z</time>
      </trkpt>
      <trkpt lat="47.86425" lon="-2.51663">
        <ele>97</ele>
        <time>2023-07-22T12:07:49.630Z</time>
      </trkpt>
      <trkpt lat="47.86425" lon="-2.51662">
        <ele>97</ele>
        <time>2023-07-22T12:07:50.629Z</time>
      </trkpt>
      <trkpt lat="47.86425" lon="-2.51661">
        <ele>97</ele>
        <time>2023-07-22T12:07:51.630Z</time>
      </trkpt>
      <trkpt lat="47.86425" lon="-2.5166">
        <ele>98</ele>
        <time>2023-07-22T12:07:52.629Z</time>
      </trkpt>
      <trkpt lat="47.86425" lon="-2.51658">
        <ele>98</ele>
        <time>2023-07-22T12:07:53.630Z</time>
      </trkpt>
      <trkpt lat="47.86425" lon="-2.51657">
        <ele>98</ele>
        <time>2023-07-22T12:07:54.629Z</time>
      </trkpt>
      <trkpt lat="47.86425" lon="-2.51657">
        <ele>98</ele>
        <time>2023-07-22T12:07:55.630Z</time>
      </trkpt>
      <trkpt lat="47.86425" lon="-2.51655">
        <ele>98</ele>
        <time>2023-07-22T12:07:56.630Z</time>
      </trkpt>
      <trkpt lat="47.86425" lon="-2.51653">
        <ele>98</ele>
        <time>2023-07-22T12:07:57.629Z</time>
      </trkpt>
      <trkpt lat="47.86426" lon="-2.51652">
        <ele>98</ele>
        <time>2023-07-22T12:07:58.629Z</time>
      </trkpt>
      <trkpt lat="47.86426" lon="-2.51651">
        <ele>98</ele>
        <time>2023-07-22T12:07:59.629Z</time>
      </trkpt>
      <trkpt lat="47.86425" lon="-2.51651">
        <ele>98</ele>
        <time>2023-07-22T12:08:00.630Z</time>
      </trkpt>
      <trkpt lat="47.86425" lon="-2.5165">
        <ele>98</ele>
        <time>2023-07-22T12:08:01.629Z</time>
      </trkpt>
      <trkpt lat="47.86424" lon="-2.5165">
        <ele>97</ele>
        <time>2023-07-22T12:08:02.629Z</time>
      </trkpt>
      <trkpt lat="47.86424" lon="-2.51649">
        <ele>97</ele>
        <time>2023-07-22T12:08:03.630Z</time>
      </trkpt>
      <trkpt lat="47.86425" lon="-2.51648">
        <ele>97</ele>
        <time>2023-07-22T12:08:04.629Z</time>
      </trkpt>
      <trkpt lat="47.86425" lon="-2.51639">
        <ele>96</ele>
        <time>2023-07-22T12:08:10.958Z</time>
      </trkpt>
      <trkpt lat="47.86424" lon="-2.51637">
        <ele>96</ele>
        <time>2023-07-22T12:08:11.958Z</time>
      </trkpt>
      <trkpt lat="47.86424" lon="-2.51636">
        <ele>96</ele>
        <time>2023-07-22T12:08:12.958Z</time>
      </trkpt>
      <trkpt lat="47.86423" lon="-2.51636">
        <ele>96</ele>
        <time>2023-07-22T12:08:13.958Z</time>
      </trkpt>
      <trkpt lat="47.86424" lon="-2.51634">
        <ele>96</ele>
        <time>2023-07-22T12:08:14.959Z</time>
      </trkpt>
      <trkpt lat="47.86423" lon="-2.51633">
        <ele>96</ele>
        <time>2023-07-22T12:08:15.958Z</time>
      </trkpt>
      <trkpt lat="47.86423" lon="-2.51633">
        <ele>96</ele>
        <time>2023-07-22T12:08:16.959Z</time>
      </trkpt>
      <trkpt lat="47.86424" lon="-2.51632">
        <ele>96</ele>
        <time>2023-07-22T12:08:17.958Z</time>
      </trkpt>
      <trkpt lat="47.86425" lon="-2.5163">
        <ele>96</ele>
        <time>2023-07-22T12:08:18.958Z</time>
      </trkpt>
      <trkpt lat="47.86427" lon="-2.51628">
        <ele>96</ele>
        <time>2023-07-22T12:08:19.958Z</time>
      </trkpt>
      <trkpt lat="47.86427" lon="-2.51627">
        <ele>96</ele>
        <time>2023-07-22T12:08:20.958Z</time>
      </trkpt>
      <trkpt lat="47.86428" lon="-2.51625">
        <ele>96</ele>
        <time>2023-07-22T12:08:21.959Z</time>
      </trkpt>
      <trkpt lat="47.86428" lon="-2.51625">
        <ele>96</ele>
        <time>2023-07-22T12:08:22.959Z</time>
      </trkpt>
      <trkpt lat="47.86429" lon="-2.51624">
        <ele>96</ele>
        <time>2023-07-22T12:08:23.958Z</time>
      </trkpt>
      <trkpt lat="47.86429" lon="-2.51624">
        <ele>96</ele>
        <time>2023-07-22T12:08:24.959Z</time>
      </trkpt>
      <trkpt lat="47.86428" lon="-2.51623">
        <ele>96</ele>
        <time>2023-07-22T12:08:25.959Z</time>
      </trkpt>
      <trkpt lat="47.86428" lon="-2.51623">
        <ele>96</ele>
        <time>2023-07-22T12:08:26.959Z</time>
      </trkpt>
      <trkpt lat="47.86428" lon="-2.51621">
        <ele>96</ele>
        <time>2023-07-22T12:08:27.959Z</time>
      </trkpt>
      <trkpt lat="47.86429" lon="-2.5162">
        <ele>96</ele>
        <time>2023-07-22T12:08:28.958Z</time>
      </trkpt>
      <trkpt lat="47.86429" lon="-2.51618">
        <ele>96</ele>
        <time>2023-07-22T12:08:29.958Z</time>
      </trkpt>
      <trkpt lat="47.8643" lon="-2.51617">
        <ele>96</ele>
        <time>2023-07-22T12:08:30.959Z</time>
      </trkpt>
      <trkpt lat="47.8643" lon="-2.51616">
        <ele>96</ele>
        <time>2023-07-22T12:08:31.958Z</time>
      </trkpt>
      <trkpt lat="47.8643" lon="-2.51614">
        <ele>96</ele>
        <time>2023-07-22T12:08:32.958Z</time>
      </trkpt>
      <trkpt lat="47.86429" lon="-2.51612">
        <ele>96</ele>
        <time>2023-07-22T12:08:33.959Z</time>
      </trkpt>
      <trkpt lat="47.8643" lon="-2.51611">
        <ele>96</ele>
        <time>2023-07-22T12:08:34.958Z</time>
      </trkpt>
      <trkpt lat="47.86429" lon="-2.51611">
        <ele>96</ele>
        <time>2023-07-22T12:08:35.959Z</time>
      </trkpt>
      <trkpt lat="47.8643" lon="-2.5161">
        <ele>96</ele>
        <time>2023-07-22T12:08:36.958Z</time>
      </trkpt>
      <trkpt lat="47.8643" lon="-2.51609">
        <ele>96</ele>
        <time>2023-07-22T12:08:37.959Z</time>
      </trkpt>
      <trkpt lat="47.86429" lon="-2.51609">
        <ele>96</ele>
        <time>2023-07-22T12:08:38.958Z</time>
      </trkpt>
      <trkpt lat="47.8643" lon="-2.51607">
        <ele>96</ele>
        <time>2023-07-22T12:08:39.958Z</time>
      </trkpt>
      <trkpt lat="47.8643" lon="-2.51606">
        <ele>96</ele>
        <time>2023-07-22T12:08:40.958Z</time>
      </trkpt>
      <trkpt lat="47.8643" lon="-2.51606">
        <ele>96</ele>
        <time>2023-07-22T12:08:41.959Z</time>
      </trkpt>
      <trkpt lat="47.8643" lon="-2.51606">
        <ele>96</ele>
        <time>2023-07-22T12:08:42.958Z</time>
      </trkpt>
      <trkpt lat="47.8643" lon="-2.51606">
        <ele>96</ele>
        <time>2023-07-22T12:08:43.958Z</time>
      </trkpt>
      <trkpt lat="47.86431" lon="-2.51605">
        <ele>96</ele>
        <time>2023-07-22T12:08:44.958Z</time>
      </trkpt>
      <trkpt lat="47.86432" lon="-2.51601">
        <ele>95</ele>
        <time>2023-07-22T12:08:50.378Z</time>
      </trkpt>
      <trkpt lat="47.86431" lon="-2.516">
        <ele>95</ele>
        <time>2023-07-22T12:08:51.379Z</time>
      </trkpt>
      <trkpt lat="47.86431" lon="-2.51599">
        <ele>95</ele>
        <time>2023-07-22T12:08:52.378Z</time>
      </trkpt>
      <trkpt lat="47.8643" lon="-2.51598">
        <ele>96</ele>
        <time>2023-07-22T12:08:53.379Z</time>
      </trkpt>
      <trkpt lat="47.86428" lon="-2.51597">
        <ele>96</ele>
        <time>2023-07-22T12:08:54.379Z</time>
      </trkpt>
      <trkpt lat="47.86428" lon="-2.51595">
        <ele>96</ele>
        <time>2023-07-22T12:08:55.379Z</time>
      </trkpt>
      <trkpt lat="47.86428" lon="-2.51593">
        <ele>96</ele>
        <time>2023-07-22T12:08:56.379Z</time>
      </trkpt>
      <trkpt lat="47.86429" lon="-2.51592">
        <ele>96</ele>
        <time>2023-07-22T12:08:57.378Z</time>
      </trkpt>
      <trkpt lat="47.86429" lon="-2.51591">
        <ele>97</ele>
        <time>2023-07-22T12:08:58.379Z</time>
      </trkpt>
      <trkpt lat="47.86429" lon="-2.5159">
        <ele>97</ele>
        <time>2023-07-22T12:08:59.378Z</time>
      </trkpt>
      <trkpt lat="47.8643" lon="-2.51589">
        <ele>97</ele>
        <time>2023-07-22T12:09:00.378Z</time>
      </trkpt>
      <trkpt lat="47.86431" lon="-2.51588">
        <ele>98</ele>
        <time>2023-07-22T12:09:01.379Z</time>
      </trkpt>
      <trkpt lat="47.86431" lon="-2.51587">
        <ele>98</ele>
        <time>2023-07-22T12:09:02.378Z</time>
      </trkpt>
      <trkpt lat="47.8643" lon="-2.51588">
        <ele>99</ele>
        <time>2023-07-22T12:09:03.379Z</time>
      </trkpt>
      <trkpt lat="47.86429" lon="-2.51589">
        <ele>100</ele>
        <time>2023-07-22T12:09:04.379Z</time>
      </trkpt>
      <trkpt lat="47.86428" lon="-2.5159">
        <ele>100</ele>
        <time>2023-07-22T12:09:05.379Z</time>
      </trkpt>
      <trkpt lat="47.86427" lon="-2.5159">
        <ele>101</ele>
        <time>2023-07-22T12:09:06.378Z</time>
      </trkpt>
      <trkpt lat="47.86426" lon="-2.51589">
        <ele>102</ele>
        <time>2023-07-22T12:09:07.379Z</time>
      </trkpt>
      <trkpt lat="47.86426" lon="-2.51588">
        <ele>102</ele>
        <time>2023-07-22T12:09:08.378Z</time>
      </trkpt>
      <trkpt lat="47.86425" lon="-2.51587">
        <ele>103</ele>
        <time>2023-07-22T12:09:09.379Z</time>
      </trkpt>
      <trkpt lat="47.86425" lon="-2.51587">
        <ele>103</ele>
        <time>2023-07-22T12:09:10.378Z</time>
      </trkpt>
      <trkpt lat="47.86424" lon="-2.51587">
        <ele>103</ele>
        <time>2023-07-22T12:09:11.379Z</time>
      </trkpt>
      <trkpt lat="47.86424" lon="-2.51586">
        <ele>103</ele>
        <time>2023-07-22T12:09:12.378Z</time>
      </trkpt>
      <trkpt lat="47.86424" lon="-2.51585">
        <ele>103</ele>
        <time>2023-07-22T12:09:13.378Z</time>
      </trkpt>
      <trkpt lat="47.86423" lon="-2.51583">
        <ele>103</ele>
        <time>2023-07-22T12:09:14.378Z</time>
      </trkpt>
      <trkpt lat="47.86422" lon="-2.51582">
        <ele>103</ele>
        <time>2023-07-22T12:09:15.378Z</time>
      </trkpt>
      <trkpt lat="47.86421" lon="-2.51582">
        <ele>103</ele>
        <time>2023-07-22T12:09:16.379Z</time>
      </trkpt>
      <trkpt lat="47.86421" lon="-2.51582">
        <ele>103</ele>
        <time>2023-07-22T12:09:17.378Z</time>
      </trkpt>
      <trkpt lat="47.86421" lon="-2.5158">
        <ele>103</ele>
        <time>2023-07-22T12:09:18.378Z</time>
      </trkpt>
      <trkpt lat="47.8642" lon="-2.51579">
        <ele>103</ele>
        <time>2023-07-22T12:09:19.378Z</time>
      </trkpt>
      <trkpt lat="47.8642" lon="-2.51579">
        <ele>103</ele>
        <time>2023-07-22T12:09:20.379Z</time>
      </trkpt>
      <trkpt lat="47.8642" lon="-2.51578">
        <ele>103</ele>
        <time>2023-07-22T12:09:21.378Z</time>
      </trkpt>
      <trkpt lat="47.86419" lon="-2.51576">
        <ele>103</ele>
        <time>2023-07-22T12:09:22.379Z</time>
      </trkpt>
      <trkpt lat="47.86419" lon="-2.51576">
        <ele>103</ele>
        <time>2023-07-22T12:09:23.378Z</time>
      </trkpt>
      <trkpt lat="47.86419" lon="-2.51577">
        <ele>103</ele>
        <time>2023-07-22T12:09:24.379Z</time>
      </trkpt>
      <trkpt lat="47.8642" lon="-2.51575">
        <ele>103</ele>
        <time>2023-07-22T12:09:25.378Z</time>
      </trkpt>
      <trkpt lat="47.8642" lon="-2.51574">
        <ele>102</ele>
        <time>2023-07-22T12:09:26.378Z</time>
      </trkpt>
      <trkpt lat="47.86419" lon="-2.51572">
        <ele>102</ele>
        <time>2023-07-22T12:09:27.379Z</time>
      </trkpt>
      <trkpt lat="47.86419" lon="-2.51571">
        <ele>102</ele>
        <time>2023-07-22T12:09:28.378Z</time>
      </trkpt>
      <trkpt lat="47.86418" lon="-2.5157">
        <ele>102</ele>
        <time>2023-07-22T12:09:29.378Z</time>
      </trkpt>
      <trkpt lat="47.86418" lon="-2.5157">
        <ele>102</ele>
        <time>2023-07-22T12:09:30.379Z</time>
      </trkpt>
      <trkpt lat="47.86418" lon="-2.5157">
        <ele>102</ele>
        <time>2023-07-22T12:09:31.379Z</time>
      </trkpt>
      <trkpt lat="47.86413" lon="-2.51567">
        <ele>101</ele>
        <time>2023-07-22T12:09:37.797Z</time>
      </trkpt>
      <trkpt lat="47.86412" lon="-2.51567">
        <ele>101</ele>
        <time>2023-07-22T12:09:38.797Z</time>
      </trkpt>
      <trkpt lat="47.8641" lon="-2.51566">
        <ele>101</ele>
        <time>2023-07-22T12:09:39.796Z</time>
      </trkpt>
      <trkpt lat="47.8641" lon="-2.51566">
        <ele>101</ele>
        <time>2023-07-22T12:09:40.796Z</time>
      </trkpt>
      <trkpt lat="47.86409" lon="-2.51566">
        <ele>101</ele>
        <time>2023-07-22T12:09:41.796Z</time>
      </trkpt>
      <trkpt lat="47.86408" lon="-2.51566">
        <ele>100</ele>
        <time>2023-07-22T12:09:42.797Z</time>
      </trkpt>
      <trkpt lat="47.86407" lon="-2.51567">
        <ele>100</ele>
        <time>2023-07-22T12:09:43.797Z</time>
      </trkpt>
      <trkpt lat="47.86406" lon="-2.51567">
        <ele>100</ele>
        <time>2023-07-22T12:09:44.797Z</time>
      </trkpt>
      <trkpt lat="47.86406" lon="-2.51567">
        <ele>100</ele>
        <time>2023-07-22T12:09:45.796Z</time>
      </trkpt>
      <trkpt lat="47.86405" lon="-2.51568">
        <ele>100</ele>
        <time>2023-07-22T12:09:46.796Z</time>
      </trkpt>
      <trkpt lat="47.86403" lon="-2.51567">
        <ele>100</ele>
        <time>2023-07-22T12:09:47.796Z</time>
      </trkpt>
      <trkpt lat="47.86403" lon="-2.51567">
        <ele>100</ele>
        <time>2023-07-22T12:09:48.796Z</time>
      </trkpt>
      <trkpt lat="47.86403" lon="-2.51567">
        <ele>100</ele>
        <time>2023-07-22T12:09:49.796Z</time>
      </trkpt>
      <trkpt lat="47.86401" lon="-2.51564">
        <ele>100</ele>
        <time>2023-07-22T12:09:50.796Z</time>
      </trkpt>
      <trkpt lat="47.86401" lon="-2.51564">
        <ele>100</ele>
        <time>2023-07-22T12:09:51.796Z</time>
      </trkpt>
      <trkpt lat="47.86401" lon="-2.51563">
        <ele>100</ele>
        <time>2023-07-22T12:09:52.796Z</time>
      </trkpt>
      <trkpt lat="47.86402" lon="-2.51562">
        <ele>100</ele>
        <time>2023-07-22T12:09:53.796Z</time>
      </trkpt>
      <trkpt lat="47.86403" lon="-2.5156">
        <ele>100</ele>
        <time>2023-07-22T12:09:54.796Z</time>
      </trkpt>
      <trkpt lat="47.86403" lon="-2.5156">
        <ele>100</ele>
        <time>2023-07-22T12:09:55.796Z</time>
      </trkpt>
      <trkpt lat="47.86404" lon="-2.5156">
        <ele>100</ele>
        <time>2023-07-22T12:09:56.796Z</time>
      </trkpt>
      <trkpt lat="47.86402" lon="-2.51559">
        <ele>100</ele>
        <time>2023-07-22T12:09:57.796Z</time>
      </trkpt>
      <trkpt lat="47.864" lon="-2.51558">
        <ele>101</ele>
        <time>2023-07-22T12:09:58.796Z</time>
      </trkpt>
      <trkpt lat="47.86399" lon="-2.51558">
        <ele>101</ele>
        <time>2023-07-22T12:09:59.796Z</time>
      </trkpt>
      <trkpt lat="47.86399" lon="-2.51558">
        <ele>101</ele>
        <time>2023-07-22T12:10:00.797Z</time>
      </trkpt>
      <trkpt lat="47.86398" lon="-2.51556">
        <ele>101</ele>
        <time>2023-07-22T12:10:01.797Z</time>
      </trkpt>
      <trkpt lat="47.86399" lon="-2.51555">
        <ele>102</ele>
        <time>2023-07-22T12:10:02.797Z</time>
      </trkpt>
      <trkpt lat="47.86398" lon="-2.51553">
        <ele>102</ele>
        <time>2023-07-22T12:10:03.796Z</time>
      </trkpt>
      <trkpt lat="47.86399" lon="-2.51553">
        <ele>102</ele>
        <time>2023-07-22T12:10:04.796Z</time>
      </trkpt>
      <trkpt lat="47.86399" lon="-2.51553">
        <ele>102</ele>
        <time>2023-07-22T12:10:05.796Z</time>
      </trkpt>
      <trkpt lat="47.86399" lon="-2.51553">
        <ele>102</ele>
        <time>2023-07-22T12:10:06.796Z</time>
      </trkpt>
      <trkpt lat="47.86399" lon="-2.51553">
        <ele>102</ele>
        <time>2023-07-22T12:10:07.796Z</time>
      </trkpt>
      <trkpt lat="47.86397" lon="-2.51553">
        <ele>104</ele>
        <time>2023-07-22T12:10:13.185Z</time>
      </trkpt>
      <trkpt lat="47.86397" lon="-2.51553">
        <ele>104</ele>
        <time>2023-07-22T12:10:14.186Z</time>
      </trkpt>
      <trkpt lat="47.86394" lon="-2.51554">
        <ele>105</ele>
        <time>2023-07-22T12:10:23.315Z</time>
      </trkpt>
      <trkpt lat="47.86393" lon="-2.51554">
        <ele>105</ele>
        <time>2023-07-22T12:10:24.315Z</time>
      </trkpt>
      <trkpt lat="47.86392" lon="-2.51554">
        <ele>106</ele>
        <time>2023-07-22T12:10:25.316Z</time>
      </trkpt>
      <trkpt lat="47.8639" lon="-2.51553">
        <ele>106</ele>
        <time>2023-07-22T12:10:26.315Z</time>
      </trkpt>
      <trkpt lat="47.86389" lon="-2.51552">
        <ele>106</ele>
        <time>2023-07-22T12:10:27.316Z</time>
      </trkpt>
      <trkpt lat="47.86388" lon="-2.51551">
        <ele>106</ele>
        <time>2023-07-22T12:10:28.315Z</time>
      </trkpt>
      <trkpt lat="47.86387" lon="-2.51551">
        <ele>106</ele>
        <time>2023-07-22T12:10:29.316Z</time>
      </trkpt>
      <trkpt lat="47.86386" lon="-2.51549">
        <ele>106</ele>
        <time>2023-07-22T12:10:30.315Z</time>
      </trkpt>
      <trkpt lat="47.86386" lon="-2.51549">
        <ele>106</ele>
        <time>2023-07-22T12:10:31.315Z</time>
      </trkpt>
      <trkpt lat="47.86385" lon="-2.51548">
        <ele>106</ele>
        <time>2023-07-22T12:10:32.315Z</time>
      </trkpt>
      <trkpt lat="47.86384" lon="-2.51548">
        <ele>106</ele>
        <time>2023-07-22T12:10:33.316Z</time>
      </trkpt>
      <trkpt lat="47.86382" lon="-2.51549">
        <ele>106</ele>
        <time>2023-07-22T12:10:34.315Z</time>
      </trkpt>
      <trkpt lat="47.86381" lon="-2.51549">
        <ele>106</ele>
        <time>2023-07-22T12:10:35.316Z</time>
      </trkpt>
      <trkpt lat="47.8638" lon="-2.51548">
        <ele>106</ele>
        <time>2023-07-22T12:10:36.315Z</time>
      </trkpt>
      <trkpt lat="47.86379" lon="-2.51549">
        <ele>106</ele>
        <time>2023-07-22T12:10:37.316Z</time>
      </trkpt>
      <trkpt lat="47.86378" lon="-2.51549">
        <ele>105</ele>
        <time>2023-07-22T12:10:38.315Z</time>
      </trkpt>
      <trkpt lat="47.86377" lon="-2.51549">
        <ele>105</ele>
        <time>2023-07-22T12:10:39.316Z</time>
      </trkpt>
      <trkpt lat="47.86376" lon="-2.51549">
        <ele>105</ele>
        <time>2023-07-22T12:10:40.316Z</time>
      </trkpt>
      <trkpt lat="47.86375" lon="-2.51548">
        <ele>104</ele>
        <time>2023-07-22T12:10:41.316Z</time>
      </trkpt>
      <trkpt lat="47.86374" lon="-2.51548">
        <ele>104</ele>
        <time>2023-07-22T12:10:42.315Z</time>
      </trkpt>
      <trkpt lat="47.86374" lon="-2.51548">
        <ele>104</ele>
        <time>2023-07-22T12:10:43.316Z</time>
      </trkpt>
      <trkpt lat="47.86373" lon="-2.51548">
        <ele>104</ele>
        <time>2023-07-22T12:10:44.315Z</time>
      </trkpt>
      <trkpt lat="47.86372" lon="-2.51547">
        <ele>103</ele>
        <time>2023-07-22T12:10:45.316Z</time>
      </trkpt>
      <trkpt lat="47.86372" lon="-2.51547">
        <ele>103</ele>
        <time>2023-07-22T12:10:46.315Z</time>
      </trkpt>
      <trkpt lat="47.86371" lon="-2.51547">
        <ele>103</ele>
        <time>2023-07-22T12:10:47.316Z</time>
      </trkpt>
      <trkpt lat="47.86369" lon="-2.51547">
        <ele>103</ele>
        <time>2023-07-22T12:10:48.315Z</time>
      </trkpt>
      <trkpt lat="47.86367" lon="-2.51547">
        <ele>102</ele>
        <time>2023-07-22T12:10:49.316Z</time>
      </trkpt>
      <trkpt lat="47.86367" lon="-2.51547">
        <ele>102</ele>
        <time>2023-07-22T12:10:50.315Z</time>
      </trkpt>
      <trkpt lat="47.86362" lon="-2.51546">
        <ele>101</ele>
        <time>2023-07-22T12:10:56.761Z</time>
      </trkpt>
      <trkpt lat="47.86362" lon="-2.51547">
        <ele>100</ele>
        <time>2023-07-22T12:10:57.761Z</time>
      </trkpt>
      <trkpt lat="47.86361" lon="-2.51546">
        <ele>100</ele>
        <time>2023-07-22T12:10:58.761Z</time>
      </trkpt>
      <trkpt lat="47.8636" lon="-2.51546">
        <ele>100</ele>
        <time>2023-07-22T12:10:59.762Z</time>
      </trkpt>
      <trkpt lat="47.86359" lon="-2.51546">
        <ele>99</ele>
        <time>2023-07-22T12:11:00.762Z</time>
      </trkpt>
      <trkpt lat="47.86358" lon="-2.51546">
        <ele>99</ele>
        <time>2023-07-22T12:11:01.762Z</time>
      </trkpt>
      <trkpt lat="47.86357" lon="-2.51546">
        <ele>100</ele>
        <time>2023-07-22T12:11:02.761Z</time>
      </trkpt>
      <trkpt lat="47.86356" lon="-2.51546">
        <ele>100</ele>
        <time>2023-07-22T12:11:03.761Z</time>
      </trkpt>
      <trkpt lat="47.86354" lon="-2.51547">
        <ele>100</ele>
        <time>2023-07-22T12:11:04.761Z</time>
      </trkpt>
      <trkpt lat="47.86353" lon="-2.51547">
        <ele>99</ele>
        <time>2023-07-22T12:11:05.761Z</time>
      </trkpt>
      <trkpt lat="47.86353" lon="-2.51547">
        <ele>99</ele>
        <time>2023-07-22T12:11:06.761Z</time>
      </trkpt>
      <trkpt lat="47.86352" lon="-2.51547">
        <ele>99</ele>
        <time>2023-07-22T12:11:07.762Z</time>
      </trkpt>
      <trkpt lat="47.86352" lon="-2.51547">
        <ele>98</ele>
        <time>2023-07-22T12:11:08.761Z</time>
      </trkpt>
      <trkpt lat="47.86351" lon="-2.51547">
        <ele>98</ele>
        <time>2023-07-22T12:11:09.761Z</time>
      </trkpt>
      <trkpt lat="47.8635" lon="-2.51547">
        <ele>98</ele>
        <time>2023-07-22T12:11:10.761Z</time>
      </trkpt>
      <trkpt lat="47.8635" lon="-2.51547">
        <ele>97</ele>
        <time>2023-07-22T12:11:11.761Z</time>
      </trkpt>
      <trkpt lat="47.86349" lon="-2.51547">
        <ele>97</ele>
        <time>2023-07-22T12:11:12.761Z</time>
      </trkpt>
      <trkpt lat="47.86348" lon="-2.51548">
        <ele>96</ele>
        <time>2023-07-22T12:11:13.762Z</time>
      </trkpt>
      <trkpt lat="47.86348" lon="-2.51548">
        <ele>95</ele>
        <time>2023-07-22T12:11:14.761Z</time>
      </trkpt>
      <trkpt lat="47.86346" lon="-2.51547">
        <ele>94</ele>
        <time>2023-07-22T12:11:15.761Z</time>
      </trkpt>
      <trkpt lat="47.86345" lon="-2.51547">
        <ele>94</ele>
        <time>2023-07-22T12:11:16.762Z</time>
      </trkpt>
      <trkpt lat="47.86345" lon="-2.51547">
        <ele>93</ele>
        <time>2023-07-22T12:11:17.761Z</time>
      </trkpt>
      <trkpt lat="47.86345" lon="-2.51547">
        <ele>92</ele>
        <time>2023-07-22T12:11:18.761Z</time>
      </trkpt>
      <trkpt lat="47.86344" lon="-2.51547">
        <ele>92</ele>
        <time>2023-07-22T12:11:19.761Z</time>
      </trkpt>
      <trkpt lat="47.86344" lon="-2.51547">
        <ele>92</ele>
        <time>2023-07-22T12:11:20.762Z</time>
      </trkpt>
      <trkpt lat="47.86343" lon="-2.51547">
        <ele>91</ele>
        <time>2023-07-22T12:11:21.761Z</time>
      </trkpt>
      <trkpt lat="47.86343" lon="-2.51547">
        <ele>91</ele>
        <time>2023-07-22T12:11:22.761Z</time>
      </trkpt>
      <trkpt lat="47.86342" lon="-2.51547">
        <ele>91</ele>
        <time>2023-07-22T12:11:23.761Z</time>
      </trkpt>
      <trkpt lat="47.86341" lon="-2.51547">
        <ele>91</ele>
        <time>2023-07-22T12:11:24.762Z</time>
      </trkpt>
      <trkpt lat="47.8634" lon="-2.51546">
        <ele>91</ele>
        <time>2023-07-22T12:11:25.761Z</time>
      </trkpt>
      <trkpt lat="47.86339" lon="-2.51546">
        <ele>90</ele>
        <time>2023-07-22T12:11:26.761Z</time>
      </trkpt>
      <trkpt lat="47.86338" lon="-2.51546">
        <ele>90</ele>
        <time>2023-07-22T12:11:27.761Z</time>
      </trkpt>
      <trkpt lat="47.86337" lon="-2.51545">
        <ele>90</ele>
        <time>2023-07-22T12:11:28.761Z</time>
      </trkpt>
      <trkpt lat="47.86336" lon="-2.51545">
        <ele>90</ele>
        <time>2023-07-22T12:11:29.761Z</time>
      </trkpt>
      <trkpt lat="47.86335" lon="-2.51546">
        <ele>90</ele>
        <time>2023-07-22T12:11:30.762Z</time>
      </trkpt>
      <trkpt lat="47.86334" lon="-2.51546">
        <ele>90</ele>
        <time>2023-07-22T12:11:31.761Z</time>
      </trkpt>
      <trkpt lat="47.86334" lon="-2.51546">
        <ele>90</ele>
        <time>2023-07-22T12:11:32.761Z</time>
      </trkpt>
      <trkpt lat="47.86334" lon="-2.51546">
        <ele>90</ele>
        <time>2023-07-22T12:11:33.762Z</time>
      </trkpt>
      <trkpt lat="47.86333" lon="-2.51546">
        <ele>90</ele>
        <time>2023-07-22T12:11:34.761Z</time>
      </trkpt>
      <trkpt lat="47.86333" lon="-2.51546">
        <ele>90</ele>
        <time>2023-07-22T12:11:35.762Z</time>
      </trkpt>
      <trkpt lat="47.86334" lon="-2.51546">
        <ele>90</ele>
        <time>2023-07-22T12:11:36.761Z</time>
      </trkpt>
      <trkpt lat="47.86334" lon="-2.51547">
        <ele>93</ele>
        <time>2023-07-22T12:11:44.000Z</time>
      </trkpt>
      <trkpt lat="47.86335" lon="-2.51548">
        <ele>93</ele>
        <time>2023-07-22T12:11:45.001Z</time>
      </trkpt>
      <trkpt lat="47.86335" lon="-2.5155">
        <ele>94</ele>
        <time>2023-07-22T12:11:46.001Z</time>
      </trkpt>
      <trkpt lat="47.86335" lon="-2.5155">
        <ele>94</ele>
        <time>2023-07-22T12:11:47.000Z</time>
      </trkpt>
      <trkpt lat="47.86335" lon="-2.51551">
        <ele>94</ele>
        <time>2023-07-22T12:11:48.000Z</time>
      </trkpt>
      <trkpt lat="47.86335" lon="-2.51552">
        <ele>94</ele>
        <time>2023-07-22T12:11:49.000Z</time>
      </trkpt>
      <trkpt lat="47.86335" lon="-2.51553">
        <ele>94</ele>
        <time>2023-07-22T12:11:50.001Z</time>
      </trkpt>
      <trkpt lat="47.86334" lon="-2.51553">
        <ele>94</ele>
        <time>2023-07-22T12:11:51.000Z</time>
      </trkpt>
      <trkpt lat="47.86334" lon="-2.51554">
        <ele>94</ele>
        <time>2023-07-22T12:11:52.001Z</time>
      </trkpt>
      <trkpt lat="47.86333" lon="-2.51554">
        <ele>94</ele>
        <time>2023-07-22T12:11:53.001Z</time>
      </trkpt>
      <trkpt lat="47.86333" lon="-2.51554">
        <ele>94</ele>
        <time>2023-07-22T12:11:54.000Z</time>
      </trkpt>
      <trkpt lat="47.86333" lon="-2.51553">
        <ele>94</ele>
        <time>2023-07-22T12:11:55.000Z</time>
      </trkpt>
      <trkpt lat="47.86333" lon="-2.51553">
        <ele>93</ele>
        <time>2023-07-22T12:11:56.000Z</time>
      </trkpt>
      <trkpt lat="47.86329" lon="-2.51548">
        <ele>92</ele>
        <time>2023-07-22T12:12:01.296Z</time>
      </trkpt>
      <trkpt lat="47.86328" lon="-2.51547">
        <ele>92</ele>
        <time>2023-07-22T12:12:02.296Z</time>
      </trkpt>
      <trkpt lat="47.86327" lon="-2.51546">
        <ele>92</ele>
        <time>2023-07-22T12:12:03.295Z</time>
      </trkpt>
      <trkpt lat="47.86326" lon="-2.51545">
        <ele>91</ele>
        <time>2023-07-22T12:12:04.296Z</time>
      </trkpt>
      <trkpt lat="47.86324" lon="-2.51543">
        <ele>91</ele>
        <time>2023-07-22T12:12:05.295Z</time>
      </trkpt>
      <trkpt lat="47.86323" lon="-2.51543">
        <ele>91</ele>
        <time>2023-07-22T12:12:06.296Z</time>
      </trkpt>
      <trkpt lat="47.86321" lon="-2.51542">
        <ele>90</ele>
        <time>2023-07-22T12:12:07.296Z</time>
      </trkpt>
      <trkpt lat="47.86319" lon="-2.51541">
        <ele>90</ele>
        <time>2023-07-22T12:12:08.296Z</time>
      </trkpt>
      <trkpt lat="47.86318" lon="-2.5154">
        <ele>90</ele>
        <time>2023-07-22T12:12:09.296Z</time>
      </trkpt>
      <trkpt lat="47.86318" lon="-2.51539">
        <ele>90</ele>
        <time>2023-07-22T12:12:10.296Z</time>
      </trkpt>
      <trkpt lat="47.86317" lon="-2.51538">
        <ele>89</ele>
        <time>2023-07-22T12:12:11.296Z</time>
      </trkpt>
      <trkpt lat="47.86316" lon="-2.51537">
        <ele>89</ele>
        <time>2023-07-22T12:12:12.295Z</time>
      </trkpt>
      <trkpt lat="47.86315" lon="-2.51536">
        <ele>89</ele>
        <time>2023-07-22T12:12:13.296Z</time>
      </trkpt>
      <trkpt lat="47.86314" lon="-2.51535">
        <ele>89</ele>
        <time>2023-07-22T12:12:14.295Z</time>
      </trkpt>
      <trkpt lat="47.86313" lon="-2.51533">
        <ele>89</ele>
        <time>2023-07-22T12:12:15.295Z</time>
      </trkpt>
      <trkpt lat="47.86312" lon="-2.51532">
        <ele>89</ele>
        <time>2023-07-22T12:12:16.295Z</time>
      </trkpt>
      <trkpt lat="47.86311" lon="-2.51531">
        <ele>89</ele>
        <time>2023-07-22T12:12:17.295Z</time>
      </trkpt>
      <trkpt lat="47.8631" lon="-2.51529">
        <ele>89</ele>
        <time>2023-07-22T12:12:18.295Z</time>
      </trkpt>
      <trkpt lat="47.86308" lon="-2.51527">
        <ele>89</ele>
        <time>2023-07-22T12:12:19.295Z</time>
      </trkpt>
      <trkpt lat="47.86307" lon="-2.51525">
        <ele>89</ele>
        <time>2023-07-22T12:12:20.295Z</time>
      </trkpt>
      <trkpt lat="47.86306" lon="-2.51524">
        <ele>89</ele>
        <time>2023-07-22T12:12:21.296Z</time>
      </trkpt>
      <trkpt lat="47.86305" lon="-2.51522">
        <ele>90</ele>
        <time>2023-07-22T12:12:22.296Z</time>
      </trkpt>
      <trkpt lat="47.86303" lon="-2.51521">
        <ele>90</ele>
        <time>2023-07-22T12:12:23.295Z</time>
      </trkpt>
      <trkpt lat="47.86302" lon="-2.51519">
        <ele>90</ele>
        <time>2023-07-22T12:12:24.295Z</time>
      </trkpt>
      <trkpt lat="47.86301" lon="-2.51518">
        <ele>90</ele>
        <time>2023-07-22T12:12:25.295Z</time>
      </trkpt>
      <trkpt lat="47.86301" lon="-2.51517">
        <ele>90</ele>
        <time>2023-07-22T12:12:26.295Z</time>
      </trkpt>
      <trkpt lat="47.86298" lon="-2.51517">
        <ele>90</ele>
        <time>2023-07-22T12:12:27.295Z</time>
      </trkpt>
      <trkpt lat="47.86296" lon="-2.51519">
        <ele>90</ele>
        <time>2023-07-22T12:12:28.296Z</time>
      </trkpt>
      <trkpt lat="47.86294" lon="-2.5152">
        <ele>90</ele>
        <time>2023-07-22T12:12:29.295Z</time>
      </trkpt>
      <trkpt lat="47.86292" lon="-2.5152">
        <ele>90</ele>
        <time>2023-07-22T12:12:30.295Z</time>
      </trkpt>
      <trkpt lat="47.86291" lon="-2.5152">
        <ele>90</ele>
        <time>2023-07-22T12:12:31.296Z</time>
      </trkpt>
      <trkpt lat="47.8629" lon="-2.51521">
        <ele>90</ele>
        <time>2023-07-22T12:12:32.296Z</time>
      </trkpt>
      <trkpt lat="47.8629" lon="-2.51523">
        <ele>89</ele>
        <time>2023-07-22T12:12:33.295Z</time>
      </trkpt>
      <trkpt lat="47.8629" lon="-2.51525">
        <ele>89</ele>
        <time>2023-07-22T12:12:34.296Z</time>
      </trkpt>
      <trkpt lat="47.8629" lon="-2.51528">
        <ele>88</ele>
        <time>2023-07-22T12:12:35.296Z</time>
      </trkpt>
      <trkpt lat="47.86289" lon="-2.5153">
        <ele>88</ele>
        <time>2023-07-22T12:12:36.296Z</time>
      </trkpt>
      <trkpt lat="47.86289" lon="-2.51531">
        <ele>88</ele>
        <time>2023-07-22T12:12:37.295Z</time>
      </trkpt>
      <trkpt lat="47.86289" lon="-2.51532">
        <ele>88</ele>
        <time>2023-07-22T12:12:38.295Z</time>
      </trkpt>
      <trkpt lat="47.86289" lon="-2.51532">
        <ele>88</ele>
        <time>2023-07-22T12:12:39.295Z</time>
      </trkpt>
      <trkpt lat="47.8629" lon="-2.51533">
        <ele>87</ele>
        <time>2023-07-22T12:12:40.296Z</time>
      </trkpt>
      <trkpt lat="47.8629" lon="-2.51533">
        <ele>87</ele>
        <time>2023-07-22T12:12:41.295Z</time>
      </trkpt>
      <trkpt lat="47.8629" lon="-2.51533">
        <ele>87</ele>
        <time>2023-07-22T12:12:42.296Z</time>
      </trkpt>
      <trkpt lat="47.8629" lon="-2.51533">
        <ele>87</ele>
        <time>2023-07-22T12:12:43.296Z</time>
      </trkpt>
      <trkpt lat="47.8629" lon="-2.51534">
        <ele>87</ele>
        <time>2023-07-22T12:12:44.296Z</time>
      </trkpt>
      <trkpt lat="47.8629" lon="-2.51534">
        <ele>87</ele>
        <time>2023-07-22T12:12:45.295Z</time>
      </trkpt>
      <trkpt lat="47.8629" lon="-2.51535">
        <ele>87</ele>
        <time>2023-07-22T12:12:46.296Z</time>
      </trkpt>
      <trkpt lat="47.8629" lon="-2.51538">
        <ele>87</ele>
        <time>2023-07-22T12:12:47.296Z</time>
      </trkpt>
      <trkpt lat="47.86291" lon="-2.51541">
        <ele>87</ele>
        <time>2023-07-22T12:12:48.296Z</time>
      </trkpt>
      <trkpt lat="47.86291" lon="-2.51543">
        <ele>87</ele>
        <time>2023-07-22T12:12:49.295Z</time>
      </trkpt>
      <trkpt lat="47.86291" lon="-2.51545">
        <ele>86</ele>
        <time>2023-07-22T12:12:50.296Z</time>
      </trkpt>
      <trkpt lat="47.86291" lon="-2.51546">
        <ele>86</ele>
        <time>2023-07-22T12:12:51.296Z</time>
      </trkpt>
      <trkpt lat="47.86291" lon="-2.51546">
        <ele>86</ele>
        <time>2023-07-22T12:12:52.295Z</time>
      </trkpt>
      <trkpt lat="47.86292" lon="-2.51546">
        <ele>86</ele>
        <time>2023-07-22T12:12:53.295Z</time>
      </trkpt>
      <trkpt lat="47.86292" lon="-2.51547">
        <ele>85</ele>
        <time>2023-07-22T12:12:54.296Z</time>
      </trkpt>
      <trkpt lat="47.86292" lon="-2.51548">
        <ele>85</ele>
        <time>2023-07-22T12:12:55.295Z</time>
      </trkpt>
      <trkpt lat="47.86292" lon="-2.51549">
        <ele>84</ele>
        <time>2023-07-22T12:12:56.296Z</time>
      </trkpt>
      <trkpt lat="47.86292" lon="-2.51549">
        <ele>84</ele>
        <time>2023-07-22T12:12:57.296Z</time>
      </trkpt>
      <trkpt lat="47.86292" lon="-2.5155">
        <ele>84</ele>
        <time>2023-07-22T12:12:58.295Z</time>
      </trkpt>
      <trkpt lat="47.86292" lon="-2.51552">
        <ele>83</ele>
        <time>2023-07-22T12:13:04.673Z</time>
      </trkpt>
      <trkpt lat="47.86292" lon="-2.51552">
        <ele>83</ele>
        <time>2023-07-22T12:13:05.673Z</time>
      </trkpt>
      <trkpt lat="47.86292" lon="-2.51553">
        <ele>83</ele>
        <time>2023-07-22T12:13:06.673Z</time>
      </trkpt>
      <trkpt lat="47.86292" lon="-2.51554">
        <ele>83</ele>
        <time>2023-07-22T12:13:07.673Z</time>
      </trkpt>
      <trkpt lat="47.86291" lon="-2.51556">
        <ele>83</ele>
        <time>2023-07-22T12:13:08.673Z</time>
      </trkpt>
      <trkpt lat="47.86291" lon="-2.51556">
        <ele>83</ele>
        <time>2023-07-22T12:13:09.673Z</time>
      </trkpt>
      <trkpt lat="47.86291" lon="-2.51557">
        <ele>83</ele>
        <time>2023-07-22T12:13:10.673Z</time>
      </trkpt>
      <trkpt lat="47.8629" lon="-2.51557">
        <ele>83</ele>
        <time>2023-07-22T12:13:11.673Z</time>
      </trkpt>
      <trkpt lat="47.8629" lon="-2.51557">
        <ele>83</ele>
        <time>2023-07-22T12:13:12.673Z</time>
      </trkpt>
      <trkpt lat="47.8629" lon="-2.51558">
        <ele>83</ele>
        <time>2023-07-22T12:13:13.673Z</time>
      </trkpt>
      <trkpt lat="47.86289" lon="-2.51559">
        <ele>83</ele>
        <time>2023-07-22T12:13:14.673Z</time>
      </trkpt>
      <trkpt lat="47.86289" lon="-2.5156">
        <ele>83</ele>
        <time>2023-07-22T12:13:15.673Z</time>
      </trkpt>
      <trkpt lat="47.86289" lon="-2.51561">
        <ele>83</ele>
        <time>2023-07-22T12:13:16.673Z</time>
      </trkpt>
      <trkpt lat="47.86289" lon="-2.51561">
        <ele>83</ele>
        <time>2023-07-22T12:13:17.673Z</time>
      </trkpt>
      <trkpt lat="47.86289" lon="-2.51561">
        <ele>83</ele>
        <time>2023-07-22T12:13:18.673Z</time>
      </trkpt>
      <trkpt lat="47.86289" lon="-2.51561">
        <ele>83</ele>
        <time>2023-07-22T12:13:19.673Z</time>
      </trkpt>
      <trkpt lat="47.86288" lon="-2.51563">
        <ele>84</ele>
        <time>2023-07-22T12:13:20.673Z</time>
      </trkpt>
      <trkpt lat="47.86287" lon="-2.51565">
        <ele>84</ele>
        <time>2023-07-22T12:13:21.673Z</time>
      </trkpt>
      <trkpt lat="47.86288" lon="-2.51567">
        <ele>85</ele>
        <time>2023-07-22T12:13:22.673Z</time>
      </trkpt>
      <trkpt lat="47.86288" lon="-2.51568">
        <ele>85</ele>
        <time>2023-07-22T12:13:23.673Z</time>
      </trkpt>
      <trkpt lat="47.86289" lon="-2.51569">
        <ele>85</ele>
        <time>2023-07-22T12:13:24.673Z</time>
      </trkpt>
      <trkpt lat="47.86289" lon="-2.51569">
        <ele>86</ele>
        <time>2023-07-22T12:13:25.673Z</time>
      </trkpt>
      <trkpt lat="47.8629" lon="-2.51569">
        <ele>86</ele>
        <time>2023-07-22T12:13:26.673Z</time>
      </trkpt>
      <trkpt lat="47.86289" lon="-2.51568">
        <ele>86</ele>
        <time>2023-07-22T12:13:27.673Z</time>
      </trkpt>
      <trkpt lat="47.86289" lon="-2.51568">
        <ele>86</ele>
        <time>2023-07-22T12:13:28.673Z</time>
      </trkpt>
      <trkpt lat="47.86289" lon="-2.51568">
        <ele>87</ele>
        <time>2023-07-22T12:13:29.673Z</time>
      </trkpt>
      <trkpt lat="47.86289" lon="-2.51567">
        <ele>87</ele>
        <time>2023-07-22T12:13:30.673Z</time>
      </trkpt>
      <trkpt lat="47.8629" lon="-2.51567">
        <ele>88</ele>
        <time>2023-07-22T12:13:31.673Z</time>
      </trkpt>
      <trkpt lat="47.8629" lon="-2.51566">
        <ele>88</ele>
        <time>2023-07-22T12:13:32.673Z</time>
      </trkpt>
      <trkpt lat="47.8629" lon="-2.51566">
        <ele>88</ele>
        <time>2023-07-22T12:13:33.673Z</time>
      </trkpt>
      <trkpt lat="47.86289" lon="-2.51565">
        <ele>89</ele>
        <time>2023-07-22T12:13:34.673Z</time>
      </trkpt>
      <trkpt lat="47.86289" lon="-2.51564">
        <ele>93</ele>
        <time>2023-07-22T12:13:46.776Z</time>
      </trkpt>
      <trkpt lat="47.86288" lon="-2.51566">
        <ele>94</ele>
        <time>2023-07-22T12:13:54.987Z</time>
      </trkpt>
      <trkpt lat="47.86287" lon="-2.51566">
        <ele>94</ele>
        <time>2023-07-22T12:13:55.987Z</time>
      </trkpt>
      <trkpt lat="47.86286" lon="-2.51567">
        <ele>94</ele>
        <time>2023-07-22T12:13:56.988Z</time>
      </trkpt>
      <trkpt lat="47.86285" lon="-2.51568">
        <ele>94</ele>
        <time>2023-07-22T12:13:57.988Z</time>
      </trkpt>
      <trkpt lat="47.86283" lon="-2.51569">
        <ele>95</ele>
        <time>2023-07-22T12:13:58.988Z</time>
      </trkpt>
      <trkpt lat="47.86282" lon="-2.5157">
        <ele>95</ele>
        <time>2023-07-22T12:13:59.987Z</time>
      </trkpt>
      <trkpt lat="47.86281" lon="-2.5157">
        <ele>95</ele>
        <time>2023-07-22T12:14:00.988Z</time>
      </trkpt>
      <trkpt lat="47.86279" lon="-2.5157">
        <ele>95</ele>
        <time>2023-07-22T12:14:01.988Z</time>
      </trkpt>
      <trkpt lat="47.86278" lon="-2.51571">
        <ele>96</ele>
        <time>2023-07-22T12:14:02.987Z</time>
      </trkpt>
      <trkpt lat="47.86276" lon="-2.51571">
        <ele>96</ele>
        <time>2023-07-22T12:14:03.987Z</time>
      </trkpt>
      <trkpt lat="47.86275" lon="-2.51572">
        <ele>97</ele>
        <time>2023-07-22T12:14:04.988Z</time>
      </trkpt>
      <trkpt lat="47.86274" lon="-2.51572">
        <ele>98</ele>
        <time>2023-07-22T12:14:05.988Z</time>
      </trkpt>
      <trkpt lat="47.86272" lon="-2.51574">
        <ele>99</ele>
        <time>2023-07-22T12:14:06.987Z</time>
      </trkpt>
      <trkpt lat="47.8627" lon="-2.51575">
        <ele>99</ele>
        <time>2023-07-22T12:14:07.987Z</time>
      </trkpt>
      <trkpt lat="47.86269" lon="-2.51577">
        <ele>100</ele>
        <time>2023-07-22T12:14:08.988Z</time>
      </trkpt>
      <trkpt lat="47.86268" lon="-2.51577">
        <ele>100</ele>
        <time>2023-07-22T12:14:09.987Z</time>
      </trkpt>
      <trkpt lat="47.86266" lon="-2.51578">
        <ele>101</ele>
        <time>2023-07-22T12:14:10.988Z</time>
      </trkpt>
      <trkpt lat="47.86266" lon="-2.51579">
        <ele>101</ele>
        <time>2023-07-22T12:14:11.987Z</time>
      </trkpt>
      <trkpt lat="47.86265" lon="-2.5158">
        <ele>101</ele>
        <time>2023-07-22T12:14:12.988Z</time>
      </trkpt>
      <trkpt lat="47.86264" lon="-2.51581">
        <ele>102</ele>
        <time>2023-07-22T12:14:13.988Z</time>
      </trkpt>
      <trkpt lat="47.86263" lon="-2.51581">
        <ele>101</ele>
        <time>2023-07-22T12:14:14.987Z</time>
      </trkpt>
      <trkpt lat="47.86262" lon="-2.5158">
        <ele>101</ele>
        <time>2023-07-22T12:14:15.988Z</time>
      </trkpt>
      <trkpt lat="47.86261" lon="-2.5158">
        <ele>101</ele>
        <time>2023-07-22T12:14:16.988Z</time>
      </trkpt>
      <trkpt lat="47.86259" lon="-2.51581">
        <ele>100</ele>
        <time>2023-07-22T12:14:17.988Z</time>
      </trkpt>
      <trkpt lat="47.86258" lon="-2.51581">
        <ele>100</ele>
        <time>2023-07-22T12:14:18.987Z</time>
      </trkpt>
      <trkpt lat="47.86256" lon="-2.51582">
        <ele>100</ele>
        <time>2023-07-22T12:14:19.988Z</time>
      </trkpt>
      <trkpt lat="47.86255" lon="-2.51583">
        <ele>101</ele>
        <time>2023-07-22T12:14:20.987Z</time>
      </trkpt>
      <trkpt lat="47.86254" lon="-2.51584">
        <ele>101</ele>
        <time>2023-07-22T12:14:21.987Z</time>
      </trkpt>
      <trkpt lat="47.86252" lon="-2.51586">
        <ele>101</ele>
        <time>2023-07-22T12:14:22.987Z</time>
      </trkpt>
      <trkpt lat="47.86251" lon="-2.51587">
        <ele>101</ele>
        <time>2023-07-22T12:14:23.987Z</time>
      </trkpt>
      <trkpt lat="47.8625" lon="-2.51588">
        <ele>101</ele>
        <time>2023-07-22T12:14:24.988Z</time>
      </trkpt>
      <trkpt lat="47.86248" lon="-2.51589">
        <ele>101</ele>
        <time>2023-07-22T12:14:25.988Z</time>
      </trkpt>
      <trkpt lat="47.86248" lon="-2.5159">
        <ele>101</ele>
        <time>2023-07-22T12:14:26.988Z</time>
      </trkpt>
      <trkpt lat="47.86247" lon="-2.5159">
        <ele>101</ele>
        <time>2023-07-22T12:14:27.988Z</time>
      </trkpt>
      <trkpt lat="47.86247" lon="-2.5159">
        <ele>101</ele>
        <time>2023-07-22T12:14:28.988Z</time>
      </trkpt>
      <trkpt lat="47.86247" lon="-2.5159">
        <ele>100</ele>
        <time>2023-07-22T12:14:29.988Z</time>
      </trkpt>
      <trkpt lat="47.86247" lon="-2.51591">
        <ele>100</ele>
        <time>2023-07-22T12:14:30.987Z</time>
      </trkpt>
      <trkpt lat="47.86246" lon="-2.51591">
        <ele>100</ele>
        <time>2023-07-22T12:14:31.988Z</time>
      </trkpt>
      <trkpt lat="47.86246" lon="-2.51592">
        <ele>99</ele>
        <time>2023-07-22T12:14:32.987Z</time>
      </trkpt>
      <trkpt lat="47.86245" lon="-2.51593">
        <ele>99</ele>
        <time>2023-07-22T12:14:33.987Z</time>
      </trkpt>
      <trkpt lat="47.86245" lon="-2.51595">
        <ele>99</ele>
        <time>2023-07-22T12:14:34.987Z</time>
      </trkpt>
      <trkpt lat="47.86244" lon="-2.51597">
        <ele>98</ele>
        <time>2023-07-22T12:14:35.988Z</time>
      </trkpt>
      <trkpt lat="47.86243" lon="-2.51599">
        <ele>98</ele>
        <time>2023-07-22T12:14:36.988Z</time>
      </trkpt>
      <trkpt lat="47.86242" lon="-2.516">
        <ele>98</ele>
        <time>2023-07-22T12:14:37.987Z</time>
      </trkpt>
      <trkpt lat="47.86241" lon="-2.51601">
        <ele>98</ele>
        <time>2023-07-22T12:14:38.988Z</time>
      </trkpt>
      <trkpt lat="47.86241" lon="-2.51602">
        <ele>98</ele>
        <time>2023-07-22T12:14:39.987Z</time>
      </trkpt>
      <trkpt lat="47.86241" lon="-2.51604">
        <ele>99</ele>
        <time>2023-07-22T12:14:40.987Z</time>
      </trkpt>
      <trkpt lat="47.8624" lon="-2.51606">
        <ele>99</ele>
        <time>2023-07-22T12:14:41.988Z</time>
      </trkpt>
      <trkpt lat="47.8624" lon="-2.51608">
        <ele>99</ele>
        <time>2023-07-22T12:14:42.987Z</time>
      </trkpt>
      <trkpt lat="47.86239" lon="-2.51609">
        <ele>99</ele>
        <time>2023-07-22T12:14:43.987Z</time>
      </trkpt>
      <trkpt lat="47.86239" lon="-2.51609">
        <ele>99</ele>
        <time>2023-07-22T12:14:44.988Z</time>
      </trkpt>
      <trkpt lat="47.86239" lon="-2.51611">
        <ele>99</ele>
        <time>2023-07-22T12:14:45.987Z</time>
      </trkpt>
      <trkpt lat="47.86238" lon="-2.51614">
        <ele>99</ele>
        <time>2023-07-22T12:14:46.988Z</time>
      </trkpt>
      <trkpt lat="47.86236" lon="-2.51615">
        <ele>98</ele>
        <time>2023-07-22T12:14:47.987Z</time>
      </trkpt>
      <trkpt lat="47.86235" lon="-2.51617">
        <ele>98</ele>
        <time>2023-07-22T12:14:48.988Z</time>
      </trkpt>
      <trkpt lat="47.86234" lon="-2.51619">
        <ele>98</ele>
        <time>2023-07-22T12:14:49.987Z</time>
      </trkpt>
      <trkpt lat="47.86233" lon="-2.51621">
        <ele>98</ele>
        <time>2023-07-22T12:14:50.987Z</time>
      </trkpt>
      <trkpt lat="47.86233" lon="-2.51622">
        <ele>98</ele>
        <time>2023-07-22T12:14:51.988Z</time>
      </trkpt>
      <trkpt lat="47.86232" lon="-2.51623">
        <ele>98</ele>
        <time>2023-07-22T12:14:52.988Z</time>
      </trkpt>
      <trkpt lat="47.86231" lon="-2.51623">
        <ele>98</ele>
        <time>2023-07-22T12:14:53.987Z</time>
      </trkpt>
      <trkpt lat="47.8623" lon="-2.51625">
        <ele>99</ele>
        <time>2023-07-22T12:14:54.987Z</time>
      </trkpt>
      <trkpt lat="47.86231" lon="-2.51626">
        <ele>99</ele>
        <time>2023-07-22T12:14:55.988Z</time>
      </trkpt>
      <trkpt lat="47.86231" lon="-2.51629">
        <ele>98</ele>
        <time>2023-07-22T12:14:56.987Z</time>
      </trkpt>
      <trkpt lat="47.8623" lon="-2.51632">
        <ele>98</ele>
        <time>2023-07-22T12:14:57.988Z</time>
      </trkpt>
      <trkpt lat="47.86229" lon="-2.51635">
        <ele>99</ele>
        <time>2023-07-22T12:14:58.987Z</time>
      </trkpt>
      <trkpt lat="47.86228" lon="-2.51637">
        <ele>99</ele>
        <time>2023-07-22T12:14:59.988Z</time>
      </trkpt>
      <trkpt lat="47.86227" lon="-2.51639">
        <ele>99</ele>
        <time>2023-07-22T12:15:00.987Z</time>
      </trkpt>
      <trkpt lat="47.86225" lon="-2.51639">
        <ele>100</ele>
        <time>2023-07-22T12:15:01.988Z</time>
      </trkpt>
      <trkpt lat="47.86224" lon="-2.51639">
        <ele>100</ele>
        <time>2023-07-22T12:15:02.987Z</time>
      </trkpt>
      <trkpt lat="47.86224" lon="-2.5164">
        <ele>101</ele>
        <time>2023-07-22T12:15:03.987Z</time>
      </trkpt>
      <trkpt lat="47.86223" lon="-2.51642">
        <ele>101</ele>
        <time>2023-07-22T12:15:04.988Z</time>
      </trkpt>
      <trkpt lat="47.86224" lon="-2.51644">
        <ele>102</ele>
        <time>2023-07-22T12:15:05.988Z</time>
      </trkpt>
      <trkpt lat="47.86223" lon="-2.51646">
        <ele>102</ele>
        <time>2023-07-22T12:15:06.987Z</time>
      </trkpt>
      <trkpt lat="47.86222" lon="-2.51647">
        <ele>102</ele>
        <time>2023-07-22T12:15:07.988Z</time>
      </trkpt>
      <trkpt lat="47.86222" lon="-2.51647">
        <ele>102</ele>
        <time>2023-07-22T12:15:08.987Z</time>
      </trkpt>
      <trkpt lat="47.86221" lon="-2.51648">
        <ele>103</ele>
        <time>2023-07-22T12:15:09.988Z</time>
      </trkpt>
      <trkpt lat="47.86219" lon="-2.51651">
        <ele>103</ele>
        <time>2023-07-22T12:15:10.987Z</time>
      </trkpt>
      <trkpt lat="47.86219" lon="-2.51652">
        <ele>103</ele>
        <time>2023-07-22T12:15:11.988Z</time>
      </trkpt>
      <trkpt lat="47.86218" lon="-2.51653">
        <ele>104</ele>
        <time>2023-07-22T12:15:12.988Z</time>
      </trkpt>
      <trkpt lat="47.86218" lon="-2.51654">
        <ele>104</ele>
        <time>2023-07-22T12:15:13.987Z</time>
      </trkpt>
      <trkpt lat="47.86217" lon="-2.51656">
        <ele>104</ele>
        <time>2023-07-22T12:15:14.988Z</time>
      </trkpt>
      <trkpt lat="47.86216" lon="-2.51657">
        <ele>105</ele>
        <time>2023-07-22T12:15:15.987Z</time>
      </trkpt>
      <trkpt lat="47.86217" lon="-2.51656">
        <ele>105</ele>
        <time>2023-07-22T12:15:16.988Z</time>
      </trkpt>
      <trkpt lat="47.86217" lon="-2.51657">
        <ele>106</ele>
        <time>2023-07-22T12:15:17.988Z</time>
      </trkpt>
      <trkpt lat="47.86217" lon="-2.51658">
        <ele>106</ele>
        <time>2023-07-22T12:15:18.988Z</time>
      </trkpt>
      <trkpt lat="47.86216" lon="-2.51657">
        <ele>106</ele>
        <time>2023-07-22T12:15:19.987Z</time>
      </trkpt>
      <trkpt lat="47.86216" lon="-2.51656">
        <ele>107</ele>
        <time>2023-07-22T12:15:20.988Z</time>
      </trkpt>
      <trkpt lat="47.86216" lon="-2.51656">
        <ele>107</ele>
        <time>2023-07-22T12:15:21.987Z</time>
      </trkpt>
      <trkpt lat="47.86216" lon="-2.51656">
        <ele>107</ele>
        <time>2023-07-22T12:15:22.988Z</time>
      </trkpt>
      <trkpt lat="47.86216" lon="-2.51655">
        <ele>107</ele>
        <time>2023-07-22T12:15:23.987Z</time>
      </trkpt>
      <trkpt lat="47.86215" lon="-2.51653">
        <ele>108</ele>
        <time>2023-07-22T12:15:24.988Z</time>
      </trkpt>
      <trkpt lat="47.86216" lon="-2.51651">
        <ele>108</ele>
        <time>2023-07-22T12:15:25.987Z</time>
      </trkpt>
      <trkpt lat="47.86215" lon="-2.51651">
        <ele>108</ele>
        <time>2023-07-22T12:15:26.987Z</time>
      </trkpt>
      <trkpt lat="47.86215" lon="-2.51651">
        <ele>109</ele>
        <time>2023-07-22T12:15:27.987Z</time>
      </trkpt>
      <trkpt lat="47.86214" lon="-2.51647">
        <ele>110</ele>
        <time>2023-07-22T12:15:34.477Z</time>
      </trkpt>
      <trkpt lat="47.86214" lon="-2.51647">
        <ele>110</ele>
        <time>2023-07-22T12:15:35.476Z</time>
      </trkpt>
      <trkpt lat="47.86214" lon="-2.51646">
        <ele>110</ele>
        <time>2023-07-22T12:15:36.477Z</time>
      </trkpt>
      <trkpt lat="47.86213" lon="-2.51646">
        <ele>110</ele>
        <time>2023-07-22T12:15:37.477Z</time>
      </trkpt>
      <trkpt lat="47.86212" lon="-2.51646">
        <ele>110</ele>
        <time>2023-07-22T12:15:38.477Z</time>
      </trkpt>
      <trkpt lat="47.86211" lon="-2.51646">
        <ele>110</ele>
        <time>2023-07-22T12:15:39.477Z</time>
      </trkpt>
      <trkpt lat="47.86211" lon="-2.51646">
        <ele>109</ele>
        <time>2023-07-22T12:15:40.476Z</time>
      </trkpt>
      <trkpt lat="47.86211" lon="-2.51643">
        <ele>109</ele>
        <time>2023-07-22T12:15:41.477Z</time>
      </trkpt>
      <trkpt lat="47.86211" lon="-2.51641">
        <ele>109</ele>
        <time>2023-07-22T12:15:42.476Z</time>
      </trkpt>
      <trkpt lat="47.8621" lon="-2.5164">
        <ele>108</ele>
        <time>2023-07-22T12:15:43.476Z</time>
      </trkpt>
      <trkpt lat="47.8621" lon="-2.51638">
        <ele>108</ele>
        <time>2023-07-22T12:15:44.476Z</time>
      </trkpt>
      <trkpt lat="47.86209" lon="-2.51636">
        <ele>107</ele>
        <time>2023-07-22T12:15:45.477Z</time>
      </trkpt>
      <trkpt lat="47.86209" lon="-2.51635">
        <ele>107</ele>
        <time>2023-07-22T12:15:46.476Z</time>
      </trkpt>
      <trkpt lat="47.86209" lon="-2.51634">
        <ele>107</ele>
        <time>2023-07-22T12:15:47.477Z</time>
      </trkpt>
      <trkpt lat="47.86209" lon="-2.51634">
        <ele>107</ele>
        <time>2023-07-22T12:15:48.476Z</time>
      </trkpt>
      <trkpt lat="47.86209" lon="-2.51633">
        <ele>106</ele>
        <time>2023-07-22T12:15:49.477Z</time>
      </trkpt>
      <trkpt lat="47.86209" lon="-2.51632">
        <ele>106</ele>
        <time>2023-07-22T12:15:50.476Z</time>
      </trkpt>
      <trkpt lat="47.86209" lon="-2.51631">
        <ele>105</ele>
        <time>2023-07-22T12:15:51.477Z</time>
      </trkpt>
      <trkpt lat="47.86208" lon="-2.5163">
        <ele>104</ele>
        <time>2023-07-22T12:15:52.476Z</time>
      </trkpt>
      <trkpt lat="47.86207" lon="-2.51629">
        <ele>104</ele>
        <time>2023-07-22T12:15:53.477Z</time>
      </trkpt>
      <trkpt lat="47.86206" lon="-2.51628">
        <ele>103</ele>
        <time>2023-07-22T12:15:54.476Z</time>
      </trkpt>
      <trkpt lat="47.86206" lon="-2.51628">
        <ele>103</ele>
        <time>2023-07-22T12:15:55.477Z</time>
      </trkpt>
      <trkpt lat="47.86206" lon="-2.51628">
        <ele>102</ele>
        <time>2023-07-22T12:15:56.476Z</time>
      </trkpt>
      <trkpt lat="47.86205" lon="-2.51627">
        <ele>102</ele>
        <time>2023-07-22T12:15:57.477Z</time>
      </trkpt>
      <trkpt lat="47.86205" lon="-2.51626">
        <ele>101</ele>
        <time>2023-07-22T12:15:58.477Z</time>
      </trkpt>
      <trkpt lat="47.86205" lon="-2.51624">
        <ele>101</ele>
        <time>2023-07-22T12:15:59.476Z</time>
      </trkpt>
      <trkpt lat="47.86205" lon="-2.51624">
        <ele>101</ele>
        <time>2023-07-22T12:16:00.476Z</time>
      </trkpt>
      <trkpt lat="47.86204" lon="-2.51622">
        <ele>101</ele>
        <time>2023-07-22T12:16:01.476Z</time>
      </trkpt>
      <trkpt lat="47.86203" lon="-2.5162">
        <ele>100</ele>
        <time>2023-07-22T12:16:02.477Z</time>
      </trkpt>
      <trkpt lat="47.86203" lon="-2.51618">
        <ele>100</ele>
        <time>2023-07-22T12:16:03.476Z</time>
      </trkpt>
      <trkpt lat="47.86203" lon="-2.51616">
        <ele>100</ele>
        <time>2023-07-22T12:16:04.476Z</time>
      </trkpt>
      <trkpt lat="47.86203" lon="-2.51615">
        <ele>100</ele>
        <time>2023-07-22T12:16:05.477Z</time>
      </trkpt>
      <trkpt lat="47.86203" lon="-2.51615">
        <ele>100</ele>
        <time>2023-07-22T12:16:06.476Z</time>
      </trkpt>
      <trkpt lat="47.86203" lon="-2.51614">
        <ele>100</ele>
        <time>2023-07-22T12:16:07.476Z</time>
      </trkpt>
      <trkpt lat="47.86203" lon="-2.51613">
        <ele>100</ele>
        <time>2023-07-22T12:16:08.477Z</time>
      </trkpt>
      <trkpt lat="47.86203" lon="-2.51613">
        <ele>100</ele>
        <time>2023-07-22T12:16:09.476Z</time>
      </trkpt>
      <trkpt lat="47.86202" lon="-2.51612">
        <ele>100</ele>
        <time>2023-07-22T12:16:10.476Z</time>
      </trkpt>
      <trkpt lat="47.86202" lon="-2.51612">
        <ele>101</ele>
        <time>2023-07-22T12:16:11.476Z</time>
      </trkpt>
      <trkpt lat="47.86202" lon="-2.51611">
        <ele>101</ele>
        <time>2023-07-22T12:16:12.476Z</time>
      </trkpt>
      <trkpt lat="47.86205" lon="-2.51608">
        <ele>106</ele>
        <time>2023-07-22T12:16:21.739Z</time>
      </trkpt>
      <trkpt lat="47.86206" lon="-2.51608">
        <ele>106</ele>
        <time>2023-07-22T12:16:22.739Z</time>
      </trkpt>
      <trkpt lat="47.86206" lon="-2.51608">
        <ele>106</ele>
        <time>2023-07-22T12:16:23.739Z</time>
      </trkpt>
      <trkpt lat="47.86207" lon="-2.51608">
        <ele>106</ele>
        <time>2023-07-22T12:16:24.739Z</time>
      </trkpt>
      <trkpt lat="47.86206" lon="-2.51607">
        <ele>106</ele>
        <time>2023-07-22T12:16:25.739Z</time>
      </trkpt>
      <trkpt lat="47.86207" lon="-2.51606">
        <ele>106</ele>
        <time>2023-07-22T12:16:26.739Z</time>
      </trkpt>
      <trkpt lat="47.86207" lon="-2.51605">
        <ele>106</ele>
        <time>2023-07-22T12:16:27.740Z</time>
      </trkpt>
      <trkpt lat="47.86208" lon="-2.51605">
        <ele>106</ele>
        <time>2023-07-22T12:16:28.740Z</time>
      </trkpt>
      <trkpt lat="47.86208" lon="-2.51605">
        <ele>106</ele>
        <time>2023-07-22T12:16:29.739Z</time>
      </trkpt>
      <trkpt lat="47.86209" lon="-2.51605">
        <ele>106</ele>
        <time>2023-07-22T12:16:30.739Z</time>
      </trkpt>
      <trkpt lat="47.8621" lon="-2.51604">
        <ele>106</ele>
        <time>2023-07-22T12:16:31.740Z</time>
      </trkpt>
      <trkpt lat="47.8621" lon="-2.51603">
        <ele>106</ele>
        <time>2023-07-22T12:16:32.739Z</time>
      </trkpt>
      <trkpt lat="47.86211" lon="-2.51602">
        <ele>106</ele>
        <time>2023-07-22T12:16:33.739Z</time>
      </trkpt>
      <trkpt lat="47.86212" lon="-2.51602">
        <ele>106</ele>
        <time>2023-07-22T12:16:34.739Z</time>
      </trkpt>
      <trkpt lat="47.86213" lon="-2.51601">
        <ele>106</ele>
        <time>2023-07-22T12:16:35.739Z</time>
      </trkpt>
      <trkpt lat="47.86214" lon="-2.516">
        <ele>106</ele>
        <time>2023-07-22T12:16:36.739Z</time>
      </trkpt>
      <trkpt lat="47.86215" lon="-2.516">
        <ele>106</ele>
        <time>2023-07-22T12:16:37.739Z</time>
      </trkpt>
      <trkpt lat="47.86216" lon="-2.51599">
        <ele>106</ele>
        <time>2023-07-22T12:16:38.739Z</time>
      </trkpt>
      <trkpt lat="47.86217" lon="-2.51598">
        <ele>106</ele>
        <time>2023-07-22T12:16:39.739Z</time>
      </trkpt>
      <trkpt lat="47.86218" lon="-2.51597">
        <ele>106</ele>
        <time>2023-07-22T12:16:40.739Z</time>
      </trkpt>
      <trkpt lat="47.8622" lon="-2.51596">
        <ele>106</ele>
        <time>2023-07-22T12:16:41.739Z</time>
      </trkpt>
      <trkpt lat="47.86221" lon="-2.51595">
        <ele>106</ele>
        <time>2023-07-22T12:16:42.740Z</time>
      </trkpt>
      <trkpt lat="47.86222" lon="-2.51593">
        <ele>106</ele>
        <time>2023-07-22T12:16:43.740Z</time>
      </trkpt>
      <trkpt lat="47.86223" lon="-2.51592">
        <ele>107</ele>
        <time>2023-07-22T12:16:44.740Z</time>
      </trkpt>
      <trkpt lat="47.86223" lon="-2.51591">
        <ele>107</ele>
        <time>2023-07-22T12:16:45.739Z</time>
      </trkpt>
      <trkpt lat="47.86224" lon="-2.51589">
        <ele>107</ele>
        <time>2023-07-22T12:16:46.740Z</time>
      </trkpt>
      <trkpt lat="47.86224" lon="-2.51587">
        <ele>107</ele>
        <time>2023-07-22T12:16:47.740Z</time>
      </trkpt>
      <trkpt lat="47.86225" lon="-2.51586">
        <ele>107</ele>
        <time>2023-07-22T12:16:48.739Z</time>
      </trkpt>
      <trkpt lat="47.86225" lon="-2.51585">
        <ele>107</ele>
        <time>2023-07-22T12:16:49.739Z</time>
      </trkpt>
      <trkpt lat="47.86225" lon="-2.51584">
        <ele>106</ele>
        <time>2023-07-22T12:16:50.739Z</time>
      </trkpt>
      <trkpt lat="47.86226" lon="-2.51583">
        <ele>106</ele>
        <time>2023-07-22T12:16:51.739Z</time>
      </trkpt>
      <trkpt lat="47.86227" lon="-2.51582">
        <ele>106</ele>
        <time>2023-07-22T12:16:52.740Z</time>
      </trkpt>
      <trkpt lat="47.86227" lon="-2.5158">
        <ele>106</ele>
        <time>2023-07-22T12:16:53.739Z</time>
      </trkpt>
      <trkpt lat="47.86227" lon="-2.51578">
        <ele>106</ele>
        <time>2023-07-22T12:16:54.739Z</time>
      </trkpt>
      <trkpt lat="47.86227" lon="-2.51576">
        <ele>106</ele>
        <time>2023-07-22T12:16:55.739Z</time>
      </trkpt>
      <trkpt lat="47.86227" lon="-2.51575">
        <ele>105</ele>
        <time>2023-07-22T12:16:56.740Z</time>
      </trkpt>
      <trkpt lat="47.86228" lon="-2.51573">
        <ele>105</ele>
        <time>2023-07-22T12:16:57.740Z</time>
      </trkpt>
      <trkpt lat="47.86228" lon="-2.51572">
        <ele>105</ele>
        <time>2023-07-22T12:16:58.739Z</time>
      </trkpt>
      <trkpt lat="47.86228" lon="-2.51571">
        <ele>105</ele>
        <time>2023-07-22T12:16:59.739Z</time>
      </trkpt>
      <trkpt lat="47.86229" lon="-2.5157">
        <ele>104</ele>
        <time>2023-07-22T12:17:00.740Z</time>
      </trkpt>
      <trkpt lat="47.86229" lon="-2.51569">
        <ele>104</ele>
        <time>2023-07-22T12:17:01.740Z</time>
      </trkpt>
      <trkpt lat="47.86229" lon="-2.51568">
        <ele>104</ele>
        <time>2023-07-22T12:17:02.740Z</time>
      </trkpt>
      <trkpt lat="47.86229" lon="-2.51566">
        <ele>104</ele>
        <time>2023-07-22T12:17:03.739Z</time>
      </trkpt>
      <trkpt lat="47.86229" lon="-2.51565">
        <ele>103</ele>
        <time>2023-07-22T12:17:04.739Z</time>
      </trkpt>
      <trkpt lat="47.8623" lon="-2.51564">
        <ele>103</ele>
        <time>2023-07-22T12:17:05.740Z</time>
      </trkpt>
      <trkpt lat="47.8623" lon="-2.51563">
        <ele>103</ele>
        <time>2023-07-22T12:17:06.740Z</time>
      </trkpt>
      <trkpt lat="47.86231" lon="-2.51562">
        <ele>103</ele>
        <time>2023-07-22T12:17:07.740Z</time>
      </trkpt>
      <trkpt lat="47.86231" lon="-2.51561">
        <ele>102</ele>
        <time>2023-07-22T12:17:08.739Z</time>
      </trkpt>
      <trkpt lat="47.86231" lon="-2.5156">
        <ele>102</ele>
        <time>2023-07-22T12:17:09.739Z</time>
      </trkpt>
      <trkpt lat="47.86231" lon="-2.51559">
        <ele>102</ele>
        <time>2023-07-22T12:17:10.740Z</time>
      </trkpt>
      <trkpt lat="47.86231" lon="-2.51558">
        <ele>101</ele>
        <time>2023-07-22T12:17:11.740Z</time>
      </trkpt>
      <trkpt lat="47.86231" lon="-2.51557">
        <ele>101</ele>
        <time>2023-07-22T12:17:12.740Z</time>
      </trkpt>
      <trkpt lat="47.86232" lon="-2.51555">
        <ele>101</ele>
        <time>2023-07-22T12:17:13.740Z</time>
      </trkpt>
      <trkpt lat="47.86232" lon="-2.51554">
        <ele>101</ele>
        <time>2023-07-22T12:17:14.739Z</time>
      </trkpt>
      <trkpt lat="47.86232" lon="-2.51552">
        <ele>101</ele>
        <time>2023-07-22T12:17:15.740Z</time>
      </trkpt>
      <trkpt lat="47.86232" lon="-2.51551">
        <ele>101</ele>
        <time>2023-07-22T12:17:16.739Z</time>
      </trkpt>
      <trkpt lat="47.86233" lon="-2.5155">
        <ele>101</ele>
        <time>2023-07-22T12:17:17.740Z</time>
      </trkpt>
      <trkpt lat="47.86234" lon="-2.51549">
        <ele>101</ele>
        <time>2023-07-22T12:17:18.739Z</time>
      </trkpt>
      <trkpt lat="47.86234" lon="-2.51548">
        <ele>101</ele>
        <time>2023-07-22T12:17:19.740Z</time>
      </trkpt>
      <trkpt lat="47.86235" lon="-2.51548">
        <ele>101</ele>
        <time>2023-07-22T12:17:20.739Z</time>
      </trkpt>
      <trkpt lat="47.86236" lon="-2.51547">
        <ele>101</ele>
        <time>2023-07-22T12:17:21.740Z</time>
      </trkpt>
      <trkpt lat="47.86236" lon="-2.51547">
        <ele>101</ele>
        <time>2023-07-22T12:17:22.739Z</time>
      </trkpt>
      <trkpt lat="47.86236" lon="-2.51548">
        <ele>101</ele>
        <time>2023-07-22T12:17:23.740Z</time>
      </trkpt>
      <trkpt lat="47.86236" lon="-2.51547">
        <ele>101</ele>
        <time>2023-07-22T12:17:24.740Z</time>
      </trkpt>
      <trkpt lat="47.86237" lon="-2.51547">
        <ele>101</ele>
        <time>2023-07-22T12:17:25.740Z</time>
      </trkpt>
      <trkpt lat="47.86238" lon="-2.51546">
        <ele>101</ele>
        <time>2023-07-22T12:17:26.739Z</time>
      </trkpt>
      <trkpt lat="47.86238" lon="-2.51546">
        <ele>101</ele>
        <time>2023-07-22T12:17:27.739Z</time>
      </trkpt>
      <trkpt lat="47.86239" lon="-2.51545">
        <ele>100</ele>
        <time>2023-07-22T12:17:28.740Z</time>
      </trkpt>
      <trkpt lat="47.86239" lon="-2.51545">
        <ele>100</ele>
        <time>2023-07-22T12:17:29.740Z</time>
      </trkpt>
      <trkpt lat="47.8624" lon="-2.51544">
        <ele>100</ele>
        <time>2023-07-22T12:17:30.739Z</time>
      </trkpt>
      <trkpt lat="47.8624" lon="-2.51542">
        <ele>100</ele>
        <time>2023-07-22T12:17:31.740Z</time>
      </trkpt>
      <trkpt lat="47.86241" lon="-2.51541">
        <ele>100</ele>
        <time>2023-07-22T12:17:32.739Z</time>
      </trkpt>
      <trkpt lat="47.86241" lon="-2.51539">
        <ele>101</ele>
        <time>2023-07-22T12:17:33.739Z</time>
      </trkpt>
      <trkpt lat="47.86242" lon="-2.51538">
        <ele>101</ele>
        <time>2023-07-22T12:17:34.739Z</time>
      </trkpt>
      <trkpt lat="47.86242" lon="-2.51536">
        <ele>101</ele>
        <time>2023-07-22T12:17:35.739Z</time>
      </trkpt>
      <trkpt lat="47.86242" lon="-2.51535">
        <ele>101</ele>
        <time>2023-07-22T12:17:36.740Z</time>
      </trkpt>
      <trkpt lat="47.86242" lon="-2.51535">
        <ele>101</ele>
        <time>2023-07-22T12:17:37.740Z</time>
      </trkpt>
      <trkpt lat="47.86243" lon="-2.51533">
        <ele>101</ele>
        <time>2023-07-22T12:17:38.739Z</time>
      </trkpt>
      <trkpt lat="47.86244" lon="-2.51532">
        <ele>101</ele>
        <time>2023-07-22T12:17:39.739Z</time>
      </trkpt>
      <trkpt lat="47.86245" lon="-2.5153">
        <ele>101</ele>
        <time>2023-07-22T12:17:40.740Z</time>
      </trkpt>
      <trkpt lat="47.86246" lon="-2.5153">
        <ele>101</ele>
        <time>2023-07-22T12:17:41.740Z</time>
      </trkpt>
      <trkpt lat="47.86247" lon="-2.51528">
        <ele>101</ele>
        <time>2023-07-22T12:17:42.740Z</time>
      </trkpt>
      <trkpt lat="47.86248" lon="-2.51527">
        <ele>100</ele>
        <time>2023-07-22T12:17:43.740Z</time>
      </trkpt>
      <trkpt lat="47.86249" lon="-2.51525">
        <ele>100</ele>
        <time>2023-07-22T12:17:44.739Z</time>
      </trkpt>
      <trkpt lat="47.8625" lon="-2.51524">
        <ele>100</ele>
        <time>2023-07-22T12:17:45.739Z</time>
      </trkpt>
      <trkpt lat="47.86251" lon="-2.51523">
        <ele>99</ele>
        <time>2023-07-22T12:17:46.739Z</time>
      </trkpt>
      <trkpt lat="47.86252" lon="-2.51522">
        <ele>99</ele>
        <time>2023-07-22T12:17:47.739Z</time>
      </trkpt>
      <trkpt lat="47.86253" lon="-2.5152">
        <ele>99</ele>
        <time>2023-07-22T12:17:48.740Z</time>
      </trkpt>
      <trkpt lat="47.86253" lon="-2.51519">
        <ele>99</ele>
        <time>2023-07-22T12:17:49.739Z</time>
      </trkpt>
      <trkpt lat="47.86253" lon="-2.51518">
        <ele>99</ele>
        <time>2023-07-22T12:17:50.739Z</time>
      </trkpt>
      <trkpt lat="47.86254" lon="-2.51518">
        <ele>99</ele>
        <time>2023-07-22T12:17:51.739Z</time>
      </trkpt>
      <trkpt lat="47.86254" lon="-2.51516">
        <ele>99</ele>
        <time>2023-07-22T12:17:52.739Z</time>
      </trkpt>
      <trkpt lat="47.86255" lon="-2.51515">
        <ele>99</ele>
        <time>2023-07-22T12:17:53.739Z</time>
      </trkpt>
      <trkpt lat="47.86255" lon="-2.51514">
        <ele>99</ele>
        <time>2023-07-22T12:17:54.739Z</time>
      </trkpt>
      <trkpt lat="47.86255" lon="-2.51513">
        <ele>99</ele>
        <time>2023-07-22T12:17:55.739Z</time>
      </trkpt>
      <trkpt lat="47.86255" lon="-2.51512">
        <ele>98</ele>
        <time>2023-07-22T12:17:56.739Z</time>
      </trkpt>
      <trkpt lat="47.86255" lon="-2.51512">
        <ele>98</ele>
        <time>2023-07-22T12:17:57.739Z</time>
      </trkpt>
      <trkpt lat="47.86255" lon="-2.51511">
        <ele>98</ele>
        <time>2023-07-22T12:17:58.740Z</time>
      </trkpt>
      <trkpt lat="47.86255" lon="-2.5151">
        <ele>98</ele>
        <time>2023-07-22T12:17:59.740Z</time>
      </trkpt>
      <trkpt lat="47.86256" lon="-2.51509">
        <ele>98</ele>
        <time>2023-07-22T12:18:00.739Z</time>
      </trkpt>
      <trkpt lat="47.86256" lon="-2.51508">
        <ele>98</ele>
        <time>2023-07-22T12:18:01.739Z</time>
      </trkpt>
      <trkpt lat="47.86257" lon="-2.51507">
        <ele>98</ele>
        <time>2023-07-22T12:18:02.739Z</time>
      </trkpt>
      <trkpt lat="47.86259" lon="-2.51507">
        <ele>98</ele>
        <time>2023-07-22T12:18:03.739Z</time>
      </trkpt>
      <trkpt lat="47.8626" lon="-2.51506">
        <ele>98</ele>
        <time>2023-07-22T12:18:04.740Z</time>
      </trkpt>
      <trkpt lat="47.86261" lon="-2.51505">
        <ele>97</ele>
        <time>2023-07-22T12:18:05.740Z</time>
      </trkpt>
      <trkpt lat="47.86262" lon="-2.51504">
        <ele>97</ele>
        <time>2023-07-22T12:18:06.739Z</time>
      </trkpt>
      <trkpt lat="47.86262" lon="-2.51502">
        <ele>96</ele>
        <time>2023-07-22T12:18:07.740Z</time>
      </trkpt>
      <trkpt lat="47.86262" lon="-2.515">
        <ele>96</ele>
        <time>2023-07-22T12:18:08.740Z</time>
      </trkpt>
      <trkpt lat="47.86263" lon="-2.51498">
        <ele>95</ele>
        <time>2023-07-22T12:18:09.739Z</time>
      </trkpt>
      <trkpt lat="47.86263" lon="-2.51496">
        <ele>95</ele>
        <time>2023-07-22T12:18:10.740Z</time>
      </trkpt>
      <trkpt lat="47.86262" lon="-2.51495">
        <ele>95</ele>
        <time>2023-07-22T12:18:11.739Z</time>
      </trkpt>
      <trkpt lat="47.86261" lon="-2.51494">
        <ele>94</ele>
        <time>2023-07-22T12:18:12.739Z</time>
      </trkpt>
      <trkpt lat="47.8626" lon="-2.51492">
        <ele>94</ele>
        <time>2023-07-22T12:18:13.740Z</time>
      </trkpt>
      <trkpt lat="47.8626" lon="-2.51491">
        <ele>93</ele>
        <time>2023-07-22T12:18:14.739Z</time>
      </trkpt>
      <trkpt lat="47.86259" lon="-2.5149">
        <ele>93</ele>
        <time>2023-07-22T12:18:15.740Z</time>
      </trkpt>
      <trkpt lat="47.86259" lon="-2.51489">
        <ele>93</ele>
        <time>2023-07-22T12:18:16.739Z</time>
      </trkpt>
      <trkpt lat="47.86259" lon="-2.51488">
        <ele>92</ele>
        <time>2023-07-22T12:18:17.740Z</time>
      </trkpt>
      <trkpt lat="47.86259" lon="-2.51487">
        <ele>92</ele>
        <time>2023-07-22T12:18:18.739Z</time>
      </trkpt>
      <trkpt lat="47.86259" lon="-2.51486">
        <ele>92</ele>
        <time>2023-07-22T12:18:19.739Z</time>
      </trkpt>
      <trkpt lat="47.86258" lon="-2.51484">
        <ele>92</ele>
        <time>2023-07-22T12:18:20.739Z</time>
      </trkpt>
      <trkpt lat="47.86258" lon="-2.51482">
        <ele>91</ele>
        <time>2023-07-22T12:18:21.739Z</time>
      </trkpt>
      <trkpt lat="47.86257" lon="-2.51481">
        <ele>91</ele>
        <time>2023-07-22T12:18:22.739Z</time>
      </trkpt>
      <trkpt lat="47.86256" lon="-2.51479">
        <ele>91</ele>
        <time>2023-07-22T12:18:23.740Z</time>
      </trkpt>
      <trkpt lat="47.86256" lon="-2.51477">
        <ele>91</ele>
        <time>2023-07-22T12:18:24.740Z</time>
      </trkpt>
      <trkpt lat="47.86255" lon="-2.51476">
        <ele>91</ele>
        <time>2023-07-22T12:18:25.739Z</time>
      </trkpt>
      <trkpt lat="47.86255" lon="-2.51474">
        <ele>92</ele>
        <time>2023-07-22T12:18:26.739Z</time>
      </trkpt>
      <trkpt lat="47.86255" lon="-2.51471">
        <ele>92</ele>
        <time>2023-07-22T12:18:27.740Z</time>
      </trkpt>
      <trkpt lat="47.86255" lon="-2.51469">
        <ele>92</ele>
        <time>2023-07-22T12:18:28.739Z</time>
      </trkpt>
      <trkpt lat="47.86256" lon="-2.51468">
        <ele>92</ele>
        <time>2023-07-22T12:18:29.739Z</time>
      </trkpt>
      <trkpt lat="47.86257" lon="-2.51467">
        <ele>92</ele>
        <time>2023-07-22T12:18:30.740Z</time>
      </trkpt>
      <trkpt lat="47.86257" lon="-2.51467">
        <ele>92</ele>
        <time>2023-07-22T12:18:31.739Z</time>
      </trkpt>
      <trkpt lat="47.86257" lon="-2.51467">
        <ele>92</ele>
        <time>2023-07-22T12:18:32.739Z</time>
      </trkpt>
      <trkpt lat="47.86256" lon="-2.51467">
        <ele>92</ele>
        <time>2023-07-22T12:18:33.739Z</time>
      </trkpt>
      <trkpt lat="47.86256" lon="-2.51461">
        <ele>92</ele>
        <time>2023-07-22T12:18:40.032Z</time>
      </trkpt>
      <trkpt lat="47.86256" lon="-2.51462">
        <ele>92</ele>
        <time>2023-07-22T12:18:41.033Z</time>
      </trkpt>
      <trkpt lat="47.86256" lon="-2.51462">
        <ele>92</ele>
        <time>2023-07-22T12:18:42.032Z</time>
      </trkpt>
      <trkpt lat="47.86255" lon="-2.51462">
        <ele>92</ele>
        <time>2023-07-22T12:18:43.032Z</time>
      </trkpt>
      <trkpt lat="47.86255" lon="-2.51461">
        <ele>92</ele>
        <time>2023-07-22T12:18:44.032Z</time>
      </trkpt>
      <trkpt lat="47.86255" lon="-2.51461">
        <ele>92</ele>
        <time>2023-07-22T12:18:45.032Z</time>
      </trkpt>
      <trkpt lat="47.86253" lon="-2.5146">
        <ele>92</ele>
        <time>2023-07-22T12:18:46.033Z</time>
      </trkpt>
      <trkpt lat="47.86252" lon="-2.51459">
        <ele>92</ele>
        <time>2023-07-22T12:18:47.033Z</time>
      </trkpt>
      <trkpt lat="47.86252" lon="-2.51458">
        <ele>91</ele>
        <time>2023-07-22T12:18:48.033Z</time>
      </trkpt>
      <trkpt lat="47.86253" lon="-2.51457">
        <ele>91</ele>
        <time>2023-07-22T12:18:49.032Z</time>
      </trkpt>
      <trkpt lat="47.86253" lon="-2.51456">
        <ele>91</ele>
        <time>2023-07-22T12:18:50.033Z</time>
      </trkpt>
      <trkpt lat="47.86254" lon="-2.51456">
        <ele>91</ele>
        <time>2023-07-22T12:18:51.032Z</time>
      </trkpt>
      <trkpt lat="47.86255" lon="-2.51455">
        <ele>91</ele>
        <time>2023-07-22T12:18:52.033Z</time>
      </trkpt>
      <trkpt lat="47.86255" lon="-2.51455">
        <ele>91</ele>
        <time>2023-07-22T12:18:53.032Z</time>
      </trkpt>
      <trkpt lat="47.86256" lon="-2.51455">
        <ele>91</ele>
        <time>2023-07-22T12:18:54.033Z</time>
      </trkpt>
      <trkpt lat="47.86256" lon="-2.51455">
        <ele>91</ele>
        <time>2023-07-22T12:18:55.032Z</time>
      </trkpt>
      <trkpt lat="47.86255" lon="-2.51451">
        <ele>90</ele>
        <time>2023-07-22T12:19:01.335Z</time>
      </trkpt>
      <trkpt lat="47.86255" lon="-2.51451">
        <ele>90</ele>
        <time>2023-07-22T12:19:02.335Z</time>
      </trkpt>
      <trkpt lat="47.86256" lon="-2.5145">
        <ele>89</ele>
        <time>2023-07-22T12:19:03.335Z</time>
      </trkpt>
      <trkpt lat="47.86256" lon="-2.51449">
        <ele>89</ele>
        <time>2023-07-22T12:19:04.336Z</time>
      </trkpt>
      <trkpt lat="47.86256" lon="-2.51448">
        <ele>89</ele>
        <time>2023-07-22T12:19:05.336Z</time>
      </trkpt>
      <trkpt lat="47.86258" lon="-2.51447">
        <ele>89</ele>
        <time>2023-07-22T12:19:06.336Z</time>
      </trkpt>
      <trkpt lat="47.86258" lon="-2.51445">
        <ele>88</ele>
        <time>2023-07-22T12:19:07.336Z</time>
      </trkpt>
      <trkpt lat="47.86258" lon="-2.51445">
        <ele>88</ele>
        <time>2023-07-22T12:19:08.336Z</time>
      </trkpt>
      <trkpt lat="47.86258" lon="-2.51444">
        <ele>88</ele>
        <time>2023-07-22T12:19:09.335Z</time>
      </trkpt>
      <trkpt lat="47.86258" lon="-2.51442">
        <ele>88</ele>
        <time>2023-07-22T12:19:10.336Z</time>
      </trkpt>
      <trkpt lat="47.86258" lon="-2.51441">
        <ele>88</ele>
        <time>2023-07-22T12:19:11.335Z</time>
      </trkpt>
      <trkpt lat="47.86259" lon="-2.51439">
        <ele>88</ele>
        <time>2023-07-22T12:19:12.335Z</time>
      </trkpt>
      <trkpt lat="47.86259" lon="-2.51438">
        <ele>88</ele>
        <time>2023-07-22T12:19:13.335Z</time>
      </trkpt>
      <trkpt lat="47.8626" lon="-2.51436">
        <ele>88</ele>
        <time>2023-07-22T12:19:14.335Z</time>
      </trkpt>
      <trkpt lat="47.86261" lon="-2.51434">
        <ele>88</ele>
        <time>2023-07-22T12:19:15.335Z</time>
      </trkpt>
      <trkpt lat="47.86262" lon="-2.51431">
        <ele>88</ele>
        <time>2023-07-22T12:19:16.335Z</time>
      </trkpt>
      <trkpt lat="47.86262" lon="-2.5143">
        <ele>88</ele>
        <time>2023-07-22T12:19:17.335Z</time>
      </trkpt>
      <trkpt lat="47.86263" lon="-2.51428">
        <ele>88</ele>
        <time>2023-07-22T12:19:18.335Z</time>
      </trkpt>
      <trkpt lat="47.86263" lon="-2.51426">
        <ele>88</ele>
        <time>2023-07-22T12:19:19.336Z</time>
      </trkpt>
      <trkpt lat="47.86263" lon="-2.51425">
        <ele>88</ele>
        <time>2023-07-22T12:19:20.335Z</time>
      </trkpt>
      <trkpt lat="47.86263" lon="-2.51424">
        <ele>89</ele>
        <time>2023-07-22T12:19:21.336Z</time>
      </trkpt>
      <trkpt lat="47.86263" lon="-2.51423">
        <ele>89</ele>
        <time>2023-07-22T12:19:22.335Z</time>
      </trkpt>
      <trkpt lat="47.86263" lon="-2.51421">
        <ele>89</ele>
        <time>2023-07-22T12:19:23.335Z</time>
      </trkpt>
      <trkpt lat="47.86262" lon="-2.5142">
        <ele>89</ele>
        <time>2023-07-22T12:19:24.336Z</time>
      </trkpt>
      <trkpt lat="47.86262" lon="-2.51419">
        <ele>89</ele>
        <time>2023-07-22T12:19:25.336Z</time>
      </trkpt>
      <trkpt lat="47.86261" lon="-2.51418">
        <ele>89</ele>
        <time>2023-07-22T12:19:26.336Z</time>
      </trkpt>
      <trkpt lat="47.86261" lon="-2.51418">
        <ele>89</ele>
        <time>2023-07-22T12:19:27.336Z</time>
      </trkpt>
      <trkpt lat="47.86261" lon="-2.51418">
        <ele>89</ele>
        <time>2023-07-22T12:19:28.336Z</time>
      </trkpt>
      <trkpt lat="47.86262" lon="-2.51416">
        <ele>87</ele>
        <time>2023-07-22T12:19:47.461Z</time>
      </trkpt>
      <trkpt lat="47.86262" lon="-2.51416">
        <ele>87</ele>
        <time>2023-07-22T12:19:48.461Z</time>
      </trkpt>
      <trkpt lat="47.86262" lon="-2.51416">
        <ele>87</ele>
        <time>2023-07-22T12:19:49.461Z</time>
      </trkpt>
      <trkpt lat="47.86061" lon="-2.50844">
        <ele>92</ele>
        <time>2023-07-22T12:31:47.495Z</time>
      </trkpt>
      <trkpt lat="47.86061" lon="-2.50843">
        <ele>92</ele>
        <time>2023-07-22T12:31:48.496Z</time>
      </trkpt>
      <trkpt lat="47.8606" lon="-2.50842">
        <ele>92</ele>
        <time>2023-07-22T12:31:49.495Z</time>
      </trkpt>
      <trkpt lat="47.8606" lon="-2.5084">
        <ele>92</ele>
        <time>2023-07-22T12:31:50.496Z</time>
      </trkpt>
      <trkpt lat="47.86059" lon="-2.50839">
        <ele>92</ele>
        <time>2023-07-22T12:31:51.495Z</time>
      </trkpt>
      <trkpt lat="47.86059" lon="-2.50838">
        <ele>92</ele>
        <time>2023-07-22T12:31:52.496Z</time>
      </trkpt>
      <trkpt lat="47.86059" lon="-2.50836">
        <ele>91</ele>
        <time>2023-07-22T12:31:53.496Z</time>
      </trkpt>
      <trkpt lat="47.86059" lon="-2.50835">
        <ele>91</ele>
        <time>2023-07-22T12:31:54.495Z</time>
      </trkpt>
      <trkpt lat="47.86058" lon="-2.50833">
        <ele>91</ele>
        <time>2023-07-22T12:31:55.496Z</time>
      </trkpt>
      <trkpt lat="47.86058" lon="-2.50832">
        <ele>91</ele>
        <time>2023-07-22T12:31:56.495Z</time>
      </trkpt>
      <trkpt lat="47.86059" lon="-2.50831">
        <ele>91</ele>
        <time>2023-07-22T12:31:57.496Z</time>
      </trkpt>
      <trkpt lat="47.86059" lon="-2.5083">
        <ele>90</ele>
        <time>2023-07-22T12:31:58.495Z</time>
      </trkpt>
      <trkpt lat="47.86059" lon="-2.50829">
        <ele>90</ele>
        <time>2023-07-22T12:31:59.495Z</time>
      </trkpt>
      <trkpt lat="47.86059" lon="-2.50827">
        <ele>90</ele>
        <time>2023-07-22T12:32:00.496Z</time>
      </trkpt>
      <trkpt lat="47.86059" lon="-2.50827">
        <ele>90</ele>
        <time>2023-07-22T12:32:01.496Z</time>
      </trkpt>
      <trkpt lat="47.86059" lon="-2.50825">
        <ele>90</ele>
        <time>2023-07-22T12:32:02.495Z</time>
      </trkpt>
      <trkpt lat="47.86059" lon="-2.50823">
        <ele>90</ele>
        <time>2023-07-22T12:32:03.496Z</time>
      </trkpt>
      <trkpt lat="47.86059" lon="-2.5082">
        <ele>90</ele>
        <time>2023-07-22T12:32:04.495Z</time>
      </trkpt>
      <trkpt lat="47.8606" lon="-2.50819">
        <ele>90</ele>
        <time>2023-07-22T12:32:05.495Z</time>
      </trkpt>
      <trkpt lat="47.86061" lon="-2.50818">
        <ele>90</ele>
        <time>2023-07-22T12:32:06.496Z</time>
      </trkpt>
      <trkpt lat="47.86062" lon="-2.50818">
        <ele>89</ele>
        <time>2023-07-22T12:32:07.495Z</time>
      </trkpt>
      <trkpt lat="47.86062" lon="-2.50817">
        <ele>89</ele>
        <time>2023-07-22T12:32:08.496Z</time>
      </trkpt>
      <trkpt lat="47.86061" lon="-2.50816">
        <ele>89</ele>
        <time>2023-07-22T12:32:09.495Z</time>
      </trkpt>
      <trkpt lat="47.8606" lon="-2.50814">
        <ele>89</ele>
        <time>2023-07-22T12:32:10.496Z</time>
      </trkpt>
      <trkpt lat="47.8606" lon="-2.50813">
        <ele>89</ele>
        <time>2023-07-22T12:32:11.496Z</time>
      </trkpt>
      <trkpt lat="47.8606" lon="-2.50812">
        <ele>89</ele>
        <time>2023-07-22T12:32:12.496Z</time>
      </trkpt>
      <trkpt lat="47.8606" lon="-2.50811">
        <ele>89</ele>
        <time>2023-07-22T12:32:13.495Z</time>
      </trkpt>
      <trkpt lat="47.86059" lon="-2.50809">
        <ele>89</ele>
        <time>2023-07-22T12:32:14.496Z</time>
      </trkpt>
      <trkpt lat="47.86059" lon="-2.50808">
        <ele>88</ele>
        <time>2023-07-22T12:32:15.496Z</time>
      </trkpt>
      <trkpt lat="47.86059" lon="-2.50806">
        <ele>88</ele>
        <time>2023-07-22T12:32:16.496Z</time>
      </trkpt>
      <trkpt lat="47.86059" lon="-2.50805">
        <ele>88</ele>
        <time>2023-07-22T12:32:17.496Z</time>
      </trkpt>
      <trkpt lat="47.86059" lon="-2.50803">
        <ele>89</ele>
        <time>2023-07-22T12:32:18.495Z</time>
      </trkpt>
      <trkpt lat="47.86058" lon="-2.50802">
        <ele>89</ele>
        <time>2023-07-22T12:32:19.496Z</time>
      </trkpt>
      <trkpt lat="47.86058" lon="-2.508">
        <ele>89</ele>
        <time>2023-07-22T12:32:20.495Z</time>
      </trkpt>
      <trkpt lat="47.86058" lon="-2.50798">
        <ele>89</ele>
        <time>2023-07-22T12:32:21.496Z</time>
      </trkpt>
      <trkpt lat="47.86058" lon="-2.50797">
        <ele>89</ele>
        <time>2023-07-22T12:32:22.495Z</time>
      </trkpt>
      <trkpt lat="47.86057" lon="-2.50795">
        <ele>89</ele>
        <time>2023-07-22T12:32:23.496Z</time>
      </trkpt>
      <trkpt lat="47.86057" lon="-2.50794">
        <ele>88</ele>
        <time>2023-07-22T12:32:24.496Z</time>
      </trkpt>
      <trkpt lat="47.86057" lon="-2.50792">
        <ele>88</ele>
        <time>2023-07-22T12:32:25.495Z</time>
      </trkpt>
      <trkpt lat="47.86057" lon="-2.50791">
        <ele>87</ele>
        <time>2023-07-22T12:32:26.495Z</time>
      </trkpt>
      <trkpt lat="47.86057" lon="-2.50789">
        <ele>86</ele>
        <time>2023-07-22T12:32:27.496Z</time>
      </trkpt>
      <trkpt lat="47.86056" lon="-2.50788">
        <ele>86</ele>
        <time>2023-07-22T12:32:28.495Z</time>
      </trkpt>
      <trkpt lat="47.86056" lon="-2.50788">
        <ele>86</ele>
        <time>2023-07-22T12:32:29.495Z</time>
      </trkpt>
      <trkpt lat="47.86056" lon="-2.50788">
        <ele>85</ele>
        <time>2023-07-22T12:32:30.495Z</time>
      </trkpt>
      <trkpt lat="47.86055" lon="-2.50784">
        <ele>83</ele>
        <time>2023-07-22T12:32:38.756Z</time>
      </trkpt>
      <trkpt lat="47.86055" lon="-2.50784">
        <ele>83</ele>
        <time>2023-07-22T12:32:39.756Z</time>
      </trkpt>
      <trkpt lat="47.86054" lon="-2.50783">
        <ele>83</ele>
        <time>2023-07-22T12:32:40.756Z</time>
      </trkpt>
      <trkpt lat="47.86054" lon="-2.50781">
        <ele>83</ele>
        <time>2023-07-22T12:32:41.756Z</time>
      </trkpt>
      <trkpt lat="47.86053" lon="-2.50781">
        <ele>83</ele>
        <time>2023-07-22T12:32:42.756Z</time>
      </trkpt>
      <trkpt lat="47.86052" lon="-2.5078">
        <ele>83</ele>
        <time>2023-07-22T12:32:43.756Z</time>
      </trkpt>
      <trkpt lat="47.8605" lon="-2.5078">
        <ele>83</ele>
        <time>2023-07-22T12:32:44.756Z</time>
      </trkpt>
      <trkpt lat="47.86049" lon="-2.5078">
        <ele>83</ele>
        <time>2023-07-22T12:32:45.756Z</time>
      </trkpt>
      <trkpt lat="47.86049" lon="-2.50779">
        <ele>83</ele>
        <time>2023-07-22T12:32:46.756Z</time>
      </trkpt>
      <trkpt lat="47.86048" lon="-2.50778">
        <ele>83</ele>
        <time>2023-07-22T12:32:47.756Z</time>
      </trkpt>
      <trkpt lat="47.86047" lon="-2.50777">
        <ele>83</ele>
        <time>2023-07-22T12:32:48.756Z</time>
      </trkpt>
      <trkpt lat="47.86046" lon="-2.50775">
        <ele>83</ele>
        <time>2023-07-22T12:32:49.756Z</time>
      </trkpt>
      <trkpt lat="47.86044" lon="-2.50774">
        <ele>82</ele>
        <time>2023-07-22T12:32:50.756Z</time>
      </trkpt>
      <trkpt lat="47.86043" lon="-2.50772">
        <ele>82</ele>
        <time>2023-07-22T12:32:51.756Z</time>
      </trkpt>
      <trkpt lat="47.86043" lon="-2.50771">
        <ele>82</ele>
        <time>2023-07-22T12:32:52.756Z</time>
      </trkpt>
      <trkpt lat="47.86042" lon="-2.50771">
        <ele>82</ele>
        <time>2023-07-22T12:32:53.756Z</time>
      </trkpt>
      <trkpt lat="47.86042" lon="-2.50771">
        <ele>82</ele>
        <time>2023-07-22T12:32:54.756Z</time>
      </trkpt>
      <trkpt lat="47.86041" lon="-2.5077">
        <ele>82</ele>
        <time>2023-07-22T12:32:55.756Z</time>
      </trkpt>
      <trkpt lat="47.8604" lon="-2.5077">
        <ele>82</ele>
        <time>2023-07-22T12:32:56.756Z</time>
      </trkpt>
      <trkpt lat="47.86038" lon="-2.50769">
        <ele>82</ele>
        <time>2023-07-22T12:32:57.756Z</time>
      </trkpt>
      <trkpt lat="47.86037" lon="-2.50769">
        <ele>82</ele>
        <time>2023-07-22T12:32:58.756Z</time>
      </trkpt>
      <trkpt lat="47.86035" lon="-2.50768">
        <ele>82</ele>
        <time>2023-07-22T12:32:59.756Z</time>
      </trkpt>
      <trkpt lat="47.86034" lon="-2.50766">
        <ele>82</ele>
        <time>2023-07-22T12:33:00.756Z</time>
      </trkpt>
      <trkpt lat="47.86033" lon="-2.50765">
        <ele>81</ele>
        <time>2023-07-22T12:33:01.756Z</time>
      </trkpt>
      <trkpt lat="47.86032" lon="-2.50763">
        <ele>81</ele>
        <time>2023-07-22T12:33:02.756Z</time>
      </trkpt>
      <trkpt lat="47.86032" lon="-2.50761">
        <ele>81</ele>
        <time>2023-07-22T12:33:03.756Z</time>
      </trkpt>
      <trkpt lat="47.86031" lon="-2.5076">
        <ele>80</ele>
        <time>2023-07-22T12:33:04.756Z</time>
      </trkpt>
      <trkpt lat="47.8603" lon="-2.50758">
        <ele>80</ele>
        <time>2023-07-22T12:33:05.756Z</time>
      </trkpt>
      <trkpt lat="47.8603" lon="-2.50757">
        <ele>80</ele>
        <time>2023-07-22T12:33:06.756Z</time>
      </trkpt>
      <trkpt lat="47.86028" lon="-2.50755">
        <ele>80</ele>
        <time>2023-07-22T12:33:07.756Z</time>
      </trkpt>
      <trkpt lat="47.86027" lon="-2.50754">
        <ele>80</ele>
        <time>2023-07-22T12:33:08.756Z</time>
      </trkpt>
      <trkpt lat="47.86026" lon="-2.50753">
        <ele>80</ele>
        <time>2023-07-22T12:33:09.756Z</time>
      </trkpt>
      <trkpt lat="47.86025" lon="-2.50751">
        <ele>80</ele>
        <time>2023-07-22T12:33:10.756Z</time>
      </trkpt>
      <trkpt lat="47.86024" lon="-2.50749">
        <ele>79</ele>
        <time>2023-07-22T12:33:11.756Z</time>
      </trkpt>
      <trkpt lat="47.86023" lon="-2.50748">
        <ele>79</ele>
        <time>2023-07-22T12:33:12.756Z</time>
      </trkpt>
      <trkpt lat="47.86022" lon="-2.50745">
        <ele>79</ele>
        <time>2023-07-22T12:33:13.756Z</time>
      </trkpt>
      <trkpt lat="47.86022" lon="-2.50743">
        <ele>79</ele>
        <time>2023-07-22T12:33:14.756Z</time>
      </trkpt>
      <trkpt lat="47.86021" lon="-2.50742">
        <ele>78</ele>
        <time>2023-07-22T12:33:15.756Z</time>
      </trkpt>
      <trkpt lat="47.8602" lon="-2.50741">
        <ele>78</ele>
        <time>2023-07-22T12:33:16.756Z</time>
      </trkpt>
      <trkpt lat="47.8602" lon="-2.5074">
        <ele>78</ele>
        <time>2023-07-22T12:33:17.756Z</time>
      </trkpt>
      <trkpt lat="47.8602" lon="-2.50738">
        <ele>77</ele>
        <time>2023-07-22T12:33:18.756Z</time>
      </trkpt>
      <trkpt lat="47.8602" lon="-2.50736">
        <ele>77</ele>
        <time>2023-07-22T12:33:19.756Z</time>
      </trkpt>
      <trkpt lat="47.86019" lon="-2.50734">
        <ele>77</ele>
        <time>2023-07-22T12:33:20.756Z</time>
      </trkpt>
      <trkpt lat="47.86018" lon="-2.50733">
        <ele>77</ele>
        <time>2023-07-22T12:33:21.756Z</time>
      </trkpt>
      <trkpt lat="47.86018" lon="-2.50733">
        <ele>77</ele>
        <time>2023-07-22T12:33:22.756Z</time>
      </trkpt>
      <trkpt lat="47.86018" lon="-2.50732">
        <ele>77</ele>
        <time>2023-07-22T12:33:23.756Z</time>
      </trkpt>
      <trkpt lat="47.86018" lon="-2.50731">
        <ele>77</ele>
        <time>2023-07-22T12:33:24.756Z</time>
      </trkpt>
      <trkpt lat="47.86017" lon="-2.5073">
        <ele>77</ele>
        <time>2023-07-22T12:33:25.756Z</time>
      </trkpt>
      <trkpt lat="47.86015" lon="-2.50729">
        <ele>76</ele>
        <time>2023-07-22T12:33:26.756Z</time>
      </trkpt>
      <trkpt lat="47.86015" lon="-2.50728">
        <ele>76</ele>
        <time>2023-07-22T12:33:27.756Z</time>
      </trkpt>
      <trkpt lat="47.86015" lon="-2.50727">
        <ele>76</ele>
        <time>2023-07-22T12:33:28.756Z</time>
      </trkpt>
      <trkpt lat="47.86015" lon="-2.50726">
        <ele>76</ele>
        <time>2023-07-22T12:33:29.756Z</time>
      </trkpt>
      <trkpt lat="47.86014" lon="-2.50725">
        <ele>76</ele>
        <time>2023-07-22T12:33:30.756Z</time>
      </trkpt>
      <trkpt lat="47.86013" lon="-2.50725">
        <ele>76</ele>
        <time>2023-07-22T12:33:31.756Z</time>
      </trkpt>
      <trkpt lat="47.86012" lon="-2.50724">
        <ele>76</ele>
        <time>2023-07-22T12:33:32.756Z</time>
      </trkpt>
      <trkpt lat="47.86011" lon="-2.50724">
        <ele>76</ele>
        <time>2023-07-22T12:33:33.756Z</time>
      </trkpt>
      <trkpt lat="47.86011" lon="-2.50723">
        <ele>77</ele>
        <time>2023-07-22T12:33:34.756Z</time>
      </trkpt>
      <trkpt lat="47.86009" lon="-2.50723">
        <ele>76</ele>
        <time>2023-07-22T12:33:35.756Z</time>
      </trkpt>
      <trkpt lat="47.86007" lon="-2.50723">
        <ele>76</ele>
        <time>2023-07-22T12:33:36.756Z</time>
      </trkpt>
      <trkpt lat="47.86005" lon="-2.50722">
        <ele>75</ele>
        <time>2023-07-22T12:33:37.756Z</time>
      </trkpt>
      <trkpt lat="47.86004" lon="-2.50721">
        <ele>75</ele>
        <time>2023-07-22T12:33:38.756Z</time>
      </trkpt>
      <trkpt lat="47.86003" lon="-2.50721">
        <ele>74</ele>
        <time>2023-07-22T12:33:39.756Z</time>
      </trkpt>
      <trkpt lat="47.86003" lon="-2.5072">
        <ele>74</ele>
        <time>2023-07-22T12:33:40.756Z</time>
      </trkpt>
      <trkpt lat="47.86003" lon="-2.50718">
        <ele>73</ele>
        <time>2023-07-22T12:33:41.756Z</time>
      </trkpt>
      <trkpt lat="47.86002" lon="-2.50718">
        <ele>73</ele>
        <time>2023-07-22T12:33:42.756Z</time>
      </trkpt>
      <trkpt lat="47.86001" lon="-2.50717">
        <ele>72</ele>
        <time>2023-07-22T12:33:43.756Z</time>
      </trkpt>
      <trkpt lat="47.86001" lon="-2.50716">
        <ele>72</ele>
        <time>2023-07-22T12:33:44.756Z</time>
      </trkpt>
      <trkpt lat="47.86" lon="-2.50714">
        <ele>72</ele>
        <time>2023-07-22T12:33:45.756Z</time>
      </trkpt>
      <trkpt lat="47.86" lon="-2.50713">
        <ele>71</ele>
        <time>2023-07-22T12:33:46.756Z</time>
      </trkpt>
      <trkpt lat="47.85999" lon="-2.50712">
        <ele>71</ele>
        <time>2023-07-22T12:33:47.756Z</time>
      </trkpt>
      <trkpt lat="47.85998" lon="-2.5071">
        <ele>71</ele>
        <time>2023-07-22T12:33:48.756Z</time>
      </trkpt>
      <trkpt lat="47.85997" lon="-2.50709">
        <ele>71</ele>
        <time>2023-07-22T12:33:49.756Z</time>
      </trkpt>
      <trkpt lat="47.85996" lon="-2.50708">
        <ele>71</ele>
        <time>2023-07-22T12:33:50.756Z</time>
      </trkpt>
      <trkpt lat="47.85996" lon="-2.50706">
        <ele>71</ele>
        <time>2023-07-22T12:33:51.756Z</time>
      </trkpt>
      <trkpt lat="47.85995" lon="-2.50705">
        <ele>71</ele>
        <time>2023-07-22T12:33:52.756Z</time>
      </trkpt>
      <trkpt lat="47.85995" lon="-2.50704">
        <ele>71</ele>
        <time>2023-07-22T12:33:53.756Z</time>
      </trkpt>
      <trkpt lat="47.85994" lon="-2.50702">
        <ele>70</ele>
        <time>2023-07-22T12:33:54.756Z</time>
      </trkpt>
      <trkpt lat="47.85993" lon="-2.50701">
        <ele>70</ele>
        <time>2023-07-22T12:33:55.756Z</time>
      </trkpt>
      <trkpt lat="47.85993" lon="-2.507">
        <ele>70</ele>
        <time>2023-07-22T12:33:56.756Z</time>
      </trkpt>
      <trkpt lat="47.85992" lon="-2.507">
        <ele>69</ele>
        <time>2023-07-22T12:33:57.756Z</time>
      </trkpt>
      <trkpt lat="47.85991" lon="-2.50699">
        <ele>69</ele>
        <time>2023-07-22T12:33:58.756Z</time>
      </trkpt>
      <trkpt lat="47.8599" lon="-2.50698">
        <ele>69</ele>
        <time>2023-07-22T12:33:59.756Z</time>
      </trkpt>
      <trkpt lat="47.8599" lon="-2.50696">
        <ele>69</ele>
        <time>2023-07-22T12:34:00.756Z</time>
      </trkpt>
      <trkpt lat="47.85989" lon="-2.50695">
        <ele>69</ele>
        <time>2023-07-22T12:34:01.756Z</time>
      </trkpt>
      <trkpt lat="47.85988" lon="-2.50692">
        <ele>69</ele>
        <time>2023-07-22T12:34:02.756Z</time>
      </trkpt>
      <trkpt lat="47.85987" lon="-2.50691">
        <ele>68</ele>
        <time>2023-07-22T12:34:03.756Z</time>
      </trkpt>
      <trkpt lat="47.85987" lon="-2.50689">
        <ele>69</ele>
        <time>2023-07-22T12:34:04.756Z</time>
      </trkpt>
      <trkpt lat="47.85987" lon="-2.50687">
        <ele>69</ele>
        <time>2023-07-22T12:34:05.756Z</time>
      </trkpt>
      <trkpt lat="47.85987" lon="-2.50684">
        <ele>69</ele>
        <time>2023-07-22T12:34:06.756Z</time>
      </trkpt>
      <trkpt lat="47.85986" lon="-2.50682">
        <ele>69</ele>
        <time>2023-07-22T12:34:07.756Z</time>
      </trkpt>
      <trkpt lat="47.85986" lon="-2.50679">
        <ele>69</ele>
        <time>2023-07-22T12:34:08.756Z</time>
      </trkpt>
      <trkpt lat="47.85985" lon="-2.50677">
        <ele>69</ele>
        <time>2023-07-22T12:34:09.756Z</time>
      </trkpt>
      <trkpt lat="47.85985" lon="-2.50676">
        <ele>69</ele>
        <time>2023-07-22T12:34:10.756Z</time>
      </trkpt>
      <trkpt lat="47.85984" lon="-2.50675">
        <ele>69</ele>
        <time>2023-07-22T12:34:11.756Z</time>
      </trkpt>
      <trkpt lat="47.85984" lon="-2.50673">
        <ele>69</ele>
        <time>2023-07-22T12:34:12.756Z</time>
      </trkpt>
      <trkpt lat="47.85983" lon="-2.50671">
        <ele>69</ele>
        <time>2023-07-22T12:34:13.756Z</time>
      </trkpt>
      <trkpt lat="47.85982" lon="-2.50669">
        <ele>69</ele>
        <time>2023-07-22T12:34:14.756Z</time>
      </trkpt>
      <trkpt lat="47.85982" lon="-2.50667">
        <ele>68</ele>
        <time>2023-07-22T12:34:15.756Z</time>
      </trkpt>
      <trkpt lat="47.85981" lon="-2.50665">
        <ele>68</ele>
        <time>2023-07-22T12:34:16.756Z</time>
      </trkpt>
      <trkpt lat="47.8598" lon="-2.50664">
        <ele>68</ele>
        <time>2023-07-22T12:34:17.756Z</time>
      </trkpt>
      <trkpt lat="47.85979" lon="-2.50663">
        <ele>67</ele>
        <time>2023-07-22T12:34:18.756Z</time>
      </trkpt>
      <trkpt lat="47.85978" lon="-2.50661">
        <ele>67</ele>
        <time>2023-07-22T12:34:19.756Z</time>
      </trkpt>
      <trkpt lat="47.85977" lon="-2.5066">
        <ele>66</ele>
        <time>2023-07-22T12:34:20.756Z</time>
      </trkpt>
      <trkpt lat="47.85976" lon="-2.50659">
        <ele>66</ele>
        <time>2023-07-22T12:34:21.756Z</time>
      </trkpt>
      <trkpt lat="47.85976" lon="-2.50658">
        <ele>65</ele>
        <time>2023-07-22T12:34:22.756Z</time>
      </trkpt>
      <trkpt lat="47.85975" lon="-2.50657">
        <ele>65</ele>
        <time>2023-07-22T12:34:23.756Z</time>
      </trkpt>
      <trkpt lat="47.85975" lon="-2.50655">
        <ele>65</ele>
        <time>2023-07-22T12:34:24.756Z</time>
      </trkpt>
      <trkpt lat="47.85974" lon="-2.50654">
        <ele>64</ele>
        <time>2023-07-22T12:34:25.756Z</time>
      </trkpt>
      <trkpt lat="47.85974" lon="-2.50652">
        <ele>64</ele>
        <time>2023-07-22T12:34:26.756Z</time>
      </trkpt>
      <trkpt lat="47.85974" lon="-2.5065">
        <ele>64</ele>
        <time>2023-07-22T12:34:27.756Z</time>
      </trkpt>
      <trkpt lat="47.85973" lon="-2.50649">
        <ele>64</ele>
        <time>2023-07-22T12:34:28.756Z</time>
      </trkpt>
      <trkpt lat="47.85973" lon="-2.50648">
        <ele>64</ele>
        <time>2023-07-22T12:34:29.756Z</time>
      </trkpt>
      <trkpt lat="47.85973" lon="-2.50647">
        <ele>64</ele>
        <time>2023-07-22T12:34:30.756Z</time>
      </trkpt>
      <trkpt lat="47.85974" lon="-2.50646">
        <ele>64</ele>
        <time>2023-07-22T12:34:31.756Z</time>
      </trkpt>
      <trkpt lat="47.85974" lon="-2.50645">
        <ele>65</ele>
        <time>2023-07-22T12:34:32.756Z</time>
      </trkpt>
      <trkpt lat="47.85974" lon="-2.50644">
        <ele>65</ele>
        <time>2023-07-22T12:34:33.756Z</time>
      </trkpt>
      <trkpt lat="47.85975" lon="-2.50644">
        <ele>66</ele>
        <time>2023-07-22T12:34:34.756Z</time>
      </trkpt>
      <trkpt lat="47.85976" lon="-2.50643">
        <ele>66</ele>
        <time>2023-07-22T12:34:35.756Z</time>
      </trkpt>
      <trkpt lat="47.85978" lon="-2.50642">
        <ele>67</ele>
        <time>2023-07-22T12:34:36.756Z</time>
      </trkpt>
      <trkpt lat="47.85979" lon="-2.50641">
        <ele>67</ele>
        <time>2023-07-22T12:34:37.756Z</time>
      </trkpt>
      <trkpt lat="47.8598" lon="-2.5064">
        <ele>68</ele>
        <time>2023-07-22T12:34:38.756Z</time>
      </trkpt>
      <trkpt lat="47.85981" lon="-2.50639">
        <ele>68</ele>
        <time>2023-07-22T12:34:39.756Z</time>
      </trkpt>
      <trkpt lat="47.85981" lon="-2.50638">
        <ele>69</ele>
        <time>2023-07-22T12:34:40.756Z</time>
      </trkpt>
      <trkpt lat="47.85982" lon="-2.50637">
        <ele>69</ele>
        <time>2023-07-22T12:34:41.756Z</time>
      </trkpt>
      <trkpt lat="47.85983" lon="-2.50636">
        <ele>70</ele>
        <time>2023-07-22T12:34:42.756Z</time>
      </trkpt>
      <trkpt lat="47.85983" lon="-2.50636">
        <ele>70</ele>
        <time>2023-07-22T12:34:43.756Z</time>
      </trkpt>
      <trkpt lat="47.85983" lon="-2.50636">
        <ele>71</ele>
        <time>2023-07-22T12:34:44.756Z</time>
      </trkpt>
      <trkpt lat="47.85983" lon="-2.50635">
        <ele>71</ele>
        <time>2023-07-22T12:34:45.756Z</time>
      </trkpt>
      <trkpt lat="47.85984" lon="-2.50635">
        <ele>71</ele>
        <time>2023-07-22T12:34:46.756Z</time>
      </trkpt>
      <trkpt lat="47.85984" lon="-2.50635">
        <ele>71</ele>
        <time>2023-07-22T12:34:47.756Z</time>
      </trkpt>
      <trkpt lat="47.85984" lon="-2.50636">
        <ele>72</ele>
        <time>2023-07-22T12:34:48.756Z</time>
      </trkpt>
      <trkpt lat="47.85984" lon="-2.50637">
        <ele>72</ele>
        <time>2023-07-22T12:34:49.756Z</time>
      </trkpt>
      <trkpt lat="47.85987" lon="-2.50636">
        <ele>73</ele>
        <time>2023-07-22T12:34:50.756Z</time>
      </trkpt>
      <trkpt lat="47.8599" lon="-2.50634">
        <ele>73</ele>
        <time>2023-07-22T12:34:51.756Z</time>
      </trkpt>
      <trkpt lat="47.85992" lon="-2.50632">
        <ele>73</ele>
        <time>2023-07-22T12:34:52.756Z</time>
      </trkpt>
      <trkpt lat="47.85994" lon="-2.5063">
        <ele>74</ele>
        <time>2023-07-22T12:34:53.756Z</time>
      </trkpt>
      <trkpt lat="47.85994" lon="-2.50628">
        <ele>74</ele>
        <time>2023-07-22T12:34:54.756Z</time>
      </trkpt>
      <trkpt lat="47.85995" lon="-2.50626">
        <ele>74</ele>
        <time>2023-07-22T12:34:55.756Z</time>
      </trkpt>
      <trkpt lat="47.85995" lon="-2.50625">
        <ele>74</ele>
        <time>2023-07-22T12:34:56.756Z</time>
      </trkpt>
      <trkpt lat="47.85995" lon="-2.50623">
        <ele>74</ele>
        <time>2023-07-22T12:34:57.756Z</time>
      </trkpt>
      <trkpt lat="47.85995" lon="-2.50622">
        <ele>74</ele>
        <time>2023-07-22T12:34:58.756Z</time>
      </trkpt>
      <trkpt lat="47.85995" lon="-2.50621">
        <ele>75</ele>
        <time>2023-07-22T12:34:59.756Z</time>
      </trkpt>
      <trkpt lat="47.85994" lon="-2.50619">
        <ele>74</ele>
        <time>2023-07-22T12:35:00.756Z</time>
      </trkpt>
      <trkpt lat="47.85993" lon="-2.50619">
        <ele>74</ele>
        <time>2023-07-22T12:35:01.756Z</time>
      </trkpt>
      <trkpt lat="47.85992" lon="-2.50618">
        <ele>74</ele>
        <time>2023-07-22T12:35:02.756Z</time>
      </trkpt>
      <trkpt lat="47.85991" lon="-2.50617">
        <ele>74</ele>
        <time>2023-07-22T12:35:03.756Z</time>
      </trkpt>
      <trkpt lat="47.8599" lon="-2.50616">
        <ele>74</ele>
        <time>2023-07-22T12:35:04.756Z</time>
      </trkpt>
      <trkpt lat="47.8599" lon="-2.50614">
        <ele>74</ele>
        <time>2023-07-22T12:35:05.756Z</time>
      </trkpt>
      <trkpt lat="47.85989" lon="-2.50612">
        <ele>74</ele>
        <time>2023-07-22T12:35:06.756Z</time>
      </trkpt>
      <trkpt lat="47.85989" lon="-2.50611">
        <ele>73</ele>
        <time>2023-07-22T12:35:07.756Z</time>
      </trkpt>
      <trkpt lat="47.85988" lon="-2.50609">
        <ele>73</ele>
        <time>2023-07-22T12:35:08.756Z</time>
      </trkpt>
      <trkpt lat="47.85987" lon="-2.50607">
        <ele>73</ele>
        <time>2023-07-22T12:35:09.756Z</time>
      </trkpt>
      <trkpt lat="47.85987" lon="-2.50605">
        <ele>73</ele>
        <time>2023-07-22T12:35:10.756Z</time>
      </trkpt>
      <trkpt lat="47.85987" lon="-2.50603">
        <ele>73</ele>
        <time>2023-07-22T12:35:11.756Z</time>
      </trkpt>
      <trkpt lat="47.85987" lon="-2.50602">
        <ele>73</ele>
        <time>2023-07-22T12:35:12.756Z</time>
      </trkpt>
      <trkpt lat="47.85987" lon="-2.50599">
        <ele>73</ele>
        <time>2023-07-22T12:35:13.756Z</time>
      </trkpt>
      <trkpt lat="47.85987" lon="-2.50597">
        <ele>73</ele>
        <time>2023-07-22T12:35:14.756Z</time>
      </trkpt>
      <trkpt lat="47.85986" lon="-2.50595">
        <ele>73</ele>
        <time>2023-07-22T12:35:15.756Z</time>
      </trkpt>
      <trkpt lat="47.85986" lon="-2.50592">
        <ele>73</ele>
        <time>2023-07-22T12:35:16.756Z</time>
      </trkpt>
      <trkpt lat="47.85986" lon="-2.5059">
        <ele>73</ele>
        <time>2023-07-22T12:35:17.756Z</time>
      </trkpt>
      <trkpt lat="47.85985" lon="-2.50588">
        <ele>73</ele>
        <time>2023-07-22T12:35:18.756Z</time>
      </trkpt>
      <trkpt lat="47.85984" lon="-2.50585">
        <ele>73</ele>
        <time>2023-07-22T12:35:19.756Z</time>
      </trkpt>
      <trkpt lat="47.85983" lon="-2.50583">
        <ele>73</ele>
        <time>2023-07-22T12:35:20.756Z</time>
      </trkpt>
      <trkpt lat="47.85983" lon="-2.50581">
        <ele>73</ele>
        <time>2023-07-22T12:35:21.756Z</time>
      </trkpt>
      <trkpt lat="47.85983" lon="-2.50579">
        <ele>73</ele>
        <time>2023-07-22T12:35:22.756Z</time>
      </trkpt>
      <trkpt lat="47.85983" lon="-2.50578">
        <ele>73</ele>
        <time>2023-07-22T12:35:23.756Z</time>
      </trkpt>
      <trkpt lat="47.85983" lon="-2.50576">
        <ele>73</ele>
        <time>2023-07-22T12:35:24.756Z</time>
      </trkpt>
      <trkpt lat="47.85983" lon="-2.50575">
        <ele>73</ele>
        <time>2023-07-22T12:35:25.756Z</time>
      </trkpt>
      <trkpt lat="47.85982" lon="-2.50574">
        <ele>73</ele>
        <time>2023-07-22T12:35:26.756Z</time>
      </trkpt>
      <trkpt lat="47.8598" lon="-2.50572">
        <ele>73</ele>
        <time>2023-07-22T12:35:27.756Z</time>
      </trkpt>
      <trkpt lat="47.85979" lon="-2.5057">
        <ele>72</ele>
        <time>2023-07-22T12:35:28.756Z</time>
      </trkpt>
      <trkpt lat="47.85978" lon="-2.50567">
        <ele>72</ele>
        <time>2023-07-22T12:35:29.756Z</time>
      </trkpt>
      <trkpt lat="47.85976" lon="-2.50563">
        <ele>72</ele>
        <time>2023-07-22T12:35:30.756Z</time>
      </trkpt>
      <trkpt lat="47.85975" lon="-2.5056">
        <ele>71</ele>
        <time>2023-07-22T12:35:31.756Z</time>
      </trkpt>
      <trkpt lat="47.85974" lon="-2.50557">
        <ele>71</ele>
        <time>2023-07-22T12:35:32.756Z</time>
      </trkpt>
      <trkpt lat="47.85975" lon="-2.50554">
        <ele>71</ele>
        <time>2023-07-22T12:35:33.756Z</time>
      </trkpt>
      <trkpt lat="47.85976" lon="-2.50552">
        <ele>71</ele>
        <time>2023-07-22T12:35:34.756Z</time>
      </trkpt>
      <trkpt lat="47.85975" lon="-2.50549">
        <ele>71</ele>
        <time>2023-07-22T12:35:35.756Z</time>
      </trkpt>
      <trkpt lat="47.85975" lon="-2.50547">
        <ele>71</ele>
        <time>2023-07-22T12:35:36.756Z</time>
      </trkpt>
      <trkpt lat="47.85973" lon="-2.50545">
        <ele>70</ele>
        <time>2023-07-22T12:35:37.756Z</time>
      </trkpt>
      <trkpt lat="47.85972" lon="-2.50542">
        <ele>70</ele>
        <time>2023-07-22T12:35:38.756Z</time>
      </trkpt>
      <trkpt lat="47.85972" lon="-2.5054">
        <ele>70</ele>
        <time>2023-07-22T12:35:39.756Z</time>
      </trkpt>
      <trkpt lat="47.85972" lon="-2.50539">
        <ele>70</ele>
        <time>2023-07-22T12:35:40.756Z</time>
      </trkpt>
      <trkpt lat="47.85968" lon="-2.50542">
        <ele>70</ele>
        <time>2023-07-22T12:35:41.756Z</time>
      </trkpt>
      <trkpt lat="47.85966" lon="-2.50543">
        <ele>71</ele>
        <time>2023-07-22T12:35:42.756Z</time>
      </trkpt>
      <trkpt lat="47.85966" lon="-2.50542">
        <ele>71</ele>
        <time>2023-07-22T12:35:43.756Z</time>
      </trkpt>
      <trkpt lat="47.85963" lon="-2.50543">
        <ele>71</ele>
        <time>2023-07-22T12:35:44.756Z</time>
      </trkpt>
      <trkpt lat="47.85962" lon="-2.50543">
        <ele>71</ele>
        <time>2023-07-22T12:35:45.756Z</time>
      </trkpt>
      <trkpt lat="47.85961" lon="-2.50543">
        <ele>71</ele>
        <time>2023-07-22T12:35:46.756Z</time>
      </trkpt>
      <trkpt lat="47.8596" lon="-2.50542">
        <ele>71</ele>
        <time>2023-07-22T12:35:47.756Z</time>
      </trkpt>
      <trkpt lat="47.85959" lon="-2.50542">
        <ele>71</ele>
        <time>2023-07-22T12:35:48.756Z</time>
      </trkpt>
      <trkpt lat="47.85958" lon="-2.50543">
        <ele>71</ele>
        <time>2023-07-22T12:35:49.756Z</time>
      </trkpt>
      <trkpt lat="47.85956" lon="-2.50545">
        <ele>71</ele>
        <time>2023-07-22T12:35:50.756Z</time>
      </trkpt>
      <trkpt lat="47.85955" lon="-2.50546">
        <ele>71</ele>
        <time>2023-07-22T12:35:51.756Z</time>
      </trkpt>
      <trkpt lat="47.85955" lon="-2.50546">
        <ele>71</ele>
        <time>2023-07-22T12:35:52.756Z</time>
      </trkpt>
      <trkpt lat="47.85955" lon="-2.50546">
        <ele>72</ele>
        <time>2023-07-22T12:35:53.756Z</time>
      </trkpt>
      <trkpt lat="47.85955" lon="-2.50545">
        <ele>72</ele>
        <time>2023-07-22T12:35:54.756Z</time>
      </trkpt>
      <trkpt lat="47.85955" lon="-2.50545">
        <ele>72</ele>
        <time>2023-07-22T12:35:55.756Z</time>
      </trkpt>
      <trkpt lat="47.85954" lon="-2.50546">
        <ele>72</ele>
        <time>2023-07-22T12:35:56.756Z</time>
      </trkpt>
      <trkpt lat="47.85953" lon="-2.50545">
        <ele>72</ele>
        <time>2023-07-22T12:35:57.756Z</time>
      </trkpt>
      <trkpt lat="47.85952" lon="-2.50545">
        <ele>72</ele>
        <time>2023-07-22T12:35:58.756Z</time>
      </trkpt>
      <trkpt lat="47.85952" lon="-2.50545">
        <ele>72</ele>
        <time>2023-07-22T12:35:59.756Z</time>
      </trkpt>
      <trkpt lat="47.85951" lon="-2.50544">
        <ele>73</ele>
        <time>2023-07-22T12:36:00.756Z</time>
      </trkpt>
      <trkpt lat="47.8595" lon="-2.50544">
        <ele>73</ele>
        <time>2023-07-22T12:36:01.756Z</time>
      </trkpt>
      <trkpt lat="47.85948" lon="-2.50545">
        <ele>73</ele>
        <time>2023-07-22T12:36:02.756Z</time>
      </trkpt>
      <trkpt lat="47.85947" lon="-2.50545">
        <ele>73</ele>
        <time>2023-07-22T12:36:03.756Z</time>
      </trkpt>
      <trkpt lat="47.85947" lon="-2.50546">
        <ele>73</ele>
        <time>2023-07-22T12:36:04.756Z</time>
      </trkpt>
      <trkpt lat="47.85946" lon="-2.50546">
        <ele>73</ele>
        <time>2023-07-22T12:36:05.756Z</time>
      </trkpt>
      <trkpt lat="47.85945" lon="-2.50545">
        <ele>73</ele>
        <time>2023-07-22T12:36:06.756Z</time>
      </trkpt>
      <trkpt lat="47.85944" lon="-2.50545">
        <ele>74</ele>
        <time>2023-07-22T12:36:07.756Z</time>
      </trkpt>
      <trkpt lat="47.85943" lon="-2.50546">
        <ele>74</ele>
        <time>2023-07-22T12:36:08.756Z</time>
      </trkpt>
      <trkpt lat="47.85942" lon="-2.50546">
        <ele>75</ele>
        <time>2023-07-22T12:36:09.756Z</time>
      </trkpt>
      <trkpt lat="47.85941" lon="-2.50546">
        <ele>75</ele>
        <time>2023-07-22T12:36:10.756Z</time>
      </trkpt>
      <trkpt lat="47.8594" lon="-2.50545">
        <ele>75</ele>
        <time>2023-07-22T12:36:11.756Z</time>
      </trkpt>
      <trkpt lat="47.85939" lon="-2.50544">
        <ele>76</ele>
        <time>2023-07-22T12:36:12.756Z</time>
      </trkpt>
      <trkpt lat="47.85937" lon="-2.50545">
        <ele>76</ele>
        <time>2023-07-22T12:36:13.756Z</time>
      </trkpt>
      <trkpt lat="47.85936" lon="-2.50545">
        <ele>76</ele>
        <time>2023-07-22T12:36:14.756Z</time>
      </trkpt>
      <trkpt lat="47.85935" lon="-2.50544">
        <ele>76</ele>
        <time>2023-07-22T12:36:15.756Z</time>
      </trkpt>
      <trkpt lat="47.85934" lon="-2.50543">
        <ele>76</ele>
        <time>2023-07-22T12:36:16.756Z</time>
      </trkpt>
      <trkpt lat="47.85933" lon="-2.50543">
        <ele>75</ele>
        <time>2023-07-22T12:36:17.756Z</time>
      </trkpt>
      <trkpt lat="47.85932" lon="-2.50541">
        <ele>76</ele>
        <time>2023-07-22T12:36:18.756Z</time>
      </trkpt>
      <trkpt lat="47.85929" lon="-2.50542">
        <ele>76</ele>
        <time>2023-07-22T12:36:19.756Z</time>
      </trkpt>
      <trkpt lat="47.85928" lon="-2.50542">
        <ele>76</ele>
        <time>2023-07-22T12:36:20.756Z</time>
      </trkpt>
      <trkpt lat="47.85927" lon="-2.50542">
        <ele>76</ele>
        <time>2023-07-22T12:36:21.756Z</time>
      </trkpt>
      <trkpt lat="47.85925" lon="-2.50542">
        <ele>76</ele>
        <time>2023-07-22T12:36:22.756Z</time>
      </trkpt>
      <trkpt lat="47.85924" lon="-2.50542">
        <ele>76</ele>
        <time>2023-07-22T12:36:23.756Z</time>
      </trkpt>
      <trkpt lat="47.85923" lon="-2.50542">
        <ele>76</ele>
        <time>2023-07-22T12:36:24.756Z</time>
      </trkpt>
      <trkpt lat="47.85922" lon="-2.50542">
        <ele>76</ele>
        <time>2023-07-22T12:36:25.756Z</time>
      </trkpt>
      <trkpt lat="47.85921" lon="-2.50541">
        <ele>76</ele>
        <time>2023-07-22T12:36:26.756Z</time>
      </trkpt>
      <trkpt lat="47.85919" lon="-2.5054">
        <ele>75</ele>
        <time>2023-07-22T12:36:27.756Z</time>
      </trkpt>
      <trkpt lat="47.85918" lon="-2.50539">
        <ele>75</ele>
        <time>2023-07-22T12:36:28.756Z</time>
      </trkpt>
      <trkpt lat="47.85917" lon="-2.50539">
        <ele>75</ele>
        <time>2023-07-22T12:36:29.756Z</time>
      </trkpt>
      <trkpt lat="47.85915" lon="-2.50538">
        <ele>74</ele>
        <time>2023-07-22T12:36:30.756Z</time>
      </trkpt>
      <trkpt lat="47.85914" lon="-2.50537">
        <ele>74</ele>
        <time>2023-07-22T12:36:31.756Z</time>
      </trkpt>
      <trkpt lat="47.85913" lon="-2.50536">
        <ele>73</ele>
        <time>2023-07-22T12:36:32.756Z</time>
      </trkpt>
      <trkpt lat="47.85912" lon="-2.50535">
        <ele>73</ele>
        <time>2023-07-22T12:36:33.756Z</time>
      </trkpt>
      <trkpt lat="47.8591" lon="-2.50534">
        <ele>72</ele>
        <time>2023-07-22T12:36:34.756Z</time>
      </trkpt>
      <trkpt lat="47.85908" lon="-2.50534">
        <ele>72</ele>
        <time>2023-07-22T12:36:35.756Z</time>
      </trkpt>
      <trkpt lat="47.85907" lon="-2.50534">
        <ele>71</ele>
        <time>2023-07-22T12:36:36.756Z</time>
      </trkpt>
      <trkpt lat="47.85906" lon="-2.50533">
        <ele>71</ele>
        <time>2023-07-22T12:36:37.756Z</time>
      </trkpt>
      <trkpt lat="47.85905" lon="-2.50532">
        <ele>71</ele>
        <time>2023-07-22T12:36:38.756Z</time>
      </trkpt>
      <trkpt lat="47.85904" lon="-2.5053">
        <ele>70</ele>
        <time>2023-07-22T12:36:39.756Z</time>
      </trkpt>
      <trkpt lat="47.85903" lon="-2.50529">
        <ele>70</ele>
        <time>2023-07-22T12:36:40.756Z</time>
      </trkpt>
      <trkpt lat="47.85902" lon="-2.50528">
        <ele>70</ele>
        <time>2023-07-22T12:36:41.756Z</time>
      </trkpt>
      <trkpt lat="47.859" lon="-2.50527">
        <ele>70</ele>
        <time>2023-07-22T12:36:42.756Z</time>
      </trkpt>
      <trkpt lat="47.85898" lon="-2.50526">
        <ele>69</ele>
        <time>2023-07-22T12:36:43.756Z</time>
      </trkpt>
      <trkpt lat="47.85895" lon="-2.50525">
        <ele>69</ele>
        <time>2023-07-22T12:36:44.756Z</time>
      </trkpt>
      <trkpt lat="47.85893" lon="-2.50526">
        <ele>69</ele>
        <time>2023-07-22T12:36:45.756Z</time>
      </trkpt>
      <trkpt lat="47.85892" lon="-2.50526">
        <ele>69</ele>
        <time>2023-07-22T12:36:46.756Z</time>
      </trkpt>
      <trkpt lat="47.85892" lon="-2.50525">
        <ele>69</ele>
        <time>2023-07-22T12:36:47.756Z</time>
      </trkpt>
      <trkpt lat="47.85892" lon="-2.50524">
        <ele>69</ele>
        <time>2023-07-22T12:36:48.756Z</time>
      </trkpt>
      <trkpt lat="47.85892" lon="-2.50524">
        <ele>69</ele>
        <time>2023-07-22T12:36:49.756Z</time>
      </trkpt>
      <trkpt lat="47.8589" lon="-2.50525">
        <ele>69</ele>
        <time>2023-07-22T12:36:50.756Z</time>
      </trkpt>
      <trkpt lat="47.85889" lon="-2.50525">
        <ele>69</ele>
        <time>2023-07-22T12:36:51.756Z</time>
      </trkpt>
      <trkpt lat="47.85889" lon="-2.50526">
        <ele>69</ele>
        <time>2023-07-22T12:36:52.756Z</time>
      </trkpt>
      <trkpt lat="47.85888" lon="-2.50526">
        <ele>69</ele>
        <time>2023-07-22T12:36:53.756Z</time>
      </trkpt>
      <trkpt lat="47.85888" lon="-2.50526">
        <ele>69</ele>
        <time>2023-07-22T12:36:54.756Z</time>
      </trkpt>
      <trkpt lat="47.85887" lon="-2.50526">
        <ele>69</ele>
        <time>2023-07-22T12:36:55.756Z</time>
      </trkpt>
      <trkpt lat="47.85886" lon="-2.50525">
        <ele>69</ele>
        <time>2023-07-22T12:36:56.756Z</time>
      </trkpt>
      <trkpt lat="47.85884" lon="-2.50526">
        <ele>69</ele>
        <time>2023-07-22T12:36:57.756Z</time>
      </trkpt>
      <trkpt lat="47.85883" lon="-2.50525">
        <ele>69</ele>
        <time>2023-07-22T12:36:58.756Z</time>
      </trkpt>
      <trkpt lat="47.85882" lon="-2.50525">
        <ele>69</ele>
        <time>2023-07-22T12:36:59.756Z</time>
      </trkpt>
      <trkpt lat="47.85882" lon="-2.50524">
        <ele>70</ele>
        <time>2023-07-22T12:37:00.756Z</time>
      </trkpt>
      <trkpt lat="47.85881" lon="-2.50524">
        <ele>70</ele>
        <time>2023-07-22T12:37:01.756Z</time>
      </trkpt>
      <trkpt lat="47.85881" lon="-2.50524">
        <ele>70</ele>
        <time>2023-07-22T12:37:02.756Z</time>
      </trkpt>
      <trkpt lat="47.85881" lon="-2.50524">
        <ele>70</ele>
        <time>2023-07-22T12:37:03.756Z</time>
      </trkpt>
      <trkpt lat="47.8588" lon="-2.50524">
        <ele>70</ele>
        <time>2023-07-22T12:37:04.756Z</time>
      </trkpt>
      <trkpt lat="47.8588" lon="-2.50524">
        <ele>70</ele>
        <time>2023-07-22T12:37:05.756Z</time>
      </trkpt>
      <trkpt lat="47.85879" lon="-2.50524">
        <ele>70</ele>
        <time>2023-07-22T12:37:06.756Z</time>
      </trkpt>
      <trkpt lat="47.85878" lon="-2.50524">
        <ele>71</ele>
        <time>2023-07-22T12:37:07.756Z</time>
      </trkpt>
      <trkpt lat="47.85876" lon="-2.50524">
        <ele>71</ele>
        <time>2023-07-22T12:37:08.756Z</time>
      </trkpt>
      <trkpt lat="47.85876" lon="-2.50524">
        <ele>71</ele>
        <time>2023-07-22T12:37:09.756Z</time>
      </trkpt>
      <trkpt lat="47.85876" lon="-2.50525">
        <ele>72</ele>
        <time>2023-07-22T12:37:10.756Z</time>
      </trkpt>
      <trkpt lat="47.85874" lon="-2.50526">
        <ele>72</ele>
        <time>2023-07-22T12:37:11.756Z</time>
      </trkpt>
      <trkpt lat="47.85874" lon="-2.50526">
        <ele>72</ele>
        <time>2023-07-22T12:37:12.756Z</time>
      </trkpt>
      <trkpt lat="47.85874" lon="-2.50527">
        <ele>73</ele>
        <time>2023-07-22T12:37:13.756Z</time>
      </trkpt>
      <trkpt lat="47.85867" lon="-2.50533">
        <ele>75</ele>
        <time>2023-07-22T12:37:21.106Z</time>
      </trkpt>
      <trkpt lat="47.85867" lon="-2.50534">
        <ele>75</ele>
        <time>2023-07-22T12:37:22.107Z</time>
      </trkpt>
      <trkpt lat="47.85866" lon="-2.50535">
        <ele>75</ele>
        <time>2023-07-22T12:37:23.106Z</time>
      </trkpt>
      <trkpt lat="47.85865" lon="-2.50537">
        <ele>75</ele>
        <time>2023-07-22T12:37:24.107Z</time>
      </trkpt>
      <trkpt lat="47.85865" lon="-2.50538">
        <ele>75</ele>
        <time>2023-07-22T12:37:25.106Z</time>
      </trkpt>
      <trkpt lat="47.85864" lon="-2.50538">
        <ele>75</ele>
        <time>2023-07-22T12:37:26.106Z</time>
      </trkpt>
      <trkpt lat="47.85863" lon="-2.50539">
        <ele>75</ele>
        <time>2023-07-22T12:37:27.106Z</time>
      </trkpt>
      <trkpt lat="47.85863" lon="-2.50539">
        <ele>75</ele>
        <time>2023-07-22T12:37:28.106Z</time>
      </trkpt>
      <trkpt lat="47.85863" lon="-2.50538">
        <ele>75</ele>
        <time>2023-07-22T12:37:29.106Z</time>
      </trkpt>
      <trkpt lat="47.85861" lon="-2.50538">
        <ele>76</ele>
        <time>2023-07-22T12:37:30.107Z</time>
      </trkpt>
      <trkpt lat="47.8586" lon="-2.50538">
        <ele>76</ele>
        <time>2023-07-22T12:37:31.106Z</time>
      </trkpt>
      <trkpt lat="47.85859" lon="-2.50538">
        <ele>77</ele>
        <time>2023-07-22T12:37:32.106Z</time>
      </trkpt>
      <trkpt lat="47.85858" lon="-2.50538">
        <ele>77</ele>
        <time>2023-07-22T12:37:33.106Z</time>
      </trkpt>
      <trkpt lat="47.85857" lon="-2.50538">
        <ele>78</ele>
        <time>2023-07-22T12:37:34.107Z</time>
      </trkpt>
      <trkpt lat="47.85856" lon="-2.50538">
        <ele>79</ele>
        <time>2023-07-22T12:37:35.106Z</time>
      </trkpt>
      <trkpt lat="47.85855" lon="-2.50537">
        <ele>79</ele>
        <time>2023-07-22T12:37:36.107Z</time>
      </trkpt>
      <trkpt lat="47.85853" lon="-2.50536">
        <ele>80</ele>
        <time>2023-07-22T12:37:37.106Z</time>
      </trkpt>
      <trkpt lat="47.85852" lon="-2.50536">
        <ele>81</ele>
        <time>2023-07-22T12:37:38.107Z</time>
      </trkpt>
      <trkpt lat="47.85851" lon="-2.50536">
        <ele>81</ele>
        <time>2023-07-22T12:37:39.106Z</time>
      </trkpt>
      <trkpt lat="47.8585" lon="-2.50535">
        <ele>81</ele>
        <time>2023-07-22T12:37:40.107Z</time>
      </trkpt>
      <trkpt lat="47.85849" lon="-2.50535">
        <ele>82</ele>
        <time>2023-07-22T12:37:41.106Z</time>
      </trkpt>
      <trkpt lat="47.85848" lon="-2.50534">
        <ele>82</ele>
        <time>2023-07-22T12:37:42.106Z</time>
      </trkpt>
      <trkpt lat="47.85846" lon="-2.50533">
        <ele>82</ele>
        <time>2023-07-22T12:37:43.106Z</time>
      </trkpt>
      <trkpt lat="47.85845" lon="-2.50531">
        <ele>83</ele>
        <time>2023-07-22T12:37:44.106Z</time>
      </trkpt>
      <trkpt lat="47.85845" lon="-2.50529">
        <ele>83</ele>
        <time>2023-07-22T12:37:45.107Z</time>
      </trkpt>
      <trkpt lat="47.85843" lon="-2.50528">
        <ele>83</ele>
        <time>2023-07-22T12:37:46.107Z</time>
      </trkpt>
      <trkpt lat="47.85841" lon="-2.50526">
        <ele>83</ele>
        <time>2023-07-22T12:37:47.106Z</time>
      </trkpt>
      <trkpt lat="47.8584" lon="-2.50524">
        <ele>82</ele>
        <time>2023-07-22T12:37:48.106Z</time>
      </trkpt>
      <trkpt lat="47.85838" lon="-2.50524">
        <ele>82</ele>
        <time>2023-07-22T12:37:49.107Z</time>
      </trkpt>
      <trkpt lat="47.85836" lon="-2.50524">
        <ele>82</ele>
        <time>2023-07-22T12:37:50.107Z</time>
      </trkpt>
      <trkpt lat="47.85835" lon="-2.50523">
        <ele>81</ele>
        <time>2023-07-22T12:37:51.107Z</time>
      </trkpt>
      <trkpt lat="47.85834" lon="-2.50523">
        <ele>81</ele>
        <time>2023-07-22T12:37:52.106Z</time>
      </trkpt>
      <trkpt lat="47.85833" lon="-2.50523">
        <ele>81</ele>
        <time>2023-07-22T12:37:53.107Z</time>
      </trkpt>
      <trkpt lat="47.85831" lon="-2.50523">
        <ele>81</ele>
        <time>2023-07-22T12:37:54.106Z</time>
      </trkpt>
      <trkpt lat="47.85829" lon="-2.50523">
        <ele>81</ele>
        <time>2023-07-22T12:37:55.106Z</time>
      </trkpt>
      <trkpt lat="47.85829" lon="-2.50522">
        <ele>81</ele>
        <time>2023-07-22T12:37:56.107Z</time>
      </trkpt>
      <trkpt lat="47.85828" lon="-2.50521">
        <ele>81</ele>
        <time>2023-07-22T12:37:57.106Z</time>
      </trkpt>
      <trkpt lat="47.85827" lon="-2.50519">
        <ele>81</ele>
        <time>2023-07-22T12:37:58.106Z</time>
      </trkpt>
      <trkpt lat="47.85825" lon="-2.50518">
        <ele>81</ele>
        <time>2023-07-22T12:37:59.107Z</time>
      </trkpt>
      <trkpt lat="47.85824" lon="-2.50519">
        <ele>81</ele>
        <time>2023-07-22T12:38:00.107Z</time>
      </trkpt>
      <trkpt lat="47.85823" lon="-2.50519">
        <ele>81</ele>
        <time>2023-07-22T12:38:01.107Z</time>
      </trkpt>
      <trkpt lat="47.85823" lon="-2.50519">
        <ele>81</ele>
        <time>2023-07-22T12:38:02.107Z</time>
      </trkpt>
      <trkpt lat="47.85822" lon="-2.50518">
        <ele>81</ele>
        <time>2023-07-22T12:38:03.106Z</time>
      </trkpt>
      <trkpt lat="47.85822" lon="-2.50518">
        <ele>81</ele>
        <time>2023-07-22T12:38:04.107Z</time>
      </trkpt>
      <trkpt lat="47.85822" lon="-2.50518">
        <ele>81</ele>
        <time>2023-07-22T12:38:05.107Z</time>
      </trkpt>
      <trkpt lat="47.85815" lon="-2.50515">
        <ele>79</ele>
        <time>2023-07-22T12:38:11.324Z</time>
      </trkpt>
      <trkpt lat="47.85813" lon="-2.50514">
        <ele>79</ele>
        <time>2023-07-22T12:38:12.323Z</time>
      </trkpt>
      <trkpt lat="47.8581" lon="-2.50513">
        <ele>78</ele>
        <time>2023-07-22T12:38:13.324Z</time>
      </trkpt>
      <trkpt lat="47.85808" lon="-2.50512">
        <ele>78</ele>
        <time>2023-07-22T12:38:14.323Z</time>
      </trkpt>
      <trkpt lat="47.85806" lon="-2.50511">
        <ele>77</ele>
        <time>2023-07-22T12:38:15.324Z</time>
      </trkpt>
      <trkpt lat="47.85805" lon="-2.50511">
        <ele>77</ele>
        <time>2023-07-22T12:38:16.323Z</time>
      </trkpt>
      <trkpt lat="47.85805" lon="-2.50511">
        <ele>77</ele>
        <time>2023-07-22T12:38:17.323Z</time>
      </trkpt>
      <trkpt lat="47.85804" lon="-2.5051">
        <ele>77</ele>
        <time>2023-07-22T12:38:18.323Z</time>
      </trkpt>
      <trkpt lat="47.85803" lon="-2.50511">
        <ele>76</ele>
        <time>2023-07-22T12:38:19.324Z</time>
      </trkpt>
      <trkpt lat="47.85802" lon="-2.50511">
        <ele>76</ele>
        <time>2023-07-22T12:38:20.323Z</time>
      </trkpt>
      <trkpt lat="47.858" lon="-2.50511">
        <ele>76</ele>
        <time>2023-07-22T12:38:21.324Z</time>
      </trkpt>
      <trkpt lat="47.85798" lon="-2.50512">
        <ele>76</ele>
        <time>2023-07-22T12:38:22.323Z</time>
      </trkpt>
      <trkpt lat="47.85797" lon="-2.50512">
        <ele>75</ele>
        <time>2023-07-22T12:38:23.324Z</time>
      </trkpt>
      <trkpt lat="47.85796" lon="-2.50511">
        <ele>75</ele>
        <time>2023-07-22T12:38:24.323Z</time>
      </trkpt>
      <trkpt lat="47.85796" lon="-2.50509">
        <ele>74</ele>
        <time>2023-07-22T12:38:25.324Z</time>
      </trkpt>
      <trkpt lat="47.85795" lon="-2.50507">
        <ele>74</ele>
        <time>2023-07-22T12:38:26.323Z</time>
      </trkpt>
      <trkpt lat="47.85794" lon="-2.50505">
        <ele>73</ele>
        <time>2023-07-22T12:38:27.323Z</time>
      </trkpt>
      <trkpt lat="47.85794" lon="-2.50504">
        <ele>73</ele>
        <time>2023-07-22T12:38:28.323Z</time>
      </trkpt>
      <trkpt lat="47.85793" lon="-2.50504">
        <ele>73</ele>
        <time>2023-07-22T12:38:29.323Z</time>
      </trkpt>
      <trkpt lat="47.85792" lon="-2.50503">
        <ele>73</ele>
        <time>2023-07-22T12:38:30.324Z</time>
      </trkpt>
      <trkpt lat="47.8579" lon="-2.50504">
        <ele>73</ele>
        <time>2023-07-22T12:38:31.323Z</time>
      </trkpt>
      <trkpt lat="47.85789" lon="-2.50503">
        <ele>73</ele>
        <time>2023-07-22T12:38:32.323Z</time>
      </trkpt>
      <trkpt lat="47.85787" lon="-2.50503">
        <ele>72</ele>
        <time>2023-07-22T12:38:33.323Z</time>
      </trkpt>
      <trkpt lat="47.85786" lon="-2.50502">
        <ele>72</ele>
        <time>2023-07-22T12:38:34.324Z</time>
      </trkpt>
      <trkpt lat="47.85785" lon="-2.50501">
        <ele>73</ele>
        <time>2023-07-22T12:38:35.323Z</time>
      </trkpt>
      <trkpt lat="47.85785" lon="-2.50499">
        <ele>73</ele>
        <time>2023-07-22T12:38:36.324Z</time>
      </trkpt>
      <trkpt lat="47.85784" lon="-2.50499">
        <ele>73</ele>
        <time>2023-07-22T12:38:37.323Z</time>
      </trkpt>
      <trkpt lat="47.85783" lon="-2.50498">
        <ele>73</ele>
        <time>2023-07-22T12:38:38.324Z</time>
      </trkpt>
      <trkpt lat="47.85783" lon="-2.50498">
        <ele>73</ele>
        <time>2023-07-22T12:38:39.323Z</time>
      </trkpt>
      <trkpt lat="47.85783" lon="-2.50499">
        <ele>74</ele>
        <time>2023-07-22T12:38:40.324Z</time>
      </trkpt>
      <trkpt lat="47.85783" lon="-2.50499">
        <ele>74</ele>
        <time>2023-07-22T12:38:41.323Z</time>
      </trkpt>
      <trkpt lat="47.85782" lon="-2.505">
        <ele>74</ele>
        <time>2023-07-22T12:38:42.324Z</time>
      </trkpt>
      <trkpt lat="47.8578" lon="-2.505">
        <ele>74</ele>
        <time>2023-07-22T12:38:43.323Z</time>
      </trkpt>
      <trkpt lat="47.85779" lon="-2.505">
        <ele>74</ele>
        <time>2023-07-22T12:38:44.324Z</time>
      </trkpt>
      <trkpt lat="47.85777" lon="-2.505">
        <ele>74</ele>
        <time>2023-07-22T12:38:45.323Z</time>
      </trkpt>
      <trkpt lat="47.85776" lon="-2.505">
        <ele>75</ele>
        <time>2023-07-22T12:38:46.324Z</time>
      </trkpt>
      <trkpt lat="47.85775" lon="-2.50501">
        <ele>75</ele>
        <time>2023-07-22T12:38:47.323Z</time>
      </trkpt>
      <trkpt lat="47.85774" lon="-2.505">
        <ele>75</ele>
        <time>2023-07-22T12:38:48.324Z</time>
      </trkpt>
      <trkpt lat="47.85773" lon="-2.50499">
        <ele>75</ele>
        <time>2023-07-22T12:38:49.323Z</time>
      </trkpt>
      <trkpt lat="47.85773" lon="-2.50498">
        <ele>75</ele>
        <time>2023-07-22T12:38:50.324Z</time>
      </trkpt>
      <trkpt lat="47.85772" lon="-2.50496">
        <ele>75</ele>
        <time>2023-07-22T12:38:51.323Z</time>
      </trkpt>
      <trkpt lat="47.85771" lon="-2.50495">
        <ele>76</ele>
        <time>2023-07-22T12:38:52.323Z</time>
      </trkpt>
      <trkpt lat="47.8577" lon="-2.50494">
        <ele>76</ele>
        <time>2023-07-22T12:38:53.323Z</time>
      </trkpt>
      <trkpt lat="47.8577" lon="-2.50493">
        <ele>76</ele>
        <time>2023-07-22T12:38:54.324Z</time>
      </trkpt>
      <trkpt lat="47.85769" lon="-2.50492">
        <ele>76</ele>
        <time>2023-07-22T12:38:55.324Z</time>
      </trkpt>
      <trkpt lat="47.85768" lon="-2.50491">
        <ele>76</ele>
        <time>2023-07-22T12:38:56.323Z</time>
      </trkpt>
      <trkpt lat="47.85767" lon="-2.5049">
        <ele>76</ele>
        <time>2023-07-22T12:38:57.324Z</time>
      </trkpt>
      <trkpt lat="47.85766" lon="-2.5049">
        <ele>77</ele>
        <time>2023-07-22T12:38:58.323Z</time>
      </trkpt>
      <trkpt lat="47.85766" lon="-2.50489">
        <ele>77</ele>
        <time>2023-07-22T12:38:59.323Z</time>
      </trkpt>
      <trkpt lat="47.85765" lon="-2.50489">
        <ele>77</ele>
        <time>2023-07-22T12:39:00.323Z</time>
      </trkpt>
      <trkpt lat="47.85763" lon="-2.50488">
        <ele>77</ele>
        <time>2023-07-22T12:39:01.324Z</time>
      </trkpt>
      <trkpt lat="47.85762" lon="-2.50488">
        <ele>78</ele>
        <time>2023-07-22T12:39:02.324Z</time>
      </trkpt>
      <trkpt lat="47.85762" lon="-2.50487">
        <ele>78</ele>
        <time>2023-07-22T12:39:03.323Z</time>
      </trkpt>
      <trkpt lat="47.85761" lon="-2.50486">
        <ele>78</ele>
        <time>2023-07-22T12:39:04.323Z</time>
      </trkpt>
      <trkpt lat="47.85761" lon="-2.50484">
        <ele>78</ele>
        <time>2023-07-22T12:39:05.324Z</time>
      </trkpt>
      <trkpt lat="47.8576" lon="-2.50482">
        <ele>78</ele>
        <time>2023-07-22T12:39:06.323Z</time>
      </trkpt>
      <trkpt lat="47.8576" lon="-2.50481">
        <ele>78</ele>
        <time>2023-07-22T12:39:07.323Z</time>
      </trkpt>
      <trkpt lat="47.85759" lon="-2.50481">
        <ele>77</ele>
        <time>2023-07-22T12:39:08.323Z</time>
      </trkpt>
      <trkpt lat="47.85758" lon="-2.5048">
        <ele>77</ele>
        <time>2023-07-22T12:39:09.324Z</time>
      </trkpt>
      <trkpt lat="47.85757" lon="-2.50479">
        <ele>77</ele>
        <time>2023-07-22T12:39:10.323Z</time>
      </trkpt>
      <trkpt lat="47.85756" lon="-2.50479">
        <ele>77</ele>
        <time>2023-07-22T12:39:11.323Z</time>
      </trkpt>
      <trkpt lat="47.85756" lon="-2.50478">
        <ele>77</ele>
        <time>2023-07-22T12:39:12.323Z</time>
      </trkpt>
      <trkpt lat="47.85755" lon="-2.50479">
        <ele>77</ele>
        <time>2023-07-22T12:39:13.324Z</time>
      </trkpt>
      <trkpt lat="47.85754" lon="-2.50479">
        <ele>77</ele>
        <time>2023-07-22T12:39:14.324Z</time>
      </trkpt>
      <trkpt lat="47.85753" lon="-2.50478">
        <ele>77</ele>
        <time>2023-07-22T12:39:15.324Z</time>
      </trkpt>
      <trkpt lat="47.85753" lon="-2.50477">
        <ele>77</ele>
        <time>2023-07-22T12:39:16.323Z</time>
      </trkpt>
      <trkpt lat="47.85752" lon="-2.50477">
        <ele>77</ele>
        <time>2023-07-22T12:39:17.323Z</time>
      </trkpt>
      <trkpt lat="47.8575" lon="-2.50476">
        <ele>77</ele>
        <time>2023-07-22T12:39:18.324Z</time>
      </trkpt>
      <trkpt lat="47.85749" lon="-2.50476">
        <ele>77</ele>
        <time>2023-07-22T12:39:19.324Z</time>
      </trkpt>
      <trkpt lat="47.85748" lon="-2.50476">
        <ele>77</ele>
        <time>2023-07-22T12:39:20.324Z</time>
      </trkpt>
      <trkpt lat="47.85748" lon="-2.50475">
        <ele>77</ele>
        <time>2023-07-22T12:39:21.323Z</time>
      </trkpt>
      <trkpt lat="47.85748" lon="-2.50474">
        <ele>77</ele>
        <time>2023-07-22T12:39:22.324Z</time>
      </trkpt>
      <trkpt lat="47.85747" lon="-2.50473">
        <ele>77</ele>
        <time>2023-07-22T12:39:23.323Z</time>
      </trkpt>
      <trkpt lat="47.85746" lon="-2.50473">
        <ele>77</ele>
        <time>2023-07-22T12:39:24.324Z</time>
      </trkpt>
      <trkpt lat="47.85745" lon="-2.50473">
        <ele>76</ele>
        <time>2023-07-22T12:39:25.323Z</time>
      </trkpt>
      <trkpt lat="47.85744" lon="-2.50472">
        <ele>76</ele>
        <time>2023-07-22T12:39:26.323Z</time>
      </trkpt>
      <trkpt lat="47.85743" lon="-2.50471">
        <ele>76</ele>
        <time>2023-07-22T12:39:27.323Z</time>
      </trkpt>
      <trkpt lat="47.85742" lon="-2.50471">
        <ele>76</ele>
        <time>2023-07-22T12:39:28.323Z</time>
      </trkpt>
      <trkpt lat="47.85741" lon="-2.50471">
        <ele>76</ele>
        <time>2023-07-22T12:39:29.324Z</time>
      </trkpt>
      <trkpt lat="47.85739" lon="-2.50474">
        <ele>76</ele>
        <time>2023-07-22T12:39:30.324Z</time>
      </trkpt>
      <trkpt lat="47.85739" lon="-2.50475">
        <ele>75</ele>
        <time>2023-07-22T12:39:31.324Z</time>
      </trkpt>
      <trkpt lat="47.85738" lon="-2.50475">
        <ele>75</ele>
        <time>2023-07-22T12:39:32.323Z</time>
      </trkpt>
      <trkpt lat="47.85738" lon="-2.50474">
        <ele>75</ele>
        <time>2023-07-22T12:39:33.323Z</time>
      </trkpt>
      <trkpt lat="47.85737" lon="-2.50473">
        <ele>75</ele>
        <time>2023-07-22T12:39:34.324Z</time>
      </trkpt>
      <trkpt lat="47.85737" lon="-2.50473">
        <ele>75</ele>
        <time>2023-07-22T12:39:35.323Z</time>
      </trkpt>
      <trkpt lat="47.85737" lon="-2.50473">
        <ele>75</ele>
        <time>2023-07-22T12:39:36.323Z</time>
      </trkpt>
      <trkpt lat="47.85736" lon="-2.50473">
        <ele>75</ele>
        <time>2023-07-22T12:39:37.323Z</time>
      </trkpt>
      <trkpt lat="47.85736" lon="-2.50472">
        <ele>75</ele>
        <time>2023-07-22T12:39:38.323Z</time>
      </trkpt>
      <trkpt lat="47.85735" lon="-2.50472">
        <ele>75</ele>
        <time>2023-07-22T12:39:39.324Z</time>
      </trkpt>
      <trkpt lat="47.85735" lon="-2.50472">
        <ele>75</ele>
        <time>2023-07-22T12:39:40.324Z</time>
      </trkpt>
      <trkpt lat="47.85735" lon="-2.50471">
        <ele>75</ele>
        <time>2023-07-22T12:39:41.324Z</time>
      </trkpt>
      <trkpt lat="47.85735" lon="-2.50471">
        <ele>75</ele>
        <time>2023-07-22T12:39:42.324Z</time>
      </trkpt>
      <trkpt lat="47.85732" lon="-2.50472">
        <ele>77</ele>
        <time>2023-07-22T12:39:48.725Z</time>
      </trkpt>
      <trkpt lat="47.85731" lon="-2.50472">
        <ele>77</ele>
        <time>2023-07-22T12:39:49.724Z</time>
      </trkpt>
      <trkpt lat="47.8573" lon="-2.50471">
        <ele>78</ele>
        <time>2023-07-22T12:39:50.724Z</time>
      </trkpt>
      <trkpt lat="47.8573" lon="-2.50471">
        <ele>78</ele>
        <time>2023-07-22T12:39:51.725Z</time>
      </trkpt>
      <trkpt lat="47.8573" lon="-2.50471">
        <ele>79</ele>
        <time>2023-07-22T12:39:52.724Z</time>
      </trkpt>
      <trkpt lat="47.85729" lon="-2.50472">
        <ele>79</ele>
        <time>2023-07-22T12:39:53.724Z</time>
      </trkpt>
      <trkpt lat="47.85729" lon="-2.50471">
        <ele>80</ele>
        <time>2023-07-22T12:39:54.725Z</time>
      </trkpt>
      <trkpt lat="47.85728" lon="-2.50471">
        <ele>80</ele>
        <time>2023-07-22T12:39:55.725Z</time>
      </trkpt>
      <trkpt lat="47.85728" lon="-2.50471">
        <ele>81</ele>
        <time>2023-07-22T12:39:56.724Z</time>
      </trkpt>
      <trkpt lat="47.85727" lon="-2.50471">
        <ele>82</ele>
        <time>2023-07-22T12:39:57.725Z</time>
      </trkpt>
      <trkpt lat="47.85726" lon="-2.50471">
        <ele>82</ele>
        <time>2023-07-22T12:39:58.725Z</time>
      </trkpt>
      <trkpt lat="47.85726" lon="-2.50472">
        <ele>83</ele>
        <time>2023-07-22T12:39:59.724Z</time>
      </trkpt>
      <trkpt lat="47.85725" lon="-2.50473">
        <ele>83</ele>
        <time>2023-07-22T12:40:00.724Z</time>
      </trkpt>
      <trkpt lat="47.85725" lon="-2.50474">
        <ele>84</ele>
        <time>2023-07-22T12:40:01.724Z</time>
      </trkpt>
      <trkpt lat="47.85725" lon="-2.50476">
        <ele>85</ele>
        <time>2023-07-22T12:40:02.724Z</time>
      </trkpt>
      <trkpt lat="47.85725" lon="-2.50476">
        <ele>85</ele>
        <time>2023-07-22T12:40:03.724Z</time>
      </trkpt>
      <trkpt lat="47.85725" lon="-2.50476">
        <ele>86</ele>
        <time>2023-07-22T12:40:04.725Z</time>
      </trkpt>
      <trkpt lat="47.85725" lon="-2.50476">
        <ele>86</ele>
        <time>2023-07-22T12:40:05.724Z</time>
      </trkpt>
      <trkpt lat="47.85724" lon="-2.50475">
        <ele>86</ele>
        <time>2023-07-22T12:40:06.725Z</time>
      </trkpt>
      <trkpt lat="47.85724" lon="-2.50475">
        <ele>86</ele>
        <time>2023-07-22T12:40:07.724Z</time>
      </trkpt>
      <trkpt lat="47.85724" lon="-2.50474">
        <ele>86</ele>
        <time>2023-07-22T12:40:08.724Z</time>
      </trkpt>
      <trkpt lat="47.85724" lon="-2.50474">
        <ele>87</ele>
        <time>2023-07-22T12:40:09.725Z</time>
      </trkpt>
      <trkpt lat="47.85724" lon="-2.50474">
        <ele>87</ele>
        <time>2023-07-22T12:40:10.725Z</time>
      </trkpt>
      <trkpt lat="47.85724" lon="-2.50475">
        <ele>87</ele>
        <time>2023-07-22T12:40:11.725Z</time>
      </trkpt>
      <trkpt lat="47.85724" lon="-2.50475">
        <ele>87</ele>
        <time>2023-07-22T12:40:12.724Z</time>
      </trkpt>
      <trkpt lat="47.85723" lon="-2.50474">
        <ele>87</ele>
        <time>2023-07-22T12:40:13.724Z</time>
      </trkpt>
      <trkpt lat="47.85723" lon="-2.50474">
        <ele>87</ele>
        <time>2023-07-22T12:40:14.724Z</time>
      </trkpt>
      <trkpt lat="47.85722" lon="-2.50475">
        <ele>87</ele>
        <time>2023-07-22T12:40:15.724Z</time>
      </trkpt>
      <trkpt lat="47.85721" lon="-2.50475">
        <ele>87</ele>
        <time>2023-07-22T12:40:16.724Z</time>
      </trkpt>
      <trkpt lat="47.85721" lon="-2.50475">
        <ele>88</ele>
        <time>2023-07-22T12:40:17.724Z</time>
      </trkpt>
      <trkpt lat="47.85721" lon="-2.50475">
        <ele>88</ele>
        <time>2023-07-22T12:40:18.724Z</time>
      </trkpt>
      <trkpt lat="47.85721" lon="-2.50475">
        <ele>88</ele>
        <time>2023-07-22T12:40:19.724Z</time>
      </trkpt>
      <trkpt lat="47.85721" lon="-2.50475">
        <ele>88</ele>
        <time>2023-07-22T12:40:20.725Z</time>
      </trkpt>
      <trkpt lat="47.85721" lon="-2.50475">
        <ele>88</ele>
        <time>2023-07-22T12:40:21.724Z</time>
      </trkpt>
      <trkpt lat="47.85721" lon="-2.50473">
        <ele>88</ele>
        <time>2023-07-22T12:40:22.725Z</time>
      </trkpt>
      <trkpt lat="47.85722" lon="-2.50472">
        <ele>89</ele>
        <time>2023-07-22T12:40:23.724Z</time>
      </trkpt>
      <trkpt lat="47.85723" lon="-2.50471">
        <ele>89</ele>
        <time>2023-07-22T12:40:24.725Z</time>
      </trkpt>
      <trkpt lat="47.85722" lon="-2.50471">
        <ele>89</ele>
        <time>2023-07-22T12:40:25.724Z</time>
      </trkpt>
      <trkpt lat="47.8572" lon="-2.50472">
        <ele>89</ele>
        <time>2023-07-22T12:40:26.724Z</time>
      </trkpt>
      <trkpt lat="47.85719" lon="-2.50472">
        <ele>89</ele>
        <time>2023-07-22T12:40:27.725Z</time>
      </trkpt>
      <trkpt lat="47.85718" lon="-2.50471">
        <ele>89</ele>
        <time>2023-07-22T12:40:28.724Z</time>
      </trkpt>
      <trkpt lat="47.85717" lon="-2.50471">
        <ele>89</ele>
        <time>2023-07-22T12:40:29.724Z</time>
      </trkpt>
      <trkpt lat="47.85717" lon="-2.50471">
        <ele>90</ele>
        <time>2023-07-22T12:40:30.724Z</time>
      </trkpt>
      <trkpt lat="47.85712" lon="-2.50473">
        <ele>92</ele>
        <time>2023-07-22T12:40:37.986Z</time>
      </trkpt>
      <trkpt lat="47.85711" lon="-2.50473">
        <ele>92</ele>
        <time>2023-07-22T12:40:38.986Z</time>
      </trkpt>
      <trkpt lat="47.85711" lon="-2.50473">
        <ele>93</ele>
        <time>2023-07-22T12:40:39.986Z</time>
      </trkpt>
      <trkpt lat="47.8571" lon="-2.50472">
        <ele>93</ele>
        <time>2023-07-22T12:40:40.986Z</time>
      </trkpt>
      <trkpt lat="47.8571" lon="-2.50472">
        <ele>93</ele>
        <time>2023-07-22T12:40:41.986Z</time>
      </trkpt>
      <trkpt lat="47.8571" lon="-2.50472">
        <ele>94</ele>
        <time>2023-07-22T12:40:42.987Z</time>
      </trkpt>
      <trkpt lat="47.85707" lon="-2.50474">
        <ele>93</ele>
        <time>2023-07-22T12:40:54.901Z</time>
      </trkpt>
      <trkpt lat="47.85705" lon="-2.50475">
        <ele>93</ele>
        <time>2023-07-22T12:40:55.902Z</time>
      </trkpt>
      <trkpt lat="47.85705" lon="-2.50476">
        <ele>93</ele>
        <time>2023-07-22T12:40:56.902Z</time>
      </trkpt>
      <trkpt lat="47.85704" lon="-2.50476">
        <ele>93</ele>
        <time>2023-07-22T12:40:57.902Z</time>
      </trkpt>
      <trkpt lat="47.85703" lon="-2.50477">
        <ele>93</ele>
        <time>2023-07-22T12:40:58.901Z</time>
      </trkpt>
      <trkpt lat="47.85702" lon="-2.50478">
        <ele>93</ele>
        <time>2023-07-22T12:40:59.901Z</time>
      </trkpt>
      <trkpt lat="47.85701" lon="-2.50479">
        <ele>93</ele>
        <time>2023-07-22T12:41:00.901Z</time>
      </trkpt>
      <trkpt lat="47.857" lon="-2.5048">
        <ele>93</ele>
        <time>2023-07-22T12:41:01.901Z</time>
      </trkpt>
      <trkpt lat="47.85699" lon="-2.50481">
        <ele>93</ele>
        <time>2023-07-22T12:41:02.901Z</time>
      </trkpt>
      <trkpt lat="47.85698" lon="-2.50482">
        <ele>93</ele>
        <time>2023-07-22T12:41:03.901Z</time>
      </trkpt>
      <trkpt lat="47.85698" lon="-2.50483">
        <ele>93</ele>
        <time>2023-07-22T12:41:04.901Z</time>
      </trkpt>
      <trkpt lat="47.85698" lon="-2.50483">
        <ele>93</ele>
        <time>2023-07-22T12:41:05.901Z</time>
      </trkpt>
      <trkpt lat="47.85698" lon="-2.50484">
        <ele>93</ele>
        <time>2023-07-22T12:41:06.901Z</time>
      </trkpt>
      <trkpt lat="47.85698" lon="-2.50484">
        <ele>94</ele>
        <time>2023-07-22T12:41:07.902Z</time>
      </trkpt>
      <trkpt lat="47.85697" lon="-2.50484">
        <ele>94</ele>
        <time>2023-07-22T12:41:08.901Z</time>
      </trkpt>
      <trkpt lat="47.85696" lon="-2.50484">
        <ele>95</ele>
        <time>2023-07-22T12:41:09.901Z</time>
      </trkpt>
      <trkpt lat="47.85696" lon="-2.50484">
        <ele>96</ele>
        <time>2023-07-22T12:41:10.902Z</time>
      </trkpt>
      <trkpt lat="47.85692" lon="-2.50488">
        <ele>98</ele>
        <time>2023-07-22T12:41:17.511Z</time>
      </trkpt>
      <trkpt lat="47.85692" lon="-2.50488">
        <ele>98</ele>
        <time>2023-07-22T12:41:18.511Z</time>
      </trkpt>
      <trkpt lat="47.85691" lon="-2.50488">
        <ele>98</ele>
        <time>2023-07-22T12:41:19.511Z</time>
      </trkpt>
      <trkpt lat="47.8569" lon="-2.50489">
        <ele>98</ele>
        <time>2023-07-22T12:41:20.512Z</time>
      </trkpt>
      <trkpt lat="47.85689" lon="-2.50489">
        <ele>98</ele>
        <time>2023-07-22T12:41:21.511Z</time>
      </trkpt>
      <trkpt lat="47.85689" lon="-2.50489">
        <ele>98</ele>
        <time>2023-07-22T12:41:22.512Z</time>
      </trkpt>
      <trkpt lat="47.85689" lon="-2.50489">
        <ele>98</ele>
        <time>2023-07-22T12:41:23.511Z</time>
      </trkpt>
      <trkpt lat="47.85689" lon="-2.5049">
        <ele>98</ele>
        <time>2023-07-22T12:41:24.511Z</time>
      </trkpt>
      <trkpt lat="47.85689" lon="-2.50491">
        <ele>98</ele>
        <time>2023-07-22T12:41:25.511Z</time>
      </trkpt>
      <trkpt lat="47.85688" lon="-2.50491">
        <ele>98</ele>
        <time>2023-07-22T12:41:26.511Z</time>
      </trkpt>
      <trkpt lat="47.85688" lon="-2.50492">
        <ele>98</ele>
        <time>2023-07-22T12:41:27.511Z</time>
      </trkpt>
      <trkpt lat="47.85687" lon="-2.50492">
        <ele>98</ele>
        <time>2023-07-22T12:41:28.512Z</time>
      </trkpt>
      <trkpt lat="47.85687" lon="-2.50492">
        <ele>98</ele>
        <time>2023-07-22T12:41:29.511Z</time>
      </trkpt>
      <trkpt lat="47.85687" lon="-2.50492">
        <ele>98</ele>
        <time>2023-07-22T12:41:30.512Z</time>
      </trkpt>
      <trkpt lat="47.85685" lon="-2.50492">
        <ele>98</ele>
        <time>2023-07-22T12:41:31.511Z</time>
      </trkpt>
      <trkpt lat="47.85684" lon="-2.50494">
        <ele>98</ele>
        <time>2023-07-22T12:41:32.512Z</time>
      </trkpt>
      <trkpt lat="47.85683" lon="-2.50494">
        <ele>98</ele>
        <time>2023-07-22T12:41:33.511Z</time>
      </trkpt>
      <trkpt lat="47.85683" lon="-2.50495">
        <ele>98</ele>
        <time>2023-07-22T12:41:34.512Z</time>
      </trkpt>
      <trkpt lat="47.85682" lon="-2.50495">
        <ele>98</ele>
        <time>2023-07-22T12:41:35.512Z</time>
      </trkpt>
      <trkpt lat="47.85683" lon="-2.50495">
        <ele>98</ele>
        <time>2023-07-22T12:41:36.512Z</time>
      </trkpt>
      <trkpt lat="47.85682" lon="-2.50494">
        <ele>98</ele>
        <time>2023-07-22T12:41:37.511Z</time>
      </trkpt>
      <trkpt lat="47.85682" lon="-2.50494">
        <ele>98</ele>
        <time>2023-07-22T12:41:38.512Z</time>
      </trkpt>
      <trkpt lat="47.85682" lon="-2.50494">
        <ele>98</ele>
        <time>2023-07-22T12:41:39.511Z</time>
      </trkpt>
      <trkpt lat="47.85682" lon="-2.50493">
        <ele>99</ele>
        <time>2023-07-22T12:41:40.512Z</time>
      </trkpt>
      <trkpt lat="47.85682" lon="-2.50492">
        <ele>99</ele>
        <time>2023-07-22T12:41:41.512Z</time>
      </trkpt>
      <trkpt lat="47.85683" lon="-2.50491">
        <ele>99</ele>
        <time>2023-07-22T12:41:42.511Z</time>
      </trkpt>
      <trkpt lat="47.85683" lon="-2.50491">
        <ele>99</ele>
        <time>2023-07-22T12:41:43.511Z</time>
      </trkpt>
      <trkpt lat="47.85683" lon="-2.50491">
        <ele>100</ele>
        <time>2023-07-22T12:41:44.512Z</time>
      </trkpt>
      <trkpt lat="47.85683" lon="-2.50491">
        <ele>100</ele>
        <time>2023-07-22T12:41:45.511Z</time>
      </trkpt>
      <trkpt lat="47.85683" lon="-2.50492">
        <ele>98</ele>
        <time>2023-07-22T12:41:59.965Z</time>
      </trkpt>
      <trkpt lat="47.85684" lon="-2.50492">
        <ele>98</ele>
        <time>2023-07-22T12:42:00.965Z</time>
      </trkpt>
      <trkpt lat="47.85684" lon="-2.50491">
        <ele>98</ele>
        <time>2023-07-22T12:42:01.965Z</time>
      </trkpt>
      <trkpt lat="47.85685" lon="-2.50491">
        <ele>98</ele>
        <time>2023-07-22T12:42:02.965Z</time>
      </trkpt>
      <trkpt lat="47.85685" lon="-2.50491">
        <ele>99</ele>
        <time>2023-07-22T12:42:03.965Z</time>
      </trkpt>
      <trkpt lat="47.85685" lon="-2.50492">
        <ele>99</ele>
        <time>2023-07-22T12:42:04.965Z</time>
      </trkpt>
      <trkpt lat="47.85684" lon="-2.50491">
        <ele>100</ele>
        <time>2023-07-22T12:42:11.235Z</time>
      </trkpt>
      <trkpt lat="47.85683" lon="-2.50491">
        <ele>100</ele>
        <time>2023-07-22T12:42:12.234Z</time>
      </trkpt>
      <trkpt lat="47.85683" lon="-2.50491">
        <ele>100</ele>
        <time>2023-07-22T12:42:13.234Z</time>
      </trkpt>
      <trkpt lat="47.8568" lon="-2.50491">
        <ele>100</ele>
        <time>2023-07-22T12:42:20.676Z</time>
      </trkpt>
      <trkpt lat="47.85679" lon="-2.50491">
        <ele>100</ele>
        <time>2023-07-22T12:42:21.676Z</time>
      </trkpt>
      <trkpt lat="47.85678" lon="-2.50491">
        <ele>100</ele>
        <time>2023-07-22T12:42:22.675Z</time>
      </trkpt>
      <trkpt lat="47.85678" lon="-2.5049">
        <ele>100</ele>
        <time>2023-07-22T12:42:23.676Z</time>
      </trkpt>
      <trkpt lat="47.85678" lon="-2.5049">
        <ele>100</ele>
        <time>2023-07-22T12:42:24.676Z</time>
      </trkpt>
      <trkpt lat="47.85676" lon="-2.50489">
        <ele>100</ele>
        <time>2023-07-22T12:42:31.994Z</time>
      </trkpt>
      <trkpt lat="47.85675" lon="-2.50489">
        <ele>100</ele>
        <time>2023-07-22T12:42:32.994Z</time>
      </trkpt>
      <trkpt lat="47.85674" lon="-2.50489">
        <ele>101</ele>
        <time>2023-07-22T12:42:33.995Z</time>
      </trkpt>
      <trkpt lat="47.85673" lon="-2.50489">
        <ele>101</ele>
        <time>2023-07-22T12:42:34.994Z</time>
      </trkpt>
      <trkpt lat="47.85673" lon="-2.50489">
        <ele>101</ele>
        <time>2023-07-22T12:42:35.994Z</time>
      </trkpt>
      <trkpt lat="47.85673" lon="-2.50489">
        <ele>101</ele>
        <time>2023-07-22T12:42:36.994Z</time>
      </trkpt>
      <trkpt lat="47.85672" lon="-2.50489">
        <ele>101</ele>
        <time>2023-07-22T12:42:37.995Z</time>
      </trkpt>
      <trkpt lat="47.85672" lon="-2.50488">
        <ele>101</ele>
        <time>2023-07-22T12:42:38.994Z</time>
      </trkpt>
      <trkpt lat="47.85672" lon="-2.50488">
        <ele>102</ele>
        <time>2023-07-22T12:42:39.994Z</time>
      </trkpt>
      <trkpt lat="47.85672" lon="-2.50488">
        <ele>102</ele>
        <time>2023-07-22T12:42:40.994Z</time>
      </trkpt>
      <trkpt lat="47.85672" lon="-2.50487">
        <ele>103</ele>
        <time>2023-07-22T12:42:41.995Z</time>
      </trkpt>
      <trkpt lat="47.85668" lon="-2.50489">
        <ele>105</ele>
        <time>2023-07-22T12:42:47.387Z</time>
      </trkpt>
      <trkpt lat="47.85667" lon="-2.5049">
        <ele>105</ele>
        <time>2023-07-22T12:42:48.388Z</time>
      </trkpt>
      <trkpt lat="47.85666" lon="-2.5049">
        <ele>105</ele>
        <time>2023-07-22T12:42:49.387Z</time>
      </trkpt>
      <trkpt lat="47.85664" lon="-2.50491">
        <ele>105</ele>
        <time>2023-07-22T12:42:50.388Z</time>
      </trkpt>
      <trkpt lat="47.85663" lon="-2.50491">
        <ele>105</ele>
        <time>2023-07-22T12:42:51.387Z</time>
      </trkpt>
      <trkpt lat="47.85662" lon="-2.50491">
        <ele>104</ele>
        <time>2023-07-22T12:42:52.388Z</time>
      </trkpt>
      <trkpt lat="47.85661" lon="-2.50491">
        <ele>104</ele>
        <time>2023-07-22T12:42:53.388Z</time>
      </trkpt>
      <trkpt lat="47.8566" lon="-2.50491">
        <ele>103</ele>
        <time>2023-07-22T12:42:54.387Z</time>
      </trkpt>
      <trkpt lat="47.85659" lon="-2.50491">
        <ele>103</ele>
        <time>2023-07-22T12:42:55.387Z</time>
      </trkpt>
      <trkpt lat="47.85659" lon="-2.50491">
        <ele>102</ele>
        <time>2023-07-22T12:42:56.387Z</time>
      </trkpt>
      <trkpt lat="47.85651" lon="-2.50491">
        <ele>99</ele>
        <time>2023-07-22T12:43:07.673Z</time>
      </trkpt>
      <trkpt lat="47.85651" lon="-2.50491">
        <ele>98</ele>
        <time>2023-07-22T12:43:08.673Z</time>
      </trkpt>
      <trkpt lat="47.85649" lon="-2.50492">
        <ele>98</ele>
        <time>2023-07-22T12:43:09.673Z</time>
      </trkpt>
      <trkpt lat="47.85648" lon="-2.50492">
        <ele>97</ele>
        <time>2023-07-22T12:43:10.673Z</time>
      </trkpt>
      <trkpt lat="47.85646" lon="-2.50493">
        <ele>97</ele>
        <time>2023-07-22T12:43:11.673Z</time>
      </trkpt>
      <trkpt lat="47.85644" lon="-2.50494">
        <ele>97</ele>
        <time>2023-07-22T12:43:12.673Z</time>
      </trkpt>
      <trkpt lat="47.85644" lon="-2.50493">
        <ele>96</ele>
        <time>2023-07-22T12:43:13.673Z</time>
      </trkpt>
      <trkpt lat="47.85642" lon="-2.50494">
        <ele>96</ele>
        <time>2023-07-22T12:43:14.673Z</time>
      </trkpt>
      <trkpt lat="47.85641" lon="-2.50495">
        <ele>96</ele>
        <time>2023-07-22T12:43:15.673Z</time>
      </trkpt>
      <trkpt lat="47.8564" lon="-2.50495">
        <ele>96</ele>
        <time>2023-07-22T12:43:16.673Z</time>
      </trkpt>
      <trkpt lat="47.85638" lon="-2.50496">
        <ele>96</ele>
        <time>2023-07-22T12:43:17.673Z</time>
      </trkpt>
      <trkpt lat="47.85637" lon="-2.50496">
        <ele>95</ele>
        <time>2023-07-22T12:43:18.673Z</time>
      </trkpt>
      <trkpt lat="47.85637" lon="-2.50496">
        <ele>95</ele>
        <time>2023-07-22T12:43:19.673Z</time>
      </trkpt>
      <trkpt lat="47.85636" lon="-2.50496">
        <ele>95</ele>
        <time>2023-07-22T12:43:20.673Z</time>
      </trkpt>
      <trkpt lat="47.85635" lon="-2.50495">
        <ele>95</ele>
        <time>2023-07-22T12:43:21.673Z</time>
      </trkpt>
      <trkpt lat="47.85633" lon="-2.50495">
        <ele>94</ele>
        <time>2023-07-22T12:43:22.673Z</time>
      </trkpt>
      <trkpt lat="47.85632" lon="-2.50495">
        <ele>94</ele>
        <time>2023-07-22T12:43:23.673Z</time>
      </trkpt>
      <trkpt lat="47.85631" lon="-2.50496">
        <ele>94</ele>
        <time>2023-07-22T12:43:24.673Z</time>
      </trkpt>
      <trkpt lat="47.8563" lon="-2.50496">
        <ele>94</ele>
        <time>2023-07-22T12:43:25.673Z</time>
      </trkpt>
      <trkpt lat="47.85629" lon="-2.50497">
        <ele>93</ele>
        <time>2023-07-22T12:43:26.673Z</time>
      </trkpt>
      <trkpt lat="47.85628" lon="-2.50497">
        <ele>93</ele>
        <time>2023-07-22T12:43:27.673Z</time>
      </trkpt>
      <trkpt lat="47.85628" lon="-2.50497">
        <ele>93</ele>
        <time>2023-07-22T12:43:28.673Z</time>
      </trkpt>
      <trkpt lat="47.85627" lon="-2.50498">
        <ele>92</ele>
        <time>2023-07-22T12:43:29.673Z</time>
      </trkpt>
      <trkpt lat="47.85627" lon="-2.50498">
        <ele>92</ele>
        <time>2023-07-22T12:43:30.673Z</time>
      </trkpt>
      <trkpt lat="47.85625" lon="-2.50499">
        <ele>92</ele>
        <time>2023-07-22T12:43:31.673Z</time>
      </trkpt>
      <trkpt lat="47.85624" lon="-2.50499">
        <ele>91</ele>
        <time>2023-07-22T12:43:32.673Z</time>
      </trkpt>
      <trkpt lat="47.85623" lon="-2.505">
        <ele>91</ele>
        <time>2023-07-22T12:43:33.673Z</time>
      </trkpt>
      <trkpt lat="47.85623" lon="-2.50499">
        <ele>91</ele>
        <time>2023-07-22T12:43:34.673Z</time>
      </trkpt>
      <trkpt lat="47.85622" lon="-2.505">
        <ele>90</ele>
        <time>2023-07-22T12:43:35.673Z</time>
      </trkpt>
      <trkpt lat="47.85621" lon="-2.505">
        <ele>90</ele>
        <time>2023-07-22T12:43:36.673Z</time>
      </trkpt>
      <trkpt lat="47.8562" lon="-2.50499">
        <ele>90</ele>
        <time>2023-07-22T12:43:37.673Z</time>
      </trkpt>
      <trkpt lat="47.8562" lon="-2.50499">
        <ele>90</ele>
        <time>2023-07-22T12:43:38.673Z</time>
      </trkpt>
      <trkpt lat="47.85618" lon="-2.50498">
        <ele>89</ele>
        <time>2023-07-22T12:43:39.673Z</time>
      </trkpt>
      <trkpt lat="47.85617" lon="-2.50498">
        <ele>89</ele>
        <time>2023-07-22T12:43:40.673Z</time>
      </trkpt>
      <trkpt lat="47.85615" lon="-2.50497">
        <ele>89</ele>
        <time>2023-07-22T12:43:41.673Z</time>
      </trkpt>
      <trkpt lat="47.85614" lon="-2.50496">
        <ele>89</ele>
        <time>2023-07-22T12:43:42.673Z</time>
      </trkpt>
      <trkpt lat="47.85613" lon="-2.50496">
        <ele>89</ele>
        <time>2023-07-22T12:43:43.673Z</time>
      </trkpt>
      <trkpt lat="47.85611" lon="-2.50497">
        <ele>89</ele>
        <time>2023-07-22T12:43:44.673Z</time>
      </trkpt>
      <trkpt lat="47.8561" lon="-2.50497">
        <ele>89</ele>
        <time>2023-07-22T12:43:45.673Z</time>
      </trkpt>
      <trkpt lat="47.85608" lon="-2.50497">
        <ele>89</ele>
        <time>2023-07-22T12:43:46.673Z</time>
      </trkpt>
      <trkpt lat="47.85607" lon="-2.50499">
        <ele>89</ele>
        <time>2023-07-22T12:43:47.673Z</time>
      </trkpt>
      <trkpt lat="47.85606" lon="-2.50499">
        <ele>89</ele>
        <time>2023-07-22T12:43:48.673Z</time>
      </trkpt>
      <trkpt lat="47.85605" lon="-2.50499">
        <ele>89</ele>
        <time>2023-07-22T12:43:49.673Z</time>
      </trkpt>
      <trkpt lat="47.85605" lon="-2.50499">
        <ele>89</ele>
        <time>2023-07-22T12:43:50.673Z</time>
      </trkpt>
      <trkpt lat="47.85604" lon="-2.50499">
        <ele>90</ele>
        <time>2023-07-22T12:43:51.673Z</time>
      </trkpt>
      <trkpt lat="47.85603" lon="-2.50499">
        <ele>90</ele>
        <time>2023-07-22T12:43:52.673Z</time>
      </trkpt>
      <trkpt lat="47.85602" lon="-2.50498">
        <ele>90</ele>
        <time>2023-07-22T12:43:53.673Z</time>
      </trkpt>
      <trkpt lat="47.85601" lon="-2.50499">
        <ele>91</ele>
        <time>2023-07-22T12:43:54.673Z</time>
      </trkpt>
      <trkpt lat="47.856" lon="-2.505">
        <ele>91</ele>
        <time>2023-07-22T12:43:55.673Z</time>
      </trkpt>
      <trkpt lat="47.856" lon="-2.505">
        <ele>91</ele>
        <time>2023-07-22T12:43:56.673Z</time>
      </trkpt>
      <trkpt lat="47.85599" lon="-2.505">
        <ele>92</ele>
        <time>2023-07-22T12:43:57.673Z</time>
      </trkpt>
      <trkpt lat="47.85594" lon="-2.50502">
        <ele>95</ele>
        <time>2023-07-22T12:44:05.996Z</time>
      </trkpt>
      <trkpt lat="47.85593" lon="-2.50502">
        <ele>95</ele>
        <time>2023-07-22T12:44:06.996Z</time>
      </trkpt>
      <trkpt lat="47.85593" lon="-2.50502">
        <ele>95</ele>
        <time>2023-07-22T12:44:07.997Z</time>
      </trkpt>
      <trkpt lat="47.85593" lon="-2.50502">
        <ele>96</ele>
        <time>2023-07-22T12:44:08.996Z</time>
      </trkpt>
      <trkpt lat="47.85596" lon="-2.50501">
        <ele>96</ele>
        <time>2023-07-22T12:44:09.996Z</time>
      </trkpt>
      <trkpt lat="47.85596" lon="-2.50501">
        <ele>97</ele>
        <time>2023-07-22T12:44:10.996Z</time>
      </trkpt>
      <trkpt lat="47.85595" lon="-2.50501">
        <ele>97</ele>
        <time>2023-07-22T12:44:11.997Z</time>
      </trkpt>
      <trkpt lat="47.85595" lon="-2.50501">
        <ele>97</ele>
        <time>2023-07-22T12:44:12.996Z</time>
      </trkpt>
      <trkpt lat="47.85595" lon="-2.50501">
        <ele>97</ele>
        <time>2023-07-22T12:44:13.996Z</time>
      </trkpt>
      <trkpt lat="47.85595" lon="-2.50501">
        <ele>97</ele>
        <time>2023-07-22T12:44:14.997Z</time>
      </trkpt>
      <trkpt lat="47.85594" lon="-2.50501">
        <ele>98</ele>
        <time>2023-07-22T12:44:15.997Z</time>
      </trkpt>
      <trkpt lat="47.85594" lon="-2.505">
        <ele>98</ele>
        <time>2023-07-22T12:44:21.526Z</time>
      </trkpt>
      <trkpt lat="47.85594" lon="-2.505">
        <ele>98</ele>
        <time>2023-07-22T12:44:22.526Z</time>
      </trkpt>
      <trkpt lat="47.85594" lon="-2.505">
        <ele>99</ele>
        <time>2023-07-22T12:44:23.527Z</time>
      </trkpt>
      <trkpt lat="47.85594" lon="-2.50501">
        <ele>99</ele>
        <time>2023-07-22T12:44:24.527Z</time>
      </trkpt>
      <trkpt lat="47.85596" lon="-2.505">
        <ele>99</ele>
        <time>2023-07-22T12:44:25.526Z</time>
      </trkpt>
      <trkpt lat="47.85596" lon="-2.505">
        <ele>99</ele>
        <time>2023-07-22T12:44:26.526Z</time>
      </trkpt>
      <trkpt lat="47.85596" lon="-2.505">
        <ele>99</ele>
        <time>2023-07-22T12:44:27.526Z</time>
      </trkpt>
      <trkpt lat="47.85596" lon="-2.50501">
        <ele>100</ele>
        <time>2023-07-22T12:44:28.527Z</time>
      </trkpt>
      <trkpt lat="47.85596" lon="-2.50502">
        <ele>100</ele>
        <time>2023-07-22T12:44:29.527Z</time>
      </trkpt>
      <trkpt lat="47.85595" lon="-2.50503">
        <ele>100</ele>
        <time>2023-07-22T12:44:30.526Z</time>
      </trkpt>
      <trkpt lat="47.85595" lon="-2.50504">
        <ele>100</ele>
        <time>2023-07-22T12:44:31.526Z</time>
      </trkpt>
      <trkpt lat="47.85594" lon="-2.50506">
        <ele>100</ele>
        <time>2023-07-22T12:44:32.526Z</time>
      </trkpt>
      <trkpt lat="47.85594" lon="-2.50508">
        <ele>100</ele>
        <time>2023-07-22T12:44:33.526Z</time>
      </trkpt>
      <trkpt lat="47.85593" lon="-2.5051">
        <ele>100</ele>
        <time>2023-07-22T12:44:34.526Z</time>
      </trkpt>
      <trkpt lat="47.85593" lon="-2.50512">
        <ele>100</ele>
        <time>2023-07-22T12:44:35.526Z</time>
      </trkpt>
      <trkpt lat="47.85594" lon="-2.50511">
        <ele>100</ele>
        <time>2023-07-22T12:44:36.526Z</time>
      </trkpt>
      <trkpt lat="47.85595" lon="-2.50512">
        <ele>100</ele>
        <time>2023-07-22T12:44:37.527Z</time>
      </trkpt>
      <trkpt lat="47.85596" lon="-2.50512">
        <ele>100</ele>
        <time>2023-07-22T12:44:38.526Z</time>
      </trkpt>
      <trkpt lat="47.85595" lon="-2.50513">
        <ele>100</ele>
        <time>2023-07-22T12:44:39.526Z</time>
      </trkpt>
      <trkpt lat="47.85594" lon="-2.50515">
        <ele>99</ele>
        <time>2023-07-22T12:44:40.526Z</time>
      </trkpt>
      <trkpt lat="47.85593" lon="-2.50516">
        <ele>99</ele>
        <time>2023-07-22T12:44:41.526Z</time>
      </trkpt>
      <trkpt lat="47.85591" lon="-2.50518">
        <ele>99</ele>
        <time>2023-07-22T12:44:42.526Z</time>
      </trkpt>
      <trkpt lat="47.85591" lon="-2.5052">
        <ele>98</ele>
        <time>2023-07-22T12:44:43.527Z</time>
      </trkpt>
      <trkpt lat="47.85591" lon="-2.50521">
        <ele>98</ele>
        <time>2023-07-22T12:44:44.526Z</time>
      </trkpt>
      <trkpt lat="47.8559" lon="-2.50522">
        <ele>98</ele>
        <time>2023-07-22T12:44:45.527Z</time>
      </trkpt>
      <trkpt lat="47.85589" lon="-2.50524">
        <ele>97</ele>
        <time>2023-07-22T12:44:46.526Z</time>
      </trkpt>
      <trkpt lat="47.85588" lon="-2.50526">
        <ele>97</ele>
        <time>2023-07-22T12:44:47.527Z</time>
      </trkpt>
      <trkpt lat="47.85586" lon="-2.50528">
        <ele>97</ele>
        <time>2023-07-22T12:44:48.527Z</time>
      </trkpt>
      <trkpt lat="47.85585" lon="-2.50529">
        <ele>97</ele>
        <time>2023-07-22T12:44:49.526Z</time>
      </trkpt>
      <trkpt lat="47.85584" lon="-2.5053">
        <ele>97</ele>
        <time>2023-07-22T12:44:50.526Z</time>
      </trkpt>
      <trkpt lat="47.85584" lon="-2.50531">
        <ele>97</ele>
        <time>2023-07-22T12:44:51.526Z</time>
      </trkpt>
      <trkpt lat="47.85583" lon="-2.50533">
        <ele>97</ele>
        <time>2023-07-22T12:44:52.526Z</time>
      </trkpt>
      <trkpt lat="47.85583" lon="-2.50534">
        <ele>97</ele>
        <time>2023-07-22T12:44:53.526Z</time>
      </trkpt>
      <trkpt lat="47.85583" lon="-2.50536">
        <ele>97</ele>
        <time>2023-07-22T12:44:54.526Z</time>
      </trkpt>
      <trkpt lat="47.85583" lon="-2.50538">
        <ele>97</ele>
        <time>2023-07-22T12:44:55.526Z</time>
      </trkpt>
      <trkpt lat="47.85583" lon="-2.50538">
        <ele>97</ele>
        <time>2023-07-22T12:44:56.526Z</time>
      </trkpt>
      <trkpt lat="47.85583" lon="-2.50539">
        <ele>97</ele>
        <time>2023-07-22T12:44:57.526Z</time>
      </trkpt>
      <trkpt lat="47.85583" lon="-2.5054">
        <ele>97</ele>
        <time>2023-07-22T12:44:58.526Z</time>
      </trkpt>
      <trkpt lat="47.85582" lon="-2.50542">
        <ele>97</ele>
        <time>2023-07-22T12:44:59.527Z</time>
      </trkpt>
      <trkpt lat="47.85582" lon="-2.50543">
        <ele>96</ele>
        <time>2023-07-22T12:45:00.526Z</time>
      </trkpt>
      <trkpt lat="47.85581" lon="-2.50545">
        <ele>96</ele>
        <time>2023-07-22T12:45:01.526Z</time>
      </trkpt>
      <trkpt lat="47.85579" lon="-2.50547">
        <ele>96</ele>
        <time>2023-07-22T12:45:02.526Z</time>
      </trkpt>
      <trkpt lat="47.85578" lon="-2.5055">
        <ele>96</ele>
        <time>2023-07-22T12:45:03.527Z</time>
      </trkpt>
      <trkpt lat="47.85577" lon="-2.50552">
        <ele>95</ele>
        <time>2023-07-22T12:45:04.527Z</time>
      </trkpt>
      <trkpt lat="47.85576" lon="-2.50553">
        <ele>95</ele>
        <time>2023-07-22T12:45:05.527Z</time>
      </trkpt>
      <trkpt lat="47.85576" lon="-2.50554">
        <ele>95</ele>
        <time>2023-07-22T12:45:06.526Z</time>
      </trkpt>
      <trkpt lat="47.85575" lon="-2.50556">
        <ele>94</ele>
        <time>2023-07-22T12:45:07.527Z</time>
      </trkpt>
      <trkpt lat="47.85574" lon="-2.50557">
        <ele>94</ele>
        <time>2023-07-22T12:45:08.527Z</time>
      </trkpt>
      <trkpt lat="47.85573" lon="-2.50557">
        <ele>94</ele>
        <time>2023-07-22T12:45:09.526Z</time>
      </trkpt>
      <trkpt lat="47.85572" lon="-2.50558">
        <ele>95</ele>
        <time>2023-07-22T12:45:10.526Z</time>
      </trkpt>
      <trkpt lat="47.85571" lon="-2.50559">
        <ele>95</ele>
        <time>2023-07-22T12:45:11.526Z</time>
      </trkpt>
      <trkpt lat="47.8557" lon="-2.5056">
        <ele>95</ele>
        <time>2023-07-22T12:45:12.526Z</time>
      </trkpt>
      <trkpt lat="47.8557" lon="-2.50559">
        <ele>95</ele>
        <time>2023-07-22T12:45:13.526Z</time>
      </trkpt>
      <trkpt lat="47.8557" lon="-2.50559">
        <ele>95</ele>
        <time>2023-07-22T12:45:14.527Z</time>
      </trkpt>
      <trkpt lat="47.85568" lon="-2.50563">
        <ele>96</ele>
        <time>2023-07-22T12:45:20.931Z</time>
      </trkpt>
      <trkpt lat="47.85567" lon="-2.50564">
        <ele>96</ele>
        <time>2023-07-22T12:45:21.930Z</time>
      </trkpt>
      <trkpt lat="47.85565" lon="-2.50565">
        <ele>96</ele>
        <time>2023-07-22T12:45:22.930Z</time>
      </trkpt>
      <trkpt lat="47.85564" lon="-2.50566">
        <ele>97</ele>
        <time>2023-07-22T12:45:23.931Z</time>
      </trkpt>
      <trkpt lat="47.85564" lon="-2.50567">
        <ele>97</ele>
        <time>2023-07-22T12:45:24.930Z</time>
      </trkpt>
      <trkpt lat="47.85563" lon="-2.50567">
        <ele>97</ele>
        <time>2023-07-22T12:45:25.931Z</time>
      </trkpt>
      <trkpt lat="47.85561" lon="-2.50569">
        <ele>97</ele>
        <time>2023-07-22T12:45:26.930Z</time>
      </trkpt>
      <trkpt lat="47.8556" lon="-2.50571">
        <ele>97</ele>
        <time>2023-07-22T12:45:27.930Z</time>
      </trkpt>
      <trkpt lat="47.85557" lon="-2.50573">
        <ele>97</ele>
        <time>2023-07-22T12:45:28.931Z</time>
      </trkpt>
      <trkpt lat="47.85557" lon="-2.50574">
        <ele>97</ele>
        <time>2023-07-22T12:45:29.930Z</time>
      </trkpt>
      <trkpt lat="47.85557" lon="-2.50574">
        <ele>97</ele>
        <time>2023-07-22T12:45:30.930Z</time>
      </trkpt>
      <trkpt lat="47.85555" lon="-2.50575">
        <ele>97</ele>
        <time>2023-07-22T12:45:31.930Z</time>
      </trkpt>
      <trkpt lat="47.85553" lon="-2.50576">
        <ele>97</ele>
        <time>2023-07-22T12:45:32.930Z</time>
      </trkpt>
      <trkpt lat="47.85546" lon="-2.50582">
        <ele>97</ele>
        <time>2023-07-22T12:45:38.250Z</time>
      </trkpt>
      <trkpt lat="47.85544" lon="-2.50583">
        <ele>97</ele>
        <time>2023-07-22T12:45:39.249Z</time>
      </trkpt>
      <trkpt lat="47.85543" lon="-2.50585">
        <ele>98</ele>
        <time>2023-07-22T12:45:40.250Z</time>
      </trkpt>
      <trkpt lat="47.85541" lon="-2.50586">
        <ele>98</ele>
        <time>2023-07-22T12:45:41.249Z</time>
      </trkpt>
      <trkpt lat="47.85541" lon="-2.50586">
        <ele>98</ele>
        <time>2023-07-22T12:45:42.250Z</time>
      </trkpt>
      <trkpt lat="47.8554" lon="-2.50586">
        <ele>98</ele>
        <time>2023-07-22T12:45:43.250Z</time>
      </trkpt>
      <trkpt lat="47.85539" lon="-2.50587">
        <ele>98</ele>
        <time>2023-07-22T12:45:44.249Z</time>
      </trkpt>
      <trkpt lat="47.85537" lon="-2.50589">
        <ele>99</ele>
        <time>2023-07-22T12:45:45.249Z</time>
      </trkpt>
      <trkpt lat="47.85535" lon="-2.5059">
        <ele>99</ele>
        <time>2023-07-22T12:45:46.250Z</time>
      </trkpt>
      <trkpt lat="47.85534" lon="-2.50591">
        <ele>99</ele>
        <time>2023-07-22T12:45:47.250Z</time>
      </trkpt>
      <trkpt lat="47.8553" lon="-2.50593">
        <ele>99</ele>
        <time>2023-07-22T12:45:48.250Z</time>
      </trkpt>
      <trkpt lat="47.85528" lon="-2.50595">
        <ele>99</ele>
        <time>2023-07-22T12:45:49.249Z</time>
      </trkpt>
      <trkpt lat="47.85526" lon="-2.50595">
        <ele>99</ele>
        <time>2023-07-22T12:45:50.250Z</time>
      </trkpt>
      <trkpt lat="47.85523" lon="-2.50595">
        <ele>99</ele>
        <time>2023-07-22T12:45:51.249Z</time>
      </trkpt>
      <trkpt lat="47.85522" lon="-2.50596">
        <ele>99</ele>
        <time>2023-07-22T12:45:52.250Z</time>
      </trkpt>
      <trkpt lat="47.8552" lon="-2.50596">
        <ele>99</ele>
        <time>2023-07-22T12:45:53.249Z</time>
      </trkpt>
      <trkpt lat="47.85516" lon="-2.506">
        <ele>99</ele>
        <time>2023-07-22T12:45:54.250Z</time>
      </trkpt>
      <trkpt lat="47.85516" lon="-2.506">
        <ele>99</ele>
        <time>2023-07-22T12:45:55.250Z</time>
      </trkpt>
      <trkpt lat="47.85515" lon="-2.506">
        <ele>99</ele>
        <time>2023-07-22T12:45:56.249Z</time>
      </trkpt>
      <trkpt lat="47.85516" lon="-2.50601">
        <ele>99</ele>
        <time>2023-07-22T12:45:57.250Z</time>
      </trkpt>
      <trkpt lat="47.85515" lon="-2.50601">
        <ele>99</ele>
        <time>2023-07-22T12:45:58.249Z</time>
      </trkpt>
      <trkpt lat="47.85516" lon="-2.50601">
        <ele>99</ele>
        <time>2023-07-22T12:45:59.250Z</time>
      </trkpt>
      <trkpt lat="47.85516" lon="-2.50601">
        <ele>99</ele>
        <time>2023-07-22T12:46:00.249Z</time>
      </trkpt>
      <trkpt lat="47.85516" lon="-2.50601">
        <ele>99</ele>
        <time>2023-07-22T12:46:01.250Z</time>
      </trkpt>
      <trkpt lat="47.8551" lon="-2.50607">
        <ele>97</ele>
        <time>2023-07-22T12:46:07.598Z</time>
      </trkpt>
      <trkpt lat="47.85509" lon="-2.50609">
        <ele>97</ele>
        <time>2023-07-22T12:46:08.598Z</time>
      </trkpt>
      <trkpt lat="47.85509" lon="-2.5061">
        <ele>96</ele>
        <time>2023-07-22T12:46:09.599Z</time>
      </trkpt>
      <trkpt lat="47.85508" lon="-2.50612">
        <ele>95</ele>
        <time>2023-07-22T12:46:10.598Z</time>
      </trkpt>
      <trkpt lat="47.85506" lon="-2.50614">
        <ele>94</ele>
        <time>2023-07-22T12:46:11.598Z</time>
      </trkpt>
      <trkpt lat="47.85505" lon="-2.50616">
        <ele>93</ele>
        <time>2023-07-22T12:46:12.598Z</time>
      </trkpt>
      <trkpt lat="47.85504" lon="-2.50617">
        <ele>93</ele>
        <time>2023-07-22T12:46:13.598Z</time>
      </trkpt>
      <trkpt lat="47.85503" lon="-2.50618">
        <ele>92</ele>
        <time>2023-07-22T12:46:14.598Z</time>
      </trkpt>
      <trkpt lat="47.85502" lon="-2.50619">
        <ele>92</ele>
        <time>2023-07-22T12:46:15.599Z</time>
      </trkpt>
      <trkpt lat="47.85502" lon="-2.5062">
        <ele>91</ele>
        <time>2023-07-22T12:46:16.599Z</time>
      </trkpt>
      <trkpt lat="47.85501" lon="-2.50621">
        <ele>91</ele>
        <time>2023-07-22T12:46:17.598Z</time>
      </trkpt>
      <trkpt lat="47.85499" lon="-2.50622">
        <ele>91</ele>
        <time>2023-07-22T12:46:18.598Z</time>
      </trkpt>
      <trkpt lat="47.85498" lon="-2.50624">
        <ele>91</ele>
        <time>2023-07-22T12:46:19.598Z</time>
      </trkpt>
      <trkpt lat="47.85497" lon="-2.50624">
        <ele>91</ele>
        <time>2023-07-22T12:46:20.598Z</time>
      </trkpt>
      <trkpt lat="47.85497" lon="-2.50625">
        <ele>90</ele>
        <time>2023-07-22T12:46:21.598Z</time>
      </trkpt>
      <trkpt lat="47.85497" lon="-2.50627">
        <ele>90</ele>
        <time>2023-07-22T12:46:22.598Z</time>
      </trkpt>
      <trkpt lat="47.85496" lon="-2.50628">
        <ele>90</ele>
        <time>2023-07-22T12:46:23.599Z</time>
      </trkpt>
      <trkpt lat="47.85495" lon="-2.5063">
        <ele>89</ele>
        <time>2023-07-22T12:46:24.598Z</time>
      </trkpt>
      <trkpt lat="47.85494" lon="-2.50632">
        <ele>89</ele>
        <time>2023-07-22T12:46:25.598Z</time>
      </trkpt>
      <trkpt lat="47.85494" lon="-2.50634">
        <ele>89</ele>
        <time>2023-07-22T12:46:26.598Z</time>
      </trkpt>
      <trkpt lat="47.85494" lon="-2.50636">
        <ele>88</ele>
        <time>2023-07-22T12:46:27.598Z</time>
      </trkpt>
      <trkpt lat="47.85493" lon="-2.50637">
        <ele>88</ele>
        <time>2023-07-22T12:46:28.599Z</time>
      </trkpt>
      <trkpt lat="47.85492" lon="-2.50638">
        <ele>88</ele>
        <time>2023-07-22T12:46:29.599Z</time>
      </trkpt>
      <trkpt lat="47.85491" lon="-2.50639">
        <ele>88</ele>
        <time>2023-07-22T12:46:30.598Z</time>
      </trkpt>
      <trkpt lat="47.85493" lon="-2.50639">
        <ele>87</ele>
        <time>2023-07-22T12:46:31.598Z</time>
      </trkpt>
      <trkpt lat="47.85495" lon="-2.50639">
        <ele>87</ele>
        <time>2023-07-22T12:46:32.598Z</time>
      </trkpt>
      <trkpt lat="47.85495" lon="-2.5064">
        <ele>87</ele>
        <time>2023-07-22T12:46:33.598Z</time>
      </trkpt>
      <trkpt lat="47.85495" lon="-2.50641">
        <ele>87</ele>
        <time>2023-07-22T12:46:34.598Z</time>
      </trkpt>
      <trkpt lat="47.85495" lon="-2.50642">
        <ele>86</ele>
        <time>2023-07-22T12:46:35.598Z</time>
      </trkpt>
      <trkpt lat="47.85495" lon="-2.50643">
        <ele>86</ele>
        <time>2023-07-22T12:46:36.598Z</time>
      </trkpt>
      <trkpt lat="47.85494" lon="-2.50645">
        <ele>85</ele>
        <time>2023-07-22T12:46:37.598Z</time>
      </trkpt>
      <trkpt lat="47.85492" lon="-2.50646">
        <ele>85</ele>
        <time>2023-07-22T12:46:38.598Z</time>
      </trkpt>
      <trkpt lat="47.8549" lon="-2.50649">
        <ele>84</ele>
        <time>2023-07-22T12:46:39.598Z</time>
      </trkpt>
      <trkpt lat="47.85488" lon="-2.50651">
        <ele>84</ele>
        <time>2023-07-22T12:46:40.598Z</time>
      </trkpt>
      <trkpt lat="47.85487" lon="-2.50652">
        <ele>84</ele>
        <time>2023-07-22T12:46:41.598Z</time>
      </trkpt>
      <trkpt lat="47.85485" lon="-2.50654">
        <ele>84</ele>
        <time>2023-07-22T12:46:42.598Z</time>
      </trkpt>
      <trkpt lat="47.85484" lon="-2.50655">
        <ele>84</ele>
        <time>2023-07-22T12:46:43.599Z</time>
      </trkpt>
      <trkpt lat="47.85482" lon="-2.50657">
        <ele>84</ele>
        <time>2023-07-22T12:46:44.599Z</time>
      </trkpt>
      <trkpt lat="47.8548" lon="-2.50659">
        <ele>84</ele>
        <time>2023-07-22T12:46:45.599Z</time>
      </trkpt>
      <trkpt lat="47.85478" lon="-2.50661">
        <ele>84</ele>
        <time>2023-07-22T12:46:46.598Z</time>
      </trkpt>
      <trkpt lat="47.85475" lon="-2.50663">
        <ele>85</ele>
        <time>2023-07-22T12:46:47.599Z</time>
      </trkpt>
      <trkpt lat="47.85472" lon="-2.50665">
        <ele>85</ele>
        <time>2023-07-22T12:46:48.599Z</time>
      </trkpt>
      <trkpt lat="47.8547" lon="-2.50666">
        <ele>85</ele>
        <time>2023-07-22T12:46:49.599Z</time>
      </trkpt>
      <trkpt lat="47.85468" lon="-2.50668">
        <ele>85</ele>
        <time>2023-07-22T12:46:50.599Z</time>
      </trkpt>
      <trkpt lat="47.85467" lon="-2.50669">
        <ele>85</ele>
        <time>2023-07-22T12:46:51.599Z</time>
      </trkpt>
      <trkpt lat="47.85465" lon="-2.50671">
        <ele>85</ele>
        <time>2023-07-22T12:46:52.598Z</time>
      </trkpt>
      <trkpt lat="47.85464" lon="-2.50672">
        <ele>86</ele>
        <time>2023-07-22T12:46:53.598Z</time>
      </trkpt>
      <trkpt lat="47.85463" lon="-2.50672">
        <ele>86</ele>
        <time>2023-07-22T12:46:54.598Z</time>
      </trkpt>
      <trkpt lat="47.85463" lon="-2.50672">
        <ele>86</ele>
        <time>2023-07-22T12:46:55.598Z</time>
      </trkpt>
      <trkpt lat="47.85463" lon="-2.50671">
        <ele>86</ele>
        <time>2023-07-22T12:46:56.599Z</time>
      </trkpt>
      <trkpt lat="47.85462" lon="-2.50671">
        <ele>87</ele>
        <time>2023-07-22T12:46:57.599Z</time>
      </trkpt>
      <trkpt lat="47.8546" lon="-2.50672">
        <ele>87</ele>
        <time>2023-07-22T12:46:58.599Z</time>
      </trkpt>
      <trkpt lat="47.8546" lon="-2.50673">
        <ele>87</ele>
        <time>2023-07-22T12:46:59.598Z</time>
      </trkpt>
      <trkpt lat="47.8546" lon="-2.50674">
        <ele>87</ele>
        <time>2023-07-22T12:47:00.598Z</time>
      </trkpt>
      <trkpt lat="47.85459" lon="-2.50674">
        <ele>87</ele>
        <time>2023-07-22T12:47:01.598Z</time>
      </trkpt>
      <trkpt lat="47.85458" lon="-2.50676">
        <ele>87</ele>
        <time>2023-07-22T12:47:02.598Z</time>
      </trkpt>
      <trkpt lat="47.85456" lon="-2.50677">
        <ele>87</ele>
        <time>2023-07-22T12:47:03.598Z</time>
      </trkpt>
      <trkpt lat="47.85456" lon="-2.50677">
        <ele>87</ele>
        <time>2023-07-22T12:47:04.598Z</time>
      </trkpt>
      <trkpt lat="47.85457" lon="-2.50678">
        <ele>87</ele>
        <time>2023-07-22T12:47:05.598Z</time>
      </trkpt>
      <trkpt lat="47.85456" lon="-2.50678">
        <ele>87</ele>
        <time>2023-07-22T12:47:06.598Z</time>
      </trkpt>
      <trkpt lat="47.85456" lon="-2.50679">
        <ele>88</ele>
        <time>2023-07-22T12:47:07.599Z</time>
      </trkpt>
      <trkpt lat="47.85455" lon="-2.5068">
        <ele>88</ele>
        <time>2023-07-22T12:47:08.599Z</time>
      </trkpt>
      <trkpt lat="47.85454" lon="-2.50681">
        <ele>87</ele>
        <time>2023-07-22T12:47:09.598Z</time>
      </trkpt>
      <trkpt lat="47.85452" lon="-2.50681">
        <ele>87</ele>
        <time>2023-07-22T12:47:10.598Z</time>
      </trkpt>
      <trkpt lat="47.85452" lon="-2.50682">
        <ele>87</ele>
        <time>2023-07-22T12:47:11.598Z</time>
      </trkpt>
      <trkpt lat="47.85452" lon="-2.50682">
        <ele>87</ele>
        <time>2023-07-22T12:47:12.599Z</time>
      </trkpt>
      <trkpt lat="47.85451" lon="-2.50683">
        <ele>87</ele>
        <time>2023-07-22T12:47:13.598Z</time>
      </trkpt>
      <trkpt lat="47.8545" lon="-2.50684">
        <ele>86</ele>
        <time>2023-07-22T12:47:14.599Z</time>
      </trkpt>
      <trkpt lat="47.85449" lon="-2.50686">
        <ele>86</ele>
        <time>2023-07-22T12:47:15.598Z</time>
      </trkpt>
      <trkpt lat="47.85449" lon="-2.50687">
        <ele>86</ele>
        <time>2023-07-22T12:47:16.598Z</time>
      </trkpt>
      <trkpt lat="47.85448" lon="-2.50688">
        <ele>85</ele>
        <time>2023-07-22T12:47:17.598Z</time>
      </trkpt>
      <trkpt lat="47.85448" lon="-2.50689">
        <ele>85</ele>
        <time>2023-07-22T12:47:18.598Z</time>
      </trkpt>
      <trkpt lat="47.85448" lon="-2.50689">
        <ele>85</ele>
        <time>2023-07-22T12:47:19.598Z</time>
      </trkpt>
      <trkpt lat="47.85448" lon="-2.50689">
        <ele>84</ele>
        <time>2023-07-22T12:47:20.598Z</time>
      </trkpt>
      <trkpt lat="47.85447" lon="-2.50689">
        <ele>84</ele>
        <time>2023-07-22T12:47:21.598Z</time>
      </trkpt>
      <trkpt lat="47.85445" lon="-2.5069">
        <ele>84</ele>
        <time>2023-07-22T12:47:22.599Z</time>
      </trkpt>
      <trkpt lat="47.85443" lon="-2.5069">
        <ele>83</ele>
        <time>2023-07-22T12:47:23.599Z</time>
      </trkpt>
      <trkpt lat="47.85442" lon="-2.5069">
        <ele>83</ele>
        <time>2023-07-22T12:47:24.599Z</time>
      </trkpt>
      <trkpt lat="47.85441" lon="-2.5069">
        <ele>83</ele>
        <time>2023-07-22T12:47:25.599Z</time>
      </trkpt>
      <trkpt lat="47.85439" lon="-2.50691">
        <ele>82</ele>
        <time>2023-07-22T12:47:26.599Z</time>
      </trkpt>
      <trkpt lat="47.85438" lon="-2.50693">
        <ele>82</ele>
        <time>2023-07-22T12:47:27.598Z</time>
      </trkpt>
      <trkpt lat="47.85437" lon="-2.50694">
        <ele>82</ele>
        <time>2023-07-22T12:47:28.599Z</time>
      </trkpt>
      <trkpt lat="47.85436" lon="-2.50694">
        <ele>81</ele>
        <time>2023-07-22T12:47:29.599Z</time>
      </trkpt>
      <trkpt lat="47.85436" lon="-2.50693">
        <ele>81</ele>
        <time>2023-07-22T12:47:30.599Z</time>
      </trkpt>
      <trkpt lat="47.85435" lon="-2.50693">
        <ele>81</ele>
        <time>2023-07-22T12:47:31.598Z</time>
      </trkpt>
      <trkpt lat="47.85436" lon="-2.50693">
        <ele>80</ele>
        <time>2023-07-22T12:47:32.598Z</time>
      </trkpt>
      <trkpt lat="47.85435" lon="-2.50694">
        <ele>80</ele>
        <time>2023-07-22T12:47:33.599Z</time>
      </trkpt>
      <trkpt lat="47.85436" lon="-2.50694">
        <ele>80</ele>
        <time>2023-07-22T12:47:34.598Z</time>
      </trkpt>
      <trkpt lat="47.85437" lon="-2.50693">
        <ele>79</ele>
        <time>2023-07-22T12:47:35.598Z</time>
      </trkpt>
      <trkpt lat="47.85436" lon="-2.50694">
        <ele>79</ele>
        <time>2023-07-22T12:47:36.599Z</time>
      </trkpt>
      <trkpt lat="47.85436" lon="-2.50694">
        <ele>79</ele>
        <time>2023-07-22T12:47:37.599Z</time>
      </trkpt>
      <trkpt lat="47.85435" lon="-2.50693">
        <ele>79</ele>
        <time>2023-07-22T12:47:38.599Z</time>
      </trkpt>
      <trkpt lat="47.85434" lon="-2.50693">
        <ele>79</ele>
        <time>2023-07-22T12:47:39.599Z</time>
      </trkpt>
      <trkpt lat="47.85432" lon="-2.50693">
        <ele>79</ele>
        <time>2023-07-22T12:47:40.598Z</time>
      </trkpt>
      <trkpt lat="47.8543" lon="-2.50693">
        <ele>79</ele>
        <time>2023-07-22T12:47:41.598Z</time>
      </trkpt>
      <trkpt lat="47.85429" lon="-2.50693">
        <ele>79</ele>
        <time>2023-07-22T12:47:42.599Z</time>
      </trkpt>
      <trkpt lat="47.85428" lon="-2.50691">
        <ele>79</ele>
        <time>2023-07-22T12:47:43.599Z</time>
      </trkpt>
      <trkpt lat="47.85427" lon="-2.5069">
        <ele>79</ele>
        <time>2023-07-22T12:47:44.599Z</time>
      </trkpt>
      <trkpt lat="47.85426" lon="-2.50689">
        <ele>79</ele>
        <time>2023-07-22T12:47:45.599Z</time>
      </trkpt>
      <trkpt lat="47.85426" lon="-2.50688">
        <ele>79</ele>
        <time>2023-07-22T12:47:46.598Z</time>
      </trkpt>
      <trkpt lat="47.85425" lon="-2.50688">
        <ele>79</ele>
        <time>2023-07-22T12:47:47.598Z</time>
      </trkpt>
      <trkpt lat="47.85423" lon="-2.50688">
        <ele>79</ele>
        <time>2023-07-22T12:47:48.598Z</time>
      </trkpt>
      <trkpt lat="47.8542" lon="-2.50689">
        <ele>79</ele>
        <time>2023-07-22T12:47:49.598Z</time>
      </trkpt>
      <trkpt lat="47.85419" lon="-2.5069">
        <ele>78</ele>
        <time>2023-07-22T12:47:50.598Z</time>
      </trkpt>
      <trkpt lat="47.85418" lon="-2.50691">
        <ele>79</ele>
        <time>2023-07-22T12:47:51.599Z</time>
      </trkpt>
      <trkpt lat="47.85416" lon="-2.50692">
        <ele>79</ele>
        <time>2023-07-22T12:47:52.598Z</time>
      </trkpt>
      <trkpt lat="47.85415" lon="-2.50693">
        <ele>79</ele>
        <time>2023-07-22T12:47:53.598Z</time>
      </trkpt>
      <trkpt lat="47.85413" lon="-2.50694">
        <ele>79</ele>
        <time>2023-07-22T12:47:54.598Z</time>
      </trkpt>
      <trkpt lat="47.85411" lon="-2.50695">
        <ele>79</ele>
        <time>2023-07-22T12:47:55.598Z</time>
      </trkpt>
      <trkpt lat="47.8541" lon="-2.50696">
        <ele>79</ele>
        <time>2023-07-22T12:47:56.599Z</time>
      </trkpt>
      <trkpt lat="47.85409" lon="-2.50698">
        <ele>79</ele>
        <time>2023-07-22T12:47:57.598Z</time>
      </trkpt>
      <trkpt lat="47.85408" lon="-2.50698">
        <ele>80</ele>
        <time>2023-07-22T12:47:58.599Z</time>
      </trkpt>
      <trkpt lat="47.85407" lon="-2.50699">
        <ele>80</ele>
        <time>2023-07-22T12:47:59.599Z</time>
      </trkpt>
      <trkpt lat="47.85406" lon="-2.507">
        <ele>80</ele>
        <time>2023-07-22T12:48:00.598Z</time>
      </trkpt>
      <trkpt lat="47.85405" lon="-2.50701">
        <ele>80</ele>
        <time>2023-07-22T12:48:01.598Z</time>
      </trkpt>
      <trkpt lat="47.85404" lon="-2.50702">
        <ele>80</ele>
        <time>2023-07-22T12:48:02.598Z</time>
      </trkpt>
      <trkpt lat="47.85403" lon="-2.50703">
        <ele>80</ele>
        <time>2023-07-22T12:48:03.598Z</time>
      </trkpt>
      <trkpt lat="47.85402" lon="-2.50704">
        <ele>80</ele>
        <time>2023-07-22T12:48:04.598Z</time>
      </trkpt>
      <trkpt lat="47.85401" lon="-2.50705">
        <ele>80</ele>
        <time>2023-07-22T12:48:05.598Z</time>
      </trkpt>
      <trkpt lat="47.85401" lon="-2.50705">
        <ele>80</ele>
        <time>2023-07-22T12:48:06.599Z</time>
      </trkpt>
      <trkpt lat="47.854" lon="-2.50705">
        <ele>80</ele>
        <time>2023-07-22T12:48:07.599Z</time>
      </trkpt>
      <trkpt lat="47.85399" lon="-2.50706">
        <ele>80</ele>
        <time>2023-07-22T12:48:08.599Z</time>
      </trkpt>
      <trkpt lat="47.85396" lon="-2.50707">
        <ele>79</ele>
        <time>2023-07-22T12:48:09.598Z</time>
      </trkpt>
      <trkpt lat="47.85395" lon="-2.50706">
        <ele>79</ele>
        <time>2023-07-22T12:48:10.598Z</time>
      </trkpt>
      <trkpt lat="47.85393" lon="-2.50707">
        <ele>79</ele>
        <time>2023-07-22T12:48:11.598Z</time>
      </trkpt>
      <trkpt lat="47.85392" lon="-2.50707">
        <ele>79</ele>
        <time>2023-07-22T12:48:12.599Z</time>
      </trkpt>
      <trkpt lat="47.85391" lon="-2.50707">
        <ele>79</ele>
        <time>2023-07-22T12:48:13.599Z</time>
      </trkpt>
      <trkpt lat="47.85391" lon="-2.50708">
        <ele>79</ele>
        <time>2023-07-22T12:48:14.599Z</time>
      </trkpt>
      <trkpt lat="47.8539" lon="-2.50709">
        <ele>79</ele>
        <time>2023-07-22T12:48:15.599Z</time>
      </trkpt>
      <trkpt lat="47.85389" lon="-2.5071">
        <ele>78</ele>
        <time>2023-07-22T12:48:16.598Z</time>
      </trkpt>
      <trkpt lat="47.85387" lon="-2.50711">
        <ele>78</ele>
        <time>2023-07-22T12:48:17.599Z</time>
      </trkpt>
      <trkpt lat="47.85385" lon="-2.50713">
        <ele>78</ele>
        <time>2023-07-22T12:48:18.599Z</time>
      </trkpt>
      <trkpt lat="47.85383" lon="-2.50715">
        <ele>78</ele>
        <time>2023-07-22T12:48:19.598Z</time>
      </trkpt>
      <trkpt lat="47.85382" lon="-2.50716">
        <ele>78</ele>
        <time>2023-07-22T12:48:20.598Z</time>
      </trkpt>
      <trkpt lat="47.85381" lon="-2.50716">
        <ele>78</ele>
        <time>2023-07-22T12:48:21.598Z</time>
      </trkpt>
      <trkpt lat="47.8538" lon="-2.50717">
        <ele>78</ele>
        <time>2023-07-22T12:48:22.599Z</time>
      </trkpt>
      <trkpt lat="47.85379" lon="-2.50717">
        <ele>78</ele>
        <time>2023-07-22T12:48:23.598Z</time>
      </trkpt>
      <trkpt lat="47.85378" lon="-2.50717">
        <ele>78</ele>
        <time>2023-07-22T12:48:24.598Z</time>
      </trkpt>
      <trkpt lat="47.85377" lon="-2.50717">
        <ele>78</ele>
        <time>2023-07-22T12:48:25.598Z</time>
      </trkpt>
      <trkpt lat="47.85377" lon="-2.50718">
        <ele>78</ele>
        <time>2023-07-22T12:48:26.599Z</time>
      </trkpt>
      <trkpt lat="47.85376" lon="-2.50718">
        <ele>78</ele>
        <time>2023-07-22T12:48:27.599Z</time>
      </trkpt>
      <trkpt lat="47.85376" lon="-2.50719">
        <ele>77</ele>
        <time>2023-07-22T12:48:28.598Z</time>
      </trkpt>
      <trkpt lat="47.85376" lon="-2.50719">
        <ele>77</ele>
        <time>2023-07-22T12:48:29.598Z</time>
      </trkpt>
      <trkpt lat="47.85375" lon="-2.50718">
        <ele>77</ele>
        <time>2023-07-22T12:48:30.598Z</time>
      </trkpt>
      <trkpt lat="47.85375" lon="-2.50717">
        <ele>76</ele>
        <time>2023-07-22T12:48:31.598Z</time>
      </trkpt>
      <trkpt lat="47.85374" lon="-2.50717">
        <ele>76</ele>
        <time>2023-07-22T12:48:32.598Z</time>
      </trkpt>
      <trkpt lat="47.85374" lon="-2.50717">
        <ele>76</ele>
        <time>2023-07-22T12:48:33.598Z</time>
      </trkpt>
      <trkpt lat="47.85374" lon="-2.50716">
        <ele>76</ele>
        <time>2023-07-22T12:48:34.598Z</time>
      </trkpt>
      <trkpt lat="47.85374" lon="-2.50716">
        <ele>76</ele>
        <time>2023-07-22T12:48:35.599Z</time>
      </trkpt>
      <trkpt lat="47.85374" lon="-2.50716">
        <ele>76</ele>
        <time>2023-07-22T12:48:36.598Z</time>
      </trkpt>
      <trkpt lat="47.85371" lon="-2.50718">
        <ele>84</ele>
        <time>2023-07-22T12:49:01.410Z</time>
      </trkpt>
      <trkpt lat="47.85371" lon="-2.50718">
        <ele>84</ele>
        <time>2023-07-22T12:49:02.409Z</time>
      </trkpt>
      <trkpt lat="47.85371" lon="-2.50718">
        <ele>84</ele>
        <time>2023-07-22T12:49:03.410Z</time>
      </trkpt>
      <trkpt lat="47.85371" lon="-2.50718">
        <ele>84</ele>
        <time>2023-07-22T12:49:04.410Z</time>
      </trkpt>
      <trkpt lat="47.85371" lon="-2.50718">
        <ele>84</ele>
        <time>2023-07-22T12:49:05.409Z</time>
      </trkpt>
      <trkpt lat="47.85371" lon="-2.50719">
        <ele>83</ele>
        <time>2023-07-22T12:49:06.409Z</time>
      </trkpt>
      <trkpt lat="47.85371" lon="-2.5072">
        <ele>83</ele>
        <time>2023-07-22T12:49:07.409Z</time>
      </trkpt>
      <trkpt lat="47.8537" lon="-2.5072">
        <ele>83</ele>
        <time>2023-07-22T12:49:08.409Z</time>
      </trkpt>
      <trkpt lat="47.8537" lon="-2.5072">
        <ele>83</ele>
        <time>2023-07-22T12:49:09.409Z</time>
      </trkpt>
      <trkpt lat="47.8537" lon="-2.5072">
        <ele>82</ele>
        <time>2023-07-22T12:49:10.409Z</time>
      </trkpt>
      <trkpt lat="47.8537" lon="-2.5072">
        <ele>82</ele>
        <time>2023-07-22T12:49:11.409Z</time>
      </trkpt>
      <trkpt lat="47.85369" lon="-2.5072">
        <ele>82</ele>
        <time>2023-07-22T12:49:12.410Z</time>
      </trkpt>
      <trkpt lat="47.85369" lon="-2.5072">
        <ele>82</ele>
        <time>2023-07-22T12:49:13.409Z</time>
      </trkpt>
      <trkpt lat="47.85368" lon="-2.5072">
        <ele>82</ele>
        <time>2023-07-22T12:49:14.410Z</time>
      </trkpt>
      <trkpt lat="47.85368" lon="-2.5072">
        <ele>81</ele>
        <time>2023-07-22T12:49:15.410Z</time>
      </trkpt>
      <trkpt lat="47.85367" lon="-2.5072">
        <ele>81</ele>
        <time>2023-07-22T12:49:16.409Z</time>
      </trkpt>
      <trkpt lat="47.85367" lon="-2.50719">
        <ele>81</ele>
        <time>2023-07-22T12:49:17.410Z</time>
      </trkpt>
      <trkpt lat="47.85367" lon="-2.50718">
        <ele>81</ele>
        <time>2023-07-22T12:49:18.409Z</time>
      </trkpt>
      <trkpt lat="47.85366" lon="-2.50718">
        <ele>81</ele>
        <time>2023-07-22T12:49:19.409Z</time>
      </trkpt>
      <trkpt lat="47.85366" lon="-2.50718">
        <ele>81</ele>
        <time>2023-07-22T12:49:20.409Z</time>
      </trkpt>
      <trkpt lat="47.85366" lon="-2.50717">
        <ele>81</ele>
        <time>2023-07-22T12:49:21.409Z</time>
      </trkpt>
      <trkpt lat="47.85366" lon="-2.50717">
        <ele>81</ele>
        <time>2023-07-22T12:49:22.410Z</time>
      </trkpt>
      <trkpt lat="47.85365" lon="-2.50717">
        <ele>81</ele>
        <time>2023-07-22T12:49:23.410Z</time>
      </trkpt>
      <trkpt lat="47.85365" lon="-2.50717">
        <ele>81</ele>
        <time>2023-07-22T12:49:24.410Z</time>
      </trkpt>
      <trkpt lat="47.85365" lon="-2.50716">
        <ele>80</ele>
        <time>2023-07-22T12:49:25.410Z</time>
      </trkpt>
      <trkpt lat="47.85365" lon="-2.50715">
        <ele>80</ele>
        <time>2023-07-22T12:49:26.409Z</time>
      </trkpt>
      <trkpt lat="47.85366" lon="-2.50714">
        <ele>81</ele>
        <time>2023-07-22T12:49:27.409Z</time>
      </trkpt>
      <trkpt lat="47.85366" lon="-2.50713">
        <ele>81</ele>
        <time>2023-07-22T12:49:28.409Z</time>
      </trkpt>
      <trkpt lat="47.85366" lon="-2.50712">
        <ele>81</ele>
        <time>2023-07-22T12:49:29.410Z</time>
      </trkpt>
      <trkpt lat="47.85366" lon="-2.5071">
        <ele>81</ele>
        <time>2023-07-22T12:49:30.409Z</time>
      </trkpt>
      <trkpt lat="47.85366" lon="-2.50709">
        <ele>81</ele>
        <time>2023-07-22T12:49:31.410Z</time>
      </trkpt>
      <trkpt lat="47.85366" lon="-2.50708">
        <ele>81</ele>
        <time>2023-07-22T12:49:32.410Z</time>
      </trkpt>
      <trkpt lat="47.85365" lon="-2.50706">
        <ele>81</ele>
        <time>2023-07-22T12:49:33.409Z</time>
      </trkpt>
      <trkpt lat="47.85365" lon="-2.50705">
        <ele>81</ele>
        <time>2023-07-22T12:49:34.410Z</time>
      </trkpt>
      <trkpt lat="47.85365" lon="-2.50704">
        <ele>81</ele>
        <time>2023-07-22T12:49:35.409Z</time>
      </trkpt>
      <trkpt lat="47.85364" lon="-2.50702">
        <ele>81</ele>
        <time>2023-07-22T12:49:36.409Z</time>
      </trkpt>
      <trkpt lat="47.85364" lon="-2.50701">
        <ele>81</ele>
        <time>2023-07-22T12:49:37.409Z</time>
      </trkpt>
      <trkpt lat="47.85364" lon="-2.50699">
        <ele>81</ele>
        <time>2023-07-22T12:49:38.410Z</time>
      </trkpt>
      <trkpt lat="47.85363" lon="-2.50698">
        <ele>81</ele>
        <time>2023-07-22T12:49:39.409Z</time>
      </trkpt>
      <trkpt lat="47.85363" lon="-2.50696">
        <ele>80</ele>
        <time>2023-07-22T12:49:40.410Z</time>
      </trkpt>
      <trkpt lat="47.85362" lon="-2.50695">
        <ele>80</ele>
        <time>2023-07-22T12:49:41.409Z</time>
      </trkpt>
      <trkpt lat="47.85363" lon="-2.50693">
        <ele>80</ele>
        <time>2023-07-22T12:49:42.410Z</time>
      </trkpt>
      <trkpt lat="47.85363" lon="-2.50691">
        <ele>80</ele>
        <time>2023-07-22T12:49:43.409Z</time>
      </trkpt>
      <trkpt lat="47.85364" lon="-2.5069">
        <ele>80</ele>
        <time>2023-07-22T12:49:44.409Z</time>
      </trkpt>
      <trkpt lat="47.85364" lon="-2.50688">
        <ele>80</ele>
        <time>2023-07-22T12:49:45.409Z</time>
      </trkpt>
      <trkpt lat="47.85363" lon="-2.50687">
        <ele>80</ele>
        <time>2023-07-22T12:49:46.409Z</time>
      </trkpt>
      <trkpt lat="47.85363" lon="-2.50686">
        <ele>80</ele>
        <time>2023-07-22T12:49:47.410Z</time>
      </trkpt>
      <trkpt lat="47.85363" lon="-2.50685">
        <ele>80</ele>
        <time>2023-07-22T12:49:48.409Z</time>
      </trkpt>
      <trkpt lat="47.85363" lon="-2.50683">
        <ele>80</ele>
        <time>2023-07-22T12:49:49.410Z</time>
      </trkpt>
      <trkpt lat="47.85363" lon="-2.50682">
        <ele>80</ele>
        <time>2023-07-22T12:49:50.410Z</time>
      </trkpt>
      <trkpt lat="47.85362" lon="-2.5068">
        <ele>79</ele>
        <time>2023-07-22T12:49:51.409Z</time>
      </trkpt>
      <trkpt lat="47.85362" lon="-2.50679">
        <ele>79</ele>
        <time>2023-07-22T12:49:52.409Z</time>
      </trkpt>
      <trkpt lat="47.85361" lon="-2.50677">
        <ele>79</ele>
        <time>2023-07-22T12:49:53.409Z</time>
      </trkpt>
      <trkpt lat="47.85361" lon="-2.50676">
        <ele>79</ele>
        <time>2023-07-22T12:49:54.409Z</time>
      </trkpt>
      <trkpt lat="47.8536" lon="-2.50675">
        <ele>78</ele>
        <time>2023-07-22T12:49:55.409Z</time>
      </trkpt>
      <trkpt lat="47.8536" lon="-2.50674">
        <ele>78</ele>
        <time>2023-07-22T12:49:56.409Z</time>
      </trkpt>
      <trkpt lat="47.8536" lon="-2.50672">
        <ele>78</ele>
        <time>2023-07-22T12:49:57.410Z</time>
      </trkpt>
      <trkpt lat="47.8536" lon="-2.50671">
        <ele>77</ele>
        <time>2023-07-22T12:49:58.409Z</time>
      </trkpt>
      <trkpt lat="47.8536" lon="-2.5067">
        <ele>77</ele>
        <time>2023-07-22T12:49:59.409Z</time>
      </trkpt>
      <trkpt lat="47.8536" lon="-2.50668">
        <ele>76</ele>
        <time>2023-07-22T12:50:00.410Z</time>
      </trkpt>
      <trkpt lat="47.8536" lon="-2.50667">
        <ele>76</ele>
        <time>2023-07-22T12:50:01.410Z</time>
      </trkpt>
      <trkpt lat="47.85359" lon="-2.50666">
        <ele>76</ele>
        <time>2023-07-22T12:50:02.409Z</time>
      </trkpt>
      <trkpt lat="47.85359" lon="-2.50664">
        <ele>75</ele>
        <time>2023-07-22T12:50:03.410Z</time>
      </trkpt>
      <trkpt lat="47.85359" lon="-2.50662">
        <ele>75</ele>
        <time>2023-07-22T12:50:04.409Z</time>
      </trkpt>
      <trkpt lat="47.85359" lon="-2.50661">
        <ele>74</ele>
        <time>2023-07-22T12:50:05.410Z</time>
      </trkpt>
      <trkpt lat="47.85357" lon="-2.5066">
        <ele>74</ele>
        <time>2023-07-22T12:50:06.410Z</time>
      </trkpt>
      <trkpt lat="47.85356" lon="-2.50658">
        <ele>73</ele>
        <time>2023-07-22T12:50:07.409Z</time>
      </trkpt>
      <trkpt lat="47.85356" lon="-2.50657">
        <ele>73</ele>
        <time>2023-07-22T12:50:08.410Z</time>
      </trkpt>
      <trkpt lat="47.85356" lon="-2.50655">
        <ele>73</ele>
        <time>2023-07-22T12:50:09.409Z</time>
      </trkpt>
      <trkpt lat="47.85356" lon="-2.50653">
        <ele>72</ele>
        <time>2023-07-22T12:50:10.410Z</time>
      </trkpt>
      <trkpt lat="47.85357" lon="-2.5065">
        <ele>73</ele>
        <time>2023-07-22T12:50:11.409Z</time>
      </trkpt>
      <trkpt lat="47.85357" lon="-2.50649">
        <ele>73</ele>
        <time>2023-07-22T12:50:12.410Z</time>
      </trkpt>
      <trkpt lat="47.85357" lon="-2.50647">
        <ele>73</ele>
        <time>2023-07-22T12:50:13.409Z</time>
      </trkpt>
      <trkpt lat="47.85356" lon="-2.50646">
        <ele>73</ele>
        <time>2023-07-22T12:50:14.410Z</time>
      </trkpt>
      <trkpt lat="47.85356" lon="-2.50645">
        <ele>73</ele>
        <time>2023-07-22T12:50:15.409Z</time>
      </trkpt>
      <trkpt lat="47.85356" lon="-2.50643">
        <ele>73</ele>
        <time>2023-07-22T12:50:16.410Z</time>
      </trkpt>
      <trkpt lat="47.85355" lon="-2.50641">
        <ele>73</ele>
        <time>2023-07-22T12:50:17.409Z</time>
      </trkpt>
      <trkpt lat="47.85355" lon="-2.5064">
        <ele>73</ele>
        <time>2023-07-22T12:50:18.409Z</time>
      </trkpt>
      <trkpt lat="47.85355" lon="-2.50639">
        <ele>73</ele>
        <time>2023-07-22T12:50:19.409Z</time>
      </trkpt>
      <trkpt lat="47.85355" lon="-2.50638">
        <ele>73</ele>
        <time>2023-07-22T12:50:20.410Z</time>
      </trkpt>
      <trkpt lat="47.85356" lon="-2.50637">
        <ele>73</ele>
        <time>2023-07-22T12:50:21.410Z</time>
      </trkpt>
      <trkpt lat="47.85356" lon="-2.50636">
        <ele>73</ele>
        <time>2023-07-22T12:50:22.410Z</time>
      </trkpt>
      <trkpt lat="47.85357" lon="-2.50634">
        <ele>73</ele>
        <time>2023-07-22T12:50:23.410Z</time>
      </trkpt>
      <trkpt lat="47.85357" lon="-2.50633">
        <ele>74</ele>
        <time>2023-07-22T12:50:24.409Z</time>
      </trkpt>
      <trkpt lat="47.85358" lon="-2.50632">
        <ele>74</ele>
        <time>2023-07-22T12:50:25.410Z</time>
      </trkpt>
      <trkpt lat="47.85358" lon="-2.50631">
        <ele>74</ele>
        <time>2023-07-22T12:50:26.409Z</time>
      </trkpt>
      <trkpt lat="47.85358" lon="-2.50631">
        <ele>74</ele>
        <time>2023-07-22T12:50:27.410Z</time>
      </trkpt>
      <trkpt lat="47.85358" lon="-2.50629">
        <ele>74</ele>
        <time>2023-07-22T12:50:28.409Z</time>
      </trkpt>
      <trkpt lat="47.85358" lon="-2.50628">
        <ele>75</ele>
        <time>2023-07-22T12:50:29.410Z</time>
      </trkpt>
      <trkpt lat="47.85359" lon="-2.50627">
        <ele>75</ele>
        <time>2023-07-22T12:50:30.409Z</time>
      </trkpt>
      <trkpt lat="47.85359" lon="-2.50625">
        <ele>75</ele>
        <time>2023-07-22T12:50:31.409Z</time>
      </trkpt>
      <trkpt lat="47.85358" lon="-2.50624">
        <ele>75</ele>
        <time>2023-07-22T12:50:32.409Z</time>
      </trkpt>
      <trkpt lat="47.85358" lon="-2.50624">
        <ele>75</ele>
        <time>2023-07-22T12:50:33.409Z</time>
      </trkpt>
      <trkpt lat="47.85358" lon="-2.50623">
        <ele>74</ele>
        <time>2023-07-22T12:50:34.409Z</time>
      </trkpt>
      <trkpt lat="47.85358" lon="-2.50623">
        <ele>74</ele>
        <time>2023-07-22T12:50:35.409Z</time>
      </trkpt>
      <trkpt lat="47.85358" lon="-2.5062">
        <ele>71</ele>
        <time>2023-07-22T12:50:44.756Z</time>
      </trkpt>
      <trkpt lat="47.85359" lon="-2.50619">
        <ele>71</ele>
        <time>2023-07-22T12:50:45.756Z</time>
      </trkpt>
      <trkpt lat="47.85358" lon="-2.50617">
        <ele>70</ele>
        <time>2023-07-22T12:50:46.756Z</time>
      </trkpt>
      <trkpt lat="47.85358" lon="-2.50616">
        <ele>69</ele>
        <time>2023-07-22T12:50:47.757Z</time>
      </trkpt>
      <trkpt lat="47.85358" lon="-2.50615">
        <ele>69</ele>
        <time>2023-07-22T12:50:48.756Z</time>
      </trkpt>
      <trkpt lat="47.85358" lon="-2.50613">
        <ele>68</ele>
        <time>2023-07-22T12:50:49.756Z</time>
      </trkpt>
      <trkpt lat="47.85358" lon="-2.50612">
        <ele>68</ele>
        <time>2023-07-22T12:50:50.756Z</time>
      </trkpt>
      <trkpt lat="47.85358" lon="-2.5061">
        <ele>67</ele>
        <time>2023-07-22T12:50:51.756Z</time>
      </trkpt>
      <trkpt lat="47.85358" lon="-2.50609">
        <ele>66</ele>
        <time>2023-07-22T12:50:52.756Z</time>
      </trkpt>
      <trkpt lat="47.85357" lon="-2.50608">
        <ele>66</ele>
        <time>2023-07-22T12:50:53.757Z</time>
      </trkpt>
      <trkpt lat="47.85358" lon="-2.50606">
        <ele>65</ele>
        <time>2023-07-22T12:50:54.756Z</time>
      </trkpt>
      <trkpt lat="47.85358" lon="-2.50605">
        <ele>64</ele>
        <time>2023-07-22T12:50:55.756Z</time>
      </trkpt>
      <trkpt lat="47.85358" lon="-2.50604">
        <ele>64</ele>
        <time>2023-07-22T12:50:56.757Z</time>
      </trkpt>
      <trkpt lat="47.85358" lon="-2.50602">
        <ele>64</ele>
        <time>2023-07-22T12:50:57.756Z</time>
      </trkpt>
      <trkpt lat="47.85358" lon="-2.506">
        <ele>64</ele>
        <time>2023-07-22T12:50:58.756Z</time>
      </trkpt>
      <trkpt lat="47.85358" lon="-2.50599">
        <ele>64</ele>
        <time>2023-07-22T12:50:59.756Z</time>
      </trkpt>
      <trkpt lat="47.85358" lon="-2.50597">
        <ele>64</ele>
        <time>2023-07-22T12:51:00.756Z</time>
      </trkpt>
      <trkpt lat="47.85357" lon="-2.50596">
        <ele>64</ele>
        <time>2023-07-22T12:51:01.756Z</time>
      </trkpt>
      <trkpt lat="47.85358" lon="-2.50594">
        <ele>63</ele>
        <time>2023-07-22T12:51:02.757Z</time>
      </trkpt>
      <trkpt lat="47.85358" lon="-2.50593">
        <ele>63</ele>
        <time>2023-07-22T12:51:03.757Z</time>
      </trkpt>
      <trkpt lat="47.85358" lon="-2.50592">
        <ele>64</ele>
        <time>2023-07-22T12:51:04.756Z</time>
      </trkpt>
      <trkpt lat="47.85358" lon="-2.50591">
        <ele>64</ele>
        <time>2023-07-22T12:51:05.757Z</time>
      </trkpt>
      <trkpt lat="47.85359" lon="-2.50589">
        <ele>65</ele>
        <time>2023-07-22T12:51:06.757Z</time>
      </trkpt>
      <trkpt lat="47.8536" lon="-2.50588">
        <ele>65</ele>
        <time>2023-07-22T12:51:07.756Z</time>
      </trkpt>
      <trkpt lat="47.85361" lon="-2.50587">
        <ele>66</ele>
        <time>2023-07-22T12:51:08.757Z</time>
      </trkpt>
      <trkpt lat="47.85362" lon="-2.50586">
        <ele>67</ele>
        <time>2023-07-22T12:51:09.756Z</time>
      </trkpt>
      <trkpt lat="47.85362" lon="-2.50585">
        <ele>67</ele>
        <time>2023-07-22T12:51:10.757Z</time>
      </trkpt>
      <trkpt lat="47.85363" lon="-2.50584">
        <ele>68</ele>
        <time>2023-07-22T12:51:11.756Z</time>
      </trkpt>
      <trkpt lat="47.85363" lon="-2.50583">
        <ele>68</ele>
        <time>2023-07-22T12:51:12.756Z</time>
      </trkpt>
      <trkpt lat="47.85364" lon="-2.50581">
        <ele>68</ele>
        <time>2023-07-22T12:51:13.756Z</time>
      </trkpt>
      <trkpt lat="47.85365" lon="-2.50578">
        <ele>68</ele>
        <time>2023-07-22T12:51:14.757Z</time>
      </trkpt>
      <trkpt lat="47.85365" lon="-2.50575">
        <ele>69</ele>
        <time>2023-07-22T12:51:15.757Z</time>
      </trkpt>
      <trkpt lat="47.85364" lon="-2.50573">
        <ele>69</ele>
        <time>2023-07-22T12:51:16.757Z</time>
      </trkpt>
      <trkpt lat="47.85365" lon="-2.50571">
        <ele>70</ele>
        <time>2023-07-22T12:51:17.757Z</time>
      </trkpt>
      <trkpt lat="47.85365" lon="-2.5057">
        <ele>70</ele>
        <time>2023-07-22T12:51:18.756Z</time>
      </trkpt>
      <trkpt lat="47.85365" lon="-2.50568">
        <ele>71</ele>
        <time>2023-07-22T12:51:19.757Z</time>
      </trkpt>
      <trkpt lat="47.85365" lon="-2.50567">
        <ele>71</ele>
        <time>2023-07-22T12:51:20.756Z</time>
      </trkpt>
      <trkpt lat="47.85366" lon="-2.50566">
        <ele>71</ele>
        <time>2023-07-22T12:51:21.756Z</time>
      </trkpt>
      <trkpt lat="47.85366" lon="-2.50564">
        <ele>72</ele>
        <time>2023-07-22T12:51:22.757Z</time>
      </trkpt>
      <trkpt lat="47.85367" lon="-2.50562">
        <ele>72</ele>
        <time>2023-07-22T12:51:23.757Z</time>
      </trkpt>
      <trkpt lat="47.85367" lon="-2.5056">
        <ele>72</ele>
        <time>2023-07-22T12:51:24.756Z</time>
      </trkpt>
      <trkpt lat="47.85368" lon="-2.50559">
        <ele>72</ele>
        <time>2023-07-22T12:51:25.757Z</time>
      </trkpt>
      <trkpt lat="47.85369" lon="-2.50557">
        <ele>72</ele>
        <time>2023-07-22T12:51:26.757Z</time>
      </trkpt>
      <trkpt lat="47.8537" lon="-2.50556">
        <ele>73</ele>
        <time>2023-07-22T12:51:27.756Z</time>
      </trkpt>
      <trkpt lat="47.85371" lon="-2.50554">
        <ele>73</ele>
        <time>2023-07-22T12:51:28.756Z</time>
      </trkpt>
      <trkpt lat="47.85372" lon="-2.50553">
        <ele>73</ele>
        <time>2023-07-22T12:51:29.757Z</time>
      </trkpt>
      <trkpt lat="47.85372" lon="-2.50552">
        <ele>74</ele>
        <time>2023-07-22T12:51:30.757Z</time>
      </trkpt>
      <trkpt lat="47.85372" lon="-2.50551">
        <ele>74</ele>
        <time>2023-07-22T12:51:31.756Z</time>
      </trkpt>
      <trkpt lat="47.85373" lon="-2.50549">
        <ele>74</ele>
        <time>2023-07-22T12:51:32.757Z</time>
      </trkpt>
      <trkpt lat="47.85374" lon="-2.50548">
        <ele>74</ele>
        <time>2023-07-22T12:51:33.756Z</time>
      </trkpt>
      <trkpt lat="47.85375" lon="-2.50547">
        <ele>75</ele>
        <time>2023-07-22T12:51:34.756Z</time>
      </trkpt>
      <trkpt lat="47.85376" lon="-2.50546">
        <ele>75</ele>
        <time>2023-07-22T12:51:35.756Z</time>
      </trkpt>
      <trkpt lat="47.85376" lon="-2.50545">
        <ele>75</ele>
        <time>2023-07-22T12:51:36.757Z</time>
      </trkpt>
      <trkpt lat="47.85377" lon="-2.50544">
        <ele>75</ele>
        <time>2023-07-22T12:51:37.756Z</time>
      </trkpt>
      <trkpt lat="47.85377" lon="-2.50543">
        <ele>75</ele>
        <time>2023-07-22T12:51:38.757Z</time>
      </trkpt>
      <trkpt lat="47.85377" lon="-2.50543">
        <ele>75</ele>
        <time>2023-07-22T12:51:39.757Z</time>
      </trkpt>
      <trkpt lat="47.85376" lon="-2.50542">
        <ele>75</ele>
        <time>2023-07-22T12:51:40.756Z</time>
      </trkpt>
      <trkpt lat="47.85376" lon="-2.50541">
        <ele>75</ele>
        <time>2023-07-22T12:51:41.757Z</time>
      </trkpt>
      <trkpt lat="47.85376" lon="-2.5054">
        <ele>75</ele>
        <time>2023-07-22T12:51:42.756Z</time>
      </trkpt>
      <trkpt lat="47.85376" lon="-2.50539">
        <ele>75</ele>
        <time>2023-07-22T12:51:43.757Z</time>
      </trkpt>
      <trkpt lat="47.85377" lon="-2.50538">
        <ele>75</ele>
        <time>2023-07-22T12:51:44.757Z</time>
      </trkpt>
      <trkpt lat="47.85377" lon="-2.50538">
        <ele>75</ele>
        <time>2023-07-22T12:51:45.756Z</time>
      </trkpt>
      <trkpt lat="47.85378" lon="-2.50537">
        <ele>75</ele>
        <time>2023-07-22T12:51:46.756Z</time>
      </trkpt>
      <trkpt lat="47.8538" lon="-2.50536">
        <ele>75</ele>
        <time>2023-07-22T12:51:47.756Z</time>
      </trkpt>
      <trkpt lat="47.8538" lon="-2.50534">
        <ele>75</ele>
        <time>2023-07-22T12:51:48.756Z</time>
      </trkpt>
      <trkpt lat="47.85381" lon="-2.50532">
        <ele>75</ele>
        <time>2023-07-22T12:51:49.757Z</time>
      </trkpt>
      <trkpt lat="47.85382" lon="-2.50531">
        <ele>74</ele>
        <time>2023-07-22T12:51:50.757Z</time>
      </trkpt>
      <trkpt lat="47.85383" lon="-2.50528">
        <ele>74</ele>
        <time>2023-07-22T12:51:51.756Z</time>
      </trkpt>
      <trkpt lat="47.85383" lon="-2.50526">
        <ele>74</ele>
        <time>2023-07-22T12:51:52.757Z</time>
      </trkpt>
      <trkpt lat="47.85384" lon="-2.50524">
        <ele>73</ele>
        <time>2023-07-22T12:51:53.757Z</time>
      </trkpt>
      <trkpt lat="47.85385" lon="-2.50522">
        <ele>73</ele>
        <time>2023-07-22T12:51:54.757Z</time>
      </trkpt>
      <trkpt lat="47.85386" lon="-2.5052">
        <ele>73</ele>
        <time>2023-07-22T12:51:55.756Z</time>
      </trkpt>
      <trkpt lat="47.85387" lon="-2.50518">
        <ele>73</ele>
        <time>2023-07-22T12:51:56.756Z</time>
      </trkpt>
      <trkpt lat="47.85388" lon="-2.50516">
        <ele>73</ele>
        <time>2023-07-22T12:51:57.757Z</time>
      </trkpt>
      <trkpt lat="47.85389" lon="-2.50515">
        <ele>73</ele>
        <time>2023-07-22T12:51:58.756Z</time>
      </trkpt>
      <trkpt lat="47.85389" lon="-2.50514">
        <ele>72</ele>
        <time>2023-07-22T12:51:59.756Z</time>
      </trkpt>
      <trkpt lat="47.85388" lon="-2.50513">
        <ele>72</ele>
        <time>2023-07-22T12:52:00.756Z</time>
      </trkpt>
      <trkpt lat="47.85388" lon="-2.50511">
        <ele>72</ele>
        <time>2023-07-22T12:52:01.757Z</time>
      </trkpt>
      <trkpt lat="47.85388" lon="-2.50509">
        <ele>72</ele>
        <time>2023-07-22T12:52:02.756Z</time>
      </trkpt>
      <trkpt lat="47.85389" lon="-2.50507">
        <ele>72</ele>
        <time>2023-07-22T12:52:03.756Z</time>
      </trkpt>
      <trkpt lat="47.85389" lon="-2.50506">
        <ele>72</ele>
        <time>2023-07-22T12:52:04.756Z</time>
      </trkpt>
      <trkpt lat="47.85389" lon="-2.50504">
        <ele>72</ele>
        <time>2023-07-22T12:52:05.756Z</time>
      </trkpt>
      <trkpt lat="47.8539" lon="-2.50502">
        <ele>72</ele>
        <time>2023-07-22T12:52:06.757Z</time>
      </trkpt>
      <trkpt lat="47.8539" lon="-2.50501">
        <ele>72</ele>
        <time>2023-07-22T12:52:07.757Z</time>
      </trkpt>
      <trkpt lat="47.85392" lon="-2.505">
        <ele>72</ele>
        <time>2023-07-22T12:52:08.757Z</time>
      </trkpt>
      <trkpt lat="47.85393" lon="-2.50498">
        <ele>73</ele>
        <time>2023-07-22T12:52:09.757Z</time>
      </trkpt>
      <trkpt lat="47.85394" lon="-2.50496">
        <ele>73</ele>
        <time>2023-07-22T12:52:10.757Z</time>
      </trkpt>
      <trkpt lat="47.85396" lon="-2.50493">
        <ele>73</ele>
        <time>2023-07-22T12:52:11.757Z</time>
      </trkpt>
      <trkpt lat="47.85397" lon="-2.50489">
        <ele>73</ele>
        <time>2023-07-22T12:52:12.757Z</time>
      </trkpt>
      <trkpt lat="47.85397" lon="-2.50487">
        <ele>73</ele>
        <time>2023-07-22T12:52:13.756Z</time>
      </trkpt>
      <trkpt lat="47.85397" lon="-2.50485">
        <ele>72</ele>
        <time>2023-07-22T12:52:14.756Z</time>
      </trkpt>
      <trkpt lat="47.85397" lon="-2.50484">
        <ele>72</ele>
        <time>2023-07-22T12:52:15.757Z</time>
      </trkpt>
      <trkpt lat="47.85398" lon="-2.50482">
        <ele>72</ele>
        <time>2023-07-22T12:52:16.756Z</time>
      </trkpt>
      <trkpt lat="47.85398" lon="-2.5048">
        <ele>72</ele>
        <time>2023-07-22T12:52:17.756Z</time>
      </trkpt>
      <trkpt lat="47.85398" lon="-2.50479">
        <ele>71</ele>
        <time>2023-07-22T12:52:18.756Z</time>
      </trkpt>
      <trkpt lat="47.85398" lon="-2.50477">
        <ele>71</ele>
        <time>2023-07-22T12:52:19.757Z</time>
      </trkpt>
      <trkpt lat="47.85399" lon="-2.50475">
        <ele>71</ele>
        <time>2023-07-22T12:52:20.756Z</time>
      </trkpt>
      <trkpt lat="47.85399" lon="-2.50474">
        <ele>71</ele>
        <time>2023-07-22T12:52:21.756Z</time>
      </trkpt>
      <trkpt lat="47.85399" lon="-2.50472">
        <ele>71</ele>
        <time>2023-07-22T12:52:22.756Z</time>
      </trkpt>
      <trkpt lat="47.85399" lon="-2.5047">
        <ele>71</ele>
        <time>2023-07-22T12:52:23.756Z</time>
      </trkpt>
      <trkpt lat="47.85399" lon="-2.50468">
        <ele>71</ele>
        <time>2023-07-22T12:52:24.756Z</time>
      </trkpt>
      <trkpt lat="47.854" lon="-2.50467">
        <ele>71</ele>
        <time>2023-07-22T12:52:25.757Z</time>
      </trkpt>
      <trkpt lat="47.854" lon="-2.50465">
        <ele>71</ele>
        <time>2023-07-22T12:52:26.756Z</time>
      </trkpt>
      <trkpt lat="47.854" lon="-2.50464">
        <ele>71</ele>
        <time>2023-07-22T12:52:27.756Z</time>
      </trkpt>
      <trkpt lat="47.854" lon="-2.50462">
        <ele>71</ele>
        <time>2023-07-22T12:52:28.756Z</time>
      </trkpt>
      <trkpt lat="47.85401" lon="-2.50459">
        <ele>71</ele>
        <time>2023-07-22T12:52:29.756Z</time>
      </trkpt>
      <trkpt lat="47.85401" lon="-2.50456">
        <ele>71</ele>
        <time>2023-07-22T12:52:30.756Z</time>
      </trkpt>
      <trkpt lat="47.85402" lon="-2.50455">
        <ele>70</ele>
        <time>2023-07-22T12:52:31.756Z</time>
      </trkpt>
      <trkpt lat="47.85402" lon="-2.50454">
        <ele>71</ele>
        <time>2023-07-22T12:52:32.756Z</time>
      </trkpt>
      <trkpt lat="47.85402" lon="-2.50453">
        <ele>71</ele>
        <time>2023-07-22T12:52:33.757Z</time>
      </trkpt>
      <trkpt lat="47.85403" lon="-2.50451">
        <ele>71</ele>
        <time>2023-07-22T12:52:34.756Z</time>
      </trkpt>
      <trkpt lat="47.85403" lon="-2.50449">
        <ele>71</ele>
        <time>2023-07-22T12:52:35.756Z</time>
      </trkpt>
      <trkpt lat="47.85403" lon="-2.50448">
        <ele>71</ele>
        <time>2023-07-22T12:52:36.756Z</time>
      </trkpt>
      <trkpt lat="47.85404" lon="-2.50447">
        <ele>70</ele>
        <time>2023-07-22T12:52:37.756Z</time>
      </trkpt>
      <trkpt lat="47.85403" lon="-2.50445">
        <ele>70</ele>
        <time>2023-07-22T12:52:38.756Z</time>
      </trkpt>
      <trkpt lat="47.85404" lon="-2.50443">
        <ele>69</ele>
        <time>2023-07-22T12:52:39.756Z</time>
      </trkpt>
      <trkpt lat="47.85404" lon="-2.50441">
        <ele>69</ele>
        <time>2023-07-22T12:52:40.756Z</time>
      </trkpt>
      <trkpt lat="47.85405" lon="-2.5044">
        <ele>68</ele>
        <time>2023-07-22T12:52:41.756Z</time>
      </trkpt>
      <trkpt lat="47.85405" lon="-2.50437">
        <ele>67</ele>
        <time>2023-07-22T12:52:42.756Z</time>
      </trkpt>
      <trkpt lat="47.85405" lon="-2.50435">
        <ele>67</ele>
        <time>2023-07-22T12:52:43.756Z</time>
      </trkpt>
      <trkpt lat="47.85405" lon="-2.50434">
        <ele>66</ele>
        <time>2023-07-22T12:52:44.757Z</time>
      </trkpt>
      <trkpt lat="47.85406" lon="-2.50432">
        <ele>66</ele>
        <time>2023-07-22T12:52:45.756Z</time>
      </trkpt>
      <trkpt lat="47.85406" lon="-2.5043">
        <ele>66</ele>
        <time>2023-07-22T12:52:46.756Z</time>
      </trkpt>
      <trkpt lat="47.85406" lon="-2.50428">
        <ele>66</ele>
        <time>2023-07-22T12:52:47.756Z</time>
      </trkpt>
      <trkpt lat="47.85406" lon="-2.50427">
        <ele>65</ele>
        <time>2023-07-22T12:52:48.757Z</time>
      </trkpt>
      <trkpt lat="47.85406" lon="-2.50424">
        <ele>65</ele>
        <time>2023-07-22T12:52:49.756Z</time>
      </trkpt>
      <trkpt lat="47.85406" lon="-2.50422">
        <ele>65</ele>
        <time>2023-07-22T12:52:50.756Z</time>
      </trkpt>
      <trkpt lat="47.85406" lon="-2.5042">
        <ele>65</ele>
        <time>2023-07-22T12:52:51.757Z</time>
      </trkpt>
      <trkpt lat="47.85405" lon="-2.50419">
        <ele>65</ele>
        <time>2023-07-22T12:52:52.757Z</time>
      </trkpt>
      <trkpt lat="47.85405" lon="-2.50417">
        <ele>64</ele>
        <time>2023-07-22T12:52:53.757Z</time>
      </trkpt>
      <trkpt lat="47.85403" lon="-2.50415">
        <ele>64</ele>
        <time>2023-07-22T12:52:54.757Z</time>
      </trkpt>
      <trkpt lat="47.85402" lon="-2.50414">
        <ele>63</ele>
        <time>2023-07-22T12:52:55.756Z</time>
      </trkpt>
      <trkpt lat="47.85401" lon="-2.50412">
        <ele>62</ele>
        <time>2023-07-22T12:52:56.757Z</time>
      </trkpt>
      <trkpt lat="47.85401" lon="-2.50411">
        <ele>61</ele>
        <time>2023-07-22T12:52:57.756Z</time>
      </trkpt>
      <trkpt lat="47.854" lon="-2.50409">
        <ele>61</ele>
        <time>2023-07-22T12:52:58.756Z</time>
      </trkpt>
      <trkpt lat="47.854" lon="-2.50407">
        <ele>60</ele>
        <time>2023-07-22T12:52:59.756Z</time>
      </trkpt>
      <trkpt lat="47.854" lon="-2.50404">
        <ele>60</ele>
        <time>2023-07-22T12:53:00.756Z</time>
      </trkpt>
      <trkpt lat="47.854" lon="-2.50402">
        <ele>60</ele>
        <time>2023-07-22T12:53:01.756Z</time>
      </trkpt>
      <trkpt lat="47.854" lon="-2.50399">
        <ele>60</ele>
        <time>2023-07-22T12:53:02.757Z</time>
      </trkpt>
      <trkpt lat="47.85399" lon="-2.50396">
        <ele>60</ele>
        <time>2023-07-22T12:53:03.756Z</time>
      </trkpt>
      <trkpt lat="47.85399" lon="-2.50394">
        <ele>60</ele>
        <time>2023-07-22T12:53:04.757Z</time>
      </trkpt>
      <trkpt lat="47.85398" lon="-2.50393">
        <ele>60</ele>
        <time>2023-07-22T12:53:05.757Z</time>
      </trkpt>
      <trkpt lat="47.85398" lon="-2.50392">
        <ele>60</ele>
        <time>2023-07-22T12:53:06.756Z</time>
      </trkpt>
      <trkpt lat="47.85397" lon="-2.50391">
        <ele>60</ele>
        <time>2023-07-22T12:53:07.756Z</time>
      </trkpt>
      <trkpt lat="47.85396" lon="-2.50391">
        <ele>61</ele>
        <time>2023-07-22T12:53:08.756Z</time>
      </trkpt>
      <trkpt lat="47.85395" lon="-2.5039">
        <ele>61</ele>
        <time>2023-07-22T12:53:09.756Z</time>
      </trkpt>
      <trkpt lat="47.85394" lon="-2.50388">
        <ele>61</ele>
        <time>2023-07-22T12:53:10.757Z</time>
      </trkpt>
      <trkpt lat="47.85394" lon="-2.50386">
        <ele>61</ele>
        <time>2023-07-22T12:53:11.756Z</time>
      </trkpt>
      <trkpt lat="47.85393" lon="-2.50383">
        <ele>61</ele>
        <time>2023-07-22T12:53:12.756Z</time>
      </trkpt>
      <trkpt lat="47.85392" lon="-2.50382">
        <ele>62</ele>
        <time>2023-07-22T12:53:13.757Z</time>
      </trkpt>
      <trkpt lat="47.85392" lon="-2.5038">
        <ele>62</ele>
        <time>2023-07-22T12:53:14.756Z</time>
      </trkpt>
      <trkpt lat="47.85391" lon="-2.5038">
        <ele>62</ele>
        <time>2023-07-22T12:53:15.757Z</time>
      </trkpt>
      <trkpt lat="47.85391" lon="-2.50378">
        <ele>63</ele>
        <time>2023-07-22T12:53:16.757Z</time>
      </trkpt>
      <trkpt lat="47.8539" lon="-2.50377">
        <ele>63</ele>
        <time>2023-07-22T12:53:17.756Z</time>
      </trkpt>
      <trkpt lat="47.85389" lon="-2.50376">
        <ele>63</ele>
        <time>2023-07-22T12:53:18.757Z</time>
      </trkpt>
      <trkpt lat="47.85388" lon="-2.50376">
        <ele>64</ele>
        <time>2023-07-22T12:53:19.756Z</time>
      </trkpt>
      <trkpt lat="47.85387" lon="-2.50375">
        <ele>64</ele>
        <time>2023-07-22T12:53:20.756Z</time>
      </trkpt>
      <trkpt lat="47.85386" lon="-2.50373">
        <ele>64</ele>
        <time>2023-07-22T12:53:21.756Z</time>
      </trkpt>
      <trkpt lat="47.85386" lon="-2.50372">
        <ele>64</ele>
        <time>2023-07-22T12:53:22.756Z</time>
      </trkpt>
      <trkpt lat="47.85385" lon="-2.50371">
        <ele>65</ele>
        <time>2023-07-22T12:53:23.757Z</time>
      </trkpt>
      <trkpt lat="47.85385" lon="-2.50369">
        <ele>65</ele>
        <time>2023-07-22T12:53:24.756Z</time>
      </trkpt>
      <trkpt lat="47.85385" lon="-2.50368">
        <ele>65</ele>
        <time>2023-07-22T12:53:25.757Z</time>
      </trkpt>
      <trkpt lat="47.85384" lon="-2.50367">
        <ele>65</ele>
        <time>2023-07-22T12:53:26.757Z</time>
      </trkpt>
      <trkpt lat="47.85383" lon="-2.50365">
        <ele>65</ele>
        <time>2023-07-22T12:53:27.756Z</time>
      </trkpt>
      <trkpt lat="47.85382" lon="-2.50363">
        <ele>65</ele>
        <time>2023-07-22T12:53:28.757Z</time>
      </trkpt>
      <trkpt lat="47.85382" lon="-2.50362">
        <ele>65</ele>
        <time>2023-07-22T12:53:29.757Z</time>
      </trkpt>
      <trkpt lat="47.85381" lon="-2.5036">
        <ele>66</ele>
        <time>2023-07-22T12:53:30.756Z</time>
      </trkpt>
      <trkpt lat="47.85381" lon="-2.50359">
        <ele>66</ele>
        <time>2023-07-22T12:53:31.757Z</time>
      </trkpt>
      <trkpt lat="47.85381" lon="-2.50358">
        <ele>66</ele>
        <time>2023-07-22T12:53:32.757Z</time>
      </trkpt>
      <trkpt lat="47.8538" lon="-2.50356">
        <ele>67</ele>
        <time>2023-07-22T12:53:33.757Z</time>
      </trkpt>
      <trkpt lat="47.8538" lon="-2.50355">
        <ele>67</ele>
        <time>2023-07-22T12:53:34.756Z</time>
      </trkpt>
      <trkpt lat="47.8538" lon="-2.50354">
        <ele>67</ele>
        <time>2023-07-22T12:53:35.756Z</time>
      </trkpt>
      <trkpt lat="47.8538" lon="-2.50352">
        <ele>67</ele>
        <time>2023-07-22T12:53:36.756Z</time>
      </trkpt>
      <trkpt lat="47.85379" lon="-2.50351">
        <ele>68</ele>
        <time>2023-07-22T12:53:37.756Z</time>
      </trkpt>
      <trkpt lat="47.85379" lon="-2.5035">
        <ele>68</ele>
        <time>2023-07-22T12:53:38.756Z</time>
      </trkpt>
      <trkpt lat="47.85379" lon="-2.50348">
        <ele>69</ele>
        <time>2023-07-22T12:53:39.756Z</time>
      </trkpt>
      <trkpt lat="47.85379" lon="-2.50346">
        <ele>69</ele>
        <time>2023-07-22T12:53:40.756Z</time>
      </trkpt>
      <trkpt lat="47.85378" lon="-2.50345">
        <ele>69</ele>
        <time>2023-07-22T12:53:41.756Z</time>
      </trkpt>
      <trkpt lat="47.85379" lon="-2.50343">
        <ele>70</ele>
        <time>2023-07-22T12:53:42.756Z</time>
      </trkpt>
      <trkpt lat="47.85379" lon="-2.50341">
        <ele>70</ele>
        <time>2023-07-22T12:53:43.756Z</time>
      </trkpt>
      <trkpt lat="47.85379" lon="-2.5034">
        <ele>70</ele>
        <time>2023-07-22T12:53:44.757Z</time>
      </trkpt>
      <trkpt lat="47.85378" lon="-2.50338">
        <ele>71</ele>
        <time>2023-07-22T12:53:45.756Z</time>
      </trkpt>
      <trkpt lat="47.85378" lon="-2.50337">
        <ele>71</ele>
        <time>2023-07-22T12:53:46.756Z</time>
      </trkpt>
      <trkpt lat="47.85378" lon="-2.50335">
        <ele>71</ele>
        <time>2023-07-22T12:53:47.756Z</time>
      </trkpt>
      <trkpt lat="47.85378" lon="-2.50333">
        <ele>72</ele>
        <time>2023-07-22T12:53:48.756Z</time>
      </trkpt>
      <trkpt lat="47.85378" lon="-2.50332">
        <ele>72</ele>
        <time>2023-07-22T12:53:49.756Z</time>
      </trkpt>
      <trkpt lat="47.85378" lon="-2.5033">
        <ele>72</ele>
        <time>2023-07-22T12:53:50.757Z</time>
      </trkpt>
      <trkpt lat="47.85377" lon="-2.50328">
        <ele>71</ele>
        <time>2023-07-22T12:53:51.756Z</time>
      </trkpt>
      <trkpt lat="47.85377" lon="-2.50328">
        <ele>71</ele>
        <time>2023-07-22T12:53:52.756Z</time>
      </trkpt>
      <trkpt lat="47.85377" lon="-2.50327">
        <ele>71</ele>
        <time>2023-07-22T12:53:53.756Z</time>
      </trkpt>
      <trkpt lat="47.85378" lon="-2.50325">
        <ele>70</ele>
        <time>2023-07-22T12:53:54.756Z</time>
      </trkpt>
      <trkpt lat="47.8538" lon="-2.50322">
        <ele>70</ele>
        <time>2023-07-22T12:53:55.757Z</time>
      </trkpt>
      <trkpt lat="47.8538" lon="-2.5032">
        <ele>70</ele>
        <time>2023-07-22T12:53:56.757Z</time>
      </trkpt>
      <trkpt lat="47.8538" lon="-2.50319">
        <ele>70</ele>
        <time>2023-07-22T12:53:57.757Z</time>
      </trkpt>
      <trkpt lat="47.85381" lon="-2.50317">
        <ele>70</ele>
        <time>2023-07-22T12:53:58.757Z</time>
      </trkpt>
      <trkpt lat="47.85381" lon="-2.50316">
        <ele>70</ele>
        <time>2023-07-22T12:53:59.757Z</time>
      </trkpt>
      <trkpt lat="47.85381" lon="-2.50314">
        <ele>70</ele>
        <time>2023-07-22T12:54:00.756Z</time>
      </trkpt>
      <trkpt lat="47.85381" lon="-2.50312">
        <ele>70</ele>
        <time>2023-07-22T12:54:01.756Z</time>
      </trkpt>
      <trkpt lat="47.85382" lon="-2.5031">
        <ele>70</ele>
        <time>2023-07-22T12:54:02.756Z</time>
      </trkpt>
      <trkpt lat="47.85382" lon="-2.50309">
        <ele>71</ele>
        <time>2023-07-22T12:54:03.757Z</time>
      </trkpt>
      <trkpt lat="47.85383" lon="-2.50307">
        <ele>72</ele>
        <time>2023-07-22T12:54:04.756Z</time>
      </trkpt>
      <trkpt lat="47.85382" lon="-2.50306">
        <ele>73</ele>
        <time>2023-07-22T12:54:05.757Z</time>
      </trkpt>
      <trkpt lat="47.85382" lon="-2.50304">
        <ele>73</ele>
        <time>2023-07-22T12:54:06.757Z</time>
      </trkpt>
      <trkpt lat="47.85382" lon="-2.50302">
        <ele>74</ele>
        <time>2023-07-22T12:54:07.756Z</time>
      </trkpt>
      <trkpt lat="47.85382" lon="-2.503">
        <ele>75</ele>
        <time>2023-07-22T12:54:08.756Z</time>
      </trkpt>
      <trkpt lat="47.85382" lon="-2.50298">
        <ele>75</ele>
        <time>2023-07-22T12:54:09.756Z</time>
      </trkpt>
      <trkpt lat="47.85382" lon="-2.50296">
        <ele>76</ele>
        <time>2023-07-22T12:54:10.756Z</time>
      </trkpt>
      <trkpt lat="47.85382" lon="-2.50294">
        <ele>77</ele>
        <time>2023-07-22T12:54:11.756Z</time>
      </trkpt>
      <trkpt lat="47.85382" lon="-2.50292">
        <ele>77</ele>
        <time>2023-07-22T12:54:12.757Z</time>
      </trkpt>
      <trkpt lat="47.85383" lon="-2.50291">
        <ele>78</ele>
        <time>2023-07-22T12:54:13.756Z</time>
      </trkpt>
      <trkpt lat="47.85382" lon="-2.50289">
        <ele>78</ele>
        <time>2023-07-22T12:54:14.756Z</time>
      </trkpt>
      <trkpt lat="47.85382" lon="-2.50288">
        <ele>79</ele>
        <time>2023-07-22T12:54:15.756Z</time>
      </trkpt>
      <trkpt lat="47.85381" lon="-2.50287">
        <ele>79</ele>
        <time>2023-07-22T12:54:16.756Z</time>
      </trkpt>
      <trkpt lat="47.85381" lon="-2.50285">
        <ele>79</ele>
        <time>2023-07-22T12:54:17.757Z</time>
      </trkpt>
      <trkpt lat="47.8538" lon="-2.50283">
        <ele>79</ele>
        <time>2023-07-22T12:54:18.757Z</time>
      </trkpt>
      <trkpt lat="47.85378" lon="-2.50283">
        <ele>79</ele>
        <time>2023-07-22T12:54:19.757Z</time>
      </trkpt>
      <trkpt lat="47.85378" lon="-2.5028">
        <ele>79</ele>
        <time>2023-07-22T12:54:20.757Z</time>
      </trkpt>
      <trkpt lat="47.85378" lon="-2.50278">
        <ele>79</ele>
        <time>2023-07-22T12:54:21.756Z</time>
      </trkpt>
      <trkpt lat="47.85378" lon="-2.50278">
        <ele>79</ele>
        <time>2023-07-22T12:54:22.756Z</time>
      </trkpt>
      <trkpt lat="47.85378" lon="-2.50275">
        <ele>79</ele>
        <time>2023-07-22T12:54:23.756Z</time>
      </trkpt>
      <trkpt lat="47.85378" lon="-2.50273">
        <ele>79</ele>
        <time>2023-07-22T12:54:24.756Z</time>
      </trkpt>
      <trkpt lat="47.85379" lon="-2.50271">
        <ele>79</ele>
        <time>2023-07-22T12:54:25.756Z</time>
      </trkpt>
      <trkpt lat="47.85378" lon="-2.5027">
        <ele>79</ele>
        <time>2023-07-22T12:54:26.756Z</time>
      </trkpt>
      <trkpt lat="47.85376" lon="-2.5027">
        <ele>79</ele>
        <time>2023-07-22T12:54:27.756Z</time>
      </trkpt>
      <trkpt lat="47.85376" lon="-2.50269">
        <ele>79</ele>
        <time>2023-07-22T12:54:28.757Z</time>
      </trkpt>
      <trkpt lat="47.85376" lon="-2.50268">
        <ele>79</ele>
        <time>2023-07-22T12:54:29.756Z</time>
      </trkpt>
      <trkpt lat="47.85377" lon="-2.50267">
        <ele>79</ele>
        <time>2023-07-22T12:54:30.756Z</time>
      </trkpt>
      <trkpt lat="47.85376" lon="-2.50267">
        <ele>79</ele>
        <time>2023-07-22T12:54:31.756Z</time>
      </trkpt>
      <trkpt lat="47.85375" lon="-2.50268">
        <ele>79</ele>
        <time>2023-07-22T12:54:32.756Z</time>
      </trkpt>
      <trkpt lat="47.85373" lon="-2.5027">
        <ele>79</ele>
        <time>2023-07-22T12:54:33.756Z</time>
      </trkpt>
      <trkpt lat="47.8537" lon="-2.50271">
        <ele>79</ele>
        <time>2023-07-22T12:54:34.756Z</time>
      </trkpt>
      <trkpt lat="47.85369" lon="-2.5027">
        <ele>80</ele>
        <time>2023-07-22T12:54:35.756Z</time>
      </trkpt>
      <trkpt lat="47.85369" lon="-2.50271">
        <ele>80</ele>
        <time>2023-07-22T12:54:36.756Z</time>
      </trkpt>
      <trkpt lat="47.85369" lon="-2.50271">
        <ele>79</ele>
        <time>2023-07-22T12:54:37.756Z</time>
      </trkpt>
      <trkpt lat="47.85368" lon="-2.50271">
        <ele>79</ele>
        <time>2023-07-22T12:54:38.757Z</time>
      </trkpt>
      <trkpt lat="47.85368" lon="-2.50271">
        <ele>79</ele>
        <time>2023-07-22T12:54:39.756Z</time>
      </trkpt>
      <trkpt lat="47.85368" lon="-2.50272">
        <ele>79</ele>
        <time>2023-07-22T12:54:40.756Z</time>
      </trkpt>
      <trkpt lat="47.85395" lon="-2.50071">
        <ele>101</ele>
        <time>2023-07-22T12:57:39.882Z</time>
      </trkpt>
      <trkpt lat="47.85393" lon="-2.50069">
        <ele>100</ele>
        <time>2023-07-22T12:57:40.882Z</time>
      </trkpt>
      <trkpt lat="47.85391" lon="-2.50069">
        <ele>100</ele>
        <time>2023-07-22T12:57:41.882Z</time>
      </trkpt>
      <trkpt lat="47.85389" lon="-2.50068">
        <ele>100</ele>
        <time>2023-07-22T12:57:42.882Z</time>
      </trkpt>
      <trkpt lat="47.85389" lon="-2.50068">
        <ele>100</ele>
        <time>2023-07-22T12:57:43.882Z</time>
      </trkpt>
      <trkpt lat="47.85387" lon="-2.50067">
        <ele>100</ele>
        <time>2023-07-22T12:57:44.882Z</time>
      </trkpt>
      <trkpt lat="47.85385" lon="-2.50065">
        <ele>100</ele>
        <time>2023-07-22T12:57:45.882Z</time>
      </trkpt>
      <trkpt lat="47.85385" lon="-2.50062">
        <ele>100</ele>
        <time>2023-07-22T12:57:46.882Z</time>
      </trkpt>
      <trkpt lat="47.85385" lon="-2.50062">
        <ele>100</ele>
        <time>2023-07-22T12:57:47.883Z</time>
      </trkpt>
      <trkpt lat="47.85385" lon="-2.5006">
        <ele>99</ele>
        <time>2023-07-22T12:57:48.882Z</time>
      </trkpt>
      <trkpt lat="47.85385" lon="-2.50058">
        <ele>99</ele>
        <time>2023-07-22T12:57:49.882Z</time>
      </trkpt>
      <trkpt lat="47.85383" lon="-2.50054">
        <ele>99</ele>
        <time>2023-07-22T12:57:50.882Z</time>
      </trkpt>
      <trkpt lat="47.85384" lon="-2.50051">
        <ele>99</ele>
        <time>2023-07-22T12:57:51.883Z</time>
      </trkpt>
      <trkpt lat="47.85383" lon="-2.5005">
        <ele>98</ele>
        <time>2023-07-22T12:57:52.882Z</time>
      </trkpt>
      <trkpt lat="47.85383" lon="-2.5005">
        <ele>98</ele>
        <time>2023-07-22T12:57:53.882Z</time>
      </trkpt>
      <trkpt lat="47.85383" lon="-2.50048">
        <ele>98</ele>
        <time>2023-07-22T12:57:54.882Z</time>
      </trkpt>
      <trkpt lat="47.85383" lon="-2.50043">
        <ele>98</ele>
        <time>2023-07-22T12:57:55.882Z</time>
      </trkpt>
      <trkpt lat="47.85382" lon="-2.50041">
        <ele>97</ele>
        <time>2023-07-22T12:57:56.882Z</time>
      </trkpt>
      <trkpt lat="47.85382" lon="-2.50041">
        <ele>97</ele>
        <time>2023-07-22T12:57:57.883Z</time>
      </trkpt>
      <trkpt lat="47.85382" lon="-2.50039">
        <ele>97</ele>
        <time>2023-07-22T12:57:58.882Z</time>
      </trkpt>
      <trkpt lat="47.85381" lon="-2.50037">
        <ele>97</ele>
        <time>2023-07-22T12:57:59.882Z</time>
      </trkpt>
      <trkpt lat="47.8538" lon="-2.50029">
        <ele>98</ele>
        <time>2023-07-22T12:58:00.882Z</time>
      </trkpt>
      <trkpt lat="47.8538" lon="-2.50024">
        <ele>98</ele>
        <time>2023-07-22T12:58:01.883Z</time>
      </trkpt>
      <trkpt lat="47.85378" lon="-2.5002">
        <ele>98</ele>
        <time>2023-07-22T12:58:02.883Z</time>
      </trkpt>
      <trkpt lat="47.85378" lon="-2.5002">
        <ele>98</ele>
        <time>2023-07-22T12:58:03.883Z</time>
      </trkpt>
      <trkpt lat="47.85376" lon="-2.50016">
        <ele>99</ele>
        <time>2023-07-22T12:58:04.882Z</time>
      </trkpt>
      <trkpt lat="47.8537" lon="-2.50014">
        <ele>99</ele>
        <time>2023-07-22T12:58:05.882Z</time>
      </trkpt>
      <trkpt lat="47.85367" lon="-2.50013">
        <ele>100</ele>
        <time>2023-07-22T12:58:06.882Z</time>
      </trkpt>
      <trkpt lat="47.85367" lon="-2.50013">
        <ele>100</ele>
        <time>2023-07-22T12:58:07.882Z</time>
      </trkpt>
      <trkpt lat="47.85366" lon="-2.5001">
        <ele>100</ele>
        <time>2023-07-22T12:58:08.882Z</time>
      </trkpt>
      <trkpt lat="47.85364" lon="-2.5001">
        <ele>100</ele>
        <time>2023-07-22T12:58:09.882Z</time>
      </trkpt>
      <trkpt lat="47.85363" lon="-2.5001">
        <ele>101</ele>
        <time>2023-07-22T12:58:10.882Z</time>
      </trkpt>
      <trkpt lat="47.85363" lon="-2.5001">
        <ele>102</ele>
        <time>2023-07-22T12:58:11.882Z</time>
      </trkpt>
      <trkpt lat="47.85362" lon="-2.50009">
        <ele>102</ele>
        <time>2023-07-22T12:58:12.883Z</time>
      </trkpt>
      <trkpt lat="47.85361" lon="-2.50009">
        <ele>102</ele>
        <time>2023-07-22T12:58:13.882Z</time>
      </trkpt>
      <trkpt lat="47.85359" lon="-2.50009">
        <ele>103</ele>
        <time>2023-07-22T12:58:14.882Z</time>
      </trkpt>
      <trkpt lat="47.85358" lon="-2.50009">
        <ele>103</ele>
        <time>2023-07-22T12:58:15.882Z</time>
      </trkpt>
      <trkpt lat="47.85357" lon="-2.50007">
        <ele>104</ele>
        <time>2023-07-22T12:58:16.882Z</time>
      </trkpt>
      <trkpt lat="47.85356" lon="-2.50006">
        <ele>104</ele>
        <time>2023-07-22T12:58:17.882Z</time>
      </trkpt>
      <trkpt lat="47.85356" lon="-2.50004">
        <ele>105</ele>
        <time>2023-07-22T12:58:18.882Z</time>
      </trkpt>
      <trkpt lat="47.85354" lon="-2.50004">
        <ele>105</ele>
        <time>2023-07-22T12:58:19.882Z</time>
      </trkpt>
      <trkpt lat="47.85352" lon="-2.50002">
        <ele>105</ele>
        <time>2023-07-22T12:58:20.883Z</time>
      </trkpt>
      <trkpt lat="47.85351" lon="-2.50001">
        <ele>105</ele>
        <time>2023-07-22T12:58:21.883Z</time>
      </trkpt>
      <trkpt lat="47.8535" lon="-2.49999">
        <ele>105</ele>
        <time>2023-07-22T12:58:22.883Z</time>
      </trkpt>
      <trkpt lat="47.85349" lon="-2.49998">
        <ele>104</ele>
        <time>2023-07-22T12:58:23.882Z</time>
      </trkpt>
      <trkpt lat="47.85349" lon="-2.49997">
        <ele>104</ele>
        <time>2023-07-22T12:58:24.883Z</time>
      </trkpt>
      <trkpt lat="47.85348" lon="-2.49996">
        <ele>104</ele>
        <time>2023-07-22T12:58:25.882Z</time>
      </trkpt>
      <trkpt lat="47.85347" lon="-2.49995">
        <ele>105</ele>
        <time>2023-07-22T12:58:26.883Z</time>
      </trkpt>
      <trkpt lat="47.85344" lon="-2.49996">
        <ele>105</ele>
        <time>2023-07-22T12:58:27.882Z</time>
      </trkpt>
      <trkpt lat="47.8534" lon="-2.49997">
        <ele>105</ele>
        <time>2023-07-22T12:58:28.883Z</time>
      </trkpt>
      <trkpt lat="47.8534" lon="-2.49997">
        <ele>105</ele>
        <time>2023-07-22T12:58:29.882Z</time>
      </trkpt>
      <trkpt lat="47.85336" lon="-2.49996">
        <ele>105</ele>
        <time>2023-07-22T12:58:30.882Z</time>
      </trkpt>
      <trkpt lat="47.85333" lon="-2.49995">
        <ele>105</ele>
        <time>2023-07-22T12:58:31.882Z</time>
      </trkpt>
      <trkpt lat="47.85328" lon="-2.49995">
        <ele>106</ele>
        <time>2023-07-22T12:58:32.882Z</time>
      </trkpt>
      <trkpt lat="47.85327" lon="-2.49995">
        <ele>106</ele>
        <time>2023-07-22T12:58:33.883Z</time>
      </trkpt>
      <trkpt lat="47.85324" lon="-2.49996">
        <ele>106</ele>
        <time>2023-07-22T12:58:34.883Z</time>
      </trkpt>
      <trkpt lat="47.85324" lon="-2.49995">
        <ele>106</ele>
        <time>2023-07-22T12:58:35.882Z</time>
      </trkpt>
      <trkpt lat="47.85325" lon="-2.49992">
        <ele>106</ele>
        <time>2023-07-22T12:58:36.882Z</time>
      </trkpt>
      <trkpt lat="47.85325" lon="-2.49993">
        <ele>106</ele>
        <time>2023-07-22T12:58:37.882Z</time>
      </trkpt>
      <trkpt lat="47.85325" lon="-2.49993">
        <ele>107</ele>
        <time>2023-07-22T12:58:38.882Z</time>
      </trkpt>
      <trkpt lat="47.85323" lon="-2.49993">
        <ele>107</ele>
        <time>2023-07-22T12:58:39.883Z</time>
      </trkpt>
      <trkpt lat="47.85321" lon="-2.49994">
        <ele>107</ele>
        <time>2023-07-22T12:58:40.882Z</time>
      </trkpt>
      <trkpt lat="47.85321" lon="-2.49994">
        <ele>108</ele>
        <time>2023-07-22T12:58:41.883Z</time>
      </trkpt>
      <trkpt lat="47.85321" lon="-2.49994">
        <ele>108</ele>
        <time>2023-07-22T12:58:42.882Z</time>
      </trkpt>
      <trkpt lat="47.85321" lon="-2.49995">
        <ele>109</ele>
        <time>2023-07-22T12:58:43.883Z</time>
      </trkpt>
      <trkpt lat="47.8532" lon="-2.49994">
        <ele>109</ele>
        <time>2023-07-22T12:58:44.882Z</time>
      </trkpt>
      <trkpt lat="47.85319" lon="-2.49993">
        <ele>109</ele>
        <time>2023-07-22T12:58:45.882Z</time>
      </trkpt>
      <trkpt lat="47.85317" lon="-2.49992">
        <ele>110</ele>
        <time>2023-07-22T12:58:46.882Z</time>
      </trkpt>
      <trkpt lat="47.85316" lon="-2.49991">
        <ele>110</ele>
        <time>2023-07-22T12:58:47.883Z</time>
      </trkpt>
      <trkpt lat="47.85315" lon="-2.4999">
        <ele>110</ele>
        <time>2023-07-22T12:58:48.882Z</time>
      </trkpt>
      <trkpt lat="47.85314" lon="-2.49989">
        <ele>111</ele>
        <time>2023-07-22T12:58:49.882Z</time>
      </trkpt>
      <trkpt lat="47.85313" lon="-2.49988">
        <ele>111</ele>
        <time>2023-07-22T12:58:50.882Z</time>
      </trkpt>
      <trkpt lat="47.85312" lon="-2.49987">
        <ele>112</ele>
        <time>2023-07-22T12:58:51.882Z</time>
      </trkpt>
      <trkpt lat="47.85311" lon="-2.49986">
        <ele>112</ele>
        <time>2023-07-22T12:58:52.882Z</time>
      </trkpt>
      <trkpt lat="47.8531" lon="-2.49985">
        <ele>112</ele>
        <time>2023-07-22T12:58:53.882Z</time>
      </trkpt>
      <trkpt lat="47.85309" lon="-2.49985">
        <ele>113</ele>
        <time>2023-07-22T12:58:54.882Z</time>
      </trkpt>
      <trkpt lat="47.85308" lon="-2.49984">
        <ele>113</ele>
        <time>2023-07-22T12:58:55.882Z</time>
      </trkpt>
      <trkpt lat="47.85307" lon="-2.49984">
        <ele>113</ele>
        <time>2023-07-22T12:58:56.882Z</time>
      </trkpt>
      <trkpt lat="47.85305" lon="-2.49983">
        <ele>113</ele>
        <time>2023-07-22T12:58:57.882Z</time>
      </trkpt>
      <trkpt lat="47.85304" lon="-2.49983">
        <ele>113</ele>
        <time>2023-07-22T12:58:58.882Z</time>
      </trkpt>
      <trkpt lat="47.85303" lon="-2.49982">
        <ele>114</ele>
        <time>2023-07-22T12:58:59.883Z</time>
      </trkpt>
      <trkpt lat="47.85302" lon="-2.49982">
        <ele>113</ele>
        <time>2023-07-22T12:59:00.883Z</time>
      </trkpt>
      <trkpt lat="47.85301" lon="-2.49981">
        <ele>113</ele>
        <time>2023-07-22T12:59:01.882Z</time>
      </trkpt>
      <trkpt lat="47.853" lon="-2.49981">
        <ele>113</ele>
        <time>2023-07-22T12:59:02.882Z</time>
      </trkpt>
      <trkpt lat="47.85299" lon="-2.49981">
        <ele>113</ele>
        <time>2023-07-22T12:59:03.882Z</time>
      </trkpt>
      <trkpt lat="47.85298" lon="-2.4998">
        <ele>113</ele>
        <time>2023-07-22T12:59:04.883Z</time>
      </trkpt>
      <trkpt lat="47.85297" lon="-2.49979">
        <ele>113</ele>
        <time>2023-07-22T12:59:05.882Z</time>
      </trkpt>
      <trkpt lat="47.85295" lon="-2.49978">
        <ele>113</ele>
        <time>2023-07-22T12:59:06.883Z</time>
      </trkpt>
      <trkpt lat="47.85294" lon="-2.49978">
        <ele>113</ele>
        <time>2023-07-22T12:59:07.882Z</time>
      </trkpt>
      <trkpt lat="47.85293" lon="-2.49977">
        <ele>113</ele>
        <time>2023-07-22T12:59:08.882Z</time>
      </trkpt>
      <trkpt lat="47.85292" lon="-2.49977">
        <ele>113</ele>
        <time>2023-07-22T12:59:09.882Z</time>
      </trkpt>
      <trkpt lat="47.85291" lon="-2.49976">
        <ele>113</ele>
        <time>2023-07-22T12:59:10.882Z</time>
      </trkpt>
      <trkpt lat="47.8529" lon="-2.49975">
        <ele>113</ele>
        <time>2023-07-22T12:59:11.882Z</time>
      </trkpt>
      <trkpt lat="47.85289" lon="-2.49974">
        <ele>113</ele>
        <time>2023-07-22T12:59:12.883Z</time>
      </trkpt>
      <trkpt lat="47.85287" lon="-2.49973">
        <ele>112</ele>
        <time>2023-07-22T12:59:13.882Z</time>
      </trkpt>
      <trkpt lat="47.85286" lon="-2.49972">
        <ele>112</ele>
        <time>2023-07-22T12:59:14.882Z</time>
      </trkpt>
      <trkpt lat="47.85286" lon="-2.49971">
        <ele>112</ele>
        <time>2023-07-22T12:59:15.882Z</time>
      </trkpt>
      <trkpt lat="47.85284" lon="-2.49969">
        <ele>112</ele>
        <time>2023-07-22T12:59:16.883Z</time>
      </trkpt>
      <trkpt lat="47.85283" lon="-2.49968">
        <ele>111</ele>
        <time>2023-07-22T12:59:17.882Z</time>
      </trkpt>
      <trkpt lat="47.85282" lon="-2.49967">
        <ele>110</ele>
        <time>2023-07-22T12:59:18.882Z</time>
      </trkpt>
      <trkpt lat="47.8528" lon="-2.49967">
        <ele>110</ele>
        <time>2023-07-22T12:59:19.882Z</time>
      </trkpt>
      <trkpt lat="47.85279" lon="-2.49967">
        <ele>109</ele>
        <time>2023-07-22T12:59:20.882Z</time>
      </trkpt>
      <trkpt lat="47.85278" lon="-2.49966">
        <ele>109</ele>
        <time>2023-07-22T12:59:21.882Z</time>
      </trkpt>
      <trkpt lat="47.85277" lon="-2.49965">
        <ele>108</ele>
        <time>2023-07-22T12:59:22.882Z</time>
      </trkpt>
      <trkpt lat="47.85276" lon="-2.49965">
        <ele>108</ele>
        <time>2023-07-22T12:59:23.882Z</time>
      </trkpt>
      <trkpt lat="47.85275" lon="-2.49964">
        <ele>107</ele>
        <time>2023-07-22T12:59:24.882Z</time>
      </trkpt>
      <trkpt lat="47.85274" lon="-2.49963">
        <ele>107</ele>
        <time>2023-07-22T12:59:25.883Z</time>
      </trkpt>
      <trkpt lat="47.85273" lon="-2.49962">
        <ele>107</ele>
        <time>2023-07-22T12:59:26.882Z</time>
      </trkpt>
      <trkpt lat="47.85272" lon="-2.49961">
        <ele>107</ele>
        <time>2023-07-22T12:59:27.883Z</time>
      </trkpt>
      <trkpt lat="47.85271" lon="-2.49961">
        <ele>106</ele>
        <time>2023-07-22T12:59:28.883Z</time>
      </trkpt>
      <trkpt lat="47.85269" lon="-2.49961">
        <ele>106</ele>
        <time>2023-07-22T12:59:29.882Z</time>
      </trkpt>
      <trkpt lat="47.85268" lon="-2.4996">
        <ele>106</ele>
        <time>2023-07-22T12:59:30.882Z</time>
      </trkpt>
      <trkpt lat="47.85266" lon="-2.49959">
        <ele>106</ele>
        <time>2023-07-22T12:59:31.882Z</time>
      </trkpt>
      <trkpt lat="47.85265" lon="-2.49959">
        <ele>106</ele>
        <time>2023-07-22T12:59:32.883Z</time>
      </trkpt>
      <trkpt lat="47.85264" lon="-2.49958">
        <ele>106</ele>
        <time>2023-07-22T12:59:33.882Z</time>
      </trkpt>
      <trkpt lat="47.85263" lon="-2.49957">
        <ele>106</ele>
        <time>2023-07-22T12:59:34.882Z</time>
      </trkpt>
      <trkpt lat="47.85262" lon="-2.49957">
        <ele>105</ele>
        <time>2023-07-22T12:59:35.882Z</time>
      </trkpt>
      <trkpt lat="47.85261" lon="-2.49956">
        <ele>104</ele>
        <time>2023-07-22T12:59:36.883Z</time>
      </trkpt>
      <trkpt lat="47.8526" lon="-2.49955">
        <ele>104</ele>
        <time>2023-07-22T12:59:37.882Z</time>
      </trkpt>
      <trkpt lat="47.85258" lon="-2.49953">
        <ele>104</ele>
        <time>2023-07-22T12:59:38.882Z</time>
      </trkpt>
      <trkpt lat="47.85257" lon="-2.49952">
        <ele>103</ele>
        <time>2023-07-22T12:59:39.882Z</time>
      </trkpt>
      <trkpt lat="47.85256" lon="-2.49951">
        <ele>103</ele>
        <time>2023-07-22T12:59:40.882Z</time>
      </trkpt>
      <trkpt lat="47.85254" lon="-2.4995">
        <ele>103</ele>
        <time>2023-07-22T12:59:41.883Z</time>
      </trkpt>
      <trkpt lat="47.85253" lon="-2.49949">
        <ele>102</ele>
        <time>2023-07-22T12:59:42.882Z</time>
      </trkpt>
      <trkpt lat="47.85252" lon="-2.49948">
        <ele>102</ele>
        <time>2023-07-22T12:59:43.882Z</time>
      </trkpt>
      <trkpt lat="47.85251" lon="-2.49946">
        <ele>101</ele>
        <time>2023-07-22T12:59:44.882Z</time>
      </trkpt>
      <trkpt lat="47.85249" lon="-2.49945">
        <ele>100</ele>
        <time>2023-07-22T12:59:45.882Z</time>
      </trkpt>
      <trkpt lat="47.85248" lon="-2.49944">
        <ele>100</ele>
        <time>2023-07-22T12:59:46.882Z</time>
      </trkpt>
      <trkpt lat="47.85247" lon="-2.49943">
        <ele>99</ele>
        <time>2023-07-22T12:59:47.883Z</time>
      </trkpt>
      <trkpt lat="47.85246" lon="-2.49942">
        <ele>98</ele>
        <time>2023-07-22T12:59:48.882Z</time>
      </trkpt>
      <trkpt lat="47.85244" lon="-2.49941">
        <ele>97</ele>
        <time>2023-07-22T12:59:49.882Z</time>
      </trkpt>
      <trkpt lat="47.85243" lon="-2.4994">
        <ele>97</ele>
        <time>2023-07-22T12:59:50.882Z</time>
      </trkpt>
      <trkpt lat="47.85242" lon="-2.49939">
        <ele>96</ele>
        <time>2023-07-22T12:59:51.882Z</time>
      </trkpt>
      <trkpt lat="47.8524" lon="-2.49939">
        <ele>96</ele>
        <time>2023-07-22T12:59:52.882Z</time>
      </trkpt>
      <trkpt lat="47.85239" lon="-2.49938">
        <ele>95</ele>
        <time>2023-07-22T12:59:53.882Z</time>
      </trkpt>
      <trkpt lat="47.85238" lon="-2.49938">
        <ele>95</ele>
        <time>2023-07-22T12:59:54.882Z</time>
      </trkpt>
      <trkpt lat="47.85238" lon="-2.49939">
        <ele>95</ele>
        <time>2023-07-22T12:59:55.883Z</time>
      </trkpt>
      <trkpt lat="47.85236" lon="-2.49939">
        <ele>95</ele>
        <time>2023-07-22T12:59:56.882Z</time>
      </trkpt>
      <trkpt lat="47.85236" lon="-2.49939">
        <ele>95</ele>
        <time>2023-07-22T12:59:57.883Z</time>
      </trkpt>
      <trkpt lat="47.85235" lon="-2.49938">
        <ele>95</ele>
        <time>2023-07-22T12:59:58.882Z</time>
      </trkpt>
      <trkpt lat="47.85235" lon="-2.49937">
        <ele>95</ele>
        <time>2023-07-22T12:59:59.882Z</time>
      </trkpt>
      <trkpt lat="47.85234" lon="-2.49937">
        <ele>95</ele>
        <time>2023-07-22T13:00:00.883Z</time>
      </trkpt>
      <trkpt lat="47.85233" lon="-2.49938">
        <ele>96</ele>
        <time>2023-07-22T13:00:01.882Z</time>
      </trkpt>
      <trkpt lat="47.85232" lon="-2.49937">
        <ele>96</ele>
        <time>2023-07-22T13:00:02.883Z</time>
      </trkpt>
      <trkpt lat="47.8523" lon="-2.49937">
        <ele>96</ele>
        <time>2023-07-22T13:00:03.882Z</time>
      </trkpt>
      <trkpt lat="47.85229" lon="-2.49936">
        <ele>96</ele>
        <time>2023-07-22T13:00:04.882Z</time>
      </trkpt>
      <trkpt lat="47.85228" lon="-2.49936">
        <ele>97</ele>
        <time>2023-07-22T13:00:05.882Z</time>
      </trkpt>
      <trkpt lat="47.85227" lon="-2.49935">
        <ele>97</ele>
        <time>2023-07-22T13:00:06.882Z</time>
      </trkpt>
      <trkpt lat="47.85226" lon="-2.49934">
        <ele>97</ele>
        <time>2023-07-22T13:00:07.883Z</time>
      </trkpt>
      <trkpt lat="47.85225" lon="-2.49934">
        <ele>98</ele>
        <time>2023-07-22T13:00:08.883Z</time>
      </trkpt>
      <trkpt lat="47.85224" lon="-2.49933">
        <ele>98</ele>
        <time>2023-07-22T13:00:09.882Z</time>
      </trkpt>
      <trkpt lat="47.85222" lon="-2.49933">
        <ele>99</ele>
        <time>2023-07-22T13:00:10.882Z</time>
      </trkpt>
      <trkpt lat="47.85221" lon="-2.49932">
        <ele>99</ele>
        <time>2023-07-22T13:00:11.882Z</time>
      </trkpt>
      <trkpt lat="47.8522" lon="-2.49931">
        <ele>99</ele>
        <time>2023-07-22T13:00:12.882Z</time>
      </trkpt>
      <trkpt lat="47.85218" lon="-2.49931">
        <ele>99</ele>
        <time>2023-07-22T13:00:13.883Z</time>
      </trkpt>
      <trkpt lat="47.85217" lon="-2.49931">
        <ele>100</ele>
        <time>2023-07-22T13:00:14.882Z</time>
      </trkpt>
      <trkpt lat="47.85216" lon="-2.4993">
        <ele>100</ele>
        <time>2023-07-22T13:00:15.882Z</time>
      </trkpt>
      <trkpt lat="47.85215" lon="-2.4993">
        <ele>99</ele>
        <time>2023-07-22T13:00:16.882Z</time>
      </trkpt>
      <trkpt lat="47.85214" lon="-2.49929">
        <ele>99</ele>
        <time>2023-07-22T13:00:17.882Z</time>
      </trkpt>
      <trkpt lat="47.85213" lon="-2.49928">
        <ele>99</ele>
        <time>2023-07-22T13:00:18.882Z</time>
      </trkpt>
      <trkpt lat="47.85212" lon="-2.49926">
        <ele>98</ele>
        <time>2023-07-22T13:00:19.882Z</time>
      </trkpt>
      <trkpt lat="47.85212" lon="-2.49925">
        <ele>98</ele>
        <time>2023-07-22T13:00:20.883Z</time>
      </trkpt>
      <trkpt lat="47.85211" lon="-2.49924">
        <ele>97</ele>
        <time>2023-07-22T13:00:21.883Z</time>
      </trkpt>
      <trkpt lat="47.85209" lon="-2.49923">
        <ele>97</ele>
        <time>2023-07-22T13:00:22.882Z</time>
      </trkpt>
      <trkpt lat="47.85208" lon="-2.49922">
        <ele>96</ele>
        <time>2023-07-22T13:00:23.883Z</time>
      </trkpt>
      <trkpt lat="47.85208" lon="-2.49921">
        <ele>96</ele>
        <time>2023-07-22T13:00:24.882Z</time>
      </trkpt>
      <trkpt lat="47.85207" lon="-2.4992">
        <ele>95</ele>
        <time>2023-07-22T13:00:25.882Z</time>
      </trkpt>
      <trkpt lat="47.85205" lon="-2.49918">
        <ele>95</ele>
        <time>2023-07-22T13:00:26.882Z</time>
      </trkpt>
      <trkpt lat="47.85205" lon="-2.49917">
        <ele>95</ele>
        <time>2023-07-22T13:00:27.882Z</time>
      </trkpt>
      <trkpt lat="47.85204" lon="-2.49915">
        <ele>94</ele>
        <time>2023-07-22T13:00:28.882Z</time>
      </trkpt>
      <trkpt lat="47.85203" lon="-2.49913">
        <ele>94</ele>
        <time>2023-07-22T13:00:29.883Z</time>
      </trkpt>
      <trkpt lat="47.85203" lon="-2.49912">
        <ele>94</ele>
        <time>2023-07-22T13:00:30.883Z</time>
      </trkpt>
      <trkpt lat="47.85202" lon="-2.4991">
        <ele>94</ele>
        <time>2023-07-22T13:00:31.882Z</time>
      </trkpt>
      <trkpt lat="47.85201" lon="-2.49909">
        <ele>94</ele>
        <time>2023-07-22T13:00:32.882Z</time>
      </trkpt>
      <trkpt lat="47.852" lon="-2.49907">
        <ele>94</ele>
        <time>2023-07-22T13:00:33.882Z</time>
      </trkpt>
      <trkpt lat="47.852" lon="-2.49906">
        <ele>93</ele>
        <time>2023-07-22T13:00:34.883Z</time>
      </trkpt>
      <trkpt lat="47.852" lon="-2.49905">
        <ele>93</ele>
        <time>2023-07-22T13:00:35.882Z</time>
      </trkpt>
      <trkpt lat="47.852" lon="-2.49904">
        <ele>93</ele>
        <time>2023-07-22T13:00:36.883Z</time>
      </trkpt>
      <trkpt lat="47.852" lon="-2.49903">
        <ele>93</ele>
        <time>2023-07-22T13:00:37.882Z</time>
      </trkpt>
      <trkpt lat="47.852" lon="-2.49902">
        <ele>92</ele>
        <time>2023-07-22T13:00:38.882Z</time>
      </trkpt>
      <trkpt lat="47.852" lon="-2.49902">
        <ele>92</ele>
        <time>2023-07-22T13:00:39.882Z</time>
      </trkpt>
      <trkpt lat="47.852" lon="-2.49902">
        <ele>92</ele>
        <time>2023-07-22T13:00:40.883Z</time>
      </trkpt>
      <trkpt lat="47.852" lon="-2.49902">
        <ele>91</ele>
        <time>2023-07-22T13:00:41.882Z</time>
      </trkpt>
      <trkpt lat="47.85202" lon="-2.49897">
        <ele>92</ele>
        <time>2023-07-22T13:00:48.241Z</time>
      </trkpt>
      <trkpt lat="47.85202" lon="-2.49897">
        <ele>93</ele>
        <time>2023-07-22T13:00:49.241Z</time>
      </trkpt>
      <trkpt lat="47.85203" lon="-2.49896">
        <ele>93</ele>
        <time>2023-07-22T13:00:50.241Z</time>
      </trkpt>
      <trkpt lat="47.85204" lon="-2.49896">
        <ele>93</ele>
        <time>2023-07-22T13:00:51.242Z</time>
      </trkpt>
      <trkpt lat="47.85204" lon="-2.49895">
        <ele>94</ele>
        <time>2023-07-22T13:00:52.241Z</time>
      </trkpt>
      <trkpt lat="47.85204" lon="-2.49894">
        <ele>94</ele>
        <time>2023-07-22T13:00:53.242Z</time>
      </trkpt>
      <trkpt lat="47.85204" lon="-2.49893">
        <ele>94</ele>
        <time>2023-07-22T13:00:54.242Z</time>
      </trkpt>
      <trkpt lat="47.85204" lon="-2.49892">
        <ele>94</ele>
        <time>2023-07-22T13:00:55.241Z</time>
      </trkpt>
      <trkpt lat="47.85204" lon="-2.49892">
        <ele>94</ele>
        <time>2023-07-22T13:00:56.242Z</time>
      </trkpt>
      <trkpt lat="47.85204" lon="-2.49892">
        <ele>93</ele>
        <time>2023-07-22T13:00:57.242Z</time>
      </trkpt>
      <trkpt lat="47.85204" lon="-2.49894">
        <ele>92</ele>
        <time>2023-07-22T13:01:14.536Z</time>
      </trkpt>
      <trkpt lat="47.85204" lon="-2.49893">
        <ele>99</ele>
        <time>2023-07-22T13:01:23.778Z</time>
      </trkpt>
      <trkpt lat="47.85201" lon="-2.49884">
        <ele>100</ele>
        <time>2023-07-22T13:01:32.965Z</time>
      </trkpt>
      <trkpt lat="47.85201" lon="-2.49884">
        <ele>100</ele>
        <time>2023-07-22T13:01:33.965Z</time>
      </trkpt>
      <trkpt lat="47.85201" lon="-2.49883">
        <ele>100</ele>
        <time>2023-07-22T13:01:34.965Z</time>
      </trkpt>
      <trkpt lat="47.852" lon="-2.49883">
        <ele>100</ele>
        <time>2023-07-22T13:01:35.965Z</time>
      </trkpt>
      <trkpt lat="47.85199" lon="-2.49882">
        <ele>99</ele>
        <time>2023-07-22T13:01:36.965Z</time>
      </trkpt>
      <trkpt lat="47.85199" lon="-2.49882">
        <ele>99</ele>
        <time>2023-07-22T13:01:37.965Z</time>
      </trkpt>
      <trkpt lat="47.85199" lon="-2.49882">
        <ele>99</ele>
        <time>2023-07-22T13:01:38.965Z</time>
      </trkpt>
      <trkpt lat="47.85199" lon="-2.49882">
        <ele>99</ele>
        <time>2023-07-22T13:01:39.965Z</time>
      </trkpt>
      <trkpt lat="47.85199" lon="-2.49884">
        <ele>96</ele>
        <time>2023-07-22T13:01:46.330Z</time>
      </trkpt>
      <trkpt lat="47.85199" lon="-2.49884">
        <ele>96</ele>
        <time>2023-07-22T13:01:47.329Z</time>
      </trkpt>
      <trkpt lat="47.85199" lon="-2.49884">
        <ele>96</ele>
        <time>2023-07-22T13:01:48.329Z</time>
      </trkpt>
      <trkpt lat="47.85199" lon="-2.49884">
        <ele>96</ele>
        <time>2023-07-22T13:01:49.329Z</time>
      </trkpt>
      <trkpt lat="47.85199" lon="-2.49884">
        <ele>96</ele>
        <time>2023-07-22T13:01:50.329Z</time>
      </trkpt>
      <trkpt lat="47.85199" lon="-2.49884">
        <ele>96</ele>
        <time>2023-07-22T13:01:51.329Z</time>
      </trkpt>
      <trkpt lat="47.85199" lon="-2.49884">
        <ele>96</ele>
        <time>2023-07-22T13:01:52.329Z</time>
      </trkpt>
      <trkpt lat="47.85198" lon="-2.49884">
        <ele>97</ele>
        <time>2023-07-22T13:01:53.329Z</time>
      </trkpt>
      <trkpt lat="47.85198" lon="-2.49884">
        <ele>97</ele>
        <time>2023-07-22T13:01:54.329Z</time>
      </trkpt>
      <trkpt lat="47.85198" lon="-2.49884">
        <ele>97</ele>
        <time>2023-07-22T13:01:55.330Z</time>
      </trkpt>
      <trkpt lat="47.85198" lon="-2.49884">
        <ele>97</ele>
        <time>2023-07-22T13:01:56.330Z</time>
      </trkpt>
      <trkpt lat="47.85198" lon="-2.49885">
        <ele>97</ele>
        <time>2023-07-22T13:01:57.330Z</time>
      </trkpt>
      <trkpt lat="47.85198" lon="-2.49885">
        <ele>97</ele>
        <time>2023-07-22T13:01:58.330Z</time>
      </trkpt>
      <trkpt lat="47.85198" lon="-2.49884">
        <ele>97</ele>
        <time>2023-07-22T13:01:59.329Z</time>
      </trkpt>
      <trkpt lat="47.85198" lon="-2.49884">
        <ele>97</ele>
        <time>2023-07-22T13:02:00.329Z</time>
      </trkpt>
      <trkpt lat="47.85198" lon="-2.49884">
        <ele>97</ele>
        <time>2023-07-22T13:02:01.329Z</time>
      </trkpt>
      <trkpt lat="47.85198" lon="-2.49884">
        <ele>96</ele>
        <time>2023-07-22T13:02:02.329Z</time>
      </trkpt>
      <trkpt lat="47.85198" lon="-2.49884">
        <ele>96</ele>
        <time>2023-07-22T13:02:03.329Z</time>
      </trkpt>
      <trkpt lat="47.85198" lon="-2.49884">
        <ele>96</ele>
        <time>2023-07-22T13:02:04.329Z</time>
      </trkpt>
      <trkpt lat="47.85198" lon="-2.49883">
        <ele>95</ele>
        <time>2023-07-22T13:02:05.329Z</time>
      </trkpt>
      <trkpt lat="47.85199" lon="-2.49884">
        <ele>95</ele>
        <time>2023-07-22T13:02:06.329Z</time>
      </trkpt>
      <trkpt lat="47.852" lon="-2.49883">
        <ele>95</ele>
        <time>2023-07-22T13:02:07.329Z</time>
      </trkpt>
      <trkpt lat="47.852" lon="-2.49883">
        <ele>96</ele>
        <time>2023-07-22T13:02:08.330Z</time>
      </trkpt>
      <trkpt lat="47.852" lon="-2.49883">
        <ele>96</ele>
        <time>2023-07-22T13:02:09.330Z</time>
      </trkpt>
      <trkpt lat="47.852" lon="-2.49884">
        <ele>96</ele>
        <time>2023-07-22T13:02:10.329Z</time>
      </trkpt>
      <trkpt lat="47.85199" lon="-2.49885">
        <ele>96</ele>
        <time>2023-07-22T13:02:11.330Z</time>
      </trkpt>
      <trkpt lat="47.852" lon="-2.49886">
        <ele>96</ele>
        <time>2023-07-22T13:02:12.329Z</time>
      </trkpt>
      <trkpt lat="47.85199" lon="-2.49887">
        <ele>96</ele>
        <time>2023-07-22T13:02:13.330Z</time>
      </trkpt>
      <trkpt lat="47.85199" lon="-2.49888">
        <ele>96</ele>
        <time>2023-07-22T13:02:14.329Z</time>
      </trkpt>
      <trkpt lat="47.85199" lon="-2.4989">
        <ele>96</ele>
        <time>2023-07-22T13:02:15.330Z</time>
      </trkpt>
      <trkpt lat="47.85199" lon="-2.4989">
        <ele>96</ele>
        <time>2023-07-22T13:02:16.330Z</time>
      </trkpt>
      <trkpt lat="47.85198" lon="-2.49891">
        <ele>96</ele>
        <time>2023-07-22T13:02:17.329Z</time>
      </trkpt>
      <trkpt lat="47.85198" lon="-2.49891">
        <ele>96</ele>
        <time>2023-07-22T13:02:18.330Z</time>
      </trkpt>
      <trkpt lat="47.85696" lon="-2.49163">
        <ele>79</ele>
        <time>2023-07-22T13:34:42.306Z</time>
      </trkpt>
      <trkpt lat="47.85695" lon="-2.49164">
        <ele>79</ele>
        <time>2023-07-22T13:34:43.306Z</time>
      </trkpt>
      <trkpt lat="47.85695" lon="-2.49165">
        <ele>79</ele>
        <time>2023-07-22T13:34:44.307Z</time>
      </trkpt>
      <trkpt lat="47.85695" lon="-2.49166">
        <ele>79</ele>
        <time>2023-07-22T13:34:45.306Z</time>
      </trkpt>
      <trkpt lat="47.85696" lon="-2.49168">
        <ele>78</ele>
        <time>2023-07-22T13:34:46.307Z</time>
      </trkpt>
      <trkpt lat="47.85697" lon="-2.49168">
        <ele>78</ele>
        <time>2023-07-22T13:34:47.306Z</time>
      </trkpt>
      <trkpt lat="47.85697" lon="-2.49169">
        <ele>78</ele>
        <time>2023-07-22T13:34:48.307Z</time>
      </trkpt>
      <trkpt lat="47.85696" lon="-2.49169">
        <ele>78</ele>
        <time>2023-07-22T13:34:49.306Z</time>
      </trkpt>
      <trkpt lat="47.85696" lon="-2.49169">
        <ele>77</ele>
        <time>2023-07-22T13:34:50.306Z</time>
      </trkpt>
      <trkpt lat="47.85696" lon="-2.4917">
        <ele>77</ele>
        <time>2023-07-22T13:34:51.306Z</time>
      </trkpt>
      <trkpt lat="47.85695" lon="-2.4917">
        <ele>77</ele>
        <time>2023-07-22T13:34:52.307Z</time>
      </trkpt>
      <trkpt lat="47.85695" lon="-2.4917">
        <ele>76</ele>
        <time>2023-07-22T13:34:53.306Z</time>
      </trkpt>
      <trkpt lat="47.85695" lon="-2.4917">
        <ele>76</ele>
        <time>2023-07-22T13:34:54.306Z</time>
      </trkpt>
      <trkpt lat="47.85695" lon="-2.49171">
        <ele>76</ele>
        <time>2023-07-22T13:34:55.306Z</time>
      </trkpt>
      <trkpt lat="47.85694" lon="-2.49171">
        <ele>75</ele>
        <time>2023-07-22T13:34:56.307Z</time>
      </trkpt>
      <trkpt lat="47.85693" lon="-2.49171">
        <ele>75</ele>
        <time>2023-07-22T13:34:57.307Z</time>
      </trkpt>
      <trkpt lat="47.85693" lon="-2.49172">
        <ele>74</ele>
        <time>2023-07-22T13:34:58.307Z</time>
      </trkpt>
      <trkpt lat="47.85692" lon="-2.49173">
        <ele>74</ele>
        <time>2023-07-22T13:34:59.306Z</time>
      </trkpt>
      <trkpt lat="47.85691" lon="-2.49174">
        <ele>73</ele>
        <time>2023-07-22T13:35:00.306Z</time>
      </trkpt>
      <trkpt lat="47.85691" lon="-2.49174">
        <ele>72</ele>
        <time>2023-07-22T13:35:01.306Z</time>
      </trkpt>
      <trkpt lat="47.85691" lon="-2.49175">
        <ele>71</ele>
        <time>2023-07-22T13:35:02.306Z</time>
      </trkpt>
      <trkpt lat="47.85691" lon="-2.49175">
        <ele>71</ele>
        <time>2023-07-22T13:35:03.307Z</time>
      </trkpt>
      <trkpt lat="47.85691" lon="-2.49175">
        <ele>70</ele>
        <time>2023-07-22T13:35:04.306Z</time>
      </trkpt>
      <trkpt lat="47.85692" lon="-2.49175">
        <ele>70</ele>
        <time>2023-07-22T13:35:05.306Z</time>
      </trkpt>
      <trkpt lat="47.85692" lon="-2.49176">
        <ele>69</ele>
        <time>2023-07-22T13:35:06.307Z</time>
      </trkpt>
      <trkpt lat="47.85692" lon="-2.49177">
        <ele>69</ele>
        <time>2023-07-22T13:35:07.307Z</time>
      </trkpt>
      <trkpt lat="47.85691" lon="-2.49178">
        <ele>69</ele>
        <time>2023-07-22T13:35:08.307Z</time>
      </trkpt>
      <trkpt lat="47.85691" lon="-2.49178">
        <ele>69</ele>
        <time>2023-07-22T13:35:09.306Z</time>
      </trkpt>
      <trkpt lat="47.85691" lon="-2.4918">
        <ele>69</ele>
        <time>2023-07-22T13:35:10.307Z</time>
      </trkpt>
      <trkpt lat="47.85691" lon="-2.49181">
        <ele>70</ele>
        <time>2023-07-22T13:35:11.307Z</time>
      </trkpt>
      <trkpt lat="47.85691" lon="-2.49181">
        <ele>70</ele>
        <time>2023-07-22T13:35:12.307Z</time>
      </trkpt>
      <trkpt lat="47.85691" lon="-2.49181">
        <ele>70</ele>
        <time>2023-07-22T13:35:13.306Z</time>
      </trkpt>
      <trkpt lat="47.85691" lon="-2.49182">
        <ele>70</ele>
        <time>2023-07-22T13:35:14.306Z</time>
      </trkpt>
      <trkpt lat="47.85691" lon="-2.49183">
        <ele>70</ele>
        <time>2023-07-22T13:35:15.307Z</time>
      </trkpt>
      <trkpt lat="47.85691" lon="-2.49184">
        <ele>70</ele>
        <time>2023-07-22T13:35:16.307Z</time>
      </trkpt>
      <trkpt lat="47.85691" lon="-2.49185">
        <ele>70</ele>
        <time>2023-07-22T13:35:17.306Z</time>
      </trkpt>
      <trkpt lat="47.85691" lon="-2.49186">
        <ele>71</ele>
        <time>2023-07-22T13:35:18.306Z</time>
      </trkpt>
      <trkpt lat="47.85691" lon="-2.49187">
        <ele>71</ele>
        <time>2023-07-22T13:35:19.307Z</time>
      </trkpt>
      <trkpt lat="47.85691" lon="-2.49187">
        <ele>71</ele>
        <time>2023-07-22T13:35:20.306Z</time>
      </trkpt>
      <trkpt lat="47.8569" lon="-2.49189">
        <ele>71</ele>
        <time>2023-07-22T13:35:21.306Z</time>
      </trkpt>
      <trkpt lat="47.8569" lon="-2.4919">
        <ele>71</ele>
        <time>2023-07-22T13:35:22.307Z</time>
      </trkpt>
      <trkpt lat="47.8569" lon="-2.49191">
        <ele>71</ele>
        <time>2023-07-22T13:35:23.306Z</time>
      </trkpt>
      <trkpt lat="47.8569" lon="-2.49192">
        <ele>71</ele>
        <time>2023-07-22T13:35:24.307Z</time>
      </trkpt>
      <trkpt lat="47.8569" lon="-2.49193">
        <ele>71</ele>
        <time>2023-07-22T13:35:25.307Z</time>
      </trkpt>
      <trkpt lat="47.85689" lon="-2.49194">
        <ele>71</ele>
        <time>2023-07-22T13:35:26.307Z</time>
      </trkpt>
      <trkpt lat="47.85689" lon="-2.49195">
        <ele>71</ele>
        <time>2023-07-22T13:35:27.306Z</time>
      </trkpt>
      <trkpt lat="47.85688" lon="-2.49196">
        <ele>71</ele>
        <time>2023-07-22T13:35:28.307Z</time>
      </trkpt>
      <trkpt lat="47.85688" lon="-2.49197">
        <ele>71</ele>
        <time>2023-07-22T13:35:29.306Z</time>
      </trkpt>
      <trkpt lat="47.85688" lon="-2.49198">
        <ele>71</ele>
        <time>2023-07-22T13:35:30.307Z</time>
      </trkpt>
      <trkpt lat="47.85688" lon="-2.49199">
        <ele>71</ele>
        <time>2023-07-22T13:35:31.307Z</time>
      </trkpt>
      <trkpt lat="47.85687" lon="-2.492">
        <ele>71</ele>
        <time>2023-07-22T13:35:32.307Z</time>
      </trkpt>
      <trkpt lat="47.85686" lon="-2.49201">
        <ele>71</ele>
        <time>2023-07-22T13:35:33.306Z</time>
      </trkpt>
      <trkpt lat="47.85686" lon="-2.49202">
        <ele>71</ele>
        <time>2023-07-22T13:35:34.306Z</time>
      </trkpt>
      <trkpt lat="47.85685" lon="-2.49204">
        <ele>71</ele>
        <time>2023-07-22T13:35:35.307Z</time>
      </trkpt>
      <trkpt lat="47.85685" lon="-2.49205">
        <ele>71</ele>
        <time>2023-07-22T13:35:36.306Z</time>
      </trkpt>
      <trkpt lat="47.85685" lon="-2.49207">
        <ele>71</ele>
        <time>2023-07-22T13:35:37.307Z</time>
      </trkpt>
      <trkpt lat="47.85684" lon="-2.49208">
        <ele>71</ele>
        <time>2023-07-22T13:35:38.306Z</time>
      </trkpt>
      <trkpt lat="47.85684" lon="-2.49211">
        <ele>71</ele>
        <time>2023-07-22T13:35:39.307Z</time>
      </trkpt>
      <trkpt lat="47.85683" lon="-2.49212">
        <ele>70</ele>
        <time>2023-07-22T13:35:40.307Z</time>
      </trkpt>
      <trkpt lat="47.85683" lon="-2.49214">
        <ele>70</ele>
        <time>2023-07-22T13:35:41.306Z</time>
      </trkpt>
      <trkpt lat="47.85683" lon="-2.49216">
        <ele>71</ele>
        <time>2023-07-22T13:35:42.307Z</time>
      </trkpt>
      <trkpt lat="47.85682" lon="-2.49218">
        <ele>71</ele>
        <time>2023-07-22T13:35:43.307Z</time>
      </trkpt>
      <trkpt lat="47.85682" lon="-2.49219">
        <ele>71</ele>
        <time>2023-07-22T13:35:44.306Z</time>
      </trkpt>
      <trkpt lat="47.85682" lon="-2.4922">
        <ele>71</ele>
        <time>2023-07-22T13:35:45.307Z</time>
      </trkpt>
      <trkpt lat="47.85682" lon="-2.49221">
        <ele>71</ele>
        <time>2023-07-22T13:35:46.307Z</time>
      </trkpt>
      <trkpt lat="47.85682" lon="-2.49221">
        <ele>71</ele>
        <time>2023-07-22T13:35:47.306Z</time>
      </trkpt>
      <trkpt lat="47.85682" lon="-2.49222">
        <ele>71</ele>
        <time>2023-07-22T13:35:48.307Z</time>
      </trkpt>
      <trkpt lat="47.85682" lon="-2.49223">
        <ele>71</ele>
        <time>2023-07-22T13:35:49.306Z</time>
      </trkpt>
      <trkpt lat="47.85681" lon="-2.49227">
        <ele>71</ele>
        <time>2023-07-22T13:35:50.307Z</time>
      </trkpt>
      <trkpt lat="47.85681" lon="-2.4923">
        <ele>71</ele>
        <time>2023-07-22T13:35:51.307Z</time>
      </trkpt>
      <trkpt lat="47.85681" lon="-2.49231">
        <ele>71</ele>
        <time>2023-07-22T13:35:52.306Z</time>
      </trkpt>
      <trkpt lat="47.8568" lon="-2.49232">
        <ele>71</ele>
        <time>2023-07-22T13:35:53.307Z</time>
      </trkpt>
      <trkpt lat="47.8568" lon="-2.49233">
        <ele>71</ele>
        <time>2023-07-22T13:35:54.306Z</time>
      </trkpt>
      <trkpt lat="47.8568" lon="-2.49235">
        <ele>72</ele>
        <time>2023-07-22T13:35:55.307Z</time>
      </trkpt>
      <trkpt lat="47.85679" lon="-2.49237">
        <ele>72</ele>
        <time>2023-07-22T13:35:56.306Z</time>
      </trkpt>
      <trkpt lat="47.85679" lon="-2.4924">
        <ele>72</ele>
        <time>2023-07-22T13:35:57.307Z</time>
      </trkpt>
      <trkpt lat="47.85678" lon="-2.49242">
        <ele>72</ele>
        <time>2023-07-22T13:35:58.307Z</time>
      </trkpt>
      <trkpt lat="47.85678" lon="-2.49245">
        <ele>72</ele>
        <time>2023-07-22T13:35:59.306Z</time>
      </trkpt>
      <trkpt lat="47.85678" lon="-2.49247">
        <ele>72</ele>
        <time>2023-07-22T13:36:00.307Z</time>
      </trkpt>
      <trkpt lat="47.85677" lon="-2.49249">
        <ele>72</ele>
        <time>2023-07-22T13:36:01.306Z</time>
      </trkpt>
      <trkpt lat="47.85677" lon="-2.4925">
        <ele>72</ele>
        <time>2023-07-22T13:36:02.307Z</time>
      </trkpt>
      <trkpt lat="47.85677" lon="-2.49251">
        <ele>72</ele>
        <time>2023-07-22T13:36:03.307Z</time>
      </trkpt>
      <trkpt lat="47.85675" lon="-2.49258">
        <ele>73</ele>
        <time>2023-07-22T13:36:09.651Z</time>
      </trkpt>
      <trkpt lat="47.85675" lon="-2.4926">
        <ele>73</ele>
        <time>2023-07-22T13:36:10.652Z</time>
      </trkpt>
      <trkpt lat="47.85675" lon="-2.49262">
        <ele>73</ele>
        <time>2023-07-22T13:36:11.651Z</time>
      </trkpt>
      <trkpt lat="47.85674" lon="-2.49262">
        <ele>73</ele>
        <time>2023-07-22T13:36:12.651Z</time>
      </trkpt>
      <trkpt lat="47.85674" lon="-2.49263">
        <ele>73</ele>
        <time>2023-07-22T13:36:13.651Z</time>
      </trkpt>
      <trkpt lat="47.85673" lon="-2.49265">
        <ele>73</ele>
        <time>2023-07-22T13:36:14.652Z</time>
      </trkpt>
      <trkpt lat="47.85672" lon="-2.49267">
        <ele>73</ele>
        <time>2023-07-22T13:36:15.651Z</time>
      </trkpt>
      <trkpt lat="47.85673" lon="-2.49268">
        <ele>73</ele>
        <time>2023-07-22T13:36:16.652Z</time>
      </trkpt>
      <trkpt lat="47.85673" lon="-2.4927">
        <ele>73</ele>
        <time>2023-07-22T13:36:17.651Z</time>
      </trkpt>
      <trkpt lat="47.85672" lon="-2.49273">
        <ele>73</ele>
        <time>2023-07-22T13:36:18.651Z</time>
      </trkpt>
      <trkpt lat="47.85671" lon="-2.49276">
        <ele>72</ele>
        <time>2023-07-22T13:36:19.652Z</time>
      </trkpt>
      <trkpt lat="47.85671" lon="-2.49279">
        <ele>72</ele>
        <time>2023-07-22T13:36:20.651Z</time>
      </trkpt>
      <trkpt lat="47.85671" lon="-2.4928">
        <ele>72</ele>
        <time>2023-07-22T13:36:21.652Z</time>
      </trkpt>
      <trkpt lat="47.85671" lon="-2.4928">
        <ele>71</ele>
        <time>2023-07-22T13:36:22.651Z</time>
      </trkpt>
      <trkpt lat="47.85672" lon="-2.49281">
        <ele>71</ele>
        <time>2023-07-22T13:36:23.652Z</time>
      </trkpt>
      <trkpt lat="47.85672" lon="-2.49281">
        <ele>71</ele>
        <time>2023-07-22T13:36:24.651Z</time>
      </trkpt>
      <trkpt lat="47.85672" lon="-2.49282">
        <ele>71</ele>
        <time>2023-07-22T13:36:25.651Z</time>
      </trkpt>
      <trkpt lat="47.85673" lon="-2.49282">
        <ele>70</ele>
        <time>2023-07-22T13:36:26.652Z</time>
      </trkpt>
      <trkpt lat="47.85673" lon="-2.49282">
        <ele>70</ele>
        <time>2023-07-22T13:36:27.651Z</time>
      </trkpt>
      <trkpt lat="47.85672" lon="-2.49283">
        <ele>70</ele>
        <time>2023-07-22T13:36:28.651Z</time>
      </trkpt>
      <trkpt lat="47.85672" lon="-2.49284">
        <ele>70</ele>
        <time>2023-07-22T13:36:29.652Z</time>
      </trkpt>
      <trkpt lat="47.85672" lon="-2.49285">
        <ele>70</ele>
        <time>2023-07-22T13:36:30.652Z</time>
      </trkpt>
      <trkpt lat="47.85672" lon="-2.49286">
        <ele>69</ele>
        <time>2023-07-22T13:36:31.652Z</time>
      </trkpt>
      <trkpt lat="47.85672" lon="-2.49288">
        <ele>69</ele>
        <time>2023-07-22T13:36:32.652Z</time>
      </trkpt>
      <trkpt lat="47.85672" lon="-2.49288">
        <ele>69</ele>
        <time>2023-07-22T13:36:33.651Z</time>
      </trkpt>
      <trkpt lat="47.85672" lon="-2.49289">
        <ele>69</ele>
        <time>2023-07-22T13:36:34.651Z</time>
      </trkpt>
      <trkpt lat="47.85672" lon="-2.49289">
        <ele>69</ele>
        <time>2023-07-22T13:36:35.651Z</time>
      </trkpt>
      <trkpt lat="47.85672" lon="-2.4929">
        <ele>69</ele>
        <time>2023-07-22T13:36:36.651Z</time>
      </trkpt>
      <trkpt lat="47.85671" lon="-2.49296">
        <ele>70</ele>
        <time>2023-07-22T13:36:42.967Z</time>
      </trkpt>
      <trkpt lat="47.85672" lon="-2.49297">
        <ele>70</ele>
        <time>2023-07-22T13:36:43.967Z</time>
      </trkpt>
      <trkpt lat="47.85672" lon="-2.49299">
        <ele>70</ele>
        <time>2023-07-22T13:36:44.967Z</time>
      </trkpt>
      <trkpt lat="47.85672" lon="-2.49302">
        <ele>70</ele>
        <time>2023-07-22T13:36:45.967Z</time>
      </trkpt>
      <trkpt lat="47.85671" lon="-2.49304">
        <ele>70</ele>
        <time>2023-07-22T13:36:46.968Z</time>
      </trkpt>
      <trkpt lat="47.85672" lon="-2.49306">
        <ele>70</ele>
        <time>2023-07-22T13:36:47.967Z</time>
      </trkpt>
      <trkpt lat="47.85672" lon="-2.49307">
        <ele>70</ele>
        <time>2023-07-22T13:36:48.967Z</time>
      </trkpt>
      <trkpt lat="47.85672" lon="-2.4931">
        <ele>70</ele>
        <time>2023-07-22T13:36:49.967Z</time>
      </trkpt>
      <trkpt lat="47.85673" lon="-2.49311">
        <ele>70</ele>
        <time>2023-07-22T13:36:50.967Z</time>
      </trkpt>
      <trkpt lat="47.85674" lon="-2.49313">
        <ele>70</ele>
        <time>2023-07-22T13:36:51.967Z</time>
      </trkpt>
      <trkpt lat="47.85674" lon="-2.49314">
        <ele>70</ele>
        <time>2023-07-22T13:36:52.968Z</time>
      </trkpt>
      <trkpt lat="47.85675" lon="-2.49315">
        <ele>70</ele>
        <time>2023-07-22T13:36:53.967Z</time>
      </trkpt>
      <trkpt lat="47.85676" lon="-2.49316">
        <ele>70</ele>
        <time>2023-07-22T13:36:54.967Z</time>
      </trkpt>
      <trkpt lat="47.85676" lon="-2.49318">
        <ele>70</ele>
        <time>2023-07-22T13:36:55.967Z</time>
      </trkpt>
      <trkpt lat="47.85677" lon="-2.49319">
        <ele>70</ele>
        <time>2023-07-22T13:36:56.967Z</time>
      </trkpt>
      <trkpt lat="47.85677" lon="-2.49321">
        <ele>70</ele>
        <time>2023-07-22T13:36:57.967Z</time>
      </trkpt>
      <trkpt lat="47.85677" lon="-2.49322">
        <ele>71</ele>
        <time>2023-07-22T13:36:58.967Z</time>
      </trkpt>
      <trkpt lat="47.85677" lon="-2.49323">
        <ele>71</ele>
        <time>2023-07-22T13:36:59.967Z</time>
      </trkpt>
      <trkpt lat="47.85678" lon="-2.49325">
        <ele>71</ele>
        <time>2023-07-22T13:37:00.967Z</time>
      </trkpt>
      <trkpt lat="47.85677" lon="-2.49327">
        <ele>71</ele>
        <time>2023-07-22T13:37:01.967Z</time>
      </trkpt>
      <trkpt lat="47.85677" lon="-2.4933">
        <ele>71</ele>
        <time>2023-07-22T13:37:02.967Z</time>
      </trkpt>
      <trkpt lat="47.85676" lon="-2.49332">
        <ele>72</ele>
        <time>2023-07-22T13:37:03.967Z</time>
      </trkpt>
      <trkpt lat="47.85676" lon="-2.49334">
        <ele>72</ele>
        <time>2023-07-22T13:37:04.967Z</time>
      </trkpt>
      <trkpt lat="47.85677" lon="-2.49336">
        <ele>72</ele>
        <time>2023-07-22T13:37:05.968Z</time>
      </trkpt>
      <trkpt lat="47.85677" lon="-2.49338">
        <ele>73</ele>
        <time>2023-07-22T13:37:06.967Z</time>
      </trkpt>
      <trkpt lat="47.85677" lon="-2.4934">
        <ele>73</ele>
        <time>2023-07-22T13:37:07.967Z</time>
      </trkpt>
      <trkpt lat="47.85676" lon="-2.49341">
        <ele>73</ele>
        <time>2023-07-22T13:37:08.967Z</time>
      </trkpt>
      <trkpt lat="47.85676" lon="-2.49343">
        <ele>73</ele>
        <time>2023-07-22T13:37:09.967Z</time>
      </trkpt>
      <trkpt lat="47.85676" lon="-2.49344">
        <ele>73</ele>
        <time>2023-07-22T13:37:10.968Z</time>
      </trkpt>
      <trkpt lat="47.85676" lon="-2.49346">
        <ele>73</ele>
        <time>2023-07-22T13:37:11.967Z</time>
      </trkpt>
      <trkpt lat="47.85675" lon="-2.49346">
        <ele>73</ele>
        <time>2023-07-22T13:37:12.968Z</time>
      </trkpt>
      <trkpt lat="47.85675" lon="-2.49347">
        <ele>73</ele>
        <time>2023-07-22T13:37:13.967Z</time>
      </trkpt>
      <trkpt lat="47.85674" lon="-2.49347">
        <ele>73</ele>
        <time>2023-07-22T13:37:14.968Z</time>
      </trkpt>
      <trkpt lat="47.85674" lon="-2.4935">
        <ele>73</ele>
        <time>2023-07-22T13:37:15.967Z</time>
      </trkpt>
      <trkpt lat="47.85673" lon="-2.49353">
        <ele>73</ele>
        <time>2023-07-22T13:37:16.967Z</time>
      </trkpt>
      <trkpt lat="47.85673" lon="-2.49355">
        <ele>73</ele>
        <time>2023-07-22T13:37:17.967Z</time>
      </trkpt>
      <trkpt lat="47.85672" lon="-2.49357">
        <ele>74</ele>
        <time>2023-07-22T13:37:18.967Z</time>
      </trkpt>
      <trkpt lat="47.85672" lon="-2.49358">
        <ele>74</ele>
        <time>2023-07-22T13:37:19.968Z</time>
      </trkpt>
      <trkpt lat="47.85672" lon="-2.49358">
        <ele>75</ele>
        <time>2023-07-22T13:37:20.967Z</time>
      </trkpt>
      <trkpt lat="47.85672" lon="-2.4936">
        <ele>75</ele>
        <time>2023-07-22T13:37:21.967Z</time>
      </trkpt>
      <trkpt lat="47.85672" lon="-2.49361">
        <ele>76</ele>
        <time>2023-07-22T13:37:22.967Z</time>
      </trkpt>
      <trkpt lat="47.85672" lon="-2.49362">
        <ele>77</ele>
        <time>2023-07-22T13:37:23.967Z</time>
      </trkpt>
      <trkpt lat="47.85672" lon="-2.49363">
        <ele>77</ele>
        <time>2023-07-22T13:37:24.967Z</time>
      </trkpt>
      <trkpt lat="47.85671" lon="-2.49364">
        <ele>78</ele>
        <time>2023-07-22T13:37:25.967Z</time>
      </trkpt>
      <trkpt lat="47.85671" lon="-2.49365">
        <ele>78</ele>
        <time>2023-07-22T13:37:26.967Z</time>
      </trkpt>
      <trkpt lat="47.85671" lon="-2.49367">
        <ele>78</ele>
        <time>2023-07-22T13:37:27.968Z</time>
      </trkpt>
      <trkpt lat="47.85671" lon="-2.49369">
        <ele>78</ele>
        <time>2023-07-22T13:37:28.968Z</time>
      </trkpt>
      <trkpt lat="47.85671" lon="-2.49372">
        <ele>78</ele>
        <time>2023-07-22T13:37:29.967Z</time>
      </trkpt>
      <trkpt lat="47.85671" lon="-2.49375">
        <ele>78</ele>
        <time>2023-07-22T13:37:30.968Z</time>
      </trkpt>
      <trkpt lat="47.85671" lon="-2.49377">
        <ele>78</ele>
        <time>2023-07-22T13:37:31.967Z</time>
      </trkpt>
      <trkpt lat="47.85671" lon="-2.49378">
        <ele>79</ele>
        <time>2023-07-22T13:37:32.967Z</time>
      </trkpt>
      <trkpt lat="47.85671" lon="-2.49381">
        <ele>79</ele>
        <time>2023-07-22T13:37:33.967Z</time>
      </trkpt>
      <trkpt lat="47.85672" lon="-2.49383">
        <ele>79</ele>
        <time>2023-07-22T13:37:34.967Z</time>
      </trkpt>
      <trkpt lat="47.85674" lon="-2.49383">
        <ele>79</ele>
        <time>2023-07-22T13:37:35.967Z</time>
      </trkpt>
      <trkpt lat="47.85676" lon="-2.49387">
        <ele>79</ele>
        <time>2023-07-22T13:37:36.967Z</time>
      </trkpt>
      <trkpt lat="47.85679" lon="-2.49388">
        <ele>79</ele>
        <time>2023-07-22T13:37:37.967Z</time>
      </trkpt>
      <trkpt lat="47.8568" lon="-2.49389">
        <ele>79</ele>
        <time>2023-07-22T13:37:38.967Z</time>
      </trkpt>
      <trkpt lat="47.85682" lon="-2.49392">
        <ele>80</ele>
        <time>2023-07-22T13:37:39.967Z</time>
      </trkpt>
      <trkpt lat="47.85683" lon="-2.49394">
        <ele>80</ele>
        <time>2023-07-22T13:37:40.967Z</time>
      </trkpt>
      <trkpt lat="47.85684" lon="-2.49395">
        <ele>80</ele>
        <time>2023-07-22T13:37:41.968Z</time>
      </trkpt>
      <trkpt lat="47.85685" lon="-2.49397">
        <ele>80</ele>
        <time>2023-07-22T13:37:42.967Z</time>
      </trkpt>
      <trkpt lat="47.85686" lon="-2.49399">
        <ele>80</ele>
        <time>2023-07-22T13:37:43.967Z</time>
      </trkpt>
      <trkpt lat="47.85687" lon="-2.49401">
        <ele>79</ele>
        <time>2023-07-22T13:37:44.967Z</time>
      </trkpt>
      <trkpt lat="47.85687" lon="-2.49402">
        <ele>79</ele>
        <time>2023-07-22T13:37:45.968Z</time>
      </trkpt>
      <trkpt lat="47.85687" lon="-2.494">
        <ele>79</ele>
        <time>2023-07-22T13:37:46.967Z</time>
      </trkpt>
      <trkpt lat="47.85687" lon="-2.49399">
        <ele>78</ele>
        <time>2023-07-22T13:37:47.967Z</time>
      </trkpt>
      <trkpt lat="47.85687" lon="-2.49399">
        <ele>78</ele>
        <time>2023-07-22T13:37:48.967Z</time>
      </trkpt>
      <trkpt lat="47.85688" lon="-2.49399">
        <ele>78</ele>
        <time>2023-07-22T13:37:49.968Z</time>
      </trkpt>
      <trkpt lat="47.85688" lon="-2.49398">
        <ele>78</ele>
        <time>2023-07-22T13:37:50.968Z</time>
      </trkpt>
      <trkpt lat="47.85689" lon="-2.49398">
        <ele>78</ele>
        <time>2023-07-22T13:37:51.968Z</time>
      </trkpt>
      <trkpt lat="47.85689" lon="-2.49399">
        <ele>78</ele>
        <time>2023-07-22T13:37:52.968Z</time>
      </trkpt>
      <trkpt lat="47.85689" lon="-2.49399">
        <ele>77</ele>
        <time>2023-07-22T13:37:53.967Z</time>
      </trkpt>
      <trkpt lat="47.8569" lon="-2.494">
        <ele>77</ele>
        <time>2023-07-22T13:37:54.967Z</time>
      </trkpt>
      <trkpt lat="47.85691" lon="-2.49401">
        <ele>77</ele>
        <time>2023-07-22T13:37:55.968Z</time>
      </trkpt>
      <trkpt lat="47.85691" lon="-2.49402">
        <ele>77</ele>
        <time>2023-07-22T13:37:56.967Z</time>
      </trkpt>
      <trkpt lat="47.85692" lon="-2.49402">
        <ele>77</ele>
        <time>2023-07-22T13:37:57.967Z</time>
      </trkpt>
      <trkpt lat="47.85692" lon="-2.49402">
        <ele>77</ele>
        <time>2023-07-22T13:37:58.967Z</time>
      </trkpt>
      <trkpt lat="47.85693" lon="-2.49402">
        <ele>77</ele>
        <time>2023-07-22T13:37:59.967Z</time>
      </trkpt>
      <trkpt lat="47.85693" lon="-2.49402">
        <ele>77</ele>
        <time>2023-07-22T13:38:00.968Z</time>
      </trkpt>
      <trkpt lat="47.85694" lon="-2.49402">
        <ele>77</ele>
        <time>2023-07-22T13:38:01.967Z</time>
      </trkpt>
      <trkpt lat="47.85694" lon="-2.49403">
        <ele>77</ele>
        <time>2023-07-22T13:38:02.967Z</time>
      </trkpt>
      <trkpt lat="47.85694" lon="-2.49404">
        <ele>77</ele>
        <time>2023-07-22T13:38:03.967Z</time>
      </trkpt>
      <trkpt lat="47.85694" lon="-2.49404">
        <ele>77</ele>
        <time>2023-07-22T13:38:04.968Z</time>
      </trkpt>
      <trkpt lat="47.85694" lon="-2.49404">
        <ele>77</ele>
        <time>2023-07-22T13:38:05.967Z</time>
      </trkpt>
      <trkpt lat="47.85695" lon="-2.49404">
        <ele>77</ele>
        <time>2023-07-22T13:38:06.967Z</time>
      </trkpt>
      <trkpt lat="47.85695" lon="-2.49405">
        <ele>77</ele>
        <time>2023-07-22T13:38:07.967Z</time>
      </trkpt>
      <trkpt lat="47.85695" lon="-2.49406">
        <ele>77</ele>
        <time>2023-07-22T13:38:08.967Z</time>
      </trkpt>
      <trkpt lat="47.85696" lon="-2.49406">
        <ele>77</ele>
        <time>2023-07-22T13:38:09.967Z</time>
      </trkpt>
      <trkpt lat="47.85697" lon="-2.49406">
        <ele>77</ele>
        <time>2023-07-22T13:38:10.967Z</time>
      </trkpt>
      <trkpt lat="47.85698" lon="-2.49406">
        <ele>78</ele>
        <time>2023-07-22T13:38:11.967Z</time>
      </trkpt>
      <trkpt lat="47.85698" lon="-2.49407">
        <ele>78</ele>
        <time>2023-07-22T13:38:12.968Z</time>
      </trkpt>
      <trkpt lat="47.85699" lon="-2.49407">
        <ele>79</ele>
        <time>2023-07-22T13:38:13.967Z</time>
      </trkpt>
      <trkpt lat="47.85699" lon="-2.49407">
        <ele>79</ele>
        <time>2023-07-22T13:38:14.968Z</time>
      </trkpt>
      <trkpt lat="47.857" lon="-2.49408">
        <ele>80</ele>
        <time>2023-07-22T13:38:15.967Z</time>
      </trkpt>
      <trkpt lat="47.85701" lon="-2.49408">
        <ele>80</ele>
        <time>2023-07-22T13:38:16.967Z</time>
      </trkpt>
      <trkpt lat="47.85701" lon="-2.49409">
        <ele>80</ele>
        <time>2023-07-22T13:38:17.967Z</time>
      </trkpt>
      <trkpt lat="47.85702" lon="-2.49409">
        <ele>81</ele>
        <time>2023-07-22T13:38:18.968Z</time>
      </trkpt>
      <trkpt lat="47.85702" lon="-2.49409">
        <ele>81</ele>
        <time>2023-07-22T13:38:19.967Z</time>
      </trkpt>
      <trkpt lat="47.85703" lon="-2.4941">
        <ele>81</ele>
        <time>2023-07-22T13:38:20.967Z</time>
      </trkpt>
      <trkpt lat="47.85704" lon="-2.4941">
        <ele>82</ele>
        <time>2023-07-22T13:38:21.967Z</time>
      </trkpt>
      <trkpt lat="47.85704" lon="-2.4941">
        <ele>82</ele>
        <time>2023-07-22T13:38:22.968Z</time>
      </trkpt>
      <trkpt lat="47.85704" lon="-2.4941">
        <ele>83</ele>
        <time>2023-07-22T13:38:23.968Z</time>
      </trkpt>
      <trkpt lat="47.85706" lon="-2.49414">
        <ele>80</ele>
        <time>2023-07-22T13:38:44.308Z</time>
      </trkpt>
      <trkpt lat="47.85706" lon="-2.49415">
        <ele>80</ele>
        <time>2023-07-22T13:38:45.309Z</time>
      </trkpt>
      <trkpt lat="47.85706" lon="-2.49415">
        <ele>80</ele>
        <time>2023-07-22T13:38:46.308Z</time>
      </trkpt>
      <trkpt lat="47.85706" lon="-2.49416">
        <ele>80</ele>
        <time>2023-07-22T13:38:47.308Z</time>
      </trkpt>
      <trkpt lat="47.85707" lon="-2.49414">
        <ele>78</ele>
        <time>2023-07-22T13:38:56.431Z</time>
      </trkpt>
      <trkpt lat="47.85708" lon="-2.49414">
        <ele>78</ele>
        <time>2023-07-22T13:38:57.430Z</time>
      </trkpt>
      <trkpt lat="47.85708" lon="-2.49414">
        <ele>77</ele>
        <time>2023-07-22T13:38:58.430Z</time>
      </trkpt>
      <trkpt lat="47.85709" lon="-2.49414">
        <ele>77</ele>
        <time>2023-07-22T13:38:59.430Z</time>
      </trkpt>
      <trkpt lat="47.85709" lon="-2.49415">
        <ele>77</ele>
        <time>2023-07-22T13:39:00.431Z</time>
      </trkpt>
      <trkpt lat="47.85709" lon="-2.49415">
        <ele>77</ele>
        <time>2023-07-22T13:39:01.431Z</time>
      </trkpt>
      <trkpt lat="47.85709" lon="-2.49416">
        <ele>76</ele>
        <time>2023-07-22T13:39:02.430Z</time>
      </trkpt>
      <trkpt lat="47.85709" lon="-2.49416">
        <ele>76</ele>
        <time>2023-07-22T13:39:03.430Z</time>
      </trkpt>
      <trkpt lat="47.85709" lon="-2.49417">
        <ele>77</ele>
        <time>2023-07-22T13:39:04.431Z</time>
      </trkpt>
      <trkpt lat="47.8571" lon="-2.49417">
        <ele>77</ele>
        <time>2023-07-22T13:39:05.430Z</time>
      </trkpt>
      <trkpt lat="47.8571" lon="-2.49417">
        <ele>77</ele>
        <time>2023-07-22T13:39:06.431Z</time>
      </trkpt>
      <trkpt lat="47.8571" lon="-2.49417">
        <ele>77</ele>
        <time>2023-07-22T13:39:07.430Z</time>
      </trkpt>
      <trkpt lat="47.85711" lon="-2.49417">
        <ele>78</ele>
        <time>2023-07-22T13:39:08.430Z</time>
      </trkpt>
      <trkpt lat="47.85712" lon="-2.49418">
        <ele>78</ele>
        <time>2023-07-22T13:39:09.430Z</time>
      </trkpt>
      <trkpt lat="47.85712" lon="-2.49419">
        <ele>78</ele>
        <time>2023-07-22T13:39:10.431Z</time>
      </trkpt>
      <trkpt lat="47.85712" lon="-2.49421">
        <ele>78</ele>
        <time>2023-07-22T13:39:11.430Z</time>
      </trkpt>
      <trkpt lat="47.85713" lon="-2.49422">
        <ele>78</ele>
        <time>2023-07-22T13:39:12.430Z</time>
      </trkpt>
      <trkpt lat="47.85712" lon="-2.49424">
        <ele>78</ele>
        <time>2023-07-22T13:39:13.430Z</time>
      </trkpt>
      <trkpt lat="47.85713" lon="-2.49425">
        <ele>78</ele>
        <time>2023-07-22T13:39:14.430Z</time>
      </trkpt>
      <trkpt lat="47.85713" lon="-2.49426">
        <ele>78</ele>
        <time>2023-07-22T13:39:15.430Z</time>
      </trkpt>
      <trkpt lat="47.85713" lon="-2.49427">
        <ele>79</ele>
        <time>2023-07-22T13:39:16.431Z</time>
      </trkpt>
      <trkpt lat="47.85714" lon="-2.49428">
        <ele>79</ele>
        <time>2023-07-22T13:39:17.430Z</time>
      </trkpt>
      <trkpt lat="47.85714" lon="-2.49429">
        <ele>79</ele>
        <time>2023-07-22T13:39:18.430Z</time>
      </trkpt>
      <trkpt lat="47.85714" lon="-2.4943">
        <ele>79</ele>
        <time>2023-07-22T13:39:19.430Z</time>
      </trkpt>
      <trkpt lat="47.85714" lon="-2.49432">
        <ele>79</ele>
        <time>2023-07-22T13:39:20.430Z</time>
      </trkpt>
      <trkpt lat="47.85713" lon="-2.49434">
        <ele>79</ele>
        <time>2023-07-22T13:39:21.431Z</time>
      </trkpt>
      <trkpt lat="47.85713" lon="-2.49436">
        <ele>79</ele>
        <time>2023-07-22T13:39:22.430Z</time>
      </trkpt>
      <trkpt lat="47.85713" lon="-2.49437">
        <ele>79</ele>
        <time>2023-07-22T13:39:23.431Z</time>
      </trkpt>
      <trkpt lat="47.85713" lon="-2.49439">
        <ele>79</ele>
        <time>2023-07-22T13:39:24.430Z</time>
      </trkpt>
      <trkpt lat="47.85714" lon="-2.4944">
        <ele>80</ele>
        <time>2023-07-22T13:39:25.430Z</time>
      </trkpt>
      <trkpt lat="47.85714" lon="-2.49441">
        <ele>80</ele>
        <time>2023-07-22T13:39:26.430Z</time>
      </trkpt>
      <trkpt lat="47.85715" lon="-2.49444">
        <ele>80</ele>
        <time>2023-07-22T13:39:27.431Z</time>
      </trkpt>
      <trkpt lat="47.85715" lon="-2.49446">
        <ele>80</ele>
        <time>2023-07-22T13:39:28.430Z</time>
      </trkpt>
      <trkpt lat="47.85715" lon="-2.49446">
        <ele>80</ele>
        <time>2023-07-22T13:39:29.430Z</time>
      </trkpt>
      <trkpt lat="47.85715" lon="-2.49447">
        <ele>81</ele>
        <time>2023-07-22T13:39:30.430Z</time>
      </trkpt>
      <trkpt lat="47.85715" lon="-2.49447">
        <ele>81</ele>
        <time>2023-07-22T13:39:31.430Z</time>
      </trkpt>
      <trkpt lat="47.85716" lon="-2.49448">
        <ele>81</ele>
        <time>2023-07-22T13:39:32.430Z</time>
      </trkpt>
      <trkpt lat="47.85716" lon="-2.4945">
        <ele>81</ele>
        <time>2023-07-22T13:39:33.430Z</time>
      </trkpt>
      <trkpt lat="47.85716" lon="-2.4945">
        <ele>81</ele>
        <time>2023-07-22T13:39:34.431Z</time>
      </trkpt>
      <trkpt lat="47.85715" lon="-2.49452">
        <ele>81</ele>
        <time>2023-07-22T13:39:35.431Z</time>
      </trkpt>
      <trkpt lat="47.85715" lon="-2.49453">
        <ele>81</ele>
        <time>2023-07-22T13:39:36.430Z</time>
      </trkpt>
      <trkpt lat="47.85716" lon="-2.49453">
        <ele>81</ele>
        <time>2023-07-22T13:39:37.431Z</time>
      </trkpt>
      <trkpt lat="47.85715" lon="-2.49454">
        <ele>81</ele>
        <time>2023-07-22T13:39:38.430Z</time>
      </trkpt>
      <trkpt lat="47.85715" lon="-2.49455">
        <ele>81</ele>
        <time>2023-07-22T13:39:39.431Z</time>
      </trkpt>
      <trkpt lat="47.85716" lon="-2.49455">
        <ele>81</ele>
        <time>2023-07-22T13:39:40.430Z</time>
      </trkpt>
      <trkpt lat="47.85716" lon="-2.49455">
        <ele>81</ele>
        <time>2023-07-22T13:39:41.430Z</time>
      </trkpt>
      <trkpt lat="47.85717" lon="-2.49456">
        <ele>81</ele>
        <time>2023-07-22T13:39:42.431Z</time>
      </trkpt>
      <trkpt lat="47.85717" lon="-2.49457">
        <ele>81</ele>
        <time>2023-07-22T13:39:43.431Z</time>
      </trkpt>
      <trkpt lat="47.85717" lon="-2.49457">
        <ele>81</ele>
        <time>2023-07-22T13:39:44.430Z</time>
      </trkpt>
      <trkpt lat="47.85718" lon="-2.49458">
        <ele>81</ele>
        <time>2023-07-22T13:39:45.431Z</time>
      </trkpt>
      <trkpt lat="47.85718" lon="-2.49458">
        <ele>81</ele>
        <time>2023-07-22T13:39:46.430Z</time>
      </trkpt>
      <trkpt lat="47.85718" lon="-2.49458">
        <ele>81</ele>
        <time>2023-07-22T13:39:47.430Z</time>
      </trkpt>
      <trkpt lat="47.85718" lon="-2.49459">
        <ele>81</ele>
        <time>2023-07-22T13:39:48.430Z</time>
      </trkpt>
      <trkpt lat="47.85719" lon="-2.4946">
        <ele>81</ele>
        <time>2023-07-22T13:39:49.430Z</time>
      </trkpt>
      <trkpt lat="47.8572" lon="-2.4946">
        <ele>82</ele>
        <time>2023-07-22T13:39:50.431Z</time>
      </trkpt>
      <trkpt lat="47.85721" lon="-2.4946">
        <ele>82</ele>
        <time>2023-07-22T13:39:51.430Z</time>
      </trkpt>
      <trkpt lat="47.85721" lon="-2.49461">
        <ele>82</ele>
        <time>2023-07-22T13:39:52.431Z</time>
      </trkpt>
      <trkpt lat="47.85721" lon="-2.49461">
        <ele>82</ele>
        <time>2023-07-22T13:39:53.431Z</time>
      </trkpt>
      <trkpt lat="47.85722" lon="-2.49465">
        <ele>77</ele>
        <time>2023-07-22T13:40:05.675Z</time>
      </trkpt>
      <trkpt lat="47.85722" lon="-2.49466">
        <ele>76</ele>
        <time>2023-07-22T13:40:06.675Z</time>
      </trkpt>
      <trkpt lat="47.85723" lon="-2.49467">
        <ele>76</ele>
        <time>2023-07-22T13:40:07.674Z</time>
      </trkpt>
      <trkpt lat="47.85724" lon="-2.49468">
        <ele>76</ele>
        <time>2023-07-22T13:40:08.675Z</time>
      </trkpt>
      <trkpt lat="47.85725" lon="-2.49469">
        <ele>76</ele>
        <time>2023-07-22T13:40:09.674Z</time>
      </trkpt>
      <trkpt lat="47.85726" lon="-2.49469">
        <ele>76</ele>
        <time>2023-07-22T13:40:10.674Z</time>
      </trkpt>
      <trkpt lat="47.85726" lon="-2.49469">
        <ele>76</ele>
        <time>2023-07-22T13:40:11.674Z</time>
      </trkpt>
      <trkpt lat="47.85726" lon="-2.49471">
        <ele>76</ele>
        <time>2023-07-22T13:40:12.675Z</time>
      </trkpt>
      <trkpt lat="47.85726" lon="-2.49471">
        <ele>75</ele>
        <time>2023-07-22T13:40:13.674Z</time>
      </trkpt>
      <trkpt lat="47.85726" lon="-2.49471">
        <ele>75</ele>
        <time>2023-07-22T13:40:14.674Z</time>
      </trkpt>
      <trkpt lat="47.85726" lon="-2.49471">
        <ele>75</ele>
        <time>2023-07-22T13:40:15.674Z</time>
      </trkpt>
      <trkpt lat="47.85727" lon="-2.49473">
        <ele>75</ele>
        <time>2023-07-22T13:40:16.674Z</time>
      </trkpt>
      <trkpt lat="47.85727" lon="-2.49475">
        <ele>74</ele>
        <time>2023-07-22T13:40:17.674Z</time>
      </trkpt>
      <trkpt lat="47.85727" lon="-2.49477">
        <ele>74</ele>
        <time>2023-07-22T13:40:18.674Z</time>
      </trkpt>
      <trkpt lat="47.85727" lon="-2.49478">
        <ele>73</ele>
        <time>2023-07-22T13:40:19.674Z</time>
      </trkpt>
      <trkpt lat="47.85727" lon="-2.49478">
        <ele>73</ele>
        <time>2023-07-22T13:40:20.674Z</time>
      </trkpt>
      <trkpt lat="47.85727" lon="-2.49478">
        <ele>72</ele>
        <time>2023-07-22T13:40:21.674Z</time>
      </trkpt>
      <trkpt lat="47.85727" lon="-2.49479">
        <ele>72</ele>
        <time>2023-07-22T13:40:22.675Z</time>
      </trkpt>
      <trkpt lat="47.85728" lon="-2.49479">
        <ele>71</ele>
        <time>2023-07-22T13:40:23.675Z</time>
      </trkpt>
      <trkpt lat="47.85728" lon="-2.4948">
        <ele>71</ele>
        <time>2023-07-22T13:40:24.675Z</time>
      </trkpt>
      <trkpt lat="47.85728" lon="-2.49481">
        <ele>71</ele>
        <time>2023-07-22T13:40:25.675Z</time>
      </trkpt>
      <trkpt lat="47.85728" lon="-2.49482">
        <ele>71</ele>
        <time>2023-07-22T13:40:26.674Z</time>
      </trkpt>
      <trkpt lat="47.85729" lon="-2.49483">
        <ele>71</ele>
        <time>2023-07-22T13:40:27.675Z</time>
      </trkpt>
      <trkpt lat="47.85729" lon="-2.49483">
        <ele>71</ele>
        <time>2023-07-22T13:40:28.674Z</time>
      </trkpt>
      <trkpt lat="47.85729" lon="-2.49483">
        <ele>71</ele>
        <time>2023-07-22T13:40:29.674Z</time>
      </trkpt>
      <trkpt lat="47.8573" lon="-2.49485">
        <ele>71</ele>
        <time>2023-07-22T13:40:30.674Z</time>
      </trkpt>
      <trkpt lat="47.8573" lon="-2.49487">
        <ele>71</ele>
        <time>2023-07-22T13:40:31.674Z</time>
      </trkpt>
      <trkpt lat="47.8573" lon="-2.49489">
        <ele>71</ele>
        <time>2023-07-22T13:40:32.674Z</time>
      </trkpt>
      <trkpt lat="47.8573" lon="-2.49489">
        <ele>71</ele>
        <time>2023-07-22T13:40:33.674Z</time>
      </trkpt>
      <trkpt lat="47.8573" lon="-2.4949">
        <ele>71</ele>
        <time>2023-07-22T13:40:34.674Z</time>
      </trkpt>
      <trkpt lat="47.8573" lon="-2.49491">
        <ele>71</ele>
        <time>2023-07-22T13:40:35.674Z</time>
      </trkpt>
      <trkpt lat="47.8573" lon="-2.49492">
        <ele>71</ele>
        <time>2023-07-22T13:40:36.674Z</time>
      </trkpt>
      <trkpt lat="47.85729" lon="-2.49494">
        <ele>71</ele>
        <time>2023-07-22T13:40:37.675Z</time>
      </trkpt>
      <trkpt lat="47.85729" lon="-2.49496">
        <ele>71</ele>
        <time>2023-07-22T13:40:38.674Z</time>
      </trkpt>
      <trkpt lat="47.85729" lon="-2.49497">
        <ele>71</ele>
        <time>2023-07-22T13:40:39.675Z</time>
      </trkpt>
      <trkpt lat="47.85729" lon="-2.49498">
        <ele>72</ele>
        <time>2023-07-22T13:40:40.675Z</time>
      </trkpt>
      <trkpt lat="47.8573" lon="-2.49499">
        <ele>72</ele>
        <time>2023-07-22T13:40:41.674Z</time>
      </trkpt>
      <trkpt lat="47.8573" lon="-2.495">
        <ele>72</ele>
        <time>2023-07-22T13:40:42.675Z</time>
      </trkpt>
      <trkpt lat="47.8573" lon="-2.49501">
        <ele>72</ele>
        <time>2023-07-22T13:40:43.674Z</time>
      </trkpt>
      <trkpt lat="47.85731" lon="-2.49503">
        <ele>72</ele>
        <time>2023-07-22T13:40:44.674Z</time>
      </trkpt>
      <trkpt lat="47.85731" lon="-2.49504">
        <ele>73</ele>
        <time>2023-07-22T13:40:45.674Z</time>
      </trkpt>
      <trkpt lat="47.85731" lon="-2.49508">
        <ele>73</ele>
        <time>2023-07-22T13:40:46.675Z</time>
      </trkpt>
      <trkpt lat="47.8573" lon="-2.49511">
        <ele>74</ele>
        <time>2023-07-22T13:40:47.675Z</time>
      </trkpt>
      <trkpt lat="47.85729" lon="-2.49514">
        <ele>74</ele>
        <time>2023-07-22T13:40:48.675Z</time>
      </trkpt>
      <trkpt lat="47.85729" lon="-2.49517">
        <ele>75</ele>
        <time>2023-07-22T13:40:49.675Z</time>
      </trkpt>
      <trkpt lat="47.85729" lon="-2.4952">
        <ele>75</ele>
        <time>2023-07-22T13:40:50.674Z</time>
      </trkpt>
      <trkpt lat="47.85729" lon="-2.49524">
        <ele>75</ele>
        <time>2023-07-22T13:40:51.674Z</time>
      </trkpt>
      <trkpt lat="47.85729" lon="-2.49526">
        <ele>75</ele>
        <time>2023-07-22T13:40:52.674Z</time>
      </trkpt>
      <trkpt lat="47.85729" lon="-2.49528">
        <ele>75</ele>
        <time>2023-07-22T13:40:53.675Z</time>
      </trkpt>
      <trkpt lat="47.85729" lon="-2.4953">
        <ele>75</ele>
        <time>2023-07-22T13:40:54.674Z</time>
      </trkpt>
      <trkpt lat="47.85729" lon="-2.49531">
        <ele>75</ele>
        <time>2023-07-22T13:40:55.674Z</time>
      </trkpt>
      <trkpt lat="47.85729" lon="-2.49532">
        <ele>75</ele>
        <time>2023-07-22T13:40:56.674Z</time>
      </trkpt>
      <trkpt lat="47.85729" lon="-2.49534">
        <ele>75</ele>
        <time>2023-07-22T13:40:57.674Z</time>
      </trkpt>
      <trkpt lat="47.85729" lon="-2.49536">
        <ele>76</ele>
        <time>2023-07-22T13:40:58.674Z</time>
      </trkpt>
      <trkpt lat="47.85729" lon="-2.49539">
        <ele>76</ele>
        <time>2023-07-22T13:40:59.674Z</time>
      </trkpt>
      <trkpt lat="47.8573" lon="-2.49543">
        <ele>76</ele>
        <time>2023-07-22T13:41:00.674Z</time>
      </trkpt>
      <trkpt lat="47.85731" lon="-2.49546">
        <ele>76</ele>
        <time>2023-07-22T13:41:01.674Z</time>
      </trkpt>
      <trkpt lat="47.85731" lon="-2.49549">
        <ele>76</ele>
        <time>2023-07-22T13:41:02.675Z</time>
      </trkpt>
      <trkpt lat="47.85731" lon="-2.4955">
        <ele>76</ele>
        <time>2023-07-22T13:41:03.675Z</time>
      </trkpt>
      <trkpt lat="47.85731" lon="-2.49551">
        <ele>76</ele>
        <time>2023-07-22T13:41:04.675Z</time>
      </trkpt>
      <trkpt lat="47.85731" lon="-2.49553">
        <ele>76</ele>
        <time>2023-07-22T13:41:05.674Z</time>
      </trkpt>
      <trkpt lat="47.85731" lon="-2.49554">
        <ele>76</ele>
        <time>2023-07-22T13:41:06.675Z</time>
      </trkpt>
      <trkpt lat="47.85731" lon="-2.49556">
        <ele>77</ele>
        <time>2023-07-22T13:41:07.674Z</time>
      </trkpt>
      <trkpt lat="47.85731" lon="-2.49558">
        <ele>77</ele>
        <time>2023-07-22T13:41:08.674Z</time>
      </trkpt>
      <trkpt lat="47.85731" lon="-2.49559">
        <ele>77</ele>
        <time>2023-07-22T13:41:09.674Z</time>
      </trkpt>
      <trkpt lat="47.85731" lon="-2.49561">
        <ele>77</ele>
        <time>2023-07-22T13:41:10.674Z</time>
      </trkpt>
      <trkpt lat="47.8573" lon="-2.49562">
        <ele>78</ele>
        <time>2023-07-22T13:41:11.674Z</time>
      </trkpt>
      <trkpt lat="47.8573" lon="-2.49564">
        <ele>78</ele>
        <time>2023-07-22T13:41:12.674Z</time>
      </trkpt>
      <trkpt lat="47.8573" lon="-2.49566">
        <ele>79</ele>
        <time>2023-07-22T13:41:13.675Z</time>
      </trkpt>
      <trkpt lat="47.85729" lon="-2.49567">
        <ele>79</ele>
        <time>2023-07-22T13:41:14.674Z</time>
      </trkpt>
      <trkpt lat="47.85729" lon="-2.49569">
        <ele>79</ele>
        <time>2023-07-22T13:41:15.674Z</time>
      </trkpt>
      <trkpt lat="47.85728" lon="-2.49571">
        <ele>80</ele>
        <time>2023-07-22T13:41:16.675Z</time>
      </trkpt>
      <trkpt lat="47.85728" lon="-2.49574">
        <ele>80</ele>
        <time>2023-07-22T13:41:17.674Z</time>
      </trkpt>
      <trkpt lat="47.85727" lon="-2.49576">
        <ele>80</ele>
        <time>2023-07-22T13:41:18.674Z</time>
      </trkpt>
      <trkpt lat="47.85727" lon="-2.4958">
        <ele>80</ele>
        <time>2023-07-22T13:41:19.674Z</time>
      </trkpt>
      <trkpt lat="47.85727" lon="-2.49581">
        <ele>80</ele>
        <time>2023-07-22T13:41:20.675Z</time>
      </trkpt>
      <trkpt lat="47.85727" lon="-2.49583">
        <ele>80</ele>
        <time>2023-07-22T13:41:21.674Z</time>
      </trkpt>
      <trkpt lat="47.85727" lon="-2.49585">
        <ele>80</ele>
        <time>2023-07-22T13:41:22.674Z</time>
      </trkpt>
      <trkpt lat="47.85727" lon="-2.49586">
        <ele>80</ele>
        <time>2023-07-22T13:41:23.674Z</time>
      </trkpt>
      <trkpt lat="47.85727" lon="-2.49589">
        <ele>80</ele>
        <time>2023-07-22T13:41:24.675Z</time>
      </trkpt>
      <trkpt lat="47.85727" lon="-2.49591">
        <ele>80</ele>
        <time>2023-07-22T13:41:25.674Z</time>
      </trkpt>
      <trkpt lat="47.85727" lon="-2.49593">
        <ele>80</ele>
        <time>2023-07-22T13:41:26.675Z</time>
      </trkpt>
      <trkpt lat="47.85727" lon="-2.49595">
        <ele>81</ele>
        <time>2023-07-22T13:41:27.674Z</time>
      </trkpt>
      <trkpt lat="47.85727" lon="-2.49596">
        <ele>81</ele>
        <time>2023-07-22T13:41:28.674Z</time>
      </trkpt>
      <trkpt lat="47.85727" lon="-2.49597">
        <ele>81</ele>
        <time>2023-07-22T13:41:29.675Z</time>
      </trkpt>
      <trkpt lat="47.85727" lon="-2.49599">
        <ele>82</ele>
        <time>2023-07-22T13:41:30.674Z</time>
      </trkpt>
      <trkpt lat="47.85726" lon="-2.49601">
        <ele>82</ele>
        <time>2023-07-22T13:41:31.675Z</time>
      </trkpt>
      <trkpt lat="47.85726" lon="-2.49602">
        <ele>83</ele>
        <time>2023-07-22T13:41:32.675Z</time>
      </trkpt>
      <trkpt lat="47.85726" lon="-2.49604">
        <ele>83</ele>
        <time>2023-07-22T13:41:33.675Z</time>
      </trkpt>
      <trkpt lat="47.85726" lon="-2.49606">
        <ele>83</ele>
        <time>2023-07-22T13:41:34.674Z</time>
      </trkpt>
      <trkpt lat="47.85726" lon="-2.49609">
        <ele>83</ele>
        <time>2023-07-22T13:41:35.675Z</time>
      </trkpt>
      <trkpt lat="47.85726" lon="-2.49613">
        <ele>83</ele>
        <time>2023-07-22T13:41:36.674Z</time>
      </trkpt>
      <trkpt lat="47.85724" lon="-2.49616">
        <ele>82</ele>
        <time>2023-07-22T13:41:37.675Z</time>
      </trkpt>
      <trkpt lat="47.85723" lon="-2.49618">
        <ele>82</ele>
        <time>2023-07-22T13:41:38.674Z</time>
      </trkpt>
      <trkpt lat="47.85722" lon="-2.4962">
        <ele>81</ele>
        <time>2023-07-22T13:41:39.675Z</time>
      </trkpt>
      <trkpt lat="47.85721" lon="-2.49622">
        <ele>81</ele>
        <time>2023-07-22T13:41:40.675Z</time>
      </trkpt>
      <trkpt lat="47.8572" lon="-2.49624">
        <ele>81</ele>
        <time>2023-07-22T13:41:41.674Z</time>
      </trkpt>
      <trkpt lat="47.8572" lon="-2.49626">
        <ele>80</ele>
        <time>2023-07-22T13:41:42.675Z</time>
      </trkpt>
      <trkpt lat="47.85722" lon="-2.49627">
        <ele>79</ele>
        <time>2023-07-22T13:41:43.675Z</time>
      </trkpt>
      <trkpt lat="47.85723" lon="-2.49629">
        <ele>79</ele>
        <time>2023-07-22T13:41:44.674Z</time>
      </trkpt>
      <trkpt lat="47.85723" lon="-2.49631">
        <ele>78</ele>
        <time>2023-07-22T13:41:45.674Z</time>
      </trkpt>
      <trkpt lat="47.85724" lon="-2.49633">
        <ele>77</ele>
        <time>2023-07-22T13:41:46.675Z</time>
      </trkpt>
      <trkpt lat="47.85724" lon="-2.49637">
        <ele>77</ele>
        <time>2023-07-22T13:41:47.674Z</time>
      </trkpt>
      <trkpt lat="47.85725" lon="-2.49638">
        <ele>76</ele>
        <time>2023-07-22T13:41:48.674Z</time>
      </trkpt>
      <trkpt lat="47.85723" lon="-2.4964">
        <ele>76</ele>
        <time>2023-07-22T13:41:49.674Z</time>
      </trkpt>
      <trkpt lat="47.85723" lon="-2.49643">
        <ele>75</ele>
        <time>2023-07-22T13:41:50.675Z</time>
      </trkpt>
      <trkpt lat="47.85722" lon="-2.49643">
        <ele>75</ele>
        <time>2023-07-22T13:41:51.674Z</time>
      </trkpt>
      <trkpt lat="47.85722" lon="-2.49644">
        <ele>75</ele>
        <time>2023-07-22T13:41:52.674Z</time>
      </trkpt>
      <trkpt lat="47.85722" lon="-2.49645">
        <ele>75</ele>
        <time>2023-07-22T13:41:53.674Z</time>
      </trkpt>
      <trkpt lat="47.85722" lon="-2.49647">
        <ele>75</ele>
        <time>2023-07-22T13:41:54.675Z</time>
      </trkpt>
      <trkpt lat="47.85722" lon="-2.49649">
        <ele>75</ele>
        <time>2023-07-22T13:41:55.675Z</time>
      </trkpt>
      <trkpt lat="47.85723" lon="-2.49651">
        <ele>76</ele>
        <time>2023-07-22T13:41:56.675Z</time>
      </trkpt>
      <trkpt lat="47.85723" lon="-2.49653">
        <ele>76</ele>
        <time>2023-07-22T13:41:57.675Z</time>
      </trkpt>
      <trkpt lat="47.85722" lon="-2.49655">
        <ele>76</ele>
        <time>2023-07-22T13:41:58.675Z</time>
      </trkpt>
      <trkpt lat="47.85721" lon="-2.49658">
        <ele>75</ele>
        <time>2023-07-22T13:41:59.675Z</time>
      </trkpt>
      <trkpt lat="47.8572" lon="-2.4966">
        <ele>75</ele>
        <time>2023-07-22T13:42:00.674Z</time>
      </trkpt>
      <trkpt lat="47.8572" lon="-2.4966">
        <ele>75</ele>
        <time>2023-07-22T13:42:01.675Z</time>
      </trkpt>
      <trkpt lat="47.8572" lon="-2.49662">
        <ele>75</ele>
        <time>2023-07-22T13:42:02.674Z</time>
      </trkpt>
      <trkpt lat="47.85719" lon="-2.49668">
        <ele>75</ele>
        <time>2023-07-22T13:42:03.675Z</time>
      </trkpt>
      <trkpt lat="47.85719" lon="-2.49669">
        <ele>75</ele>
        <time>2023-07-22T13:42:04.674Z</time>
      </trkpt>
      <trkpt lat="47.85719" lon="-2.49669">
        <ele>74</ele>
        <time>2023-07-22T13:42:05.674Z</time>
      </trkpt>
      <trkpt lat="47.85718" lon="-2.49668">
        <ele>74</ele>
        <time>2023-07-22T13:42:06.674Z</time>
      </trkpt>
      <trkpt lat="47.85718" lon="-2.49668">
        <ele>74</ele>
        <time>2023-07-22T13:42:07.675Z</time>
      </trkpt>
      <trkpt lat="47.85717" lon="-2.49669">
        <ele>74</ele>
        <time>2023-07-22T13:42:08.674Z</time>
      </trkpt>
      <trkpt lat="47.85717" lon="-2.49668">
        <ele>74</ele>
        <time>2023-07-22T13:42:09.675Z</time>
      </trkpt>
      <trkpt lat="47.85717" lon="-2.49669">
        <ele>74</ele>
        <time>2023-07-22T13:42:10.674Z</time>
      </trkpt>
      <trkpt lat="47.85716" lon="-2.4967">
        <ele>74</ele>
        <time>2023-07-22T13:42:11.675Z</time>
      </trkpt>
      <trkpt lat="47.85716" lon="-2.4967">
        <ele>74</ele>
        <time>2023-07-22T13:42:12.674Z</time>
      </trkpt>
      <trkpt lat="47.85716" lon="-2.4967">
        <ele>74</ele>
        <time>2023-07-22T13:42:13.675Z</time>
      </trkpt>
      <trkpt lat="47.85715" lon="-2.49675">
        <ele>75</ele>
        <time>2023-07-22T13:42:19.011Z</time>
      </trkpt>
      <trkpt lat="47.85715" lon="-2.49676">
        <ele>75</ele>
        <time>2023-07-22T13:42:20.010Z</time>
      </trkpt>
      <trkpt lat="47.85715" lon="-2.49678">
        <ele>75</ele>
        <time>2023-07-22T13:42:21.010Z</time>
      </trkpt>
      <trkpt lat="47.85716" lon="-2.49679">
        <ele>75</ele>
        <time>2023-07-22T13:42:22.010Z</time>
      </trkpt>
      <trkpt lat="47.85716" lon="-2.4968">
        <ele>75</ele>
        <time>2023-07-22T13:42:23.011Z</time>
      </trkpt>
      <trkpt lat="47.85716" lon="-2.49681">
        <ele>74</ele>
        <time>2023-07-22T13:42:24.011Z</time>
      </trkpt>
      <trkpt lat="47.85715" lon="-2.49683">
        <ele>74</ele>
        <time>2023-07-22T13:42:25.010Z</time>
      </trkpt>
      <trkpt lat="47.85715" lon="-2.49684">
        <ele>73</ele>
        <time>2023-07-22T13:42:26.010Z</time>
      </trkpt>
      <trkpt lat="47.85715" lon="-2.49685">
        <ele>73</ele>
        <time>2023-07-22T13:42:27.011Z</time>
      </trkpt>
      <trkpt lat="47.85714" lon="-2.49686">
        <ele>72</ele>
        <time>2023-07-22T13:42:28.010Z</time>
      </trkpt>
      <trkpt lat="47.85713" lon="-2.49687">
        <ele>72</ele>
        <time>2023-07-22T13:42:29.010Z</time>
      </trkpt>
      <trkpt lat="47.85712" lon="-2.49688">
        <ele>72</ele>
        <time>2023-07-22T13:42:30.010Z</time>
      </trkpt>
      <trkpt lat="47.85712" lon="-2.4969">
        <ele>71</ele>
        <time>2023-07-22T13:42:31.010Z</time>
      </trkpt>
      <trkpt lat="47.85712" lon="-2.49692">
        <ele>71</ele>
        <time>2023-07-22T13:42:32.010Z</time>
      </trkpt>
      <trkpt lat="47.85711" lon="-2.49695">
        <ele>71</ele>
        <time>2023-07-22T13:42:33.011Z</time>
      </trkpt>
      <trkpt lat="47.85711" lon="-2.49696">
        <ele>70</ele>
        <time>2023-07-22T13:42:34.010Z</time>
      </trkpt>
      <trkpt lat="47.8571" lon="-2.49698">
        <ele>70</ele>
        <time>2023-07-22T13:42:35.010Z</time>
      </trkpt>
      <trkpt lat="47.8571" lon="-2.497">
        <ele>70</ele>
        <time>2023-07-22T13:42:36.010Z</time>
      </trkpt>
      <trkpt lat="47.85709" lon="-2.49701">
        <ele>69</ele>
        <time>2023-07-22T13:42:37.010Z</time>
      </trkpt>
      <trkpt lat="47.85709" lon="-2.49702">
        <ele>69</ele>
        <time>2023-07-22T13:42:38.011Z</time>
      </trkpt>
      <trkpt lat="47.85708" lon="-2.49704">
        <ele>69</ele>
        <time>2023-07-22T13:42:39.011Z</time>
      </trkpt>
      <trkpt lat="47.85708" lon="-2.49706">
        <ele>68</ele>
        <time>2023-07-22T13:42:40.011Z</time>
      </trkpt>
      <trkpt lat="47.85707" lon="-2.49709">
        <ele>68</ele>
        <time>2023-07-22T13:42:41.011Z</time>
      </trkpt>
      <trkpt lat="47.85706" lon="-2.49712">
        <ele>68</ele>
        <time>2023-07-22T13:42:42.010Z</time>
      </trkpt>
      <trkpt lat="47.85706" lon="-2.49713">
        <ele>68</ele>
        <time>2023-07-22T13:42:43.011Z</time>
      </trkpt>
      <trkpt lat="47.85706" lon="-2.49714">
        <ele>68</ele>
        <time>2023-07-22T13:42:44.010Z</time>
      </trkpt>
      <trkpt lat="47.85706" lon="-2.49716">
        <ele>68</ele>
        <time>2023-07-22T13:42:45.010Z</time>
      </trkpt>
      <trkpt lat="47.85705" lon="-2.49718">
        <ele>68</ele>
        <time>2023-07-22T13:42:46.010Z</time>
      </trkpt>
      <trkpt lat="47.85705" lon="-2.4972">
        <ele>68</ele>
        <time>2023-07-22T13:42:47.011Z</time>
      </trkpt>
      <trkpt lat="47.85705" lon="-2.49721">
        <ele>68</ele>
        <time>2023-07-22T13:42:48.010Z</time>
      </trkpt>
      <trkpt lat="47.85704" lon="-2.49723">
        <ele>69</ele>
        <time>2023-07-22T13:42:49.010Z</time>
      </trkpt>
      <trkpt lat="47.85703" lon="-2.49725">
        <ele>69</ele>
        <time>2023-07-22T13:42:50.011Z</time>
      </trkpt>
      <trkpt lat="47.85703" lon="-2.49726">
        <ele>70</ele>
        <time>2023-07-22T13:42:51.011Z</time>
      </trkpt>
      <trkpt lat="47.85703" lon="-2.49727">
        <ele>70</ele>
        <time>2023-07-22T13:42:52.010Z</time>
      </trkpt>
      <trkpt lat="47.85703" lon="-2.49728">
        <ele>69</ele>
        <time>2023-07-22T13:42:53.010Z</time>
      </trkpt>
      <trkpt lat="47.85703" lon="-2.4973">
        <ele>69</ele>
        <time>2023-07-22T13:42:54.010Z</time>
      </trkpt>
      <trkpt lat="47.85702" lon="-2.49732">
        <ele>68</ele>
        <time>2023-07-22T13:42:55.010Z</time>
      </trkpt>
      <trkpt lat="47.85702" lon="-2.49734">
        <ele>68</ele>
        <time>2023-07-22T13:42:56.010Z</time>
      </trkpt>
      <trkpt lat="47.85702" lon="-2.49735">
        <ele>68</ele>
        <time>2023-07-22T13:42:57.010Z</time>
      </trkpt>
      <trkpt lat="47.85702" lon="-2.49736">
        <ele>67</ele>
        <time>2023-07-22T13:42:58.010Z</time>
      </trkpt>
      <trkpt lat="47.85703" lon="-2.49738">
        <ele>67</ele>
        <time>2023-07-22T13:42:59.010Z</time>
      </trkpt>
      <trkpt lat="47.85703" lon="-2.49739">
        <ele>67</ele>
        <time>2023-07-22T13:43:00.010Z</time>
      </trkpt>
      <trkpt lat="47.85703" lon="-2.4974">
        <ele>67</ele>
        <time>2023-07-22T13:43:01.010Z</time>
      </trkpt>
      <trkpt lat="47.85704" lon="-2.49742">
        <ele>66</ele>
        <time>2023-07-22T13:43:02.010Z</time>
      </trkpt>
      <trkpt lat="47.85704" lon="-2.49743">
        <ele>66</ele>
        <time>2023-07-22T13:43:03.010Z</time>
      </trkpt>
      <trkpt lat="47.85703" lon="-2.49744">
        <ele>66</ele>
        <time>2023-07-22T13:43:04.010Z</time>
      </trkpt>
      <trkpt lat="47.85702" lon="-2.49745">
        <ele>66</ele>
        <time>2023-07-22T13:43:05.010Z</time>
      </trkpt>
      <trkpt lat="47.85702" lon="-2.49747">
        <ele>66</ele>
        <time>2023-07-22T13:43:06.011Z</time>
      </trkpt>
      <trkpt lat="47.85702" lon="-2.49748">
        <ele>66</ele>
        <time>2023-07-22T13:43:07.010Z</time>
      </trkpt>
      <trkpt lat="47.85701" lon="-2.4975">
        <ele>65</ele>
        <time>2023-07-22T13:43:08.011Z</time>
      </trkpt>
      <trkpt lat="47.857" lon="-2.4975">
        <ele>65</ele>
        <time>2023-07-22T13:43:09.010Z</time>
      </trkpt>
      <trkpt lat="47.857" lon="-2.49752">
        <ele>65</ele>
        <time>2023-07-22T13:43:10.010Z</time>
      </trkpt>
      <trkpt lat="47.857" lon="-2.49753">
        <ele>65</ele>
        <time>2023-07-22T13:43:11.010Z</time>
      </trkpt>
      <trkpt lat="47.85699" lon="-2.49753">
        <ele>65</ele>
        <time>2023-07-22T13:43:12.010Z</time>
      </trkpt>
      <trkpt lat="47.85699" lon="-2.49753">
        <ele>65</ele>
        <time>2023-07-22T13:43:13.010Z</time>
      </trkpt>
      <trkpt lat="47.85698" lon="-2.49754">
        <ele>65</ele>
        <time>2023-07-22T13:43:14.011Z</time>
      </trkpt>
      <trkpt lat="47.85697" lon="-2.49757">
        <ele>64</ele>
        <time>2023-07-22T13:43:15.011Z</time>
      </trkpt>
      <trkpt lat="47.85697" lon="-2.49759">
        <ele>64</ele>
        <time>2023-07-22T13:43:16.010Z</time>
      </trkpt>
      <trkpt lat="47.85697" lon="-2.4976">
        <ele>64</ele>
        <time>2023-07-22T13:43:17.010Z</time>
      </trkpt>
      <trkpt lat="47.85697" lon="-2.49761">
        <ele>64</ele>
        <time>2023-07-22T13:43:18.011Z</time>
      </trkpt>
      <trkpt lat="47.85696" lon="-2.49762">
        <ele>64</ele>
        <time>2023-07-22T13:43:19.011Z</time>
      </trkpt>
      <trkpt lat="47.85697" lon="-2.49763">
        <ele>64</ele>
        <time>2023-07-22T13:43:20.011Z</time>
      </trkpt>
      <trkpt lat="47.85697" lon="-2.49764">
        <ele>64</ele>
        <time>2023-07-22T13:43:21.010Z</time>
      </trkpt>
      <trkpt lat="47.85699" lon="-2.49765">
        <ele>64</ele>
        <time>2023-07-22T13:43:22.010Z</time>
      </trkpt>
      <trkpt lat="47.857" lon="-2.49766">
        <ele>64</ele>
        <time>2023-07-22T13:43:23.010Z</time>
      </trkpt>
      <trkpt lat="47.857" lon="-2.49767">
        <ele>64</ele>
        <time>2023-07-22T13:43:24.010Z</time>
      </trkpt>
      <trkpt lat="47.85701" lon="-2.49768">
        <ele>64</ele>
        <time>2023-07-22T13:43:25.011Z</time>
      </trkpt>
      <trkpt lat="47.85701" lon="-2.4977">
        <ele>63</ele>
        <time>2023-07-22T13:43:26.010Z</time>
      </trkpt>
      <trkpt lat="47.85701" lon="-2.49771">
        <ele>63</ele>
        <time>2023-07-22T13:43:27.010Z</time>
      </trkpt>
      <trkpt lat="47.85701" lon="-2.49773">
        <ele>63</ele>
        <time>2023-07-22T13:43:28.010Z</time>
      </trkpt>
      <trkpt lat="47.85701" lon="-2.49774">
        <ele>63</ele>
        <time>2023-07-22T13:43:29.010Z</time>
      </trkpt>
      <trkpt lat="47.85701" lon="-2.49776">
        <ele>63</ele>
        <time>2023-07-22T13:43:30.011Z</time>
      </trkpt>
      <trkpt lat="47.85701" lon="-2.49779">
        <ele>63</ele>
        <time>2023-07-22T13:43:31.010Z</time>
      </trkpt>
      <trkpt lat="47.85701" lon="-2.49781">
        <ele>63</ele>
        <time>2023-07-22T13:43:32.010Z</time>
      </trkpt>
      <trkpt lat="47.857" lon="-2.49782">
        <ele>62</ele>
        <time>2023-07-22T13:43:33.010Z</time>
      </trkpt>
      <trkpt lat="47.857" lon="-2.49784">
        <ele>62</ele>
        <time>2023-07-22T13:43:34.011Z</time>
      </trkpt>
      <trkpt lat="47.857" lon="-2.49785">
        <ele>61</ele>
        <time>2023-07-22T13:43:35.011Z</time>
      </trkpt>
      <trkpt lat="47.857" lon="-2.49787">
        <ele>61</ele>
        <time>2023-07-22T13:43:36.010Z</time>
      </trkpt>
      <trkpt lat="47.857" lon="-2.49787">
        <ele>60</ele>
        <time>2023-07-22T13:43:37.010Z</time>
      </trkpt>
      <trkpt lat="47.857" lon="-2.49789">
        <ele>60</ele>
        <time>2023-07-22T13:43:38.010Z</time>
      </trkpt>
      <trkpt lat="47.857" lon="-2.4979">
        <ele>60</ele>
        <time>2023-07-22T13:43:39.011Z</time>
      </trkpt>
      <trkpt lat="47.857" lon="-2.49791">
        <ele>59</ele>
        <time>2023-07-22T13:43:40.010Z</time>
      </trkpt>
      <trkpt lat="47.857" lon="-2.49792">
        <ele>59</ele>
        <time>2023-07-22T13:43:41.011Z</time>
      </trkpt>
      <trkpt lat="47.857" lon="-2.49793">
        <ele>59</ele>
        <time>2023-07-22T13:43:42.010Z</time>
      </trkpt>
      <trkpt lat="47.857" lon="-2.49793">
        <ele>59</ele>
        <time>2023-07-22T13:43:43.011Z</time>
      </trkpt>
      <trkpt lat="47.857" lon="-2.49794">
        <ele>58</ele>
        <time>2023-07-22T13:43:44.010Z</time>
      </trkpt>
      <trkpt lat="47.857" lon="-2.49795">
        <ele>58</ele>
        <time>2023-07-22T13:43:45.010Z</time>
      </trkpt>
      <trkpt lat="47.857" lon="-2.49797">
        <ele>58</ele>
        <time>2023-07-22T13:43:46.011Z</time>
      </trkpt>
      <trkpt lat="47.857" lon="-2.49798">
        <ele>58</ele>
        <time>2023-07-22T13:43:47.011Z</time>
      </trkpt>
      <trkpt lat="47.857" lon="-2.49799">
        <ele>58</ele>
        <time>2023-07-22T13:43:48.010Z</time>
      </trkpt>
      <trkpt lat="47.857" lon="-2.498">
        <ele>58</ele>
        <time>2023-07-22T13:43:49.010Z</time>
      </trkpt>
      <trkpt lat="47.857" lon="-2.49801">
        <ele>58</ele>
        <time>2023-07-22T13:43:50.010Z</time>
      </trkpt>
      <trkpt lat="47.857" lon="-2.49802">
        <ele>58</ele>
        <time>2023-07-22T13:43:51.010Z</time>
      </trkpt>
      <trkpt lat="47.857" lon="-2.49803">
        <ele>58</ele>
        <time>2023-07-22T13:43:52.010Z</time>
      </trkpt>
      <trkpt lat="47.857" lon="-2.49805">
        <ele>58</ele>
        <time>2023-07-22T13:43:53.010Z</time>
      </trkpt>
      <trkpt lat="47.857" lon="-2.49805">
        <ele>58</ele>
        <time>2023-07-22T13:43:54.010Z</time>
      </trkpt>
      <trkpt lat="47.857" lon="-2.49806">
        <ele>58</ele>
        <time>2023-07-22T13:43:55.010Z</time>
      </trkpt>
      <trkpt lat="47.857" lon="-2.49806">
        <ele>58</ele>
        <time>2023-07-22T13:43:56.010Z</time>
      </trkpt>
      <trkpt lat="47.85699" lon="-2.49811">
        <ele>61</ele>
        <time>2023-07-22T13:44:07.660Z</time>
      </trkpt>
      <trkpt lat="47.85699" lon="-2.49811">
        <ele>62</ele>
        <time>2023-07-22T13:44:08.661Z</time>
      </trkpt>
      <trkpt lat="47.85698" lon="-2.49811">
        <ele>62</ele>
        <time>2023-07-22T13:44:09.660Z</time>
      </trkpt>
      <trkpt lat="47.85698" lon="-2.49812">
        <ele>63</ele>
        <time>2023-07-22T13:44:10.660Z</time>
      </trkpt>
      <trkpt lat="47.85698" lon="-2.49812">
        <ele>63</ele>
        <time>2023-07-22T13:44:11.661Z</time>
      </trkpt>
      <trkpt lat="47.85697" lon="-2.49814">
        <ele>63</ele>
        <time>2023-07-22T13:44:12.660Z</time>
      </trkpt>
      <trkpt lat="47.85696" lon="-2.49815">
        <ele>63</ele>
        <time>2023-07-22T13:44:13.660Z</time>
      </trkpt>
      <trkpt lat="47.85696" lon="-2.49816">
        <ele>63</ele>
        <time>2023-07-22T13:44:14.661Z</time>
      </trkpt>
      <trkpt lat="47.85697" lon="-2.49817">
        <ele>63</ele>
        <time>2023-07-22T13:44:15.660Z</time>
      </trkpt>
      <trkpt lat="47.85697" lon="-2.4982">
        <ele>63</ele>
        <time>2023-07-22T13:44:16.661Z</time>
      </trkpt>
      <trkpt lat="47.85696" lon="-2.49821">
        <ele>63</ele>
        <time>2023-07-22T13:44:17.661Z</time>
      </trkpt>
      <trkpt lat="47.85695" lon="-2.49822">
        <ele>62</ele>
        <time>2023-07-22T13:44:18.660Z</time>
      </trkpt>
      <trkpt lat="47.85694" lon="-2.49824">
        <ele>62</ele>
        <time>2023-07-22T13:44:19.661Z</time>
      </trkpt>
      <trkpt lat="47.85693" lon="-2.49826">
        <ele>62</ele>
        <time>2023-07-22T13:44:20.661Z</time>
      </trkpt>
      <trkpt lat="47.85693" lon="-2.49827">
        <ele>62</ele>
        <time>2023-07-22T13:44:21.660Z</time>
      </trkpt>
      <trkpt lat="47.85693" lon="-2.49829">
        <ele>61</ele>
        <time>2023-07-22T13:44:22.661Z</time>
      </trkpt>
      <trkpt lat="47.85693" lon="-2.4983">
        <ele>61</ele>
        <time>2023-07-22T13:44:23.660Z</time>
      </trkpt>
      <trkpt lat="47.85693" lon="-2.49831">
        <ele>60</ele>
        <time>2023-07-22T13:44:24.660Z</time>
      </trkpt>
      <trkpt lat="47.85694" lon="-2.49833">
        <ele>60</ele>
        <time>2023-07-22T13:44:25.661Z</time>
      </trkpt>
      <trkpt lat="47.85694" lon="-2.49834">
        <ele>60</ele>
        <time>2023-07-22T13:44:26.660Z</time>
      </trkpt>
      <trkpt lat="47.85693" lon="-2.49836">
        <ele>59</ele>
        <time>2023-07-22T13:44:27.661Z</time>
      </trkpt>
      <trkpt lat="47.85693" lon="-2.49837">
        <ele>59</ele>
        <time>2023-07-22T13:44:28.661Z</time>
      </trkpt>
      <trkpt lat="47.85693" lon="-2.49838">
        <ele>59</ele>
        <time>2023-07-22T13:44:29.660Z</time>
      </trkpt>
      <trkpt lat="47.85693" lon="-2.49838">
        <ele>59</ele>
        <time>2023-07-22T13:44:30.660Z</time>
      </trkpt>
      <trkpt lat="47.85692" lon="-2.49839">
        <ele>59</ele>
        <time>2023-07-22T13:44:31.660Z</time>
      </trkpt>
      <trkpt lat="47.85693" lon="-2.4984">
        <ele>59</ele>
        <time>2023-07-22T13:44:32.661Z</time>
      </trkpt>
      <trkpt lat="47.85693" lon="-2.4984">
        <ele>59</ele>
        <time>2023-07-22T13:44:33.661Z</time>
      </trkpt>
      <trkpt lat="47.85693" lon="-2.49842">
        <ele>59</ele>
        <time>2023-07-22T13:44:34.660Z</time>
      </trkpt>
      <trkpt lat="47.85693" lon="-2.49843">
        <ele>60</ele>
        <time>2023-07-22T13:44:35.661Z</time>
      </trkpt>
      <trkpt lat="47.85693" lon="-2.49844">
        <ele>60</ele>
        <time>2023-07-22T13:44:36.661Z</time>
      </trkpt>
      <trkpt lat="47.85693" lon="-2.49845">
        <ele>60</ele>
        <time>2023-07-22T13:44:37.661Z</time>
      </trkpt>
      <trkpt lat="47.85693" lon="-2.49847">
        <ele>60</ele>
        <time>2023-07-22T13:44:38.661Z</time>
      </trkpt>
      <trkpt lat="47.85693" lon="-2.49848">
        <ele>59</ele>
        <time>2023-07-22T13:44:39.661Z</time>
      </trkpt>
      <trkpt lat="47.85692" lon="-2.49849">
        <ele>59</ele>
        <time>2023-07-22T13:44:40.661Z</time>
      </trkpt>
      <trkpt lat="47.85693" lon="-2.4985">
        <ele>59</ele>
        <time>2023-07-22T13:44:41.661Z</time>
      </trkpt>
      <trkpt lat="47.85693" lon="-2.49852">
        <ele>59</ele>
        <time>2023-07-22T13:44:42.660Z</time>
      </trkpt>
      <trkpt lat="47.85693" lon="-2.49852">
        <ele>58</ele>
        <time>2023-07-22T13:44:43.660Z</time>
      </trkpt>
      <trkpt lat="47.85693" lon="-2.49854">
        <ele>58</ele>
        <time>2023-07-22T13:44:44.661Z</time>
      </trkpt>
      <trkpt lat="47.85692" lon="-2.49855">
        <ele>58</ele>
        <time>2023-07-22T13:44:45.660Z</time>
      </trkpt>
      <trkpt lat="47.85692" lon="-2.49857">
        <ele>58</ele>
        <time>2023-07-22T13:44:46.661Z</time>
      </trkpt>
      <trkpt lat="47.85692" lon="-2.49859">
        <ele>58</ele>
        <time>2023-07-22T13:44:47.660Z</time>
      </trkpt>
      <trkpt lat="47.85692" lon="-2.49861">
        <ele>58</ele>
        <time>2023-07-22T13:44:48.661Z</time>
      </trkpt>
      <trkpt lat="47.85692" lon="-2.49862">
        <ele>58</ele>
        <time>2023-07-22T13:44:49.661Z</time>
      </trkpt>
      <trkpt lat="47.85692" lon="-2.49862">
        <ele>58</ele>
        <time>2023-07-22T13:44:50.660Z</time>
      </trkpt>
      <trkpt lat="47.85693" lon="-2.49862">
        <ele>57</ele>
        <time>2023-07-22T13:44:51.661Z</time>
      </trkpt>
      <trkpt lat="47.85694" lon="-2.49863">
        <ele>57</ele>
        <time>2023-07-22T13:44:52.660Z</time>
      </trkpt>
      <trkpt lat="47.85693" lon="-2.49864">
        <ele>57</ele>
        <time>2023-07-22T13:44:53.661Z</time>
      </trkpt>
      <trkpt lat="47.85694" lon="-2.49865">
        <ele>56</ele>
        <time>2023-07-22T13:44:54.661Z</time>
      </trkpt>
      <trkpt lat="47.85694" lon="-2.49867">
        <ele>56</ele>
        <time>2023-07-22T13:44:55.660Z</time>
      </trkpt>
      <trkpt lat="47.85693" lon="-2.4987">
        <ele>55</ele>
        <time>2023-07-22T13:44:56.661Z</time>
      </trkpt>
      <trkpt lat="47.85693" lon="-2.49872">
        <ele>55</ele>
        <time>2023-07-22T13:44:57.660Z</time>
      </trkpt>
      <trkpt lat="47.85692" lon="-2.49874">
        <ele>54</ele>
        <time>2023-07-22T13:44:58.661Z</time>
      </trkpt>
      <trkpt lat="47.85692" lon="-2.49877">
        <ele>54</ele>
        <time>2023-07-22T13:44:59.661Z</time>
      </trkpt>
      <trkpt lat="47.85691" lon="-2.4988">
        <ele>54</ele>
        <time>2023-07-22T13:45:00.660Z</time>
      </trkpt>
      <trkpt lat="47.85691" lon="-2.49882">
        <ele>53</ele>
        <time>2023-07-22T13:45:01.661Z</time>
      </trkpt>
      <trkpt lat="47.8569" lon="-2.49884">
        <ele>53</ele>
        <time>2023-07-22T13:45:02.661Z</time>
      </trkpt>
      <trkpt lat="47.85689" lon="-2.49892">
        <ele>54</ele>
        <time>2023-07-22T13:45:07.914Z</time>
      </trkpt>
      <trkpt lat="47.85689" lon="-2.49894">
        <ele>55</ele>
        <time>2023-07-22T13:45:08.913Z</time>
      </trkpt>
      <trkpt lat="47.85689" lon="-2.49894">
        <ele>55</ele>
        <time>2023-07-22T13:45:09.913Z</time>
      </trkpt>
      <trkpt lat="47.85689" lon="-2.49895">
        <ele>55</ele>
        <time>2023-07-22T13:45:10.913Z</time>
      </trkpt>
      <trkpt lat="47.85689" lon="-2.49898">
        <ele>56</ele>
        <time>2023-07-22T13:45:11.913Z</time>
      </trkpt>
      <trkpt lat="47.85688" lon="-2.49903">
        <ele>56</ele>
        <time>2023-07-22T13:45:12.913Z</time>
      </trkpt>
      <trkpt lat="47.85688" lon="-2.49905">
        <ele>57</ele>
        <time>2023-07-22T13:45:13.913Z</time>
      </trkpt>
      <trkpt lat="47.85688" lon="-2.49905">
        <ele>57</ele>
        <time>2023-07-22T13:45:14.913Z</time>
      </trkpt>
      <trkpt lat="47.85688" lon="-2.49907">
        <ele>57</ele>
        <time>2023-07-22T13:45:15.913Z</time>
      </trkpt>
      <trkpt lat="47.85688" lon="-2.49908">
        <ele>58</ele>
        <time>2023-07-22T13:45:16.913Z</time>
      </trkpt>
      <trkpt lat="47.85687" lon="-2.49911">
        <ele>59</ele>
        <time>2023-07-22T13:45:17.913Z</time>
      </trkpt>
      <trkpt lat="47.85687" lon="-2.49912">
        <ele>59</ele>
        <time>2023-07-22T13:45:18.913Z</time>
      </trkpt>
      <trkpt lat="47.85687" lon="-2.49912">
        <ele>59</ele>
        <time>2023-07-22T13:45:19.913Z</time>
      </trkpt>
      <trkpt lat="47.85687" lon="-2.49914">
        <ele>59</ele>
        <time>2023-07-22T13:45:20.913Z</time>
      </trkpt>
      <trkpt lat="47.85687" lon="-2.49915">
        <ele>59</ele>
        <time>2023-07-22T13:45:21.913Z</time>
      </trkpt>
      <trkpt lat="47.85686" lon="-2.49918">
        <ele>60</ele>
        <time>2023-07-22T13:45:22.913Z</time>
      </trkpt>
      <trkpt lat="47.85685" lon="-2.4992">
        <ele>60</ele>
        <time>2023-07-22T13:45:23.913Z</time>
      </trkpt>
      <trkpt lat="47.85685" lon="-2.4992">
        <ele>60</ele>
        <time>2023-07-22T13:45:24.913Z</time>
      </trkpt>
      <trkpt lat="47.85684" lon="-2.49922">
        <ele>60</ele>
        <time>2023-07-22T13:45:25.913Z</time>
      </trkpt>
      <trkpt lat="47.85684" lon="-2.49923">
        <ele>60</ele>
        <time>2023-07-22T13:45:26.913Z</time>
      </trkpt>
      <trkpt lat="47.85683" lon="-2.49926">
        <ele>59</ele>
        <time>2023-07-22T13:45:27.913Z</time>
      </trkpt>
      <trkpt lat="47.85683" lon="-2.49927">
        <ele>59</ele>
        <time>2023-07-22T13:45:28.913Z</time>
      </trkpt>
      <trkpt lat="47.85683" lon="-2.49927">
        <ele>59</ele>
        <time>2023-07-22T13:45:29.913Z</time>
      </trkpt>
      <trkpt lat="47.85683" lon="-2.49928">
        <ele>59</ele>
        <time>2023-07-22T13:45:30.913Z</time>
      </trkpt>
      <trkpt lat="47.85684" lon="-2.4993">
        <ele>59</ele>
        <time>2023-07-22T13:45:31.913Z</time>
      </trkpt>
      <trkpt lat="47.85685" lon="-2.49932">
        <ele>59</ele>
        <time>2023-07-22T13:45:32.913Z</time>
      </trkpt>
      <trkpt lat="47.85684" lon="-2.49934">
        <ele>59</ele>
        <time>2023-07-22T13:45:33.914Z</time>
      </trkpt>
      <trkpt lat="47.85684" lon="-2.49934">
        <ele>59</ele>
        <time>2023-07-22T13:45:34.914Z</time>
      </trkpt>
      <trkpt lat="47.85684" lon="-2.49936">
        <ele>59</ele>
        <time>2023-07-22T13:45:35.913Z</time>
      </trkpt>
      <trkpt lat="47.85683" lon="-2.49937">
        <ele>59</ele>
        <time>2023-07-22T13:45:36.913Z</time>
      </trkpt>
      <trkpt lat="47.85681" lon="-2.49941">
        <ele>59</ele>
        <time>2023-07-22T13:45:37.913Z</time>
      </trkpt>
      <trkpt lat="47.8568" lon="-2.49944">
        <ele>59</ele>
        <time>2023-07-22T13:45:38.914Z</time>
      </trkpt>
      <trkpt lat="47.8568" lon="-2.49944">
        <ele>59</ele>
        <time>2023-07-22T13:45:39.914Z</time>
      </trkpt>
      <trkpt lat="47.85679" lon="-2.49947">
        <ele>59</ele>
        <time>2023-07-22T13:45:40.913Z</time>
      </trkpt>
      <trkpt lat="47.8568" lon="-2.49948">
        <ele>59</ele>
        <time>2023-07-22T13:45:41.913Z</time>
      </trkpt>
      <trkpt lat="47.85681" lon="-2.4995">
        <ele>59</ele>
        <time>2023-07-22T13:45:42.913Z</time>
      </trkpt>
      <trkpt lat="47.8568" lon="-2.49952">
        <ele>60</ele>
        <time>2023-07-22T13:45:43.914Z</time>
      </trkpt>
      <trkpt lat="47.8568" lon="-2.49952">
        <ele>60</ele>
        <time>2023-07-22T13:45:44.913Z</time>
      </trkpt>
      <trkpt lat="47.8568" lon="-2.49955">
        <ele>60</ele>
        <time>2023-07-22T13:45:45.913Z</time>
      </trkpt>
      <trkpt lat="47.8568" lon="-2.49957">
        <ele>60</ele>
        <time>2023-07-22T13:45:46.914Z</time>
      </trkpt>
      <trkpt lat="47.8568" lon="-2.49959">
        <ele>60</ele>
        <time>2023-07-22T13:45:47.914Z</time>
      </trkpt>
      <trkpt lat="47.8568" lon="-2.49959">
        <ele>60</ele>
        <time>2023-07-22T13:45:48.913Z</time>
      </trkpt>
      <trkpt lat="47.8568" lon="-2.4996">
        <ele>60</ele>
        <time>2023-07-22T13:45:49.913Z</time>
      </trkpt>
      <trkpt lat="47.85681" lon="-2.49961">
        <ele>60</ele>
        <time>2023-07-22T13:45:50.913Z</time>
      </trkpt>
      <trkpt lat="47.85681" lon="-2.49962">
        <ele>60</ele>
        <time>2023-07-22T13:45:51.913Z</time>
      </trkpt>
      <trkpt lat="47.85681" lon="-2.49963">
        <ele>61</ele>
        <time>2023-07-22T13:45:52.914Z</time>
      </trkpt>
      <trkpt lat="47.85681" lon="-2.49963">
        <ele>61</ele>
        <time>2023-07-22T13:45:53.913Z</time>
      </trkpt>
      <trkpt lat="47.85681" lon="-2.49964">
        <ele>61</ele>
        <time>2023-07-22T13:45:54.913Z</time>
      </trkpt>
      <trkpt lat="47.85682" lon="-2.49965">
        <ele>62</ele>
        <time>2023-07-22T13:45:55.914Z</time>
      </trkpt>
      <trkpt lat="47.85683" lon="-2.49967">
        <ele>62</ele>
        <time>2023-07-22T13:45:56.913Z</time>
      </trkpt>
      <trkpt lat="47.85684" lon="-2.49967">
        <ele>62</ele>
        <time>2023-07-22T13:45:57.913Z</time>
      </trkpt>
      <trkpt lat="47.85683" lon="-2.49969">
        <ele>62</ele>
        <time>2023-07-22T13:45:58.913Z</time>
      </trkpt>
      <trkpt lat="47.85683" lon="-2.49971">
        <ele>63</ele>
        <time>2023-07-22T13:45:59.913Z</time>
      </trkpt>
      <trkpt lat="47.85682" lon="-2.49973">
        <ele>63</ele>
        <time>2023-07-22T13:46:00.914Z</time>
      </trkpt>
      <trkpt lat="47.85682" lon="-2.49973">
        <ele>63</ele>
        <time>2023-07-22T13:46:01.914Z</time>
      </trkpt>
      <trkpt lat="47.85683" lon="-2.49973">
        <ele>63</ele>
        <time>2023-07-22T13:46:02.913Z</time>
      </trkpt>
      <trkpt lat="47.85682" lon="-2.49975">
        <ele>63</ele>
        <time>2023-07-22T13:46:03.913Z</time>
      </trkpt>
      <trkpt lat="47.85682" lon="-2.49976">
        <ele>64</ele>
        <time>2023-07-22T13:46:04.913Z</time>
      </trkpt>
      <trkpt lat="47.85682" lon="-2.49977">
        <ele>64</ele>
        <time>2023-07-22T13:46:05.913Z</time>
      </trkpt>
      <trkpt lat="47.85682" lon="-2.49978">
        <ele>63</ele>
        <time>2023-07-22T13:46:06.913Z</time>
      </trkpt>
      <trkpt lat="47.85682" lon="-2.49978">
        <ele>63</ele>
        <time>2023-07-22T13:46:07.913Z</time>
      </trkpt>
      <trkpt lat="47.85682" lon="-2.4998">
        <ele>63</ele>
        <time>2023-07-22T13:46:08.913Z</time>
      </trkpt>
      <trkpt lat="47.85681" lon="-2.49981">
        <ele>63</ele>
        <time>2023-07-22T13:46:09.913Z</time>
      </trkpt>
      <trkpt lat="47.85681" lon="-2.49983">
        <ele>63</ele>
        <time>2023-07-22T13:46:10.913Z</time>
      </trkpt>
      <trkpt lat="47.85681" lon="-2.49984">
        <ele>63</ele>
        <time>2023-07-22T13:46:11.913Z</time>
      </trkpt>
      <trkpt lat="47.8568" lon="-2.49986">
        <ele>63</ele>
        <time>2023-07-22T13:46:12.914Z</time>
      </trkpt>
      <trkpt lat="47.8568" lon="-2.49988">
        <ele>62</ele>
        <time>2023-07-22T13:46:13.914Z</time>
      </trkpt>
      <trkpt lat="47.8568" lon="-2.49991">
        <ele>62</ele>
        <time>2023-07-22T13:46:14.913Z</time>
      </trkpt>
      <trkpt lat="47.8568" lon="-2.49994">
        <ele>62</ele>
        <time>2023-07-22T13:46:15.914Z</time>
      </trkpt>
      <trkpt lat="47.85681" lon="-2.49997">
        <ele>62</ele>
        <time>2023-07-22T13:46:16.913Z</time>
      </trkpt>
      <trkpt lat="47.85681" lon="-2.49999">
        <ele>62</ele>
        <time>2023-07-22T13:46:17.913Z</time>
      </trkpt>
      <trkpt lat="47.85681" lon="-2.50002">
        <ele>62</ele>
        <time>2023-07-22T13:46:18.913Z</time>
      </trkpt>
      <trkpt lat="47.8568" lon="-2.50004">
        <ele>62</ele>
        <time>2023-07-22T13:46:19.913Z</time>
      </trkpt>
      <trkpt lat="47.8568" lon="-2.50005">
        <ele>62</ele>
        <time>2023-07-22T13:46:20.913Z</time>
      </trkpt>
      <trkpt lat="47.8568" lon="-2.50006">
        <ele>62</ele>
        <time>2023-07-22T13:46:21.913Z</time>
      </trkpt>
      <trkpt lat="47.85681" lon="-2.50007">
        <ele>63</ele>
        <time>2023-07-22T13:46:22.913Z</time>
      </trkpt>
      <trkpt lat="47.85681" lon="-2.50009">
        <ele>63</ele>
        <time>2023-07-22T13:46:23.913Z</time>
      </trkpt>
      <trkpt lat="47.85681" lon="-2.50011">
        <ele>63</ele>
        <time>2023-07-22T13:46:24.913Z</time>
      </trkpt>
      <trkpt lat="47.8568" lon="-2.50013">
        <ele>64</ele>
        <time>2023-07-22T13:46:25.913Z</time>
      </trkpt>
      <trkpt lat="47.8568" lon="-2.50015">
        <ele>64</ele>
        <time>2023-07-22T13:46:26.913Z</time>
      </trkpt>
      <trkpt lat="47.85681" lon="-2.50016">
        <ele>64</ele>
        <time>2023-07-22T13:46:27.913Z</time>
      </trkpt>
      <trkpt lat="47.85683" lon="-2.50018">
        <ele>65</ele>
        <time>2023-07-22T13:46:28.913Z</time>
      </trkpt>
      <trkpt lat="47.85684" lon="-2.50019">
        <ele>65</ele>
        <time>2023-07-22T13:46:29.913Z</time>
      </trkpt>
      <trkpt lat="47.85684" lon="-2.50021">
        <ele>65</ele>
        <time>2023-07-22T13:46:30.914Z</time>
      </trkpt>
      <trkpt lat="47.85685" lon="-2.50022">
        <ele>65</ele>
        <time>2023-07-22T13:46:31.913Z</time>
      </trkpt>
      <trkpt lat="47.85686" lon="-2.50023">
        <ele>65</ele>
        <time>2023-07-22T13:46:32.913Z</time>
      </trkpt>
      <trkpt lat="47.85686" lon="-2.50024">
        <ele>66</ele>
        <time>2023-07-22T13:46:33.913Z</time>
      </trkpt>
      <trkpt lat="47.85687" lon="-2.50025">
        <ele>66</ele>
        <time>2023-07-22T13:46:34.913Z</time>
      </trkpt>
      <trkpt lat="47.85687" lon="-2.50026">
        <ele>66</ele>
        <time>2023-07-22T13:46:35.913Z</time>
      </trkpt>
      <trkpt lat="47.85687" lon="-2.50026">
        <ele>66</ele>
        <time>2023-07-22T13:46:36.913Z</time>
      </trkpt>
      <trkpt lat="47.85689" lon="-2.50027">
        <ele>66</ele>
        <time>2023-07-22T13:46:37.913Z</time>
      </trkpt>
      <trkpt lat="47.85689" lon="-2.50028">
        <ele>66</ele>
        <time>2023-07-22T13:46:38.913Z</time>
      </trkpt>
      <trkpt lat="47.85689" lon="-2.5003">
        <ele>66</ele>
        <time>2023-07-22T13:46:39.913Z</time>
      </trkpt>
      <trkpt lat="47.85689" lon="-2.50031">
        <ele>66</ele>
        <time>2023-07-22T13:46:40.914Z</time>
      </trkpt>
      <trkpt lat="47.85689" lon="-2.50033">
        <ele>66</ele>
        <time>2023-07-22T13:46:41.914Z</time>
      </trkpt>
      <trkpt lat="47.85689" lon="-2.50035">
        <ele>66</ele>
        <time>2023-07-22T13:46:42.913Z</time>
      </trkpt>
      <trkpt lat="47.8569" lon="-2.50035">
        <ele>66</ele>
        <time>2023-07-22T13:46:43.913Z</time>
      </trkpt>
      <trkpt lat="47.8569" lon="-2.50036">
        <ele>66</ele>
        <time>2023-07-22T13:46:44.913Z</time>
      </trkpt>
      <trkpt lat="47.85688" lon="-2.50038">
        <ele>66</ele>
        <time>2023-07-22T13:46:45.914Z</time>
      </trkpt>
      <trkpt lat="47.85687" lon="-2.50041">
        <ele>67</ele>
        <time>2023-07-22T13:46:46.913Z</time>
      </trkpt>
      <trkpt lat="47.85685" lon="-2.50045">
        <ele>67</ele>
        <time>2023-07-22T13:46:47.913Z</time>
      </trkpt>
      <trkpt lat="47.85683" lon="-2.5005">
        <ele>68</ele>
        <time>2023-07-22T13:46:48.913Z</time>
      </trkpt>
      <trkpt lat="47.85683" lon="-2.50052">
        <ele>69</ele>
        <time>2023-07-22T13:46:49.914Z</time>
      </trkpt>
      <trkpt lat="47.85682" lon="-2.50054">
        <ele>69</ele>
        <time>2023-07-22T13:46:50.913Z</time>
      </trkpt>
      <trkpt lat="47.85683" lon="-2.50056">
        <ele>69</ele>
        <time>2023-07-22T13:46:51.913Z</time>
      </trkpt>
      <trkpt lat="47.85683" lon="-2.50057">
        <ele>70</ele>
        <time>2023-07-22T13:46:52.914Z</time>
      </trkpt>
      <trkpt lat="47.85684" lon="-2.50058">
        <ele>69</ele>
        <time>2023-07-22T13:46:53.914Z</time>
      </trkpt>
      <trkpt lat="47.85683" lon="-2.50059">
        <ele>69</ele>
        <time>2023-07-22T13:46:54.913Z</time>
      </trkpt>
      <trkpt lat="47.85683" lon="-2.5006">
        <ele>69</ele>
        <time>2023-07-22T13:46:55.913Z</time>
      </trkpt>
      <trkpt lat="47.85683" lon="-2.50061">
        <ele>69</ele>
        <time>2023-07-22T13:46:56.913Z</time>
      </trkpt>
      <trkpt lat="47.85682" lon="-2.50063">
        <ele>69</ele>
        <time>2023-07-22T13:46:57.913Z</time>
      </trkpt>
      <trkpt lat="47.85682" lon="-2.50065">
        <ele>69</ele>
        <time>2023-07-22T13:46:58.913Z</time>
      </trkpt>
      <trkpt lat="47.85682" lon="-2.50067">
        <ele>69</ele>
        <time>2023-07-22T13:46:59.913Z</time>
      </trkpt>
      <trkpt lat="47.85683" lon="-2.50068">
        <ele>69</ele>
        <time>2023-07-22T13:47:00.914Z</time>
      </trkpt>
      <trkpt lat="47.85683" lon="-2.5007">
        <ele>69</ele>
        <time>2023-07-22T13:47:01.913Z</time>
      </trkpt>
      <trkpt lat="47.85683" lon="-2.50071">
        <ele>69</ele>
        <time>2023-07-22T13:47:02.913Z</time>
      </trkpt>
      <trkpt lat="47.85683" lon="-2.50072">
        <ele>69</ele>
        <time>2023-07-22T13:47:03.913Z</time>
      </trkpt>
      <trkpt lat="47.85683" lon="-2.50074">
        <ele>69</ele>
        <time>2023-07-22T13:47:04.914Z</time>
      </trkpt>
      <trkpt lat="47.85683" lon="-2.50075">
        <ele>69</ele>
        <time>2023-07-22T13:47:05.913Z</time>
      </trkpt>
      <trkpt lat="47.85683" lon="-2.50076">
        <ele>69</ele>
        <time>2023-07-22T13:47:06.913Z</time>
      </trkpt>
      <trkpt lat="47.85683" lon="-2.50077">
        <ele>69</ele>
        <time>2023-07-22T13:47:07.913Z</time>
      </trkpt>
      <trkpt lat="47.85682" lon="-2.50078">
        <ele>69</ele>
        <time>2023-07-22T13:47:08.913Z</time>
      </trkpt>
      <trkpt lat="47.85682" lon="-2.5008">
        <ele>69</ele>
        <time>2023-07-22T13:47:09.914Z</time>
      </trkpt>
      <trkpt lat="47.85681" lon="-2.5008">
        <ele>69</ele>
        <time>2023-07-22T13:47:10.914Z</time>
      </trkpt>
      <trkpt lat="47.8568" lon="-2.50081">
        <ele>70</ele>
        <time>2023-07-22T13:47:11.913Z</time>
      </trkpt>
      <trkpt lat="47.8568" lon="-2.50082">
        <ele>70</ele>
        <time>2023-07-22T13:47:12.913Z</time>
      </trkpt>
      <trkpt lat="47.85679" lon="-2.50083">
        <ele>70</ele>
        <time>2023-07-22T13:47:13.913Z</time>
      </trkpt>
      <trkpt lat="47.85679" lon="-2.50085">
        <ele>70</ele>
        <time>2023-07-22T13:47:14.913Z</time>
      </trkpt>
      <trkpt lat="47.85678" lon="-2.50086">
        <ele>70</ele>
        <time>2023-07-22T13:47:15.914Z</time>
      </trkpt>
      <trkpt lat="47.85678" lon="-2.50087">
        <ele>71</ele>
        <time>2023-07-22T13:47:16.913Z</time>
      </trkpt>
      <trkpt lat="47.85677" lon="-2.50089">
        <ele>71</ele>
        <time>2023-07-22T13:47:17.913Z</time>
      </trkpt>
      <trkpt lat="47.85676" lon="-2.5009">
        <ele>71</ele>
        <time>2023-07-22T13:47:18.913Z</time>
      </trkpt>
      <trkpt lat="47.85676" lon="-2.50091">
        <ele>71</ele>
        <time>2023-07-22T13:47:19.914Z</time>
      </trkpt>
      <trkpt lat="47.85676" lon="-2.50092">
        <ele>71</ele>
        <time>2023-07-22T13:47:20.914Z</time>
      </trkpt>
      <trkpt lat="47.85675" lon="-2.50092">
        <ele>71</ele>
        <time>2023-07-22T13:47:21.913Z</time>
      </trkpt>
      <trkpt lat="47.85673" lon="-2.50093">
        <ele>72</ele>
        <time>2023-07-22T13:47:22.913Z</time>
      </trkpt>
      <trkpt lat="47.85671" lon="-2.50094">
        <ele>72</ele>
        <time>2023-07-22T13:47:23.913Z</time>
      </trkpt>
      <trkpt lat="47.85671" lon="-2.50096">
        <ele>72</ele>
        <time>2023-07-22T13:47:24.913Z</time>
      </trkpt>
      <trkpt lat="47.8567" lon="-2.50097">
        <ele>73</ele>
        <time>2023-07-22T13:47:25.913Z</time>
      </trkpt>
      <trkpt lat="47.85669" lon="-2.50099">
        <ele>73</ele>
        <time>2023-07-22T13:47:26.913Z</time>
      </trkpt>
      <trkpt lat="47.85669" lon="-2.501">
        <ele>73</ele>
        <time>2023-07-22T13:47:27.913Z</time>
      </trkpt>
      <trkpt lat="47.85669" lon="-2.50102">
        <ele>73</ele>
        <time>2023-07-22T13:47:28.913Z</time>
      </trkpt>
      <trkpt lat="47.85669" lon="-2.50103">
        <ele>73</ele>
        <time>2023-07-22T13:47:29.913Z</time>
      </trkpt>
      <trkpt lat="47.85668" lon="-2.50104">
        <ele>73</ele>
        <time>2023-07-22T13:47:30.913Z</time>
      </trkpt>
      <trkpt lat="47.85669" lon="-2.50105">
        <ele>73</ele>
        <time>2023-07-22T13:47:31.913Z</time>
      </trkpt>
      <trkpt lat="47.85668" lon="-2.50106">
        <ele>74</ele>
        <time>2023-07-22T13:47:32.914Z</time>
      </trkpt>
      <trkpt lat="47.85667" lon="-2.50108">
        <ele>74</ele>
        <time>2023-07-22T13:47:33.913Z</time>
      </trkpt>
      <trkpt lat="47.85667" lon="-2.50109">
        <ele>74</ele>
        <time>2023-07-22T13:47:34.913Z</time>
      </trkpt>
      <trkpt lat="47.85666" lon="-2.5011">
        <ele>75</ele>
        <time>2023-07-22T13:47:35.914Z</time>
      </trkpt>
      <trkpt lat="47.85666" lon="-2.50112">
        <ele>75</ele>
        <time>2023-07-22T13:47:36.913Z</time>
      </trkpt>
      <trkpt lat="47.85666" lon="-2.50114">
        <ele>76</ele>
        <time>2023-07-22T13:47:37.913Z</time>
      </trkpt>
      <trkpt lat="47.85665" lon="-2.50116">
        <ele>76</ele>
        <time>2023-07-22T13:47:38.913Z</time>
      </trkpt>
      <trkpt lat="47.85664" lon="-2.50118">
        <ele>77</ele>
        <time>2023-07-22T13:47:39.913Z</time>
      </trkpt>
      <trkpt lat="47.85663" lon="-2.5012">
        <ele>77</ele>
        <time>2023-07-22T13:47:40.914Z</time>
      </trkpt>
      <trkpt lat="47.85662" lon="-2.50122">
        <ele>78</ele>
        <time>2023-07-22T13:47:41.913Z</time>
      </trkpt>
      <trkpt lat="47.85661" lon="-2.50124">
        <ele>78</ele>
        <time>2023-07-22T13:47:42.913Z</time>
      </trkpt>
      <trkpt lat="47.85661" lon="-2.50125">
        <ele>78</ele>
        <time>2023-07-22T13:47:43.913Z</time>
      </trkpt>
      <trkpt lat="47.85661" lon="-2.50127">
        <ele>79</ele>
        <time>2023-07-22T13:47:44.913Z</time>
      </trkpt>
      <trkpt lat="47.8566" lon="-2.50128">
        <ele>79</ele>
        <time>2023-07-22T13:47:45.914Z</time>
      </trkpt>
      <trkpt lat="47.85659" lon="-2.5013">
        <ele>79</ele>
        <time>2023-07-22T13:47:46.914Z</time>
      </trkpt>
      <trkpt lat="47.85659" lon="-2.50132">
        <ele>79</ele>
        <time>2023-07-22T13:47:47.913Z</time>
      </trkpt>
      <trkpt lat="47.8566" lon="-2.50135">
        <ele>80</ele>
        <time>2023-07-22T13:47:48.913Z</time>
      </trkpt>
      <trkpt lat="47.8566" lon="-2.50138">
        <ele>80</ele>
        <time>2023-07-22T13:47:49.913Z</time>
      </trkpt>
      <trkpt lat="47.85659" lon="-2.50141">
        <ele>80</ele>
        <time>2023-07-22T13:47:50.914Z</time>
      </trkpt>
      <trkpt lat="47.85659" lon="-2.50144">
        <ele>80</ele>
        <time>2023-07-22T13:47:51.913Z</time>
      </trkpt>
      <trkpt lat="47.85658" lon="-2.5015">
        <ele>80</ele>
        <time>2023-07-22T13:47:52.913Z</time>
      </trkpt>
      <trkpt lat="47.85657" lon="-2.50156">
        <ele>80</ele>
        <time>2023-07-22T13:47:53.913Z</time>
      </trkpt>
      <trkpt lat="47.85657" lon="-2.50159">
        <ele>80</ele>
        <time>2023-07-22T13:47:54.913Z</time>
      </trkpt>
      <trkpt lat="47.85658" lon="-2.50158">
        <ele>81</ele>
        <time>2023-07-22T13:47:55.913Z</time>
      </trkpt>
      <trkpt lat="47.8566" lon="-2.5016">
        <ele>81</ele>
        <time>2023-07-22T13:47:56.913Z</time>
      </trkpt>
      <trkpt lat="47.85662" lon="-2.5016">
        <ele>81</ele>
        <time>2023-07-22T13:47:57.914Z</time>
      </trkpt>
      <trkpt lat="47.85663" lon="-2.50164">
        <ele>81</ele>
        <time>2023-07-22T13:47:58.914Z</time>
      </trkpt>
      <trkpt lat="47.85663" lon="-2.50166">
        <ele>81</ele>
        <time>2023-07-22T13:47:59.913Z</time>
      </trkpt>
      <trkpt lat="47.85664" lon="-2.50166">
        <ele>81</ele>
        <time>2023-07-22T13:48:00.913Z</time>
      </trkpt>
      <trkpt lat="47.85665" lon="-2.50166">
        <ele>81</ele>
        <time>2023-07-22T13:48:01.914Z</time>
      </trkpt>
      <trkpt lat="47.85665" lon="-2.50167">
        <ele>81</ele>
        <time>2023-07-22T13:48:02.913Z</time>
      </trkpt>
      <trkpt lat="47.85666" lon="-2.50168">
        <ele>80</ele>
        <time>2023-07-22T13:48:03.914Z</time>
      </trkpt>
      <trkpt lat="47.85667" lon="-2.50168">
        <ele>80</ele>
        <time>2023-07-22T13:48:04.914Z</time>
      </trkpt>
      <trkpt lat="47.85667" lon="-2.5017">
        <ele>80</ele>
        <time>2023-07-22T13:48:05.913Z</time>
      </trkpt>
      <trkpt lat="47.85668" lon="-2.50171">
        <ele>79</ele>
        <time>2023-07-22T13:48:06.914Z</time>
      </trkpt>
      <trkpt lat="47.85667" lon="-2.50172">
        <ele>79</ele>
        <time>2023-07-22T13:48:07.914Z</time>
      </trkpt>
      <trkpt lat="47.85668" lon="-2.50173">
        <ele>79</ele>
        <time>2023-07-22T13:48:08.913Z</time>
      </trkpt>
      <trkpt lat="47.85669" lon="-2.50175">
        <ele>78</ele>
        <time>2023-07-22T13:48:09.914Z</time>
      </trkpt>
      <trkpt lat="47.85669" lon="-2.50177">
        <ele>78</ele>
        <time>2023-07-22T13:48:10.914Z</time>
      </trkpt>
      <trkpt lat="47.85669" lon="-2.50178">
        <ele>78</ele>
        <time>2023-07-22T13:48:11.913Z</time>
      </trkpt>
      <trkpt lat="47.8567" lon="-2.50179">
        <ele>78</ele>
        <time>2023-07-22T13:48:12.913Z</time>
      </trkpt>
      <trkpt lat="47.8567" lon="-2.50181">
        <ele>78</ele>
        <time>2023-07-22T13:48:13.914Z</time>
      </trkpt>
      <trkpt lat="47.8567" lon="-2.50181">
        <ele>78</ele>
        <time>2023-07-22T13:48:14.914Z</time>
      </trkpt>
      <trkpt lat="47.85671" lon="-2.50181">
        <ele>78</ele>
        <time>2023-07-22T13:48:15.913Z</time>
      </trkpt>
      <trkpt lat="47.85671" lon="-2.50181">
        <ele>78</ele>
        <time>2023-07-22T13:48:16.913Z</time>
      </trkpt>
      <trkpt lat="47.85672" lon="-2.50182">
        <ele>79</ele>
        <time>2023-07-22T13:48:17.914Z</time>
      </trkpt>
      <trkpt lat="47.85673" lon="-2.50183">
        <ele>79</ele>
        <time>2023-07-22T13:48:18.913Z</time>
      </trkpt>
      <trkpt lat="47.85673" lon="-2.50186">
        <ele>79</ele>
        <time>2023-07-22T13:48:19.913Z</time>
      </trkpt>
      <trkpt lat="47.85673" lon="-2.50187">
        <ele>79</ele>
        <time>2023-07-22T13:48:20.913Z</time>
      </trkpt>
      <trkpt lat="47.85673" lon="-2.5019">
        <ele>79</ele>
        <time>2023-07-22T13:48:21.914Z</time>
      </trkpt>
      <trkpt lat="47.85675" lon="-2.50191">
        <ele>79</ele>
        <time>2023-07-22T13:48:22.913Z</time>
      </trkpt>
      <trkpt lat="47.85675" lon="-2.50192">
        <ele>78</ele>
        <time>2023-07-22T13:48:23.913Z</time>
      </trkpt>
      <trkpt lat="47.85676" lon="-2.50192">
        <ele>78</ele>
        <time>2023-07-22T13:48:24.914Z</time>
      </trkpt>
      <trkpt lat="47.85676" lon="-2.50193">
        <ele>78</ele>
        <time>2023-07-22T13:48:25.914Z</time>
      </trkpt>
      <trkpt lat="47.85676" lon="-2.50193">
        <ele>77</ele>
        <time>2023-07-22T13:48:26.913Z</time>
      </trkpt>
      <trkpt lat="47.85676" lon="-2.50195">
        <ele>76</ele>
        <time>2023-07-22T13:48:27.913Z</time>
      </trkpt>
      <trkpt lat="47.85675" lon="-2.50196">
        <ele>76</ele>
        <time>2023-07-22T13:48:28.913Z</time>
      </trkpt>
      <trkpt lat="47.85676" lon="-2.50197">
        <ele>75</ele>
        <time>2023-07-22T13:48:29.914Z</time>
      </trkpt>
      <trkpt lat="47.85675" lon="-2.50199">
        <ele>74</ele>
        <time>2023-07-22T13:48:30.913Z</time>
      </trkpt>
      <trkpt lat="47.85676" lon="-2.502">
        <ele>74</ele>
        <time>2023-07-22T13:48:31.914Z</time>
      </trkpt>
      <trkpt lat="47.85676" lon="-2.50201">
        <ele>73</ele>
        <time>2023-07-22T13:48:32.913Z</time>
      </trkpt>
      <trkpt lat="47.85678" lon="-2.50202">
        <ele>73</ele>
        <time>2023-07-22T13:48:33.914Z</time>
      </trkpt>
      <trkpt lat="47.85679" lon="-2.50202">
        <ele>73</ele>
        <time>2023-07-22T13:48:34.913Z</time>
      </trkpt>
      <trkpt lat="47.85679" lon="-2.50202">
        <ele>73</ele>
        <time>2023-07-22T13:48:35.913Z</time>
      </trkpt>
      <trkpt lat="47.85679" lon="-2.50204">
        <ele>72</ele>
        <time>2023-07-22T13:48:36.913Z</time>
      </trkpt>
      <trkpt lat="47.85679" lon="-2.50207">
        <ele>72</ele>
        <time>2023-07-22T13:48:37.913Z</time>
      </trkpt>
      <trkpt lat="47.85679" lon="-2.50208">
        <ele>72</ele>
        <time>2023-07-22T13:48:38.913Z</time>
      </trkpt>
      <trkpt lat="47.85679" lon="-2.50209">
        <ele>72</ele>
        <time>2023-07-22T13:48:39.913Z</time>
      </trkpt>
      <trkpt lat="47.85679" lon="-2.50209">
        <ele>72</ele>
        <time>2023-07-22T13:48:40.913Z</time>
      </trkpt>
      <trkpt lat="47.8568" lon="-2.50211">
        <ele>72</ele>
        <time>2023-07-22T13:48:41.913Z</time>
      </trkpt>
      <trkpt lat="47.8568" lon="-2.50213">
        <ele>71</ele>
        <time>2023-07-22T13:48:42.913Z</time>
      </trkpt>
      <trkpt lat="47.85679" lon="-2.50215">
        <ele>71</ele>
        <time>2023-07-22T13:48:43.914Z</time>
      </trkpt>
      <trkpt lat="47.8568" lon="-2.50217">
        <ele>70</ele>
        <time>2023-07-22T13:48:44.913Z</time>
      </trkpt>
      <trkpt lat="47.8568" lon="-2.50218">
        <ele>69</ele>
        <time>2023-07-22T13:48:45.913Z</time>
      </trkpt>
      <trkpt lat="47.8568" lon="-2.5022">
        <ele>69</ele>
        <time>2023-07-22T13:48:46.913Z</time>
      </trkpt>
      <trkpt lat="47.8568" lon="-2.5022">
        <ele>68</ele>
        <time>2023-07-22T13:48:47.913Z</time>
      </trkpt>
      <trkpt lat="47.8568" lon="-2.50222">
        <ele>68</ele>
        <time>2023-07-22T13:48:48.913Z</time>
      </trkpt>
      <trkpt lat="47.8568" lon="-2.50223">
        <ele>68</ele>
        <time>2023-07-22T13:48:49.913Z</time>
      </trkpt>
      <trkpt lat="47.8568" lon="-2.50224">
        <ele>68</ele>
        <time>2023-07-22T13:48:50.913Z</time>
      </trkpt>
      <trkpt lat="47.8568" lon="-2.50226">
        <ele>68</ele>
        <time>2023-07-22T13:48:51.913Z</time>
      </trkpt>
      <trkpt lat="47.85681" lon="-2.50227">
        <ele>68</ele>
        <time>2023-07-22T13:48:52.913Z</time>
      </trkpt>
      <trkpt lat="47.85681" lon="-2.50229">
        <ele>69</ele>
        <time>2023-07-22T13:48:53.913Z</time>
      </trkpt>
      <trkpt lat="47.85682" lon="-2.5023">
        <ele>68</ele>
        <time>2023-07-22T13:48:54.913Z</time>
      </trkpt>
      <trkpt lat="47.85682" lon="-2.50232">
        <ele>68</ele>
        <time>2023-07-22T13:48:55.914Z</time>
      </trkpt>
      <trkpt lat="47.85682" lon="-2.50234">
        <ele>67</ele>
        <time>2023-07-22T13:48:56.914Z</time>
      </trkpt>
      <trkpt lat="47.85682" lon="-2.50236">
        <ele>67</ele>
        <time>2023-07-22T13:48:57.913Z</time>
      </trkpt>
      <trkpt lat="47.85682" lon="-2.50238">
        <ele>66</ele>
        <time>2023-07-22T13:48:58.913Z</time>
      </trkpt>
      <trkpt lat="47.85682" lon="-2.5024">
        <ele>66</ele>
        <time>2023-07-22T13:48:59.913Z</time>
      </trkpt>
      <trkpt lat="47.85683" lon="-2.50241">
        <ele>65</ele>
        <time>2023-07-22T13:49:00.913Z</time>
      </trkpt>
      <trkpt lat="47.85684" lon="-2.50243">
        <ele>65</ele>
        <time>2023-07-22T13:49:01.913Z</time>
      </trkpt>
      <trkpt lat="47.85685" lon="-2.50243">
        <ele>65</ele>
        <time>2023-07-22T13:49:02.913Z</time>
      </trkpt>
      <trkpt lat="47.85686" lon="-2.50244">
        <ele>65</ele>
        <time>2023-07-22T13:49:03.914Z</time>
      </trkpt>
      <trkpt lat="47.85687" lon="-2.50245">
        <ele>64</ele>
        <time>2023-07-22T13:49:04.913Z</time>
      </trkpt>
      <trkpt lat="47.85688" lon="-2.50246">
        <ele>64</ele>
        <time>2023-07-22T13:49:05.913Z</time>
      </trkpt>
      <trkpt lat="47.85689" lon="-2.50247">
        <ele>64</ele>
        <time>2023-07-22T13:49:06.913Z</time>
      </trkpt>
      <trkpt lat="47.85691" lon="-2.50247">
        <ele>64</ele>
        <time>2023-07-22T13:49:07.913Z</time>
      </trkpt>
      <trkpt lat="47.85692" lon="-2.50248">
        <ele>64</ele>
        <time>2023-07-22T13:49:08.913Z</time>
      </trkpt>
      <trkpt lat="47.85693" lon="-2.50248">
        <ele>64</ele>
        <time>2023-07-22T13:49:09.913Z</time>
      </trkpt>
      <trkpt lat="47.85695" lon="-2.50248">
        <ele>64</ele>
        <time>2023-07-22T13:49:10.913Z</time>
      </trkpt>
      <trkpt lat="47.85696" lon="-2.50249">
        <ele>64</ele>
        <time>2023-07-22T13:49:11.913Z</time>
      </trkpt>
      <trkpt lat="47.85698" lon="-2.50252">
        <ele>64</ele>
        <time>2023-07-22T13:49:12.913Z</time>
      </trkpt>
      <trkpt lat="47.85699" lon="-2.50254">
        <ele>64</ele>
        <time>2023-07-22T13:49:13.913Z</time>
      </trkpt>
      <trkpt lat="47.85699" lon="-2.50254">
        <ele>64</ele>
        <time>2023-07-22T13:49:14.914Z</time>
      </trkpt>
      <trkpt lat="47.85699" lon="-2.50254">
        <ele>65</ele>
        <time>2023-07-22T13:49:15.914Z</time>
      </trkpt>
      <trkpt lat="47.85699" lon="-2.50255">
        <ele>65</ele>
        <time>2023-07-22T13:49:16.914Z</time>
      </trkpt>
      <trkpt lat="47.85699" lon="-2.50256">
        <ele>66</ele>
        <time>2023-07-22T13:49:17.913Z</time>
      </trkpt>
      <trkpt lat="47.85701" lon="-2.50263">
        <ele>69</ele>
        <time>2023-07-22T13:49:24.156Z</time>
      </trkpt>
      <trkpt lat="47.85702" lon="-2.50263">
        <ele>69</ele>
        <time>2023-07-22T13:49:25.155Z</time>
      </trkpt>
      <trkpt lat="47.85703" lon="-2.50265">
        <ele>69</ele>
        <time>2023-07-22T13:49:26.156Z</time>
      </trkpt>
      <trkpt lat="47.85703" lon="-2.50266">
        <ele>70</ele>
        <time>2023-07-22T13:49:27.155Z</time>
      </trkpt>
      <trkpt lat="47.85704" lon="-2.50268">
        <ele>70</ele>
        <time>2023-07-22T13:49:28.156Z</time>
      </trkpt>
      <trkpt lat="47.85704" lon="-2.5027">
        <ele>71</ele>
        <time>2023-07-22T13:49:29.155Z</time>
      </trkpt>
      <trkpt lat="47.85704" lon="-2.50272">
        <ele>71</ele>
        <time>2023-07-22T13:49:30.156Z</time>
      </trkpt>
      <trkpt lat="47.85704" lon="-2.50274">
        <ele>71</ele>
        <time>2023-07-22T13:49:31.156Z</time>
      </trkpt>
      <trkpt lat="47.85704" lon="-2.50275">
        <ele>71</ele>
        <time>2023-07-22T13:49:32.155Z</time>
      </trkpt>
      <trkpt lat="47.85705" lon="-2.50277">
        <ele>72</ele>
        <time>2023-07-22T13:49:33.155Z</time>
      </trkpt>
      <trkpt lat="47.85705" lon="-2.5028">
        <ele>72</ele>
        <time>2023-07-22T13:49:34.156Z</time>
      </trkpt>
      <trkpt lat="47.85705" lon="-2.50281">
        <ele>72</ele>
        <time>2023-07-22T13:49:35.156Z</time>
      </trkpt>
      <trkpt lat="47.85706" lon="-2.50283">
        <ele>71</ele>
        <time>2023-07-22T13:49:36.155Z</time>
      </trkpt>
      <trkpt lat="47.85707" lon="-2.50284">
        <ele>71</ele>
        <time>2023-07-22T13:49:37.155Z</time>
      </trkpt>
      <trkpt lat="47.85707" lon="-2.50286">
        <ele>71</ele>
        <time>2023-07-22T13:49:38.155Z</time>
      </trkpt>
      <trkpt lat="47.85709" lon="-2.50287">
        <ele>71</ele>
        <time>2023-07-22T13:49:39.156Z</time>
      </trkpt>
      <trkpt lat="47.85709" lon="-2.50288">
        <ele>70</ele>
        <time>2023-07-22T13:49:40.155Z</time>
      </trkpt>
      <trkpt lat="47.85709" lon="-2.50289">
        <ele>70</ele>
        <time>2023-07-22T13:49:41.156Z</time>
      </trkpt>
      <trkpt lat="47.8571" lon="-2.50289">
        <ele>70</ele>
        <time>2023-07-22T13:49:42.156Z</time>
      </trkpt>
      <trkpt lat="47.85711" lon="-2.5029">
        <ele>70</ele>
        <time>2023-07-22T13:49:43.155Z</time>
      </trkpt>
      <trkpt lat="47.85711" lon="-2.50293">
        <ele>70</ele>
        <time>2023-07-22T13:49:44.156Z</time>
      </trkpt>
      <trkpt lat="47.85712" lon="-2.50295">
        <ele>70</ele>
        <time>2023-07-22T13:49:45.155Z</time>
      </trkpt>
      <trkpt lat="47.85713" lon="-2.50296">
        <ele>69</ele>
        <time>2023-07-22T13:49:46.156Z</time>
      </trkpt>
      <trkpt lat="47.85714" lon="-2.50297">
        <ele>69</ele>
        <time>2023-07-22T13:49:47.155Z</time>
      </trkpt>
      <trkpt lat="47.85715" lon="-2.50298">
        <ele>69</ele>
        <time>2023-07-22T13:49:48.156Z</time>
      </trkpt>
      <trkpt lat="47.85716" lon="-2.50299">
        <ele>69</ele>
        <time>2023-07-22T13:49:49.155Z</time>
      </trkpt>
      <trkpt lat="47.85717" lon="-2.503">
        <ele>69</ele>
        <time>2023-07-22T13:49:50.155Z</time>
      </trkpt>
      <trkpt lat="47.85718" lon="-2.50301">
        <ele>69</ele>
        <time>2023-07-22T13:49:51.156Z</time>
      </trkpt>
      <trkpt lat="47.85719" lon="-2.50302">
        <ele>69</ele>
        <time>2023-07-22T13:49:52.156Z</time>
      </trkpt>
      <trkpt lat="47.8572" lon="-2.50303">
        <ele>70</ele>
        <time>2023-07-22T13:49:53.155Z</time>
      </trkpt>
      <trkpt lat="47.85721" lon="-2.50305">
        <ele>70</ele>
        <time>2023-07-22T13:49:54.155Z</time>
      </trkpt>
      <trkpt lat="47.85722" lon="-2.50307">
        <ele>70</ele>
        <time>2023-07-22T13:49:55.155Z</time>
      </trkpt>
      <trkpt lat="47.85723" lon="-2.50309">
        <ele>70</ele>
        <time>2023-07-22T13:49:56.156Z</time>
      </trkpt>
      <trkpt lat="47.85724" lon="-2.50311">
        <ele>70</ele>
        <time>2023-07-22T13:49:57.155Z</time>
      </trkpt>
      <trkpt lat="47.85724" lon="-2.50311">
        <ele>70</ele>
        <time>2023-07-22T13:49:58.155Z</time>
      </trkpt>
      <trkpt lat="47.85726" lon="-2.50313">
        <ele>70</ele>
        <time>2023-07-22T13:49:59.155Z</time>
      </trkpt>
      <trkpt lat="47.85727" lon="-2.50314">
        <ele>70</ele>
        <time>2023-07-22T13:50:00.155Z</time>
      </trkpt>
      <trkpt lat="47.85729" lon="-2.50315">
        <ele>70</ele>
        <time>2023-07-22T13:50:01.155Z</time>
      </trkpt>
      <trkpt lat="47.8573" lon="-2.50315">
        <ele>70</ele>
        <time>2023-07-22T13:50:02.155Z</time>
      </trkpt>
      <trkpt lat="47.8573" lon="-2.50315">
        <ele>70</ele>
        <time>2023-07-22T13:50:03.155Z</time>
      </trkpt>
      <trkpt lat="47.85732" lon="-2.50315">
        <ele>70</ele>
        <time>2023-07-22T13:50:04.156Z</time>
      </trkpt>
      <trkpt lat="47.85733" lon="-2.50315">
        <ele>70</ele>
        <time>2023-07-22T13:50:05.155Z</time>
      </trkpt>
      <trkpt lat="47.85734" lon="-2.50316">
        <ele>70</ele>
        <time>2023-07-22T13:50:06.155Z</time>
      </trkpt>
      <trkpt lat="47.85735" lon="-2.50317">
        <ele>70</ele>
        <time>2023-07-22T13:50:07.156Z</time>
      </trkpt>
      <trkpt lat="47.85736" lon="-2.50318">
        <ele>70</ele>
        <time>2023-07-22T13:50:08.155Z</time>
      </trkpt>
      <trkpt lat="47.85737" lon="-2.50318">
        <ele>70</ele>
        <time>2023-07-22T13:50:09.156Z</time>
      </trkpt>
      <trkpt lat="47.85738" lon="-2.50319">
        <ele>70</ele>
        <time>2023-07-22T13:50:10.156Z</time>
      </trkpt>
      <trkpt lat="47.85737" lon="-2.5032">
        <ele>70</ele>
        <time>2023-07-22T13:50:11.156Z</time>
      </trkpt>
      <trkpt lat="47.85738" lon="-2.50321">
        <ele>70</ele>
        <time>2023-07-22T13:50:12.155Z</time>
      </trkpt>
      <trkpt lat="47.85739" lon="-2.50321">
        <ele>70</ele>
        <time>2023-07-22T13:50:13.155Z</time>
      </trkpt>
      <trkpt lat="47.8574" lon="-2.5032">
        <ele>71</ele>
        <time>2023-07-22T13:50:14.155Z</time>
      </trkpt>
      <trkpt lat="47.8574" lon="-2.50321">
        <ele>71</ele>
        <time>2023-07-22T13:50:15.155Z</time>
      </trkpt>
      <trkpt lat="47.85741" lon="-2.50321">
        <ele>72</ele>
        <time>2023-07-22T13:50:16.156Z</time>
      </trkpt>
      <trkpt lat="47.85742" lon="-2.50323">
        <ele>73</ele>
        <time>2023-07-22T13:50:17.155Z</time>
      </trkpt>
      <trkpt lat="47.85744" lon="-2.50324">
        <ele>73</ele>
        <time>2023-07-22T13:50:18.156Z</time>
      </trkpt>
      <trkpt lat="47.85744" lon="-2.50325">
        <ele>73</ele>
        <time>2023-07-22T13:50:19.155Z</time>
      </trkpt>
      <trkpt lat="47.85745" lon="-2.50326">
        <ele>74</ele>
        <time>2023-07-22T13:50:20.156Z</time>
      </trkpt>
      <trkpt lat="47.85746" lon="-2.50327">
        <ele>74</ele>
        <time>2023-07-22T13:50:21.155Z</time>
      </trkpt>
      <trkpt lat="47.85747" lon="-2.50329">
        <ele>74</ele>
        <time>2023-07-22T13:50:22.156Z</time>
      </trkpt>
      <trkpt lat="47.85749" lon="-2.50329">
        <ele>74</ele>
        <time>2023-07-22T13:50:23.155Z</time>
      </trkpt>
      <trkpt lat="47.8575" lon="-2.5033">
        <ele>74</ele>
        <time>2023-07-22T13:50:24.156Z</time>
      </trkpt>
      <trkpt lat="47.85752" lon="-2.5033">
        <ele>74</ele>
        <time>2023-07-22T13:50:25.155Z</time>
      </trkpt>
      <trkpt lat="47.85753" lon="-2.5033">
        <ele>74</ele>
        <time>2023-07-22T13:50:26.156Z</time>
      </trkpt>
      <trkpt lat="47.85754" lon="-2.5033">
        <ele>74</ele>
        <time>2023-07-22T13:50:27.155Z</time>
      </trkpt>
      <trkpt lat="47.85755" lon="-2.5033">
        <ele>75</ele>
        <time>2023-07-22T13:50:28.156Z</time>
      </trkpt>
      <trkpt lat="47.85756" lon="-2.5033">
        <ele>75</ele>
        <time>2023-07-22T13:50:29.155Z</time>
      </trkpt>
      <trkpt lat="47.85757" lon="-2.5033">
        <ele>75</ele>
        <time>2023-07-22T13:50:30.156Z</time>
      </trkpt>
      <trkpt lat="47.85759" lon="-2.50333">
        <ele>75</ele>
        <time>2023-07-22T13:50:31.155Z</time>
      </trkpt>
      <trkpt lat="47.8576" lon="-2.50333">
        <ele>75</ele>
        <time>2023-07-22T13:50:32.155Z</time>
      </trkpt>
      <trkpt lat="47.8576" lon="-2.50333">
        <ele>75</ele>
        <time>2023-07-22T13:50:33.155Z</time>
      </trkpt>
      <trkpt lat="47.85761" lon="-2.50333">
        <ele>76</ele>
        <time>2023-07-22T13:50:34.156Z</time>
      </trkpt>
      <trkpt lat="47.85762" lon="-2.50333">
        <ele>76</ele>
        <time>2023-07-22T13:50:35.156Z</time>
      </trkpt>
      <trkpt lat="47.85763" lon="-2.50333">
        <ele>76</ele>
        <time>2023-07-22T13:50:36.156Z</time>
      </trkpt>
      <trkpt lat="47.85764" lon="-2.50334">
        <ele>76</ele>
        <time>2023-07-22T13:50:37.155Z</time>
      </trkpt>
      <trkpt lat="47.85765" lon="-2.50335">
        <ele>77</ele>
        <time>2023-07-22T13:50:38.156Z</time>
      </trkpt>
      <trkpt lat="47.85765" lon="-2.50336">
        <ele>77</ele>
        <time>2023-07-22T13:50:39.155Z</time>
      </trkpt>
      <trkpt lat="47.85765" lon="-2.50336">
        <ele>77</ele>
        <time>2023-07-22T13:50:40.155Z</time>
      </trkpt>
      <trkpt lat="47.85767" lon="-2.50336">
        <ele>77</ele>
        <time>2023-07-22T13:50:41.155Z</time>
      </trkpt>
      <trkpt lat="47.85768" lon="-2.50338">
        <ele>77</ele>
        <time>2023-07-22T13:50:42.156Z</time>
      </trkpt>
      <trkpt lat="47.85768" lon="-2.50339">
        <ele>77</ele>
        <time>2023-07-22T13:50:43.155Z</time>
      </trkpt>
      <trkpt lat="47.85769" lon="-2.50341">
        <ele>77</ele>
        <time>2023-07-22T13:50:44.156Z</time>
      </trkpt>
      <trkpt lat="47.8577" lon="-2.50343">
        <ele>77</ele>
        <time>2023-07-22T13:50:45.155Z</time>
      </trkpt>
      <trkpt lat="47.85774" lon="-2.50347">
        <ele>77</ele>
        <time>2023-07-22T13:50:46.156Z</time>
      </trkpt>
      <trkpt lat="47.85775" lon="-2.5035">
        <ele>77</ele>
        <time>2023-07-22T13:50:47.155Z</time>
      </trkpt>
      <trkpt lat="47.85775" lon="-2.50352">
        <ele>77</ele>
        <time>2023-07-22T13:50:48.156Z</time>
      </trkpt>
      <trkpt lat="47.85776" lon="-2.50354">
        <ele>77</ele>
        <time>2023-07-22T13:50:49.155Z</time>
      </trkpt>
      <trkpt lat="47.85778" lon="-2.50355">
        <ele>77</ele>
        <time>2023-07-22T13:50:50.156Z</time>
      </trkpt>
      <trkpt lat="47.85779" lon="-2.50355">
        <ele>76</ele>
        <time>2023-07-22T13:50:51.155Z</time>
      </trkpt>
      <trkpt lat="47.85782" lon="-2.50356">
        <ele>76</ele>
        <time>2023-07-22T13:50:52.156Z</time>
      </trkpt>
      <trkpt lat="47.85784" lon="-2.50356">
        <ele>76</ele>
        <time>2023-07-22T13:50:53.155Z</time>
      </trkpt>
      <trkpt lat="47.85786" lon="-2.50356">
        <ele>75</ele>
        <time>2023-07-22T13:50:54.155Z</time>
      </trkpt>
      <trkpt lat="47.85787" lon="-2.50355">
        <ele>75</ele>
        <time>2023-07-22T13:50:55.155Z</time>
      </trkpt>
      <trkpt lat="47.85787" lon="-2.50354">
        <ele>75</ele>
        <time>2023-07-22T13:50:56.156Z</time>
      </trkpt>
      <trkpt lat="47.85788" lon="-2.50354">
        <ele>75</ele>
        <time>2023-07-22T13:50:57.155Z</time>
      </trkpt>
      <trkpt lat="47.85789" lon="-2.50354">
        <ele>75</ele>
        <time>2023-07-22T13:50:58.155Z</time>
      </trkpt>
      <trkpt lat="47.8579" lon="-2.50354">
        <ele>75</ele>
        <time>2023-07-22T13:50:59.155Z</time>
      </trkpt>
      <trkpt lat="47.8579" lon="-2.50355">
        <ele>76</ele>
        <time>2023-07-22T13:51:00.156Z</time>
      </trkpt>
      <trkpt lat="47.85792" lon="-2.50353">
        <ele>76</ele>
        <time>2023-07-22T13:51:01.155Z</time>
      </trkpt>
      <trkpt lat="47.85793" lon="-2.50353">
        <ele>76</ele>
        <time>2023-07-22T13:51:02.156Z</time>
      </trkpt>
      <trkpt lat="47.85794" lon="-2.50353">
        <ele>76</ele>
        <time>2023-07-22T13:51:03.155Z</time>
      </trkpt>
      <trkpt lat="47.85795" lon="-2.50354">
        <ele>75</ele>
        <time>2023-07-22T13:51:04.156Z</time>
      </trkpt>
      <trkpt lat="47.85795" lon="-2.50355">
        <ele>75</ele>
        <time>2023-07-22T13:51:05.155Z</time>
      </trkpt>
      <trkpt lat="47.85796" lon="-2.50357">
        <ele>74</ele>
        <time>2023-07-22T13:51:06.155Z</time>
      </trkpt>
      <trkpt lat="47.85797" lon="-2.50358">
        <ele>74</ele>
        <time>2023-07-22T13:51:07.155Z</time>
      </trkpt>
      <trkpt lat="47.85797" lon="-2.50359">
        <ele>73</ele>
        <time>2023-07-22T13:51:08.155Z</time>
      </trkpt>
      <trkpt lat="47.85799" lon="-2.50361">
        <ele>72</ele>
        <time>2023-07-22T13:51:09.156Z</time>
      </trkpt>
      <trkpt lat="47.85801" lon="-2.5036">
        <ele>72</ele>
        <time>2023-07-22T13:51:10.155Z</time>
      </trkpt>
      <trkpt lat="47.85802" lon="-2.5036">
        <ele>71</ele>
        <time>2023-07-22T13:51:11.156Z</time>
      </trkpt>
      <trkpt lat="47.85802" lon="-2.50361">
        <ele>71</ele>
        <time>2023-07-22T13:51:12.155Z</time>
      </trkpt>
      <trkpt lat="47.85803" lon="-2.50362">
        <ele>71</ele>
        <time>2023-07-22T13:51:13.155Z</time>
      </trkpt>
      <trkpt lat="47.85804" lon="-2.50362">
        <ele>71</ele>
        <time>2023-07-22T13:51:14.155Z</time>
      </trkpt>
      <trkpt lat="47.85805" lon="-2.50363">
        <ele>70</ele>
        <time>2023-07-22T13:51:15.155Z</time>
      </trkpt>
      <trkpt lat="47.85805" lon="-2.50363">
        <ele>70</ele>
        <time>2023-07-22T13:51:16.156Z</time>
      </trkpt>
      <trkpt lat="47.85806" lon="-2.50363">
        <ele>70</ele>
        <time>2023-07-22T13:51:17.156Z</time>
      </trkpt>
      <trkpt lat="47.85807" lon="-2.50362">
        <ele>70</ele>
        <time>2023-07-22T13:51:18.156Z</time>
      </trkpt>
      <trkpt lat="47.85807" lon="-2.50362">
        <ele>70</ele>
        <time>2023-07-22T13:51:19.155Z</time>
      </trkpt>
      <trkpt lat="47.85809" lon="-2.50361">
        <ele>70</ele>
        <time>2023-07-22T13:51:20.155Z</time>
      </trkpt>
      <trkpt lat="47.85811" lon="-2.50361">
        <ele>70</ele>
        <time>2023-07-22T13:51:21.155Z</time>
      </trkpt>
      <trkpt lat="47.85812" lon="-2.50361">
        <ele>70</ele>
        <time>2023-07-22T13:51:22.156Z</time>
      </trkpt>
      <trkpt lat="47.85814" lon="-2.50362">
        <ele>69</ele>
        <time>2023-07-22T13:51:23.155Z</time>
      </trkpt>
      <trkpt lat="47.85816" lon="-2.50363">
        <ele>69</ele>
        <time>2023-07-22T13:51:24.156Z</time>
      </trkpt>
      <trkpt lat="47.85817" lon="-2.50364">
        <ele>69</ele>
        <time>2023-07-22T13:51:25.156Z</time>
      </trkpt>
      <trkpt lat="47.85819" lon="-2.50365">
        <ele>69</ele>
        <time>2023-07-22T13:51:26.156Z</time>
      </trkpt>
      <trkpt lat="47.85821" lon="-2.50367">
        <ele>68</ele>
        <time>2023-07-22T13:51:27.155Z</time>
      </trkpt>
      <trkpt lat="47.85823" lon="-2.50368">
        <ele>68</ele>
        <time>2023-07-22T13:51:28.156Z</time>
      </trkpt>
      <trkpt lat="47.85823" lon="-2.5037">
        <ele>68</ele>
        <time>2023-07-22T13:51:29.155Z</time>
      </trkpt>
      <trkpt lat="47.85823" lon="-2.50371">
        <ele>68</ele>
        <time>2023-07-22T13:51:30.156Z</time>
      </trkpt>
      <trkpt lat="47.85823" lon="-2.50372">
        <ele>67</ele>
        <time>2023-07-22T13:51:31.156Z</time>
      </trkpt>
      <trkpt lat="47.85822" lon="-2.50372">
        <ele>67</ele>
        <time>2023-07-22T13:51:32.155Z</time>
      </trkpt>
      <trkpt lat="47.85823" lon="-2.50371">
        <ele>67</ele>
        <time>2023-07-22T13:51:33.156Z</time>
      </trkpt>
      <trkpt lat="47.85825" lon="-2.5037">
        <ele>68</ele>
        <time>2023-07-22T13:51:34.155Z</time>
      </trkpt>
      <trkpt lat="47.85826" lon="-2.5037">
        <ele>68</ele>
        <time>2023-07-22T13:51:35.156Z</time>
      </trkpt>
      <trkpt lat="47.85827" lon="-2.50371">
        <ele>68</ele>
        <time>2023-07-22T13:51:36.155Z</time>
      </trkpt>
      <trkpt lat="47.85828" lon="-2.50372">
        <ele>69</ele>
        <time>2023-07-22T13:51:37.156Z</time>
      </trkpt>
      <trkpt lat="47.85829" lon="-2.50374">
        <ele>69</ele>
        <time>2023-07-22T13:51:38.155Z</time>
      </trkpt>
      <trkpt lat="47.8583" lon="-2.50376">
        <ele>69</ele>
        <time>2023-07-22T13:51:39.156Z</time>
      </trkpt>
      <trkpt lat="47.8583" lon="-2.50377">
        <ele>70</ele>
        <time>2023-07-22T13:51:40.155Z</time>
      </trkpt>
      <trkpt lat="47.8583" lon="-2.50379">
        <ele>70</ele>
        <time>2023-07-22T13:51:41.156Z</time>
      </trkpt>
      <trkpt lat="47.8583" lon="-2.5038">
        <ele>70</ele>
        <time>2023-07-22T13:51:42.155Z</time>
      </trkpt>
      <trkpt lat="47.8583" lon="-2.50381">
        <ele>70</ele>
        <time>2023-07-22T13:51:43.155Z</time>
      </trkpt>
      <trkpt lat="47.85831" lon="-2.50382">
        <ele>69</ele>
        <time>2023-07-22T13:51:44.155Z</time>
      </trkpt>
      <trkpt lat="47.85831" lon="-2.50383">
        <ele>69</ele>
        <time>2023-07-22T13:51:45.155Z</time>
      </trkpt>
      <trkpt lat="47.85831" lon="-2.50384">
        <ele>69</ele>
        <time>2023-07-22T13:51:46.155Z</time>
      </trkpt>
      <trkpt lat="47.85833" lon="-2.50385">
        <ele>68</ele>
        <time>2023-07-22T13:51:47.156Z</time>
      </trkpt>
      <trkpt lat="47.85834" lon="-2.50385">
        <ele>68</ele>
        <time>2023-07-22T13:51:48.155Z</time>
      </trkpt>
      <trkpt lat="47.85835" lon="-2.50385">
        <ele>68</ele>
        <time>2023-07-22T13:51:49.156Z</time>
      </trkpt>
      <trkpt lat="47.85836" lon="-2.50386">
        <ele>67</ele>
        <time>2023-07-22T13:51:50.155Z</time>
      </trkpt>
      <trkpt lat="47.85837" lon="-2.50385">
        <ele>67</ele>
        <time>2023-07-22T13:51:51.156Z</time>
      </trkpt>
      <trkpt lat="47.85839" lon="-2.50384">
        <ele>67</ele>
        <time>2023-07-22T13:51:52.155Z</time>
      </trkpt>
      <trkpt lat="47.85841" lon="-2.50384">
        <ele>67</ele>
        <time>2023-07-22T13:51:53.156Z</time>
      </trkpt>
      <trkpt lat="47.85842" lon="-2.50385">
        <ele>68</ele>
        <time>2023-07-22T13:51:54.155Z</time>
      </trkpt>
      <trkpt lat="47.85842" lon="-2.50385">
        <ele>68</ele>
        <time>2023-07-22T13:51:55.156Z</time>
      </trkpt>
      <trkpt lat="47.85843" lon="-2.50386">
        <ele>67</ele>
        <time>2023-07-22T13:51:56.155Z</time>
      </trkpt>
      <trkpt lat="47.85844" lon="-2.50387">
        <ele>67</ele>
        <time>2023-07-22T13:51:57.156Z</time>
      </trkpt>
      <trkpt lat="47.85845" lon="-2.50387">
        <ele>67</ele>
        <time>2023-07-22T13:51:58.155Z</time>
      </trkpt>
      <trkpt lat="47.85846" lon="-2.50388">
        <ele>67</ele>
        <time>2023-07-22T13:51:59.156Z</time>
      </trkpt>
      <trkpt lat="47.85846" lon="-2.50389">
        <ele>67</ele>
        <time>2023-07-22T13:52:00.155Z</time>
      </trkpt>
      <trkpt lat="47.85848" lon="-2.50389">
        <ele>67</ele>
        <time>2023-07-22T13:52:01.156Z</time>
      </trkpt>
      <trkpt lat="47.85849" lon="-2.50389">
        <ele>67</ele>
        <time>2023-07-22T13:52:02.155Z</time>
      </trkpt>
      <trkpt lat="47.8585" lon="-2.50389">
        <ele>67</ele>
        <time>2023-07-22T13:52:03.155Z</time>
      </trkpt>
      <trkpt lat="47.85851" lon="-2.50389">
        <ele>67</ele>
        <time>2023-07-22T13:52:04.155Z</time>
      </trkpt>
      <trkpt lat="47.85852" lon="-2.50389">
        <ele>67</ele>
        <time>2023-07-22T13:52:05.156Z</time>
      </trkpt>
      <trkpt lat="47.85852" lon="-2.5039">
        <ele>67</ele>
        <time>2023-07-22T13:52:06.155Z</time>
      </trkpt>
      <trkpt lat="47.85854" lon="-2.5039">
        <ele>67</ele>
        <time>2023-07-22T13:52:07.156Z</time>
      </trkpt>
      <trkpt lat="47.85857" lon="-2.5039">
        <ele>67</ele>
        <time>2023-07-22T13:52:08.155Z</time>
      </trkpt>
      <trkpt lat="47.85857" lon="-2.5039">
        <ele>67</ele>
        <time>2023-07-22T13:52:09.156Z</time>
      </trkpt>
      <trkpt lat="47.85858" lon="-2.5039">
        <ele>67</ele>
        <time>2023-07-22T13:52:10.156Z</time>
      </trkpt>
      <trkpt lat="47.85859" lon="-2.50391">
        <ele>67</ele>
        <time>2023-07-22T13:52:11.156Z</time>
      </trkpt>
      <trkpt lat="47.85861" lon="-2.50392">
        <ele>67</ele>
        <time>2023-07-22T13:52:12.155Z</time>
      </trkpt>
      <trkpt lat="47.85863" lon="-2.50392">
        <ele>68</ele>
        <time>2023-07-22T13:52:13.156Z</time>
      </trkpt>
      <trkpt lat="47.85864" lon="-2.50392">
        <ele>68</ele>
        <time>2023-07-22T13:52:14.155Z</time>
      </trkpt>
      <trkpt lat="47.85865" lon="-2.50393">
        <ele>68</ele>
        <time>2023-07-22T13:52:15.155Z</time>
      </trkpt>
      <trkpt lat="47.85866" lon="-2.50393">
        <ele>68</ele>
        <time>2023-07-22T13:52:16.155Z</time>
      </trkpt>
      <trkpt lat="47.85869" lon="-2.50394">
        <ele>68</ele>
        <time>2023-07-22T13:52:17.156Z</time>
      </trkpt>
      <trkpt lat="47.85871" lon="-2.50396">
        <ele>68</ele>
        <time>2023-07-22T13:52:18.155Z</time>
      </trkpt>
      <trkpt lat="47.85873" lon="-2.50397">
        <ele>68</ele>
        <time>2023-07-22T13:52:19.156Z</time>
      </trkpt>
      <trkpt lat="47.85874" lon="-2.50397">
        <ele>68</ele>
        <time>2023-07-22T13:52:20.155Z</time>
      </trkpt>
      <trkpt lat="47.85874" lon="-2.50399">
        <ele>68</ele>
        <time>2023-07-22T13:52:21.156Z</time>
      </trkpt>
      <trkpt lat="47.85875" lon="-2.50399">
        <ele>67</ele>
        <time>2023-07-22T13:52:22.156Z</time>
      </trkpt>
      <trkpt lat="47.85875" lon="-2.504">
        <ele>67</ele>
        <time>2023-07-22T13:52:23.155Z</time>
      </trkpt>
      <trkpt lat="47.85876" lon="-2.504">
        <ele>66</ele>
        <time>2023-07-22T13:52:24.155Z</time>
      </trkpt>
      <trkpt lat="47.85876" lon="-2.50401">
        <ele>66</ele>
        <time>2023-07-22T13:52:25.155Z</time>
      </trkpt>
      <trkpt lat="47.85877" lon="-2.50402">
        <ele>66</ele>
        <time>2023-07-22T13:52:26.156Z</time>
      </trkpt>
      <trkpt lat="47.85877" lon="-2.50403">
        <ele>66</ele>
        <time>2023-07-22T13:52:27.156Z</time>
      </trkpt>
      <trkpt lat="47.85877" lon="-2.50404">
        <ele>65</ele>
        <time>2023-07-22T13:52:28.156Z</time>
      </trkpt>
      <trkpt lat="47.85878" lon="-2.50405">
        <ele>65</ele>
        <time>2023-07-22T13:52:29.156Z</time>
      </trkpt>
      <trkpt lat="47.85879" lon="-2.50409">
        <ele>65</ele>
        <time>2023-07-22T13:52:30.155Z</time>
      </trkpt>
      <trkpt lat="47.8588" lon="-2.50409">
        <ele>64</ele>
        <time>2023-07-22T13:52:31.156Z</time>
      </trkpt>
      <trkpt lat="47.85881" lon="-2.50408">
        <ele>64</ele>
        <time>2023-07-22T13:52:32.155Z</time>
      </trkpt>
      <trkpt lat="47.85882" lon="-2.50407">
        <ele>64</ele>
        <time>2023-07-22T13:52:33.155Z</time>
      </trkpt>
      <trkpt lat="47.85883" lon="-2.50406">
        <ele>64</ele>
        <time>2023-07-22T13:52:34.155Z</time>
      </trkpt>
      <trkpt lat="47.85884" lon="-2.50406">
        <ele>63</ele>
        <time>2023-07-22T13:52:35.155Z</time>
      </trkpt>
      <trkpt lat="47.85884" lon="-2.50406">
        <ele>63</ele>
        <time>2023-07-22T13:52:36.156Z</time>
      </trkpt>
      <trkpt lat="47.85885" lon="-2.50406">
        <ele>63</ele>
        <time>2023-07-22T13:52:37.156Z</time>
      </trkpt>
      <trkpt lat="47.85886" lon="-2.50405">
        <ele>63</ele>
        <time>2023-07-22T13:52:38.156Z</time>
      </trkpt>
      <trkpt lat="47.85886" lon="-2.50405">
        <ele>62</ele>
        <time>2023-07-22T13:52:39.155Z</time>
      </trkpt>
      <trkpt lat="47.85887" lon="-2.50406">
        <ele>62</ele>
        <time>2023-07-22T13:52:40.156Z</time>
      </trkpt>
      <trkpt lat="47.85888" lon="-2.50406">
        <ele>62</ele>
        <time>2023-07-22T13:52:41.156Z</time>
      </trkpt>
      <trkpt lat="47.85888" lon="-2.50408">
        <ele>62</ele>
        <time>2023-07-22T13:52:42.155Z</time>
      </trkpt>
      <trkpt lat="47.85889" lon="-2.50408">
        <ele>62</ele>
        <time>2023-07-22T13:52:43.155Z</time>
      </trkpt>
      <trkpt lat="47.8589" lon="-2.50408">
        <ele>63</ele>
        <time>2023-07-22T13:52:44.155Z</time>
      </trkpt>
      <trkpt lat="47.85891" lon="-2.50407">
        <ele>63</ele>
        <time>2023-07-22T13:52:45.155Z</time>
      </trkpt>
      <trkpt lat="47.85892" lon="-2.50407">
        <ele>63</ele>
        <time>2023-07-22T13:52:46.155Z</time>
      </trkpt>
      <trkpt lat="47.85892" lon="-2.50408">
        <ele>63</ele>
        <time>2023-07-22T13:52:47.155Z</time>
      </trkpt>
      <trkpt lat="47.85893" lon="-2.50409">
        <ele>63</ele>
        <time>2023-07-22T13:52:48.156Z</time>
      </trkpt>
      <trkpt lat="47.85894" lon="-2.5041">
        <ele>64</ele>
        <time>2023-07-22T13:52:49.155Z</time>
      </trkpt>
      <trkpt lat="47.85895" lon="-2.50411">
        <ele>63</ele>
        <time>2023-07-22T13:52:50.155Z</time>
      </trkpt>
      <trkpt lat="47.85896" lon="-2.50413">
        <ele>63</ele>
        <time>2023-07-22T13:52:51.156Z</time>
      </trkpt>
      <trkpt lat="47.85896" lon="-2.50413">
        <ele>63</ele>
        <time>2023-07-22T13:52:52.155Z</time>
      </trkpt>
      <trkpt lat="47.85897" lon="-2.50414">
        <ele>63</ele>
        <time>2023-07-22T13:52:53.155Z</time>
      </trkpt>
      <trkpt lat="47.85898" lon="-2.50415">
        <ele>64</ele>
        <time>2023-07-22T13:52:54.156Z</time>
      </trkpt>
      <trkpt lat="47.85899" lon="-2.50416">
        <ele>64</ele>
        <time>2023-07-22T13:52:55.156Z</time>
      </trkpt>
      <trkpt lat="47.859" lon="-2.50416">
        <ele>64</ele>
        <time>2023-07-22T13:52:56.156Z</time>
      </trkpt>
      <trkpt lat="47.85901" lon="-2.50416">
        <ele>64</ele>
        <time>2023-07-22T13:52:57.156Z</time>
      </trkpt>
      <trkpt lat="47.85902" lon="-2.50416">
        <ele>65</ele>
        <time>2023-07-22T13:52:58.156Z</time>
      </trkpt>
      <trkpt lat="47.85903" lon="-2.50415">
        <ele>65</ele>
        <time>2023-07-22T13:52:59.155Z</time>
      </trkpt>
      <trkpt lat="47.85904" lon="-2.50414">
        <ele>65</ele>
        <time>2023-07-22T13:53:00.155Z</time>
      </trkpt>
      <trkpt lat="47.85904" lon="-2.50414">
        <ele>65</ele>
        <time>2023-07-22T13:53:01.155Z</time>
      </trkpt>
      <trkpt lat="47.85905" lon="-2.50414">
        <ele>66</ele>
        <time>2023-07-22T13:53:02.156Z</time>
      </trkpt>
      <trkpt lat="47.85906" lon="-2.50413">
        <ele>66</ele>
        <time>2023-07-22T13:53:03.155Z</time>
      </trkpt>
      <trkpt lat="47.85907" lon="-2.50414">
        <ele>66</ele>
        <time>2023-07-22T13:53:04.155Z</time>
      </trkpt>
      <trkpt lat="47.85909" lon="-2.50415">
        <ele>66</ele>
        <time>2023-07-22T13:53:05.156Z</time>
      </trkpt>
      <trkpt lat="47.8591" lon="-2.50415">
        <ele>66</ele>
        <time>2023-07-22T13:53:06.155Z</time>
      </trkpt>
      <trkpt lat="47.85912" lon="-2.50415">
        <ele>66</ele>
        <time>2023-07-22T13:53:07.155Z</time>
      </trkpt>
      <trkpt lat="47.85914" lon="-2.50416">
        <ele>67</ele>
        <time>2023-07-22T13:53:08.156Z</time>
      </trkpt>
      <trkpt lat="47.85915" lon="-2.50418">
        <ele>67</ele>
        <time>2023-07-22T13:53:09.156Z</time>
      </trkpt>
      <trkpt lat="47.85916" lon="-2.50419">
        <ele>67</ele>
        <time>2023-07-22T13:53:10.156Z</time>
      </trkpt>
      <trkpt lat="47.85917" lon="-2.50421">
        <ele>67</ele>
        <time>2023-07-22T13:53:11.155Z</time>
      </trkpt>
      <trkpt lat="47.85918" lon="-2.50422">
        <ele>67</ele>
        <time>2023-07-22T13:53:12.155Z</time>
      </trkpt>
      <trkpt lat="47.85919" lon="-2.50423">
        <ele>68</ele>
        <time>2023-07-22T13:53:13.156Z</time>
      </trkpt>
      <trkpt lat="47.85919" lon="-2.50424">
        <ele>68</ele>
        <time>2023-07-22T13:53:14.155Z</time>
      </trkpt>
      <trkpt lat="47.85919" lon="-2.50424">
        <ele>68</ele>
        <time>2023-07-22T13:53:15.155Z</time>
      </trkpt>
      <trkpt lat="47.85919" lon="-2.50425">
        <ele>68</ele>
        <time>2023-07-22T13:53:16.155Z</time>
      </trkpt>
      <trkpt lat="47.85921" lon="-2.50426">
        <ele>68</ele>
        <time>2023-07-22T13:53:17.155Z</time>
      </trkpt>
      <trkpt lat="47.85922" lon="-2.50427">
        <ele>68</ele>
        <time>2023-07-22T13:53:18.156Z</time>
      </trkpt>
      <trkpt lat="47.85923" lon="-2.50429">
        <ele>67</ele>
        <time>2023-07-22T13:53:19.156Z</time>
      </trkpt>
      <trkpt lat="47.85923" lon="-2.5043">
        <ele>67</ele>
        <time>2023-07-22T13:53:20.155Z</time>
      </trkpt>
      <trkpt lat="47.85924" lon="-2.50431">
        <ele>67</ele>
        <time>2023-07-22T13:53:21.155Z</time>
      </trkpt>
      <trkpt lat="47.85925" lon="-2.50432">
        <ele>66</ele>
        <time>2023-07-22T13:53:22.155Z</time>
      </trkpt>
      <trkpt lat="47.85926" lon="-2.50432">
        <ele>66</ele>
        <time>2023-07-22T13:53:23.155Z</time>
      </trkpt>
      <trkpt lat="47.85927" lon="-2.50433">
        <ele>66</ele>
        <time>2023-07-22T13:53:24.156Z</time>
      </trkpt>
      <trkpt lat="47.85928" lon="-2.50433">
        <ele>66</ele>
        <time>2023-07-22T13:53:25.156Z</time>
      </trkpt>
      <trkpt lat="47.85929" lon="-2.50434">
        <ele>66</ele>
        <time>2023-07-22T13:53:26.155Z</time>
      </trkpt>
      <trkpt lat="47.85931" lon="-2.50435">
        <ele>66</ele>
        <time>2023-07-22T13:53:27.156Z</time>
      </trkpt>
      <trkpt lat="47.85932" lon="-2.50436">
        <ele>65</ele>
        <time>2023-07-22T13:53:28.156Z</time>
      </trkpt>
      <trkpt lat="47.85933" lon="-2.50436">
        <ele>65</ele>
        <time>2023-07-22T13:53:29.156Z</time>
      </trkpt>
      <trkpt lat="47.85934" lon="-2.50437">
        <ele>64</ele>
        <time>2023-07-22T13:53:30.155Z</time>
      </trkpt>
      <trkpt lat="47.85934" lon="-2.50437">
        <ele>64</ele>
        <time>2023-07-22T13:53:31.155Z</time>
      </trkpt>
      <trkpt lat="47.85935" lon="-2.50437">
        <ele>64</ele>
        <time>2023-07-22T13:53:32.155Z</time>
      </trkpt>
      <trkpt lat="47.85937" lon="-2.50438">
        <ele>64</ele>
        <time>2023-07-22T13:53:33.156Z</time>
      </trkpt>
      <trkpt lat="47.85937" lon="-2.50439">
        <ele>63</ele>
        <time>2023-07-22T13:53:34.156Z</time>
      </trkpt>
      <trkpt lat="47.85937" lon="-2.50439">
        <ele>63</ele>
        <time>2023-07-22T13:53:35.155Z</time>
      </trkpt>
      <trkpt lat="47.85936" lon="-2.50438">
        <ele>62</ele>
        <time>2023-07-22T13:53:41.512Z</time>
      </trkpt>
      <trkpt lat="47.85936" lon="-2.50438">
        <ele>62</ele>
        <time>2023-07-22T13:53:42.512Z</time>
      </trkpt>
      <trkpt lat="47.85936" lon="-2.50438">
        <ele>62</ele>
        <time>2023-07-22T13:53:43.513Z</time>
      </trkpt>
      <trkpt lat="47.85937" lon="-2.50438">
        <ele>62</ele>
        <time>2023-07-22T13:53:44.513Z</time>
      </trkpt>
      <trkpt lat="47.85937" lon="-2.50438">
        <ele>62</ele>
        <time>2023-07-22T13:53:45.512Z</time>
      </trkpt>
      <trkpt lat="47.85937" lon="-2.50437">
        <ele>62</ele>
        <time>2023-07-22T13:53:46.512Z</time>
      </trkpt>
      <trkpt lat="47.85937" lon="-2.50437">
        <ele>61</ele>
        <time>2023-07-22T13:53:47.513Z</time>
      </trkpt>
      <trkpt lat="47.85937" lon="-2.50436">
        <ele>61</ele>
        <time>2023-07-22T13:53:48.512Z</time>
      </trkpt>
      <trkpt lat="47.85938" lon="-2.50436">
        <ele>61</ele>
        <time>2023-07-22T13:53:49.512Z</time>
      </trkpt>
      <trkpt lat="47.85939" lon="-2.50435">
        <ele>61</ele>
        <time>2023-07-22T13:53:50.513Z</time>
      </trkpt>
      <trkpt lat="47.85939" lon="-2.50436">
        <ele>61</ele>
        <time>2023-07-22T13:53:51.513Z</time>
      </trkpt>
      <trkpt lat="47.85941" lon="-2.50436">
        <ele>61</ele>
        <time>2023-07-22T13:53:52.513Z</time>
      </trkpt>
      <trkpt lat="47.85941" lon="-2.50436">
        <ele>61</ele>
        <time>2023-07-22T13:53:53.512Z</time>
      </trkpt>
      <trkpt lat="47.85942" lon="-2.50436">
        <ele>61</ele>
        <time>2023-07-22T13:53:54.513Z</time>
      </trkpt>
      <trkpt lat="47.85943" lon="-2.50437">
        <ele>61</ele>
        <time>2023-07-22T13:53:55.513Z</time>
      </trkpt>
      <trkpt lat="47.85943" lon="-2.50437">
        <ele>61</ele>
        <time>2023-07-22T13:53:56.512Z</time>
      </trkpt>
      <trkpt lat="47.85943" lon="-2.50437">
        <ele>61</ele>
        <time>2023-07-22T13:53:57.512Z</time>
      </trkpt>
      <trkpt lat="47.85944" lon="-2.50437">
        <ele>61</ele>
        <time>2023-07-22T13:53:58.512Z</time>
      </trkpt>
      <trkpt lat="47.85944" lon="-2.50437">
        <ele>61</ele>
        <time>2023-07-22T13:53:59.513Z</time>
      </trkpt>
      <trkpt lat="47.85944" lon="-2.50436">
        <ele>61</ele>
        <time>2023-07-22T13:54:00.512Z</time>
      </trkpt>
      <trkpt lat="47.85945" lon="-2.50436">
        <ele>61</ele>
        <time>2023-07-22T13:54:01.512Z</time>
      </trkpt>
      <trkpt lat="47.85946" lon="-2.50436">
        <ele>61</ele>
        <time>2023-07-22T13:54:02.513Z</time>
      </trkpt>
      <trkpt lat="47.85947" lon="-2.50435">
        <ele>61</ele>
        <time>2023-07-22T13:54:03.512Z</time>
      </trkpt>
      <trkpt lat="47.85948" lon="-2.50435">
        <ele>61</ele>
        <time>2023-07-22T13:54:04.512Z</time>
      </trkpt>
      <trkpt lat="47.85949" lon="-2.50435">
        <ele>61</ele>
        <time>2023-07-22T13:54:05.512Z</time>
      </trkpt>
      <trkpt lat="47.8595" lon="-2.50435">
        <ele>61</ele>
        <time>2023-07-22T13:54:06.512Z</time>
      </trkpt>
      <trkpt lat="47.85951" lon="-2.50436">
        <ele>61</ele>
        <time>2023-07-22T13:54:07.513Z</time>
      </trkpt>
      <trkpt lat="47.85952" lon="-2.50436">
        <ele>61</ele>
        <time>2023-07-22T13:54:08.513Z</time>
      </trkpt>
      <trkpt lat="47.85953" lon="-2.50436">
        <ele>61</ele>
        <time>2023-07-22T13:54:09.512Z</time>
      </trkpt>
      <trkpt lat="47.85955" lon="-2.50436">
        <ele>61</ele>
        <time>2023-07-22T13:54:10.512Z</time>
      </trkpt>
      <trkpt lat="47.85955" lon="-2.50437">
        <ele>61</ele>
        <time>2023-07-22T13:54:11.513Z</time>
      </trkpt>
      <trkpt lat="47.85956" lon="-2.50437">
        <ele>61</ele>
        <time>2023-07-22T13:54:12.513Z</time>
      </trkpt>
      <trkpt lat="47.85957" lon="-2.50437">
        <ele>61</ele>
        <time>2023-07-22T13:54:13.512Z</time>
      </trkpt>
      <trkpt lat="47.85958" lon="-2.50439">
        <ele>61</ele>
        <time>2023-07-22T13:54:14.513Z</time>
      </trkpt>
      <trkpt lat="47.85958" lon="-2.5044">
        <ele>61</ele>
        <time>2023-07-22T13:54:15.513Z</time>
      </trkpt>
      <trkpt lat="47.85959" lon="-2.50442">
        <ele>61</ele>
        <time>2023-07-22T13:54:16.512Z</time>
      </trkpt>
      <trkpt lat="47.85959" lon="-2.50446">
        <ele>61</ele>
        <time>2023-07-22T13:54:17.512Z</time>
      </trkpt>
      <trkpt lat="47.8596" lon="-2.50448">
        <ele>61</ele>
        <time>2023-07-22T13:54:18.513Z</time>
      </trkpt>
      <trkpt lat="47.85963" lon="-2.50449">
        <ele>61</ele>
        <time>2023-07-22T13:54:19.512Z</time>
      </trkpt>
      <trkpt lat="47.85966" lon="-2.50449">
        <ele>61</ele>
        <time>2023-07-22T13:54:20.513Z</time>
      </trkpt>
      <trkpt lat="47.85967" lon="-2.5045">
        <ele>62</ele>
        <time>2023-07-22T13:54:21.512Z</time>
      </trkpt>
      <trkpt lat="47.85969" lon="-2.50451">
        <ele>62</ele>
        <time>2023-07-22T13:54:22.512Z</time>
      </trkpt>
      <trkpt lat="47.8597" lon="-2.50451">
        <ele>62</ele>
        <time>2023-07-22T13:54:23.513Z</time>
      </trkpt>
      <trkpt lat="47.85972" lon="-2.50452">
        <ele>62</ele>
        <time>2023-07-22T13:54:24.513Z</time>
      </trkpt>
      <trkpt lat="47.85973" lon="-2.50454">
        <ele>62</ele>
        <time>2023-07-22T13:54:25.512Z</time>
      </trkpt>
      <trkpt lat="47.85973" lon="-2.50455">
        <ele>62</ele>
        <time>2023-07-22T13:54:26.512Z</time>
      </trkpt>
      <trkpt lat="47.85974" lon="-2.50456">
        <ele>62</ele>
        <time>2023-07-22T13:54:27.512Z</time>
      </trkpt>
      <trkpt lat="47.85975" lon="-2.50456">
        <ele>62</ele>
        <time>2023-07-22T13:54:28.512Z</time>
      </trkpt>
      <trkpt lat="47.85975" lon="-2.50458">
        <ele>61</ele>
        <time>2023-07-22T13:54:29.513Z</time>
      </trkpt>
      <trkpt lat="47.85976" lon="-2.50459">
        <ele>61</ele>
        <time>2023-07-22T13:54:30.513Z</time>
      </trkpt>
      <trkpt lat="47.85977" lon="-2.5046">
        <ele>61</ele>
        <time>2023-07-22T13:54:31.512Z</time>
      </trkpt>
      <trkpt lat="47.85979" lon="-2.5046">
        <ele>61</ele>
        <time>2023-07-22T13:54:32.512Z</time>
      </trkpt>
      <trkpt lat="47.8598" lon="-2.5046">
        <ele>61</ele>
        <time>2023-07-22T13:54:33.513Z</time>
      </trkpt>
      <trkpt lat="47.8598" lon="-2.50463">
        <ele>62</ele>
        <time>2023-07-22T13:54:34.513Z</time>
      </trkpt>
      <trkpt lat="47.8598" lon="-2.50466">
        <ele>62</ele>
        <time>2023-07-22T13:54:35.513Z</time>
      </trkpt>
      <trkpt lat="47.85981" lon="-2.50464">
        <ele>62</ele>
        <time>2023-07-22T13:54:36.513Z</time>
      </trkpt>
      <trkpt lat="47.85983" lon="-2.50462">
        <ele>62</ele>
        <time>2023-07-22T13:54:37.512Z</time>
      </trkpt>
      <trkpt lat="47.85982" lon="-2.50462">
        <ele>63</ele>
        <time>2023-07-22T13:54:38.513Z</time>
      </trkpt>
      <trkpt lat="47.85984" lon="-2.50463">
        <ele>64</ele>
        <time>2023-07-22T13:54:39.513Z</time>
      </trkpt>
      <trkpt lat="47.85984" lon="-2.50463">
        <ele>64</ele>
        <time>2023-07-22T13:54:40.513Z</time>
      </trkpt>
      <trkpt lat="47.85987" lon="-2.50463">
        <ele>65</ele>
        <time>2023-07-22T13:54:41.512Z</time>
      </trkpt>
      <trkpt lat="47.85987" lon="-2.50463">
        <ele>65</ele>
        <time>2023-07-22T13:54:42.513Z</time>
      </trkpt>
      <trkpt lat="47.85989" lon="-2.50459">
        <ele>66</ele>
        <time>2023-07-22T13:54:43.512Z</time>
      </trkpt>
      <trkpt lat="47.8599" lon="-2.50458">
        <ele>67</ele>
        <time>2023-07-22T13:54:44.512Z</time>
      </trkpt>
      <trkpt lat="47.85991" lon="-2.50458">
        <ele>67</ele>
        <time>2023-07-22T13:54:45.512Z</time>
      </trkpt>
      <trkpt lat="47.85991" lon="-2.50458">
        <ele>68</ele>
        <time>2023-07-22T13:54:46.513Z</time>
      </trkpt>
      <trkpt lat="47.85991" lon="-2.50458">
        <ele>68</ele>
        <time>2023-07-22T13:54:47.512Z</time>
      </trkpt>
      <trkpt lat="47.85992" lon="-2.50459">
        <ele>73</ele>
        <time>2023-07-22T13:54:53.886Z</time>
      </trkpt>
      <trkpt lat="47.85992" lon="-2.5046">
        <ele>73</ele>
        <time>2023-07-22T13:54:54.887Z</time>
      </trkpt>
      <trkpt lat="47.85993" lon="-2.50461">
        <ele>74</ele>
        <time>2023-07-22T13:54:55.886Z</time>
      </trkpt>
      <trkpt lat="47.85995" lon="-2.50461">
        <ele>74</ele>
        <time>2023-07-22T13:54:56.886Z</time>
      </trkpt>
      <trkpt lat="47.85996" lon="-2.50463">
        <ele>74</ele>
        <time>2023-07-22T13:54:57.886Z</time>
      </trkpt>
      <trkpt lat="47.85997" lon="-2.50464">
        <ele>74</ele>
        <time>2023-07-22T13:54:58.887Z</time>
      </trkpt>
      <trkpt lat="47.85997" lon="-2.50466">
        <ele>74</ele>
        <time>2023-07-22T13:54:59.886Z</time>
      </trkpt>
      <trkpt lat="47.85996" lon="-2.50468">
        <ele>74</ele>
        <time>2023-07-22T13:55:00.886Z</time>
      </trkpt>
      <trkpt lat="47.85996" lon="-2.5047">
        <ele>74</ele>
        <time>2023-07-22T13:55:01.887Z</time>
      </trkpt>
      <trkpt lat="47.85997" lon="-2.5047">
        <ele>73</ele>
        <time>2023-07-22T13:55:02.886Z</time>
      </trkpt>
      <trkpt lat="47.85998" lon="-2.50469">
        <ele>73</ele>
        <time>2023-07-22T13:55:03.886Z</time>
      </trkpt>
      <trkpt lat="47.85999" lon="-2.50469">
        <ele>72</ele>
        <time>2023-07-22T13:55:04.887Z</time>
      </trkpt>
      <trkpt lat="47.86" lon="-2.50468">
        <ele>72</ele>
        <time>2023-07-22T13:55:05.886Z</time>
      </trkpt>
      <trkpt lat="47.86001" lon="-2.50468">
        <ele>72</ele>
        <time>2023-07-22T13:55:06.887Z</time>
      </trkpt>
      <trkpt lat="47.86002" lon="-2.50468">
        <ele>72</ele>
        <time>2023-07-22T13:55:07.886Z</time>
      </trkpt>
      <trkpt lat="47.86003" lon="-2.50468">
        <ele>72</ele>
        <time>2023-07-22T13:55:08.886Z</time>
      </trkpt>
      <trkpt lat="47.86005" lon="-2.50468">
        <ele>71</ele>
        <time>2023-07-22T13:55:09.887Z</time>
      </trkpt>
      <trkpt lat="47.86005" lon="-2.50468">
        <ele>71</ele>
        <time>2023-07-22T13:55:10.887Z</time>
      </trkpt>
      <trkpt lat="47.86006" lon="-2.50468">
        <ele>71</ele>
        <time>2023-07-22T13:55:11.886Z</time>
      </trkpt>
      <trkpt lat="47.86006" lon="-2.50469">
        <ele>70</ele>
        <time>2023-07-22T13:55:12.887Z</time>
      </trkpt>
      <trkpt lat="47.86006" lon="-2.5047">
        <ele>69</ele>
        <time>2023-07-22T13:55:13.886Z</time>
      </trkpt>
      <trkpt lat="47.86006" lon="-2.5047">
        <ele>69</ele>
        <time>2023-07-22T13:55:14.887Z</time>
      </trkpt>
      <trkpt lat="47.86007" lon="-2.50469">
        <ele>69</ele>
        <time>2023-07-22T13:55:15.886Z</time>
      </trkpt>
      <trkpt lat="47.86008" lon="-2.5047">
        <ele>68</ele>
        <time>2023-07-22T13:55:16.886Z</time>
      </trkpt>
      <trkpt lat="47.86009" lon="-2.5047">
        <ele>68</ele>
        <time>2023-07-22T13:55:17.886Z</time>
      </trkpt>
      <trkpt lat="47.8601" lon="-2.5047">
        <ele>67</ele>
        <time>2023-07-22T13:55:18.886Z</time>
      </trkpt>
      <trkpt lat="47.8601" lon="-2.50469">
        <ele>67</ele>
        <time>2023-07-22T13:55:19.886Z</time>
      </trkpt>
      <trkpt lat="47.86012" lon="-2.50469">
        <ele>67</ele>
        <time>2023-07-22T13:55:20.886Z</time>
      </trkpt>
      <trkpt lat="47.86013" lon="-2.50469">
        <ele>66</ele>
        <time>2023-07-22T13:55:21.886Z</time>
      </trkpt>
      <trkpt lat="47.86014" lon="-2.50469">
        <ele>65</ele>
        <time>2023-07-22T13:55:22.886Z</time>
      </trkpt>
      <trkpt lat="47.86015" lon="-2.5047">
        <ele>65</ele>
        <time>2023-07-22T13:55:23.886Z</time>
      </trkpt>
      <trkpt lat="47.86016" lon="-2.5047">
        <ele>64</ele>
        <time>2023-07-22T13:55:24.886Z</time>
      </trkpt>
      <trkpt lat="47.86017" lon="-2.5047">
        <ele>64</ele>
        <time>2023-07-22T13:55:25.886Z</time>
      </trkpt>
      <trkpt lat="47.86018" lon="-2.5047">
        <ele>64</ele>
        <time>2023-07-22T13:55:26.886Z</time>
      </trkpt>
      <trkpt lat="47.86019" lon="-2.5047">
        <ele>63</ele>
        <time>2023-07-22T13:55:27.886Z</time>
      </trkpt>
      <trkpt lat="47.8602" lon="-2.50471">
        <ele>63</ele>
        <time>2023-07-22T13:55:28.886Z</time>
      </trkpt>
      <trkpt lat="47.86021" lon="-2.50471">
        <ele>63</ele>
        <time>2023-07-22T13:55:29.886Z</time>
      </trkpt>
      <trkpt lat="47.86023" lon="-2.50471">
        <ele>63</ele>
        <time>2023-07-22T13:55:30.886Z</time>
      </trkpt>
      <trkpt lat="47.86024" lon="-2.50471">
        <ele>62</ele>
        <time>2023-07-22T13:55:31.886Z</time>
      </trkpt>
      <trkpt lat="47.86025" lon="-2.50472">
        <ele>62</ele>
        <time>2023-07-22T13:55:32.886Z</time>
      </trkpt>
      <trkpt lat="47.86025" lon="-2.50472">
        <ele>62</ele>
        <time>2023-07-22T13:55:33.886Z</time>
      </trkpt>
      <trkpt lat="47.86026" lon="-2.50473">
        <ele>62</ele>
        <time>2023-07-22T13:55:34.886Z</time>
      </trkpt>
      <trkpt lat="47.86027" lon="-2.50474">
        <ele>62</ele>
        <time>2023-07-22T13:55:35.886Z</time>
      </trkpt>
      <trkpt lat="47.86028" lon="-2.50474">
        <ele>62</ele>
        <time>2023-07-22T13:55:36.887Z</time>
      </trkpt>
      <trkpt lat="47.86029" lon="-2.50475">
        <ele>62</ele>
        <time>2023-07-22T13:55:37.886Z</time>
      </trkpt>
      <trkpt lat="47.8603" lon="-2.50477">
        <ele>62</ele>
        <time>2023-07-22T13:55:38.886Z</time>
      </trkpt>
      <trkpt lat="47.8603" lon="-2.50478">
        <ele>63</ele>
        <time>2023-07-22T13:55:39.886Z</time>
      </trkpt>
      <trkpt lat="47.86031" lon="-2.5048">
        <ele>63</ele>
        <time>2023-07-22T13:55:40.886Z</time>
      </trkpt>
      <trkpt lat="47.86032" lon="-2.50481">
        <ele>63</ele>
        <time>2023-07-22T13:55:41.886Z</time>
      </trkpt>
      <trkpt lat="47.86033" lon="-2.50482">
        <ele>63</ele>
        <time>2023-07-22T13:55:42.886Z</time>
      </trkpt>
      <trkpt lat="47.86033" lon="-2.50483">
        <ele>63</ele>
        <time>2023-07-22T13:55:43.886Z</time>
      </trkpt>
      <trkpt lat="47.86034" lon="-2.50485">
        <ele>64</ele>
        <time>2023-07-22T13:55:44.886Z</time>
      </trkpt>
      <trkpt lat="47.86034" lon="-2.50485">
        <ele>64</ele>
        <time>2023-07-22T13:55:45.886Z</time>
      </trkpt>
      <trkpt lat="47.86036" lon="-2.50483">
        <ele>64</ele>
        <time>2023-07-22T13:55:46.886Z</time>
      </trkpt>
      <trkpt lat="47.86037" lon="-2.50484">
        <ele>65</ele>
        <time>2023-07-22T13:55:47.886Z</time>
      </trkpt>
      <trkpt lat="47.86038" lon="-2.50484">
        <ele>66</ele>
        <time>2023-07-22T13:55:48.887Z</time>
      </trkpt>
      <trkpt lat="47.86039" lon="-2.50485">
        <ele>67</ele>
        <time>2023-07-22T13:55:49.887Z</time>
      </trkpt>
      <trkpt lat="47.8604" lon="-2.50487">
        <ele>67</ele>
        <time>2023-07-22T13:55:50.887Z</time>
      </trkpt>
      <trkpt lat="47.86041" lon="-2.50488">
        <ele>68</ele>
        <time>2023-07-22T13:55:51.887Z</time>
      </trkpt>
      <trkpt lat="47.86043" lon="-2.5049">
        <ele>69</ele>
        <time>2023-07-22T13:55:52.887Z</time>
      </trkpt>
      <trkpt lat="47.86044" lon="-2.5049">
        <ele>69</ele>
        <time>2023-07-22T13:55:53.887Z</time>
      </trkpt>
      <trkpt lat="47.86044" lon="-2.50491">
        <ele>69</ele>
        <time>2023-07-22T13:55:54.887Z</time>
      </trkpt>
      <trkpt lat="47.86045" lon="-2.50491">
        <ele>70</ele>
        <time>2023-07-22T13:55:55.886Z</time>
      </trkpt>
      <trkpt lat="47.86045" lon="-2.50492">
        <ele>70</ele>
        <time>2023-07-22T13:55:56.886Z</time>
      </trkpt>
      <trkpt lat="47.86045" lon="-2.50493">
        <ele>71</ele>
        <time>2023-07-22T13:55:57.886Z</time>
      </trkpt>
      <trkpt lat="47.86045" lon="-2.50495">
        <ele>71</ele>
        <time>2023-07-22T13:55:58.887Z</time>
      </trkpt>
      <trkpt lat="47.86045" lon="-2.50496">
        <ele>71</ele>
        <time>2023-07-22T13:55:59.886Z</time>
      </trkpt>
      <trkpt lat="47.86046" lon="-2.50496">
        <ele>71</ele>
        <time>2023-07-22T13:56:00.887Z</time>
      </trkpt>
      <trkpt lat="47.86046" lon="-2.50496">
        <ele>72</ele>
        <time>2023-07-22T13:56:01.886Z</time>
      </trkpt>
      <trkpt lat="47.86047" lon="-2.50497">
        <ele>72</ele>
        <time>2023-07-22T13:56:02.886Z</time>
      </trkpt>
      <trkpt lat="47.86047" lon="-2.505">
        <ele>72</ele>
        <time>2023-07-22T13:56:03.886Z</time>
      </trkpt>
      <trkpt lat="47.86047" lon="-2.50502">
        <ele>72</ele>
        <time>2023-07-22T13:56:04.887Z</time>
      </trkpt>
      <trkpt lat="47.86047" lon="-2.50504">
        <ele>72</ele>
        <time>2023-07-22T13:56:05.886Z</time>
      </trkpt>
      <trkpt lat="47.86047" lon="-2.50506">
        <ele>72</ele>
        <time>2023-07-22T13:56:06.886Z</time>
      </trkpt>
      <trkpt lat="47.86047" lon="-2.50508">
        <ele>72</ele>
        <time>2023-07-22T13:56:07.886Z</time>
      </trkpt>
      <trkpt lat="47.86049" lon="-2.50508">
        <ele>72</ele>
        <time>2023-07-22T13:56:08.886Z</time>
      </trkpt>
      <trkpt lat="47.8605" lon="-2.50509">
        <ele>72</ele>
        <time>2023-07-22T13:56:09.886Z</time>
      </trkpt>
      <trkpt lat="47.86051" lon="-2.50509">
        <ele>72</ele>
        <time>2023-07-22T13:56:10.887Z</time>
      </trkpt>
      <trkpt lat="47.86052" lon="-2.50509">
        <ele>72</ele>
        <time>2023-07-22T13:56:11.886Z</time>
      </trkpt>
      <trkpt lat="47.86052" lon="-2.5051">
        <ele>72</ele>
        <time>2023-07-22T13:56:12.886Z</time>
      </trkpt>
      <trkpt lat="47.86053" lon="-2.50512">
        <ele>71</ele>
        <time>2023-07-22T13:56:13.886Z</time>
      </trkpt>
      <trkpt lat="47.86054" lon="-2.50513">
        <ele>71</ele>
        <time>2023-07-22T13:56:14.886Z</time>
      </trkpt>
      <trkpt lat="47.86054" lon="-2.50514">
        <ele>71</ele>
        <time>2023-07-22T13:56:15.886Z</time>
      </trkpt>
      <trkpt lat="47.86055" lon="-2.50515">
        <ele>71</ele>
        <time>2023-07-22T13:56:16.886Z</time>
      </trkpt>
      <trkpt lat="47.86056" lon="-2.50516">
        <ele>71</ele>
        <time>2023-07-22T13:56:17.887Z</time>
      </trkpt>
      <trkpt lat="47.86058" lon="-2.50517">
        <ele>71</ele>
        <time>2023-07-22T13:56:18.886Z</time>
      </trkpt>
      <trkpt lat="47.86058" lon="-2.50518">
        <ele>70</ele>
        <time>2023-07-22T13:56:19.886Z</time>
      </trkpt>
      <trkpt lat="47.86059" lon="-2.50518">
        <ele>70</ele>
        <time>2023-07-22T13:56:20.887Z</time>
      </trkpt>
      <trkpt lat="47.86059" lon="-2.50519">
        <ele>70</ele>
        <time>2023-07-22T13:56:21.886Z</time>
      </trkpt>
      <trkpt lat="47.86059" lon="-2.5052">
        <ele>70</ele>
        <time>2023-07-22T13:56:22.886Z</time>
      </trkpt>
      <trkpt lat="47.8606" lon="-2.50521">
        <ele>69</ele>
        <time>2023-07-22T13:56:23.886Z</time>
      </trkpt>
      <trkpt lat="47.8606" lon="-2.50522">
        <ele>69</ele>
        <time>2023-07-22T13:56:24.886Z</time>
      </trkpt>
      <trkpt lat="47.86061" lon="-2.50523">
        <ele>68</ele>
        <time>2023-07-22T13:56:25.886Z</time>
      </trkpt>
      <trkpt lat="47.86061" lon="-2.50524">
        <ele>68</ele>
        <time>2023-07-22T13:56:26.886Z</time>
      </trkpt>
      <trkpt lat="47.86061" lon="-2.50526">
        <ele>67</ele>
        <time>2023-07-22T13:56:27.886Z</time>
      </trkpt>
      <trkpt lat="47.86061" lon="-2.50526">
        <ele>66</ele>
        <time>2023-07-22T13:56:28.887Z</time>
      </trkpt>
      <trkpt lat="47.86061" lon="-2.50527">
        <ele>66</ele>
        <time>2023-07-22T13:56:29.887Z</time>
      </trkpt>
      <trkpt lat="47.86061" lon="-2.50527">
        <ele>66</ele>
        <time>2023-07-22T13:56:30.887Z</time>
      </trkpt>
      <trkpt lat="47.8606" lon="-2.50528">
        <ele>66</ele>
        <time>2023-07-22T13:56:31.886Z</time>
      </trkpt>
      <trkpt lat="47.8606" lon="-2.50529">
        <ele>66</ele>
        <time>2023-07-22T13:56:32.886Z</time>
      </trkpt>
      <trkpt lat="47.8606" lon="-2.5053">
        <ele>67</ele>
        <time>2023-07-22T13:56:33.886Z</time>
      </trkpt>
      <trkpt lat="47.8606" lon="-2.5053">
        <ele>67</ele>
        <time>2023-07-22T13:56:34.886Z</time>
      </trkpt>
      <trkpt lat="47.86061" lon="-2.5053">
        <ele>67</ele>
        <time>2023-07-22T13:56:35.886Z</time>
      </trkpt>
      <trkpt lat="47.86061" lon="-2.50531">
        <ele>67</ele>
        <time>2023-07-22T13:56:36.886Z</time>
      </trkpt>
      <trkpt lat="47.86061" lon="-2.50531">
        <ele>68</ele>
        <time>2023-07-22T13:56:37.886Z</time>
      </trkpt>
      <trkpt lat="47.8606" lon="-2.50533">
        <ele>69</ele>
        <time>2023-07-22T13:56:45.980Z</time>
      </trkpt>
      <trkpt lat="47.8606" lon="-2.50533">
        <ele>69</ele>
        <time>2023-07-22T13:56:46.980Z</time>
      </trkpt>
      <trkpt lat="47.8606" lon="-2.50533">
        <ele>69</ele>
        <time>2023-07-22T13:56:47.980Z</time>
      </trkpt>
      <trkpt lat="47.86059" lon="-2.50533">
        <ele>69</ele>
        <time>2023-07-22T13:56:48.979Z</time>
      </trkpt>
      <trkpt lat="47.86059" lon="-2.50533">
        <ele>70</ele>
        <time>2023-07-22T13:56:49.979Z</time>
      </trkpt>
      <trkpt lat="47.86059" lon="-2.50534">
        <ele>70</ele>
        <time>2023-07-22T13:56:50.979Z</time>
      </trkpt>
      <trkpt lat="47.86059" lon="-2.50534">
        <ele>70</ele>
        <time>2023-07-22T13:56:51.979Z</time>
      </trkpt>
      <trkpt lat="47.86059" lon="-2.50534">
        <ele>71</ele>
        <time>2023-07-22T13:56:52.979Z</time>
      </trkpt>
      <trkpt lat="47.86059" lon="-2.50533">
        <ele>71</ele>
        <time>2023-07-22T13:56:53.979Z</time>
      </trkpt>
      <trkpt lat="47.86059" lon="-2.50533">
        <ele>71</ele>
        <time>2023-07-22T13:56:54.979Z</time>
      </trkpt>
      <trkpt lat="47.86059" lon="-2.50533">
        <ele>71</ele>
        <time>2023-07-22T13:56:55.980Z</time>
      </trkpt>
      <trkpt lat="47.86059" lon="-2.50533">
        <ele>71</ele>
        <time>2023-07-22T13:56:56.979Z</time>
      </trkpt>
      <trkpt lat="47.86059" lon="-2.50533">
        <ele>71</ele>
        <time>2023-07-22T13:56:57.979Z</time>
      </trkpt>
      <trkpt lat="47.86059" lon="-2.50533">
        <ele>71</ele>
        <time>2023-07-22T13:56:58.980Z</time>
      </trkpt>
      <trkpt lat="47.86059" lon="-2.50533">
        <ele>71</ele>
        <time>2023-07-22T13:56:59.979Z</time>
      </trkpt>
      <trkpt lat="47.86059" lon="-2.50533">
        <ele>71</ele>
        <time>2023-07-22T13:57:00.979Z</time>
      </trkpt>
      <trkpt lat="47.86059" lon="-2.50533">
        <ele>71</ele>
        <time>2023-07-22T13:57:01.979Z</time>
      </trkpt>
      <trkpt lat="47.86059" lon="-2.50533">
        <ele>70</ele>
        <time>2023-07-22T13:57:02.979Z</time>
      </trkpt>
      <trkpt lat="47.86059" lon="-2.50533">
        <ele>71</ele>
        <time>2023-07-22T13:57:03.979Z</time>
      </trkpt>
      <trkpt lat="47.86059" lon="-2.50533">
        <ele>71</ele>
        <time>2023-07-22T13:57:04.979Z</time>
      </trkpt>
      <trkpt lat="47.86059" lon="-2.50533">
        <ele>71</ele>
        <time>2023-07-22T13:57:05.979Z</time>
      </trkpt>
      <trkpt lat="47.86059" lon="-2.50533">
        <ele>71</ele>
        <time>2023-07-22T13:57:06.980Z</time>
      </trkpt>
      <trkpt lat="47.86059" lon="-2.50532">
        <ele>71</ele>
        <time>2023-07-22T13:57:07.979Z</time>
      </trkpt>
      <trkpt lat="47.86059" lon="-2.50532">
        <ele>71</ele>
        <time>2023-07-22T13:57:08.979Z</time>
      </trkpt>
      <trkpt lat="47.86059" lon="-2.50532">
        <ele>71</ele>
        <time>2023-07-22T13:57:09.979Z</time>
      </trkpt>
      <trkpt lat="47.86059" lon="-2.50532">
        <ele>71</ele>
        <time>2023-07-22T13:57:10.980Z</time>
      </trkpt>
      <trkpt lat="47.86059" lon="-2.50532">
        <ele>71</ele>
        <time>2023-07-22T13:57:11.979Z</time>
      </trkpt>
      <trkpt lat="47.86059" lon="-2.50531">
        <ele>71</ele>
        <time>2023-07-22T13:57:12.979Z</time>
      </trkpt>
      <trkpt lat="47.86059" lon="-2.50531">
        <ele>71</ele>
        <time>2023-07-22T13:57:13.979Z</time>
      </trkpt>
      <trkpt lat="47.86059" lon="-2.50531">
        <ele>71</ele>
        <time>2023-07-22T13:57:14.980Z</time>
      </trkpt>
      <trkpt lat="47.86059" lon="-2.50531">
        <ele>71</ele>
        <time>2023-07-22T13:57:15.979Z</time>
      </trkpt>
      <trkpt lat="47.86059" lon="-2.50531">
        <ele>71</ele>
        <time>2023-07-22T13:57:16.980Z</time>
      </trkpt>
      <trkpt lat="47.86058" lon="-2.50531">
        <ele>72</ele>
        <time>2023-07-22T13:57:17.979Z</time>
      </trkpt>
      <trkpt lat="47.86058" lon="-2.50531">
        <ele>72</ele>
        <time>2023-07-22T13:57:18.979Z</time>
      </trkpt>
      <trkpt lat="47.86058" lon="-2.50531">
        <ele>72</ele>
        <time>2023-07-22T13:57:19.979Z</time>
      </trkpt>
      <trkpt lat="47.86058" lon="-2.50531">
        <ele>73</ele>
        <time>2023-07-22T13:57:20.979Z</time>
      </trkpt>
      <trkpt lat="47.86059" lon="-2.50531">
        <ele>75</ele>
        <time>2023-07-22T13:57:29.175Z</time>
      </trkpt>
      <trkpt lat="47.86059" lon="-2.50531">
        <ele>76</ele>
        <time>2023-07-22T13:57:30.175Z</time>
      </trkpt>
      <trkpt lat="47.86059" lon="-2.50531">
        <ele>76</ele>
        <time>2023-07-22T13:57:31.175Z</time>
      </trkpt>
      <trkpt lat="47.86059" lon="-2.50531">
        <ele>76</ele>
        <time>2023-07-22T13:57:32.299Z</time>
      </trkpt>
      <trkpt lat="47.86059" lon="-2.50531">
        <ele>77</ele>
        <time>2023-07-22T13:57:33.299Z</time>
      </trkpt>
      <trkpt lat="47.86059" lon="-2.50531">
        <ele>78</ele>
        <time>2023-07-22T13:57:34.299Z</time>
      </trkpt>
      <trkpt lat="47.86059" lon="-2.50531">
        <ele>78</ele>
        <time>2023-07-22T13:57:35.299Z</time>
      </trkpt>
      <trkpt lat="47.86059" lon="-2.50531">
        <ele>79</ele>
        <time>2023-07-22T13:57:36.300Z</time>
      </trkpt>
      <trkpt lat="47.86059" lon="-2.50531">
        <ele>79</ele>
        <time>2023-07-22T13:57:37.175Z</time>
      </trkpt>
      <trkpt lat="47.8606" lon="-2.50531">
        <ele>79</ele>
        <time>2023-07-22T13:57:38.299Z</time>
      </trkpt>
      <trkpt lat="47.86059" lon="-2.50531">
        <ele>79</ele>
        <time>2023-07-22T13:57:39.299Z</time>
      </trkpt>
      <trkpt lat="47.86059" lon="-2.50531">
        <ele>79</ele>
        <time>2023-07-22T13:57:40.299Z</time>
      </trkpt>
      <trkpt lat="47.86059" lon="-2.50531">
        <ele>79</ele>
        <time>2023-07-22T13:57:41.299Z</time>
      </trkpt>
      <trkpt lat="47.86059" lon="-2.50531">
        <ele>79</ele>
        <time>2023-07-22T13:57:42.299Z</time>
      </trkpt>
      <trkpt lat="47.86059" lon="-2.50531">
        <ele>79</ele>
        <time>2023-07-22T13:57:43.299Z</time>
      </trkpt>
      <trkpt lat="47.86059" lon="-2.50531">
        <ele>79</ele>
        <time>2023-07-22T13:57:44.175Z</time>
      </trkpt>
      <trkpt lat="47.86059" lon="-2.5053">
        <ele>79</ele>
        <time>2023-07-22T13:57:45.175Z</time>
      </trkpt>
      <trkpt lat="47.86059" lon="-2.5053">
        <ele>79</ele>
        <time>2023-07-22T13:57:46.299Z</time>
      </trkpt>
      <trkpt lat="47.86059" lon="-2.5053">
        <ele>80</ele>
        <time>2023-07-22T13:57:47.299Z</time>
      </trkpt>
      <trkpt lat="47.86059" lon="-2.5053">
        <ele>80</ele>
        <time>2023-07-22T13:57:48.299Z</time>
      </trkpt>
      <trkpt lat="47.86059" lon="-2.5053">
        <ele>80</ele>
        <time>2023-07-22T13:57:49.175Z</time>
      </trkpt>
      <trkpt lat="47.8606" lon="-2.50529">
        <ele>79</ele>
        <time>2023-07-22T13:57:50.300Z</time>
      </trkpt>
      <trkpt lat="47.86061" lon="-2.50528">
        <ele>79</ele>
        <time>2023-07-22T13:57:51.299Z</time>
      </trkpt>
      <trkpt lat="47.86062" lon="-2.50528">
        <ele>79</ele>
        <time>2023-07-22T13:57:52.175Z</time>
      </trkpt>
      <trkpt lat="47.86062" lon="-2.50528">
        <ele>78</ele>
        <time>2023-07-22T13:57:53.299Z</time>
      </trkpt>
      <trkpt lat="47.86063" lon="-2.50528">
        <ele>78</ele>
        <time>2023-07-22T13:57:54.299Z</time>
      </trkpt>
      <trkpt lat="47.86062" lon="-2.50528">
        <ele>78</ele>
        <time>2023-07-22T13:57:55.299Z</time>
      </trkpt>
      <trkpt lat="47.86063" lon="-2.50528">
        <ele>78</ele>
        <time>2023-07-22T13:57:56.299Z</time>
      </trkpt>
      <trkpt lat="47.86063" lon="-2.50529">
        <ele>77</ele>
        <time>2023-07-22T13:57:57.299Z</time>
      </trkpt>
      <trkpt lat="47.86063" lon="-2.50529">
        <ele>77</ele>
        <time>2023-07-22T13:57:58.299Z</time>
      </trkpt>
      <trkpt lat="47.86063" lon="-2.5053">
        <ele>76</ele>
        <time>2023-07-22T13:57:59.300Z</time>
      </trkpt>
      <trkpt lat="47.86063" lon="-2.50531">
        <ele>76</ele>
        <time>2023-07-22T13:58:00.175Z</time>
      </trkpt>
      <trkpt lat="47.86063" lon="-2.50532">
        <ele>75</ele>
        <time>2023-07-22T13:58:01.175Z</time>
      </trkpt>
      <trkpt lat="47.86063" lon="-2.50534">
        <ele>75</ele>
        <time>2023-07-22T13:58:02.175Z</time>
      </trkpt>
      <trkpt lat="47.86063" lon="-2.50535">
        <ele>75</ele>
        <time>2023-07-22T13:58:03.299Z</time>
      </trkpt>
      <trkpt lat="47.86064" lon="-2.50534">
        <ele>75</ele>
        <time>2023-07-22T13:58:04.299Z</time>
      </trkpt>
      <trkpt lat="47.86065" lon="-2.50536">
        <ele>75</ele>
        <time>2023-07-22T13:58:05.299Z</time>
      </trkpt>
      <trkpt lat="47.86065" lon="-2.50538">
        <ele>74</ele>
        <time>2023-07-22T13:58:06.299Z</time>
      </trkpt>
      <trkpt lat="47.86066" lon="-2.50538">
        <ele>74</ele>
        <time>2023-07-22T13:58:07.299Z</time>
      </trkpt>
      <trkpt lat="47.86066" lon="-2.50539">
        <ele>74</ele>
        <time>2023-07-22T13:58:08.299Z</time>
      </trkpt>
      <trkpt lat="47.86067" lon="-2.5054">
        <ele>74</ele>
        <time>2023-07-22T13:58:09.300Z</time>
      </trkpt>
      <trkpt lat="47.86067" lon="-2.5054">
        <ele>74</ele>
        <time>2023-07-22T13:58:10.175Z</time>
      </trkpt>
      <trkpt lat="47.86068" lon="-2.50541">
        <ele>74</ele>
        <time>2023-07-22T13:58:11.175Z</time>
      </trkpt>
      <trkpt lat="47.86068" lon="-2.50542">
        <ele>74</ele>
        <time>2023-07-22T13:58:12.175Z</time>
      </trkpt>
      <trkpt lat="47.86069" lon="-2.50544">
        <ele>74</ele>
        <time>2023-07-22T13:58:13.299Z</time>
      </trkpt>
      <trkpt lat="47.8607" lon="-2.50545">
        <ele>74</ele>
        <time>2023-07-22T13:58:14.299Z</time>
      </trkpt>
      <trkpt lat="47.86071" lon="-2.50546">
        <ele>74</ele>
        <time>2023-07-22T13:58:15.299Z</time>
      </trkpt>
      <trkpt lat="47.86071" lon="-2.50547">
        <ele>74</ele>
        <time>2023-07-22T13:58:16.299Z</time>
      </trkpt>
      <trkpt lat="47.86071" lon="-2.50548">
        <ele>75</ele>
        <time>2023-07-22T13:58:17.299Z</time>
      </trkpt>
      <trkpt lat="47.86071" lon="-2.50549">
        <ele>75</ele>
        <time>2023-07-22T13:58:18.300Z</time>
      </trkpt>
      <trkpt lat="47.86071" lon="-2.50551">
        <ele>76</ele>
        <time>2023-07-22T13:58:19.299Z</time>
      </trkpt>
      <trkpt lat="47.86072" lon="-2.50553">
        <ele>76</ele>
        <time>2023-07-22T13:58:20.175Z</time>
      </trkpt>
      <trkpt lat="47.86073" lon="-2.50554">
        <ele>76</ele>
        <time>2023-07-22T13:58:21.299Z</time>
      </trkpt>
      <trkpt lat="47.86074" lon="-2.50555">
        <ele>76</ele>
        <time>2023-07-22T13:58:22.299Z</time>
      </trkpt>
      <trkpt lat="47.86075" lon="-2.50556">
        <ele>76</ele>
        <time>2023-07-22T13:58:23.299Z</time>
      </trkpt>
      <trkpt lat="47.86075" lon="-2.50556">
        <ele>77</ele>
        <time>2023-07-22T13:58:24.299Z</time>
      </trkpt>
      <trkpt lat="47.86075" lon="-2.50556">
        <ele>77</ele>
        <time>2023-07-22T13:58:25.299Z</time>
      </trkpt>
      <trkpt lat="47.86074" lon="-2.50553">
        <ele>77</ele>
        <time>2023-07-22T13:58:37.443Z</time>
      </trkpt>
      <trkpt lat="47.86074" lon="-2.50553">
        <ele>77</ele>
        <time>2023-07-22T13:58:38.443Z</time>
      </trkpt>
      <trkpt lat="47.86075" lon="-2.50554">
        <ele>77</ele>
        <time>2023-07-22T13:58:39.567Z</time>
      </trkpt>
      <trkpt lat="47.86075" lon="-2.50554">
        <ele>76</ele>
        <time>2023-07-22T13:58:40.567Z</time>
      </trkpt>
      <trkpt lat="47.86075" lon="-2.50554">
        <ele>76</ele>
        <time>2023-07-22T13:58:41.567Z</time>
      </trkpt>
      <trkpt lat="47.86075" lon="-2.50554">
        <ele>76</ele>
        <time>2023-07-22T13:58:42.567Z</time>
      </trkpt>
      <trkpt lat="47.86075" lon="-2.50553">
        <ele>76</ele>
        <time>2023-07-22T13:58:43.567Z</time>
      </trkpt>
      <trkpt lat="47.86075" lon="-2.50553">
        <ele>76</ele>
        <time>2023-07-22T13:58:44.567Z</time>
      </trkpt>
      <trkpt lat="47.86075" lon="-2.50553">
        <ele>75</ele>
        <time>2023-07-22T13:58:45.567Z</time>
      </trkpt>
      <trkpt lat="47.86075" lon="-2.50553">
        <ele>75</ele>
        <time>2023-07-22T13:58:46.443Z</time>
      </trkpt>
      <trkpt lat="47.86075" lon="-2.50553">
        <ele>75</ele>
        <time>2023-07-22T13:58:47.443Z</time>
      </trkpt>
      <trkpt lat="47.86075" lon="-2.50553">
        <ele>75</ele>
        <time>2023-07-22T13:58:48.443Z</time>
      </trkpt>
      <trkpt lat="47.86075" lon="-2.50553">
        <ele>74</ele>
        <time>2023-07-22T13:58:49.443Z</time>
      </trkpt>
      <trkpt lat="47.86075" lon="-2.50553">
        <ele>74</ele>
        <time>2023-07-22T13:58:50.567Z</time>
      </trkpt>
      <trkpt lat="47.86075" lon="-2.50552">
        <ele>74</ele>
        <time>2023-07-22T13:58:51.443Z</time>
      </trkpt>
      <trkpt lat="47.86075" lon="-2.50552">
        <ele>73</ele>
        <time>2023-07-22T13:58:52.567Z</time>
      </trkpt>
      <trkpt lat="47.86075" lon="-2.50552">
        <ele>73</ele>
        <time>2023-07-22T13:58:53.567Z</time>
      </trkpt>
      <trkpt lat="47.86075" lon="-2.50552">
        <ele>73</ele>
        <time>2023-07-22T13:58:54.567Z</time>
      </trkpt>
      <trkpt lat="47.86075" lon="-2.50552">
        <ele>72</ele>
        <time>2023-07-22T13:58:55.567Z</time>
      </trkpt>
      <trkpt lat="47.86075" lon="-2.50552">
        <ele>72</ele>
        <time>2023-07-22T13:58:56.567Z</time>
      </trkpt>
      <trkpt lat="47.86075" lon="-2.50552">
        <ele>72</ele>
        <time>2023-07-22T13:58:57.568Z</time>
      </trkpt>
      <trkpt lat="47.86075" lon="-2.50553">
        <ele>71</ele>
        <time>2023-07-22T13:58:58.567Z</time>
      </trkpt>
      <trkpt lat="47.86075" lon="-2.50553">
        <ele>71</ele>
        <time>2023-07-22T13:58:59.567Z</time>
      </trkpt>
      <trkpt lat="47.86075" lon="-2.50553">
        <ele>71</ele>
        <time>2023-07-22T13:59:00.443Z</time>
      </trkpt>
      <trkpt lat="47.86075" lon="-2.50553">
        <ele>71</ele>
        <time>2023-07-22T13:59:01.443Z</time>
      </trkpt>
      <trkpt lat="47.86074" lon="-2.50553">
        <ele>71</ele>
        <time>2023-07-22T13:59:02.443Z</time>
      </trkpt>
      <trkpt lat="47.86074" lon="-2.50553">
        <ele>71</ele>
        <time>2023-07-22T13:59:03.567Z</time>
      </trkpt>
      <trkpt lat="47.86074" lon="-2.50552">
        <ele>71</ele>
        <time>2023-07-22T13:59:04.568Z</time>
      </trkpt>
      <trkpt lat="47.86074" lon="-2.50552">
        <ele>71</ele>
        <time>2023-07-22T13:59:05.567Z</time>
      </trkpt>
      <trkpt lat="47.86074" lon="-2.50552">
        <ele>71</ele>
        <time>2023-07-22T13:59:06.567Z</time>
      </trkpt>
      <trkpt lat="47.86074" lon="-2.50552">
        <ele>70</ele>
        <time>2023-07-22T13:59:07.567Z</time>
      </trkpt>
      <trkpt lat="47.86074" lon="-2.50552">
        <ele>70</ele>
        <time>2023-07-22T13:59:08.567Z</time>
      </trkpt>
      <trkpt lat="47.86074" lon="-2.50552">
        <ele>70</ele>
        <time>2023-07-22T13:59:09.567Z</time>
      </trkpt>
      <trkpt lat="47.86073" lon="-2.50552">
        <ele>66</ele>
        <time>2023-07-22T13:59:39.067Z</time>
      </trkpt>
      <trkpt lat="47.86073" lon="-2.50552">
        <ele>66</ele>
        <time>2023-07-22T13:59:40.068Z</time>
      </trkpt>
      <trkpt lat="47.86073" lon="-2.50553">
        <ele>66</ele>
        <time>2023-07-22T13:59:41.068Z</time>
      </trkpt>
      <trkpt lat="47.86073" lon="-2.50553">
        <ele>66</ele>
        <time>2023-07-22T13:59:42.068Z</time>
      </trkpt>
      <trkpt lat="47.86073" lon="-2.50552">
        <ele>66</ele>
        <time>2023-07-22T13:59:43.067Z</time>
      </trkpt>
      <trkpt lat="47.86073" lon="-2.50552">
        <ele>66</ele>
        <time>2023-07-22T13:59:43.943Z</time>
      </trkpt>
      <trkpt lat="47.86073" lon="-2.50553">
        <ele>66</ele>
        <time>2023-07-22T13:59:44.943Z</time>
      </trkpt>
      <trkpt lat="47.86073" lon="-2.50554">
        <ele>66</ele>
        <time>2023-07-22T13:59:45.943Z</time>
      </trkpt>
      <trkpt lat="47.86073" lon="-2.50554">
        <ele>66</ele>
        <time>2023-07-22T13:59:47.068Z</time>
      </trkpt>
      <trkpt lat="47.86074" lon="-2.50555">
        <ele>66</ele>
        <time>2023-07-22T13:59:48.067Z</time>
      </trkpt>
      <trkpt lat="47.86075" lon="-2.50556">
        <ele>67</ele>
        <time>2023-07-22T13:59:49.068Z</time>
      </trkpt>
      <trkpt lat="47.86076" lon="-2.50557">
        <ele>67</ele>
        <time>2023-07-22T13:59:50.067Z</time>
      </trkpt>
      <trkpt lat="47.86077" lon="-2.50558">
        <ele>67</ele>
        <time>2023-07-22T13:59:51.067Z</time>
      </trkpt>
      <trkpt lat="47.86078" lon="-2.5056">
        <ele>67</ele>
        <time>2023-07-22T13:59:52.068Z</time>
      </trkpt>
      <trkpt lat="47.86078" lon="-2.50562">
        <ele>67</ele>
        <time>2023-07-22T13:59:52.943Z</time>
      </trkpt>
      <trkpt lat="47.86079" lon="-2.50563">
        <ele>67</ele>
        <time>2023-07-22T13:59:54.067Z</time>
      </trkpt>
      <trkpt lat="47.8608" lon="-2.50564">
        <ele>67</ele>
        <time>2023-07-22T13:59:55.067Z</time>
      </trkpt>
      <trkpt lat="47.86081" lon="-2.50566">
        <ele>67</ele>
        <time>2023-07-22T13:59:55.943Z</time>
      </trkpt>
      <trkpt lat="47.86081" lon="-2.50567">
        <ele>68</ele>
        <time>2023-07-22T13:59:57.067Z</time>
      </trkpt>
      <trkpt lat="47.86081" lon="-2.50567">
        <ele>68</ele>
        <time>2023-07-22T13:59:58.067Z</time>
      </trkpt>
      <trkpt lat="47.86082" lon="-2.50569">
        <ele>68</ele>
        <time>2023-07-22T13:59:59.068Z</time>
      </trkpt>
      <trkpt lat="47.86082" lon="-2.50571">
        <ele>68</ele>
        <time>2023-07-22T13:59:59.943Z</time>
      </trkpt>
      <trkpt lat="47.86083" lon="-2.50573">
        <ele>68</ele>
        <time>2023-07-22T14:00:01.067Z</time>
      </trkpt>
      <trkpt lat="47.86084" lon="-2.50575">
        <ele>67</ele>
        <time>2023-07-22T14:00:02.068Z</time>
      </trkpt>
      <trkpt lat="47.86085" lon="-2.50578">
        <ele>67</ele>
        <time>2023-07-22T14:00:02.943Z</time>
      </trkpt>
      <trkpt lat="47.86085" lon="-2.50581">
        <ele>67</ele>
        <time>2023-07-22T14:00:04.067Z</time>
      </trkpt>
      <trkpt lat="47.86087" lon="-2.50584">
        <ele>67</ele>
        <time>2023-07-22T14:00:05.067Z</time>
      </trkpt>
      <trkpt lat="47.86087" lon="-2.50585">
        <ele>66</ele>
        <time>2023-07-22T14:00:05.943Z</time>
      </trkpt>
      <trkpt lat="47.86088" lon="-2.50587">
        <ele>66</ele>
        <time>2023-07-22T14:00:07.068Z</time>
      </trkpt>
      <trkpt lat="47.86088" lon="-2.50588">
        <ele>66</ele>
        <time>2023-07-22T14:00:08.067Z</time>
      </trkpt>
      <trkpt lat="47.86088" lon="-2.50589">
        <ele>66</ele>
        <time>2023-07-22T14:00:09.067Z</time>
      </trkpt>
      <trkpt lat="47.8609" lon="-2.5059">
        <ele>66</ele>
        <time>2023-07-22T14:00:10.067Z</time>
      </trkpt>
      <trkpt lat="47.86092" lon="-2.50591">
        <ele>66</ele>
        <time>2023-07-22T14:00:10.943Z</time>
      </trkpt>
      <trkpt lat="47.86093" lon="-2.50592">
        <ele>66</ele>
        <time>2023-07-22T14:00:12.067Z</time>
      </trkpt>
      <trkpt lat="47.86095" lon="-2.50593">
        <ele>65</ele>
        <time>2023-07-22T14:00:12.943Z</time>
      </trkpt>
      <trkpt lat="47.86095" lon="-2.50594">
        <ele>65</ele>
        <time>2023-07-22T14:00:13.943Z</time>
      </trkpt>
      <trkpt lat="47.86096" lon="-2.50595">
        <ele>65</ele>
        <time>2023-07-22T14:00:15.067Z</time>
      </trkpt>
      <trkpt lat="47.86097" lon="-2.50596">
        <ele>65</ele>
        <time>2023-07-22T14:00:16.068Z</time>
      </trkpt>
      <trkpt lat="47.86098" lon="-2.50598">
        <ele>66</ele>
        <time>2023-07-22T14:00:17.067Z</time>
      </trkpt>
      <trkpt lat="47.86098" lon="-2.50599">
        <ele>66</ele>
        <time>2023-07-22T14:00:18.067Z</time>
      </trkpt>
      <trkpt lat="47.86098" lon="-2.50601">
        <ele>66</ele>
        <time>2023-07-22T14:00:19.067Z</time>
      </trkpt>
      <trkpt lat="47.86099" lon="-2.50602">
        <ele>67</ele>
        <time>2023-07-22T14:00:20.067Z</time>
      </trkpt>
      <trkpt lat="47.86099" lon="-2.50603">
        <ele>67</ele>
        <time>2023-07-22T14:00:21.067Z</time>
      </trkpt>
      <trkpt lat="47.861" lon="-2.50604">
        <ele>67</ele>
        <time>2023-07-22T14:00:21.943Z</time>
      </trkpt>
      <trkpt lat="47.861" lon="-2.50607">
        <ele>67</ele>
        <time>2023-07-22T14:00:22.943Z</time>
      </trkpt>
      <trkpt lat="47.861" lon="-2.50609">
        <ele>67</ele>
        <time>2023-07-22T14:00:23.943Z</time>
      </trkpt>
      <trkpt lat="47.861" lon="-2.5061">
        <ele>67</ele>
        <time>2023-07-22T14:00:24.943Z</time>
      </trkpt>
      <trkpt lat="47.861" lon="-2.50611">
        <ele>67</ele>
        <time>2023-07-22T14:00:25.943Z</time>
      </trkpt>
      <trkpt lat="47.861" lon="-2.50611">
        <ele>67</ele>
        <time>2023-07-22T14:00:26.943Z</time>
      </trkpt>
      <trkpt lat="47.861" lon="-2.50612">
        <ele>67</ele>
        <time>2023-07-22T14:00:27.943Z</time>
      </trkpt>
      <trkpt lat="47.861" lon="-2.50613">
        <ele>68</ele>
        <time>2023-07-22T14:00:29.067Z</time>
      </trkpt>
      <trkpt lat="47.861" lon="-2.50614">
        <ele>68</ele>
        <time>2023-07-22T14:00:30.067Z</time>
      </trkpt>
      <trkpt lat="47.861" lon="-2.50615">
        <ele>68</ele>
        <time>2023-07-22T14:00:31.067Z</time>
      </trkpt>
      <trkpt lat="47.861" lon="-2.50616">
        <ele>68</ele>
        <time>2023-07-22T14:00:32.067Z</time>
      </trkpt>
      <trkpt lat="47.861" lon="-2.50617">
        <ele>68</ele>
        <time>2023-07-22T14:00:33.067Z</time>
      </trkpt>
      <trkpt lat="47.861" lon="-2.50618">
        <ele>68</ele>
        <time>2023-07-22T14:00:33.943Z</time>
      </trkpt>
      <trkpt lat="47.861" lon="-2.50619">
        <ele>69</ele>
        <time>2023-07-22T14:00:35.067Z</time>
      </trkpt>
      <trkpt lat="47.861" lon="-2.5062">
        <ele>69</ele>
        <time>2023-07-22T14:00:35.943Z</time>
      </trkpt>
      <trkpt lat="47.86099" lon="-2.5062">
        <ele>69</ele>
        <time>2023-07-22T14:00:37.068Z</time>
      </trkpt>
      <trkpt lat="47.86099" lon="-2.5062">
        <ele>70</ele>
        <time>2023-07-22T14:00:37.943Z</time>
      </trkpt>
      <trkpt lat="47.86099" lon="-2.5062">
        <ele>70</ele>
        <time>2023-07-22T14:00:39.068Z</time>
      </trkpt>
      <trkpt lat="47.86098" lon="-2.5062">
        <ele>70</ele>
        <time>2023-07-22T14:00:40.067Z</time>
      </trkpt>
      <trkpt lat="47.86098" lon="-2.5062">
        <ele>70</ele>
        <time>2023-07-22T14:00:40.943Z</time>
      </trkpt>
      <trkpt lat="47.86097" lon="-2.50621">
        <ele>71</ele>
        <time>2023-07-22T14:00:42.067Z</time>
      </trkpt>
      <trkpt lat="47.86097" lon="-2.50623">
        <ele>71</ele>
        <time>2023-07-22T14:00:43.067Z</time>
      </trkpt>
      <trkpt lat="47.86097" lon="-2.50625">
        <ele>71</ele>
        <time>2023-07-22T14:00:43.943Z</time>
      </trkpt>
      <trkpt lat="47.86097" lon="-2.50627">
        <ele>72</ele>
        <time>2023-07-22T14:00:44.943Z</time>
      </trkpt>
      <trkpt lat="47.86097" lon="-2.50628">
        <ele>72</ele>
        <time>2023-07-22T14:00:46.068Z</time>
      </trkpt>
      <trkpt lat="47.86097" lon="-2.5063">
        <ele>72</ele>
        <time>2023-07-22T14:00:47.067Z</time>
      </trkpt>
      <trkpt lat="47.86098" lon="-2.50631">
        <ele>72</ele>
        <time>2023-07-22T14:00:48.067Z</time>
      </trkpt>
      <trkpt lat="47.86098" lon="-2.50631">
        <ele>72</ele>
        <time>2023-07-22T14:00:48.943Z</time>
      </trkpt>
      <trkpt lat="47.86098" lon="-2.50632">
        <ele>73</ele>
        <time>2023-07-22T14:00:50.067Z</time>
      </trkpt>
      <trkpt lat="47.86098" lon="-2.50634">
        <ele>73</ele>
        <time>2023-07-22T14:00:51.067Z</time>
      </trkpt>
      <trkpt lat="47.86098" lon="-2.50636">
        <ele>73</ele>
        <time>2023-07-22T14:00:52.067Z</time>
      </trkpt>
      <trkpt lat="47.86098" lon="-2.50638">
        <ele>72</ele>
        <time>2023-07-22T14:00:53.067Z</time>
      </trkpt>
      <trkpt lat="47.86099" lon="-2.5064">
        <ele>72</ele>
        <time>2023-07-22T14:00:53.943Z</time>
      </trkpt>
      <trkpt lat="47.86099" lon="-2.50641">
        <ele>72</ele>
        <time>2023-07-22T14:00:55.067Z</time>
      </trkpt>
      <trkpt lat="47.86099" lon="-2.50643">
        <ele>72</ele>
        <time>2023-07-22T14:00:56.067Z</time>
      </trkpt>
      <trkpt lat="47.86099" lon="-2.50645">
        <ele>72</ele>
        <time>2023-07-22T14:00:57.067Z</time>
      </trkpt>
      <trkpt lat="47.86099" lon="-2.50647">
        <ele>72</ele>
        <time>2023-07-22T14:00:58.067Z</time>
      </trkpt>
      <trkpt lat="47.86099" lon="-2.50649">
        <ele>72</ele>
        <time>2023-07-22T14:00:59.068Z</time>
      </trkpt>
      <trkpt lat="47.86098" lon="-2.50651">
        <ele>72</ele>
        <time>2023-07-22T14:01:00.068Z</time>
      </trkpt>
      <trkpt lat="47.86098" lon="-2.50654">
        <ele>72</ele>
        <time>2023-07-22T14:01:00.943Z</time>
      </trkpt>
      <trkpt lat="47.86098" lon="-2.50656">
        <ele>72</ele>
        <time>2023-07-22T14:01:02.067Z</time>
      </trkpt>
      <trkpt lat="47.86098" lon="-2.50657">
        <ele>72</ele>
        <time>2023-07-22T14:01:03.067Z</time>
      </trkpt>
      <trkpt lat="47.86098" lon="-2.50659">
        <ele>72</ele>
        <time>2023-07-22T14:01:03.943Z</time>
      </trkpt>
      <trkpt lat="47.86098" lon="-2.50661">
        <ele>72</ele>
        <time>2023-07-22T14:01:05.067Z</time>
      </trkpt>
      <trkpt lat="47.86099" lon="-2.50664">
        <ele>72</ele>
        <time>2023-07-22T14:01:06.067Z</time>
      </trkpt>
      <trkpt lat="47.86099" lon="-2.50666">
        <ele>72</ele>
        <time>2023-07-22T14:01:07.067Z</time>
      </trkpt>
      <trkpt lat="47.86099" lon="-2.50669">
        <ele>72</ele>
        <time>2023-07-22T14:01:08.068Z</time>
      </trkpt>
      <trkpt lat="47.86098" lon="-2.50671">
        <ele>71</ele>
        <time>2023-07-22T14:01:09.068Z</time>
      </trkpt>
      <trkpt lat="47.86098" lon="-2.50673">
        <ele>71</ele>
        <time>2023-07-22T14:01:09.943Z</time>
      </trkpt>
      <trkpt lat="47.86098" lon="-2.50675">
        <ele>71</ele>
        <time>2023-07-22T14:01:11.067Z</time>
      </trkpt>
      <trkpt lat="47.86098" lon="-2.50677">
        <ele>71</ele>
        <time>2023-07-22T14:01:12.067Z</time>
      </trkpt>
      <trkpt lat="47.86097" lon="-2.50678">
        <ele>71</ele>
        <time>2023-07-22T14:01:13.067Z</time>
      </trkpt>
      <trkpt lat="47.86096" lon="-2.5068">
        <ele>71</ele>
        <time>2023-07-22T14:01:14.067Z</time>
      </trkpt>
      <trkpt lat="47.86096" lon="-2.50681">
        <ele>71</ele>
        <time>2023-07-22T14:01:15.067Z</time>
      </trkpt>
      <trkpt lat="47.86095" lon="-2.50683">
        <ele>71</ele>
        <time>2023-07-22T14:01:15.943Z</time>
      </trkpt>
      <trkpt lat="47.86094" lon="-2.50686">
        <ele>71</ele>
        <time>2023-07-22T14:01:17.067Z</time>
      </trkpt>
      <trkpt lat="47.86093" lon="-2.50688">
        <ele>71</ele>
        <time>2023-07-22T14:01:18.067Z</time>
      </trkpt>
      <trkpt lat="47.86093" lon="-2.50691">
        <ele>71</ele>
        <time>2023-07-22T14:01:19.068Z</time>
      </trkpt>
      <trkpt lat="47.86092" lon="-2.50693">
        <ele>71</ele>
        <time>2023-07-22T14:01:20.067Z</time>
      </trkpt>
      <trkpt lat="47.86091" lon="-2.50695">
        <ele>71</ele>
        <time>2023-07-22T14:01:20.943Z</time>
      </trkpt>
      <trkpt lat="47.8609" lon="-2.50697">
        <ele>71</ele>
        <time>2023-07-22T14:01:22.068Z</time>
      </trkpt>
      <trkpt lat="47.86091" lon="-2.50699">
        <ele>71</ele>
        <time>2023-07-22T14:01:23.067Z</time>
      </trkpt>
      <trkpt lat="47.86091" lon="-2.507">
        <ele>71</ele>
        <time>2023-07-22T14:01:24.067Z</time>
      </trkpt>
      <trkpt lat="47.86091" lon="-2.50701">
        <ele>71</ele>
        <time>2023-07-22T14:01:25.067Z</time>
      </trkpt>
      <trkpt lat="47.86091" lon="-2.50702">
        <ele>71</ele>
        <time>2023-07-22T14:01:26.067Z</time>
      </trkpt>
      <trkpt lat="47.8609" lon="-2.50703">
        <ele>71</ele>
        <time>2023-07-22T14:01:26.943Z</time>
      </trkpt>
      <trkpt lat="47.8609" lon="-2.50705">
        <ele>71</ele>
        <time>2023-07-22T14:01:28.067Z</time>
      </trkpt>
      <trkpt lat="47.8609" lon="-2.50706">
        <ele>70</ele>
        <time>2023-07-22T14:01:28.943Z</time>
      </trkpt>
      <trkpt lat="47.86089" lon="-2.50708">
        <ele>70</ele>
        <time>2023-07-22T14:01:29.943Z</time>
      </trkpt>
      <trkpt lat="47.86088" lon="-2.5071">
        <ele>70</ele>
        <time>2023-07-22T14:01:30.943Z</time>
      </trkpt>
      <trkpt lat="47.86086" lon="-2.50712">
        <ele>70</ele>
        <time>2023-07-22T14:01:32.067Z</time>
      </trkpt>
      <trkpt lat="47.86085" lon="-2.50714">
        <ele>70</ele>
        <time>2023-07-22T14:01:32.943Z</time>
      </trkpt>
      <trkpt lat="47.86085" lon="-2.50715">
        <ele>70</ele>
        <time>2023-07-22T14:01:34.067Z</time>
      </trkpt>
      <trkpt lat="47.86085" lon="-2.50717">
        <ele>70</ele>
        <time>2023-07-22T14:01:34.943Z</time>
      </trkpt>
      <trkpt lat="47.86085" lon="-2.50719">
        <ele>70</ele>
        <time>2023-07-22T14:01:36.067Z</time>
      </trkpt>
      <trkpt lat="47.86085" lon="-2.5072">
        <ele>70</ele>
        <time>2023-07-22T14:01:36.943Z</time>
      </trkpt>
      <trkpt lat="47.86086" lon="-2.50721">
        <ele>70</ele>
        <time>2023-07-22T14:01:37.943Z</time>
      </trkpt>
      <trkpt lat="47.86086" lon="-2.50724">
        <ele>70</ele>
        <time>2023-07-22T14:01:38.943Z</time>
      </trkpt>
      <trkpt lat="47.86087" lon="-2.50726">
        <ele>70</ele>
        <time>2023-07-22T14:01:40.067Z</time>
      </trkpt>
      <trkpt lat="47.86087" lon="-2.50727">
        <ele>71</ele>
        <time>2023-07-22T14:01:41.068Z</time>
      </trkpt>
      <trkpt lat="47.86087" lon="-2.50729">
        <ele>71</ele>
        <time>2023-07-22T14:01:41.943Z</time>
      </trkpt>
      <trkpt lat="47.86087" lon="-2.50732">
        <ele>71</ele>
        <time>2023-07-22T14:01:43.068Z</time>
      </trkpt>
      <trkpt lat="47.86087" lon="-2.50734">
        <ele>72</ele>
        <time>2023-07-22T14:01:43.943Z</time>
      </trkpt>
      <trkpt lat="47.86087" lon="-2.50736">
        <ele>72</ele>
        <time>2023-07-22T14:01:45.068Z</time>
      </trkpt>
      <trkpt lat="47.86087" lon="-2.50738">
        <ele>72</ele>
        <time>2023-07-22T14:01:46.068Z</time>
      </trkpt>
      <trkpt lat="47.86087" lon="-2.50739">
        <ele>73</ele>
        <time>2023-07-22T14:01:47.068Z</time>
      </trkpt>
      <trkpt lat="47.86088" lon="-2.50741">
        <ele>73</ele>
        <time>2023-07-22T14:01:48.067Z</time>
      </trkpt>
      <trkpt lat="47.86088" lon="-2.50742">
        <ele>74</ele>
        <time>2023-07-22T14:01:49.068Z</time>
      </trkpt>
      <trkpt lat="47.86088" lon="-2.50743">
        <ele>75</ele>
        <time>2023-07-22T14:01:50.067Z</time>
      </trkpt>
      <trkpt lat="47.86088" lon="-2.50744">
        <ele>75</ele>
        <time>2023-07-22T14:01:51.068Z</time>
      </trkpt>
      <trkpt lat="47.86088" lon="-2.50745">
        <ele>75</ele>
        <time>2023-07-22T14:01:52.067Z</time>
      </trkpt>
      <trkpt lat="47.86088" lon="-2.50745">
        <ele>75</ele>
        <time>2023-07-22T14:01:53.068Z</time>
      </trkpt>
      <trkpt lat="47.86088" lon="-2.50745">
        <ele>76</ele>
        <time>2023-07-22T14:01:53.943Z</time>
      </trkpt>
      <trkpt lat="47.86088" lon="-2.50746">
        <ele>76</ele>
        <time>2023-07-22T14:01:54.943Z</time>
      </trkpt>
      <trkpt lat="47.86087" lon="-2.50748">
        <ele>76</ele>
        <time>2023-07-22T14:01:56.067Z</time>
      </trkpt>
      <trkpt lat="47.86087" lon="-2.50749">
        <ele>76</ele>
        <time>2023-07-22T14:01:57.067Z</time>
      </trkpt>
      <trkpt lat="47.86087" lon="-2.50749">
        <ele>77</ele>
        <time>2023-07-22T14:01:58.067Z</time>
      </trkpt>
      <trkpt lat="47.86087" lon="-2.5075">
        <ele>77</ele>
        <time>2023-07-22T14:01:59.067Z</time>
      </trkpt>
      <trkpt lat="47.86086" lon="-2.50751">
        <ele>78</ele>
        <time>2023-07-22T14:02:00.067Z</time>
      </trkpt>
      <trkpt lat="47.86086" lon="-2.50753">
        <ele>78</ele>
        <time>2023-07-22T14:02:01.067Z</time>
      </trkpt>
      <trkpt lat="47.86086" lon="-2.50754">
        <ele>79</ele>
        <time>2023-07-22T14:02:02.067Z</time>
      </trkpt>
      <trkpt lat="47.86086" lon="-2.50754">
        <ele>79</ele>
        <time>2023-07-22T14:02:02.943Z</time>
      </trkpt>
      <trkpt lat="47.86087" lon="-2.50755">
        <ele>80</ele>
        <time>2023-07-22T14:02:04.067Z</time>
      </trkpt>
      <trkpt lat="47.86088" lon="-2.50756">
        <ele>80</ele>
        <time>2023-07-22T14:02:05.067Z</time>
      </trkpt>
      <trkpt lat="47.86088" lon="-2.50758">
        <ele>80</ele>
        <time>2023-07-22T14:02:06.067Z</time>
      </trkpt>
      <trkpt lat="47.86088" lon="-2.50759">
        <ele>79</ele>
        <time>2023-07-22T14:02:07.067Z</time>
      </trkpt>
      <trkpt lat="47.86089" lon="-2.50761">
        <ele>79</ele>
        <time>2023-07-22T14:02:08.068Z</time>
      </trkpt>
      <trkpt lat="47.8609" lon="-2.50762">
        <ele>78</ele>
        <time>2023-07-22T14:02:09.067Z</time>
      </trkpt>
      <trkpt lat="47.8609" lon="-2.50763">
        <ele>78</ele>
        <time>2023-07-22T14:02:10.068Z</time>
      </trkpt>
      <trkpt lat="47.86091" lon="-2.50765">
        <ele>77</ele>
        <time>2023-07-22T14:02:11.067Z</time>
      </trkpt>
      <trkpt lat="47.86091" lon="-2.50766">
        <ele>77</ele>
        <time>2023-07-22T14:02:12.067Z</time>
      </trkpt>
      <trkpt lat="47.86092" lon="-2.50767">
        <ele>77</ele>
        <time>2023-07-22T14:02:13.068Z</time>
      </trkpt>
      <trkpt lat="47.86092" lon="-2.50769">
        <ele>77</ele>
        <time>2023-07-22T14:02:14.068Z</time>
      </trkpt>
      <trkpt lat="47.86092" lon="-2.5077">
        <ele>76</ele>
        <time>2023-07-22T14:02:15.068Z</time>
      </trkpt>
      <trkpt lat="47.86093" lon="-2.50772">
        <ele>76</ele>
        <time>2023-07-22T14:02:16.067Z</time>
      </trkpt>
      <trkpt lat="47.86093" lon="-2.50774">
        <ele>76</ele>
        <time>2023-07-22T14:02:17.068Z</time>
      </trkpt>
      <trkpt lat="47.86093" lon="-2.50775">
        <ele>76</ele>
        <time>2023-07-22T14:02:17.943Z</time>
      </trkpt>
      <trkpt lat="47.86094" lon="-2.50777">
        <ele>75</ele>
        <time>2023-07-22T14:02:18.943Z</time>
      </trkpt>
      <trkpt lat="47.86094" lon="-2.50778">
        <ele>75</ele>
        <time>2023-07-22T14:02:20.068Z</time>
      </trkpt>
      <trkpt lat="47.86094" lon="-2.5078">
        <ele>75</ele>
        <time>2023-07-22T14:02:21.068Z</time>
      </trkpt>
      <trkpt lat="47.86094" lon="-2.50781">
        <ele>75</ele>
        <time>2023-07-22T14:02:22.067Z</time>
      </trkpt>
      <trkpt lat="47.86095" lon="-2.50783">
        <ele>76</ele>
        <time>2023-07-22T14:02:22.943Z</time>
      </trkpt>
      <trkpt lat="47.86095" lon="-2.50784">
        <ele>76</ele>
        <time>2023-07-22T14:02:23.943Z</time>
      </trkpt>
      <trkpt lat="47.86095" lon="-2.50786">
        <ele>76</ele>
        <time>2023-07-22T14:02:25.067Z</time>
      </trkpt>
      <trkpt lat="47.86096" lon="-2.50787">
        <ele>76</ele>
        <time>2023-07-22T14:02:25.943Z</time>
      </trkpt>
      <trkpt lat="47.86096" lon="-2.50789">
        <ele>76</ele>
        <time>2023-07-22T14:02:27.067Z</time>
      </trkpt>
      <trkpt lat="47.86097" lon="-2.5079">
        <ele>76</ele>
        <time>2023-07-22T14:02:28.067Z</time>
      </trkpt>
      <trkpt lat="47.86097" lon="-2.50792">
        <ele>76</ele>
        <time>2023-07-22T14:02:28.943Z</time>
      </trkpt>
      <trkpt lat="47.86097" lon="-2.50794">
        <ele>76</ele>
        <time>2023-07-22T14:02:30.067Z</time>
      </trkpt>
      <trkpt lat="47.86097" lon="-2.50795">
        <ele>76</ele>
        <time>2023-07-22T14:02:31.068Z</time>
      </trkpt>
      <trkpt lat="47.86097" lon="-2.50796">
        <ele>77</ele>
        <time>2023-07-22T14:02:32.068Z</time>
      </trkpt>
      <trkpt lat="47.86097" lon="-2.50797">
        <ele>77</ele>
        <time>2023-07-22T14:02:33.068Z</time>
      </trkpt>
      <trkpt lat="47.86099" lon="-2.508">
        <ele>77</ele>
        <time>2023-07-22T14:02:34.067Z</time>
      </trkpt>
      <trkpt lat="47.86099" lon="-2.50802">
        <ele>77</ele>
        <time>2023-07-22T14:02:35.067Z</time>
      </trkpt>
      <trkpt lat="47.86099" lon="-2.50803">
        <ele>77</ele>
        <time>2023-07-22T14:02:36.068Z</time>
      </trkpt>
      <trkpt lat="47.861" lon="-2.50805">
        <ele>77</ele>
        <time>2023-07-22T14:02:37.067Z</time>
      </trkpt>
      <trkpt lat="47.86099" lon="-2.50808">
        <ele>77</ele>
        <time>2023-07-22T14:02:38.068Z</time>
      </trkpt>
      <trkpt lat="47.86099" lon="-2.50811">
        <ele>77</ele>
        <time>2023-07-22T14:02:38.943Z</time>
      </trkpt>
      <trkpt lat="47.861" lon="-2.50812">
        <ele>77</ele>
        <time>2023-07-22T14:02:40.067Z</time>
      </trkpt>
      <trkpt lat="47.861" lon="-2.50812">
        <ele>77</ele>
        <time>2023-07-22T14:02:40.943Z</time>
      </trkpt>
      <trkpt lat="47.861" lon="-2.50812">
        <ele>77</ele>
        <time>2023-07-22T14:02:41.943Z</time>
      </trkpt>
      <trkpt lat="47.861" lon="-2.50812">
        <ele>77</ele>
        <time>2023-07-22T14:02:43.067Z</time>
      </trkpt>
      <trkpt lat="47.86099" lon="-2.50815">
        <ele>77</ele>
        <time>2023-07-22T14:02:51.118Z</time>
      </trkpt>
      <trkpt lat="47.86099" lon="-2.50816">
        <ele>77</ele>
        <time>2023-07-22T14:02:52.118Z</time>
      </trkpt>
      <trkpt lat="47.86099" lon="-2.50817">
        <ele>77</ele>
        <time>2023-07-22T14:02:52.993Z</time>
      </trkpt>
      <trkpt lat="47.86098" lon="-2.50818">
        <ele>77</ele>
        <time>2023-07-22T14:02:53.993Z</time>
      </trkpt>
      <trkpt lat="47.86098" lon="-2.5082">
        <ele>77</ele>
        <time>2023-07-22T14:02:54.993Z</time>
      </trkpt>
      <trkpt lat="47.86098" lon="-2.50822">
        <ele>77</ele>
        <time>2023-07-22T14:02:56.118Z</time>
      </trkpt>
      <trkpt lat="47.86098" lon="-2.50823">
        <ele>78</ele>
        <time>2023-07-22T14:02:57.117Z</time>
      </trkpt>
      <trkpt lat="47.86099" lon="-2.50825">
        <ele>78</ele>
        <time>2023-07-22T14:02:58.118Z</time>
      </trkpt>
      <trkpt lat="47.86099" lon="-2.50827">
        <ele>79</ele>
        <time>2023-07-22T14:02:59.118Z</time>
      </trkpt>
      <trkpt lat="47.86099" lon="-2.50828">
        <ele>79</ele>
        <time>2023-07-22T14:03:00.117Z</time>
      </trkpt>
      <trkpt lat="47.861" lon="-2.5083">
        <ele>80</ele>
        <time>2023-07-22T14:03:01.118Z</time>
      </trkpt>
      <trkpt lat="47.861" lon="-2.50831">
        <ele>81</ele>
        <time>2023-07-22T14:03:01.993Z</time>
      </trkpt>
      <trkpt lat="47.86101" lon="-2.50833">
        <ele>81</ele>
        <time>2023-07-22T14:03:03.117Z</time>
      </trkpt>
      <trkpt lat="47.86101" lon="-2.50835">
        <ele>81</ele>
        <time>2023-07-22T14:03:04.118Z</time>
      </trkpt>
      <trkpt lat="47.86102" lon="-2.50837">
        <ele>81</ele>
        <time>2023-07-22T14:03:04.993Z</time>
      </trkpt>
      <trkpt lat="47.86102" lon="-2.50839">
        <ele>82</ele>
        <time>2023-07-22T14:03:06.118Z</time>
      </trkpt>
      <trkpt lat="47.86103" lon="-2.50841">
        <ele>82</ele>
        <time>2023-07-22T14:03:07.118Z</time>
      </trkpt>
      <trkpt lat="47.86103" lon="-2.50842">
        <ele>82</ele>
        <time>2023-07-22T14:03:08.118Z</time>
      </trkpt>
      <trkpt lat="47.86104" lon="-2.50844">
        <ele>82</ele>
        <time>2023-07-22T14:03:09.117Z</time>
      </trkpt>
      <trkpt lat="47.86104" lon="-2.50846">
        <ele>82</ele>
        <time>2023-07-22T14:03:10.117Z</time>
      </trkpt>
      <trkpt lat="47.86103" lon="-2.50847">
        <ele>83</ele>
        <time>2023-07-22T14:03:10.993Z</time>
      </trkpt>
      <trkpt lat="47.86104" lon="-2.50848">
        <ele>83</ele>
        <time>2023-07-22T14:03:11.993Z</time>
      </trkpt>
      <trkpt lat="47.86104" lon="-2.50849">
        <ele>83</ele>
        <time>2023-07-22T14:03:12.993Z</time>
      </trkpt>
      <trkpt lat="47.86105" lon="-2.50851">
        <ele>83</ele>
        <time>2023-07-22T14:03:14.117Z</time>
      </trkpt>
      <trkpt lat="47.86105" lon="-2.50852">
        <ele>83</ele>
        <time>2023-07-22T14:03:15.118Z</time>
      </trkpt>
      <trkpt lat="47.86105" lon="-2.50854">
        <ele>84</ele>
        <time>2023-07-22T14:03:15.993Z</time>
      </trkpt>
      <trkpt lat="47.86106" lon="-2.50856">
        <ele>84</ele>
        <time>2023-07-22T14:03:17.117Z</time>
      </trkpt>
      <trkpt lat="47.86106" lon="-2.50857">
        <ele>84</ele>
        <time>2023-07-22T14:03:18.117Z</time>
      </trkpt>
      <trkpt lat="47.86107" lon="-2.5086">
        <ele>84</ele>
        <time>2023-07-22T14:03:18.993Z</time>
      </trkpt>
      <trkpt lat="47.86108" lon="-2.50862">
        <ele>83</ele>
        <time>2023-07-22T14:03:20.117Z</time>
      </trkpt>
      <trkpt lat="47.86108" lon="-2.50863">
        <ele>83</ele>
        <time>2023-07-22T14:03:20.993Z</time>
      </trkpt>
      <trkpt lat="47.86109" lon="-2.50865">
        <ele>83</ele>
        <time>2023-07-22T14:03:21.993Z</time>
      </trkpt>
      <trkpt lat="47.86109" lon="-2.50867">
        <ele>82</ele>
        <time>2023-07-22T14:03:22.993Z</time>
      </trkpt>
      <trkpt lat="47.8611" lon="-2.50868">
        <ele>82</ele>
        <time>2023-07-22T14:03:23.993Z</time>
      </trkpt>
      <trkpt lat="47.86111" lon="-2.5087">
        <ele>82</ele>
        <time>2023-07-22T14:03:24.993Z</time>
      </trkpt>
      <trkpt lat="47.86112" lon="-2.50871">
        <ele>82</ele>
        <time>2023-07-22T14:03:26.118Z</time>
      </trkpt>
      <trkpt lat="47.86113" lon="-2.50872">
        <ele>82</ele>
        <time>2023-07-22T14:03:27.117Z</time>
      </trkpt>
      <trkpt lat="47.86115" lon="-2.50873">
        <ele>82</ele>
        <time>2023-07-22T14:03:28.117Z</time>
      </trkpt>
      <trkpt lat="47.86116" lon="-2.50875">
        <ele>82</ele>
        <time>2023-07-22T14:03:29.118Z</time>
      </trkpt>
      <trkpt lat="47.86117" lon="-2.50876">
        <ele>81</ele>
        <time>2023-07-22T14:03:30.117Z</time>
      </trkpt>
      <trkpt lat="47.86118" lon="-2.50877">
        <ele>81</ele>
        <time>2023-07-22T14:03:31.118Z</time>
      </trkpt>
      <trkpt lat="47.86118" lon="-2.50879">
        <ele>80</ele>
        <time>2023-07-22T14:03:31.993Z</time>
      </trkpt>
      <trkpt lat="47.8612" lon="-2.5088">
        <ele>80</ele>
        <time>2023-07-22T14:03:33.118Z</time>
      </trkpt>
      <trkpt lat="47.86121" lon="-2.5088">
        <ele>80</ele>
        <time>2023-07-22T14:03:34.117Z</time>
      </trkpt>
      <trkpt lat="47.86122" lon="-2.50882">
        <ele>79</ele>
        <time>2023-07-22T14:03:34.993Z</time>
      </trkpt>
      <trkpt lat="47.86123" lon="-2.50882">
        <ele>79</ele>
        <time>2023-07-22T14:03:36.117Z</time>
      </trkpt>
      <trkpt lat="47.86124" lon="-2.50883">
        <ele>79</ele>
        <time>2023-07-22T14:03:37.118Z</time>
      </trkpt>
      <trkpt lat="47.86126" lon="-2.50883">
        <ele>78</ele>
        <time>2023-07-22T14:03:38.117Z</time>
      </trkpt>
      <trkpt lat="47.86127" lon="-2.50883">
        <ele>78</ele>
        <time>2023-07-22T14:03:39.117Z</time>
      </trkpt>
      <trkpt lat="47.86128" lon="-2.50884">
        <ele>78</ele>
        <time>2023-07-22T14:03:40.118Z</time>
      </trkpt>
      <trkpt lat="47.86129" lon="-2.50884">
        <ele>78</ele>
        <time>2023-07-22T14:03:40.993Z</time>
      </trkpt>
      <trkpt lat="47.86131" lon="-2.50885">
        <ele>78</ele>
        <time>2023-07-22T14:03:42.117Z</time>
      </trkpt>
      <trkpt lat="47.86132" lon="-2.50885">
        <ele>78</ele>
        <time>2023-07-22T14:03:42.993Z</time>
      </trkpt>
      <trkpt lat="47.86133" lon="-2.50885">
        <ele>78</ele>
        <time>2023-07-22T14:03:43.993Z</time>
      </trkpt>
      <trkpt lat="47.86135" lon="-2.50887">
        <ele>78</ele>
        <time>2023-07-22T14:03:45.118Z</time>
      </trkpt>
      <trkpt lat="47.86136" lon="-2.50887">
        <ele>78</ele>
        <time>2023-07-22T14:03:46.118Z</time>
      </trkpt>
      <trkpt lat="47.86137" lon="-2.50887">
        <ele>78</ele>
        <time>2023-07-22T14:03:47.118Z</time>
      </trkpt>
      <trkpt lat="47.86138" lon="-2.50888">
        <ele>78</ele>
        <time>2023-07-22T14:03:48.117Z</time>
      </trkpt>
      <trkpt lat="47.86138" lon="-2.50888">
        <ele>78</ele>
        <time>2023-07-22T14:03:49.117Z</time>
      </trkpt>
      <trkpt lat="47.86139" lon="-2.50889">
        <ele>78</ele>
        <time>2023-07-22T14:03:50.117Z</time>
      </trkpt>
      <trkpt lat="47.8614" lon="-2.5089">
        <ele>78</ele>
        <time>2023-07-22T14:03:51.117Z</time>
      </trkpt>
      <trkpt lat="47.86141" lon="-2.5089">
        <ele>78</ele>
        <time>2023-07-22T14:03:52.117Z</time>
      </trkpt>
      <trkpt lat="47.86142" lon="-2.50891">
        <ele>77</ele>
        <time>2023-07-22T14:03:53.117Z</time>
      </trkpt>
      <trkpt lat="47.86143" lon="-2.50893">
        <ele>77</ele>
        <time>2023-07-22T14:03:54.118Z</time>
      </trkpt>
      <trkpt lat="47.86144" lon="-2.50894">
        <ele>77</ele>
        <time>2023-07-22T14:03:55.117Z</time>
      </trkpt>
      <trkpt lat="47.86145" lon="-2.50895">
        <ele>77</ele>
        <time>2023-07-22T14:03:56.117Z</time>
      </trkpt>
      <trkpt lat="47.86146" lon="-2.50896">
        <ele>77</ele>
        <time>2023-07-22T14:03:56.993Z</time>
      </trkpt>
      <trkpt lat="47.86147" lon="-2.50897">
        <ele>76</ele>
        <time>2023-07-22T14:03:58.117Z</time>
      </trkpt>
      <trkpt lat="47.86148" lon="-2.50898">
        <ele>76</ele>
        <time>2023-07-22T14:03:59.118Z</time>
      </trkpt>
      <trkpt lat="47.86149" lon="-2.50899">
        <ele>76</ele>
        <time>2023-07-22T14:04:00.117Z</time>
      </trkpt>
      <trkpt lat="47.86149" lon="-2.50901">
        <ele>76</ele>
        <time>2023-07-22T14:04:01.118Z</time>
      </trkpt>
      <trkpt lat="47.8615" lon="-2.50903">
        <ele>76</ele>
        <time>2023-07-22T14:04:02.117Z</time>
      </trkpt>
      <trkpt lat="47.86151" lon="-2.50905">
        <ele>76</ele>
        <time>2023-07-22T14:04:02.993Z</time>
      </trkpt>
      <trkpt lat="47.86152" lon="-2.50906">
        <ele>76</ele>
        <time>2023-07-22T14:04:03.993Z</time>
      </trkpt>
      <trkpt lat="47.86154" lon="-2.50906">
        <ele>76</ele>
        <time>2023-07-22T14:04:04.993Z</time>
      </trkpt>
      <trkpt lat="47.86155" lon="-2.50908">
        <ele>76</ele>
        <time>2023-07-22T14:04:06.118Z</time>
      </trkpt>
      <trkpt lat="47.86157" lon="-2.50909">
        <ele>76</ele>
        <time>2023-07-22T14:04:06.993Z</time>
      </trkpt>
      <trkpt lat="47.86158" lon="-2.5091">
        <ele>76</ele>
        <time>2023-07-22T14:04:07.993Z</time>
      </trkpt>
      <trkpt lat="47.86159" lon="-2.5091">
        <ele>76</ele>
        <time>2023-07-22T14:04:09.118Z</time>
      </trkpt>
      <trkpt lat="47.8616" lon="-2.5091">
        <ele>77</ele>
        <time>2023-07-22T14:04:10.118Z</time>
      </trkpt>
      <trkpt lat="47.8616" lon="-2.50911">
        <ele>77</ele>
        <time>2023-07-22T14:04:11.117Z</time>
      </trkpt>
      <trkpt lat="47.86162" lon="-2.50911">
        <ele>77</ele>
        <time>2023-07-22T14:04:12.117Z</time>
      </trkpt>
      <trkpt lat="47.86163" lon="-2.50911">
        <ele>77</ele>
        <time>2023-07-22T14:04:12.993Z</time>
      </trkpt>
      <trkpt lat="47.86165" lon="-2.50912">
        <ele>77</ele>
        <time>2023-07-22T14:04:14.118Z</time>
      </trkpt>
      <trkpt lat="47.86166" lon="-2.50913">
        <ele>77</ele>
        <time>2023-07-22T14:04:15.117Z</time>
      </trkpt>
      <trkpt lat="47.86166" lon="-2.50914">
        <ele>77</ele>
        <time>2023-07-22T14:04:16.117Z</time>
      </trkpt>
      <trkpt lat="47.86167" lon="-2.50915">
        <ele>77</ele>
        <time>2023-07-22T14:04:17.117Z</time>
      </trkpt>
      <trkpt lat="47.86168" lon="-2.50915">
        <ele>77</ele>
        <time>2023-07-22T14:04:18.117Z</time>
      </trkpt>
      <trkpt lat="47.86169" lon="-2.50915">
        <ele>77</ele>
        <time>2023-07-22T14:04:18.993Z</time>
      </trkpt>
      <trkpt lat="47.8617" lon="-2.50915">
        <ele>77</ele>
        <time>2023-07-22T14:04:20.118Z</time>
      </trkpt>
      <trkpt lat="47.86171" lon="-2.50915">
        <ele>77</ele>
        <time>2023-07-22T14:04:21.118Z</time>
      </trkpt>
      <trkpt lat="47.86172" lon="-2.50917">
        <ele>77</ele>
        <time>2023-07-22T14:04:22.118Z</time>
      </trkpt>
      <trkpt lat="47.86173" lon="-2.50918">
        <ele>77</ele>
        <time>2023-07-22T14:04:23.117Z</time>
      </trkpt>
      <trkpt lat="47.86174" lon="-2.5092">
        <ele>77</ele>
        <time>2023-07-22T14:04:24.117Z</time>
      </trkpt>
      <trkpt lat="47.86175" lon="-2.50921">
        <ele>77</ele>
        <time>2023-07-22T14:04:25.117Z</time>
      </trkpt>
      <trkpt lat="47.86176" lon="-2.50922">
        <ele>77</ele>
        <time>2023-07-22T14:04:26.117Z</time>
      </trkpt>
      <trkpt lat="47.86177" lon="-2.50922">
        <ele>77</ele>
        <time>2023-07-22T14:04:26.993Z</time>
      </trkpt>
      <trkpt lat="47.86178" lon="-2.50922">
        <ele>78</ele>
        <time>2023-07-22T14:04:27.993Z</time>
      </trkpt>
      <trkpt lat="47.86179" lon="-2.50923">
        <ele>78</ele>
        <time>2023-07-22T14:04:28.993Z</time>
      </trkpt>
      <trkpt lat="47.86179" lon="-2.50925">
        <ele>79</ele>
        <time>2023-07-22T14:04:30.118Z</time>
      </trkpt>
      <trkpt lat="47.86179" lon="-2.50926">
        <ele>80</ele>
        <time>2023-07-22T14:04:31.118Z</time>
      </trkpt>
      <trkpt lat="47.8618" lon="-2.50928">
        <ele>80</ele>
        <time>2023-07-22T14:04:32.118Z</time>
      </trkpt>
      <trkpt lat="47.86181" lon="-2.5093">
        <ele>80</ele>
        <time>2023-07-22T14:04:32.993Z</time>
      </trkpt>
      <trkpt lat="47.86181" lon="-2.50931">
        <ele>81</ele>
        <time>2023-07-22T14:04:34.118Z</time>
      </trkpt>
      <trkpt lat="47.86182" lon="-2.50933">
        <ele>81</ele>
        <time>2023-07-22T14:04:35.118Z</time>
      </trkpt>
      <trkpt lat="47.86183" lon="-2.50934">
        <ele>81</ele>
        <time>2023-07-22T14:04:36.118Z</time>
      </trkpt>
      <trkpt lat="47.86184" lon="-2.50935">
        <ele>81</ele>
        <time>2023-07-22T14:04:37.117Z</time>
      </trkpt>
      <trkpt lat="47.86185" lon="-2.50936">
        <ele>81</ele>
        <time>2023-07-22T14:04:37.993Z</time>
      </trkpt>
      <trkpt lat="47.86185" lon="-2.50937">
        <ele>81</ele>
        <time>2023-07-22T14:04:39.117Z</time>
      </trkpt>
      <trkpt lat="47.86186" lon="-2.50938">
        <ele>81</ele>
        <time>2023-07-22T14:04:40.117Z</time>
      </trkpt>
      <trkpt lat="47.86187" lon="-2.5094">
        <ele>81</ele>
        <time>2023-07-22T14:04:41.117Z</time>
      </trkpt>
      <trkpt lat="47.86188" lon="-2.50941">
        <ele>81</ele>
        <time>2023-07-22T14:04:42.117Z</time>
      </trkpt>
      <trkpt lat="47.86189" lon="-2.50942">
        <ele>81</ele>
        <time>2023-07-22T14:04:43.117Z</time>
      </trkpt>
      <trkpt lat="47.8619" lon="-2.50944">
        <ele>80</ele>
        <time>2023-07-22T14:04:44.118Z</time>
      </trkpt>
      <trkpt lat="47.8619" lon="-2.50945">
        <ele>80</ele>
        <time>2023-07-22T14:04:45.118Z</time>
      </trkpt>
      <trkpt lat="47.86191" lon="-2.50947">
        <ele>80</ele>
        <time>2023-07-22T14:04:46.117Z</time>
      </trkpt>
      <trkpt lat="47.86192" lon="-2.50949">
        <ele>80</ele>
        <time>2023-07-22T14:04:47.117Z</time>
      </trkpt>
      <trkpt lat="47.86192" lon="-2.50952">
        <ele>80</ele>
        <time>2023-07-22T14:04:48.117Z</time>
      </trkpt>
      <trkpt lat="47.86193" lon="-2.50953">
        <ele>80</ele>
        <time>2023-07-22T14:04:49.118Z</time>
      </trkpt>
      <trkpt lat="47.86194" lon="-2.50954">
        <ele>79</ele>
        <time>2023-07-22T14:04:50.118Z</time>
      </trkpt>
      <trkpt lat="47.86195" lon="-2.50956">
        <ele>79</ele>
        <time>2023-07-22T14:04:50.993Z</time>
      </trkpt>
      <trkpt lat="47.86196" lon="-2.50956">
        <ele>79</ele>
        <time>2023-07-22T14:04:52.118Z</time>
      </trkpt>
      <trkpt lat="47.86197" lon="-2.50957">
        <ele>79</ele>
        <time>2023-07-22T14:04:52.993Z</time>
      </trkpt>
      <trkpt lat="47.86198" lon="-2.50959">
        <ele>79</ele>
        <time>2023-07-22T14:04:54.117Z</time>
      </trkpt>
      <trkpt lat="47.86199" lon="-2.5096">
        <ele>79</ele>
        <time>2023-07-22T14:04:55.117Z</time>
      </trkpt>
      <trkpt lat="47.862" lon="-2.5096">
        <ele>79</ele>
        <time>2023-07-22T14:04:56.117Z</time>
      </trkpt>
      <trkpt lat="47.86201" lon="-2.50961">
        <ele>80</ele>
        <time>2023-07-22T14:04:57.117Z</time>
      </trkpt>
      <trkpt lat="47.86202" lon="-2.50961">
        <ele>80</ele>
        <time>2023-07-22T14:04:57.993Z</time>
      </trkpt>
      <trkpt lat="47.86204" lon="-2.50962">
        <ele>80</ele>
        <time>2023-07-22T14:04:58.993Z</time>
      </trkpt>
      <trkpt lat="47.86204" lon="-2.50963">
        <ele>80</ele>
        <time>2023-07-22T14:04:59.993Z</time>
      </trkpt>
      <trkpt lat="47.86205" lon="-2.50964">
        <ele>80</ele>
        <time>2023-07-22T14:05:01.117Z</time>
      </trkpt>
      <trkpt lat="47.86205" lon="-2.50964">
        <ele>80</ele>
        <time>2023-07-22T14:05:02.117Z</time>
      </trkpt>
      <trkpt lat="47.86205" lon="-2.50964">
        <ele>80</ele>
        <time>2023-07-22T14:05:02.993Z</time>
      </trkpt>
      <trkpt lat="47.86205" lon="-2.50965">
        <ele>80</ele>
        <time>2023-07-22T14:05:04.117Z</time>
      </trkpt>
      <trkpt lat="47.86205" lon="-2.50965">
        <ele>80</ele>
        <time>2023-07-22T14:05:04.993Z</time>
      </trkpt>
      <trkpt lat="47.86205" lon="-2.50966">
        <ele>80</ele>
        <time>2023-07-22T14:05:05.993Z</time>
      </trkpt>
      <trkpt lat="47.86205" lon="-2.50968">
        <ele>80</ele>
        <time>2023-07-22T14:05:06.993Z</time>
      </trkpt>
      <trkpt lat="47.86205" lon="-2.5097">
        <ele>80</ele>
        <time>2023-07-22T14:05:08.117Z</time>
      </trkpt>
      <trkpt lat="47.86206" lon="-2.50972">
        <ele>80</ele>
        <time>2023-07-22T14:05:08.993Z</time>
      </trkpt>
      <trkpt lat="47.86206" lon="-2.50972">
        <ele>80</ele>
        <time>2023-07-22T14:05:09.993Z</time>
      </trkpt>
      <trkpt lat="47.86206" lon="-2.50972">
        <ele>81</ele>
        <time>2023-07-22T14:05:10.993Z</time>
      </trkpt>
      <trkpt lat="47.86207" lon="-2.50973">
        <ele>81</ele>
        <time>2023-07-22T14:05:11.993Z</time>
      </trkpt>
      <trkpt lat="47.86207" lon="-2.50973">
        <ele>82</ele>
        <time>2023-07-22T14:05:12.993Z</time>
      </trkpt>
      <trkpt lat="47.86207" lon="-2.50973">
        <ele>83</ele>
        <time>2023-07-22T14:05:14.117Z</time>
      </trkpt>
      <trkpt lat="47.86207" lon="-2.50977">
        <ele>86</ele>
        <time>2023-07-22T14:05:21.570Z</time>
      </trkpt>
      <trkpt lat="47.86207" lon="-2.50979">
        <ele>87</ele>
        <time>2023-07-22T14:05:22.570Z</time>
      </trkpt>
      <trkpt lat="47.86207" lon="-2.5098">
        <ele>87</ele>
        <time>2023-07-22T14:05:23.570Z</time>
      </trkpt>
      <trkpt lat="47.86206" lon="-2.50982">
        <ele>87</ele>
        <time>2023-07-22T14:05:24.571Z</time>
      </trkpt>
      <trkpt lat="47.86206" lon="-2.50983">
        <ele>87</ele>
        <time>2023-07-22T14:05:25.570Z</time>
      </trkpt>
      <trkpt lat="47.86206" lon="-2.50985">
        <ele>86</ele>
        <time>2023-07-22T14:05:26.571Z</time>
      </trkpt>
      <trkpt lat="47.86206" lon="-2.50985">
        <ele>86</ele>
        <time>2023-07-22T14:05:27.571Z</time>
      </trkpt>
      <trkpt lat="47.86206" lon="-2.50986">
        <ele>86</ele>
        <time>2023-07-22T14:05:28.571Z</time>
      </trkpt>
      <trkpt lat="47.86208" lon="-2.50987">
        <ele>86</ele>
        <time>2023-07-22T14:05:29.570Z</time>
      </trkpt>
      <trkpt lat="47.86209" lon="-2.50989">
        <ele>86</ele>
        <time>2023-07-22T14:05:30.570Z</time>
      </trkpt>
      <trkpt lat="47.8621" lon="-2.50991">
        <ele>85</ele>
        <time>2023-07-22T14:05:31.571Z</time>
      </trkpt>
      <trkpt lat="47.8621" lon="-2.50992">
        <ele>85</ele>
        <time>2023-07-22T14:05:32.570Z</time>
      </trkpt>
      <trkpt lat="47.86211" lon="-2.50993">
        <ele>85</ele>
        <time>2023-07-22T14:05:33.571Z</time>
      </trkpt>
      <trkpt lat="47.86211" lon="-2.50995">
        <ele>85</ele>
        <time>2023-07-22T14:05:34.570Z</time>
      </trkpt>
      <trkpt lat="47.86211" lon="-2.50996">
        <ele>85</ele>
        <time>2023-07-22T14:05:35.571Z</time>
      </trkpt>
      <trkpt lat="47.86211" lon="-2.50997">
        <ele>85</ele>
        <time>2023-07-22T14:05:36.570Z</time>
      </trkpt>
      <trkpt lat="47.86211" lon="-2.50999">
        <ele>84</ele>
        <time>2023-07-22T14:05:37.571Z</time>
      </trkpt>
      <trkpt lat="47.86212" lon="-2.51">
        <ele>84</ele>
        <time>2023-07-22T14:05:38.570Z</time>
      </trkpt>
      <trkpt lat="47.86212" lon="-2.51001">
        <ele>84</ele>
        <time>2023-07-22T14:05:39.571Z</time>
      </trkpt>
      <trkpt lat="47.86213" lon="-2.51002">
        <ele>83</ele>
        <time>2023-07-22T14:05:40.570Z</time>
      </trkpt>
      <trkpt lat="47.86213" lon="-2.51003">
        <ele>83</ele>
        <time>2023-07-22T14:05:41.571Z</time>
      </trkpt>
      <trkpt lat="47.86214" lon="-2.51005">
        <ele>83</ele>
        <time>2023-07-22T14:05:42.570Z</time>
      </trkpt>
      <trkpt lat="47.86214" lon="-2.51006">
        <ele>83</ele>
        <time>2023-07-22T14:05:43.571Z</time>
      </trkpt>
      <trkpt lat="47.86214" lon="-2.51007">
        <ele>82</ele>
        <time>2023-07-22T14:05:44.571Z</time>
      </trkpt>
      <trkpt lat="47.86215" lon="-2.51009">
        <ele>82</ele>
        <time>2023-07-22T14:05:45.570Z</time>
      </trkpt>
      <trkpt lat="47.86215" lon="-2.51011">
        <ele>82</ele>
        <time>2023-07-22T14:05:46.571Z</time>
      </trkpt>
      <trkpt lat="47.86215" lon="-2.51013">
        <ele>81</ele>
        <time>2023-07-22T14:05:47.570Z</time>
      </trkpt>
      <trkpt lat="47.86215" lon="-2.51014">
        <ele>81</ele>
        <time>2023-07-22T14:05:48.571Z</time>
      </trkpt>
      <trkpt lat="47.86216" lon="-2.51015">
        <ele>81</ele>
        <time>2023-07-22T14:05:49.570Z</time>
      </trkpt>
      <trkpt lat="47.86216" lon="-2.51016">
        <ele>81</ele>
        <time>2023-07-22T14:05:50.570Z</time>
      </trkpt>
      <trkpt lat="47.86216" lon="-2.51017">
        <ele>81</ele>
        <time>2023-07-22T14:05:51.570Z</time>
      </trkpt>
      <trkpt lat="47.86216" lon="-2.51019">
        <ele>80</ele>
        <time>2023-07-22T14:05:52.571Z</time>
      </trkpt>
      <trkpt lat="47.86217" lon="-2.51021">
        <ele>80</ele>
        <time>2023-07-22T14:05:53.570Z</time>
      </trkpt>
      <trkpt lat="47.86217" lon="-2.51022">
        <ele>80</ele>
        <time>2023-07-22T14:05:54.570Z</time>
      </trkpt>
      <trkpt lat="47.86217" lon="-2.51024">
        <ele>80</ele>
        <time>2023-07-22T14:05:55.570Z</time>
      </trkpt>
      <trkpt lat="47.86217" lon="-2.51025">
        <ele>79</ele>
        <time>2023-07-22T14:05:56.570Z</time>
      </trkpt>
      <trkpt lat="47.86218" lon="-2.51026">
        <ele>79</ele>
        <time>2023-07-22T14:05:57.571Z</time>
      </trkpt>
      <trkpt lat="47.86219" lon="-2.51027">
        <ele>79</ele>
        <time>2023-07-22T14:05:58.570Z</time>
      </trkpt>
      <trkpt lat="47.86219" lon="-2.51028">
        <ele>79</ele>
        <time>2023-07-22T14:05:59.571Z</time>
      </trkpt>
      <trkpt lat="47.8622" lon="-2.51029">
        <ele>79</ele>
        <time>2023-07-22T14:06:00.571Z</time>
      </trkpt>
      <trkpt lat="47.8622" lon="-2.5103">
        <ele>79</ele>
        <time>2023-07-22T14:06:01.571Z</time>
      </trkpt>
      <trkpt lat="47.86219" lon="-2.51031">
        <ele>79</ele>
        <time>2023-07-22T14:06:02.570Z</time>
      </trkpt>
      <trkpt lat="47.86219" lon="-2.51033">
        <ele>78</ele>
        <time>2023-07-22T14:06:03.570Z</time>
      </trkpt>
      <trkpt lat="47.8622" lon="-2.51035">
        <ele>78</ele>
        <time>2023-07-22T14:06:04.570Z</time>
      </trkpt>
      <trkpt lat="47.86221" lon="-2.51037">
        <ele>78</ele>
        <time>2023-07-22T14:06:05.571Z</time>
      </trkpt>
      <trkpt lat="47.8622" lon="-2.51039">
        <ele>78</ele>
        <time>2023-07-22T14:06:06.570Z</time>
      </trkpt>
      <trkpt lat="47.8622" lon="-2.51042">
        <ele>78</ele>
        <time>2023-07-22T14:06:07.571Z</time>
      </trkpt>
      <trkpt lat="47.86221" lon="-2.51045">
        <ele>78</ele>
        <time>2023-07-22T14:06:08.570Z</time>
      </trkpt>
      <trkpt lat="47.86221" lon="-2.51047">
        <ele>78</ele>
        <time>2023-07-22T14:06:09.571Z</time>
      </trkpt>
      <trkpt lat="47.86221" lon="-2.51049">
        <ele>78</ele>
        <time>2023-07-22T14:06:10.570Z</time>
      </trkpt>
      <trkpt lat="47.86221" lon="-2.51051">
        <ele>78</ele>
        <time>2023-07-22T14:06:11.571Z</time>
      </trkpt>
      <trkpt lat="47.86222" lon="-2.51051">
        <ele>78</ele>
        <time>2023-07-22T14:06:12.570Z</time>
      </trkpt>
      <trkpt lat="47.86223" lon="-2.51052">
        <ele>79</ele>
        <time>2023-07-22T14:06:13.571Z</time>
      </trkpt>
      <trkpt lat="47.86224" lon="-2.51053">
        <ele>78</ele>
        <time>2023-07-22T14:06:14.570Z</time>
      </trkpt>
      <trkpt lat="47.86224" lon="-2.51054">
        <ele>78</ele>
        <time>2023-07-22T14:06:15.570Z</time>
      </trkpt>
      <trkpt lat="47.86226" lon="-2.51056">
        <ele>78</ele>
        <time>2023-07-22T14:06:16.570Z</time>
      </trkpt>
      <trkpt lat="47.86227" lon="-2.51057">
        <ele>78</ele>
        <time>2023-07-22T14:06:17.570Z</time>
      </trkpt>
      <trkpt lat="47.86229" lon="-2.51058">
        <ele>78</ele>
        <time>2023-07-22T14:06:18.570Z</time>
      </trkpt>
      <trkpt lat="47.8623" lon="-2.5106">
        <ele>78</ele>
        <time>2023-07-22T14:06:19.570Z</time>
      </trkpt>
      <trkpt lat="47.86231" lon="-2.51061">
        <ele>78</ele>
        <time>2023-07-22T14:06:20.571Z</time>
      </trkpt>
      <trkpt lat="47.86232" lon="-2.51062">
        <ele>78</ele>
        <time>2023-07-22T14:06:21.570Z</time>
      </trkpt>
      <trkpt lat="47.86233" lon="-2.51063">
        <ele>78</ele>
        <time>2023-07-22T14:06:22.571Z</time>
      </trkpt>
      <trkpt lat="47.86234" lon="-2.51063">
        <ele>78</ele>
        <time>2023-07-22T14:06:23.570Z</time>
      </trkpt>
      <trkpt lat="47.86235" lon="-2.51064">
        <ele>78</ele>
        <time>2023-07-22T14:06:24.570Z</time>
      </trkpt>
      <trkpt lat="47.86235" lon="-2.51065">
        <ele>78</ele>
        <time>2023-07-22T14:06:25.570Z</time>
      </trkpt>
      <trkpt lat="47.86236" lon="-2.51066">
        <ele>78</ele>
        <time>2023-07-22T14:06:26.571Z</time>
      </trkpt>
      <trkpt lat="47.86237" lon="-2.51066">
        <ele>78</ele>
        <time>2023-07-22T14:06:27.570Z</time>
      </trkpt>
      <trkpt lat="47.86238" lon="-2.51067">
        <ele>78</ele>
        <time>2023-07-22T14:06:28.571Z</time>
      </trkpt>
      <trkpt lat="47.86239" lon="-2.51067">
        <ele>78</ele>
        <time>2023-07-22T14:06:29.570Z</time>
      </trkpt>
      <trkpt lat="47.86241" lon="-2.51067">
        <ele>78</ele>
        <time>2023-07-22T14:06:30.571Z</time>
      </trkpt>
      <trkpt lat="47.86242" lon="-2.51068">
        <ele>79</ele>
        <time>2023-07-22T14:06:31.570Z</time>
      </trkpt>
      <trkpt lat="47.86242" lon="-2.51069">
        <ele>79</ele>
        <time>2023-07-22T14:06:32.571Z</time>
      </trkpt>
      <trkpt lat="47.86244" lon="-2.51071">
        <ele>79</ele>
        <time>2023-07-22T14:06:33.571Z</time>
      </trkpt>
      <trkpt lat="47.86244" lon="-2.51072">
        <ele>80</ele>
        <time>2023-07-22T14:06:34.570Z</time>
      </trkpt>
      <trkpt lat="47.86245" lon="-2.51072">
        <ele>80</ele>
        <time>2023-07-22T14:06:35.571Z</time>
      </trkpt>
      <trkpt lat="47.86246" lon="-2.51073">
        <ele>80</ele>
        <time>2023-07-22T14:06:36.570Z</time>
      </trkpt>
      <trkpt lat="47.86246" lon="-2.51074">
        <ele>80</ele>
        <time>2023-07-22T14:06:37.571Z</time>
      </trkpt>
      <trkpt lat="47.86247" lon="-2.51076">
        <ele>80</ele>
        <time>2023-07-22T14:06:38.570Z</time>
      </trkpt>
      <trkpt lat="47.86248" lon="-2.51077">
        <ele>80</ele>
        <time>2023-07-22T14:06:39.571Z</time>
      </trkpt>
      <trkpt lat="47.86248" lon="-2.51077">
        <ele>80</ele>
        <time>2023-07-22T14:06:40.570Z</time>
      </trkpt>
      <trkpt lat="47.86249" lon="-2.51079">
        <ele>80</ele>
        <time>2023-07-22T14:06:41.571Z</time>
      </trkpt>
      <trkpt lat="47.8625" lon="-2.51079">
        <ele>80</ele>
        <time>2023-07-22T14:06:42.570Z</time>
      </trkpt>
      <trkpt lat="47.86251" lon="-2.5108">
        <ele>81</ele>
        <time>2023-07-22T14:06:43.571Z</time>
      </trkpt>
      <trkpt lat="47.86252" lon="-2.51081">
        <ele>81</ele>
        <time>2023-07-22T14:06:44.570Z</time>
      </trkpt>
      <trkpt lat="47.86253" lon="-2.51082">
        <ele>81</ele>
        <time>2023-07-22T14:06:45.571Z</time>
      </trkpt>
      <trkpt lat="47.86253" lon="-2.51083">
        <ele>81</ele>
        <time>2023-07-22T14:06:46.570Z</time>
      </trkpt>
      <trkpt lat="47.86253" lon="-2.51084">
        <ele>81</ele>
        <time>2023-07-22T14:06:47.571Z</time>
      </trkpt>
      <trkpt lat="47.86254" lon="-2.51084">
        <ele>81</ele>
        <time>2023-07-22T14:06:48.570Z</time>
      </trkpt>
      <trkpt lat="47.86254" lon="-2.51085">
        <ele>81</ele>
        <time>2023-07-22T14:06:49.571Z</time>
      </trkpt>
      <trkpt lat="47.86254" lon="-2.51085">
        <ele>82</ele>
        <time>2023-07-22T14:06:50.571Z</time>
      </trkpt>
      <trkpt lat="47.86254" lon="-2.51086">
        <ele>82</ele>
        <time>2023-07-22T14:06:51.570Z</time>
      </trkpt>
      <trkpt lat="47.86255" lon="-2.51088">
        <ele>82</ele>
        <time>2023-07-22T14:06:52.571Z</time>
      </trkpt>
      <trkpt lat="47.86255" lon="-2.51089">
        <ele>82</ele>
        <time>2023-07-22T14:06:53.570Z</time>
      </trkpt>
      <trkpt lat="47.86255" lon="-2.51089">
        <ele>82</ele>
        <time>2023-07-22T14:06:54.571Z</time>
      </trkpt>
      <trkpt lat="47.86255" lon="-2.51091">
        <ele>83</ele>
        <time>2023-07-22T14:06:55.570Z</time>
      </trkpt>
      <trkpt lat="47.86256" lon="-2.51092">
        <ele>83</ele>
        <time>2023-07-22T14:06:56.571Z</time>
      </trkpt>
      <trkpt lat="47.86256" lon="-2.51093">
        <ele>83</ele>
        <time>2023-07-22T14:06:57.570Z</time>
      </trkpt>
      <trkpt lat="47.86256" lon="-2.51094">
        <ele>84</ele>
        <time>2023-07-22T14:06:58.570Z</time>
      </trkpt>
      <trkpt lat="47.86256" lon="-2.51094">
        <ele>84</ele>
        <time>2023-07-22T14:06:59.570Z</time>
      </trkpt>
      <trkpt lat="47.86257" lon="-2.51095">
        <ele>84</ele>
        <time>2023-07-22T14:07:00.571Z</time>
      </trkpt>
      <trkpt lat="47.86259" lon="-2.51096">
        <ele>84</ele>
        <time>2023-07-22T14:07:01.570Z</time>
      </trkpt>
      <trkpt lat="47.8626" lon="-2.51097">
        <ele>85</ele>
        <time>2023-07-22T14:07:02.571Z</time>
      </trkpt>
      <trkpt lat="47.86261" lon="-2.51098">
        <ele>85</ele>
        <time>2023-07-22T14:07:03.570Z</time>
      </trkpt>
      <trkpt lat="47.86262" lon="-2.511">
        <ele>85</ele>
        <time>2023-07-22T14:07:04.571Z</time>
      </trkpt>
      <trkpt lat="47.86263" lon="-2.51101">
        <ele>85</ele>
        <time>2023-07-22T14:07:05.570Z</time>
      </trkpt>
      <trkpt lat="47.86264" lon="-2.51102">
        <ele>85</ele>
        <time>2023-07-22T14:07:06.571Z</time>
      </trkpt>
      <trkpt lat="47.86265" lon="-2.51103">
        <ele>85</ele>
        <time>2023-07-22T14:07:07.570Z</time>
      </trkpt>
      <trkpt lat="47.86265" lon="-2.51104">
        <ele>85</ele>
        <time>2023-07-22T14:07:08.571Z</time>
      </trkpt>
      <trkpt lat="47.86266" lon="-2.51105">
        <ele>84</ele>
        <time>2023-07-22T14:07:09.570Z</time>
      </trkpt>
      <trkpt lat="47.86267" lon="-2.51106">
        <ele>84</ele>
        <time>2023-07-22T14:07:10.571Z</time>
      </trkpt>
      <trkpt lat="47.86268" lon="-2.51107">
        <ele>83</ele>
        <time>2023-07-22T14:07:11.571Z</time>
      </trkpt>
      <trkpt lat="47.86269" lon="-2.51109">
        <ele>83</ele>
        <time>2023-07-22T14:07:12.570Z</time>
      </trkpt>
      <trkpt lat="47.8627" lon="-2.5111">
        <ele>83</ele>
        <time>2023-07-22T14:07:13.571Z</time>
      </trkpt>
      <trkpt lat="47.8627" lon="-2.51111">
        <ele>83</ele>
        <time>2023-07-22T14:07:14.570Z</time>
      </trkpt>
      <trkpt lat="47.86271" lon="-2.51113">
        <ele>82</ele>
        <time>2023-07-22T14:07:15.571Z</time>
      </trkpt>
      <trkpt lat="47.86271" lon="-2.51113">
        <ele>82</ele>
        <time>2023-07-22T14:07:16.570Z</time>
      </trkpt>
      <trkpt lat="47.86272" lon="-2.51115">
        <ele>82</ele>
        <time>2023-07-22T14:07:17.571Z</time>
      </trkpt>
      <trkpt lat="47.86273" lon="-2.51116">
        <ele>82</ele>
        <time>2023-07-22T14:07:18.570Z</time>
      </trkpt>
      <trkpt lat="47.86273" lon="-2.51117">
        <ele>82</ele>
        <time>2023-07-22T14:07:19.571Z</time>
      </trkpt>
      <trkpt lat="47.86274" lon="-2.51119">
        <ele>82</ele>
        <time>2023-07-22T14:07:20.570Z</time>
      </trkpt>
      <trkpt lat="47.86274" lon="-2.5112">
        <ele>83</ele>
        <time>2023-07-22T14:07:21.571Z</time>
      </trkpt>
      <trkpt lat="47.86275" lon="-2.51121">
        <ele>83</ele>
        <time>2023-07-22T14:07:22.570Z</time>
      </trkpt>
      <trkpt lat="47.86275" lon="-2.51122">
        <ele>84</ele>
        <time>2023-07-22T14:07:23.571Z</time>
      </trkpt>
      <trkpt lat="47.86276" lon="-2.51123">
        <ele>84</ele>
        <time>2023-07-22T14:07:24.570Z</time>
      </trkpt>
      <trkpt lat="47.86276" lon="-2.51124">
        <ele>85</ele>
        <time>2023-07-22T14:07:25.570Z</time>
      </trkpt>
      <trkpt lat="47.86276" lon="-2.51126">
        <ele>85</ele>
        <time>2023-07-22T14:07:26.571Z</time>
      </trkpt>
      <trkpt lat="47.86276" lon="-2.51128">
        <ele>86</ele>
        <time>2023-07-22T14:07:27.570Z</time>
      </trkpt>
      <trkpt lat="47.86276" lon="-2.51129">
        <ele>86</ele>
        <time>2023-07-22T14:07:28.571Z</time>
      </trkpt>
      <trkpt lat="47.86276" lon="-2.51131">
        <ele>87</ele>
        <time>2023-07-22T14:07:29.570Z</time>
      </trkpt>
      <trkpt lat="47.86276" lon="-2.51133">
        <ele>88</ele>
        <time>2023-07-22T14:07:30.571Z</time>
      </trkpt>
      <trkpt lat="47.86276" lon="-2.51136">
        <ele>88</ele>
        <time>2023-07-22T14:07:31.570Z</time>
      </trkpt>
      <trkpt lat="47.86277" lon="-2.51138">
        <ele>89</ele>
        <time>2023-07-22T14:07:32.570Z</time>
      </trkpt>
      <trkpt lat="47.86278" lon="-2.5114">
        <ele>89</ele>
        <time>2023-07-22T14:07:33.570Z</time>
      </trkpt>
      <trkpt lat="47.86279" lon="-2.51141">
        <ele>89</ele>
        <time>2023-07-22T14:07:34.570Z</time>
      </trkpt>
      <trkpt lat="47.86281" lon="-2.51142">
        <ele>89</ele>
        <time>2023-07-22T14:07:35.570Z</time>
      </trkpt>
      <trkpt lat="47.86282" lon="-2.51143">
        <ele>89</ele>
        <time>2023-07-22T14:07:36.571Z</time>
      </trkpt>
      <trkpt lat="47.86282" lon="-2.51145">
        <ele>89</ele>
        <time>2023-07-22T14:07:37.570Z</time>
      </trkpt>
      <trkpt lat="47.86282" lon="-2.51146">
        <ele>88</ele>
        <time>2023-07-22T14:07:38.570Z</time>
      </trkpt>
      <trkpt lat="47.86282" lon="-2.51146">
        <ele>88</ele>
        <time>2023-07-22T14:07:39.570Z</time>
      </trkpt>
      <trkpt lat="47.86282" lon="-2.51148">
        <ele>88</ele>
        <time>2023-07-22T14:07:40.571Z</time>
      </trkpt>
      <trkpt lat="47.86283" lon="-2.51149">
        <ele>88</ele>
        <time>2023-07-22T14:07:41.571Z</time>
      </trkpt>
      <trkpt lat="47.86283" lon="-2.51151">
        <ele>88</ele>
        <time>2023-07-22T14:07:42.571Z</time>
      </trkpt>
      <trkpt lat="47.86284" lon="-2.51153">
        <ele>89</ele>
        <time>2023-07-22T14:07:43.571Z</time>
      </trkpt>
      <trkpt lat="47.86284" lon="-2.51155">
        <ele>89</ele>
        <time>2023-07-22T14:07:44.570Z</time>
      </trkpt>
      <trkpt lat="47.86284" lon="-2.51157">
        <ele>89</ele>
        <time>2023-07-22T14:07:45.571Z</time>
      </trkpt>
      <trkpt lat="47.86284" lon="-2.51159">
        <ele>89</ele>
        <time>2023-07-22T14:07:46.570Z</time>
      </trkpt>
      <trkpt lat="47.86284" lon="-2.51161">
        <ele>89</ele>
        <time>2023-07-22T14:07:47.571Z</time>
      </trkpt>
      <trkpt lat="47.86285" lon="-2.51163">
        <ele>89</ele>
        <time>2023-07-22T14:07:48.570Z</time>
      </trkpt>
      <trkpt lat="47.86285" lon="-2.51166">
        <ele>89</ele>
        <time>2023-07-22T14:07:49.571Z</time>
      </trkpt>
      <trkpt lat="47.86285" lon="-2.51167">
        <ele>90</ele>
        <time>2023-07-22T14:07:50.570Z</time>
      </trkpt>
      <trkpt lat="47.86285" lon="-2.51169">
        <ele>90</ele>
        <time>2023-07-22T14:07:51.570Z</time>
      </trkpt>
      <trkpt lat="47.86285" lon="-2.51171">
        <ele>90</ele>
        <time>2023-07-22T14:07:52.570Z</time>
      </trkpt>
      <trkpt lat="47.86286" lon="-2.51172">
        <ele>89</ele>
        <time>2023-07-22T14:07:53.570Z</time>
      </trkpt>
      <trkpt lat="47.86286" lon="-2.51172">
        <ele>89</ele>
        <time>2023-07-22T14:07:54.571Z</time>
      </trkpt>
      <trkpt lat="47.86287" lon="-2.51173">
        <ele>89</ele>
        <time>2023-07-22T14:07:55.570Z</time>
      </trkpt>
      <trkpt lat="47.86288" lon="-2.51174">
        <ele>89</ele>
        <time>2023-07-22T14:07:56.571Z</time>
      </trkpt>
      <trkpt lat="47.8629" lon="-2.51175">
        <ele>89</ele>
        <time>2023-07-22T14:07:57.571Z</time>
      </trkpt>
      <trkpt lat="47.8629" lon="-2.51177">
        <ele>89</ele>
        <time>2023-07-22T14:07:58.570Z</time>
      </trkpt>
      <trkpt lat="47.8629" lon="-2.51179">
        <ele>88</ele>
        <time>2023-07-22T14:07:59.570Z</time>
      </trkpt>
      <trkpt lat="47.86291" lon="-2.51181">
        <ele>88</ele>
        <time>2023-07-22T14:08:00.570Z</time>
      </trkpt>
      <trkpt lat="47.86291" lon="-2.51183">
        <ele>88</ele>
        <time>2023-07-22T14:08:01.571Z</time>
      </trkpt>
      <trkpt lat="47.86291" lon="-2.51185">
        <ele>88</ele>
        <time>2023-07-22T14:08:02.571Z</time>
      </trkpt>
      <trkpt lat="47.86292" lon="-2.51187">
        <ele>88</ele>
        <time>2023-07-22T14:08:03.570Z</time>
      </trkpt>
      <trkpt lat="47.86293" lon="-2.51189">
        <ele>88</ele>
        <time>2023-07-22T14:08:04.570Z</time>
      </trkpt>
      <trkpt lat="47.86293" lon="-2.51191">
        <ele>88</ele>
        <time>2023-07-22T14:08:05.571Z</time>
      </trkpt>
      <trkpt lat="47.86293" lon="-2.51192">
        <ele>89</ele>
        <time>2023-07-22T14:08:06.571Z</time>
      </trkpt>
      <trkpt lat="47.86293" lon="-2.51193">
        <ele>89</ele>
        <time>2023-07-22T14:08:07.571Z</time>
      </trkpt>
      <trkpt lat="47.86294" lon="-2.51194">
        <ele>89</ele>
        <time>2023-07-22T14:08:08.571Z</time>
      </trkpt>
      <trkpt lat="47.86295" lon="-2.51195">
        <ele>89</ele>
        <time>2023-07-22T14:08:09.571Z</time>
      </trkpt>
      <trkpt lat="47.86294" lon="-2.51197">
        <ele>89</ele>
        <time>2023-07-22T14:08:10.571Z</time>
      </trkpt>
      <trkpt lat="47.86294" lon="-2.51199">
        <ele>89</ele>
        <time>2023-07-22T14:08:11.571Z</time>
      </trkpt>
      <trkpt lat="47.86294" lon="-2.51201">
        <ele>89</ele>
        <time>2023-07-22T14:08:12.571Z</time>
      </trkpt>
      <trkpt lat="47.86294" lon="-2.51204">
        <ele>89</ele>
        <time>2023-07-22T14:08:13.571Z</time>
      </trkpt>
      <trkpt lat="47.86293" lon="-2.51207">
        <ele>89</ele>
        <time>2023-07-22T14:08:14.571Z</time>
      </trkpt>
      <trkpt lat="47.86292" lon="-2.51209">
        <ele>89</ele>
        <time>2023-07-22T14:08:15.571Z</time>
      </trkpt>
      <trkpt lat="47.86292" lon="-2.51211">
        <ele>89</ele>
        <time>2023-07-22T14:08:16.571Z</time>
      </trkpt>
      <trkpt lat="47.86292" lon="-2.51213">
        <ele>88</ele>
        <time>2023-07-22T14:08:17.570Z</time>
      </trkpt>
      <trkpt lat="47.86292" lon="-2.51215">
        <ele>88</ele>
        <time>2023-07-22T14:08:18.570Z</time>
      </trkpt>
      <trkpt lat="47.86293" lon="-2.51216">
        <ele>88</ele>
        <time>2023-07-22T14:08:19.570Z</time>
      </trkpt>
      <trkpt lat="47.86294" lon="-2.51217">
        <ele>88</ele>
        <time>2023-07-22T14:08:20.571Z</time>
      </trkpt>
      <trkpt lat="47.86294" lon="-2.51219">
        <ele>88</ele>
        <time>2023-07-22T14:08:21.570Z</time>
      </trkpt>
      <trkpt lat="47.86294" lon="-2.51221">
        <ele>88</ele>
        <time>2023-07-22T14:08:22.570Z</time>
      </trkpt>
      <trkpt lat="47.86295" lon="-2.51222">
        <ele>88</ele>
        <time>2023-07-22T14:08:23.570Z</time>
      </trkpt>
      <trkpt lat="47.86295" lon="-2.51223">
        <ele>88</ele>
        <time>2023-07-22T14:08:24.571Z</time>
      </trkpt>
      <trkpt lat="47.86295" lon="-2.51224">
        <ele>88</ele>
        <time>2023-07-22T14:08:25.571Z</time>
      </trkpt>
      <trkpt lat="47.86296" lon="-2.51226">
        <ele>89</ele>
        <time>2023-07-22T14:08:26.571Z</time>
      </trkpt>
      <trkpt lat="47.86297" lon="-2.51228">
        <ele>89</ele>
        <time>2023-07-22T14:08:27.571Z</time>
      </trkpt>
      <trkpt lat="47.86297" lon="-2.5123">
        <ele>89</ele>
        <time>2023-07-22T14:08:28.570Z</time>
      </trkpt>
      <trkpt lat="47.86298" lon="-2.51231">
        <ele>89</ele>
        <time>2023-07-22T14:08:29.571Z</time>
      </trkpt>
      <trkpt lat="47.86298" lon="-2.51233">
        <ele>89</ele>
        <time>2023-07-22T14:08:30.570Z</time>
      </trkpt>
      <trkpt lat="47.86299" lon="-2.51234">
        <ele>89</ele>
        <time>2023-07-22T14:08:31.570Z</time>
      </trkpt>
      <trkpt lat="47.86299" lon="-2.51236">
        <ele>89</ele>
        <time>2023-07-22T14:08:32.570Z</time>
      </trkpt>
      <trkpt lat="47.86299" lon="-2.51238">
        <ele>89</ele>
        <time>2023-07-22T14:08:33.570Z</time>
      </trkpt>
      <trkpt lat="47.86299" lon="-2.51239">
        <ele>89</ele>
        <time>2023-07-22T14:08:34.570Z</time>
      </trkpt>
      <trkpt lat="47.86299" lon="-2.5124">
        <ele>88</ele>
        <time>2023-07-22T14:08:35.570Z</time>
      </trkpt>
      <trkpt lat="47.86299" lon="-2.51241">
        <ele>88</ele>
        <time>2023-07-22T14:08:36.571Z</time>
      </trkpt>
      <trkpt lat="47.86299" lon="-2.51242">
        <ele>88</ele>
        <time>2023-07-22T14:08:37.570Z</time>
      </trkpt>
      <trkpt lat="47.863" lon="-2.51244">
        <ele>88</ele>
        <time>2023-07-22T14:08:38.570Z</time>
      </trkpt>
      <trkpt lat="47.863" lon="-2.51245">
        <ele>88</ele>
        <time>2023-07-22T14:08:39.570Z</time>
      </trkpt>
      <trkpt lat="47.863" lon="-2.51246">
        <ele>88</ele>
        <time>2023-07-22T14:08:40.570Z</time>
      </trkpt>
      <trkpt lat="47.863" lon="-2.51246">
        <ele>88</ele>
        <time>2023-07-22T14:08:41.570Z</time>
      </trkpt>
      <trkpt lat="47.863" lon="-2.51247">
        <ele>88</ele>
        <time>2023-07-22T14:08:42.570Z</time>
      </trkpt>
      <trkpt lat="47.86301" lon="-2.51248">
        <ele>89</ele>
        <time>2023-07-22T14:08:43.570Z</time>
      </trkpt>
      <trkpt lat="47.86301" lon="-2.51249">
        <ele>88</ele>
        <time>2023-07-22T14:08:44.571Z</time>
      </trkpt>
      <trkpt lat="47.86301" lon="-2.5125">
        <ele>88</ele>
        <time>2023-07-22T14:08:45.571Z</time>
      </trkpt>
      <trkpt lat="47.86302" lon="-2.5125">
        <ele>88</ele>
        <time>2023-07-22T14:08:46.570Z</time>
      </trkpt>
      <trkpt lat="47.86302" lon="-2.51251">
        <ele>87</ele>
        <time>2023-07-22T14:08:47.570Z</time>
      </trkpt>
      <trkpt lat="47.86303" lon="-2.51252">
        <ele>87</ele>
        <time>2023-07-22T14:08:48.570Z</time>
      </trkpt>
      <trkpt lat="47.86303" lon="-2.51252">
        <ele>87</ele>
        <time>2023-07-22T14:08:49.570Z</time>
      </trkpt>
      <trkpt lat="47.86303" lon="-2.51252">
        <ele>87</ele>
        <time>2023-07-22T14:08:50.570Z</time>
      </trkpt>
      <trkpt lat="47.86304" lon="-2.51253">
        <ele>87</ele>
        <time>2023-07-22T14:08:57.062Z</time>
      </trkpt>
      <trkpt lat="47.86304" lon="-2.51254">
        <ele>87</ele>
        <time>2023-07-22T14:08:58.063Z</time>
      </trkpt>
      <trkpt lat="47.86304" lon="-2.51254">
        <ele>87</ele>
        <time>2023-07-22T14:08:59.062Z</time>
      </trkpt>
      <trkpt lat="47.86305" lon="-2.51258">
        <ele>87</ele>
        <time>2023-07-22T14:09:05.471Z</time>
      </trkpt>
      <trkpt lat="47.86305" lon="-2.51258">
        <ele>87</ele>
        <time>2023-07-22T14:09:06.471Z</time>
      </trkpt>
      <trkpt lat="47.86305" lon="-2.51258">
        <ele>87</ele>
        <time>2023-07-22T14:09:07.471Z</time>
      </trkpt>
      <trkpt lat="47.86307" lon="-2.5126">
        <ele>90</ele>
        <time>2023-07-22T14:09:14.771Z</time>
      </trkpt>
      <trkpt lat="47.86308" lon="-2.5126">
        <ele>90</ele>
        <time>2023-07-22T14:09:15.771Z</time>
      </trkpt>
      <trkpt lat="47.86308" lon="-2.51259">
        <ele>91</ele>
        <time>2023-07-22T14:09:16.771Z</time>
      </trkpt>
      <trkpt lat="47.86309" lon="-2.51259">
        <ele>91</ele>
        <time>2023-07-22T14:09:17.770Z</time>
      </trkpt>
      <trkpt lat="47.86309" lon="-2.51259">
        <ele>91</ele>
        <time>2023-07-22T14:09:18.770Z</time>
      </trkpt>
      <trkpt lat="47.86309" lon="-2.51259">
        <ele>91</ele>
        <time>2023-07-22T14:09:19.770Z</time>
      </trkpt>
      <trkpt lat="47.86309" lon="-2.51258">
        <ele>90</ele>
        <time>2023-07-22T14:09:31.040Z</time>
      </trkpt>
      <trkpt lat="47.86309" lon="-2.51259">
        <ele>90</ele>
        <time>2023-07-22T14:09:32.040Z</time>
      </trkpt>
      <trkpt lat="47.86309" lon="-2.51259">
        <ele>89</ele>
        <time>2023-07-22T14:09:33.041Z</time>
      </trkpt>
      <trkpt lat="47.86309" lon="-2.51259">
        <ele>89</ele>
        <time>2023-07-22T14:09:34.041Z</time>
      </trkpt>
      <trkpt lat="47.86309" lon="-2.51259">
        <ele>89</ele>
        <time>2023-07-22T14:09:35.040Z</time>
      </trkpt>
      <trkpt lat="47.8631" lon="-2.51259">
        <ele>89</ele>
        <time>2023-07-22T14:09:36.040Z</time>
      </trkpt>
      <trkpt lat="47.8631" lon="-2.51259">
        <ele>89</ele>
        <time>2023-07-22T14:09:37.041Z</time>
      </trkpt>
      <trkpt lat="47.86311" lon="-2.5126">
        <ele>89</ele>
        <time>2023-07-22T14:09:38.040Z</time>
      </trkpt>
      <trkpt lat="47.86311" lon="-2.5126">
        <ele>88</ele>
        <time>2023-07-22T14:09:39.041Z</time>
      </trkpt>
      <trkpt lat="47.86312" lon="-2.5126">
        <ele>88</ele>
        <time>2023-07-22T14:09:40.041Z</time>
      </trkpt>
      <trkpt lat="47.86312" lon="-2.5126">
        <ele>88</ele>
        <time>2023-07-22T14:09:41.041Z</time>
      </trkpt>
      <trkpt lat="47.86312" lon="-2.51259">
        <ele>88</ele>
        <time>2023-07-22T14:09:42.041Z</time>
      </trkpt>
      <trkpt lat="47.86312" lon="-2.5126">
        <ele>88</ele>
        <time>2023-07-22T14:09:43.040Z</time>
      </trkpt>
      <trkpt lat="47.86313" lon="-2.5126">
        <ele>88</ele>
        <time>2023-07-22T14:09:44.041Z</time>
      </trkpt>
      <trkpt lat="47.86313" lon="-2.51261">
        <ele>88</ele>
        <time>2023-07-22T14:09:45.041Z</time>
      </trkpt>
      <trkpt lat="47.86314" lon="-2.51262">
        <ele>87</ele>
        <time>2023-07-22T14:09:46.040Z</time>
      </trkpt>
      <trkpt lat="47.86315" lon="-2.51262">
        <ele>88</ele>
        <time>2023-07-22T14:09:47.040Z</time>
      </trkpt>
      <trkpt lat="47.86315" lon="-2.51264">
        <ele>88</ele>
        <time>2023-07-22T14:09:48.040Z</time>
      </trkpt>
      <trkpt lat="47.86315" lon="-2.51265">
        <ele>88</ele>
        <time>2023-07-22T14:09:49.041Z</time>
      </trkpt>
      <trkpt lat="47.86315" lon="-2.51266">
        <ele>88</ele>
        <time>2023-07-22T14:09:50.041Z</time>
      </trkpt>
      <trkpt lat="47.86315" lon="-2.51267">
        <ele>88</ele>
        <time>2023-07-22T14:09:51.040Z</time>
      </trkpt>
      <trkpt lat="47.86316" lon="-2.51269">
        <ele>88</ele>
        <time>2023-07-22T14:09:52.041Z</time>
      </trkpt>
      <trkpt lat="47.86316" lon="-2.5127">
        <ele>88</ele>
        <time>2023-07-22T14:09:53.040Z</time>
      </trkpt>
      <trkpt lat="47.86316" lon="-2.51273">
        <ele>88</ele>
        <time>2023-07-22T14:09:54.040Z</time>
      </trkpt>
      <trkpt lat="47.86316" lon="-2.51275">
        <ele>88</ele>
        <time>2023-07-22T14:09:55.040Z</time>
      </trkpt>
      <trkpt lat="47.86317" lon="-2.51277">
        <ele>88</ele>
        <time>2023-07-22T14:09:56.041Z</time>
      </trkpt>
      <trkpt lat="47.86317" lon="-2.51279">
        <ele>87</ele>
        <time>2023-07-22T14:09:57.040Z</time>
      </trkpt>
      <trkpt lat="47.86317" lon="-2.51279">
        <ele>87</ele>
        <time>2023-07-22T14:09:58.041Z</time>
      </trkpt>
      <trkpt lat="47.86317" lon="-2.5128">
        <ele>87</ele>
        <time>2023-07-22T14:09:59.040Z</time>
      </trkpt>
      <trkpt lat="47.86317" lon="-2.51282">
        <ele>87</ele>
        <time>2023-07-22T14:10:00.040Z</time>
      </trkpt>
      <trkpt lat="47.86317" lon="-2.51283">
        <ele>87</ele>
        <time>2023-07-22T14:10:01.040Z</time>
      </trkpt>
      <trkpt lat="47.86317" lon="-2.51285">
        <ele>87</ele>
        <time>2023-07-22T14:10:02.041Z</time>
      </trkpt>
      <trkpt lat="47.86317" lon="-2.51286">
        <ele>87</ele>
        <time>2023-07-22T14:10:03.041Z</time>
      </trkpt>
      <trkpt lat="47.86317" lon="-2.51288">
        <ele>87</ele>
        <time>2023-07-22T14:10:04.040Z</time>
      </trkpt>
      <trkpt lat="47.86317" lon="-2.51289">
        <ele>87</ele>
        <time>2023-07-22T14:10:05.040Z</time>
      </trkpt>
      <trkpt lat="47.86317" lon="-2.5129">
        <ele>87</ele>
        <time>2023-07-22T14:10:06.040Z</time>
      </trkpt>
      <trkpt lat="47.86317" lon="-2.5129">
        <ele>87</ele>
        <time>2023-07-22T14:10:07.040Z</time>
      </trkpt>
      <trkpt lat="47.86317" lon="-2.5129">
        <ele>87</ele>
        <time>2023-07-22T14:10:08.041Z</time>
      </trkpt>
      <trkpt lat="47.86317" lon="-2.51291">
        <ele>87</ele>
        <time>2023-07-22T14:10:09.040Z</time>
      </trkpt>
      <trkpt lat="47.86319" lon="-2.51299">
        <ele>85</ele>
        <time>2023-07-22T14:10:19.783Z</time>
      </trkpt>
      <trkpt lat="47.8632" lon="-2.513">
        <ele>85</ele>
        <time>2023-07-22T14:10:20.783Z</time>
      </trkpt>
      <trkpt lat="47.8632" lon="-2.513">
        <ele>85</ele>
        <time>2023-07-22T14:10:21.783Z</time>
      </trkpt>
      <trkpt lat="47.8632" lon="-2.51301">
        <ele>85</ele>
        <time>2023-07-22T14:10:22.782Z</time>
      </trkpt>
      <trkpt lat="47.8632" lon="-2.51302">
        <ele>85</ele>
        <time>2023-07-22T14:10:23.782Z</time>
      </trkpt>
      <trkpt lat="47.8632" lon="-2.51304">
        <ele>85</ele>
        <time>2023-07-22T14:10:24.782Z</time>
      </trkpt>
      <trkpt lat="47.86319" lon="-2.51306">
        <ele>85</ele>
        <time>2023-07-22T14:10:25.782Z</time>
      </trkpt>
      <trkpt lat="47.86318" lon="-2.51308">
        <ele>86</ele>
        <time>2023-07-22T14:10:26.782Z</time>
      </trkpt>
      <trkpt lat="47.86318" lon="-2.51309">
        <ele>86</ele>
        <time>2023-07-22T14:10:27.782Z</time>
      </trkpt>
      <trkpt lat="47.86318" lon="-2.5131">
        <ele>86</ele>
        <time>2023-07-22T14:10:28.782Z</time>
      </trkpt>
      <trkpt lat="47.86317" lon="-2.51311">
        <ele>86</ele>
        <time>2023-07-22T14:10:29.782Z</time>
      </trkpt>
      <trkpt lat="47.86317" lon="-2.51313">
        <ele>86</ele>
        <time>2023-07-22T14:10:30.782Z</time>
      </trkpt>
      <trkpt lat="47.86316" lon="-2.51314">
        <ele>86</ele>
        <time>2023-07-22T14:10:31.782Z</time>
      </trkpt>
      <trkpt lat="47.86315" lon="-2.51316">
        <ele>86</ele>
        <time>2023-07-22T14:10:32.782Z</time>
      </trkpt>
      <trkpt lat="47.86314" lon="-2.51318">
        <ele>86</ele>
        <time>2023-07-22T14:10:33.782Z</time>
      </trkpt>
      <trkpt lat="47.86313" lon="-2.5132">
        <ele>86</ele>
        <time>2023-07-22T14:10:34.782Z</time>
      </trkpt>
      <trkpt lat="47.86312" lon="-2.51321">
        <ele>86</ele>
        <time>2023-07-22T14:10:35.782Z</time>
      </trkpt>
      <trkpt lat="47.86312" lon="-2.51322">
        <ele>86</ele>
        <time>2023-07-22T14:10:36.782Z</time>
      </trkpt>
      <trkpt lat="47.86312" lon="-2.51323">
        <ele>86</ele>
        <time>2023-07-22T14:10:37.782Z</time>
      </trkpt>
      <trkpt lat="47.86312" lon="-2.51323">
        <ele>86</ele>
        <time>2023-07-22T14:10:38.783Z</time>
      </trkpt>
      <trkpt lat="47.86311" lon="-2.51324">
        <ele>86</ele>
        <time>2023-07-22T14:10:39.782Z</time>
      </trkpt>
      <trkpt lat="47.86311" lon="-2.51325">
        <ele>86</ele>
        <time>2023-07-22T14:10:40.782Z</time>
      </trkpt>
      <trkpt lat="47.86311" lon="-2.51326">
        <ele>86</ele>
        <time>2023-07-22T14:10:41.783Z</time>
      </trkpt>
      <trkpt lat="47.8631" lon="-2.51327">
        <ele>86</ele>
        <time>2023-07-22T14:10:42.782Z</time>
      </trkpt>
      <trkpt lat="47.8631" lon="-2.51328">
        <ele>86</ele>
        <time>2023-07-22T14:10:43.782Z</time>
      </trkpt>
      <trkpt lat="47.86309" lon="-2.51329">
        <ele>86</ele>
        <time>2023-07-22T14:10:44.782Z</time>
      </trkpt>
      <trkpt lat="47.86309" lon="-2.51331">
        <ele>86</ele>
        <time>2023-07-22T14:10:45.782Z</time>
      </trkpt>
      <trkpt lat="47.86309" lon="-2.51332">
        <ele>86</ele>
        <time>2023-07-22T14:10:46.782Z</time>
      </trkpt>
      <trkpt lat="47.86308" lon="-2.51333">
        <ele>86</ele>
        <time>2023-07-22T14:10:47.782Z</time>
      </trkpt>
      <trkpt lat="47.86308" lon="-2.51335">
        <ele>86</ele>
        <time>2023-07-22T14:10:48.782Z</time>
      </trkpt>
      <trkpt lat="47.86309" lon="-2.51337">
        <ele>85</ele>
        <time>2023-07-22T14:10:49.783Z</time>
      </trkpt>
      <trkpt lat="47.86308" lon="-2.51338">
        <ele>85</ele>
        <time>2023-07-22T14:10:50.783Z</time>
      </trkpt>
      <trkpt lat="47.86309" lon="-2.5134">
        <ele>85</ele>
        <time>2023-07-22T14:10:51.782Z</time>
      </trkpt>
      <trkpt lat="47.86309" lon="-2.51341">
        <ele>85</ele>
        <time>2023-07-22T14:10:52.782Z</time>
      </trkpt>
      <trkpt lat="47.86309" lon="-2.51343">
        <ele>85</ele>
        <time>2023-07-22T14:10:53.782Z</time>
      </trkpt>
      <trkpt lat="47.86309" lon="-2.51345">
        <ele>85</ele>
        <time>2023-07-22T14:10:54.782Z</time>
      </trkpt>
      <trkpt lat="47.86308" lon="-2.51347">
        <ele>85</ele>
        <time>2023-07-22T14:10:55.782Z</time>
      </trkpt>
      <trkpt lat="47.86308" lon="-2.51348">
        <ele>84</ele>
        <time>2023-07-22T14:10:56.783Z</time>
      </trkpt>
      <trkpt lat="47.86308" lon="-2.5135">
        <ele>84</ele>
        <time>2023-07-22T14:10:57.783Z</time>
      </trkpt>
      <trkpt lat="47.86308" lon="-2.51352">
        <ele>85</ele>
        <time>2023-07-22T14:10:58.783Z</time>
      </trkpt>
      <trkpt lat="47.86308" lon="-2.51355">
        <ele>85</ele>
        <time>2023-07-22T14:10:59.783Z</time>
      </trkpt>
      <trkpt lat="47.86308" lon="-2.51357">
        <ele>85</ele>
        <time>2023-07-22T14:11:00.782Z</time>
      </trkpt>
      <trkpt lat="47.86308" lon="-2.51359">
        <ele>84</ele>
        <time>2023-07-22T14:11:01.782Z</time>
      </trkpt>
      <trkpt lat="47.86308" lon="-2.5136">
        <ele>84</ele>
        <time>2023-07-22T14:11:02.783Z</time>
      </trkpt>
      <trkpt lat="47.86308" lon="-2.51361">
        <ele>84</ele>
        <time>2023-07-22T14:11:03.782Z</time>
      </trkpt>
      <trkpt lat="47.86308" lon="-2.51362">
        <ele>84</ele>
        <time>2023-07-22T14:11:04.782Z</time>
      </trkpt>
      <trkpt lat="47.86308" lon="-2.51364">
        <ele>84</ele>
        <time>2023-07-22T14:11:05.782Z</time>
      </trkpt>
      <trkpt lat="47.86308" lon="-2.51367">
        <ele>84</ele>
        <time>2023-07-22T14:11:06.782Z</time>
      </trkpt>
      <trkpt lat="47.86308" lon="-2.51369">
        <ele>84</ele>
        <time>2023-07-22T14:11:07.782Z</time>
      </trkpt>
      <trkpt lat="47.86308" lon="-2.5137">
        <ele>84</ele>
        <time>2023-07-22T14:11:08.782Z</time>
      </trkpt>
      <trkpt lat="47.86309" lon="-2.51373">
        <ele>84</ele>
        <time>2023-07-22T14:11:09.783Z</time>
      </trkpt>
      <trkpt lat="47.8631" lon="-2.51374">
        <ele>84</ele>
        <time>2023-07-22T14:11:10.783Z</time>
      </trkpt>
      <trkpt lat="47.86309" lon="-2.51375">
        <ele>84</ele>
        <time>2023-07-22T14:11:11.782Z</time>
      </trkpt>
      <trkpt lat="47.86309" lon="-2.51377">
        <ele>84</ele>
        <time>2023-07-22T14:11:12.783Z</time>
      </trkpt>
      <trkpt lat="47.86308" lon="-2.51377">
        <ele>84</ele>
        <time>2023-07-22T14:11:13.782Z</time>
      </trkpt>
      <trkpt lat="47.86307" lon="-2.51379">
        <ele>84</ele>
        <time>2023-07-22T14:11:14.783Z</time>
      </trkpt>
      <trkpt lat="47.86307" lon="-2.5138">
        <ele>84</ele>
        <time>2023-07-22T14:11:15.782Z</time>
      </trkpt>
      <trkpt lat="47.86306" lon="-2.51381">
        <ele>85</ele>
        <time>2023-07-22T14:11:16.783Z</time>
      </trkpt>
      <trkpt lat="47.86306" lon="-2.51382">
        <ele>85</ele>
        <time>2023-07-22T14:11:17.782Z</time>
      </trkpt>
      <trkpt lat="47.86306" lon="-2.51384">
        <ele>85</ele>
        <time>2023-07-22T14:11:18.783Z</time>
      </trkpt>
      <trkpt lat="47.86305" lon="-2.51387">
        <ele>85</ele>
        <time>2023-07-22T14:11:19.782Z</time>
      </trkpt>
      <trkpt lat="47.86305" lon="-2.5139">
        <ele>85</ele>
        <time>2023-07-22T14:11:20.783Z</time>
      </trkpt>
      <trkpt lat="47.86304" lon="-2.51391">
        <ele>85</ele>
        <time>2023-07-22T14:11:21.782Z</time>
      </trkpt>
      <trkpt lat="47.86304" lon="-2.51392">
        <ele>85</ele>
        <time>2023-07-22T14:11:22.783Z</time>
      </trkpt>
      <trkpt lat="47.86304" lon="-2.51394">
        <ele>85</ele>
        <time>2023-07-22T14:11:23.783Z</time>
      </trkpt>
      <trkpt lat="47.86304" lon="-2.51395">
        <ele>86</ele>
        <time>2023-07-22T14:11:24.783Z</time>
      </trkpt>
      <trkpt lat="47.86305" lon="-2.51397">
        <ele>86</ele>
        <time>2023-07-22T14:11:25.782Z</time>
      </trkpt>
      <trkpt lat="47.86304" lon="-2.51398">
        <ele>86</ele>
        <time>2023-07-22T14:11:26.783Z</time>
      </trkpt>
      <trkpt lat="47.86304" lon="-2.514">
        <ele>86</ele>
        <time>2023-07-22T14:11:27.783Z</time>
      </trkpt>
      <trkpt lat="47.86304" lon="-2.51401">
        <ele>86</ele>
        <time>2023-07-22T14:11:28.782Z</time>
      </trkpt>
      <trkpt lat="47.86303" lon="-2.51402">
        <ele>86</ele>
        <time>2023-07-22T14:11:29.783Z</time>
      </trkpt>
      <trkpt lat="47.86301" lon="-2.51403">
        <ele>86</ele>
        <time>2023-07-22T14:11:30.782Z</time>
      </trkpt>
      <trkpt lat="47.863" lon="-2.51404">
        <ele>86</ele>
        <time>2023-07-22T14:11:31.783Z</time>
      </trkpt>
      <trkpt lat="47.86299" lon="-2.51406">
        <ele>86</ele>
        <time>2023-07-22T14:11:32.782Z</time>
      </trkpt>
      <trkpt lat="47.86297" lon="-2.51408">
        <ele>86</ele>
        <time>2023-07-22T14:11:33.783Z</time>
      </trkpt>
      <trkpt lat="47.86296" lon="-2.51409">
        <ele>86</ele>
        <time>2023-07-22T14:11:34.782Z</time>
      </trkpt>
      <trkpt lat="47.86295" lon="-2.51411">
        <ele>86</ele>
        <time>2023-07-22T14:11:35.783Z</time>
      </trkpt>
      <trkpt lat="47.86295" lon="-2.51412">
        <ele>86</ele>
        <time>2023-07-22T14:11:36.782Z</time>
      </trkpt>
      <trkpt lat="47.86294" lon="-2.51414">
        <ele>86</ele>
        <time>2023-07-22T14:11:37.783Z</time>
      </trkpt>
      <trkpt lat="47.86293" lon="-2.51416">
        <ele>86</ele>
        <time>2023-07-22T14:11:38.782Z</time>
      </trkpt>
      <trkpt lat="47.86293" lon="-2.51417">
        <ele>86</ele>
        <time>2023-07-22T14:11:39.782Z</time>
      </trkpt>
      <trkpt lat="47.86292" lon="-2.5142">
        <ele>86</ele>
        <time>2023-07-22T14:11:40.782Z</time>
      </trkpt>
      <trkpt lat="47.86292" lon="-2.51423">
        <ele>86</ele>
        <time>2023-07-22T14:11:41.783Z</time>
      </trkpt>
      <trkpt lat="47.86292" lon="-2.51425">
        <ele>86</ele>
        <time>2023-07-22T14:11:42.783Z</time>
      </trkpt>
      <trkpt lat="47.86292" lon="-2.51426">
        <ele>86</ele>
        <time>2023-07-22T14:11:43.782Z</time>
      </trkpt>
      <trkpt lat="47.86292" lon="-2.51427">
        <ele>86</ele>
        <time>2023-07-22T14:11:44.782Z</time>
      </trkpt>
      <trkpt lat="47.86292" lon="-2.51429">
        <ele>86</ele>
        <time>2023-07-22T14:11:45.782Z</time>
      </trkpt>
      <trkpt lat="47.86292" lon="-2.51431">
        <ele>86</ele>
        <time>2023-07-22T14:11:46.782Z</time>
      </trkpt>
      <trkpt lat="47.86291" lon="-2.51433">
        <ele>86</ele>
        <time>2023-07-22T14:11:47.782Z</time>
      </trkpt>
      <trkpt lat="47.86291" lon="-2.51434">
        <ele>86</ele>
        <time>2023-07-22T14:11:48.782Z</time>
      </trkpt>
      <trkpt lat="47.86291" lon="-2.51436">
        <ele>86</ele>
        <time>2023-07-22T14:11:49.783Z</time>
      </trkpt>
      <trkpt lat="47.86291" lon="-2.51439">
        <ele>86</ele>
        <time>2023-07-22T14:11:50.782Z</time>
      </trkpt>
      <trkpt lat="47.86292" lon="-2.51442">
        <ele>86</ele>
        <time>2023-07-22T14:11:51.782Z</time>
      </trkpt>
      <trkpt lat="47.86292" lon="-2.51445">
        <ele>86</ele>
        <time>2023-07-22T14:11:52.783Z</time>
      </trkpt>
      <trkpt lat="47.86292" lon="-2.51447">
        <ele>86</ele>
        <time>2023-07-22T14:11:53.782Z</time>
      </trkpt>
      <trkpt lat="47.86293" lon="-2.51447">
        <ele>86</ele>
        <time>2023-07-22T14:11:54.782Z</time>
      </trkpt>
      <trkpt lat="47.86294" lon="-2.51448">
        <ele>85</ele>
        <time>2023-07-22T14:11:55.782Z</time>
      </trkpt>
      <trkpt lat="47.86294" lon="-2.5145">
        <ele>85</ele>
        <time>2023-07-22T14:11:56.783Z</time>
      </trkpt>
      <trkpt lat="47.86295" lon="-2.51451">
        <ele>85</ele>
        <time>2023-07-22T14:11:57.782Z</time>
      </trkpt>
      <trkpt lat="47.86296" lon="-2.51453">
        <ele>85</ele>
        <time>2023-07-22T14:11:58.782Z</time>
      </trkpt>
      <trkpt lat="47.86296" lon="-2.51456">
        <ele>85</ele>
        <time>2023-07-22T14:11:59.783Z</time>
      </trkpt>
      <trkpt lat="47.86297" lon="-2.51457">
        <ele>85</ele>
        <time>2023-07-22T14:12:00.782Z</time>
      </trkpt>
      <trkpt lat="47.86298" lon="-2.51459">
        <ele>85</ele>
        <time>2023-07-22T14:12:01.783Z</time>
      </trkpt>
      <trkpt lat="47.86298" lon="-2.51461">
        <ele>85</ele>
        <time>2023-07-22T14:12:02.782Z</time>
      </trkpt>
      <trkpt lat="47.86299" lon="-2.51462">
        <ele>85</ele>
        <time>2023-07-22T14:12:03.783Z</time>
      </trkpt>
      <trkpt lat="47.863" lon="-2.51463">
        <ele>85</ele>
        <time>2023-07-22T14:12:04.782Z</time>
      </trkpt>
      <trkpt lat="47.86301" lon="-2.51463">
        <ele>85</ele>
        <time>2023-07-22T14:12:05.783Z</time>
      </trkpt>
      <trkpt lat="47.86302" lon="-2.51464">
        <ele>85</ele>
        <time>2023-07-22T14:12:06.782Z</time>
      </trkpt>
      <trkpt lat="47.86303" lon="-2.51466">
        <ele>85</ele>
        <time>2023-07-22T14:12:07.783Z</time>
      </trkpt>
      <trkpt lat="47.86304" lon="-2.51467">
        <ele>84</ele>
        <time>2023-07-22T14:12:08.782Z</time>
      </trkpt>
      <trkpt lat="47.86304" lon="-2.51467">
        <ele>84</ele>
        <time>2023-07-22T14:12:09.783Z</time>
      </trkpt>
      <trkpt lat="47.86305" lon="-2.51468">
        <ele>83</ele>
        <time>2023-07-22T14:12:10.782Z</time>
      </trkpt>
      <trkpt lat="47.86306" lon="-2.51469">
        <ele>82</ele>
        <time>2023-07-22T14:12:11.783Z</time>
      </trkpt>
      <trkpt lat="47.86306" lon="-2.5147">
        <ele>82</ele>
        <time>2023-07-22T14:12:12.782Z</time>
      </trkpt>
      <trkpt lat="47.86308" lon="-2.51471">
        <ele>81</ele>
        <time>2023-07-22T14:12:13.782Z</time>
      </trkpt>
      <trkpt lat="47.86309" lon="-2.51472">
        <ele>80</ele>
        <time>2023-07-22T14:12:14.782Z</time>
      </trkpt>
      <trkpt lat="47.8631" lon="-2.51472">
        <ele>79</ele>
        <time>2023-07-22T14:12:15.782Z</time>
      </trkpt>
      <trkpt lat="47.86311" lon="-2.51471">
        <ele>78</ele>
        <time>2023-07-22T14:12:16.783Z</time>
      </trkpt>
      <trkpt lat="47.86311" lon="-2.51471">
        <ele>77</ele>
        <time>2023-07-22T14:12:17.782Z</time>
      </trkpt>
      <trkpt lat="47.86312" lon="-2.51472">
        <ele>76</ele>
        <time>2023-07-22T14:12:18.782Z</time>
      </trkpt>
      <trkpt lat="47.86313" lon="-2.51472">
        <ele>76</ele>
        <time>2023-07-22T14:12:19.782Z</time>
      </trkpt>
      <trkpt lat="47.86313" lon="-2.51473">
        <ele>75</ele>
        <time>2023-07-22T14:12:20.783Z</time>
      </trkpt>
      <trkpt lat="47.86314" lon="-2.51473">
        <ele>74</ele>
        <time>2023-07-22T14:12:21.782Z</time>
      </trkpt>
      <trkpt lat="47.86314" lon="-2.51474">
        <ele>74</ele>
        <time>2023-07-22T14:12:22.783Z</time>
      </trkpt>
      <trkpt lat="47.86315" lon="-2.51475">
        <ele>73</ele>
        <time>2023-07-22T14:12:23.782Z</time>
      </trkpt>
      <trkpt lat="47.86315" lon="-2.51476">
        <ele>72</ele>
        <time>2023-07-22T14:12:24.783Z</time>
      </trkpt>
      <trkpt lat="47.86316" lon="-2.51476">
        <ele>72</ele>
        <time>2023-07-22T14:12:25.782Z</time>
      </trkpt>
      <trkpt lat="47.86316" lon="-2.51476">
        <ele>72</ele>
        <time>2023-07-22T14:12:26.783Z</time>
      </trkpt>
      <trkpt lat="47.86316" lon="-2.51476">
        <ele>71</ele>
        <time>2023-07-22T14:12:27.782Z</time>
      </trkpt>
      <trkpt lat="47.86317" lon="-2.5148">
        <ele>77</ele>
        <time>2023-07-22T14:12:52.044Z</time>
      </trkpt>
      <trkpt lat="47.86317" lon="-2.51481">
        <ele>77</ele>
        <time>2023-07-22T14:12:53.043Z</time>
      </trkpt>
      <trkpt lat="47.86317" lon="-2.51481">
        <ele>77</ele>
        <time>2023-07-22T14:12:54.044Z</time>
      </trkpt>
      <trkpt lat="47.86317" lon="-2.51481">
        <ele>78</ele>
        <time>2023-07-22T14:12:55.043Z</time>
      </trkpt>
      <trkpt lat="47.86317" lon="-2.51481">
        <ele>78</ele>
        <time>2023-07-22T14:12:56.043Z</time>
      </trkpt>
      <trkpt lat="47.86317" lon="-2.51481">
        <ele>79</ele>
        <time>2023-07-22T14:12:57.043Z</time>
      </trkpt>
      <trkpt lat="47.86317" lon="-2.51481">
        <ele>79</ele>
        <time>2023-07-22T14:12:58.044Z</time>
      </trkpt>
      <trkpt lat="47.86317" lon="-2.51481">
        <ele>80</ele>
        <time>2023-07-22T14:12:59.044Z</time>
      </trkpt>
      <trkpt lat="47.86317" lon="-2.51481">
        <ele>81</ele>
        <time>2023-07-22T14:13:00.044Z</time>
      </trkpt>
      <trkpt lat="47.86317" lon="-2.51481">
        <ele>82</ele>
        <time>2023-07-22T14:13:01.043Z</time>
      </trkpt>
      <trkpt lat="47.86317" lon="-2.51482">
        <ele>83</ele>
        <time>2023-07-22T14:13:02.043Z</time>
      </trkpt>
      <trkpt lat="47.86316" lon="-2.51482">
        <ele>83</ele>
        <time>2023-07-22T14:13:03.043Z</time>
      </trkpt>
      <trkpt lat="47.86316" lon="-2.51482">
        <ele>84</ele>
        <time>2023-07-22T14:13:04.043Z</time>
      </trkpt>
      <trkpt lat="47.86316" lon="-2.51482">
        <ele>85</ele>
        <time>2023-07-22T14:13:05.043Z</time>
      </trkpt>
      <trkpt lat="47.86316" lon="-2.51482">
        <ele>86</ele>
        <time>2023-07-22T14:13:06.043Z</time>
      </trkpt>
      <trkpt lat="47.86316" lon="-2.51482">
        <ele>87</ele>
        <time>2023-07-22T14:13:07.043Z</time>
      </trkpt>
      <trkpt lat="47.86316" lon="-2.51482">
        <ele>88</ele>
        <time>2023-07-22T14:13:08.044Z</time>
      </trkpt>
      <trkpt lat="47.86317" lon="-2.51482">
        <ele>89</ele>
        <time>2023-07-22T14:13:09.044Z</time>
      </trkpt>
      <trkpt lat="47.86317" lon="-2.51481">
        <ele>90</ele>
        <time>2023-07-22T14:13:10.043Z</time>
      </trkpt>
      <trkpt lat="47.86317" lon="-2.51481">
        <ele>91</ele>
        <time>2023-07-22T14:13:11.043Z</time>
      </trkpt>
      <trkpt lat="47.86317" lon="-2.51482">
        <ele>91</ele>
        <time>2023-07-22T14:13:12.043Z</time>
      </trkpt>
      <trkpt lat="47.86317" lon="-2.51482">
        <ele>92</ele>
        <time>2023-07-22T14:13:13.043Z</time>
      </trkpt>
      <trkpt lat="47.86317" lon="-2.51482">
        <ele>92</ele>
        <time>2023-07-22T14:13:14.043Z</time>
      </trkpt>
      <trkpt lat="47.86318" lon="-2.51482">
        <ele>93</ele>
        <time>2023-07-22T14:13:15.043Z</time>
      </trkpt>
      <trkpt lat="47.86318" lon="-2.51482">
        <ele>93</ele>
        <time>2023-07-22T14:13:16.044Z</time>
      </trkpt>
      <trkpt lat="47.86318" lon="-2.51482">
        <ele>93</ele>
        <time>2023-07-22T14:13:17.043Z</time>
      </trkpt>
      <trkpt lat="47.86318" lon="-2.51482">
        <ele>93</ele>
        <time>2023-07-22T14:13:18.043Z</time>
      </trkpt>
      <trkpt lat="47.86319" lon="-2.51482">
        <ele>93</ele>
        <time>2023-07-22T14:13:19.043Z</time>
      </trkpt>
      <trkpt lat="47.86319" lon="-2.51482">
        <ele>93</ele>
        <time>2023-07-22T14:13:20.043Z</time>
      </trkpt>
      <trkpt lat="47.86319" lon="-2.51482">
        <ele>93</ele>
        <time>2023-07-22T14:13:21.044Z</time>
      </trkpt>
      <trkpt lat="47.86319" lon="-2.51481">
        <ele>93</ele>
        <time>2023-07-22T14:13:22.043Z</time>
      </trkpt>
      <trkpt lat="47.86319" lon="-2.51481">
        <ele>93</ele>
        <time>2023-07-22T14:13:23.044Z</time>
      </trkpt>
      <trkpt lat="47.86319" lon="-2.51481">
        <ele>93</ele>
        <time>2023-07-22T14:13:24.044Z</time>
      </trkpt>
      <trkpt lat="47.86319" lon="-2.51482">
        <ele>92</ele>
        <time>2023-07-22T14:13:25.043Z</time>
      </trkpt>
      <trkpt lat="47.86318" lon="-2.51482">
        <ele>92</ele>
        <time>2023-07-22T14:13:26.043Z</time>
      </trkpt>
      <trkpt lat="47.86318" lon="-2.51482">
        <ele>91</ele>
        <time>2023-07-22T14:13:27.043Z</time>
      </trkpt>
      <trkpt lat="47.86318" lon="-2.51482">
        <ele>87</ele>
        <time>2023-07-22T14:13:48.228Z</time>
      </trkpt>
      <trkpt lat="47.86319" lon="-2.51482">
        <ele>90</ele>
        <time>2023-07-22T14:13:54.573Z</time>
      </trkpt>
      <trkpt lat="47.86319" lon="-2.51482">
        <ele>91</ele>
        <time>2023-07-22T14:13:55.573Z</time>
      </trkpt>
      <trkpt lat="47.86319" lon="-2.51483">
        <ele>92</ele>
        <time>2023-07-22T14:14:02.015Z</time>
      </trkpt>
      <trkpt lat="47.86318" lon="-2.51483">
        <ele>89</ele>
        <time>2023-07-22T14:14:10.205Z</time>
      </trkpt>
      <trkpt lat="47.86318" lon="-2.51483">
        <ele>89</ele>
        <time>2023-07-22T14:14:11.204Z</time>
      </trkpt>
      <trkpt lat="47.86318" lon="-2.51483">
        <ele>89</ele>
        <time>2023-07-22T14:14:12.205Z</time>
      </trkpt>
      <trkpt lat="47.86318" lon="-2.51483">
        <ele>89</ele>
        <time>2023-07-22T14:14:13.204Z</time>
      </trkpt>
      <trkpt lat="47.86318" lon="-2.51484">
        <ele>90</ele>
        <time>2023-07-22T14:14:14.205Z</time>
      </trkpt>
      <trkpt lat="47.86318" lon="-2.51484">
        <ele>90</ele>
        <time>2023-07-22T14:14:15.204Z</time>
      </trkpt>
      <trkpt lat="47.86318" lon="-2.51484">
        <ele>90</ele>
        <time>2023-07-22T14:14:16.204Z</time>
      </trkpt>
      <trkpt lat="47.86317" lon="-2.51489">
        <ele>88</ele>
        <time>2023-07-22T14:15:00.586Z</time>
      </trkpt>
      <trkpt lat="47.86317" lon="-2.5149">
        <ele>89</ele>
        <time>2023-07-22T14:15:01.586Z</time>
      </trkpt>
      <trkpt lat="47.86317" lon="-2.51489">
        <ele>88</ele>
        <time>2023-07-22T14:15:02.586Z</time>
      </trkpt>
      <trkpt lat="47.86317" lon="-2.51489">
        <ele>88</ele>
        <time>2023-07-22T14:15:03.586Z</time>
      </trkpt>
      <trkpt lat="47.86317" lon="-2.51489">
        <ele>87</ele>
        <time>2023-07-22T14:15:04.587Z</time>
      </trkpt>
      <trkpt lat="47.86317" lon="-2.51489">
        <ele>86</ele>
        <time>2023-07-22T14:15:05.586Z</time>
      </trkpt>
      <trkpt lat="47.86317" lon="-2.51489">
        <ele>85</ele>
        <time>2023-07-22T14:15:06.587Z</time>
      </trkpt>
      <trkpt lat="47.86317" lon="-2.51489">
        <ele>84</ele>
        <time>2023-07-22T14:15:07.587Z</time>
      </trkpt>
      <trkpt lat="47.86317" lon="-2.51489">
        <ele>83</ele>
        <time>2023-07-22T14:15:08.586Z</time>
      </trkpt>
      <trkpt lat="47.86317" lon="-2.51489">
        <ele>83</ele>
        <time>2023-07-22T14:15:09.586Z</time>
      </trkpt>
      <trkpt lat="47.86317" lon="-2.51489">
        <ele>82</ele>
        <time>2023-07-22T14:15:10.586Z</time>
      </trkpt>
      <trkpt lat="47.86317" lon="-2.5149">
        <ele>82</ele>
        <time>2023-07-22T14:15:11.587Z</time>
      </trkpt>
      <trkpt lat="47.86317" lon="-2.5149">
        <ele>82</ele>
        <time>2023-07-22T14:15:12.586Z</time>
      </trkpt>
      <trkpt lat="47.86317" lon="-2.5149">
        <ele>82</ele>
        <time>2023-07-22T14:15:13.587Z</time>
      </trkpt>
      <trkpt lat="47.86318" lon="-2.5149">
        <ele>82</ele>
        <time>2023-07-22T14:15:14.586Z</time>
      </trkpt>
      <trkpt lat="47.86317" lon="-2.5149">
        <ele>82</ele>
        <time>2023-07-22T14:15:15.586Z</time>
      </trkpt>
      <trkpt lat="47.86317" lon="-2.5149">
        <ele>82</ele>
        <time>2023-07-22T14:15:16.586Z</time>
      </trkpt>
      <trkpt lat="47.86317" lon="-2.5149">
        <ele>82</ele>
        <time>2023-07-22T14:15:17.586Z</time>
      </trkpt>
      <trkpt lat="47.86317" lon="-2.51491">
        <ele>82</ele>
        <time>2023-07-22T14:15:18.587Z</time>
      </trkpt>
      <trkpt lat="47.86317" lon="-2.51491">
        <ele>82</ele>
        <time>2023-07-22T14:15:19.587Z</time>
      </trkpt>
      <trkpt lat="47.86317" lon="-2.51491">
        <ele>82</ele>
        <time>2023-07-22T14:15:20.587Z</time>
      </trkpt>
      <trkpt lat="47.86317" lon="-2.51491">
        <ele>82</ele>
        <time>2023-07-22T14:15:21.587Z</time>
      </trkpt>
      <trkpt lat="47.86317" lon="-2.51491">
        <ele>82</ele>
        <time>2023-07-22T14:15:22.587Z</time>
      </trkpt>
      <trkpt lat="47.86317" lon="-2.51491">
        <ele>82</ele>
        <time>2023-07-22T14:15:23.587Z</time>
      </trkpt>
      <trkpt lat="47.86317" lon="-2.51491">
        <ele>82</ele>
        <time>2023-07-22T14:15:24.586Z</time>
      </trkpt>
      <trkpt lat="47.86317" lon="-2.51491">
        <ele>81</ele>
        <time>2023-07-22T14:15:25.587Z</time>
      </trkpt>
      <trkpt lat="47.86317" lon="-2.51491">
        <ele>81</ele>
        <time>2023-07-22T14:15:26.587Z</time>
      </trkpt>
      <trkpt lat="47.86317" lon="-2.51491">
        <ele>82</ele>
        <time>2023-07-22T14:15:27.586Z</time>
      </trkpt>
      <trkpt lat="47.86317" lon="-2.51491">
        <ele>82</ele>
        <time>2023-07-22T14:15:28.586Z</time>
      </trkpt>
      <trkpt lat="47.86317" lon="-2.51491">
        <ele>82</ele>
        <time>2023-07-22T14:15:29.587Z</time>
      </trkpt>
      <trkpt lat="47.86317" lon="-2.51491">
        <ele>83</ele>
        <time>2023-07-22T14:15:30.586Z</time>
      </trkpt>
      <trkpt lat="47.86317" lon="-2.51491">
        <ele>84</ele>
        <time>2023-07-22T14:15:31.586Z</time>
      </trkpt>
      <trkpt lat="47.86317" lon="-2.51492">
        <ele>84</ele>
        <time>2023-07-22T14:15:32.586Z</time>
      </trkpt>
      <trkpt lat="47.86317" lon="-2.51492">
        <ele>85</ele>
        <time>2023-07-22T14:15:33.587Z</time>
      </trkpt>
      <trkpt lat="47.86317" lon="-2.51492">
        <ele>86</ele>
        <time>2023-07-22T14:15:34.586Z</time>
      </trkpt>
      <trkpt lat="47.86315" lon="-2.51496">
        <ele>90</ele>
        <time>2023-07-22T14:15:48.800Z</time>
      </trkpt>
      <trkpt lat="47.86315" lon="-2.51496">
        <ele>90</ele>
        <time>2023-07-22T14:15:49.801Z</time>
      </trkpt>
      <trkpt lat="47.86315" lon="-2.51496">
        <ele>90</ele>
        <time>2023-07-22T14:15:50.800Z</time>
      </trkpt>
      <trkpt lat="47.86315" lon="-2.51496">
        <ele>90</ele>
        <time>2023-07-22T14:15:51.801Z</time>
      </trkpt>
      <trkpt lat="47.86315" lon="-2.51496">
        <ele>90</ele>
        <time>2023-07-22T14:15:52.801Z</time>
      </trkpt>
      <trkpt lat="47.86315" lon="-2.51496">
        <ele>89</ele>
        <time>2023-07-22T14:15:53.800Z</time>
      </trkpt>
      <trkpt lat="47.86315" lon="-2.51495">
        <ele>89</ele>
        <time>2023-07-22T14:15:54.801Z</time>
      </trkpt>
      <trkpt lat="47.86316" lon="-2.51493">
        <ele>89</ele>
        <time>2023-07-22T14:15:55.801Z</time>
      </trkpt>
      <trkpt lat="47.86316" lon="-2.51493">
        <ele>89</ele>
        <time>2023-07-22T14:15:56.800Z</time>
      </trkpt>
      <trkpt lat="47.86317" lon="-2.51493">
        <ele>89</ele>
        <time>2023-07-22T14:15:57.801Z</time>
      </trkpt>
      <trkpt lat="47.86317" lon="-2.51491">
        <ele>89</ele>
        <time>2023-07-22T14:15:58.800Z</time>
      </trkpt>
      <trkpt lat="47.86317" lon="-2.51491">
        <ele>89</ele>
        <time>2023-07-22T14:15:59.801Z</time>
      </trkpt>
      <trkpt lat="47.86318" lon="-2.5149">
        <ele>90</ele>
        <time>2023-07-22T14:16:00.800Z</time>
      </trkpt>
      <trkpt lat="47.86318" lon="-2.51491">
        <ele>90</ele>
        <time>2023-07-22T14:16:01.801Z</time>
      </trkpt>
      <trkpt lat="47.86318" lon="-2.5149">
        <ele>90</ele>
        <time>2023-07-22T14:16:02.800Z</time>
      </trkpt>
      <trkpt lat="47.86318" lon="-2.5149">
        <ele>91</ele>
        <time>2023-07-22T14:16:03.801Z</time>
      </trkpt>
      <trkpt lat="47.86318" lon="-2.5149">
        <ele>91</ele>
        <time>2023-07-22T14:16:04.801Z</time>
      </trkpt>
      <trkpt lat="47.86318" lon="-2.5149">
        <ele>91</ele>
        <time>2023-07-22T14:16:05.800Z</time>
      </trkpt>
      <trkpt lat="47.86318" lon="-2.5149">
        <ele>91</ele>
        <time>2023-07-22T14:16:06.800Z</time>
      </trkpt>
      <trkpt lat="47.86318" lon="-2.5149">
        <ele>92</ele>
        <time>2023-07-22T14:16:07.800Z</time>
      </trkpt>
      <trkpt lat="47.86318" lon="-2.5149">
        <ele>92</ele>
        <time>2023-07-22T14:16:08.801Z</time>
      </trkpt>
      <trkpt lat="47.86318" lon="-2.51489">
        <ele>92</ele>
        <time>2023-07-22T14:16:09.800Z</time>
      </trkpt>
      <trkpt lat="47.86318" lon="-2.51489">
        <ele>91</ele>
        <time>2023-07-22T14:16:10.801Z</time>
      </trkpt>
      <trkpt lat="47.86318" lon="-2.51489">
        <ele>91</ele>
        <time>2023-07-22T14:16:11.801Z</time>
      </trkpt>
      <trkpt lat="47.86318" lon="-2.51489">
        <ele>90</ele>
        <time>2023-07-22T14:16:12.801Z</time>
      </trkpt>
      <trkpt lat="47.86318" lon="-2.51489">
        <ele>89</ele>
        <time>2023-07-22T14:16:13.801Z</time>
      </trkpt>
      <trkpt lat="47.86318" lon="-2.51489">
        <ele>88</ele>
        <time>2023-07-22T14:16:14.800Z</time>
      </trkpt>
      <trkpt lat="47.86317" lon="-2.51491">
        <ele>88</ele>
        <time>2023-07-22T14:16:15.801Z</time>
      </trkpt>
      <trkpt lat="47.86317" lon="-2.51492">
        <ele>87</ele>
        <time>2023-07-22T14:16:16.801Z</time>
      </trkpt>
      <trkpt lat="47.86318" lon="-2.51491">
        <ele>86</ele>
        <time>2023-07-22T14:16:17.800Z</time>
      </trkpt>
      <trkpt lat="47.86319" lon="-2.51491">
        <ele>85</ele>
        <time>2023-07-22T14:16:18.801Z</time>
      </trkpt>
      <trkpt lat="47.86319" lon="-2.51491">
        <ele>84</ele>
        <time>2023-07-22T14:16:19.801Z</time>
      </trkpt>
      <trkpt lat="47.8632" lon="-2.5149">
        <ele>83</ele>
        <time>2023-07-22T14:16:20.801Z</time>
      </trkpt>
      <trkpt lat="47.8632" lon="-2.51491">
        <ele>83</ele>
        <time>2023-07-22T14:16:21.801Z</time>
      </trkpt>
      <trkpt lat="47.86321" lon="-2.51491">
        <ele>82</ele>
        <time>2023-07-22T14:16:22.800Z</time>
      </trkpt>
      <trkpt lat="47.86321" lon="-2.51492">
        <ele>82</ele>
        <time>2023-07-22T14:16:23.801Z</time>
      </trkpt>
      <trkpt lat="47.86322" lon="-2.51492">
        <ele>80</ele>
        <time>2023-07-22T14:16:33.064Z</time>
      </trkpt>
      <trkpt lat="47.86322" lon="-2.51492">
        <ele>79</ele>
        <time>2023-07-22T14:16:34.064Z</time>
      </trkpt>
      <trkpt lat="47.86323" lon="-2.51492">
        <ele>79</ele>
        <time>2023-07-22T14:16:35.064Z</time>
      </trkpt>
      <trkpt lat="47.86323" lon="-2.51493">
        <ele>78</ele>
        <time>2023-07-22T14:16:36.065Z</time>
      </trkpt>
      <trkpt lat="47.86324" lon="-2.51492">
        <ele>77</ele>
        <time>2023-07-22T14:16:37.065Z</time>
      </trkpt>
      <trkpt lat="47.86325" lon="-2.51493">
        <ele>77</ele>
        <time>2023-07-22T14:16:38.064Z</time>
      </trkpt>
      <trkpt lat="47.86325" lon="-2.51492">
        <ele>76</ele>
        <time>2023-07-22T14:16:39.064Z</time>
      </trkpt>
      <trkpt lat="47.86326" lon="-2.51493">
        <ele>76</ele>
        <time>2023-07-22T14:16:40.064Z</time>
      </trkpt>
      <trkpt lat="47.86326" lon="-2.51493">
        <ele>76</ele>
        <time>2023-07-22T14:16:41.064Z</time>
      </trkpt>
      <trkpt lat="47.86327" lon="-2.51492">
        <ele>76</ele>
        <time>2023-07-22T14:16:42.064Z</time>
      </trkpt>
      <trkpt lat="47.86327" lon="-2.51493">
        <ele>76</ele>
        <time>2023-07-22T14:16:43.064Z</time>
      </trkpt>
      <trkpt lat="47.86328" lon="-2.51493">
        <ele>76</ele>
        <time>2023-07-22T14:16:44.064Z</time>
      </trkpt>
      <trkpt lat="47.86328" lon="-2.51493">
        <ele>77</ele>
        <time>2023-07-22T14:16:45.064Z</time>
      </trkpt>
      <trkpt lat="47.86328" lon="-2.51493">
        <ele>77</ele>
        <time>2023-07-22T14:16:46.064Z</time>
      </trkpt>
      <trkpt lat="47.86327" lon="-2.51493">
        <ele>80</ele>
        <time>2023-07-22T14:16:55.450Z</time>
      </trkpt>
      <trkpt lat="47.86327" lon="-2.51494">
        <ele>80</ele>
        <time>2023-07-22T14:16:56.450Z</time>
      </trkpt>
      <trkpt lat="47.86327" lon="-2.51494">
        <ele>81</ele>
        <time>2023-07-22T14:16:57.450Z</time>
      </trkpt>
      <trkpt lat="47.86327" lon="-2.51494">
        <ele>81</ele>
        <time>2023-07-22T14:16:58.450Z</time>
      </trkpt>
      <trkpt lat="47.86327" lon="-2.51493">
        <ele>82</ele>
        <time>2023-07-22T14:16:59.450Z</time>
      </trkpt>
      <trkpt lat="47.86327" lon="-2.51493">
        <ele>82</ele>
        <time>2023-07-22T14:17:00.450Z</time>
      </trkpt>
      <trkpt lat="47.86327" lon="-2.51493">
        <ele>83</ele>
        <time>2023-07-22T14:17:01.450Z</time>
      </trkpt>
      <trkpt lat="47.86327" lon="-2.51493">
        <ele>83</ele>
        <time>2023-07-22T14:17:02.450Z</time>
      </trkpt>
      <trkpt lat="47.86327" lon="-2.51493">
        <ele>84</ele>
        <time>2023-07-22T14:17:03.451Z</time>
      </trkpt>
      <trkpt lat="47.86327" lon="-2.51493">
        <ele>85</ele>
        <time>2023-07-22T14:17:04.451Z</time>
      </trkpt>
      <trkpt lat="47.86327" lon="-2.51493">
        <ele>86</ele>
        <time>2023-07-22T14:17:05.451Z</time>
      </trkpt>
      <trkpt lat="47.86327" lon="-2.51493">
        <ele>87</ele>
        <time>2023-07-22T14:17:06.451Z</time>
      </trkpt>
      <trkpt lat="47.86327" lon="-2.51493">
        <ele>88</ele>
        <time>2023-07-22T14:17:07.451Z</time>
      </trkpt>
      <trkpt lat="47.86327" lon="-2.51493">
        <ele>89</ele>
        <time>2023-07-22T14:17:08.451Z</time>
      </trkpt>
      <trkpt lat="47.86327" lon="-2.51493">
        <ele>90</ele>
        <time>2023-07-22T14:17:09.450Z</time>
      </trkpt>
      <trkpt lat="47.86327" lon="-2.51493">
        <ele>91</ele>
        <time>2023-07-22T14:17:10.451Z</time>
      </trkpt>
      <trkpt lat="47.86327" lon="-2.51493">
        <ele>92</ele>
        <time>2023-07-22T14:17:11.451Z</time>
      </trkpt>
      <trkpt lat="47.86328" lon="-2.51494">
        <ele>93</ele>
        <time>2023-07-22T14:17:12.450Z</time>
      </trkpt>
      <trkpt lat="47.86329" lon="-2.51494">
        <ele>93</ele>
        <time>2023-07-22T14:17:13.450Z</time>
      </trkpt>
      <trkpt lat="47.8633" lon="-2.51495">
        <ele>94</ele>
        <time>2023-07-22T14:17:14.451Z</time>
      </trkpt>
      <trkpt lat="47.86332" lon="-2.51495">
        <ele>94</ele>
        <time>2023-07-22T14:17:15.450Z</time>
      </trkpt>
      <trkpt lat="47.86333" lon="-2.51495">
        <ele>94</ele>
        <time>2023-07-22T14:17:16.451Z</time>
      </trkpt>
      <trkpt lat="47.86335" lon="-2.51495">
        <ele>95</ele>
        <time>2023-07-22T14:17:17.450Z</time>
      </trkpt>
      <trkpt lat="47.86336" lon="-2.51495">
        <ele>95</ele>
        <time>2023-07-22T14:17:18.451Z</time>
      </trkpt>
      <trkpt lat="47.86338" lon="-2.51496">
        <ele>95</ele>
        <time>2023-07-22T14:17:19.450Z</time>
      </trkpt>
      <trkpt lat="47.86339" lon="-2.51496">
        <ele>95</ele>
        <time>2023-07-22T14:17:20.451Z</time>
      </trkpt>
      <trkpt lat="47.86341" lon="-2.51496">
        <ele>95</ele>
        <time>2023-07-22T14:17:21.450Z</time>
      </trkpt>
      <trkpt lat="47.86342" lon="-2.51496">
        <ele>95</ele>
        <time>2023-07-22T14:17:22.451Z</time>
      </trkpt>
      <trkpt lat="47.86343" lon="-2.51497">
        <ele>95</ele>
        <time>2023-07-22T14:17:23.450Z</time>
      </trkpt>
      <trkpt lat="47.86345" lon="-2.51498">
        <ele>94</ele>
        <time>2023-07-22T14:17:24.451Z</time>
      </trkpt>
      <trkpt lat="47.86345" lon="-2.51499">
        <ele>94</ele>
        <time>2023-07-22T14:17:25.450Z</time>
      </trkpt>
      <trkpt lat="47.86346" lon="-2.515">
        <ele>94</ele>
        <time>2023-07-22T14:17:26.451Z</time>
      </trkpt>
      <trkpt lat="47.86347" lon="-2.51501">
        <ele>94</ele>
        <time>2023-07-22T14:17:27.451Z</time>
      </trkpt>
      <trkpt lat="47.86348" lon="-2.51501">
        <ele>94</ele>
        <time>2023-07-22T14:17:28.451Z</time>
      </trkpt>
      <trkpt lat="47.86349" lon="-2.51502">
        <ele>94</ele>
        <time>2023-07-22T14:17:29.451Z</time>
      </trkpt>
      <trkpt lat="47.8635" lon="-2.51503">
        <ele>94</ele>
        <time>2023-07-22T14:17:30.451Z</time>
      </trkpt>
      <trkpt lat="47.86351" lon="-2.51503">
        <ele>94</ele>
        <time>2023-07-22T14:17:31.451Z</time>
      </trkpt>
      <trkpt lat="47.86352" lon="-2.51503">
        <ele>93</ele>
        <time>2023-07-22T14:17:32.451Z</time>
      </trkpt>
      <trkpt lat="47.86353" lon="-2.51504">
        <ele>92</ele>
        <time>2023-07-22T14:17:33.451Z</time>
      </trkpt>
      <trkpt lat="47.86354" lon="-2.51504">
        <ele>92</ele>
        <time>2023-07-22T14:17:34.450Z</time>
      </trkpt>
      <trkpt lat="47.86355" lon="-2.51505">
        <ele>91</ele>
        <time>2023-07-22T14:17:35.451Z</time>
      </trkpt>
      <trkpt lat="47.86355" lon="-2.51505">
        <ele>91</ele>
        <time>2023-07-22T14:17:36.450Z</time>
      </trkpt>
      <trkpt lat="47.86356" lon="-2.51505">
        <ele>91</ele>
        <time>2023-07-22T14:17:37.451Z</time>
      </trkpt>
      <trkpt lat="47.86357" lon="-2.51505">
        <ele>90</ele>
        <time>2023-07-22T14:17:38.450Z</time>
      </trkpt>
      <trkpt lat="47.86358" lon="-2.51505">
        <ele>90</ele>
        <time>2023-07-22T14:17:39.451Z</time>
      </trkpt>
      <trkpt lat="47.86359" lon="-2.51505">
        <ele>90</ele>
        <time>2023-07-22T14:17:40.450Z</time>
      </trkpt>
      <trkpt lat="47.8636" lon="-2.51506">
        <ele>90</ele>
        <time>2023-07-22T14:17:41.450Z</time>
      </trkpt>
      <trkpt lat="47.86361" lon="-2.51507">
        <ele>90</ele>
        <time>2023-07-22T14:17:42.450Z</time>
      </trkpt>
      <trkpt lat="47.86361" lon="-2.51507">
        <ele>90</ele>
        <time>2023-07-22T14:17:43.451Z</time>
      </trkpt>
      <trkpt lat="47.86361" lon="-2.51507">
        <ele>89</ele>
        <time>2023-07-22T14:17:44.450Z</time>
      </trkpt>
      <trkpt lat="47.86364" lon="-2.51511">
        <ele>87</ele>
        <time>2023-07-22T14:17:53.628Z</time>
      </trkpt>
      <trkpt lat="47.86365" lon="-2.51511">
        <ele>87</ele>
        <time>2023-07-22T14:17:54.627Z</time>
      </trkpt>
      <trkpt lat="47.86366" lon="-2.51511">
        <ele>87</ele>
        <time>2023-07-22T14:17:55.627Z</time>
      </trkpt>
      <trkpt lat="47.86366" lon="-2.51512">
        <ele>86</ele>
        <time>2023-07-22T14:17:56.628Z</time>
      </trkpt>
      <trkpt lat="47.86366" lon="-2.51512">
        <ele>86</ele>
        <time>2023-07-22T14:17:57.627Z</time>
      </trkpt>
      <trkpt lat="47.86368" lon="-2.51512">
        <ele>86</ele>
        <time>2023-07-22T14:17:58.627Z</time>
      </trkpt>
      <trkpt lat="47.8637" lon="-2.51512">
        <ele>86</ele>
        <time>2023-07-22T14:17:59.627Z</time>
      </trkpt>
      <trkpt lat="47.86371" lon="-2.51512">
        <ele>86</ele>
        <time>2023-07-22T14:18:00.628Z</time>
      </trkpt>
      <trkpt lat="47.86372" lon="-2.51512">
        <ele>86</ele>
        <time>2023-07-22T14:18:01.627Z</time>
      </trkpt>
      <trkpt lat="47.86373" lon="-2.51512">
        <ele>85</ele>
        <time>2023-07-22T14:18:02.628Z</time>
      </trkpt>
      <trkpt lat="47.86374" lon="-2.51511">
        <ele>85</ele>
        <time>2023-07-22T14:18:03.628Z</time>
      </trkpt>
      <trkpt lat="47.86375" lon="-2.51511">
        <ele>85</ele>
        <time>2023-07-22T14:18:04.628Z</time>
      </trkpt>
      <trkpt lat="47.86376" lon="-2.5151">
        <ele>84</ele>
        <time>2023-07-22T14:18:05.627Z</time>
      </trkpt>
      <trkpt lat="47.86377" lon="-2.5151">
        <ele>84</ele>
        <time>2023-07-22T14:18:06.628Z</time>
      </trkpt>
      <trkpt lat="47.86378" lon="-2.5151">
        <ele>84</ele>
        <time>2023-07-22T14:18:07.628Z</time>
      </trkpt>
      <trkpt lat="47.8638" lon="-2.51511">
        <ele>84</ele>
        <time>2023-07-22T14:18:08.628Z</time>
      </trkpt>
      <trkpt lat="47.86382" lon="-2.51513">
        <ele>84</ele>
        <time>2023-07-22T14:18:09.627Z</time>
      </trkpt>
      <trkpt lat="47.86383" lon="-2.51514">
        <ele>84</ele>
        <time>2023-07-22T14:18:10.627Z</time>
      </trkpt>
      <trkpt lat="47.86383" lon="-2.51515">
        <ele>84</ele>
        <time>2023-07-22T14:18:11.628Z</time>
      </trkpt>
      <trkpt lat="47.86385" lon="-2.51517">
        <ele>83</ele>
        <time>2023-07-22T14:18:12.627Z</time>
      </trkpt>
      <trkpt lat="47.86386" lon="-2.51517">
        <ele>83</ele>
        <time>2023-07-22T14:18:13.628Z</time>
      </trkpt>
      <trkpt lat="47.86388" lon="-2.51518">
        <ele>83</ele>
        <time>2023-07-22T14:18:14.627Z</time>
      </trkpt>
      <trkpt lat="47.86389" lon="-2.51519">
        <ele>83</ele>
        <time>2023-07-22T14:18:15.627Z</time>
      </trkpt>
      <trkpt lat="47.86389" lon="-2.5152">
        <ele>82</ele>
        <time>2023-07-22T14:18:16.628Z</time>
      </trkpt>
      <trkpt lat="47.8639" lon="-2.51521">
        <ele>82</ele>
        <time>2023-07-22T14:18:17.627Z</time>
      </trkpt>
      <trkpt lat="47.86391" lon="-2.51522">
        <ele>82</ele>
        <time>2023-07-22T14:18:18.628Z</time>
      </trkpt>
      <trkpt lat="47.86392" lon="-2.51522">
        <ele>82</ele>
        <time>2023-07-22T14:18:19.627Z</time>
      </trkpt>
      <trkpt lat="47.86392" lon="-2.51522">
        <ele>82</ele>
        <time>2023-07-22T14:18:20.627Z</time>
      </trkpt>
      <trkpt lat="47.86391" lon="-2.51522">
        <ele>83</ele>
        <time>2023-07-22T14:18:21.628Z</time>
      </trkpt>
      <trkpt lat="47.86391" lon="-2.51523">
        <ele>83</ele>
        <time>2023-07-22T14:18:22.627Z</time>
      </trkpt>
      <trkpt lat="47.86392" lon="-2.51524">
        <ele>83</ele>
        <time>2023-07-22T14:18:23.627Z</time>
      </trkpt>
      <trkpt lat="47.86393" lon="-2.51524">
        <ele>84</ele>
        <time>2023-07-22T14:18:24.628Z</time>
      </trkpt>
      <trkpt lat="47.86393" lon="-2.51525">
        <ele>84</ele>
        <time>2023-07-22T14:18:25.627Z</time>
      </trkpt>
      <trkpt lat="47.86393" lon="-2.51527">
        <ele>85</ele>
        <time>2023-07-22T14:18:26.628Z</time>
      </trkpt>
      <trkpt lat="47.86393" lon="-2.51528">
        <ele>86</ele>
        <time>2023-07-22T14:18:27.627Z</time>
      </trkpt>
      <trkpt lat="47.86393" lon="-2.5153">
        <ele>87</ele>
        <time>2023-07-22T14:18:28.628Z</time>
      </trkpt>
      <trkpt lat="47.86392" lon="-2.51531">
        <ele>87</ele>
        <time>2023-07-22T14:18:29.627Z</time>
      </trkpt>
      <trkpt lat="47.86391" lon="-2.51532">
        <ele>88</ele>
        <time>2023-07-22T14:18:30.627Z</time>
      </trkpt>
      <trkpt lat="47.86391" lon="-2.51533">
        <ele>88</ele>
        <time>2023-07-22T14:18:31.628Z</time>
      </trkpt>
      <trkpt lat="47.86391" lon="-2.51534">
        <ele>89</ele>
        <time>2023-07-22T14:18:32.628Z</time>
      </trkpt>
      <trkpt lat="47.8639" lon="-2.51536">
        <ele>90</ele>
        <time>2023-07-22T14:18:33.627Z</time>
      </trkpt>
      <trkpt lat="47.8639" lon="-2.51538">
        <ele>90</ele>
        <time>2023-07-22T14:18:34.628Z</time>
      </trkpt>
      <trkpt lat="47.8639" lon="-2.51539">
        <ele>90</ele>
        <time>2023-07-22T14:18:35.627Z</time>
      </trkpt>
      <trkpt lat="47.8639" lon="-2.51541">
        <ele>91</ele>
        <time>2023-07-22T14:18:36.628Z</time>
      </trkpt>
      <trkpt lat="47.86391" lon="-2.51542">
        <ele>91</ele>
        <time>2023-07-22T14:18:37.627Z</time>
      </trkpt>
      <trkpt lat="47.86392" lon="-2.51543">
        <ele>91</ele>
        <time>2023-07-22T14:18:38.628Z</time>
      </trkpt>
      <trkpt lat="47.86392" lon="-2.51543">
        <ele>91</ele>
        <time>2023-07-22T14:18:39.628Z</time>
      </trkpt>
      <trkpt lat="47.86392" lon="-2.51544">
        <ele>92</ele>
        <time>2023-07-22T14:18:40.627Z</time>
      </trkpt>
      <trkpt lat="47.86393" lon="-2.51544">
        <ele>92</ele>
        <time>2023-07-22T14:18:41.627Z</time>
      </trkpt>
      <trkpt lat="47.86393" lon="-2.51545">
        <ele>92</ele>
        <time>2023-07-22T14:18:42.627Z</time>
      </trkpt>
      <trkpt lat="47.86394" lon="-2.51547">
        <ele>92</ele>
        <time>2023-07-22T14:18:43.627Z</time>
      </trkpt>
      <trkpt lat="47.86395" lon="-2.51548">
        <ele>92</ele>
        <time>2023-07-22T14:18:44.627Z</time>
      </trkpt>
      <trkpt lat="47.86395" lon="-2.5155">
        <ele>93</ele>
        <time>2023-07-22T14:18:45.627Z</time>
      </trkpt>
      <trkpt lat="47.86396" lon="-2.51551">
        <ele>93</ele>
        <time>2023-07-22T14:18:46.627Z</time>
      </trkpt>
      <trkpt lat="47.86397" lon="-2.51552">
        <ele>93</ele>
        <time>2023-07-22T14:18:47.627Z</time>
      </trkpt>
      <trkpt lat="47.86397" lon="-2.51552">
        <ele>92</ele>
        <time>2023-07-22T14:18:48.627Z</time>
      </trkpt>
      <trkpt lat="47.86397" lon="-2.51552">
        <ele>92</ele>
        <time>2023-07-22T14:18:49.628Z</time>
      </trkpt>
      <trkpt lat="47.86397" lon="-2.51556">
        <ele>91</ele>
        <time>2023-07-22T14:18:56.856Z</time>
      </trkpt>
      <trkpt lat="47.86398" lon="-2.51555">
        <ele>91</ele>
        <time>2023-07-22T14:18:57.856Z</time>
      </trkpt>
      <trkpt lat="47.86398" lon="-2.51555">
        <ele>91</ele>
        <time>2023-07-22T14:18:58.856Z</time>
      </trkpt>
      <trkpt lat="47.86399" lon="-2.51556">
        <ele>91</ele>
        <time>2023-07-22T14:18:59.856Z</time>
      </trkpt>
      <trkpt lat="47.86399" lon="-2.51556">
        <ele>91</ele>
        <time>2023-07-22T14:19:00.856Z</time>
      </trkpt>
      <trkpt lat="47.86399" lon="-2.51555">
        <ele>90</ele>
        <time>2023-07-22T14:19:01.856Z</time>
      </trkpt>
      <trkpt lat="47.86398" lon="-2.51554">
        <ele>90</ele>
        <time>2023-07-22T14:19:02.856Z</time>
      </trkpt>
      <trkpt lat="47.86398" lon="-2.51553">
        <ele>90</ele>
        <time>2023-07-22T14:19:03.856Z</time>
      </trkpt>
      <trkpt lat="47.86398" lon="-2.51553">
        <ele>90</ele>
        <time>2023-07-22T14:19:04.856Z</time>
      </trkpt>
      <trkpt lat="47.86398" lon="-2.51554">
        <ele>89</ele>
        <time>2023-07-22T14:19:05.856Z</time>
      </trkpt>
      <trkpt lat="47.86398" lon="-2.51555">
        <ele>89</ele>
        <time>2023-07-22T14:19:06.856Z</time>
      </trkpt>
      <trkpt lat="47.86398" lon="-2.51555">
        <ele>89</ele>
        <time>2023-07-22T14:19:07.857Z</time>
      </trkpt>
      <trkpt lat="47.86399" lon="-2.51556">
        <ele>89</ele>
        <time>2023-07-22T14:19:08.856Z</time>
      </trkpt>
      <trkpt lat="47.864" lon="-2.51558">
        <ele>89</ele>
        <time>2023-07-22T14:19:09.857Z</time>
      </trkpt>
      <trkpt lat="47.86401" lon="-2.51559">
        <ele>89</ele>
        <time>2023-07-22T14:19:10.857Z</time>
      </trkpt>
      <trkpt lat="47.86402" lon="-2.5156">
        <ele>89</ele>
        <time>2023-07-22T14:19:11.856Z</time>
      </trkpt>
      <trkpt lat="47.86403" lon="-2.51561">
        <ele>89</ele>
        <time>2023-07-22T14:19:12.856Z</time>
      </trkpt>
      <trkpt lat="47.86403" lon="-2.51563">
        <ele>89</ele>
        <time>2023-07-22T14:19:13.856Z</time>
      </trkpt>
      <trkpt lat="47.86404" lon="-2.51565">
        <ele>90</ele>
        <time>2023-07-22T14:19:14.856Z</time>
      </trkpt>
      <trkpt lat="47.86405" lon="-2.51567">
        <ele>90</ele>
        <time>2023-07-22T14:19:15.857Z</time>
      </trkpt>
      <trkpt lat="47.86406" lon="-2.51568">
        <ele>90</ele>
        <time>2023-07-22T14:19:16.857Z</time>
      </trkpt>
      <trkpt lat="47.86406" lon="-2.5157">
        <ele>91</ele>
        <time>2023-07-22T14:19:17.856Z</time>
      </trkpt>
      <trkpt lat="47.86406" lon="-2.51571">
        <ele>91</ele>
        <time>2023-07-22T14:19:18.856Z</time>
      </trkpt>
      <trkpt lat="47.86407" lon="-2.51573">
        <ele>92</ele>
        <time>2023-07-22T14:19:19.857Z</time>
      </trkpt>
      <trkpt lat="47.86408" lon="-2.51574">
        <ele>92</ele>
        <time>2023-07-22T14:19:20.856Z</time>
      </trkpt>
      <trkpt lat="47.86409" lon="-2.51576">
        <ele>92</ele>
        <time>2023-07-22T14:19:21.856Z</time>
      </trkpt>
      <trkpt lat="47.8641" lon="-2.51578">
        <ele>93</ele>
        <time>2023-07-22T14:19:22.857Z</time>
      </trkpt>
      <trkpt lat="47.8641" lon="-2.51579">
        <ele>93</ele>
        <time>2023-07-22T14:19:23.856Z</time>
      </trkpt>
      <trkpt lat="47.86411" lon="-2.5158">
        <ele>93</ele>
        <time>2023-07-22T14:19:24.856Z</time>
      </trkpt>
      <trkpt lat="47.86412" lon="-2.51581">
        <ele>93</ele>
        <time>2023-07-22T14:19:25.856Z</time>
      </trkpt>
      <trkpt lat="47.86412" lon="-2.51582">
        <ele>94</ele>
        <time>2023-07-22T14:19:26.856Z</time>
      </trkpt>
      <trkpt lat="47.86412" lon="-2.51583">
        <ele>94</ele>
        <time>2023-07-22T14:19:27.856Z</time>
      </trkpt>
      <trkpt lat="47.86413" lon="-2.51583">
        <ele>94</ele>
        <time>2023-07-22T14:19:28.856Z</time>
      </trkpt>
      <trkpt lat="47.86413" lon="-2.51584">
        <ele>94</ele>
        <time>2023-07-22T14:19:29.856Z</time>
      </trkpt>
      <trkpt lat="47.86414" lon="-2.51585">
        <ele>95</ele>
        <time>2023-07-22T14:19:30.856Z</time>
      </trkpt>
      <trkpt lat="47.86414" lon="-2.51586">
        <ele>95</ele>
        <time>2023-07-22T14:19:31.856Z</time>
      </trkpt>
      <trkpt lat="47.86415" lon="-2.51586">
        <ele>95</ele>
        <time>2023-07-22T14:19:32.857Z</time>
      </trkpt>
      <trkpt lat="47.86415" lon="-2.51586">
        <ele>95</ele>
        <time>2023-07-22T14:19:33.856Z</time>
      </trkpt>
      <trkpt lat="47.86412" lon="-2.51585">
        <ele>95</ele>
        <time>2023-07-22T14:19:40.277Z</time>
      </trkpt>
      <trkpt lat="47.86412" lon="-2.51586">
        <ele>95</ele>
        <time>2023-07-22T14:19:41.277Z</time>
      </trkpt>
      <trkpt lat="47.86412" lon="-2.51586">
        <ele>95</ele>
        <time>2023-07-22T14:19:42.276Z</time>
      </trkpt>
      <trkpt lat="47.86412" lon="-2.51587">
        <ele>95</ele>
        <time>2023-07-22T14:19:43.276Z</time>
      </trkpt>
      <trkpt lat="47.86412" lon="-2.51587">
        <ele>96</ele>
        <time>2023-07-22T14:19:44.277Z</time>
      </trkpt>
      <trkpt lat="47.86412" lon="-2.51588">
        <ele>96</ele>
        <time>2023-07-22T14:19:45.277Z</time>
      </trkpt>
      <trkpt lat="47.86413" lon="-2.51588">
        <ele>96</ele>
        <time>2023-07-22T14:19:46.277Z</time>
      </trkpt>
      <trkpt lat="47.86413" lon="-2.51588">
        <ele>96</ele>
        <time>2023-07-22T14:19:47.276Z</time>
      </trkpt>
      <trkpt lat="47.86415" lon="-2.51592">
        <ele>95</ele>
        <time>2023-07-22T14:19:54.683Z</time>
      </trkpt>
      <trkpt lat="47.86416" lon="-2.51595">
        <ele>95</ele>
        <time>2023-07-22T14:19:55.684Z</time>
      </trkpt>
      <trkpt lat="47.86417" lon="-2.51597">
        <ele>95</ele>
        <time>2023-07-22T14:19:56.683Z</time>
      </trkpt>
      <trkpt lat="47.86417" lon="-2.51598">
        <ele>95</ele>
        <time>2023-07-22T14:19:57.683Z</time>
      </trkpt>
      <trkpt lat="47.86417" lon="-2.51598">
        <ele>94</ele>
        <time>2023-07-22T14:19:58.684Z</time>
      </trkpt>
      <trkpt lat="47.86417" lon="-2.51599">
        <ele>94</ele>
        <time>2023-07-22T14:19:59.684Z</time>
      </trkpt>
      <trkpt lat="47.86417" lon="-2.51599">
        <ele>94</ele>
        <time>2023-07-22T14:20:00.684Z</time>
      </trkpt>
      <trkpt lat="47.86417" lon="-2.51599">
        <ele>94</ele>
        <time>2023-07-22T14:20:01.684Z</time>
      </trkpt>
      <trkpt lat="47.8642" lon="-2.51599">
        <ele>93</ele>
        <time>2023-07-22T14:20:08.146Z</time>
      </trkpt>
      <trkpt lat="47.86419" lon="-2.51601">
        <ele>90</ele>
        <time>2023-07-22T14:20:15.550Z</time>
      </trkpt>
      <trkpt lat="47.86419" lon="-2.51603">
        <ele>89</ele>
        <time>2023-07-22T14:20:16.551Z</time>
      </trkpt>
      <trkpt lat="47.86419" lon="-2.51604">
        <ele>89</ele>
        <time>2023-07-22T14:20:17.551Z</time>
      </trkpt>
      <trkpt lat="47.86419" lon="-2.51606">
        <ele>88</ele>
        <time>2023-07-22T14:20:18.551Z</time>
      </trkpt>
      <trkpt lat="47.86419" lon="-2.51607">
        <ele>88</ele>
        <time>2023-07-22T14:20:19.550Z</time>
      </trkpt>
      <trkpt lat="47.86419" lon="-2.51608">
        <ele>88</ele>
        <time>2023-07-22T14:20:20.550Z</time>
      </trkpt>
      <trkpt lat="47.86417" lon="-2.51618">
        <ele>88</ele>
        <time>2023-07-22T14:20:27.114Z</time>
      </trkpt>
      <trkpt lat="47.86417" lon="-2.51619">
        <ele>88</ele>
        <time>2023-07-22T14:20:28.114Z</time>
      </trkpt>
      <trkpt lat="47.86417" lon="-2.51621">
        <ele>88</ele>
        <time>2023-07-22T14:20:29.115Z</time>
      </trkpt>
      <trkpt lat="47.86417" lon="-2.51623">
        <ele>89</ele>
        <time>2023-07-22T14:20:30.114Z</time>
      </trkpt>
      <trkpt lat="47.86417" lon="-2.51625">
        <ele>89</ele>
        <time>2023-07-22T14:20:31.114Z</time>
      </trkpt>
      <trkpt lat="47.86417" lon="-2.51627">
        <ele>89</ele>
        <time>2023-07-22T14:20:32.114Z</time>
      </trkpt>
      <trkpt lat="47.86418" lon="-2.51629">
        <ele>89</ele>
        <time>2023-07-22T14:20:33.114Z</time>
      </trkpt>
      <trkpt lat="47.86417" lon="-2.51631">
        <ele>89</ele>
        <time>2023-07-22T14:20:34.114Z</time>
      </trkpt>
      <trkpt lat="47.86417" lon="-2.51633">
        <ele>89</ele>
        <time>2023-07-22T14:20:35.114Z</time>
      </trkpt>
      <trkpt lat="47.86417" lon="-2.51635">
        <ele>89</ele>
        <time>2023-07-22T14:20:36.114Z</time>
      </trkpt>
      <trkpt lat="47.86417" lon="-2.51636">
        <ele>89</ele>
        <time>2023-07-22T14:20:37.114Z</time>
      </trkpt>
      <trkpt lat="47.86417" lon="-2.51638">
        <ele>89</ele>
        <time>2023-07-22T14:20:38.114Z</time>
      </trkpt>
      <trkpt lat="47.86418" lon="-2.5164">
        <ele>89</ele>
        <time>2023-07-22T14:20:39.115Z</time>
      </trkpt>
      <trkpt lat="47.86418" lon="-2.51642">
        <ele>89</ele>
        <time>2023-07-22T14:20:40.115Z</time>
      </trkpt>
      <trkpt lat="47.86417" lon="-2.51645">
        <ele>89</ele>
        <time>2023-07-22T14:20:41.114Z</time>
      </trkpt>
      <trkpt lat="47.86417" lon="-2.51646">
        <ele>89</ele>
        <time>2023-07-22T14:20:42.115Z</time>
      </trkpt>
      <trkpt lat="47.86417" lon="-2.51647">
        <ele>89</ele>
        <time>2023-07-22T14:20:43.115Z</time>
      </trkpt>
      <trkpt lat="47.86416" lon="-2.51649">
        <ele>89</ele>
        <time>2023-07-22T14:20:44.114Z</time>
      </trkpt>
      <trkpt lat="47.86417" lon="-2.51651">
        <ele>89</ele>
        <time>2023-07-22T14:20:45.114Z</time>
      </trkpt>
      <trkpt lat="47.86417" lon="-2.51653">
        <ele>89</ele>
        <time>2023-07-22T14:20:46.114Z</time>
      </trkpt>
      <trkpt lat="47.86418" lon="-2.51655">
        <ele>89</ele>
        <time>2023-07-22T14:20:47.115Z</time>
      </trkpt>
      <trkpt lat="47.86419" lon="-2.51656">
        <ele>89</ele>
        <time>2023-07-22T14:20:48.114Z</time>
      </trkpt>
      <trkpt lat="47.8642" lon="-2.51659">
        <ele>90</ele>
        <time>2023-07-22T14:20:49.114Z</time>
      </trkpt>
      <trkpt lat="47.86422" lon="-2.5166">
        <ele>90</ele>
        <time>2023-07-22T14:20:50.114Z</time>
      </trkpt>
      <trkpt lat="47.86423" lon="-2.51663">
        <ele>91</ele>
        <time>2023-07-22T14:20:51.115Z</time>
      </trkpt>
      <trkpt lat="47.86423" lon="-2.51665">
        <ele>91</ele>
        <time>2023-07-22T14:20:52.114Z</time>
      </trkpt>
      <trkpt lat="47.86424" lon="-2.51667">
        <ele>91</ele>
        <time>2023-07-22T14:20:53.114Z</time>
      </trkpt>
      <trkpt lat="47.86423" lon="-2.51669">
        <ele>91</ele>
        <time>2023-07-22T14:20:54.114Z</time>
      </trkpt>
      <trkpt lat="47.86423" lon="-2.51671">
        <ele>91</ele>
        <time>2023-07-22T14:20:55.114Z</time>
      </trkpt>
      <trkpt lat="47.86423" lon="-2.51673">
        <ele>91</ele>
        <time>2023-07-22T14:20:56.114Z</time>
      </trkpt>
      <trkpt lat="47.86422" lon="-2.51674">
        <ele>91</ele>
        <time>2023-07-22T14:20:57.115Z</time>
      </trkpt>
      <trkpt lat="47.8642" lon="-2.51676">
        <ele>92</ele>
        <time>2023-07-22T14:20:58.114Z</time>
      </trkpt>
      <trkpt lat="47.8642" lon="-2.51677">
        <ele>92</ele>
        <time>2023-07-22T14:20:59.115Z</time>
      </trkpt>
      <trkpt lat="47.86419" lon="-2.51678">
        <ele>92</ele>
        <time>2023-07-22T14:21:00.115Z</time>
      </trkpt>
      <trkpt lat="47.86418" lon="-2.51678">
        <ele>93</ele>
        <time>2023-07-22T14:21:01.114Z</time>
      </trkpt>
      <trkpt lat="47.86418" lon="-2.51679">
        <ele>93</ele>
        <time>2023-07-22T14:21:02.115Z</time>
      </trkpt>
      <trkpt lat="47.86418" lon="-2.51679">
        <ele>93</ele>
        <time>2023-07-22T14:21:03.114Z</time>
      </trkpt>
      <trkpt lat="47.86417" lon="-2.5168">
        <ele>94</ele>
        <time>2023-07-22T14:21:04.115Z</time>
      </trkpt>
      <trkpt lat="47.86416" lon="-2.51683">
        <ele>93</ele>
        <time>2023-07-22T14:21:05.114Z</time>
      </trkpt>
      <trkpt lat="47.86416" lon="-2.51685">
        <ele>93</ele>
        <time>2023-07-22T14:21:06.114Z</time>
      </trkpt>
      <trkpt lat="47.86416" lon="-2.51687">
        <ele>93</ele>
        <time>2023-07-22T14:21:07.115Z</time>
      </trkpt>
      <trkpt lat="47.86417" lon="-2.51689">
        <ele>93</ele>
        <time>2023-07-22T14:21:08.114Z</time>
      </trkpt>
      <trkpt lat="47.86417" lon="-2.51691">
        <ele>93</ele>
        <time>2023-07-22T14:21:09.115Z</time>
      </trkpt>
      <trkpt lat="47.86417" lon="-2.51693">
        <ele>93</ele>
        <time>2023-07-22T14:21:10.115Z</time>
      </trkpt>
      <trkpt lat="47.86417" lon="-2.51695">
        <ele>93</ele>
        <time>2023-07-22T14:21:11.114Z</time>
      </trkpt>
      <trkpt lat="47.86419" lon="-2.51697">
        <ele>93</ele>
        <time>2023-07-22T14:21:12.114Z</time>
      </trkpt>
      <trkpt lat="47.8642" lon="-2.51699">
        <ele>93</ele>
        <time>2023-07-22T14:21:13.114Z</time>
      </trkpt>
      <trkpt lat="47.86421" lon="-2.51701">
        <ele>93</ele>
        <time>2023-07-22T14:21:14.114Z</time>
      </trkpt>
      <trkpt lat="47.86421" lon="-2.51702">
        <ele>93</ele>
        <time>2023-07-22T14:21:15.114Z</time>
      </trkpt>
      <trkpt lat="47.86422" lon="-2.51703">
        <ele>93</ele>
        <time>2023-07-22T14:21:16.114Z</time>
      </trkpt>
      <trkpt lat="47.86423" lon="-2.51705">
        <ele>93</ele>
        <time>2023-07-22T14:21:17.115Z</time>
      </trkpt>
      <trkpt lat="47.86424" lon="-2.51706">
        <ele>93</ele>
        <time>2023-07-22T14:21:18.114Z</time>
      </trkpt>
      <trkpt lat="47.86425" lon="-2.51708">
        <ele>93</ele>
        <time>2023-07-22T14:21:19.114Z</time>
      </trkpt>
      <trkpt lat="47.86425" lon="-2.5171">
        <ele>92</ele>
        <time>2023-07-22T14:21:20.114Z</time>
      </trkpt>
      <trkpt lat="47.86426" lon="-2.51711">
        <ele>92</ele>
        <time>2023-07-22T14:21:21.115Z</time>
      </trkpt>
      <trkpt lat="47.86427" lon="-2.51712">
        <ele>92</ele>
        <time>2023-07-22T14:21:22.114Z</time>
      </trkpt>
      <trkpt lat="47.86429" lon="-2.51713">
        <ele>92</ele>
        <time>2023-07-22T14:21:23.115Z</time>
      </trkpt>
      <trkpt lat="47.8643" lon="-2.51714">
        <ele>92</ele>
        <time>2023-07-22T14:21:24.114Z</time>
      </trkpt>
      <trkpt lat="47.86432" lon="-2.51715">
        <ele>92</ele>
        <time>2023-07-22T14:21:25.114Z</time>
      </trkpt>
      <trkpt lat="47.86433" lon="-2.51715">
        <ele>92</ele>
        <time>2023-07-22T14:21:26.115Z</time>
      </trkpt>
      <trkpt lat="47.86435" lon="-2.51715">
        <ele>92</ele>
        <time>2023-07-22T14:21:27.114Z</time>
      </trkpt>
      <trkpt lat="47.86438" lon="-2.51716">
        <ele>92</ele>
        <time>2023-07-22T14:21:28.115Z</time>
      </trkpt>
      <trkpt lat="47.86438" lon="-2.51716">
        <ele>92</ele>
        <time>2023-07-22T14:21:29.114Z</time>
      </trkpt>
      <trkpt lat="47.86437" lon="-2.51717">
        <ele>93</ele>
        <time>2023-07-22T14:21:30.115Z</time>
      </trkpt>
      <trkpt lat="47.86438" lon="-2.5172">
        <ele>93</ele>
        <time>2023-07-22T14:21:31.115Z</time>
      </trkpt>
      <trkpt lat="47.86441" lon="-2.51724">
        <ele>93</ele>
        <time>2023-07-22T14:21:32.114Z</time>
      </trkpt>
      <trkpt lat="47.86443" lon="-2.51727">
        <ele>93</ele>
        <time>2023-07-22T14:21:33.115Z</time>
      </trkpt>
      <trkpt lat="47.86445" lon="-2.51727">
        <ele>94</ele>
        <time>2023-07-22T14:21:34.115Z</time>
      </trkpt>
      <trkpt lat="47.86448" lon="-2.51725">
        <ele>94</ele>
        <time>2023-07-22T14:21:35.115Z</time>
      </trkpt>
      <trkpt lat="47.86449" lon="-2.51724">
        <ele>94</ele>
        <time>2023-07-22T14:21:36.114Z</time>
      </trkpt>
      <trkpt lat="47.86449" lon="-2.51724">
        <ele>94</ele>
        <time>2023-07-22T14:21:37.114Z</time>
      </trkpt>
      <trkpt lat="47.8645" lon="-2.51723">
        <ele>94</ele>
        <time>2023-07-22T14:21:38.114Z</time>
      </trkpt>
      <trkpt lat="47.8645" lon="-2.51724">
        <ele>94</ele>
        <time>2023-07-22T14:21:39.115Z</time>
      </trkpt>
      <trkpt lat="47.8645" lon="-2.51725">
        <ele>94</ele>
        <time>2023-07-22T14:21:40.114Z</time>
      </trkpt>
      <trkpt lat="47.86449" lon="-2.51725">
        <ele>94</ele>
        <time>2023-07-22T14:21:41.115Z</time>
      </trkpt>
      <trkpt lat="47.86449" lon="-2.51725">
        <ele>94</ele>
        <time>2023-07-22T14:21:42.114Z</time>
      </trkpt>
      <trkpt lat="47.8645" lon="-2.51725">
        <ele>95</ele>
        <time>2023-07-22T14:21:43.114Z</time>
      </trkpt>
      <trkpt lat="47.86451" lon="-2.51724">
        <ele>95</ele>
        <time>2023-07-22T14:21:44.115Z</time>
      </trkpt>
      <trkpt lat="47.86451" lon="-2.51722">
        <ele>94</ele>
        <time>2023-07-22T14:21:45.114Z</time>
      </trkpt>
      <trkpt lat="47.86451" lon="-2.51722">
        <ele>94</ele>
        <time>2023-07-22T14:21:46.114Z</time>
      </trkpt>
      <trkpt lat="47.86452" lon="-2.51721">
        <ele>94</ele>
        <time>2023-07-22T14:21:47.115Z</time>
      </trkpt>
      <trkpt lat="47.86453" lon="-2.51722">
        <ele>94</ele>
        <time>2023-07-22T14:21:48.114Z</time>
      </trkpt>
      <trkpt lat="47.86454" lon="-2.51722">
        <ele>93</ele>
        <time>2023-07-22T14:21:49.114Z</time>
      </trkpt>
      <trkpt lat="47.86454" lon="-2.51722">
        <ele>93</ele>
        <time>2023-07-22T14:21:50.115Z</time>
      </trkpt>
      <trkpt lat="47.86454" lon="-2.51723">
        <ele>93</ele>
        <time>2023-07-22T14:21:51.114Z</time>
      </trkpt>
      <trkpt lat="47.86455" lon="-2.51724">
        <ele>93</ele>
        <time>2023-07-22T14:21:52.114Z</time>
      </trkpt>
      <trkpt lat="47.86458" lon="-2.51728">
        <ele>93</ele>
        <time>2023-07-22T14:21:53.114Z</time>
      </trkpt>
      <trkpt lat="47.86459" lon="-2.5173">
        <ele>93</ele>
        <time>2023-07-22T14:21:54.114Z</time>
      </trkpt>
      <trkpt lat="47.86461" lon="-2.51732">
        <ele>93</ele>
        <time>2023-07-22T14:21:55.114Z</time>
      </trkpt>
      <trkpt lat="47.86462" lon="-2.51734">
        <ele>93</ele>
        <time>2023-07-22T14:21:56.114Z</time>
      </trkpt>
      <trkpt lat="47.86463" lon="-2.51735">
        <ele>93</ele>
        <time>2023-07-22T14:21:57.115Z</time>
      </trkpt>
      <trkpt lat="47.86464" lon="-2.51737">
        <ele>93</ele>
        <time>2023-07-22T14:21:58.114Z</time>
      </trkpt>
      <trkpt lat="47.86465" lon="-2.51737">
        <ele>93</ele>
        <time>2023-07-22T14:21:59.114Z</time>
      </trkpt>
      <trkpt lat="47.86466" lon="-2.51739">
        <ele>93</ele>
        <time>2023-07-22T14:22:00.114Z</time>
      </trkpt>
      <trkpt lat="47.86467" lon="-2.51742">
        <ele>92</ele>
        <time>2023-07-22T14:22:01.114Z</time>
      </trkpt>
      <trkpt lat="47.86468" lon="-2.51744">
        <ele>92</ele>
        <time>2023-07-22T14:22:02.114Z</time>
      </trkpt>
      <trkpt lat="47.86469" lon="-2.51746">
        <ele>92</ele>
        <time>2023-07-22T14:22:03.114Z</time>
      </trkpt>
      <trkpt lat="47.86471" lon="-2.51748">
        <ele>92</ele>
        <time>2023-07-22T14:22:04.114Z</time>
      </trkpt>
      <trkpt lat="47.86472" lon="-2.51749">
        <ele>92</ele>
        <time>2023-07-22T14:22:05.114Z</time>
      </trkpt>
      <trkpt lat="47.86472" lon="-2.5175">
        <ele>92</ele>
        <time>2023-07-22T14:22:06.114Z</time>
      </trkpt>
      <trkpt lat="47.86473" lon="-2.5175">
        <ele>92</ele>
        <time>2023-07-22T14:22:07.115Z</time>
      </trkpt>
      <trkpt lat="47.86473" lon="-2.51751">
        <ele>92</ele>
        <time>2023-07-22T14:22:08.114Z</time>
      </trkpt>
      <trkpt lat="47.86474" lon="-2.51752">
        <ele>92</ele>
        <time>2023-07-22T14:22:09.115Z</time>
      </trkpt>
      <trkpt lat="47.86474" lon="-2.51754">
        <ele>92</ele>
        <time>2023-07-22T14:22:10.114Z</time>
      </trkpt>
      <trkpt lat="47.86474" lon="-2.51756">
        <ele>92</ele>
        <time>2023-07-22T14:22:11.115Z</time>
      </trkpt>
      <trkpt lat="47.86475" lon="-2.51758">
        <ele>92</ele>
        <time>2023-07-22T14:22:12.114Z</time>
      </trkpt>
      <trkpt lat="47.86476" lon="-2.5176">
        <ele>93</ele>
        <time>2023-07-22T14:22:13.115Z</time>
      </trkpt>
      <trkpt lat="47.86477" lon="-2.51761">
        <ele>93</ele>
        <time>2023-07-22T14:22:14.115Z</time>
      </trkpt>
      <trkpt lat="47.86478" lon="-2.51761">
        <ele>94</ele>
        <time>2023-07-22T14:22:15.115Z</time>
      </trkpt>
      <trkpt lat="47.86478" lon="-2.51763">
        <ele>94</ele>
        <time>2023-07-22T14:22:16.114Z</time>
      </trkpt>
      <trkpt lat="47.86478" lon="-2.51764">
        <ele>95</ele>
        <time>2023-07-22T14:22:17.115Z</time>
      </trkpt>
      <trkpt lat="47.86479" lon="-2.51765">
        <ele>95</ele>
        <time>2023-07-22T14:22:18.114Z</time>
      </trkpt>
      <trkpt lat="47.8648" lon="-2.51766">
        <ele>96</ele>
        <time>2023-07-22T14:22:19.115Z</time>
      </trkpt>
      <trkpt lat="47.8648" lon="-2.51768">
        <ele>96</ele>
        <time>2023-07-22T14:22:20.115Z</time>
      </trkpt>
      <trkpt lat="47.86481" lon="-2.51769">
        <ele>97</ele>
        <time>2023-07-22T14:22:21.114Z</time>
      </trkpt>
      <trkpt lat="47.86481" lon="-2.5177">
        <ele>97</ele>
        <time>2023-07-22T14:22:22.114Z</time>
      </trkpt>
      <trkpt lat="47.86481" lon="-2.51771">
        <ele>97</ele>
        <time>2023-07-22T14:22:23.115Z</time>
      </trkpt>
      <trkpt lat="47.86482" lon="-2.51771">
        <ele>97</ele>
        <time>2023-07-22T14:22:24.114Z</time>
      </trkpt>
      <trkpt lat="47.86483" lon="-2.51772">
        <ele>97</ele>
        <time>2023-07-22T14:22:25.115Z</time>
      </trkpt>
      <trkpt lat="47.86484" lon="-2.51772">
        <ele>96</ele>
        <time>2023-07-22T14:22:26.114Z</time>
      </trkpt>
      <trkpt lat="47.86485" lon="-2.51773">
        <ele>96</ele>
        <time>2023-07-22T14:22:27.114Z</time>
      </trkpt>
      <trkpt lat="47.86485" lon="-2.51773">
        <ele>95</ele>
        <time>2023-07-22T14:22:28.114Z</time>
      </trkpt>
      <trkpt lat="47.86486" lon="-2.51774">
        <ele>94</ele>
        <time>2023-07-22T14:22:29.114Z</time>
      </trkpt>
      <trkpt lat="47.86487" lon="-2.51774">
        <ele>94</ele>
        <time>2023-07-22T14:22:30.114Z</time>
      </trkpt>
      <trkpt lat="47.86488" lon="-2.51774">
        <ele>93</ele>
        <time>2023-07-22T14:22:31.115Z</time>
      </trkpt>
      <trkpt lat="47.86488" lon="-2.51774">
        <ele>93</ele>
        <time>2023-07-22T14:22:32.114Z</time>
      </trkpt>
      <trkpt lat="47.86488" lon="-2.51775">
        <ele>92</ele>
        <time>2023-07-22T14:22:33.115Z</time>
      </trkpt>
      <trkpt lat="47.86489" lon="-2.51774">
        <ele>92</ele>
        <time>2023-07-22T14:22:34.114Z</time>
      </trkpt>
      <trkpt lat="47.8649" lon="-2.51773">
        <ele>92</ele>
        <time>2023-07-22T14:22:35.114Z</time>
      </trkpt>
      <trkpt lat="47.8649" lon="-2.51773">
        <ele>92</ele>
        <time>2023-07-22T14:22:36.114Z</time>
      </trkpt>
      <trkpt lat="47.8649" lon="-2.51773">
        <ele>93</ele>
        <time>2023-07-22T14:22:37.114Z</time>
      </trkpt>
      <trkpt lat="47.8649" lon="-2.51773">
        <ele>93</ele>
        <time>2023-07-22T14:22:38.114Z</time>
      </trkpt>
      <trkpt lat="47.86492" lon="-2.51773">
        <ele>95</ele>
        <time>2023-07-22T14:23:11.308Z</time>
      </trkpt>
      <trkpt lat="47.86492" lon="-2.51772">
        <ele>95</ele>
        <time>2023-07-22T14:23:12.308Z</time>
      </trkpt>
      <trkpt lat="47.86492" lon="-2.51772">
        <ele>95</ele>
        <time>2023-07-22T14:23:13.308Z</time>
      </trkpt>
      <trkpt lat="47.86492" lon="-2.51772">
        <ele>95</ele>
        <time>2023-07-22T14:23:14.309Z</time>
      </trkpt>
      <trkpt lat="47.86492" lon="-2.51771">
        <ele>95</ele>
        <time>2023-07-22T14:23:15.308Z</time>
      </trkpt>
      <trkpt lat="47.86492" lon="-2.51768">
        <ele>95</ele>
        <time>2023-07-22T14:23:21.917Z</time>
      </trkpt>
      <trkpt lat="47.86491" lon="-2.51768">
        <ele>95</ele>
        <time>2023-07-22T14:23:22.917Z</time>
      </trkpt>
      <trkpt lat="47.86491" lon="-2.51768">
        <ele>95</ele>
        <time>2023-07-22T14:23:23.917Z</time>
      </trkpt>
      <trkpt lat="47.86491" lon="-2.51767">
        <ele>95</ele>
        <time>2023-07-22T14:23:24.917Z</time>
      </trkpt>
      <trkpt lat="47.86493" lon="-2.51761">
        <ele>92</ele>
        <time>2023-07-22T14:23:37.085Z</time>
      </trkpt>
      <trkpt lat="47.86494" lon="-2.51759">
        <ele>92</ele>
        <time>2023-07-22T14:23:38.084Z</time>
      </trkpt>
      <trkpt lat="47.86494" lon="-2.51758">
        <ele>92</ele>
        <time>2023-07-22T14:23:39.085Z</time>
      </trkpt>
      <trkpt lat="47.86495" lon="-2.51756">
        <ele>92</ele>
        <time>2023-07-22T14:23:40.085Z</time>
      </trkpt>
      <trkpt lat="47.86495" lon="-2.51755">
        <ele>91</ele>
        <time>2023-07-22T14:23:41.084Z</time>
      </trkpt>
      <trkpt lat="47.86495" lon="-2.51753">
        <ele>91</ele>
        <time>2023-07-22T14:23:42.084Z</time>
      </trkpt>
      <trkpt lat="47.86495" lon="-2.51751">
        <ele>91</ele>
        <time>2023-07-22T14:23:43.085Z</time>
      </trkpt>
      <trkpt lat="47.86495" lon="-2.51749">
        <ele>91</ele>
        <time>2023-07-22T14:23:44.084Z</time>
      </trkpt>
      <trkpt lat="47.86496" lon="-2.51748">
        <ele>91</ele>
        <time>2023-07-22T14:23:45.084Z</time>
      </trkpt>
      <trkpt lat="47.86496" lon="-2.51746">
        <ele>90</ele>
        <time>2023-07-22T14:23:46.084Z</time>
      </trkpt>
      <trkpt lat="47.86497" lon="-2.51745">
        <ele>90</ele>
        <time>2023-07-22T14:23:47.084Z</time>
      </trkpt>
      <trkpt lat="47.86497" lon="-2.51744">
        <ele>90</ele>
        <time>2023-07-22T14:23:48.085Z</time>
      </trkpt>
      <trkpt lat="47.86498" lon="-2.51742">
        <ele>90</ele>
        <time>2023-07-22T14:23:49.084Z</time>
      </trkpt>
      <trkpt lat="47.86498" lon="-2.51741">
        <ele>90</ele>
        <time>2023-07-22T14:23:50.085Z</time>
      </trkpt>
      <trkpt lat="47.86499" lon="-2.5174">
        <ele>90</ele>
        <time>2023-07-22T14:23:51.084Z</time>
      </trkpt>
      <trkpt lat="47.86499" lon="-2.51738">
        <ele>90</ele>
        <time>2023-07-22T14:23:52.085Z</time>
      </trkpt>
      <trkpt lat="47.86499" lon="-2.51737">
        <ele>90</ele>
        <time>2023-07-22T14:23:53.084Z</time>
      </trkpt>
      <trkpt lat="47.86499" lon="-2.51735">
        <ele>89</ele>
        <time>2023-07-22T14:23:54.085Z</time>
      </trkpt>
      <trkpt lat="47.86499" lon="-2.51735">
        <ele>89</ele>
        <time>2023-07-22T14:23:55.084Z</time>
      </trkpt>
      <trkpt lat="47.86499" lon="-2.51734">
        <ele>89</ele>
        <time>2023-07-22T14:23:56.085Z</time>
      </trkpt>
      <trkpt lat="47.86499" lon="-2.51733">
        <ele>88</ele>
        <time>2023-07-22T14:23:57.084Z</time>
      </trkpt>
      <trkpt lat="47.86499" lon="-2.51733">
        <ele>88</ele>
        <time>2023-07-22T14:23:58.084Z</time>
      </trkpt>
      <trkpt lat="47.86499" lon="-2.51732">
        <ele>87</ele>
        <time>2023-07-22T14:23:59.085Z</time>
      </trkpt>
      <trkpt lat="47.86501" lon="-2.51725">
        <ele>86</ele>
        <time>2023-07-22T14:24:05.392Z</time>
      </trkpt>
      <trkpt lat="47.86501" lon="-2.51723">
        <ele>86</ele>
        <time>2023-07-22T14:24:06.392Z</time>
      </trkpt>
      <trkpt lat="47.86502" lon="-2.51722">
        <ele>87</ele>
        <time>2023-07-22T14:24:07.393Z</time>
      </trkpt>
      <trkpt lat="47.86503" lon="-2.5172">
        <ele>87</ele>
        <time>2023-07-22T14:24:08.392Z</time>
      </trkpt>
      <trkpt lat="47.86503" lon="-2.51719">
        <ele>87</ele>
        <time>2023-07-22T14:24:09.393Z</time>
      </trkpt>
      <trkpt lat="47.86504" lon="-2.51717">
        <ele>87</ele>
        <time>2023-07-22T14:24:10.392Z</time>
      </trkpt>
      <trkpt lat="47.86505" lon="-2.51716">
        <ele>87</ele>
        <time>2023-07-22T14:24:11.393Z</time>
      </trkpt>
      <trkpt lat="47.86506" lon="-2.51715">
        <ele>87</ele>
        <time>2023-07-22T14:24:12.392Z</time>
      </trkpt>
      <trkpt lat="47.86506" lon="-2.51714">
        <ele>88</ele>
        <time>2023-07-22T14:24:13.393Z</time>
      </trkpt>
      <trkpt lat="47.86507" lon="-2.51712">
        <ele>88</ele>
        <time>2023-07-22T14:24:14.393Z</time>
      </trkpt>
      <trkpt lat="47.86508" lon="-2.51711">
        <ele>88</ele>
        <time>2023-07-22T14:24:15.393Z</time>
      </trkpt>
      <trkpt lat="47.86508" lon="-2.5171">
        <ele>88</ele>
        <time>2023-07-22T14:24:16.392Z</time>
      </trkpt>
      <trkpt lat="47.86509" lon="-2.51709">
        <ele>88</ele>
        <time>2023-07-22T14:24:17.393Z</time>
      </trkpt>
      <trkpt lat="47.86509" lon="-2.51707">
        <ele>88</ele>
        <time>2023-07-22T14:24:18.393Z</time>
      </trkpt>
      <trkpt lat="47.8651" lon="-2.51706">
        <ele>88</ele>
        <time>2023-07-22T14:24:19.393Z</time>
      </trkpt>
      <trkpt lat="47.86511" lon="-2.51704">
        <ele>88</ele>
        <time>2023-07-22T14:24:20.392Z</time>
      </trkpt>
      <trkpt lat="47.86512" lon="-2.51703">
        <ele>87</ele>
        <time>2023-07-22T14:24:21.392Z</time>
      </trkpt>
      <trkpt lat="47.86513" lon="-2.51702">
        <ele>87</ele>
        <time>2023-07-22T14:24:22.392Z</time>
      </trkpt>
      <trkpt lat="47.86514" lon="-2.51701">
        <ele>87</ele>
        <time>2023-07-22T14:24:23.393Z</time>
      </trkpt>
      <trkpt lat="47.86515" lon="-2.517">
        <ele>86</ele>
        <time>2023-07-22T14:24:24.393Z</time>
      </trkpt>
      <trkpt lat="47.86516" lon="-2.51699">
        <ele>86</ele>
        <time>2023-07-22T14:24:25.393Z</time>
      </trkpt>
      <trkpt lat="47.86517" lon="-2.51698">
        <ele>86</ele>
        <time>2023-07-22T14:24:26.392Z</time>
      </trkpt>
      <trkpt lat="47.86518" lon="-2.51697">
        <ele>85</ele>
        <time>2023-07-22T14:24:27.392Z</time>
      </trkpt>
      <trkpt lat="47.86518" lon="-2.51696">
        <ele>85</ele>
        <time>2023-07-22T14:24:28.393Z</time>
      </trkpt>
      <trkpt lat="47.86518" lon="-2.51694">
        <ele>85</ele>
        <time>2023-07-22T14:24:29.393Z</time>
      </trkpt>
      <trkpt lat="47.86518" lon="-2.51692">
        <ele>85</ele>
        <time>2023-07-22T14:24:30.393Z</time>
      </trkpt>
      <trkpt lat="47.86519" lon="-2.51691">
        <ele>85</ele>
        <time>2023-07-22T14:24:31.392Z</time>
      </trkpt>
      <trkpt lat="47.86519" lon="-2.51689">
        <ele>85</ele>
        <time>2023-07-22T14:24:32.392Z</time>
      </trkpt>
      <trkpt lat="47.86518" lon="-2.51687">
        <ele>85</ele>
        <time>2023-07-22T14:24:33.392Z</time>
      </trkpt>
      <trkpt lat="47.8652" lon="-2.51686">
        <ele>85</ele>
        <time>2023-07-22T14:24:34.392Z</time>
      </trkpt>
      <trkpt lat="47.86521" lon="-2.51687">
        <ele>85</ele>
        <time>2023-07-22T14:24:35.393Z</time>
      </trkpt>
      <trkpt lat="47.86522" lon="-2.51685">
        <ele>85</ele>
        <time>2023-07-22T14:24:36.392Z</time>
      </trkpt>
      <trkpt lat="47.86523" lon="-2.51684">
        <ele>85</ele>
        <time>2023-07-22T14:24:37.392Z</time>
      </trkpt>
      <trkpt lat="47.86524" lon="-2.51684">
        <ele>85</ele>
        <time>2023-07-22T14:24:38.392Z</time>
      </trkpt>
      <trkpt lat="47.86525" lon="-2.51683">
        <ele>85</ele>
        <time>2023-07-22T14:24:39.392Z</time>
      </trkpt>
      <trkpt lat="47.86526" lon="-2.51683">
        <ele>85</ele>
        <time>2023-07-22T14:24:40.393Z</time>
      </trkpt>
      <trkpt lat="47.86527" lon="-2.51681">
        <ele>85</ele>
        <time>2023-07-22T14:24:41.393Z</time>
      </trkpt>
      <trkpt lat="47.86527" lon="-2.5168">
        <ele>85</ele>
        <time>2023-07-22T14:24:42.392Z</time>
      </trkpt>
      <trkpt lat="47.86527" lon="-2.51678">
        <ele>85</ele>
        <time>2023-07-22T14:24:43.392Z</time>
      </trkpt>
      <trkpt lat="47.86528" lon="-2.51678">
        <ele>84</ele>
        <time>2023-07-22T14:24:44.393Z</time>
      </trkpt>
      <trkpt lat="47.86529" lon="-2.51678">
        <ele>84</ele>
        <time>2023-07-22T14:24:45.392Z</time>
      </trkpt>
      <trkpt lat="47.8653" lon="-2.51678">
        <ele>84</ele>
        <time>2023-07-22T14:24:46.392Z</time>
      </trkpt>
      <trkpt lat="47.86532" lon="-2.51677">
        <ele>84</ele>
        <time>2023-07-22T14:24:47.393Z</time>
      </trkpt>
      <trkpt lat="47.86533" lon="-2.51676">
        <ele>84</ele>
        <time>2023-07-22T14:24:48.393Z</time>
      </trkpt>
      <trkpt lat="47.86534" lon="-2.51676">
        <ele>83</ele>
        <time>2023-07-22T14:24:49.392Z</time>
      </trkpt>
      <trkpt lat="47.86535" lon="-2.51676">
        <ele>83</ele>
        <time>2023-07-22T14:24:50.392Z</time>
      </trkpt>
      <trkpt lat="47.86536" lon="-2.51675">
        <ele>83</ele>
        <time>2023-07-22T14:24:51.392Z</time>
      </trkpt>
      <trkpt lat="47.86537" lon="-2.51675">
        <ele>83</ele>
        <time>2023-07-22T14:24:52.392Z</time>
      </trkpt>
      <trkpt lat="47.86538" lon="-2.51674">
        <ele>83</ele>
        <time>2023-07-22T14:24:53.393Z</time>
      </trkpt>
      <trkpt lat="47.86539" lon="-2.51673">
        <ele>83</ele>
        <time>2023-07-22T14:24:54.393Z</time>
      </trkpt>
      <trkpt lat="47.8654" lon="-2.51672">
        <ele>83</ele>
        <time>2023-07-22T14:24:55.392Z</time>
      </trkpt>
      <trkpt lat="47.86541" lon="-2.51671">
        <ele>83</ele>
        <time>2023-07-22T14:24:56.393Z</time>
      </trkpt>
      <trkpt lat="47.86542" lon="-2.5167">
        <ele>83</ele>
        <time>2023-07-22T14:24:57.392Z</time>
      </trkpt>
      <trkpt lat="47.86543" lon="-2.51669">
        <ele>83</ele>
        <time>2023-07-22T14:24:58.393Z</time>
      </trkpt>
      <trkpt lat="47.86544" lon="-2.51667">
        <ele>84</ele>
        <time>2023-07-22T14:24:59.392Z</time>
      </trkpt>
      <trkpt lat="47.86544" lon="-2.51666">
        <ele>84</ele>
        <time>2023-07-22T14:25:00.393Z</time>
      </trkpt>
      <trkpt lat="47.86545" lon="-2.51665">
        <ele>84</ele>
        <time>2023-07-22T14:25:01.392Z</time>
      </trkpt>
      <trkpt lat="47.86544" lon="-2.51662">
        <ele>84</ele>
        <time>2023-07-22T14:25:02.393Z</time>
      </trkpt>
      <trkpt lat="47.86546" lon="-2.5166">
        <ele>84</ele>
        <time>2023-07-22T14:25:03.392Z</time>
      </trkpt>
      <trkpt lat="47.86547" lon="-2.51659">
        <ele>85</ele>
        <time>2023-07-22T14:25:04.393Z</time>
      </trkpt>
      <trkpt lat="47.86548" lon="-2.51657">
        <ele>85</ele>
        <time>2023-07-22T14:25:05.392Z</time>
      </trkpt>
      <trkpt lat="47.86548" lon="-2.51656">
        <ele>85</ele>
        <time>2023-07-22T14:25:06.393Z</time>
      </trkpt>
      <trkpt lat="47.86549" lon="-2.51655">
        <ele>85</ele>
        <time>2023-07-22T14:25:07.392Z</time>
      </trkpt>
      <trkpt lat="47.8655" lon="-2.51655">
        <ele>85</ele>
        <time>2023-07-22T14:25:08.392Z</time>
      </trkpt>
      <trkpt lat="47.86551" lon="-2.51654">
        <ele>85</ele>
        <time>2023-07-22T14:25:09.392Z</time>
      </trkpt>
      <trkpt lat="47.86552" lon="-2.51653">
        <ele>85</ele>
        <time>2023-07-22T14:25:10.392Z</time>
      </trkpt>
      <trkpt lat="47.86553" lon="-2.51652">
        <ele>84</ele>
        <time>2023-07-22T14:25:11.392Z</time>
      </trkpt>
      <trkpt lat="47.86554" lon="-2.51652">
        <ele>84</ele>
        <time>2023-07-22T14:25:12.393Z</time>
      </trkpt>
      <trkpt lat="47.86555" lon="-2.51651">
        <ele>84</ele>
        <time>2023-07-22T14:25:13.393Z</time>
      </trkpt>
      <trkpt lat="47.86556" lon="-2.5165">
        <ele>84</ele>
        <time>2023-07-22T14:25:14.392Z</time>
      </trkpt>
      <trkpt lat="47.86557" lon="-2.51649">
        <ele>84</ele>
        <time>2023-07-22T14:25:15.393Z</time>
      </trkpt>
      <trkpt lat="47.86559" lon="-2.51649">
        <ele>84</ele>
        <time>2023-07-22T14:25:16.393Z</time>
      </trkpt>
      <trkpt lat="47.8656" lon="-2.51649">
        <ele>84</ele>
        <time>2023-07-22T14:25:17.393Z</time>
      </trkpt>
      <trkpt lat="47.8656" lon="-2.51648">
        <ele>84</ele>
        <time>2023-07-22T14:25:18.393Z</time>
      </trkpt>
      <trkpt lat="47.86561" lon="-2.51646">
        <ele>84</ele>
        <time>2023-07-22T14:25:19.392Z</time>
      </trkpt>
      <trkpt lat="47.86562" lon="-2.51646">
        <ele>84</ele>
        <time>2023-07-22T14:25:20.393Z</time>
      </trkpt>
      <trkpt lat="47.86562" lon="-2.51644">
        <ele>84</ele>
        <time>2023-07-22T14:25:21.393Z</time>
      </trkpt>
      <trkpt lat="47.86563" lon="-2.51643">
        <ele>84</ele>
        <time>2023-07-22T14:25:22.392Z</time>
      </trkpt>
      <trkpt lat="47.86565" lon="-2.51641">
        <ele>84</ele>
        <time>2023-07-22T14:25:23.392Z</time>
      </trkpt>
      <trkpt lat="47.86566" lon="-2.5164">
        <ele>84</ele>
        <time>2023-07-22T14:25:24.393Z</time>
      </trkpt>
      <trkpt lat="47.86568" lon="-2.51639">
        <ele>84</ele>
        <time>2023-07-22T14:25:25.392Z</time>
      </trkpt>
      <trkpt lat="47.86569" lon="-2.51638">
        <ele>84</ele>
        <time>2023-07-22T14:25:26.392Z</time>
      </trkpt>
      <trkpt lat="47.8657" lon="-2.51638">
        <ele>84</ele>
        <time>2023-07-22T14:25:27.392Z</time>
      </trkpt>
      <trkpt lat="47.86571" lon="-2.51637">
        <ele>83</ele>
        <time>2023-07-22T14:25:28.392Z</time>
      </trkpt>
      <trkpt lat="47.86572" lon="-2.51637">
        <ele>83</ele>
        <time>2023-07-22T14:25:29.392Z</time>
      </trkpt>
      <trkpt lat="47.86574" lon="-2.51637">
        <ele>83</ele>
        <time>2023-07-22T14:25:30.393Z</time>
      </trkpt>
      <trkpt lat="47.86575" lon="-2.51636">
        <ele>83</ele>
        <time>2023-07-22T14:25:31.392Z</time>
      </trkpt>
      <trkpt lat="47.86576" lon="-2.51636">
        <ele>83</ele>
        <time>2023-07-22T14:25:32.392Z</time>
      </trkpt>
      <trkpt lat="47.86577" lon="-2.51636">
        <ele>83</ele>
        <time>2023-07-22T14:25:33.392Z</time>
      </trkpt>
      <trkpt lat="47.86579" lon="-2.51636">
        <ele>83</ele>
        <time>2023-07-22T14:25:34.393Z</time>
      </trkpt>
      <trkpt lat="47.8658" lon="-2.51635">
        <ele>83</ele>
        <time>2023-07-22T14:25:35.392Z</time>
      </trkpt>
      <trkpt lat="47.86581" lon="-2.51636">
        <ele>83</ele>
        <time>2023-07-22T14:25:36.392Z</time>
      </trkpt>
      <trkpt lat="47.86582" lon="-2.51636">
        <ele>84</ele>
        <time>2023-07-22T14:25:37.392Z</time>
      </trkpt>
      <trkpt lat="47.86583" lon="-2.51637">
        <ele>84</ele>
        <time>2023-07-22T14:25:38.392Z</time>
      </trkpt>
      <trkpt lat="47.86584" lon="-2.51637">
        <ele>84</ele>
        <time>2023-07-22T14:25:39.393Z</time>
      </trkpt>
      <trkpt lat="47.86585" lon="-2.51638">
        <ele>85</ele>
        <time>2023-07-22T14:25:40.392Z</time>
      </trkpt>
      <trkpt lat="47.86586" lon="-2.51639">
        <ele>86</ele>
        <time>2023-07-22T14:25:41.393Z</time>
      </trkpt>
      <trkpt lat="47.86586" lon="-2.5164">
        <ele>86</ele>
        <time>2023-07-22T14:25:42.393Z</time>
      </trkpt>
      <trkpt lat="47.86587" lon="-2.51641">
        <ele>87</ele>
        <time>2023-07-22T14:25:43.392Z</time>
      </trkpt>
      <trkpt lat="47.86587" lon="-2.51643">
        <ele>88</ele>
        <time>2023-07-22T14:25:44.393Z</time>
      </trkpt>
      <trkpt lat="47.86589" lon="-2.51644">
        <ele>88</ele>
        <time>2023-07-22T14:25:45.392Z</time>
      </trkpt>
      <trkpt lat="47.8659" lon="-2.51645">
        <ele>89</ele>
        <time>2023-07-22T14:25:46.392Z</time>
      </trkpt>
      <trkpt lat="47.86591" lon="-2.51646">
        <ele>89</ele>
        <time>2023-07-22T14:25:47.393Z</time>
      </trkpt>
      <trkpt lat="47.86591" lon="-2.51647">
        <ele>90</ele>
        <time>2023-07-22T14:25:48.392Z</time>
      </trkpt>
      <trkpt lat="47.86592" lon="-2.51648">
        <ele>91</ele>
        <time>2023-07-22T14:25:49.393Z</time>
      </trkpt>
      <trkpt lat="47.86592" lon="-2.51649">
        <ele>91</ele>
        <time>2023-07-22T14:25:50.392Z</time>
      </trkpt>
      <trkpt lat="47.86593" lon="-2.5165">
        <ele>91</ele>
        <time>2023-07-22T14:25:51.392Z</time>
      </trkpt>
      <trkpt lat="47.86593" lon="-2.51651">
        <ele>92</ele>
        <time>2023-07-22T14:25:52.392Z</time>
      </trkpt>
      <trkpt lat="47.86594" lon="-2.51652">
        <ele>92</ele>
        <time>2023-07-22T14:25:53.393Z</time>
      </trkpt>
      <trkpt lat="47.86594" lon="-2.51653">
        <ele>92</ele>
        <time>2023-07-22T14:25:54.392Z</time>
      </trkpt>
      <trkpt lat="47.86595" lon="-2.51653">
        <ele>92</ele>
        <time>2023-07-22T14:25:55.392Z</time>
      </trkpt>
      <trkpt lat="47.86595" lon="-2.51654">
        <ele>92</ele>
        <time>2023-07-22T14:25:56.392Z</time>
      </trkpt>
      <trkpt lat="47.86596" lon="-2.51656">
        <ele>92</ele>
        <time>2023-07-22T14:25:57.392Z</time>
      </trkpt>
      <trkpt lat="47.86596" lon="-2.51657">
        <ele>92</ele>
        <time>2023-07-22T14:25:58.392Z</time>
      </trkpt>
      <trkpt lat="47.86597" lon="-2.51658">
        <ele>92</ele>
        <time>2023-07-22T14:25:59.392Z</time>
      </trkpt>
      <trkpt lat="47.86597" lon="-2.5166">
        <ele>92</ele>
        <time>2023-07-22T14:26:00.393Z</time>
      </trkpt>
      <trkpt lat="47.86598" lon="-2.51662">
        <ele>92</ele>
        <time>2023-07-22T14:26:01.392Z</time>
      </trkpt>
      <trkpt lat="47.86598" lon="-2.51663">
        <ele>92</ele>
        <time>2023-07-22T14:26:02.392Z</time>
      </trkpt>
      <trkpt lat="47.86599" lon="-2.51664">
        <ele>92</ele>
        <time>2023-07-22T14:26:03.392Z</time>
      </trkpt>
      <trkpt lat="47.86599" lon="-2.51665">
        <ele>92</ele>
        <time>2023-07-22T14:26:04.392Z</time>
      </trkpt>
      <trkpt lat="47.86598" lon="-2.51665">
        <ele>91</ele>
        <time>2023-07-22T14:26:05.393Z</time>
      </trkpt>
      <trkpt lat="47.86598" lon="-2.51665">
        <ele>91</ele>
        <time>2023-07-22T14:26:06.393Z</time>
      </trkpt>
      <trkpt lat="47.86598" lon="-2.51667">
        <ele>91</ele>
        <time>2023-07-22T14:26:07.393Z</time>
      </trkpt>
      <trkpt lat="47.86599" lon="-2.51669">
        <ele>92</ele>
        <time>2023-07-22T14:26:08.392Z</time>
      </trkpt>
      <trkpt lat="47.866" lon="-2.5167">
        <ele>92</ele>
        <time>2023-07-22T14:26:09.392Z</time>
      </trkpt>
      <trkpt lat="47.86601" lon="-2.51672">
        <ele>92</ele>
        <time>2023-07-22T14:26:10.392Z</time>
      </trkpt>
      <trkpt lat="47.86603" lon="-2.51673">
        <ele>92</ele>
        <time>2023-07-22T14:26:11.392Z</time>
      </trkpt>
      <trkpt lat="47.86604" lon="-2.51674">
        <ele>92</ele>
        <time>2023-07-22T14:26:12.392Z</time>
      </trkpt>
      <trkpt lat="47.86604" lon="-2.51675">
        <ele>92</ele>
        <time>2023-07-22T14:26:13.392Z</time>
      </trkpt>
      <trkpt lat="47.86605" lon="-2.51675">
        <ele>91</ele>
        <time>2023-07-22T14:26:14.392Z</time>
      </trkpt>
      <trkpt lat="47.86606" lon="-2.51676">
        <ele>91</ele>
        <time>2023-07-22T14:26:15.392Z</time>
      </trkpt>
      <trkpt lat="47.86607" lon="-2.51676">
        <ele>91</ele>
        <time>2023-07-22T14:26:16.392Z</time>
      </trkpt>
      <trkpt lat="47.86608" lon="-2.51676">
        <ele>91</ele>
        <time>2023-07-22T14:26:17.392Z</time>
      </trkpt>
      <trkpt lat="47.86609" lon="-2.51677">
        <ele>90</ele>
        <time>2023-07-22T14:26:18.392Z</time>
      </trkpt>
      <trkpt lat="47.86609" lon="-2.51677">
        <ele>90</ele>
        <time>2023-07-22T14:26:19.393Z</time>
      </trkpt>
      <trkpt lat="47.86609" lon="-2.51677">
        <ele>90</ele>
        <time>2023-07-22T14:26:20.393Z</time>
      </trkpt>
      <trkpt lat="47.8661" lon="-2.51677">
        <ele>90</ele>
        <time>2023-07-22T14:26:21.392Z</time>
      </trkpt>
      <trkpt lat="47.86611" lon="-2.51677">
        <ele>90</ele>
        <time>2023-07-22T14:26:22.392Z</time>
      </trkpt>
      <trkpt lat="47.86611" lon="-2.51677">
        <ele>90</ele>
        <time>2023-07-22T14:26:23.392Z</time>
      </trkpt>
      <trkpt lat="47.86609" lon="-2.51673">
        <ele>87</ele>
        <time>2023-07-22T14:26:30.771Z</time>
      </trkpt>
      <trkpt lat="47.86608" lon="-2.51671">
        <ele>87</ele>
        <time>2023-07-22T14:26:31.770Z</time>
      </trkpt>
      <trkpt lat="47.86607" lon="-2.51669">
        <ele>86</ele>
        <time>2023-07-22T14:26:32.770Z</time>
      </trkpt>
      <trkpt lat="47.86606" lon="-2.51669">
        <ele>86</ele>
        <time>2023-07-22T14:26:33.770Z</time>
      </trkpt>
      <trkpt lat="47.86606" lon="-2.51669">
        <ele>86</ele>
        <time>2023-07-22T14:26:34.771Z</time>
      </trkpt>
      <trkpt lat="47.86605" lon="-2.51669">
        <ele>85</ele>
        <time>2023-07-22T14:26:35.770Z</time>
      </trkpt>
      <trkpt lat="47.86606" lon="-2.5167">
        <ele>85</ele>
        <time>2023-07-22T14:26:36.770Z</time>
      </trkpt>
      <trkpt lat="47.86606" lon="-2.51671">
        <ele>85</ele>
        <time>2023-07-22T14:26:37.770Z</time>
      </trkpt>
      <trkpt lat="47.86606" lon="-2.51671">
        <ele>86</ele>
        <time>2023-07-22T14:26:38.770Z</time>
      </trkpt>
      <trkpt lat="47.86607" lon="-2.51672">
        <ele>86</ele>
        <time>2023-07-22T14:26:39.770Z</time>
      </trkpt>
      <trkpt lat="47.86607" lon="-2.51672">
        <ele>86</ele>
        <time>2023-07-22T14:26:40.771Z</time>
      </trkpt>
      <trkpt lat="47.86607" lon="-2.51673">
        <ele>86</ele>
        <time>2023-07-22T14:26:41.771Z</time>
      </trkpt>
      <trkpt lat="47.86608" lon="-2.51674">
        <ele>86</ele>
        <time>2023-07-22T14:26:42.771Z</time>
      </trkpt>
      <trkpt lat="47.86609" lon="-2.51675">
        <ele>87</ele>
        <time>2023-07-22T14:26:43.771Z</time>
      </trkpt>
      <trkpt lat="47.86609" lon="-2.51676">
        <ele>87</ele>
        <time>2023-07-22T14:26:44.771Z</time>
      </trkpt>
      <trkpt lat="47.8661" lon="-2.51677">
        <ele>87</ele>
        <time>2023-07-22T14:26:45.770Z</time>
      </trkpt>
      <trkpt lat="47.86611" lon="-2.51677">
        <ele>87</ele>
        <time>2023-07-22T14:26:46.770Z</time>
      </trkpt>
      <trkpt lat="47.86612" lon="-2.51678">
        <ele>87</ele>
        <time>2023-07-22T14:26:47.770Z</time>
      </trkpt>
      <trkpt lat="47.86613" lon="-2.51679">
        <ele>87</ele>
        <time>2023-07-22T14:26:48.771Z</time>
      </trkpt>
      <trkpt lat="47.86613" lon="-2.51679">
        <ele>87</ele>
        <time>2023-07-22T14:26:49.770Z</time>
      </trkpt>
      <trkpt lat="47.86614" lon="-2.5168">
        <ele>87</ele>
        <time>2023-07-22T14:26:50.771Z</time>
      </trkpt>
      <trkpt lat="47.86616" lon="-2.51682">
        <ele>87</ele>
        <time>2023-07-22T14:26:51.770Z</time>
      </trkpt>
      <trkpt lat="47.86617" lon="-2.51684">
        <ele>87</ele>
        <time>2023-07-22T14:26:52.771Z</time>
      </trkpt>
      <trkpt lat="47.86618" lon="-2.51685">
        <ele>87</ele>
        <time>2023-07-22T14:26:53.771Z</time>
      </trkpt>
      <trkpt lat="47.86618" lon="-2.51686">
        <ele>87</ele>
        <time>2023-07-22T14:26:54.770Z</time>
      </trkpt>
      <trkpt lat="47.86619" lon="-2.51687">
        <ele>87</ele>
        <time>2023-07-22T14:26:55.770Z</time>
      </trkpt>
      <trkpt lat="47.8662" lon="-2.51688">
        <ele>87</ele>
        <time>2023-07-22T14:26:56.770Z</time>
      </trkpt>
      <trkpt lat="47.86621" lon="-2.51689">
        <ele>87</ele>
        <time>2023-07-22T14:26:57.770Z</time>
      </trkpt>
      <trkpt lat="47.86622" lon="-2.51689">
        <ele>87</ele>
        <time>2023-07-22T14:26:58.771Z</time>
      </trkpt>
      <trkpt lat="47.86623" lon="-2.51691">
        <ele>87</ele>
        <time>2023-07-22T14:26:59.771Z</time>
      </trkpt>
      <trkpt lat="47.86624" lon="-2.51693">
        <ele>87</ele>
        <time>2023-07-22T14:27:00.771Z</time>
      </trkpt>
      <trkpt lat="47.86626" lon="-2.51696">
        <ele>87</ele>
        <time>2023-07-22T14:27:01.771Z</time>
      </trkpt>
      <trkpt lat="47.86628" lon="-2.51698">
        <ele>87</ele>
        <time>2023-07-22T14:27:02.771Z</time>
      </trkpt>
      <trkpt lat="47.8663" lon="-2.51701">
        <ele>87</ele>
        <time>2023-07-22T14:27:03.770Z</time>
      </trkpt>
      <trkpt lat="47.86633" lon="-2.51703">
        <ele>87</ele>
        <time>2023-07-22T14:27:04.771Z</time>
      </trkpt>
      <trkpt lat="47.86635" lon="-2.51705">
        <ele>87</ele>
        <time>2023-07-22T14:27:05.770Z</time>
      </trkpt>
      <trkpt lat="47.86637" lon="-2.51707">
        <ele>87</ele>
        <time>2023-07-22T14:27:06.770Z</time>
      </trkpt>
      <trkpt lat="47.86638" lon="-2.51708">
        <ele>87</ele>
        <time>2023-07-22T14:27:07.771Z</time>
      </trkpt>
      <trkpt lat="47.8664" lon="-2.51709">
        <ele>88</ele>
        <time>2023-07-22T14:27:08.771Z</time>
      </trkpt>
      <trkpt lat="47.86642" lon="-2.5171">
        <ele>88</ele>
        <time>2023-07-22T14:27:09.770Z</time>
      </trkpt>
      <trkpt lat="47.86644" lon="-2.51711">
        <ele>88</ele>
        <time>2023-07-22T14:27:10.771Z</time>
      </trkpt>
      <trkpt lat="47.86646" lon="-2.51713">
        <ele>89</ele>
        <time>2023-07-22T14:27:11.770Z</time>
      </trkpt>
      <trkpt lat="47.86647" lon="-2.51714">
        <ele>89</ele>
        <time>2023-07-22T14:27:12.771Z</time>
      </trkpt>
      <trkpt lat="47.86648" lon="-2.51715">
        <ele>90</ele>
        <time>2023-07-22T14:27:13.770Z</time>
      </trkpt>
      <trkpt lat="47.86649" lon="-2.51717">
        <ele>91</ele>
        <time>2023-07-22T14:27:14.771Z</time>
      </trkpt>
      <trkpt lat="47.86649" lon="-2.51719">
        <ele>91</ele>
        <time>2023-07-22T14:27:15.770Z</time>
      </trkpt>
      <trkpt lat="47.8665" lon="-2.51719">
        <ele>92</ele>
        <time>2023-07-22T14:27:16.771Z</time>
      </trkpt>
      <trkpt lat="47.8665" lon="-2.51718">
        <ele>93</ele>
        <time>2023-07-22T14:27:17.770Z</time>
      </trkpt>
      <trkpt lat="47.86651" lon="-2.51718">
        <ele>93</ele>
        <time>2023-07-22T14:27:18.770Z</time>
      </trkpt>
      <trkpt lat="47.86653" lon="-2.51717">
        <ele>94</ele>
        <time>2023-07-22T14:27:19.770Z</time>
      </trkpt>
      <trkpt lat="47.86653" lon="-2.51716">
        <ele>95</ele>
        <time>2023-07-22T14:27:20.770Z</time>
      </trkpt>
      <trkpt lat="47.86654" lon="-2.51717">
        <ele>95</ele>
        <time>2023-07-22T14:27:21.770Z</time>
      </trkpt>
      <trkpt lat="47.86655" lon="-2.51717">
        <ele>96</ele>
        <time>2023-07-22T14:27:22.770Z</time>
      </trkpt>
      <trkpt lat="47.86656" lon="-2.51717">
        <ele>97</ele>
        <time>2023-07-22T14:27:23.771Z</time>
      </trkpt>
      <trkpt lat="47.86658" lon="-2.51717">
        <ele>97</ele>
        <time>2023-07-22T14:27:24.770Z</time>
      </trkpt>
      <trkpt lat="47.8666" lon="-2.51718">
        <ele>97</ele>
        <time>2023-07-22T14:27:25.771Z</time>
      </trkpt>
      <trkpt lat="47.86662" lon="-2.5172">
        <ele>97</ele>
        <time>2023-07-22T14:27:26.770Z</time>
      </trkpt>
      <trkpt lat="47.86663" lon="-2.51718">
        <ele>97</ele>
        <time>2023-07-22T14:27:27.771Z</time>
      </trkpt>
      <trkpt lat="47.86665" lon="-2.51719">
        <ele>97</ele>
        <time>2023-07-22T14:27:28.770Z</time>
      </trkpt>
      <trkpt lat="47.86665" lon="-2.51721">
        <ele>97</ele>
        <time>2023-07-22T14:27:29.771Z</time>
      </trkpt>
      <trkpt lat="47.86667" lon="-2.51722">
        <ele>97</ele>
        <time>2023-07-22T14:27:30.770Z</time>
      </trkpt>
      <trkpt lat="47.86667" lon="-2.51724">
        <ele>97</ele>
        <time>2023-07-22T14:27:31.771Z</time>
      </trkpt>
      <trkpt lat="47.86667" lon="-2.51725">
        <ele>97</ele>
        <time>2023-07-22T14:27:32.771Z</time>
      </trkpt>
      <trkpt lat="47.86665" lon="-2.51725">
        <ele>97</ele>
        <time>2023-07-22T14:27:33.771Z</time>
      </trkpt>
      <trkpt lat="47.86664" lon="-2.51726">
        <ele>97</ele>
        <time>2023-07-22T14:27:34.770Z</time>
      </trkpt>
      <trkpt lat="47.86664" lon="-2.51725">
        <ele>97</ele>
        <time>2023-07-22T14:27:35.771Z</time>
      </trkpt>
      <trkpt lat="47.86663" lon="-2.51726">
        <ele>97</ele>
        <time>2023-07-22T14:27:36.770Z</time>
      </trkpt>
      <trkpt lat="47.86663" lon="-2.51727">
        <ele>97</ele>
        <time>2023-07-22T14:27:37.771Z</time>
      </trkpt>
      <trkpt lat="47.86663" lon="-2.51728">
        <ele>98</ele>
        <time>2023-07-22T14:27:38.770Z</time>
      </trkpt>
      <trkpt lat="47.86663" lon="-2.51729">
        <ele>98</ele>
        <time>2023-07-22T14:27:39.771Z</time>
      </trkpt>
      <trkpt lat="47.86663" lon="-2.5173">
        <ele>98</ele>
        <time>2023-07-22T14:27:40.770Z</time>
      </trkpt>
      <trkpt lat="47.86664" lon="-2.51731">
        <ele>99</ele>
        <time>2023-07-22T14:27:41.770Z</time>
      </trkpt>
      <trkpt lat="47.86665" lon="-2.51732">
        <ele>99</ele>
        <time>2023-07-22T14:27:42.770Z</time>
      </trkpt>
      <trkpt lat="47.86668" lon="-2.51734">
        <ele>99</ele>
        <time>2023-07-22T14:27:43.771Z</time>
      </trkpt>
      <trkpt lat="47.86669" lon="-2.51735">
        <ele>100</ele>
        <time>2023-07-22T14:27:44.770Z</time>
      </trkpt>
      <trkpt lat="47.86671" lon="-2.51736">
        <ele>100</ele>
        <time>2023-07-22T14:27:45.771Z</time>
      </trkpt>
      <trkpt lat="47.86673" lon="-2.51738">
        <ele>100</ele>
        <time>2023-07-22T14:27:46.771Z</time>
      </trkpt>
      <trkpt lat="47.86675" lon="-2.51739">
        <ele>101</ele>
        <time>2023-07-22T14:27:47.770Z</time>
      </trkpt>
      <trkpt lat="47.86676" lon="-2.5174">
        <ele>101</ele>
        <time>2023-07-22T14:27:48.771Z</time>
      </trkpt>
      <trkpt lat="47.86678" lon="-2.5174">
        <ele>102</ele>
        <time>2023-07-22T14:27:49.770Z</time>
      </trkpt>
      <trkpt lat="47.86681" lon="-2.5174">
        <ele>102</ele>
        <time>2023-07-22T14:27:50.771Z</time>
      </trkpt>
      <trkpt lat="47.86683" lon="-2.5174">
        <ele>102</ele>
        <time>2023-07-22T14:27:51.770Z</time>
      </trkpt>
      <trkpt lat="47.86685" lon="-2.5174">
        <ele>102</ele>
        <time>2023-07-22T14:27:52.771Z</time>
      </trkpt>
      <trkpt lat="47.86687" lon="-2.51741">
        <ele>102</ele>
        <time>2023-07-22T14:27:53.770Z</time>
      </trkpt>
      <trkpt lat="47.86688" lon="-2.51742">
        <ele>102</ele>
        <time>2023-07-22T14:27:54.771Z</time>
      </trkpt>
      <trkpt lat="47.86689" lon="-2.51744">
        <ele>102</ele>
        <time>2023-07-22T14:27:55.770Z</time>
      </trkpt>
      <trkpt lat="47.8669" lon="-2.51744">
        <ele>102</ele>
        <time>2023-07-22T14:27:56.771Z</time>
      </trkpt>
      <trkpt lat="47.86691" lon="-2.51744">
        <ele>102</ele>
        <time>2023-07-22T14:27:57.770Z</time>
      </trkpt>
      <trkpt lat="47.86692" lon="-2.51745">
        <ele>102</ele>
        <time>2023-07-22T14:27:58.771Z</time>
      </trkpt>
      <trkpt lat="47.86693" lon="-2.51746">
        <ele>101</ele>
        <time>2023-07-22T14:27:59.770Z</time>
      </trkpt>
      <trkpt lat="47.86693" lon="-2.51745">
        <ele>101</ele>
        <time>2023-07-22T14:28:00.771Z</time>
      </trkpt>
      <trkpt lat="47.86693" lon="-2.51744">
        <ele>100</ele>
        <time>2023-07-22T14:28:01.771Z</time>
      </trkpt>
      <trkpt lat="47.86694" lon="-2.51742">
        <ele>100</ele>
        <time>2023-07-22T14:28:02.771Z</time>
      </trkpt>
      <trkpt lat="47.86695" lon="-2.51744">
        <ele>99</ele>
        <time>2023-07-22T14:28:03.771Z</time>
      </trkpt>
      <trkpt lat="47.86696" lon="-2.51744">
        <ele>99</ele>
        <time>2023-07-22T14:28:04.770Z</time>
      </trkpt>
      <trkpt lat="47.86697" lon="-2.51744">
        <ele>98</ele>
        <time>2023-07-22T14:28:05.770Z</time>
      </trkpt>
      <trkpt lat="47.86698" lon="-2.51745">
        <ele>98</ele>
        <time>2023-07-22T14:28:06.770Z</time>
      </trkpt>
      <trkpt lat="47.86699" lon="-2.51745">
        <ele>98</ele>
        <time>2023-07-22T14:28:07.771Z</time>
      </trkpt>
      <trkpt lat="47.86701" lon="-2.51746">
        <ele>98</ele>
        <time>2023-07-22T14:28:08.770Z</time>
      </trkpt>
      <trkpt lat="47.86702" lon="-2.51746">
        <ele>98</ele>
        <time>2023-07-22T14:28:09.771Z</time>
      </trkpt>
      <trkpt lat="47.86703" lon="-2.51748">
        <ele>98</ele>
        <time>2023-07-22T14:28:10.770Z</time>
      </trkpt>
      <trkpt lat="47.86703" lon="-2.51749">
        <ele>98</ele>
        <time>2023-07-22T14:28:11.771Z</time>
      </trkpt>
      <trkpt lat="47.86706" lon="-2.51749">
        <ele>97</ele>
        <time>2023-07-22T14:28:12.770Z</time>
      </trkpt>
      <trkpt lat="47.86706" lon="-2.51749">
        <ele>97</ele>
        <time>2023-07-22T14:28:13.771Z</time>
      </trkpt>
      <trkpt lat="47.86707" lon="-2.51748">
        <ele>97</ele>
        <time>2023-07-22T14:28:14.770Z</time>
      </trkpt>
      <trkpt lat="47.86709" lon="-2.51747">
        <ele>97</ele>
        <time>2023-07-22T14:28:15.770Z</time>
      </trkpt>
      <trkpt lat="47.86711" lon="-2.51747">
        <ele>97</ele>
        <time>2023-07-22T14:28:16.770Z</time>
      </trkpt>
      <trkpt lat="47.86712" lon="-2.51748">
        <ele>96</ele>
        <time>2023-07-22T14:28:17.771Z</time>
      </trkpt>
      <trkpt lat="47.86713" lon="-2.51748">
        <ele>96</ele>
        <time>2023-07-22T14:28:18.770Z</time>
      </trkpt>
      <trkpt lat="47.86714" lon="-2.51748">
        <ele>95</ele>
        <time>2023-07-22T14:28:19.771Z</time>
      </trkpt>
      <trkpt lat="47.86716" lon="-2.51747">
        <ele>95</ele>
        <time>2023-07-22T14:28:20.770Z</time>
      </trkpt>
      <trkpt lat="47.86716" lon="-2.51747">
        <ele>94</ele>
        <time>2023-07-22T14:28:21.771Z</time>
      </trkpt>
      <trkpt lat="47.86717" lon="-2.51748">
        <ele>94</ele>
        <time>2023-07-22T14:28:22.771Z</time>
      </trkpt>
      <trkpt lat="47.86719" lon="-2.51748">
        <ele>94</ele>
        <time>2023-07-22T14:28:23.771Z</time>
      </trkpt>
      <trkpt lat="47.8672" lon="-2.51748">
        <ele>94</ele>
        <time>2023-07-22T14:28:24.770Z</time>
      </trkpt>
      <trkpt lat="47.86721" lon="-2.51749">
        <ele>93</ele>
        <time>2023-07-22T14:28:25.770Z</time>
      </trkpt>
      <trkpt lat="47.86722" lon="-2.5175">
        <ele>93</ele>
        <time>2023-07-22T14:28:26.770Z</time>
      </trkpt>
      <trkpt lat="47.86723" lon="-2.5175">
        <ele>93</ele>
        <time>2023-07-22T14:28:27.770Z</time>
      </trkpt>
      <trkpt lat="47.86725" lon="-2.51751">
        <ele>93</ele>
        <time>2023-07-22T14:28:28.771Z</time>
      </trkpt>
      <trkpt lat="47.86726" lon="-2.51751">
        <ele>93</ele>
        <time>2023-07-22T14:28:29.770Z</time>
      </trkpt>
      <trkpt lat="47.86727" lon="-2.51751">
        <ele>93</ele>
        <time>2023-07-22T14:28:30.770Z</time>
      </trkpt>
      <trkpt lat="47.86729" lon="-2.51751">
        <ele>93</ele>
        <time>2023-07-22T14:28:31.770Z</time>
      </trkpt>
      <trkpt lat="47.8673" lon="-2.51752">
        <ele>93</ele>
        <time>2023-07-22T14:28:32.771Z</time>
      </trkpt>
      <trkpt lat="47.86732" lon="-2.51753">
        <ele>93</ele>
        <time>2023-07-22T14:28:33.770Z</time>
      </trkpt>
      <trkpt lat="47.86734" lon="-2.51753">
        <ele>93</ele>
        <time>2023-07-22T14:28:34.770Z</time>
      </trkpt>
      <trkpt lat="47.86736" lon="-2.51753">
        <ele>93</ele>
        <time>2023-07-22T14:28:35.771Z</time>
      </trkpt>
      <trkpt lat="47.86738" lon="-2.51753">
        <ele>93</ele>
        <time>2023-07-22T14:28:36.771Z</time>
      </trkpt>
      <trkpt lat="47.86741" lon="-2.51753">
        <ele>93</ele>
        <time>2023-07-22T14:28:37.771Z</time>
      </trkpt>
      <trkpt lat="47.86742" lon="-2.51753">
        <ele>93</ele>
        <time>2023-07-22T14:28:38.770Z</time>
      </trkpt>
      <trkpt lat="47.86743" lon="-2.51753">
        <ele>93</ele>
        <time>2023-07-22T14:28:39.771Z</time>
      </trkpt>
      <trkpt lat="47.86744" lon="-2.51752">
        <ele>93</ele>
        <time>2023-07-22T14:28:40.770Z</time>
      </trkpt>
      <trkpt lat="47.86744" lon="-2.51752">
        <ele>93</ele>
        <time>2023-07-22T14:28:41.771Z</time>
      </trkpt>
      <trkpt lat="47.86745" lon="-2.51751">
        <ele>93</ele>
        <time>2023-07-22T14:28:42.770Z</time>
      </trkpt>
      <trkpt lat="47.86746" lon="-2.51751">
        <ele>93</ele>
        <time>2023-07-22T14:28:43.771Z</time>
      </trkpt>
      <trkpt lat="47.86747" lon="-2.51751">
        <ele>93</ele>
        <time>2023-07-22T14:28:44.770Z</time>
      </trkpt>
      <trkpt lat="47.86748" lon="-2.51751">
        <ele>93</ele>
        <time>2023-07-22T14:28:45.771Z</time>
      </trkpt>
      <trkpt lat="47.86749" lon="-2.51751">
        <ele>93</ele>
        <time>2023-07-22T14:28:46.770Z</time>
      </trkpt>
      <trkpt lat="47.8675" lon="-2.51754">
        <ele>93</ele>
        <time>2023-07-22T14:28:47.771Z</time>
      </trkpt>
      <trkpt lat="47.86751" lon="-2.51756">
        <ele>93</ele>
        <time>2023-07-22T14:28:48.770Z</time>
      </trkpt>
      <trkpt lat="47.86752" lon="-2.51756">
        <ele>93</ele>
        <time>2023-07-22T14:28:49.770Z</time>
      </trkpt>
      <trkpt lat="47.86753" lon="-2.51757">
        <ele>93</ele>
        <time>2023-07-22T14:28:50.770Z</time>
      </trkpt>
      <trkpt lat="47.86753" lon="-2.51759">
        <ele>93</ele>
        <time>2023-07-22T14:28:51.770Z</time>
      </trkpt>
      <trkpt lat="47.86754" lon="-2.51758">
        <ele>93</ele>
        <time>2023-07-22T14:28:52.771Z</time>
      </trkpt>
      <trkpt lat="47.86754" lon="-2.51757">
        <ele>93</ele>
        <time>2023-07-22T14:28:53.770Z</time>
      </trkpt>
      <trkpt lat="47.86755" lon="-2.51756">
        <ele>93</ele>
        <time>2023-07-22T14:28:54.771Z</time>
      </trkpt>
      <trkpt lat="47.86755" lon="-2.51756">
        <ele>93</ele>
        <time>2023-07-22T14:28:55.770Z</time>
      </trkpt>
      <trkpt lat="47.86756" lon="-2.51757">
        <ele>93</ele>
        <time>2023-07-22T14:28:56.771Z</time>
      </trkpt>
      <trkpt lat="47.86756" lon="-2.51757">
        <ele>93</ele>
        <time>2023-07-22T14:28:57.770Z</time>
      </trkpt>
      <trkpt lat="47.86756" lon="-2.51757">
        <ele>93</ele>
        <time>2023-07-22T14:28:58.771Z</time>
      </trkpt>
      <trkpt lat="47.86757" lon="-2.51757">
        <ele>93</ele>
        <time>2023-07-22T14:28:59.770Z</time>
      </trkpt>
      <trkpt lat="47.86759" lon="-2.51757">
        <ele>93</ele>
        <time>2023-07-22T14:29:00.771Z</time>
      </trkpt>
      <trkpt lat="47.86759" lon="-2.51757">
        <ele>93</ele>
        <time>2023-07-22T14:29:01.770Z</time>
      </trkpt>
      <trkpt lat="47.8676" lon="-2.51756">
        <ele>92</ele>
        <time>2023-07-22T14:29:02.771Z</time>
      </trkpt>
      <trkpt lat="47.86761" lon="-2.51755">
        <ele>92</ele>
        <time>2023-07-22T14:29:03.770Z</time>
      </trkpt>
      <trkpt lat="47.86762" lon="-2.51755">
        <ele>91</ele>
        <time>2023-07-22T14:29:04.771Z</time>
      </trkpt>
      <trkpt lat="47.86764" lon="-2.51755">
        <ele>91</ele>
        <time>2023-07-22T14:29:05.770Z</time>
      </trkpt>
      <trkpt lat="47.86766" lon="-2.51754">
        <ele>91</ele>
        <time>2023-07-22T14:29:06.771Z</time>
      </trkpt>
      <trkpt lat="47.86766" lon="-2.51753">
        <ele>91</ele>
        <time>2023-07-22T14:29:07.770Z</time>
      </trkpt>
      <trkpt lat="47.86767" lon="-2.51751">
        <ele>90</ele>
        <time>2023-07-22T14:29:08.770Z</time>
      </trkpt>
      <trkpt lat="47.86768" lon="-2.5175">
        <ele>90</ele>
        <time>2023-07-22T14:29:09.771Z</time>
      </trkpt>
      <trkpt lat="47.86769" lon="-2.5175">
        <ele>90</ele>
        <time>2023-07-22T14:29:10.770Z</time>
      </trkpt>
      <trkpt lat="47.86769" lon="-2.5175">
        <ele>89</ele>
        <time>2023-07-22T14:29:11.771Z</time>
      </trkpt>
      <trkpt lat="47.8677" lon="-2.5175">
        <ele>89</ele>
        <time>2023-07-22T14:29:12.770Z</time>
      </trkpt>
      <trkpt lat="47.86777" lon="-2.51748">
        <ele>87</ele>
        <time>2023-07-22T14:29:19.157Z</time>
      </trkpt>
      <trkpt lat="47.86778" lon="-2.51747">
        <ele>87</ele>
        <time>2023-07-22T14:29:20.158Z</time>
      </trkpt>
      <trkpt lat="47.86779" lon="-2.51746">
        <ele>87</ele>
        <time>2023-07-22T14:29:21.157Z</time>
      </trkpt>
      <trkpt lat="47.8678" lon="-2.51745">
        <ele>87</ele>
        <time>2023-07-22T14:29:22.157Z</time>
      </trkpt>
      <trkpt lat="47.8678" lon="-2.51745">
        <ele>87</ele>
        <time>2023-07-22T14:29:23.157Z</time>
      </trkpt>
      <trkpt lat="47.86781" lon="-2.51745">
        <ele>87</ele>
        <time>2023-07-22T14:29:24.157Z</time>
      </trkpt>
      <trkpt lat="47.86782" lon="-2.51744">
        <ele>87</ele>
        <time>2023-07-22T14:29:25.157Z</time>
      </trkpt>
      <trkpt lat="47.86783" lon="-2.51743">
        <ele>86</ele>
        <time>2023-07-22T14:29:26.158Z</time>
      </trkpt>
      <trkpt lat="47.86783" lon="-2.51741">
        <ele>86</ele>
        <time>2023-07-22T14:29:27.157Z</time>
      </trkpt>
      <trkpt lat="47.86784" lon="-2.51739">
        <ele>86</ele>
        <time>2023-07-22T14:29:28.157Z</time>
      </trkpt>
      <trkpt lat="47.86784" lon="-2.51738">
        <ele>87</ele>
        <time>2023-07-22T14:29:29.158Z</time>
      </trkpt>
      <trkpt lat="47.86785" lon="-2.51738">
        <ele>87</ele>
        <time>2023-07-22T14:29:30.158Z</time>
      </trkpt>
      <trkpt lat="47.86787" lon="-2.51738">
        <ele>88</ele>
        <time>2023-07-22T14:29:31.158Z</time>
      </trkpt>
      <trkpt lat="47.86788" lon="-2.51739">
        <ele>89</ele>
        <time>2023-07-22T14:29:32.157Z</time>
      </trkpt>
      <trkpt lat="47.8679" lon="-2.51739">
        <ele>89</ele>
        <time>2023-07-22T14:29:33.157Z</time>
      </trkpt>
      <trkpt lat="47.8679" lon="-2.51738">
        <ele>90</ele>
        <time>2023-07-22T14:29:34.157Z</time>
      </trkpt>
      <trkpt lat="47.8679" lon="-2.51738">
        <ele>90</ele>
        <time>2023-07-22T14:29:35.158Z</time>
      </trkpt>
      <trkpt lat="47.86791" lon="-2.51736">
        <ele>90</ele>
        <time>2023-07-22T14:29:36.157Z</time>
      </trkpt>
      <trkpt lat="47.86791" lon="-2.51734">
        <ele>90</ele>
        <time>2023-07-22T14:29:37.157Z</time>
      </trkpt>
      <trkpt lat="47.86791" lon="-2.51734">
        <ele>91</ele>
        <time>2023-07-22T14:29:38.157Z</time>
      </trkpt>
      <trkpt lat="47.86792" lon="-2.51733">
        <ele>91</ele>
        <time>2023-07-22T14:29:39.157Z</time>
      </trkpt>
      <trkpt lat="47.86793" lon="-2.51734">
        <ele>91</ele>
        <time>2023-07-22T14:29:40.158Z</time>
      </trkpt>
      <trkpt lat="47.86794" lon="-2.51734">
        <ele>91</ele>
        <time>2023-07-22T14:29:41.158Z</time>
      </trkpt>
      <trkpt lat="47.86795" lon="-2.51735">
        <ele>92</ele>
        <time>2023-07-22T14:29:42.158Z</time>
      </trkpt>
      <trkpt lat="47.86797" lon="-2.51736">
        <ele>92</ele>
        <time>2023-07-22T14:29:43.158Z</time>
      </trkpt>
      <trkpt lat="47.86798" lon="-2.51736">
        <ele>92</ele>
        <time>2023-07-22T14:29:44.157Z</time>
      </trkpt>
      <trkpt lat="47.86799" lon="-2.51734">
        <ele>93</ele>
        <time>2023-07-22T14:29:45.158Z</time>
      </trkpt>
      <trkpt lat="47.86799" lon="-2.51734">
        <ele>93</ele>
        <time>2023-07-22T14:29:46.157Z</time>
      </trkpt>
      <trkpt lat="47.868" lon="-2.51734">
        <ele>93</ele>
        <time>2023-07-22T14:29:47.157Z</time>
      </trkpt>
      <trkpt lat="47.86801" lon="-2.51734">
        <ele>93</ele>
        <time>2023-07-22T14:29:48.157Z</time>
      </trkpt>
      <trkpt lat="47.86803" lon="-2.51734">
        <ele>93</ele>
        <time>2023-07-22T14:29:49.158Z</time>
      </trkpt>
      <trkpt lat="47.86805" lon="-2.51734">
        <ele>93</ele>
        <time>2023-07-22T14:29:50.158Z</time>
      </trkpt>
      <trkpt lat="47.86807" lon="-2.51735">
        <ele>93</ele>
        <time>2023-07-22T14:29:51.157Z</time>
      </trkpt>
      <trkpt lat="47.86808" lon="-2.51735">
        <ele>93</ele>
        <time>2023-07-22T14:29:52.157Z</time>
      </trkpt>
      <trkpt lat="47.86808" lon="-2.51735">
        <ele>93</ele>
        <time>2023-07-22T14:29:53.157Z</time>
      </trkpt>
      <trkpt lat="47.86809" lon="-2.51736">
        <ele>93</ele>
        <time>2023-07-22T14:29:54.157Z</time>
      </trkpt>
      <trkpt lat="47.8681" lon="-2.51736">
        <ele>93</ele>
        <time>2023-07-22T14:29:55.157Z</time>
      </trkpt>
      <trkpt lat="47.86811" lon="-2.51736">
        <ele>93</ele>
        <time>2023-07-22T14:29:56.157Z</time>
      </trkpt>
      <trkpt lat="47.86811" lon="-2.51736">
        <ele>93</ele>
        <time>2023-07-22T14:29:57.157Z</time>
      </trkpt>
      <trkpt lat="47.86813" lon="-2.51736">
        <ele>93</ele>
        <time>2023-07-22T14:29:58.158Z</time>
      </trkpt>
      <trkpt lat="47.86814" lon="-2.51737">
        <ele>93</ele>
        <time>2023-07-22T14:29:59.158Z</time>
      </trkpt>
      <trkpt lat="47.86815" lon="-2.51737">
        <ele>93</ele>
        <time>2023-07-22T14:30:00.157Z</time>
      </trkpt>
      <trkpt lat="47.86814" lon="-2.51737">
        <ele>93</ele>
        <time>2023-07-22T14:30:01.157Z</time>
      </trkpt>
      <trkpt lat="47.86815" lon="-2.51738">
        <ele>93</ele>
        <time>2023-07-22T14:30:02.158Z</time>
      </trkpt>
      <trkpt lat="47.86816" lon="-2.51739">
        <ele>93</ele>
        <time>2023-07-22T14:30:03.158Z</time>
      </trkpt>
      <trkpt lat="47.86817" lon="-2.51739">
        <ele>93</ele>
        <time>2023-07-22T14:30:04.158Z</time>
      </trkpt>
      <trkpt lat="47.86818" lon="-2.51739">
        <ele>93</ele>
        <time>2023-07-22T14:30:05.157Z</time>
      </trkpt>
      <trkpt lat="47.86818" lon="-2.51739">
        <ele>93</ele>
        <time>2023-07-22T14:30:06.158Z</time>
      </trkpt>
      <trkpt lat="47.86819" lon="-2.51739">
        <ele>93</ele>
        <time>2023-07-22T14:30:07.158Z</time>
      </trkpt>
      <trkpt lat="47.86819" lon="-2.51739">
        <ele>93</ele>
        <time>2023-07-22T14:30:08.158Z</time>
      </trkpt>
      <trkpt lat="47.8682" lon="-2.51739">
        <ele>93</ele>
        <time>2023-07-22T14:30:09.158Z</time>
      </trkpt>
      <trkpt lat="47.86821" lon="-2.51738">
        <ele>93</ele>
        <time>2023-07-22T14:30:10.157Z</time>
      </trkpt>
      <trkpt lat="47.86821" lon="-2.51738">
        <ele>93</ele>
        <time>2023-07-22T14:30:11.158Z</time>
      </trkpt>
      <trkpt lat="47.86822" lon="-2.51737">
        <ele>94</ele>
        <time>2023-07-22T14:30:12.158Z</time>
      </trkpt>
      <trkpt lat="47.86824" lon="-2.51737">
        <ele>94</ele>
        <time>2023-07-22T14:30:13.157Z</time>
      </trkpt>
      <trkpt lat="47.86825" lon="-2.51737">
        <ele>95</ele>
        <time>2023-07-22T14:30:14.157Z</time>
      </trkpt>
      <trkpt lat="47.86827" lon="-2.51737">
        <ele>95</ele>
        <time>2023-07-22T14:30:15.158Z</time>
      </trkpt>
      <trkpt lat="47.86828" lon="-2.51736">
        <ele>96</ele>
        <time>2023-07-22T14:30:16.158Z</time>
      </trkpt>
      <trkpt lat="47.86829" lon="-2.51736">
        <ele>97</ele>
        <time>2023-07-22T14:30:17.157Z</time>
      </trkpt>
      <trkpt lat="47.8683" lon="-2.51736">
        <ele>98</ele>
        <time>2023-07-22T14:30:18.157Z</time>
      </trkpt>
      <trkpt lat="47.86831" lon="-2.51736">
        <ele>99</ele>
        <time>2023-07-22T14:30:19.157Z</time>
      </trkpt>
      <trkpt lat="47.86832" lon="-2.51736">
        <ele>99</ele>
        <time>2023-07-22T14:30:20.158Z</time>
      </trkpt>
      <trkpt lat="47.86833" lon="-2.51737">
        <ele>100</ele>
        <time>2023-07-22T14:30:21.158Z</time>
      </trkpt>
      <trkpt lat="47.86834" lon="-2.51737">
        <ele>101</ele>
        <time>2023-07-22T14:30:22.158Z</time>
      </trkpt>
      <trkpt lat="47.86837" lon="-2.51737">
        <ele>101</ele>
        <time>2023-07-22T14:30:23.158Z</time>
      </trkpt>
      <trkpt lat="47.86839" lon="-2.51737">
        <ele>102</ele>
        <time>2023-07-22T14:30:24.158Z</time>
      </trkpt>
      <trkpt lat="47.8684" lon="-2.51737">
        <ele>102</ele>
        <time>2023-07-22T14:30:25.157Z</time>
      </trkpt>
      <trkpt lat="47.86841" lon="-2.51738">
        <ele>102</ele>
        <time>2023-07-22T14:30:26.158Z</time>
      </trkpt>
      <trkpt lat="47.86842" lon="-2.51738">
        <ele>102</ele>
        <time>2023-07-22T14:30:27.158Z</time>
      </trkpt>
      <trkpt lat="47.86843" lon="-2.51738">
        <ele>102</ele>
        <time>2023-07-22T14:30:28.158Z</time>
      </trkpt>
      <trkpt lat="47.86845" lon="-2.51738">
        <ele>102</ele>
        <time>2023-07-22T14:30:29.157Z</time>
      </trkpt>
      <trkpt lat="47.86845" lon="-2.51738">
        <ele>102</ele>
        <time>2023-07-22T14:30:30.157Z</time>
      </trkpt>
      <trkpt lat="47.86846" lon="-2.51738">
        <ele>103</ele>
        <time>2023-07-22T14:30:31.157Z</time>
      </trkpt>
      <trkpt lat="47.86848" lon="-2.51738">
        <ele>103</ele>
        <time>2023-07-22T14:30:32.158Z</time>
      </trkpt>
      <trkpt lat="47.86849" lon="-2.51738">
        <ele>103</ele>
        <time>2023-07-22T14:30:33.157Z</time>
      </trkpt>
      <trkpt lat="47.8685" lon="-2.51738">
        <ele>104</ele>
        <time>2023-07-22T14:30:34.158Z</time>
      </trkpt>
      <trkpt lat="47.86851" lon="-2.51738">
        <ele>104</ele>
        <time>2023-07-22T14:30:35.157Z</time>
      </trkpt>
      <trkpt lat="47.86852" lon="-2.51737">
        <ele>104</ele>
        <time>2023-07-22T14:30:36.158Z</time>
      </trkpt>
      <trkpt lat="47.86854" lon="-2.51737">
        <ele>104</ele>
        <time>2023-07-22T14:30:37.158Z</time>
      </trkpt>
      <trkpt lat="47.86855" lon="-2.51737">
        <ele>104</ele>
        <time>2023-07-22T14:30:38.157Z</time>
      </trkpt>
      <trkpt lat="47.86857" lon="-2.5174">
        <ele>104</ele>
        <time>2023-07-22T14:30:39.157Z</time>
      </trkpt>
      <trkpt lat="47.86857" lon="-2.5174">
        <ele>104</ele>
        <time>2023-07-22T14:30:40.158Z</time>
      </trkpt>
      <trkpt lat="47.86858" lon="-2.51741">
        <ele>104</ele>
        <time>2023-07-22T14:30:41.157Z</time>
      </trkpt>
      <trkpt lat="47.86857" lon="-2.51743">
        <ele>104</ele>
        <time>2023-07-22T14:30:42.157Z</time>
      </trkpt>
      <trkpt lat="47.86858" lon="-2.51744">
        <ele>104</ele>
        <time>2023-07-22T14:30:43.157Z</time>
      </trkpt>
      <trkpt lat="47.86859" lon="-2.51744">
        <ele>104</ele>
        <time>2023-07-22T14:30:44.157Z</time>
      </trkpt>
      <trkpt lat="47.8686" lon="-2.51743">
        <ele>104</ele>
        <time>2023-07-22T14:30:45.157Z</time>
      </trkpt>
      <trkpt lat="47.86861" lon="-2.51743">
        <ele>104</ele>
        <time>2023-07-22T14:30:46.157Z</time>
      </trkpt>
      <trkpt lat="47.86863" lon="-2.51743">
        <ele>104</ele>
        <time>2023-07-22T14:30:47.157Z</time>
      </trkpt>
      <trkpt lat="47.86864" lon="-2.51743">
        <ele>104</ele>
        <time>2023-07-22T14:30:48.158Z</time>
      </trkpt>
      <trkpt lat="47.86865" lon="-2.51744">
        <ele>104</ele>
        <time>2023-07-22T14:30:49.158Z</time>
      </trkpt>
      <trkpt lat="47.86866" lon="-2.51744">
        <ele>104</ele>
        <time>2023-07-22T14:30:50.158Z</time>
      </trkpt>
      <trkpt lat="47.86867" lon="-2.51744">
        <ele>104</ele>
        <time>2023-07-22T14:30:51.158Z</time>
      </trkpt>
      <trkpt lat="47.86868" lon="-2.51744">
        <ele>104</ele>
        <time>2023-07-22T14:30:52.158Z</time>
      </trkpt>
      <trkpt lat="47.8687" lon="-2.51744">
        <ele>105</ele>
        <time>2023-07-22T14:30:53.158Z</time>
      </trkpt>
      <trkpt lat="47.86871" lon="-2.51745">
        <ele>105</ele>
        <time>2023-07-22T14:30:54.158Z</time>
      </trkpt>
      <trkpt lat="47.86872" lon="-2.51746">
        <ele>105</ele>
        <time>2023-07-22T14:30:55.158Z</time>
      </trkpt>
      <trkpt lat="47.86872" lon="-2.51747">
        <ele>105</ele>
        <time>2023-07-22T14:30:56.157Z</time>
      </trkpt>
      <trkpt lat="47.86873" lon="-2.51749">
        <ele>105</ele>
        <time>2023-07-22T14:30:57.157Z</time>
      </trkpt>
      <trkpt lat="47.86874" lon="-2.51749">
        <ele>106</ele>
        <time>2023-07-22T14:30:58.157Z</time>
      </trkpt>
      <trkpt lat="47.86875" lon="-2.5175">
        <ele>106</ele>
        <time>2023-07-22T14:30:59.157Z</time>
      </trkpt>
      <trkpt lat="47.86875" lon="-2.5175">
        <ele>106</ele>
        <time>2023-07-22T14:31:00.158Z</time>
      </trkpt>
      <trkpt lat="47.86876" lon="-2.5175">
        <ele>107</ele>
        <time>2023-07-22T14:31:01.158Z</time>
      </trkpt>
      <trkpt lat="47.86876" lon="-2.51751">
        <ele>107</ele>
        <time>2023-07-22T14:31:02.158Z</time>
      </trkpt>
      <trkpt lat="47.86877" lon="-2.51751">
        <ele>107</ele>
        <time>2023-07-22T14:31:03.158Z</time>
      </trkpt>
      <trkpt lat="47.86877" lon="-2.51751">
        <ele>107</ele>
        <time>2023-07-22T14:31:04.158Z</time>
      </trkpt>
      <trkpt lat="47.86878" lon="-2.51751">
        <ele>107</ele>
        <time>2023-07-22T14:31:05.157Z</time>
      </trkpt>
      <trkpt lat="47.86879" lon="-2.51751">
        <ele>107</ele>
        <time>2023-07-22T14:31:06.157Z</time>
      </trkpt>
      <trkpt lat="47.8688" lon="-2.51754">
        <ele>107</ele>
        <time>2023-07-22T14:31:07.158Z</time>
      </trkpt>
      <trkpt lat="47.86882" lon="-2.51756">
        <ele>107</ele>
        <time>2023-07-22T14:31:08.158Z</time>
      </trkpt>
      <trkpt lat="47.86883" lon="-2.51757">
        <ele>107</ele>
        <time>2023-07-22T14:31:09.158Z</time>
      </trkpt>
      <trkpt lat="47.86885" lon="-2.51759">
        <ele>108</ele>
        <time>2023-07-22T14:31:10.158Z</time>
      </trkpt>
      <trkpt lat="47.86885" lon="-2.5176">
        <ele>108</ele>
        <time>2023-07-22T14:31:11.158Z</time>
      </trkpt>
      <trkpt lat="47.86886" lon="-2.51762">
        <ele>108</ele>
        <time>2023-07-22T14:31:12.158Z</time>
      </trkpt>
      <trkpt lat="47.86886" lon="-2.51763">
        <ele>108</ele>
        <time>2023-07-22T14:31:13.158Z</time>
      </trkpt>
      <trkpt lat="47.86887" lon="-2.51764">
        <ele>108</ele>
        <time>2023-07-22T14:31:14.157Z</time>
      </trkpt>
      <trkpt lat="47.86887" lon="-2.51766">
        <ele>108</ele>
        <time>2023-07-22T14:31:15.158Z</time>
      </trkpt>
      <trkpt lat="47.86888" lon="-2.51767">
        <ele>108</ele>
        <time>2023-07-22T14:31:16.157Z</time>
      </trkpt>
      <trkpt lat="47.86889" lon="-2.51768">
        <ele>108</ele>
        <time>2023-07-22T14:31:17.157Z</time>
      </trkpt>
      <trkpt lat="47.8689" lon="-2.51769">
        <ele>108</ele>
        <time>2023-07-22T14:31:18.157Z</time>
      </trkpt>
      <trkpt lat="47.86891" lon="-2.51771">
        <ele>108</ele>
        <time>2023-07-22T14:31:19.158Z</time>
      </trkpt>
      <trkpt lat="47.86892" lon="-2.51772">
        <ele>108</ele>
        <time>2023-07-22T14:31:20.158Z</time>
      </trkpt>
      <trkpt lat="47.86893" lon="-2.51772">
        <ele>109</ele>
        <time>2023-07-22T14:31:21.158Z</time>
      </trkpt>
      <trkpt lat="47.86893" lon="-2.51773">
        <ele>109</ele>
        <time>2023-07-22T14:31:22.158Z</time>
      </trkpt>
      <trkpt lat="47.86894" lon="-2.51774">
        <ele>109</ele>
        <time>2023-07-22T14:31:23.158Z</time>
      </trkpt>
      <trkpt lat="47.86895" lon="-2.51774">
        <ele>109</ele>
        <time>2023-07-22T14:31:24.157Z</time>
      </trkpt>
      <trkpt lat="47.86896" lon="-2.51773">
        <ele>109</ele>
        <time>2023-07-22T14:31:25.158Z</time>
      </trkpt>
      <trkpt lat="47.86897" lon="-2.51774">
        <ele>110</ele>
        <time>2023-07-22T14:31:26.158Z</time>
      </trkpt>
      <trkpt lat="47.86898" lon="-2.51774">
        <ele>110</ele>
        <time>2023-07-22T14:31:27.157Z</time>
      </trkpt>
      <trkpt lat="47.86899" lon="-2.51774">
        <ele>110</ele>
        <time>2023-07-22T14:31:28.157Z</time>
      </trkpt>
      <trkpt lat="47.869" lon="-2.51775">
        <ele>110</ele>
        <time>2023-07-22T14:31:29.157Z</time>
      </trkpt>
      <trkpt lat="47.869" lon="-2.51775">
        <ele>111</ele>
        <time>2023-07-22T14:31:30.157Z</time>
      </trkpt>
      <trkpt lat="47.869" lon="-2.51775">
        <ele>111</ele>
        <time>2023-07-22T14:31:31.158Z</time>
      </trkpt>
      <trkpt lat="47.86902" lon="-2.51776">
        <ele>111</ele>
        <time>2023-07-22T14:31:32.157Z</time>
      </trkpt>
      <trkpt lat="47.86903" lon="-2.51773">
        <ele>111</ele>
        <time>2023-07-22T14:31:33.158Z</time>
      </trkpt>
      <trkpt lat="47.86905" lon="-2.5177">
        <ele>111</ele>
        <time>2023-07-22T14:31:34.157Z</time>
      </trkpt>
      <trkpt lat="47.86907" lon="-2.51768">
        <ele>110</ele>
        <time>2023-07-22T14:31:35.157Z</time>
      </trkpt>
      <trkpt lat="47.86908" lon="-2.51767">
        <ele>110</ele>
        <time>2023-07-22T14:31:36.157Z</time>
      </trkpt>
      <trkpt lat="47.86909" lon="-2.51765">
        <ele>110</ele>
        <time>2023-07-22T14:31:37.157Z</time>
      </trkpt>
      <trkpt lat="47.8691" lon="-2.51764">
        <ele>110</ele>
        <time>2023-07-22T14:31:38.157Z</time>
      </trkpt>
      <trkpt lat="47.86911" lon="-2.51762">
        <ele>109</ele>
        <time>2023-07-22T14:31:39.157Z</time>
      </trkpt>
      <trkpt lat="47.86912" lon="-2.51762">
        <ele>109</ele>
        <time>2023-07-22T14:31:40.157Z</time>
      </trkpt>
      <trkpt lat="47.86913" lon="-2.51761">
        <ele>109</ele>
        <time>2023-07-22T14:31:41.157Z</time>
      </trkpt>
      <trkpt lat="47.86914" lon="-2.51761">
        <ele>109</ele>
        <time>2023-07-22T14:31:42.157Z</time>
      </trkpt>
      <trkpt lat="47.86914" lon="-2.5176">
        <ele>110</ele>
        <time>2023-07-22T14:31:43.157Z</time>
      </trkpt>
      <trkpt lat="47.86915" lon="-2.51759">
        <ele>110</ele>
        <time>2023-07-22T14:31:44.158Z</time>
      </trkpt>
      <trkpt lat="47.86916" lon="-2.51758">
        <ele>110</ele>
        <time>2023-07-22T14:31:45.158Z</time>
      </trkpt>
      <trkpt lat="47.86917" lon="-2.51757">
        <ele>110</ele>
        <time>2023-07-22T14:31:46.158Z</time>
      </trkpt>
      <trkpt lat="47.86918" lon="-2.51755">
        <ele>109</ele>
        <time>2023-07-22T14:31:47.158Z</time>
      </trkpt>
      <trkpt lat="47.86918" lon="-2.51753">
        <ele>109</ele>
        <time>2023-07-22T14:31:48.158Z</time>
      </trkpt>
      <trkpt lat="47.86922" lon="-2.51751">
        <ele>109</ele>
        <time>2023-07-22T14:31:49.158Z</time>
      </trkpt>
      <trkpt lat="47.86924" lon="-2.5175">
        <ele>108</ele>
        <time>2023-07-22T14:31:50.158Z</time>
      </trkpt>
      <trkpt lat="47.86925" lon="-2.51749">
        <ele>108</ele>
        <time>2023-07-22T14:31:51.158Z</time>
      </trkpt>
      <trkpt lat="47.86927" lon="-2.51751">
        <ele>108</ele>
        <time>2023-07-22T14:31:52.158Z</time>
      </trkpt>
      <trkpt lat="47.86927" lon="-2.51752">
        <ele>108</ele>
        <time>2023-07-22T14:31:53.157Z</time>
      </trkpt>
      <trkpt lat="47.86928" lon="-2.51749">
        <ele>107</ele>
        <time>2023-07-22T14:31:54.157Z</time>
      </trkpt>
      <trkpt lat="47.86929" lon="-2.51749">
        <ele>107</ele>
        <time>2023-07-22T14:31:55.157Z</time>
      </trkpt>
      <trkpt lat="47.8693" lon="-2.51749">
        <ele>107</ele>
        <time>2023-07-22T14:31:56.157Z</time>
      </trkpt>
      <trkpt lat="47.8693" lon="-2.51749">
        <ele>107</ele>
        <time>2023-07-22T14:31:57.157Z</time>
      </trkpt>
      <trkpt lat="47.86931" lon="-2.5175">
        <ele>106</ele>
        <time>2023-07-22T14:31:58.158Z</time>
      </trkpt>
      <trkpt lat="47.86931" lon="-2.5175">
        <ele>106</ele>
        <time>2023-07-22T14:31:59.157Z</time>
      </trkpt>
      <trkpt lat="47.86932" lon="-2.51749">
        <ele>107</ele>
        <time>2023-07-22T14:32:00.158Z</time>
      </trkpt>
      <trkpt lat="47.86932" lon="-2.5175">
        <ele>107</ele>
        <time>2023-07-22T14:32:01.157Z</time>
      </trkpt>
      <trkpt lat="47.86932" lon="-2.51751">
        <ele>107</ele>
        <time>2023-07-22T14:32:02.158Z</time>
      </trkpt>
      <trkpt lat="47.86932" lon="-2.51752">
        <ele>108</ele>
        <time>2023-07-22T14:32:03.158Z</time>
      </trkpt>
      <trkpt lat="47.86933" lon="-2.51754">
        <ele>108</ele>
        <time>2023-07-22T14:32:04.158Z</time>
      </trkpt>
      <trkpt lat="47.86933" lon="-2.51756">
        <ele>109</ele>
        <time>2023-07-22T14:32:05.158Z</time>
      </trkpt>
      <trkpt lat="47.86934" lon="-2.51757">
        <ele>109</ele>
        <time>2023-07-22T14:32:06.158Z</time>
      </trkpt>
      <trkpt lat="47.86935" lon="-2.51759">
        <ele>110</ele>
        <time>2023-07-22T14:32:07.158Z</time>
      </trkpt>
      <trkpt lat="47.86935" lon="-2.5176">
        <ele>110</ele>
        <time>2023-07-22T14:32:08.158Z</time>
      </trkpt>
      <trkpt lat="47.86937" lon="-2.51762">
        <ele>111</ele>
        <time>2023-07-22T14:32:09.157Z</time>
      </trkpt>
      <trkpt lat="47.86938" lon="-2.51763">
        <ele>111</ele>
        <time>2023-07-22T14:32:10.157Z</time>
      </trkpt>
      <trkpt lat="47.86939" lon="-2.51765">
        <ele>112</ele>
        <time>2023-07-22T14:32:11.157Z</time>
      </trkpt>
      <trkpt lat="47.86939" lon="-2.51767">
        <ele>112</ele>
        <time>2023-07-22T14:32:12.158Z</time>
      </trkpt>
      <trkpt lat="47.8694" lon="-2.51769">
        <ele>113</ele>
        <time>2023-07-22T14:32:13.158Z</time>
      </trkpt>
      <trkpt lat="47.86942" lon="-2.5177">
        <ele>113</ele>
        <time>2023-07-22T14:32:14.158Z</time>
      </trkpt>
      <trkpt lat="47.86943" lon="-2.51771">
        <ele>113</ele>
        <time>2023-07-22T14:32:15.157Z</time>
      </trkpt>
      <trkpt lat="47.86943" lon="-2.51771">
        <ele>113</ele>
        <time>2023-07-22T14:32:16.158Z</time>
      </trkpt>
      <trkpt lat="47.86944" lon="-2.51773">
        <ele>113</ele>
        <time>2023-07-22T14:32:17.157Z</time>
      </trkpt>
      <trkpt lat="47.86945" lon="-2.51774">
        <ele>114</ele>
        <time>2023-07-22T14:32:18.157Z</time>
      </trkpt>
      <trkpt lat="47.86945" lon="-2.51776">
        <ele>114</ele>
        <time>2023-07-22T14:32:19.158Z</time>
      </trkpt>
      <trkpt lat="47.86945" lon="-2.51778">
        <ele>114</ele>
        <time>2023-07-22T14:32:20.157Z</time>
      </trkpt>
      <trkpt lat="47.86946" lon="-2.51779">
        <ele>114</ele>
        <time>2023-07-22T14:32:21.157Z</time>
      </trkpt>
      <trkpt lat="47.86946" lon="-2.51781">
        <ele>115</ele>
        <time>2023-07-22T14:32:22.157Z</time>
      </trkpt>
      <trkpt lat="47.86947" lon="-2.51781">
        <ele>115</ele>
        <time>2023-07-22T14:32:23.158Z</time>
      </trkpt>
      <trkpt lat="47.86948" lon="-2.51781">
        <ele>116</ele>
        <time>2023-07-22T14:32:24.157Z</time>
      </trkpt>
      <trkpt lat="47.86949" lon="-2.51782">
        <ele>116</ele>
        <time>2023-07-22T14:32:25.157Z</time>
      </trkpt>
      <trkpt lat="47.8695" lon="-2.51781">
        <ele>116</ele>
        <time>2023-07-22T14:32:26.158Z</time>
      </trkpt>
      <trkpt lat="47.86952" lon="-2.51782">
        <ele>117</ele>
        <time>2023-07-22T14:32:27.158Z</time>
      </trkpt>
      <trkpt lat="47.86953" lon="-2.51783">
        <ele>117</ele>
        <time>2023-07-22T14:32:28.158Z</time>
      </trkpt>
      <trkpt lat="47.86954" lon="-2.51784">
        <ele>117</ele>
        <time>2023-07-22T14:32:29.157Z</time>
      </trkpt>
      <trkpt lat="47.86956" lon="-2.51786">
        <ele>117</ele>
        <time>2023-07-22T14:32:30.158Z</time>
      </trkpt>
      <trkpt lat="47.86957" lon="-2.51787">
        <ele>117</ele>
        <time>2023-07-22T14:32:31.157Z</time>
      </trkpt>
      <trkpt lat="47.86958" lon="-2.51788">
        <ele>117</ele>
        <time>2023-07-22T14:32:32.158Z</time>
      </trkpt>
      <trkpt lat="47.86959" lon="-2.51789">
        <ele>117</ele>
        <time>2023-07-22T14:32:33.158Z</time>
      </trkpt>
      <trkpt lat="47.86959" lon="-2.51789">
        <ele>117</ele>
        <time>2023-07-22T14:32:34.158Z</time>
      </trkpt>
      <trkpt lat="47.8696" lon="-2.51791">
        <ele>117</ele>
        <time>2023-07-22T14:32:35.157Z</time>
      </trkpt>
      <trkpt lat="47.86961" lon="-2.51792">
        <ele>116</ele>
        <time>2023-07-22T14:32:36.158Z</time>
      </trkpt>
      <trkpt lat="47.86962" lon="-2.51793">
        <ele>116</ele>
        <time>2023-07-22T14:32:37.158Z</time>
      </trkpt>
      <trkpt lat="47.86963" lon="-2.51793">
        <ele>116</ele>
        <time>2023-07-22T14:32:38.158Z</time>
      </trkpt>
      <trkpt lat="47.86964" lon="-2.51794">
        <ele>116</ele>
        <time>2023-07-22T14:32:39.158Z</time>
      </trkpt>
      <trkpt lat="47.86965" lon="-2.51795">
        <ele>116</ele>
        <time>2023-07-22T14:32:40.158Z</time>
      </trkpt>
      <trkpt lat="47.86965" lon="-2.51796">
        <ele>116</ele>
        <time>2023-07-22T14:32:41.157Z</time>
      </trkpt>
      <trkpt lat="47.86966" lon="-2.51797">
        <ele>116</ele>
        <time>2023-07-22T14:32:42.157Z</time>
      </trkpt>
      <trkpt lat="47.86966" lon="-2.51797">
        <ele>116</ele>
        <time>2023-07-22T14:32:43.157Z</time>
      </trkpt>
      <trkpt lat="47.86968" lon="-2.51798">
        <ele>116</ele>
        <time>2023-07-22T14:32:44.157Z</time>
      </trkpt>
      <trkpt lat="47.86968" lon="-2.51798">
        <ele>116</ele>
        <time>2023-07-22T14:32:45.158Z</time>
      </trkpt>
      <trkpt lat="47.86969" lon="-2.51799">
        <ele>116</ele>
        <time>2023-07-22T14:32:46.158Z</time>
      </trkpt>
      <trkpt lat="47.8697" lon="-2.518">
        <ele>116</ele>
        <time>2023-07-22T14:32:47.157Z</time>
      </trkpt>
      <trkpt lat="47.86971" lon="-2.51801">
        <ele>116</ele>
        <time>2023-07-22T14:32:48.158Z</time>
      </trkpt>
      <trkpt lat="47.86971" lon="-2.51801">
        <ele>117</ele>
        <time>2023-07-22T14:32:49.158Z</time>
      </trkpt>
      <trkpt lat="47.86972" lon="-2.51801">
        <ele>117</ele>
        <time>2023-07-22T14:32:50.157Z</time>
      </trkpt>
      <trkpt lat="47.86973" lon="-2.51801">
        <ele>118</ele>
        <time>2023-07-22T14:32:51.158Z</time>
      </trkpt>
      <trkpt lat="47.86974" lon="-2.51802">
        <ele>118</ele>
        <time>2023-07-22T14:32:52.157Z</time>
      </trkpt>
      <trkpt lat="47.86975" lon="-2.51802">
        <ele>118</ele>
        <time>2023-07-22T14:32:53.157Z</time>
      </trkpt>
      <trkpt lat="47.86976" lon="-2.51803">
        <ele>119</ele>
        <time>2023-07-22T14:32:54.157Z</time>
      </trkpt>
      <trkpt lat="47.86978" lon="-2.51804">
        <ele>119</ele>
        <time>2023-07-22T14:32:55.157Z</time>
      </trkpt>
      <trkpt lat="47.86979" lon="-2.51804">
        <ele>119</ele>
        <time>2023-07-22T14:32:56.157Z</time>
      </trkpt>
      <trkpt lat="47.8698" lon="-2.51805">
        <ele>120</ele>
        <time>2023-07-22T14:32:57.157Z</time>
      </trkpt>
      <trkpt lat="47.86981" lon="-2.51805">
        <ele>120</ele>
        <time>2023-07-22T14:32:58.157Z</time>
      </trkpt>
      <trkpt lat="47.86982" lon="-2.51805">
        <ele>120</ele>
        <time>2023-07-22T14:32:59.157Z</time>
      </trkpt>
      <trkpt lat="47.86983" lon="-2.51805">
        <ele>121</ele>
        <time>2023-07-22T14:33:00.158Z</time>
      </trkpt>
      <trkpt lat="47.86985" lon="-2.51805">
        <ele>121</ele>
        <time>2023-07-22T14:33:01.158Z</time>
      </trkpt>
      <trkpt lat="47.86985" lon="-2.51805">
        <ele>121</ele>
        <time>2023-07-22T14:33:02.158Z</time>
      </trkpt>
      <trkpt lat="47.86986" lon="-2.51805">
        <ele>122</ele>
        <time>2023-07-22T14:33:03.158Z</time>
      </trkpt>
      <trkpt lat="47.86987" lon="-2.51805">
        <ele>122</ele>
        <time>2023-07-22T14:33:04.157Z</time>
      </trkpt>
      <trkpt lat="47.86988" lon="-2.51805">
        <ele>122</ele>
        <time>2023-07-22T14:33:05.157Z</time>
      </trkpt>
      <trkpt lat="47.86988" lon="-2.51805">
        <ele>122</ele>
        <time>2023-07-22T14:33:06.157Z</time>
      </trkpt>
      <trkpt lat="47.86989" lon="-2.51806">
        <ele>122</ele>
        <time>2023-07-22T14:33:07.157Z</time>
      </trkpt>
      <trkpt lat="47.8699" lon="-2.51807">
        <ele>122</ele>
        <time>2023-07-22T14:33:08.157Z</time>
      </trkpt>
      <trkpt lat="47.86991" lon="-2.51808">
        <ele>122</ele>
        <time>2023-07-22T14:33:09.157Z</time>
      </trkpt>
      <trkpt lat="47.86992" lon="-2.5181">
        <ele>122</ele>
        <time>2023-07-22T14:33:10.157Z</time>
      </trkpt>
      <trkpt lat="47.86992" lon="-2.51811">
        <ele>123</ele>
        <time>2023-07-22T14:33:11.157Z</time>
      </trkpt>
      <trkpt lat="47.86992" lon="-2.51811">
        <ele>123</ele>
        <time>2023-07-22T14:33:12.158Z</time>
      </trkpt>
      <trkpt lat="47.86993" lon="-2.51812">
        <ele>124</ele>
        <time>2023-07-22T14:33:13.158Z</time>
      </trkpt>
      <trkpt lat="47.86994" lon="-2.51813">
        <ele>124</ele>
        <time>2023-07-22T14:33:14.158Z</time>
      </trkpt>
      <trkpt lat="47.86993" lon="-2.51815">
        <ele>125</ele>
        <time>2023-07-22T14:33:15.157Z</time>
      </trkpt>
      <trkpt lat="47.86993" lon="-2.51816">
        <ele>125</ele>
        <time>2023-07-22T14:33:16.157Z</time>
      </trkpt>
      <trkpt lat="47.86994" lon="-2.51817">
        <ele>125</ele>
        <time>2023-07-22T14:33:17.158Z</time>
      </trkpt>
      <trkpt lat="47.86995" lon="-2.51818">
        <ele>126</ele>
        <time>2023-07-22T14:33:18.157Z</time>
      </trkpt>
      <trkpt lat="47.86996" lon="-2.51818">
        <ele>126</ele>
        <time>2023-07-22T14:33:19.157Z</time>
      </trkpt>
      <trkpt lat="47.86997" lon="-2.51818">
        <ele>127</ele>
        <time>2023-07-22T14:33:20.158Z</time>
      </trkpt>
      <trkpt lat="47.86998" lon="-2.51817">
        <ele>127</ele>
        <time>2023-07-22T14:33:21.158Z</time>
      </trkpt>
      <trkpt lat="47.86999" lon="-2.51816">
        <ele>126</ele>
        <time>2023-07-22T14:33:22.157Z</time>
      </trkpt>
      <trkpt lat="47.87" lon="-2.51815">
        <ele>125</ele>
        <time>2023-07-22T14:33:23.158Z</time>
      </trkpt>
      <trkpt lat="47.87001" lon="-2.51815">
        <ele>125</ele>
        <time>2023-07-22T14:33:24.158Z</time>
      </trkpt>
      <trkpt lat="47.87002" lon="-2.51815">
        <ele>124</ele>
        <time>2023-07-22T14:33:25.157Z</time>
      </trkpt>
      <trkpt lat="47.87003" lon="-2.51815">
        <ele>124</ele>
        <time>2023-07-22T14:33:26.157Z</time>
      </trkpt>
      <trkpt lat="47.87004" lon="-2.51816">
        <ele>123</ele>
        <time>2023-07-22T14:33:27.157Z</time>
      </trkpt>
      <trkpt lat="47.87005" lon="-2.51816">
        <ele>122</ele>
        <time>2023-07-22T14:33:28.157Z</time>
      </trkpt>
      <trkpt lat="47.87006" lon="-2.51817">
        <ele>122</ele>
        <time>2023-07-22T14:33:29.158Z</time>
      </trkpt>
      <trkpt lat="47.87007" lon="-2.51817">
        <ele>122</ele>
        <time>2023-07-22T14:33:30.157Z</time>
      </trkpt>
      <trkpt lat="47.87008" lon="-2.51817">
        <ele>121</ele>
        <time>2023-07-22T14:33:31.158Z</time>
      </trkpt>
      <trkpt lat="47.87009" lon="-2.51818">
        <ele>121</ele>
        <time>2023-07-22T14:33:32.157Z</time>
      </trkpt>
      <trkpt lat="47.8701" lon="-2.51818">
        <ele>120</ele>
        <time>2023-07-22T14:33:33.157Z</time>
      </trkpt>
      <trkpt lat="47.87012" lon="-2.51819">
        <ele>120</ele>
        <time>2023-07-22T14:33:34.157Z</time>
      </trkpt>
      <trkpt lat="47.87013" lon="-2.5182">
        <ele>119</ele>
        <time>2023-07-22T14:33:35.157Z</time>
      </trkpt>
      <trkpt lat="47.87013" lon="-2.51822">
        <ele>119</ele>
        <time>2023-07-22T14:33:36.157Z</time>
      </trkpt>
      <trkpt lat="47.87014" lon="-2.51822">
        <ele>119</ele>
        <time>2023-07-22T14:33:37.158Z</time>
      </trkpt>
      <trkpt lat="47.87015" lon="-2.51822">
        <ele>118</ele>
        <time>2023-07-22T14:33:38.158Z</time>
      </trkpt>
      <trkpt lat="47.87016" lon="-2.51822">
        <ele>118</ele>
        <time>2023-07-22T14:33:39.158Z</time>
      </trkpt>
      <trkpt lat="47.87017" lon="-2.51823">
        <ele>117</ele>
        <time>2023-07-22T14:33:40.157Z</time>
      </trkpt>
      <trkpt lat="47.87018" lon="-2.51822">
        <ele>117</ele>
        <time>2023-07-22T14:33:41.157Z</time>
      </trkpt>
      <trkpt lat="47.87019" lon="-2.51822">
        <ele>116</ele>
        <time>2023-07-22T14:33:42.157Z</time>
      </trkpt>
      <trkpt lat="47.87019" lon="-2.51821">
        <ele>116</ele>
        <time>2023-07-22T14:33:43.157Z</time>
      </trkpt>
      <trkpt lat="47.87019" lon="-2.51821">
        <ele>116</ele>
        <time>2023-07-22T14:33:44.158Z</time>
      </trkpt>
      <trkpt lat="47.8702" lon="-2.5182">
        <ele>116</ele>
        <time>2023-07-22T14:33:45.158Z</time>
      </trkpt>
      <trkpt lat="47.87019" lon="-2.5182">
        <ele>115</ele>
        <time>2023-07-22T14:33:46.157Z</time>
      </trkpt>
      <trkpt lat="47.87021" lon="-2.51823">
        <ele>113</ele>
        <time>2023-07-22T14:33:54.492Z</time>
      </trkpt>
      <trkpt lat="47.87021" lon="-2.51823">
        <ele>113</ele>
        <time>2023-07-22T14:33:55.491Z</time>
      </trkpt>
      <trkpt lat="47.87022" lon="-2.51819">
        <ele>112</ele>
        <time>2023-07-22T14:34:03.533Z</time>
      </trkpt>
      <trkpt lat="47.87022" lon="-2.51819">
        <ele>112</ele>
        <time>2023-07-22T14:34:04.534Z</time>
      </trkpt>
      <trkpt lat="47.87021" lon="-2.5182">
        <ele>111</ele>
        <time>2023-07-22T14:34:05.533Z</time>
      </trkpt>
    </trkseg>
  </trk>
</gpx>